57650 lines
1.8 MiB
Plaintext
57650 lines
1.8 MiB
Plaintext
<?xml version='1.0' encoding='UTF-8'?>
|
|
<gpx version="1.1" creator="https://www.komoot.de" xmlns="http://www.topografix.com/GPX/1/1" xmlns:xsi="http://www.w3.org/2001/XMLSchema-instance" xsi:schemaLocation="http://www.topografix.com/GPX/1/1 http://www.topografix.com/GPX/1/1/gpx.xsd">
|
|
<metadata>
|
|
<name>Blochsgård to Alrum Strand Shelterplads</name>
|
|
<author>
|
|
<link href="https://www.komoot.de">
|
|
<text>komoot</text>
|
|
<type>text/html</type>
|
|
</link>
|
|
</author>
|
|
</metadata>
|
|
<trk>
|
|
<name>Blochsgård to Alrum Strand Shelterplads</name>
|
|
<type>racebike</type>
|
|
<trkseg>
|
|
<trkpt lat="55.683071" lon="8.183839">
|
|
<ele>9.146264</ele>
|
|
<time>2026-07-12T08:10:14.000Z</time>
|
|
</trkpt>
|
|
<trkpt lat="55.683071" lon="8.183857">
|
|
<ele>9.146264</ele>
|
|
<time>2026-07-12T08:13:24.000Z</time>
|
|
</trkpt>
|
|
<trkpt lat="55.683067" lon="8.183889">
|
|
<ele>9.146264</ele>
|
|
<time>2026-07-12T08:13:25.000Z</time>
|
|
</trkpt>
|
|
<trkpt lat="55.683063" lon="8.183908">
|
|
<ele>9.146264</ele>
|
|
<time>2026-07-12T08:13:26.000Z</time>
|
|
</trkpt>
|
|
<trkpt lat="55.683056" lon="8.183927">
|
|
<ele>9.146264</ele>
|
|
<time>2026-07-12T08:13:27.000Z</time>
|
|
</trkpt>
|
|
<trkpt lat="55.683044" lon="8.183941">
|
|
<ele>9.146264</ele>
|
|
<time>2026-07-12T08:13:28.000Z</time>
|
|
</trkpt>
|
|
<trkpt lat="55.683037" lon="8.183947">
|
|
<ele>9.146264</ele>
|
|
<time>2026-07-12T08:13:29.000Z</time>
|
|
</trkpt>
|
|
<trkpt lat="55.683025" lon="8.183950">
|
|
<ele>9.146264</ele>
|
|
<time>2026-07-12T08:13:30.000Z</time>
|
|
</trkpt>
|
|
<trkpt lat="55.683010" lon="8.183945">
|
|
<ele>9.146264</ele>
|
|
<time>2026-07-12T08:13:31.000Z</time>
|
|
</trkpt>
|
|
<trkpt lat="55.682999" lon="8.183934">
|
|
<ele>9.146264</ele>
|
|
<time>2026-07-12T08:13:32.000Z</time>
|
|
</trkpt>
|
|
<trkpt lat="55.682995" lon="8.183915">
|
|
<ele>9.146264</ele>
|
|
<time>2026-07-12T08:13:33.000Z</time>
|
|
</trkpt>
|
|
<trkpt lat="55.682991" lon="8.183885">
|
|
<ele>9.146264</ele>
|
|
<time>2026-07-12T08:13:34.000Z</time>
|
|
</trkpt>
|
|
<trkpt lat="55.682987" lon="8.183866">
|
|
<ele>9.146264</ele>
|
|
<time>2026-07-12T08:13:35.000Z</time>
|
|
</trkpt>
|
|
<trkpt lat="55.682987" lon="8.183819">
|
|
<ele>9.146264</ele>
|
|
<time>2026-07-12T08:13:36.000Z</time>
|
|
</trkpt>
|
|
<trkpt lat="55.682987" lon="8.183788">
|
|
<ele>9.146264</ele>
|
|
<time>2026-07-12T08:13:37.000Z</time>
|
|
</trkpt>
|
|
<trkpt lat="55.682991" lon="8.183753">
|
|
<ele>9.146264</ele>
|
|
<time>2026-07-12T08:13:38.000Z</time>
|
|
</trkpt>
|
|
<trkpt lat="55.682995" lon="8.183733">
|
|
<ele>9.146264</ele>
|
|
<time>2026-07-12T08:13:39.000Z</time>
|
|
</trkpt>
|
|
<trkpt lat="55.683002" lon="8.183696">
|
|
<ele>9.146264</ele>
|
|
<time>2026-07-12T08:13:40.000Z</time>
|
|
</trkpt>
|
|
<trkpt lat="55.683006" lon="8.183681">
|
|
<ele>9.146264</ele>
|
|
<time>2026-07-12T08:13:41.000Z</time>
|
|
</trkpt>
|
|
<trkpt lat="55.683022" lon="8.183667">
|
|
<ele>9.146264</ele>
|
|
<time>2026-07-12T08:13:42.000Z</time>
|
|
</trkpt>
|
|
<trkpt lat="55.683033" lon="8.183667">
|
|
<ele>9.146264</ele>
|
|
<time>2026-07-12T08:13:43.000Z</time>
|
|
</trkpt>
|
|
<trkpt lat="55.683044" lon="8.183668">
|
|
<ele>9.146264</ele>
|
|
<time>2026-07-12T08:13:44.000Z</time>
|
|
</trkpt>
|
|
<trkpt lat="55.683063" lon="8.183685">
|
|
<ele>9.146264</ele>
|
|
<time>2026-07-12T08:13:45.000Z</time>
|
|
</trkpt>
|
|
<trkpt lat="55.683067" lon="8.183696">
|
|
<ele>9.146264</ele>
|
|
<time>2026-07-12T08:13:46.000Z</time>
|
|
</trkpt>
|
|
<trkpt lat="55.683071" lon="8.183734">
|
|
<ele>9.146264</ele>
|
|
<time>2026-07-12T08:13:47.000Z</time>
|
|
</trkpt>
|
|
<trkpt lat="55.683075" lon="8.183756">
|
|
<ele>9.146264</ele>
|
|
<time>2026-07-12T08:13:48.000Z</time>
|
|
</trkpt>
|
|
<trkpt lat="55.683075" lon="8.183798">
|
|
<ele>9.146264</ele>
|
|
<time>2026-07-12T08:13:49.000Z</time>
|
|
</trkpt>
|
|
<trkpt lat="55.683075" lon="8.183817">
|
|
<ele>9.146264</ele>
|
|
<time>2026-07-12T08:13:50.000Z</time>
|
|
</trkpt>
|
|
<trkpt lat="55.683075" lon="8.183859">
|
|
<ele>9.146264</ele>
|
|
<time>2026-07-12T08:13:51.000Z</time>
|
|
</trkpt>
|
|
<trkpt lat="55.683075" lon="8.183878">
|
|
<ele>9.146264</ele>
|
|
<time>2026-07-12T08:13:52.000Z</time>
|
|
</trkpt>
|
|
<trkpt lat="55.683075" lon="8.183913">
|
|
<ele>9.146264</ele>
|
|
<time>2026-07-12T08:13:53.000Z</time>
|
|
</trkpt>
|
|
<trkpt lat="55.683071" lon="8.183932">
|
|
<ele>9.146264</ele>
|
|
<time>2026-07-12T08:13:54.000Z</time>
|
|
</trkpt>
|
|
<trkpt lat="55.683060" lon="8.183957">
|
|
<ele>9.146264</ele>
|
|
<time>2026-07-12T08:13:55.000Z</time>
|
|
</trkpt>
|
|
<trkpt lat="55.683052" lon="8.183965">
|
|
<ele>9.146264</ele>
|
|
<time>2026-07-12T08:13:56.000Z</time>
|
|
</trkpt>
|
|
<trkpt lat="55.683029" lon="8.183971">
|
|
<ele>9.146264</ele>
|
|
<time>2026-07-12T08:13:57.000Z</time>
|
|
</trkpt>
|
|
<trkpt lat="55.683018" lon="8.183971">
|
|
<ele>9.146264</ele>
|
|
<time>2026-07-12T08:13:58.000Z</time>
|
|
</trkpt>
|
|
<trkpt lat="55.682987" lon="8.183969">
|
|
<ele>9.146264</ele>
|
|
<time>2026-07-12T08:13:59.000Z</time>
|
|
</trkpt>
|
|
<trkpt lat="55.682976" lon="8.183969">
|
|
<ele>9.146264</ele>
|
|
<time>2026-07-12T08:14:00.000Z</time>
|
|
</trkpt>
|
|
<trkpt lat="55.682938" lon="8.183959">
|
|
<ele>9.146264</ele>
|
|
<time>2026-07-12T08:14:01.000Z</time>
|
|
</trkpt>
|
|
<trkpt lat="55.682922" lon="8.183954">
|
|
<ele>9.146264</ele>
|
|
<time>2026-07-12T08:14:02.000Z</time>
|
|
</trkpt>
|
|
<trkpt lat="55.682896" lon="8.183942">
|
|
<ele>9.146264</ele>
|
|
<time>2026-07-12T08:14:03.000Z</time>
|
|
</trkpt>
|
|
<trkpt lat="55.682873" lon="8.183928">
|
|
<ele>9.146264</ele>
|
|
<time>2026-07-12T08:14:04.000Z</time>
|
|
</trkpt>
|
|
<trkpt lat="55.682846" lon="8.183912">
|
|
<ele>9.146264</ele>
|
|
<time>2026-07-12T08:14:05.000Z</time>
|
|
</trkpt>
|
|
<trkpt lat="55.682819" lon="8.183897">
|
|
<ele>9.146264</ele>
|
|
<time>2026-07-12T08:14:06.000Z</time>
|
|
</trkpt>
|
|
<trkpt lat="55.682793" lon="8.183882">
|
|
<ele>9.146264</ele>
|
|
<time>2026-07-12T08:14:07.000Z</time>
|
|
</trkpt>
|
|
<trkpt lat="55.682755" lon="8.183860">
|
|
<ele>9.146264</ele>
|
|
<time>2026-07-12T08:14:08.000Z</time>
|
|
</trkpt>
|
|
<trkpt lat="55.682735" lon="8.183850">
|
|
<ele>9.146264</ele>
|
|
<time>2026-07-12T08:14:09.000Z</time>
|
|
</trkpt>
|
|
<trkpt lat="55.682713" lon="8.183835">
|
|
<ele>9.146264</ele>
|
|
<time>2026-07-12T08:14:10.000Z</time>
|
|
</trkpt>
|
|
<trkpt lat="55.682678" lon="8.183815">
|
|
<ele>9.146264</ele>
|
|
<time>2026-07-12T08:14:11.000Z</time>
|
|
</trkpt>
|
|
<trkpt lat="55.682667" lon="8.183808">
|
|
<ele>9.146264</ele>
|
|
<time>2026-07-12T08:14:12.000Z</time>
|
|
</trkpt>
|
|
<trkpt lat="55.682632" lon="8.183792">
|
|
<ele>9.145010</ele>
|
|
<time>2026-07-12T08:14:13.000Z</time>
|
|
</trkpt>
|
|
<trkpt lat="55.682617" lon="8.183784">
|
|
<ele>9.144329</ele>
|
|
<time>2026-07-12T08:14:14.000Z</time>
|
|
</trkpt>
|
|
<trkpt lat="55.682583" lon="8.183771">
|
|
<ele>9.142817</ele>
|
|
<time>2026-07-12T08:14:15.000Z</time>
|
|
</trkpt>
|
|
<trkpt lat="55.682571" lon="8.183767">
|
|
<ele>9.142286</ele>
|
|
<time>2026-07-12T08:14:16.000Z</time>
|
|
</trkpt>
|
|
<trkpt lat="55.682541" lon="8.183754">
|
|
<ele>9.140943</ele>
|
|
<time>2026-07-12T08:14:17.000Z</time>
|
|
</trkpt>
|
|
<trkpt lat="55.682526" lon="8.183743">
|
|
<ele>9.140238</ele>
|
|
<time>2026-07-12T08:14:18.000Z</time>
|
|
</trkpt>
|
|
<trkpt lat="55.682495" lon="8.183729">
|
|
<ele>9.138847</ele>
|
|
<time>2026-07-12T08:14:19.000Z</time>
|
|
</trkpt>
|
|
<trkpt lat="55.682487" lon="8.183726">
|
|
<ele>9.138492</ele>
|
|
<time>2026-07-12T08:14:20.000Z</time>
|
|
</trkpt>
|
|
<trkpt lat="55.682465" lon="8.183715">
|
|
<ele>9.137498</ele>
|
|
<time>2026-07-12T08:14:21.000Z</time>
|
|
</trkpt>
|
|
<trkpt lat="55.682457" lon="8.183708">
|
|
<ele>9.137110</ele>
|
|
<time>2026-07-12T08:14:22.000Z</time>
|
|
</trkpt>
|
|
<trkpt lat="55.682449" lon="8.183672">
|
|
<ele>9.136162</ele>
|
|
<time>2026-07-12T08:14:23.000Z</time>
|
|
</trkpt>
|
|
<trkpt lat="55.682449" lon="8.183646">
|
|
<ele>9.135524</ele>
|
|
<time>2026-07-12T08:14:24.000Z</time>
|
|
</trkpt>
|
|
<trkpt lat="55.682453" lon="8.183624">
|
|
<ele>9.134958</ele>
|
|
<time>2026-07-12T08:14:25.000Z</time>
|
|
</trkpt>
|
|
<trkpt lat="55.682461" lon="8.183557">
|
|
<ele>9.133279</ele>
|
|
<time>2026-07-12T08:14:26.000Z</time>
|
|
</trkpt>
|
|
<trkpt lat="55.682468" lon="8.183524">
|
|
<ele>9.132415</ele>
|
|
<time>2026-07-12T08:14:27.000Z</time>
|
|
</trkpt>
|
|
<trkpt lat="55.682472" lon="8.183479">
|
|
<ele>9.131299</ele>
|
|
<time>2026-07-12T08:14:28.000Z</time>
|
|
</trkpt>
|
|
<trkpt lat="55.682487" lon="8.183426">
|
|
<ele>9.129845</ele>
|
|
<time>2026-07-12T08:14:29.000Z</time>
|
|
</trkpt>
|
|
<trkpt lat="55.682499" lon="8.183373">
|
|
<ele>9.128445</ele>
|
|
<time>2026-07-12T08:14:30.000Z</time>
|
|
</trkpt>
|
|
<trkpt lat="55.682529" lon="8.183291">
|
|
<ele>9.126049</ele>
|
|
<time>2026-07-12T08:14:31.000Z</time>
|
|
</trkpt>
|
|
<trkpt lat="55.682560" lon="8.183212">
|
|
<ele>9.123690</ele>
|
|
<time>2026-07-12T08:14:32.000Z</time>
|
|
</trkpt>
|
|
<trkpt lat="55.682587" lon="8.183169">
|
|
<ele>9.122113</ele>
|
|
<time>2026-07-12T08:14:33.000Z</time>
|
|
</trkpt>
|
|
<trkpt lat="55.682617" lon="8.183134">
|
|
<ele>9.120552</ele>
|
|
<time>2026-07-12T08:14:34.000Z</time>
|
|
</trkpt>
|
|
<trkpt lat="55.682644" lon="8.183105">
|
|
<ele>9.119180</ele>
|
|
<time>2026-07-12T08:14:35.000Z</time>
|
|
</trkpt>
|
|
<trkpt lat="55.682671" lon="8.183076">
|
|
<ele>9.117808</ele>
|
|
<time>2026-07-12T08:14:36.000Z</time>
|
|
</trkpt>
|
|
<trkpt lat="55.682694" lon="8.183043">
|
|
<ele>9.116521</ele>
|
|
<time>2026-07-12T08:14:37.000Z</time>
|
|
</trkpt>
|
|
<trkpt lat="55.682716" lon="8.183011">
|
|
<ele>9.115285</ele>
|
|
<time>2026-07-12T08:14:38.000Z</time>
|
|
</trkpt>
|
|
<trkpt lat="55.682735" lon="8.182980">
|
|
<ele>9.114162</ele>
|
|
<time>2026-07-12T08:14:39.000Z</time>
|
|
</trkpt>
|
|
<trkpt lat="55.682755" lon="8.182942">
|
|
<ele>9.112888</ele>
|
|
<time>2026-07-12T08:14:40.000Z</time>
|
|
</trkpt>
|
|
<trkpt lat="55.682777" lon="8.182901">
|
|
<ele>9.111501</ele>
|
|
<time>2026-07-12T08:14:41.000Z</time>
|
|
</trkpt>
|
|
<trkpt lat="55.682808" lon="8.182857">
|
|
<ele>9.109775</ele>
|
|
<time>2026-07-12T08:14:42.000Z</time>
|
|
</trkpt>
|
|
<trkpt lat="55.682835" lon="8.182812">
|
|
<ele>9.108164</ele>
|
|
<time>2026-07-12T08:14:43.000Z</time>
|
|
</trkpt>
|
|
<trkpt lat="55.682858" lon="8.182768">
|
|
<ele>9.106694</ele>
|
|
<time>2026-07-12T08:14:44.000Z</time>
|
|
</trkpt>
|
|
<trkpt lat="55.682877" lon="8.182723">
|
|
<ele>9.105316</ele>
|
|
<time>2026-07-12T08:14:45.000Z</time>
|
|
</trkpt>
|
|
<trkpt lat="55.682892" lon="8.182679">
|
|
<ele>9.104056</ele>
|
|
<time>2026-07-12T08:14:46.000Z</time>
|
|
</trkpt>
|
|
<trkpt lat="55.682911" lon="8.182634">
|
|
<ele>9.102678</ele>
|
|
<time>2026-07-12T08:14:47.000Z</time>
|
|
</trkpt>
|
|
<trkpt lat="55.682930" lon="8.182585">
|
|
<ele>9.101220</ele>
|
|
<time>2026-07-12T08:14:48.000Z</time>
|
|
</trkpt>
|
|
<trkpt lat="55.682949" lon="8.182534">
|
|
<ele>9.099722</ele>
|
|
<time>2026-07-12T08:14:49.000Z</time>
|
|
</trkpt>
|
|
<trkpt lat="55.682960" lon="8.182482">
|
|
<ele>9.098361</ele>
|
|
<time>2026-07-12T08:14:50.000Z</time>
|
|
</trkpt>
|
|
<trkpt lat="55.682976" lon="8.182422">
|
|
<ele>9.096734</ele>
|
|
<time>2026-07-12T08:14:51.000Z</time>
|
|
</trkpt>
|
|
<trkpt lat="55.682987" lon="8.182363">
|
|
<ele>9.095211</ele>
|
|
<time>2026-07-12T08:14:52.000Z</time>
|
|
</trkpt>
|
|
<trkpt lat="55.682999" lon="8.182305">
|
|
<ele>9.093697</ele>
|
|
<time>2026-07-12T08:14:53.000Z</time>
|
|
</trkpt>
|
|
<trkpt lat="55.683018" lon="8.182240">
|
|
<ele>9.091902</ele>
|
|
<time>2026-07-12T08:14:54.000Z</time>
|
|
</trkpt>
|
|
<trkpt lat="55.683033" lon="8.182179">
|
|
<ele>9.090271</ele>
|
|
<time>2026-07-12T08:14:55.000Z</time>
|
|
</trkpt>
|
|
<trkpt lat="55.683052" lon="8.182127">
|
|
<ele>9.088752</ele>
|
|
<time>2026-07-12T08:14:56.000Z</time>
|
|
</trkpt>
|
|
<trkpt lat="55.683071" lon="8.182077">
|
|
<ele>9.087275</ele>
|
|
<time>2026-07-12T08:14:57.000Z</time>
|
|
</trkpt>
|
|
<trkpt lat="55.683094" lon="8.182017">
|
|
<ele>9.085496</ele>
|
|
<time>2026-07-12T08:14:58.000Z</time>
|
|
</trkpt>
|
|
<trkpt lat="55.683109" lon="8.181959">
|
|
<ele>9.083932</ele>
|
|
<time>2026-07-12T08:14:59.000Z</time>
|
|
</trkpt>
|
|
<trkpt lat="55.683125" lon="8.181907">
|
|
<ele>9.082480</ele>
|
|
<time>2026-07-12T08:15:00.000Z</time>
|
|
</trkpt>
|
|
<trkpt lat="55.683140" lon="8.181859">
|
|
<ele>9.081135</ele>
|
|
<time>2026-07-12T08:15:01.000Z</time>
|
|
</trkpt>
|
|
<trkpt lat="55.683163" lon="8.181823">
|
|
<ele>9.079802</ele>
|
|
<time>2026-07-12T08:15:02.000Z</time>
|
|
</trkpt>
|
|
<trkpt lat="55.683182" lon="8.181799">
|
|
<ele>9.078788</ele>
|
|
<time>2026-07-12T08:15:03.000Z</time>
|
|
</trkpt>
|
|
<trkpt lat="55.683216" lon="8.181776">
|
|
<ele>9.077206</ele>
|
|
<time>2026-07-12T08:15:04.000Z</time>
|
|
</trkpt>
|
|
<trkpt lat="55.683239" lon="8.181765">
|
|
<ele>9.076170</ele>
|
|
<time>2026-07-12T08:15:05.000Z</time>
|
|
</trkpt>
|
|
<trkpt lat="55.683270" lon="8.181747">
|
|
<ele>9.074752</ele>
|
|
<time>2026-07-12T08:15:06.000Z</time>
|
|
</trkpt>
|
|
<trkpt lat="55.683296" lon="8.181729">
|
|
<ele>9.073539</ele>
|
|
<time>2026-07-12T08:15:07.000Z</time>
|
|
</trkpt>
|
|
<trkpt lat="55.683323" lon="8.181704">
|
|
<ele>9.072215</ele>
|
|
<time>2026-07-12T08:15:08.000Z</time>
|
|
</trkpt>
|
|
<trkpt lat="55.683346" lon="8.181685">
|
|
<ele>9.071112</ele>
|
|
<time>2026-07-12T08:15:09.000Z</time>
|
|
</trkpt>
|
|
<trkpt lat="55.683388" lon="8.181650">
|
|
<ele>9.069095</ele>
|
|
<time>2026-07-12T08:15:10.000Z</time>
|
|
</trkpt>
|
|
<trkpt lat="55.683422" lon="8.181627">
|
|
<ele>9.069043</ele>
|
|
<time>2026-07-12T08:15:11.000Z</time>
|
|
</trkpt>
|
|
<trkpt lat="55.683464" lon="8.181594">
|
|
<ele>9.072519</ele>
|
|
<time>2026-07-12T08:15:12.000Z</time>
|
|
</trkpt>
|
|
<trkpt lat="55.683502" lon="8.181569">
|
|
<ele>9.075585</ele>
|
|
<time>2026-07-12T08:15:13.000Z</time>
|
|
</trkpt>
|
|
<trkpt lat="55.683544" lon="8.181542">
|
|
<ele>9.078966</ele>
|
|
<time>2026-07-12T08:15:14.000Z</time>
|
|
</trkpt>
|
|
<trkpt lat="55.683605" lon="8.181498">
|
|
<ele>9.083948</ele>
|
|
<time>2026-07-12T08:15:15.000Z</time>
|
|
</trkpt>
|
|
<trkpt lat="55.683643" lon="8.181475">
|
|
<ele>9.086986</ele>
|
|
<time>2026-07-12T08:15:16.000Z</time>
|
|
</trkpt>
|
|
<trkpt lat="55.683681" lon="8.181448">
|
|
<ele>9.090084</ele>
|
|
<time>2026-07-12T08:15:17.000Z</time>
|
|
</trkpt>
|
|
<trkpt lat="55.683720" lon="8.181421">
|
|
<ele>9.093252</ele>
|
|
<time>2026-07-12T08:15:18.000Z</time>
|
|
</trkpt>
|
|
<trkpt lat="55.683762" lon="8.181396">
|
|
<ele>9.096604</ele>
|
|
<time>2026-07-12T08:15:19.000Z</time>
|
|
</trkpt>
|
|
<trkpt lat="55.683800" lon="8.181371">
|
|
<ele>9.099671</ele>
|
|
<time>2026-07-12T08:15:20.000Z</time>
|
|
</trkpt>
|
|
<trkpt lat="55.683842" lon="8.181346">
|
|
<ele>9.103023</ele>
|
|
<time>2026-07-12T08:15:21.000Z</time>
|
|
</trkpt>
|
|
<trkpt lat="55.683884" lon="8.181320">
|
|
<ele>9.106389</ele>
|
|
<time>2026-07-12T08:15:22.000Z</time>
|
|
</trkpt>
|
|
<trkpt lat="55.683926" lon="8.181295">
|
|
<ele>9.109741</ele>
|
|
<time>2026-07-12T08:15:23.000Z</time>
|
|
</trkpt>
|
|
<trkpt lat="55.683968" lon="8.181272">
|
|
<ele>9.113067</ele>
|
|
<time>2026-07-12T08:15:24.000Z</time>
|
|
</trkpt>
|
|
<trkpt lat="55.684006" lon="8.181248">
|
|
<ele>9.116119</ele>
|
|
<time>2026-07-12T08:15:25.000Z</time>
|
|
</trkpt>
|
|
<trkpt lat="55.684040" lon="8.181223">
|
|
<ele>9.118904</ele>
|
|
<time>2026-07-12T08:15:26.000Z</time>
|
|
</trkpt>
|
|
<trkpt lat="55.684078" lon="8.181198">
|
|
<ele>9.121970</ele>
|
|
<time>2026-07-12T08:15:27.000Z</time>
|
|
</trkpt>
|
|
<trkpt lat="55.684120" lon="8.181176">
|
|
<ele>9.125284</ele>
|
|
<time>2026-07-12T08:15:28.000Z</time>
|
|
</trkpt>
|
|
<trkpt lat="55.684166" lon="8.181153">
|
|
<ele>9.128900</ele>
|
|
<time>2026-07-12T08:15:29.000Z</time>
|
|
</trkpt>
|
|
<trkpt lat="55.684212" lon="8.181128">
|
|
<ele>9.132541</ele>
|
|
<time>2026-07-12T08:15:30.000Z</time>
|
|
</trkpt>
|
|
<trkpt lat="55.684257" lon="8.181102">
|
|
<ele>9.136122</ele>
|
|
<time>2026-07-12T08:15:31.000Z</time>
|
|
</trkpt>
|
|
<trkpt lat="55.684303" lon="8.181077">
|
|
<ele>9.139762</ele>
|
|
<time>2026-07-12T08:15:32.000Z</time>
|
|
</trkpt>
|
|
<trkpt lat="55.684345" lon="8.181058">
|
|
<ele>9.143042</ele>
|
|
<time>2026-07-12T08:15:33.000Z</time>
|
|
</trkpt>
|
|
<trkpt lat="55.684383" lon="8.181038">
|
|
<ele>9.146041</ele>
|
|
<time>2026-07-12T08:15:34.000Z</time>
|
|
</trkpt>
|
|
<trkpt lat="55.684422" lon="8.181017">
|
|
<ele>9.149125</ele>
|
|
<time>2026-07-12T08:15:35.000Z</time>
|
|
</trkpt>
|
|
<trkpt lat="55.684464" lon="8.181000">
|
|
<ele>9.152385</ele>
|
|
<time>2026-07-12T08:15:36.000Z</time>
|
|
</trkpt>
|
|
<trkpt lat="55.684509" lon="8.180986">
|
|
<ele>9.155842</ele>
|
|
<time>2026-07-12T08:15:37.000Z</time>
|
|
</trkpt>
|
|
<trkpt lat="55.684559" lon="8.180978">
|
|
<ele>9.159640</ele>
|
|
<time>2026-07-12T08:15:38.000Z</time>
|
|
</trkpt>
|
|
<trkpt lat="55.684616" lon="8.180974">
|
|
<ele>9.163957</ele>
|
|
<time>2026-07-12T08:15:39.000Z</time>
|
|
</trkpt>
|
|
<trkpt lat="55.684673" lon="8.180969">
|
|
<ele>9.168275</ele>
|
|
<time>2026-07-12T08:15:40.000Z</time>
|
|
</trkpt>
|
|
<trkpt lat="55.684727" lon="8.180963">
|
|
<ele>9.172369</ele>
|
|
<time>2026-07-12T08:15:41.000Z</time>
|
|
</trkpt>
|
|
<trkpt lat="55.684780" lon="8.180959">
|
|
<ele>9.176383</ele>
|
|
<time>2026-07-12T08:15:42.000Z</time>
|
|
</trkpt>
|
|
<trkpt lat="55.684833" lon="8.180958">
|
|
<ele>9.180393</ele>
|
|
<time>2026-07-12T08:15:43.000Z</time>
|
|
</trkpt>
|
|
<trkpt lat="55.684883" lon="8.180955">
|
|
<ele>9.184179</ele>
|
|
<time>2026-07-12T08:15:44.000Z</time>
|
|
</trkpt>
|
|
<trkpt lat="55.684933" lon="8.180951">
|
|
<ele>9.187966</ele>
|
|
<time>2026-07-12T08:15:45.000Z</time>
|
|
</trkpt>
|
|
<trkpt lat="55.684986" lon="8.180949">
|
|
<ele>9.191977</ele>
|
|
<time>2026-07-12T08:15:46.000Z</time>
|
|
</trkpt>
|
|
<trkpt lat="55.685040" lon="8.180948">
|
|
<ele>9.196063</ele>
|
|
<time>2026-07-12T08:15:47.000Z</time>
|
|
</trkpt>
|
|
<trkpt lat="55.685093" lon="8.180947">
|
|
<ele>9.200074</ele>
|
|
<time>2026-07-12T08:15:48.000Z</time>
|
|
</trkpt>
|
|
<trkpt lat="55.685146" lon="8.180946">
|
|
<ele>9.204084</ele>
|
|
<time>2026-07-12T08:15:49.000Z</time>
|
|
</trkpt>
|
|
<trkpt lat="55.685200" lon="8.180948">
|
|
<ele>9.196388</ele>
|
|
<time>2026-07-12T08:15:50.000Z</time>
|
|
</trkpt>
|
|
<trkpt lat="55.685253" lon="8.180951">
|
|
<ele>9.188592</ele>
|
|
<time>2026-07-12T08:15:51.000Z</time>
|
|
</trkpt>
|
|
<trkpt lat="55.685303" lon="8.180953">
|
|
<ele>9.181239</ele>
|
|
<time>2026-07-12T08:15:52.000Z</time>
|
|
</trkpt>
|
|
<trkpt lat="55.685352" lon="8.180956">
|
|
<ele>9.174031</ele>
|
|
<time>2026-07-12T08:15:53.000Z</time>
|
|
</trkpt>
|
|
<trkpt lat="55.685406" lon="8.180964">
|
|
<ele>9.166065</ele>
|
|
<time>2026-07-12T08:15:54.000Z</time>
|
|
</trkpt>
|
|
<trkpt lat="55.685459" lon="8.180975">
|
|
<ele>9.158220</ele>
|
|
<time>2026-07-12T08:15:55.000Z</time>
|
|
</trkpt>
|
|
<trkpt lat="55.685513" lon="8.180988">
|
|
<ele>9.150208</ele>
|
|
<time>2026-07-12T08:15:56.000Z</time>
|
|
</trkpt>
|
|
<trkpt lat="55.685570" lon="8.181005">
|
|
<ele>9.141710</ele>
|
|
<time>2026-07-12T08:15:57.000Z</time>
|
|
</trkpt>
|
|
<trkpt lat="55.685623" lon="8.181025">
|
|
<ele>9.133744</ele>
|
|
<time>2026-07-12T08:15:58.000Z</time>
|
|
</trkpt>
|
|
<trkpt lat="55.685677" lon="8.181045">
|
|
<ele>9.125634</ele>
|
|
<time>2026-07-12T08:15:59.000Z</time>
|
|
</trkpt>
|
|
<trkpt lat="55.685726" lon="8.181063">
|
|
<ele>9.118277</ele>
|
|
<time>2026-07-12T08:16:00.000Z</time>
|
|
</trkpt>
|
|
<trkpt lat="55.685780" lon="8.181081">
|
|
<ele>9.110199</ele>
|
|
<time>2026-07-12T08:16:01.000Z</time>
|
|
</trkpt>
|
|
<trkpt lat="55.685829" lon="8.181098">
|
|
<ele>9.102859</ele>
|
|
<time>2026-07-12T08:16:02.000Z</time>
|
|
</trkpt>
|
|
<trkpt lat="55.685879" lon="8.181110">
|
|
<ele>9.095441</ele>
|
|
<time>2026-07-12T08:16:03.000Z</time>
|
|
</trkpt>
|
|
<trkpt lat="55.685928" lon="8.181126">
|
|
<ele>9.088116</ele>
|
|
<time>2026-07-12T08:16:04.000Z</time>
|
|
</trkpt>
|
|
<trkpt lat="55.685974" lon="8.181146">
|
|
<ele>9.081153</ele>
|
|
<time>2026-07-12T08:16:05.000Z</time>
|
|
</trkpt>
|
|
<trkpt lat="55.686020" lon="8.181169">
|
|
<ele>9.074127</ele>
|
|
<time>2026-07-12T08:16:06.000Z</time>
|
|
</trkpt>
|
|
<trkpt lat="55.686066" lon="8.181193">
|
|
<ele>9.067078</ele>
|
|
<time>2026-07-12T08:16:07.000Z</time>
|
|
</trkpt>
|
|
<trkpt lat="55.686111" lon="8.181219">
|
|
<ele>9.060120</ele>
|
|
<time>2026-07-12T08:16:08.000Z</time>
|
|
</trkpt>
|
|
<trkpt lat="55.686153" lon="8.181243">
|
|
<ele>9.053632</ele>
|
|
<time>2026-07-12T08:16:09.000Z</time>
|
|
</trkpt>
|
|
<trkpt lat="55.686195" lon="8.181265">
|
|
<ele>9.047194</ele>
|
|
<time>2026-07-12T08:16:10.000Z</time>
|
|
</trkpt>
|
|
<trkpt lat="55.686237" lon="8.181286">
|
|
<ele>9.040779</ele>
|
|
<time>2026-07-12T08:16:11.000Z</time>
|
|
</trkpt>
|
|
<trkpt lat="55.686287" lon="8.181306">
|
|
<ele>9.033243</ele>
|
|
<time>2026-07-12T08:16:12.000Z</time>
|
|
</trkpt>
|
|
<trkpt lat="55.686329" lon="8.181327">
|
|
<ele>9.026828</ele>
|
|
<time>2026-07-12T08:16:13.000Z</time>
|
|
</trkpt>
|
|
<trkpt lat="55.686367" lon="8.181347">
|
|
<ele>9.021001</ele>
|
|
<time>2026-07-12T08:16:14.000Z</time>
|
|
</trkpt>
|
|
<trkpt lat="55.686409" lon="8.181365">
|
|
<ele>9.014648</ele>
|
|
<time>2026-07-12T08:16:15.000Z</time>
|
|
</trkpt>
|
|
<trkpt lat="55.686455" lon="8.181383">
|
|
<ele>9.007723</ele>
|
|
<time>2026-07-12T08:16:16.000Z</time>
|
|
</trkpt>
|
|
<trkpt lat="55.686504" lon="8.181399">
|
|
<ele>9.000398</ele>
|
|
<time>2026-07-12T08:16:17.000Z</time>
|
|
</trkpt>
|
|
<trkpt lat="55.686554" lon="8.181416">
|
|
<ele>8.992913</ele>
|
|
<time>2026-07-12T08:16:18.000Z</time>
|
|
</trkpt>
|
|
<trkpt lat="55.686600" lon="8.181429">
|
|
<ele>8.986065</ele>
|
|
<time>2026-07-12T08:16:19.000Z</time>
|
|
</trkpt>
|
|
<trkpt lat="55.686645" lon="8.181437">
|
|
<ele>8.979416</ele>
|
|
<time>2026-07-12T08:16:20.000Z</time>
|
|
</trkpt>
|
|
<trkpt lat="55.686695" lon="8.181446">
|
|
<ele>8.972028</ele>
|
|
<time>2026-07-12T08:16:21.000Z</time>
|
|
</trkpt>
|
|
<trkpt lat="55.686741" lon="8.181459">
|
|
<ele>8.965180</ele>
|
|
<time>2026-07-12T08:16:22.000Z</time>
|
|
</trkpt>
|
|
<trkpt lat="55.686783" lon="8.181473">
|
|
<ele>8.958897</ele>
|
|
<time>2026-07-12T08:16:23.000Z</time>
|
|
</trkpt>
|
|
<trkpt lat="55.686832" lon="8.181481">
|
|
<ele>8.951663</ele>
|
|
<time>2026-07-12T08:16:24.000Z</time>
|
|
</trkpt>
|
|
<trkpt lat="55.686878" lon="8.181482">
|
|
<ele>8.944899</ele>
|
|
<time>2026-07-12T08:16:25.000Z</time>
|
|
</trkpt>
|
|
<trkpt lat="55.686928" lon="8.181484">
|
|
<ele>8.935039</ele>
|
|
<time>2026-07-12T08:16:26.000Z</time>
|
|
</trkpt>
|
|
<trkpt lat="55.686981" lon="8.181486">
|
|
<ele>8.918315</ele>
|
|
<time>2026-07-12T08:16:27.000Z</time>
|
|
</trkpt>
|
|
<trkpt lat="55.687031" lon="8.181489">
|
|
<ele>8.902533</ele>
|
|
<time>2026-07-12T08:16:28.000Z</time>
|
|
</trkpt>
|
|
<trkpt lat="55.687084" lon="8.181490">
|
|
<ele>8.885812</ele>
|
|
<time>2026-07-12T08:16:29.000Z</time>
|
|
</trkpt>
|
|
<trkpt lat="55.687141" lon="8.181492">
|
|
<ele>8.867827</ele>
|
|
<time>2026-07-12T08:16:30.000Z</time>
|
|
</trkpt>
|
|
<trkpt lat="55.687202" lon="8.181494">
|
|
<ele>8.848581</ele>
|
|
<time>2026-07-12T08:16:31.000Z</time>
|
|
</trkpt>
|
|
<trkpt lat="55.687260" lon="8.181497">
|
|
<ele>8.830276</ele>
|
|
<time>2026-07-12T08:16:32.000Z</time>
|
|
</trkpt>
|
|
<trkpt lat="55.687321" lon="8.181501">
|
|
<ele>8.811020</ele>
|
|
<time>2026-07-12T08:16:33.000Z</time>
|
|
</trkpt>
|
|
<trkpt lat="55.687382" lon="8.181506">
|
|
<ele>8.791756</ele>
|
|
<time>2026-07-12T08:16:34.000Z</time>
|
|
</trkpt>
|
|
<trkpt lat="55.687439" lon="8.181506">
|
|
<ele>8.773774</ele>
|
|
<time>2026-07-12T08:16:35.000Z</time>
|
|
</trkpt>
|
|
<trkpt lat="55.687485" lon="8.181501">
|
|
<ele>8.759236</ele>
|
|
<time>2026-07-12T08:16:36.000Z</time>
|
|
</trkpt>
|
|
<trkpt lat="55.687534" lon="8.181499">
|
|
<ele>8.743774</ele>
|
|
<time>2026-07-12T08:16:37.000Z</time>
|
|
</trkpt>
|
|
<trkpt lat="55.687588" lon="8.181501">
|
|
<ele>8.726735</ele>
|
|
<time>2026-07-12T08:16:38.000Z</time>
|
|
</trkpt>
|
|
<trkpt lat="55.687641" lon="8.181498">
|
|
<ele>8.710007</ele>
|
|
<time>2026-07-12T08:16:39.000Z</time>
|
|
</trkpt>
|
|
<trkpt lat="55.687698" lon="8.181493">
|
|
<ele>8.692003</ele>
|
|
<time>2026-07-12T08:16:40.000Z</time>
|
|
</trkpt>
|
|
<trkpt lat="55.687748" lon="8.181489">
|
|
<ele>8.676214</ele>
|
|
<time>2026-07-12T08:16:41.000Z</time>
|
|
</trkpt>
|
|
<trkpt lat="55.687798" lon="8.181485">
|
|
<ele>8.660425</ele>
|
|
<time>2026-07-12T08:16:42.000Z</time>
|
|
</trkpt>
|
|
<trkpt lat="55.687847" lon="8.181482">
|
|
<ele>8.644958</ele>
|
|
<time>2026-07-12T08:16:43.000Z</time>
|
|
</trkpt>
|
|
<trkpt lat="55.687897" lon="8.181478">
|
|
<ele>8.629169</ele>
|
|
<time>2026-07-12T08:16:44.000Z</time>
|
|
</trkpt>
|
|
<trkpt lat="55.687950" lon="8.181473">
|
|
<ele>8.612425</ele>
|
|
<time>2026-07-12T08:16:45.000Z</time>
|
|
</trkpt>
|
|
<trkpt lat="55.688000" lon="8.181468">
|
|
<ele>8.596627</ele>
|
|
<time>2026-07-12T08:16:46.000Z</time>
|
|
</trkpt>
|
|
<trkpt lat="55.688049" lon="8.181464">
|
|
<ele>8.581153</ele>
|
|
<time>2026-07-12T08:16:47.000Z</time>
|
|
</trkpt>
|
|
<trkpt lat="55.688099" lon="8.181462">
|
|
<ele>8.565376</ele>
|
|
<time>2026-07-12T08:16:48.000Z</time>
|
|
</trkpt>
|
|
<trkpt lat="55.688148" lon="8.181461">
|
|
<ele>8.549917</ele>
|
|
<time>2026-07-12T08:16:49.000Z</time>
|
|
</trkpt>
|
|
<trkpt lat="55.688198" lon="8.181468">
|
|
<ele>8.534095</ele>
|
|
<time>2026-07-12T08:16:50.000Z</time>
|
|
</trkpt>
|
|
<trkpt lat="55.688244" lon="8.181479">
|
|
<ele>8.519452</ele>
|
|
<time>2026-07-12T08:16:51.000Z</time>
|
|
</trkpt>
|
|
<trkpt lat="55.688293" lon="8.181488">
|
|
<ele>8.503912</ele>
|
|
<time>2026-07-12T08:16:52.000Z</time>
|
|
</trkpt>
|
|
<trkpt lat="55.688339" lon="8.181498">
|
|
<ele>8.489292</ele>
|
|
<time>2026-07-12T08:16:53.000Z</time>
|
|
</trkpt>
|
|
<trkpt lat="55.688385" lon="8.181510">
|
|
<ele>8.474624</ele>
|
|
<time>2026-07-12T08:16:54.000Z</time>
|
|
</trkpt>
|
|
<trkpt lat="55.688435" lon="8.181528">
|
|
<ele>8.458530</ele>
|
|
<time>2026-07-12T08:16:55.000Z</time>
|
|
</trkpt>
|
|
<trkpt lat="55.688484" lon="8.181548">
|
|
<ele>8.442668</ele>
|
|
<time>2026-07-12T08:16:56.000Z</time>
|
|
</trkpt>
|
|
<trkpt lat="55.688530" lon="8.181564">
|
|
<ele>8.427880</ele>
|
|
<time>2026-07-12T08:16:57.000Z</time>
|
|
</trkpt>
|
|
<trkpt lat="55.688576" lon="8.181578">
|
|
<ele>8.413157</ele>
|
|
<time>2026-07-12T08:16:58.000Z</time>
|
|
</trkpt>
|
|
<trkpt lat="55.688618" lon="8.181584">
|
|
<ele>8.399865</ele>
|
|
<time>2026-07-12T08:16:59.000Z</time>
|
|
</trkpt>
|
|
<trkpt lat="55.688663" lon="8.181586">
|
|
<ele>8.385664</ele>
|
|
<time>2026-07-12T08:17:00.000Z</time>
|
|
</trkpt>
|
|
<trkpt lat="55.688709" lon="8.181581">
|
|
<ele>8.372666</ele>
|
|
<time>2026-07-12T08:17:01.000Z</time>
|
|
</trkpt>
|
|
<trkpt lat="55.688759" lon="8.181574">
|
|
<ele>8.377121</ele>
|
|
<time>2026-07-12T08:17:02.000Z</time>
|
|
</trkpt>
|
|
<trkpt lat="55.688805" lon="8.181572">
|
|
<ele>8.381208</ele>
|
|
<time>2026-07-12T08:17:03.000Z</time>
|
|
</trkpt>
|
|
<trkpt lat="55.688854" lon="8.181578">
|
|
<ele>8.385571</ele>
|
|
<time>2026-07-12T08:17:04.000Z</time>
|
|
</trkpt>
|
|
<trkpt lat="55.688900" lon="8.181590">
|
|
<ele>8.389701</ele>
|
|
<time>2026-07-12T08:17:05.000Z</time>
|
|
</trkpt>
|
|
<trkpt lat="55.688953" lon="8.181603">
|
|
<ele>8.394454</ele>
|
|
<time>2026-07-12T08:17:06.000Z</time>
|
|
</trkpt>
|
|
<trkpt lat="55.689011" lon="8.181617">
|
|
<ele>8.399654</ele>
|
|
<time>2026-07-12T08:17:07.000Z</time>
|
|
</trkpt>
|
|
<trkpt lat="55.689060" lon="8.181634">
|
|
<ele>8.404089</ele>
|
|
<time>2026-07-12T08:17:08.000Z</time>
|
|
</trkpt>
|
|
<trkpt lat="55.689114" lon="8.181657">
|
|
<ele>8.409022</ele>
|
|
<time>2026-07-12T08:17:09.000Z</time>
|
|
</trkpt>
|
|
<trkpt lat="55.689171" lon="8.181684">
|
|
<ele>8.414263</ele>
|
|
<time>2026-07-12T08:17:10.000Z</time>
|
|
</trkpt>
|
|
<trkpt lat="55.689220" lon="8.181707">
|
|
<ele>8.418765</ele>
|
|
<time>2026-07-12T08:17:11.000Z</time>
|
|
</trkpt>
|
|
<trkpt lat="55.689270" lon="8.181729">
|
|
<ele>8.423341</ele>
|
|
<time>2026-07-12T08:17:12.000Z</time>
|
|
</trkpt>
|
|
<trkpt lat="55.689316" lon="8.181747">
|
|
<ele>8.427525</ele>
|
|
<time>2026-07-12T08:17:13.000Z</time>
|
|
</trkpt>
|
|
<trkpt lat="55.689358" lon="8.181764">
|
|
<ele>8.431352</ele>
|
|
<time>2026-07-12T08:17:14.000Z</time>
|
|
</trkpt>
|
|
<trkpt lat="55.689411" lon="8.181791">
|
|
<ele>8.436250</ele>
|
|
<time>2026-07-12T08:17:15.000Z</time>
|
|
</trkpt>
|
|
<trkpt lat="55.689457" lon="8.181817">
|
|
<ele>8.440539</ele>
|
|
<time>2026-07-12T08:17:16.000Z</time>
|
|
</trkpt>
|
|
<trkpt lat="55.689499" lon="8.181843">
|
|
<ele>8.444490</ele>
|
|
<time>2026-07-12T08:17:17.000Z</time>
|
|
</trkpt>
|
|
<trkpt lat="55.689545" lon="8.181869">
|
|
<ele>8.448779</ele>
|
|
<time>2026-07-12T08:17:18.000Z</time>
|
|
</trkpt>
|
|
<trkpt lat="55.689590" lon="8.181903">
|
|
<ele>8.453123</ele>
|
|
<time>2026-07-12T08:17:19.000Z</time>
|
|
</trkpt>
|
|
<trkpt lat="55.689636" lon="8.181942">
|
|
<ele>8.457652</ele>
|
|
<time>2026-07-12T08:17:20.000Z</time>
|
|
</trkpt>
|
|
<trkpt lat="55.689682" lon="8.181981">
|
|
<ele>8.462181</ele>
|
|
<time>2026-07-12T08:17:21.000Z</time>
|
|
</trkpt>
|
|
<trkpt lat="55.689728" lon="8.182018">
|
|
<ele>8.466668</ele>
|
|
<time>2026-07-12T08:17:22.000Z</time>
|
|
</trkpt>
|
|
<trkpt lat="55.689777" lon="8.182059">
|
|
<ele>8.471480</ele>
|
|
<time>2026-07-12T08:17:23.000Z</time>
|
|
</trkpt>
|
|
<trkpt lat="55.689823" lon="8.182103">
|
|
<ele>8.476122</ele>
|
|
<time>2026-07-12T08:17:24.000Z</time>
|
|
</trkpt>
|
|
<trkpt lat="55.689877" lon="8.182146">
|
|
<ele>8.481380</ele>
|
|
<time>2026-07-12T08:17:25.000Z</time>
|
|
</trkpt>
|
|
<trkpt lat="55.689930" lon="8.182192">
|
|
<ele>8.486621</ele>
|
|
<time>2026-07-12T08:17:26.000Z</time>
|
|
</trkpt>
|
|
<trkpt lat="55.689983" lon="8.182237">
|
|
<ele>8.491841</ele>
|
|
<time>2026-07-12T08:17:27.000Z</time>
|
|
</trkpt>
|
|
<trkpt lat="55.690041" lon="8.182284">
|
|
<ele>8.497505</ele>
|
|
<time>2026-07-12T08:17:28.000Z</time>
|
|
</trkpt>
|
|
<trkpt lat="55.690090" lon="8.182335">
|
|
<ele>8.502551</ele>
|
|
<time>2026-07-12T08:17:29.000Z</time>
|
|
</trkpt>
|
|
<trkpt lat="55.690140" lon="8.182384">
|
|
<ele>8.507625</ele>
|
|
<time>2026-07-12T08:17:30.000Z</time>
|
|
</trkpt>
|
|
<trkpt lat="55.690193" lon="8.182433">
|
|
<ele>8.512934</ele>
|
|
<time>2026-07-12T08:17:31.000Z</time>
|
|
</trkpt>
|
|
<trkpt lat="55.690243" lon="8.182483">
|
|
<ele>8.518032</ele>
|
|
<time>2026-07-12T08:17:32.000Z</time>
|
|
</trkpt>
|
|
<trkpt lat="55.690296" lon="8.182537">
|
|
<ele>8.523462</ele>
|
|
<time>2026-07-12T08:17:33.000Z</time>
|
|
</trkpt>
|
|
<trkpt lat="55.690346" lon="8.182596">
|
|
<ele>8.528796</ele>
|
|
<time>2026-07-12T08:17:34.000Z</time>
|
|
</trkpt>
|
|
<trkpt lat="55.690395" lon="8.182659">
|
|
<ele>8.543980</ele>
|
|
<time>2026-07-12T08:17:35.000Z</time>
|
|
</trkpt>
|
|
<trkpt lat="55.690445" lon="8.182722">
|
|
<ele>8.575219</ele>
|
|
<time>2026-07-12T08:17:36.000Z</time>
|
|
</trkpt>
|
|
<trkpt lat="55.690498" lon="8.182778">
|
|
<ele>8.606642</ele>
|
|
<time>2026-07-12T08:17:37.000Z</time>
|
|
</trkpt>
|
|
<trkpt lat="55.690544" lon="8.182833">
|
|
<ele>8.634899</ele>
|
|
<time>2026-07-12T08:17:38.000Z</time>
|
|
</trkpt>
|
|
<trkpt lat="55.690594" lon="8.182891">
|
|
<ele>8.665329</ele>
|
|
<time>2026-07-12T08:17:39.000Z</time>
|
|
</trkpt>
|
|
<trkpt lat="55.690636" lon="8.182943">
|
|
<ele>8.691418</ele>
|
|
<time>2026-07-12T08:17:40.000Z</time>
|
|
</trkpt>
|
|
<trkpt lat="55.690678" lon="8.182995">
|
|
<ele>8.717507</ele>
|
|
<time>2026-07-12T08:17:41.000Z</time>
|
|
</trkpt>
|
|
<trkpt lat="55.690723" lon="8.183053">
|
|
<ele>8.745840</ele>
|
|
<time>2026-07-12T08:17:42.000Z</time>
|
|
</trkpt>
|
|
<trkpt lat="55.690765" lon="8.183105">
|
|
<ele>8.771929</ele>
|
|
<time>2026-07-12T08:17:43.000Z</time>
|
|
</trkpt>
|
|
<trkpt lat="55.690811" lon="8.183153">
|
|
<ele>8.799113</ele>
|
|
<time>2026-07-12T08:17:44.000Z</time>
|
|
</trkpt>
|
|
<trkpt lat="55.690857" lon="8.183199">
|
|
<ele>8.826011</ele>
|
|
<time>2026-07-12T08:17:45.000Z</time>
|
|
</trkpt>
|
|
<trkpt lat="55.690907" lon="8.183246">
|
|
<ele>8.854835</ele>
|
|
<time>2026-07-12T08:17:46.000Z</time>
|
|
</trkpt>
|
|
<trkpt lat="55.690949" lon="8.183298">
|
|
<ele>8.880924</ele>
|
|
<time>2026-07-12T08:17:47.000Z</time>
|
|
</trkpt>
|
|
<trkpt lat="55.690990" lon="8.183352">
|
|
<ele>8.906935</ele>
|
|
<time>2026-07-12T08:17:48.000Z</time>
|
|
</trkpt>
|
|
<trkpt lat="55.691032" lon="8.183401">
|
|
<ele>8.932540</ele>
|
|
<time>2026-07-12T08:17:49.000Z</time>
|
|
</trkpt>
|
|
<trkpt lat="55.691074" lon="8.183443">
|
|
<ele>8.957099</ele>
|
|
<time>2026-07-12T08:17:50.000Z</time>
|
|
</trkpt>
|
|
<trkpt lat="55.691113" lon="8.183481">
|
|
<ele>8.979764</ele>
|
|
<time>2026-07-12T08:17:51.000Z</time>
|
|
</trkpt>
|
|
<trkpt lat="55.691151" lon="8.183521">
|
|
<ele>9.002272</ele>
|
|
<time>2026-07-12T08:17:52.000Z</time>
|
|
</trkpt>
|
|
<trkpt lat="55.691193" lon="8.183561">
|
|
<ele>9.026554</ele>
|
|
<time>2026-07-12T08:17:53.000Z</time>
|
|
</trkpt>
|
|
<trkpt lat="55.691235" lon="8.183599">
|
|
<ele>9.050569</ele>
|
|
<time>2026-07-12T08:17:54.000Z</time>
|
|
</trkpt>
|
|
<trkpt lat="55.691277" lon="8.183638">
|
|
<ele>9.074717</ele>
|
|
<time>2026-07-12T08:17:55.000Z</time>
|
|
</trkpt>
|
|
<trkpt lat="55.691322" lon="8.183676">
|
|
<ele>9.100103</ele>
|
|
<time>2026-07-12T08:17:56.000Z</time>
|
|
</trkpt>
|
|
<trkpt lat="55.691368" lon="8.183715">
|
|
<ele>9.126073</ele>
|
|
<time>2026-07-12T08:17:57.000Z</time>
|
|
</trkpt>
|
|
<trkpt lat="55.691414" lon="8.183753">
|
|
<ele>9.151921</ele>
|
|
<time>2026-07-12T08:17:58.000Z</time>
|
|
</trkpt>
|
|
<trkpt lat="55.691460" lon="8.183795">
|
|
<ele>9.178274</ele>
|
|
<time>2026-07-12T08:17:59.000Z</time>
|
|
</trkpt>
|
|
<trkpt lat="55.691505" lon="8.183840">
|
|
<ele>9.204587</ele>
|
|
<time>2026-07-12T08:18:00.000Z</time>
|
|
</trkpt>
|
|
<trkpt lat="55.691551" lon="8.183887">
|
|
<ele>9.231626</ele>
|
|
<time>2026-07-12T08:18:01.000Z</time>
|
|
</trkpt>
|
|
<trkpt lat="55.691593" lon="8.183940">
|
|
<ele>9.257881</ele>
|
|
<time>2026-07-12T08:18:02.000Z</time>
|
|
</trkpt>
|
|
<trkpt lat="55.691635" lon="8.183998">
|
|
<ele>9.284992</ele>
|
|
<time>2026-07-12T08:18:03.000Z</time>
|
|
</trkpt>
|
|
<trkpt lat="55.691677" lon="8.184061">
|
|
<ele>9.313008</ele>
|
|
<time>2026-07-12T08:18:04.000Z</time>
|
|
</trkpt>
|
|
<trkpt lat="55.691715" lon="8.184124">
|
|
<ele>9.339501</ele>
|
|
<time>2026-07-12T08:18:05.000Z</time>
|
|
</trkpt>
|
|
<trkpt lat="55.691753" lon="8.184188">
|
|
<ele>9.366190</ele>
|
|
<time>2026-07-12T08:18:06.000Z</time>
|
|
</trkpt>
|
|
<trkpt lat="55.691792" lon="8.184250">
|
|
<ele>9.392865</ele>
|
|
<time>2026-07-12T08:18:07.000Z</time>
|
|
</trkpt>
|
|
<trkpt lat="55.691826" lon="8.184311">
|
|
<ele>9.417496</ele>
|
|
<time>2026-07-12T08:18:08.000Z</time>
|
|
</trkpt>
|
|
<trkpt lat="55.691860" lon="8.184373">
|
|
<ele>9.442332</ele>
|
|
<time>2026-07-12T08:18:09.000Z</time>
|
|
</trkpt>
|
|
<trkpt lat="55.691894" lon="8.184429">
|
|
<ele>9.429761</ele>
|
|
<time>2026-07-12T08:18:10.000Z</time>
|
|
</trkpt>
|
|
<trkpt lat="55.691933" lon="8.184485">
|
|
<ele>9.402917</ele>
|
|
<time>2026-07-12T08:18:11.000Z</time>
|
|
</trkpt>
|
|
<trkpt lat="55.691967" lon="8.184541">
|
|
<ele>9.378094</ele>
|
|
<time>2026-07-12T08:18:12.000Z</time>
|
|
</trkpt>
|
|
<trkpt lat="55.692005" lon="8.184599">
|
|
<ele>9.351274</ele>
|
|
<time>2026-07-12T08:18:13.000Z</time>
|
|
</trkpt>
|
|
<trkpt lat="55.692043" lon="8.184663">
|
|
<ele>9.323240</ele>
|
|
<time>2026-07-12T08:18:14.000Z</time>
|
|
</trkpt>
|
|
<trkpt lat="55.692089" lon="8.184727">
|
|
<ele>9.291963</ele>
|
|
<time>2026-07-12T08:18:15.000Z</time>
|
|
</trkpt>
|
|
<trkpt lat="55.692135" lon="8.184793">
|
|
<ele>9.260309</ele>
|
|
<time>2026-07-12T08:18:16.000Z</time>
|
|
</trkpt>
|
|
<trkpt lat="55.692181" lon="8.184861">
|
|
<ele>9.228274</ele>
|
|
<time>2026-07-12T08:18:17.000Z</time>
|
|
</trkpt>
|
|
<trkpt lat="55.692230" lon="8.184927">
|
|
<ele>9.195357</ele>
|
|
<time>2026-07-12T08:18:18.000Z</time>
|
|
</trkpt>
|
|
<trkpt lat="55.692284" lon="8.184988">
|
|
<ele>9.161105</ele>
|
|
<time>2026-07-12T08:18:19.000Z</time>
|
|
</trkpt>
|
|
<trkpt lat="55.692333" lon="8.185044">
|
|
<ele>9.129919</ele>
|
|
<time>2026-07-12T08:18:20.000Z</time>
|
|
</trkpt>
|
|
<trkpt lat="55.692390" lon="8.185095">
|
|
<ele>9.095763</ele>
|
|
<time>2026-07-12T08:18:21.000Z</time>
|
|
</trkpt>
|
|
<trkpt lat="55.692440" lon="8.185145">
|
|
<ele>9.065053</ele>
|
|
<time>2026-07-12T08:18:22.000Z</time>
|
|
</trkpt>
|
|
<trkpt lat="55.692490" lon="8.185196">
|
|
<ele>9.034195</ele>
|
|
<time>2026-07-12T08:18:23.000Z</time>
|
|
</trkpt>
|
|
<trkpt lat="55.692539" lon="8.185248">
|
|
<ele>9.003646</ele>
|
|
<time>2026-07-12T08:18:24.000Z</time>
|
|
</trkpt>
|
|
<trkpt lat="55.692589" lon="8.185303">
|
|
<ele>8.972169</ele>
|
|
<time>2026-07-12T08:18:25.000Z</time>
|
|
</trkpt>
|
|
<trkpt lat="55.692635" lon="8.185363">
|
|
<ele>8.941621</ele>
|
|
<time>2026-07-12T08:18:26.000Z</time>
|
|
</trkpt>
|
|
<trkpt lat="55.692684" lon="8.185427">
|
|
<ele>8.909066</ele>
|
|
<time>2026-07-12T08:18:27.000Z</time>
|
|
</trkpt>
|
|
<trkpt lat="55.692734" lon="8.185489">
|
|
<ele>8.876427</ele>
|
|
<time>2026-07-12T08:18:28.000Z</time>
|
|
</trkpt>
|
|
<trkpt lat="55.692780" lon="8.185550">
|
|
<ele>8.845700</ele>
|
|
<time>2026-07-12T08:18:29.000Z</time>
|
|
</trkpt>
|
|
<trkpt lat="55.692825" lon="8.185606">
|
|
<ele>8.816290</ele>
|
|
<time>2026-07-12T08:18:30.000Z</time>
|
|
</trkpt>
|
|
<trkpt lat="55.692863" lon="8.185663">
|
|
<ele>8.789666</ele>
|
|
<time>2026-07-12T08:18:31.000Z</time>
|
|
</trkpt>
|
|
<trkpt lat="55.692913" lon="8.185722">
|
|
<ele>8.757537</ele>
|
|
<time>2026-07-12T08:18:32.000Z</time>
|
|
</trkpt>
|
|
<trkpt lat="55.692955" lon="8.185778">
|
|
<ele>8.729427</ele>
|
|
<time>2026-07-12T08:18:33.000Z</time>
|
|
</trkpt>
|
|
<trkpt lat="55.692997" lon="8.185827">
|
|
<ele>8.702532</ele>
|
|
<time>2026-07-12T08:18:34.000Z</time>
|
|
</trkpt>
|
|
<trkpt lat="55.693043" lon="8.185878">
|
|
<ele>8.673509</ele>
|
|
<time>2026-07-12T08:18:35.000Z</time>
|
|
</trkpt>
|
|
<trkpt lat="55.693092" lon="8.185928">
|
|
<ele>8.643265</ele>
|
|
<time>2026-07-12T08:18:36.000Z</time>
|
|
</trkpt>
|
|
<trkpt lat="55.693138" lon="8.185976">
|
|
<ele>8.614712</ele>
|
|
<time>2026-07-12T08:18:37.000Z</time>
|
|
</trkpt>
|
|
<trkpt lat="55.693180" lon="8.186026">
|
|
<ele>8.587650</ele>
|
|
<time>2026-07-12T08:18:38.000Z</time>
|
|
</trkpt>
|
|
<trkpt lat="55.693226" lon="8.186073">
|
|
<ele>8.559248</ele>
|
|
<time>2026-07-12T08:18:39.000Z</time>
|
|
</trkpt>
|
|
<trkpt lat="55.693272" lon="8.186122">
|
|
<ele>8.530541</ele>
|
|
<time>2026-07-12T08:18:40.000Z</time>
|
|
</trkpt>
|
|
<trkpt lat="55.693321" lon="8.186175">
|
|
<ele>8.499836</ele>
|
|
<time>2026-07-12T08:18:41.000Z</time>
|
|
</trkpt>
|
|
<trkpt lat="55.693371" lon="8.186233">
|
|
<ele>8.497470</ele>
|
|
<time>2026-07-12T08:18:42.000Z</time>
|
|
</trkpt>
|
|
<trkpt lat="55.693420" lon="8.186290">
|
|
<ele>8.517454</ele>
|
|
<time>2026-07-12T08:18:43.000Z</time>
|
|
</trkpt>
|
|
<trkpt lat="55.693470" lon="8.186347">
|
|
<ele>8.537725</ele>
|
|
<time>2026-07-12T08:18:44.000Z</time>
|
|
</trkpt>
|
|
<trkpt lat="55.693516" lon="8.186401">
|
|
<ele>8.556538</ele>
|
|
<time>2026-07-12T08:18:45.000Z</time>
|
|
</trkpt>
|
|
<trkpt lat="55.693562" lon="8.186457">
|
|
<ele>8.575566</ele>
|
|
<time>2026-07-12T08:18:46.000Z</time>
|
|
</trkpt>
|
|
<trkpt lat="55.693607" lon="8.186514">
|
|
<ele>8.594425</ele>
|
|
<time>2026-07-12T08:18:47.000Z</time>
|
|
</trkpt>
|
|
<trkpt lat="55.693645" lon="8.186572">
|
|
<ele>8.611522</ele>
|
|
<time>2026-07-12T08:18:48.000Z</time>
|
|
</trkpt>
|
|
<trkpt lat="55.693687" lon="8.186628">
|
|
<ele>8.629442</ele>
|
|
<time>2026-07-12T08:18:49.000Z</time>
|
|
</trkpt>
|
|
<trkpt lat="55.693726" lon="8.186686">
|
|
<ele>8.646799</ele>
|
|
<time>2026-07-12T08:18:50.000Z</time>
|
|
</trkpt>
|
|
<trkpt lat="55.693768" lon="8.186744">
|
|
<ele>8.664952</ele>
|
|
<time>2026-07-12T08:18:51.000Z</time>
|
|
</trkpt>
|
|
<trkpt lat="55.693813" lon="8.186803">
|
|
<ele>8.684037</ele>
|
|
<time>2026-07-12T08:18:52.000Z</time>
|
|
</trkpt>
|
|
<trkpt lat="55.693863" lon="8.186859">
|
|
<ele>8.704204</ele>
|
|
<time>2026-07-12T08:18:53.000Z</time>
|
|
</trkpt>
|
|
<trkpt lat="55.693913" lon="8.186910">
|
|
<ele>8.723876</ele>
|
|
<time>2026-07-12T08:18:54.000Z</time>
|
|
</trkpt>
|
|
<trkpt lat="55.693962" lon="8.186956">
|
|
<ele>8.742784</ele>
|
|
<time>2026-07-12T08:18:55.000Z</time>
|
|
</trkpt>
|
|
<trkpt lat="55.694008" lon="8.186999">
|
|
<ele>8.760518</ele>
|
|
<time>2026-07-12T08:18:56.000Z</time>
|
|
</trkpt>
|
|
<trkpt lat="55.694057" lon="8.187043">
|
|
<ele>8.779249</ele>
|
|
<time>2026-07-12T08:18:57.000Z</time>
|
|
</trkpt>
|
|
<trkpt lat="55.694103" lon="8.187085">
|
|
<ele>8.796895</ele>
|
|
<time>2026-07-12T08:18:58.000Z</time>
|
|
</trkpt>
|
|
<trkpt lat="55.694149" lon="8.187126">
|
|
<ele>8.814453</ele>
|
|
<time>2026-07-12T08:18:59.000Z</time>
|
|
</trkpt>
|
|
<trkpt lat="55.694191" lon="8.187169">
|
|
<ele>8.830992</ele>
|
|
<time>2026-07-12T08:19:00.000Z</time>
|
|
</trkpt>
|
|
<trkpt lat="55.694237" lon="8.187211">
|
|
<ele>8.848637</ele>
|
|
<time>2026-07-12T08:19:01.000Z</time>
|
|
</trkpt>
|
|
<trkpt lat="55.694286" lon="8.187255">
|
|
<ele>8.867369</ele>
|
|
<time>2026-07-12T08:19:02.000Z</time>
|
|
</trkpt>
|
|
<trkpt lat="55.694332" lon="8.187301">
|
|
<ele>8.885379</ele>
|
|
<time>2026-07-12T08:19:03.000Z</time>
|
|
</trkpt>
|
|
<trkpt lat="55.694378" lon="8.187347">
|
|
<ele>8.903389</ele>
|
|
<time>2026-07-12T08:19:04.000Z</time>
|
|
</trkpt>
|
|
<trkpt lat="55.694424" lon="8.187398">
|
|
<ele>8.921890</ele>
|
|
<time>2026-07-12T08:19:05.000Z</time>
|
|
</trkpt>
|
|
<trkpt lat="55.694466" lon="8.187449">
|
|
<ele>8.939249</ele>
|
|
<time>2026-07-12T08:19:06.000Z</time>
|
|
</trkpt>
|
|
<trkpt lat="55.694508" lon="8.187502">
|
|
<ele>8.956828</ele>
|
|
<time>2026-07-12T08:19:07.000Z</time>
|
|
</trkpt>
|
|
<trkpt lat="55.694550" lon="8.187560">
|
|
<ele>8.974981</ele>
|
|
<time>2026-07-12T08:19:08.000Z</time>
|
|
</trkpt>
|
|
<trkpt lat="55.694592" lon="8.187620">
|
|
<ele>8.993373</ele>
|
|
<time>2026-07-12T08:19:09.000Z</time>
|
|
</trkpt>
|
|
<trkpt lat="55.694626" lon="8.187681">
|
|
<ele>9.009865</ele>
|
|
<time>2026-07-12T08:19:10.000Z</time>
|
|
</trkpt>
|
|
<trkpt lat="55.694660" lon="8.187743">
|
|
<ele>9.026494</ele>
|
|
<time>2026-07-12T08:19:11.000Z</time>
|
|
</trkpt>
|
|
<trkpt lat="55.694687" lon="8.187807">
|
|
<ele>9.041862</ele>
|
|
<time>2026-07-12T08:19:12.000Z</time>
|
|
</trkpt>
|
|
<trkpt lat="55.694710" lon="8.187871">
|
|
<ele>9.056453</ele>
|
|
<time>2026-07-12T08:19:13.000Z</time>
|
|
</trkpt>
|
|
<trkpt lat="55.694733" lon="8.187936">
|
|
<ele>9.071207</ele>
|
|
<time>2026-07-12T08:19:14.000Z</time>
|
|
</trkpt>
|
|
<trkpt lat="55.694752" lon="8.188005">
|
|
<ele>9.085970</ele>
|
|
<time>2026-07-12T08:19:15.000Z</time>
|
|
</trkpt>
|
|
<trkpt lat="55.694775" lon="8.188077">
|
|
<ele>9.100486</ele>
|
|
<time>2026-07-12T08:19:16.000Z</time>
|
|
</trkpt>
|
|
<trkpt lat="55.694797" lon="8.188151">
|
|
<ele>9.107420</ele>
|
|
<time>2026-07-12T08:19:17.000Z</time>
|
|
</trkpt>
|
|
<trkpt lat="55.694817" lon="8.188229">
|
|
<ele>9.114522</ele>
|
|
<time>2026-07-12T08:19:18.000Z</time>
|
|
</trkpt>
|
|
<trkpt lat="55.694836" lon="8.188307">
|
|
<ele>9.121564</ele>
|
|
<time>2026-07-12T08:19:19.000Z</time>
|
|
</trkpt>
|
|
<trkpt lat="55.694859" lon="8.188389">
|
|
<ele>9.129155</ele>
|
|
<time>2026-07-12T08:19:20.000Z</time>
|
|
</trkpt>
|
|
<trkpt lat="55.694878" lon="8.188474">
|
|
<ele>9.136733</ele>
|
|
<time>2026-07-12T08:19:21.000Z</time>
|
|
</trkpt>
|
|
<trkpt lat="55.694897" lon="8.188561">
|
|
<ele>9.144466</ele>
|
|
<time>2026-07-12T08:19:22.000Z</time>
|
|
</trkpt>
|
|
<trkpt lat="55.694920" lon="8.188652">
|
|
<ele>9.152731</ele>
|
|
<time>2026-07-12T08:19:23.000Z</time>
|
|
</trkpt>
|
|
<trkpt lat="55.694939" lon="8.188740">
|
|
<ele>9.160541</ele>
|
|
<time>2026-07-12T08:19:24.000Z</time>
|
|
</trkpt>
|
|
<trkpt lat="55.694962" lon="8.188824">
|
|
<ele>9.168280</ele>
|
|
<time>2026-07-12T08:19:25.000Z</time>
|
|
</trkpt>
|
|
<trkpt lat="55.694984" lon="8.188905">
|
|
<ele>9.175732</ele>
|
|
<time>2026-07-12T08:19:26.000Z</time>
|
|
</trkpt>
|
|
<trkpt lat="55.695011" lon="8.188986">
|
|
<ele>9.183531</ele>
|
|
<time>2026-07-12T08:19:27.000Z</time>
|
|
</trkpt>
|
|
<trkpt lat="55.695042" lon="8.189063">
|
|
<ele>9.191374</ele>
|
|
<time>2026-07-12T08:19:28.000Z</time>
|
|
</trkpt>
|
|
<trkpt lat="55.695072" lon="8.189136">
|
|
<ele>9.198861</ele>
|
|
<time>2026-07-12T08:19:29.000Z</time>
|
|
</trkpt>
|
|
<trkpt lat="55.695103" lon="8.189207">
|
|
<ele>9.206304</ele>
|
|
<time>2026-07-12T08:19:30.000Z</time>
|
|
</trkpt>
|
|
<trkpt lat="55.695133" lon="8.189276">
|
|
<ele>9.213526</ele>
|
|
<time>2026-07-12T08:19:31.000Z</time>
|
|
</trkpt>
|
|
<trkpt lat="55.695164" lon="8.189348">
|
|
<ele>9.221035</ele>
|
|
<time>2026-07-12T08:19:32.000Z</time>
|
|
</trkpt>
|
|
<trkpt lat="55.695194" lon="8.189426">
|
|
<ele>9.228861</ele>
|
|
<time>2026-07-12T08:19:33.000Z</time>
|
|
</trkpt>
|
|
<trkpt lat="55.695232" lon="8.189497">
|
|
<ele>9.236976</ele>
|
|
<time>2026-07-12T08:19:34.000Z</time>
|
|
</trkpt>
|
|
<trkpt lat="55.695271" lon="8.189551">
|
|
<ele>9.244250</ele>
|
|
<time>2026-07-12T08:19:35.000Z</time>
|
|
</trkpt>
|
|
<trkpt lat="55.695309" lon="8.189596">
|
|
<ele>9.250968</ele>
|
|
<time>2026-07-12T08:19:36.000Z</time>
|
|
</trkpt>
|
|
<trkpt lat="55.695351" lon="8.189634">
|
|
<ele>9.257901</ele>
|
|
<time>2026-07-12T08:19:37.000Z</time>
|
|
</trkpt>
|
|
<trkpt lat="55.695396" lon="8.189670">
|
|
<ele>9.265159</ele>
|
|
<time>2026-07-12T08:19:38.000Z</time>
|
|
</trkpt>
|
|
<trkpt lat="55.695442" lon="8.189704">
|
|
<ele>9.272487</ele>
|
|
<time>2026-07-12T08:19:39.000Z</time>
|
|
</trkpt>
|
|
<trkpt lat="55.695488" lon="8.189738">
|
|
<ele>9.279815</ele>
|
|
<time>2026-07-12T08:19:40.000Z</time>
|
|
</trkpt>
|
|
<trkpt lat="55.695538" lon="8.189773">
|
|
<ele>9.287718</ele>
|
|
<time>2026-07-12T08:19:41.000Z</time>
|
|
</trkpt>
|
|
<trkpt lat="55.695583" lon="8.189807">
|
|
<ele>9.294910</ele>
|
|
<time>2026-07-12T08:19:42.000Z</time>
|
|
</trkpt>
|
|
<trkpt lat="55.695629" lon="8.189846">
|
|
<ele>9.302407</ele>
|
|
<time>2026-07-12T08:19:43.000Z</time>
|
|
</trkpt>
|
|
<trkpt lat="55.695667" lon="8.189893">
|
|
<ele>9.309218</ele>
|
|
<time>2026-07-12T08:19:44.000Z</time>
|
|
</trkpt>
|
|
<trkpt lat="55.695709" lon="8.189945">
|
|
<ele>9.316749</ele>
|
|
<time>2026-07-12T08:19:45.000Z</time>
|
|
</trkpt>
|
|
<trkpt lat="55.695747" lon="8.190002">
|
|
<ele>9.324066</ele>
|
|
<time>2026-07-12T08:19:46.000Z</time>
|
|
</trkpt>
|
|
<trkpt lat="55.695782" lon="8.190063">
|
|
<ele>9.331280</ele>
|
|
<time>2026-07-12T08:19:47.000Z</time>
|
|
</trkpt>
|
|
<trkpt lat="55.695816" lon="8.190125">
|
|
<ele>9.338450</ele>
|
|
<time>2026-07-12T08:19:48.000Z</time>
|
|
</trkpt>
|
|
<trkpt lat="55.695847" lon="8.190193">
|
|
<ele>9.345698</ele>
|
|
<time>2026-07-12T08:19:49.000Z</time>
|
|
</trkpt>
|
|
<trkpt lat="55.695881" lon="8.190267">
|
|
<ele>9.353610</ele>
|
|
<time>2026-07-12T08:19:50.000Z</time>
|
|
</trkpt>
|
|
<trkpt lat="55.695911" lon="8.190338">
|
|
<ele>9.360964</ele>
|
|
<time>2026-07-12T08:19:51.000Z</time>
|
|
</trkpt>
|
|
<trkpt lat="55.695942" lon="8.190417">
|
|
<ele>9.398357</ele>
|
|
<time>2026-07-12T08:19:52.000Z</time>
|
|
</trkpt>
|
|
<trkpt lat="55.695976" lon="8.190495">
|
|
<ele>9.454349</ele>
|
|
<time>2026-07-12T08:19:53.000Z</time>
|
|
</trkpt>
|
|
<trkpt lat="55.696007" lon="8.190577">
|
|
<ele>9.510417</ele>
|
|
<time>2026-07-12T08:19:54.000Z</time>
|
|
</trkpt>
|
|
<trkpt lat="55.696033" lon="8.190658">
|
|
<ele>9.563348</ele>
|
|
<time>2026-07-12T08:19:55.000Z</time>
|
|
</trkpt>
|
|
<trkpt lat="55.696060" lon="8.190736">
|
|
<ele>9.615326</ele>
|
|
<time>2026-07-12T08:19:56.000Z</time>
|
|
</trkpt>
|
|
<trkpt lat="55.696083" lon="8.190808">
|
|
<ele>9.662320</ele>
|
|
<time>2026-07-12T08:19:57.000Z</time>
|
|
</trkpt>
|
|
<trkpt lat="55.696110" lon="8.190877">
|
|
<ele>9.710018</ele>
|
|
<time>2026-07-12T08:19:58.000Z</time>
|
|
</trkpt>
|
|
<trkpt lat="55.696133" lon="8.190939">
|
|
<ele>9.752166</ele>
|
|
<time>2026-07-12T08:19:59.000Z</time>
|
|
</trkpt>
|
|
<trkpt lat="55.696152" lon="8.190993">
|
|
<ele>9.788313</ele>
|
|
<time>2026-07-12T08:20:00.000Z</time>
|
|
</trkpt>
|
|
<trkpt lat="55.696175" lon="8.191040">
|
|
<ele>9.823658</ele>
|
|
<time>2026-07-12T08:20:01.000Z</time>
|
|
</trkpt>
|
|
<trkpt lat="55.696194" lon="8.191077">
|
|
<ele>9.852081</ele>
|
|
<time>2026-07-12T08:20:02.000Z</time>
|
|
</trkpt>
|
|
<trkpt lat="55.696213" lon="8.191109">
|
|
<ele>9.878475</ele>
|
|
<time>2026-07-12T08:20:03.000Z</time>
|
|
</trkpt>
|
|
<trkpt lat="55.696228" lon="8.191132">
|
|
<ele>9.898449</ele>
|
|
<time>2026-07-12T08:20:04.000Z</time>
|
|
</trkpt>
|
|
<trkpt lat="55.696247" lon="8.191155">
|
|
<ele>9.921622</ele>
|
|
<time>2026-07-12T08:20:05.000Z</time>
|
|
</trkpt>
|
|
<trkpt lat="55.696270" lon="8.191190">
|
|
<ele>9.952151</ele>
|
|
<time>2026-07-12T08:20:06.000Z</time>
|
|
</trkpt>
|
|
<trkpt lat="55.696293" lon="8.191233">
|
|
<ele>9.985813</ele>
|
|
<time>2026-07-12T08:20:07.000Z</time>
|
|
</trkpt>
|
|
<trkpt lat="55.696323" lon="8.191287">
|
|
<ele>10.028869</ele>
|
|
<time>2026-07-12T08:20:08.000Z</time>
|
|
</trkpt>
|
|
<trkpt lat="55.696358" lon="8.191350">
|
|
<ele>10.079101</ele>
|
|
<time>2026-07-12T08:20:09.000Z</time>
|
|
</trkpt>
|
|
<trkpt lat="55.696384" lon="8.191408">
|
|
<ele>10.121182</ele>
|
|
<time>2026-07-12T08:20:10.000Z</time>
|
|
</trkpt>
|
|
<trkpt lat="55.696404" lon="8.191456">
|
|
<ele>10.155078</ele>
|
|
<time>2026-07-12T08:20:11.000Z</time>
|
|
</trkpt>
|
|
<trkpt lat="55.696430" lon="8.191503">
|
|
<ele>10.192474</ele>
|
|
<time>2026-07-12T08:20:12.000Z</time>
|
|
</trkpt>
|
|
<trkpt lat="55.696457" lon="8.191549">
|
|
<ele>10.230187</ele>
|
|
<time>2026-07-12T08:20:13.000Z</time>
|
|
</trkpt>
|
|
<trkpt lat="55.696484" lon="8.191599">
|
|
<ele>10.269507</ele>
|
|
<time>2026-07-12T08:20:14.000Z</time>
|
|
</trkpt>
|
|
<trkpt lat="55.696506" lon="8.191654">
|
|
<ele>10.307804</ele>
|
|
<time>2026-07-12T08:20:15.000Z</time>
|
|
</trkpt>
|
|
<trkpt lat="55.696529" lon="8.191711">
|
|
<ele>10.347611</ele>
|
|
<time>2026-07-12T08:20:16.000Z</time>
|
|
</trkpt>
|
|
<trkpt lat="55.696552" lon="8.191773">
|
|
<ele>10.389758</ele>
|
|
<time>2026-07-12T08:20:17.000Z</time>
|
|
</trkpt>
|
|
<trkpt lat="55.696587" lon="8.191840">
|
|
<ele>10.441631</ele>
|
|
<time>2026-07-12T08:20:18.000Z</time>
|
|
</trkpt>
|
|
<trkpt lat="55.696613" lon="8.191901">
|
|
<ele>10.485059</ele>
|
|
<time>2026-07-12T08:20:19.000Z</time>
|
|
</trkpt>
|
|
<trkpt lat="55.696644" lon="8.191963">
|
|
<ele>10.532122</ele>
|
|
<time>2026-07-12T08:20:20.000Z</time>
|
|
</trkpt>
|
|
<trkpt lat="55.696678" lon="8.192018">
|
|
<ele>10.578477</ele>
|
|
<time>2026-07-12T08:20:21.000Z</time>
|
|
</trkpt>
|
|
<trkpt lat="55.696701" lon="8.192060">
|
|
<ele>10.611730</ele>
|
|
<time>2026-07-12T08:20:22.000Z</time>
|
|
</trkpt>
|
|
<trkpt lat="55.696724" lon="8.192095">
|
|
<ele>10.642258</ele>
|
|
<time>2026-07-12T08:20:23.000Z</time>
|
|
</trkpt>
|
|
<trkpt lat="55.696747" lon="8.192122">
|
|
<ele>10.670044</ele>
|
|
<time>2026-07-12T08:20:24.000Z</time>
|
|
</trkpt>
|
|
<trkpt lat="55.696774" lon="8.192141">
|
|
<ele>10.699308</ele>
|
|
<time>2026-07-12T08:20:25.000Z</time>
|
|
</trkpt>
|
|
<trkpt lat="55.696812" lon="8.192150">
|
|
<ele>10.737934</ele>
|
|
<time>2026-07-12T08:20:26.000Z</time>
|
|
</trkpt>
|
|
<trkpt lat="55.696850" lon="8.192145">
|
|
<ele>10.776325</ele>
|
|
<time>2026-07-12T08:20:27.000Z</time>
|
|
</trkpt>
|
|
<trkpt lat="55.696892" lon="8.192133">
|
|
<ele>10.819187</ele>
|
|
<time>2026-07-12T08:20:28.000Z</time>
|
|
</trkpt>
|
|
<trkpt lat="55.696934" lon="8.192117">
|
|
<ele>10.862468</ele>
|
|
<time>2026-07-12T08:20:29.000Z</time>
|
|
</trkpt>
|
|
<trkpt lat="55.696976" lon="8.192096">
|
|
<ele>10.906432</ele>
|
|
<time>2026-07-12T08:20:30.000Z</time>
|
|
</trkpt>
|
|
<trkpt lat="55.697021" lon="8.192084">
|
|
<ele>10.952280</ele>
|
|
<time>2026-07-12T08:20:31.000Z</time>
|
|
</trkpt>
|
|
<trkpt lat="55.697071" lon="8.192089">
|
|
<ele>11.002737</ele>
|
|
<time>2026-07-12T08:20:32.000Z</time>
|
|
</trkpt>
|
|
<trkpt lat="55.697124" lon="8.192104">
|
|
<ele>11.056811</ele>
|
|
<time>2026-07-12T08:20:33.000Z</time>
|
|
</trkpt>
|
|
<trkpt lat="55.697174" lon="8.192128">
|
|
<ele>11.108998</ele>
|
|
<time>2026-07-12T08:20:34.000Z</time>
|
|
</trkpt>
|
|
<trkpt lat="55.697220" lon="8.192165">
|
|
<ele>11.159884</ele>
|
|
<time>2026-07-12T08:20:35.000Z</time>
|
|
</trkpt>
|
|
<trkpt lat="55.697269" lon="8.192216">
|
|
<ele>11.123348</ele>
|
|
<time>2026-07-12T08:20:36.000Z</time>
|
|
</trkpt>
|
|
<trkpt lat="55.697319" lon="8.192266">
|
|
<ele>11.048956</ele>
|
|
<time>2026-07-12T08:20:37.000Z</time>
|
|
</trkpt>
|
|
<trkpt lat="55.697361" lon="8.192304">
|
|
<ele>10.987847</ele>
|
|
<time>2026-07-12T08:20:38.000Z</time>
|
|
</trkpt>
|
|
<trkpt lat="55.697403" lon="8.192327">
|
|
<ele>10.930874</ele>
|
|
<time>2026-07-12T08:20:39.000Z</time>
|
|
</trkpt>
|
|
<trkpt lat="55.697445" lon="8.192339">
|
|
<ele>10.875733</ele>
|
|
<time>2026-07-12T08:20:40.000Z</time>
|
|
</trkpt>
|
|
<trkpt lat="55.697495" lon="8.192347">
|
|
<ele>10.810661</ele>
|
|
<time>2026-07-12T08:20:41.000Z</time>
|
|
</trkpt>
|
|
<trkpt lat="55.697548" lon="8.192351">
|
|
<ele>10.741901</ele>
|
|
<time>2026-07-12T08:20:42.000Z</time>
|
|
</trkpt>
|
|
<trkpt lat="55.697598" lon="8.192351">
|
|
<ele>10.677092</ele>
|
|
<time>2026-07-12T08:20:43.000Z</time>
|
|
</trkpt>
|
|
<trkpt lat="55.697647" lon="8.192350">
|
|
<ele>10.613575</ele>
|
|
<time>2026-07-12T08:20:44.000Z</time>
|
|
</trkpt>
|
|
<trkpt lat="55.697697" lon="8.192349">
|
|
<ele>10.548762</ele>
|
|
<time>2026-07-12T08:20:45.000Z</time>
|
|
</trkpt>
|
|
<trkpt lat="55.697750" lon="8.192344">
|
|
<ele>10.479967</ele>
|
|
<time>2026-07-12T08:20:46.000Z</time>
|
|
</trkpt>
|
|
<trkpt lat="55.697803" lon="8.192331">
|
|
<ele>10.410616</ele>
|
|
<time>2026-07-12T08:20:47.000Z</time>
|
|
</trkpt>
|
|
<trkpt lat="55.697857" lon="8.192311">
|
|
<ele>10.339114</ele>
|
|
<time>2026-07-12T08:20:48.000Z</time>
|
|
</trkpt>
|
|
<trkpt lat="55.697910" lon="8.192278">
|
|
<ele>10.266310</ele>
|
|
<time>2026-07-12T08:20:49.000Z</time>
|
|
</trkpt>
|
|
<trkpt lat="55.697968" lon="8.192234">
|
|
<ele>10.184549</ele>
|
|
<time>2026-07-12T08:20:50.000Z</time>
|
|
</trkpt>
|
|
<trkpt lat="55.698025" lon="8.192184">
|
|
<ele>10.102131</ele>
|
|
<time>2026-07-12T08:20:51.000Z</time>
|
|
</trkpt>
|
|
<trkpt lat="55.698078" lon="8.192134">
|
|
<ele>10.024328</ele>
|
|
<time>2026-07-12T08:20:52.000Z</time>
|
|
</trkpt>
|
|
<trkpt lat="55.698128" lon="8.192089">
|
|
<ele>9.951660</ele>
|
|
<time>2026-07-12T08:20:53.000Z</time>
|
|
</trkpt>
|
|
<trkpt lat="55.698174" lon="8.192056">
|
|
<ele>9.887347</ele>
|
|
<time>2026-07-12T08:20:54.000Z</time>
|
|
</trkpt>
|
|
<trkpt lat="55.698212" lon="8.192042">
|
|
<ele>9.837041</ele>
|
|
<time>2026-07-12T08:20:55.000Z</time>
|
|
</trkpt>
|
|
<trkpt lat="55.698242" lon="8.192049">
|
|
<ele>9.797821</ele>
|
|
<time>2026-07-12T08:20:56.000Z</time>
|
|
</trkpt>
|
|
<trkpt lat="55.698280" lon="8.192080">
|
|
<ele>9.743610</ele>
|
|
<time>2026-07-12T08:20:57.000Z</time>
|
|
</trkpt>
|
|
<trkpt lat="55.698307" lon="8.192135">
|
|
<ele>9.690329</ele>
|
|
<time>2026-07-12T08:20:58.000Z</time>
|
|
</trkpt>
|
|
<trkpt lat="55.698330" lon="8.192194">
|
|
<ele>9.637925</ele>
|
|
<time>2026-07-12T08:20:59.000Z</time>
|
|
</trkpt>
|
|
<trkpt lat="55.698349" lon="8.192251">
|
|
<ele>9.589551</ele>
|
|
<time>2026-07-12T08:21:00.000Z</time>
|
|
</trkpt>
|
|
<trkpt lat="55.698368" lon="8.192309">
|
|
<ele>9.540546</ele>
|
|
<time>2026-07-12T08:21:01.000Z</time>
|
|
</trkpt>
|
|
<trkpt lat="55.698391" lon="8.192367">
|
|
<ele>9.488741</ele>
|
|
<time>2026-07-12T08:21:02.000Z</time>
|
|
</trkpt>
|
|
<trkpt lat="55.698414" lon="8.192420">
|
|
<ele>9.439879</ele>
|
|
<time>2026-07-12T08:21:03.000Z</time>
|
|
</trkpt>
|
|
<trkpt lat="55.698437" lon="8.192471">
|
|
<ele>9.392165</ele>
|
|
<time>2026-07-12T08:21:04.000Z</time>
|
|
</trkpt>
|
|
<trkpt lat="55.698467" lon="8.192519">
|
|
<ele>9.339806</ele>
|
|
<time>2026-07-12T08:21:05.000Z</time>
|
|
</trkpt>
|
|
<trkpt lat="55.698502" lon="8.192562">
|
|
<ele>9.284627</ele>
|
|
<time>2026-07-12T08:21:06.000Z</time>
|
|
</trkpt>
|
|
<trkpt lat="55.698540" lon="8.192607">
|
|
<ele>9.225411</ele>
|
|
<time>2026-07-12T08:21:07.000Z</time>
|
|
</trkpt>
|
|
<trkpt lat="55.698582" lon="8.192658">
|
|
<ele>9.159446</ele>
|
|
<time>2026-07-12T08:21:08.000Z</time>
|
|
</trkpt>
|
|
<trkpt lat="55.698620" lon="8.192709">
|
|
<ele>9.097689</ele>
|
|
<time>2026-07-12T08:21:09.000Z</time>
|
|
</trkpt>
|
|
<trkpt lat="55.698662" lon="8.192760">
|
|
<ele>9.031723</ele>
|
|
<time>2026-07-12T08:21:10.000Z</time>
|
|
</trkpt>
|
|
<trkpt lat="55.698704" lon="8.192811">
|
|
<ele>8.965757</ele>
|
|
<time>2026-07-12T08:21:11.000Z</time>
|
|
</trkpt>
|
|
<trkpt lat="55.698750" lon="8.192866">
|
|
<ele>8.893861</ele>
|
|
<time>2026-07-12T08:21:12.000Z</time>
|
|
</trkpt>
|
|
<trkpt lat="55.698799" lon="8.192925">
|
|
<ele>8.849502</ele>
|
|
<time>2026-07-12T08:21:13.000Z</time>
|
|
</trkpt>
|
|
<trkpt lat="55.698841" lon="8.192979">
|
|
<ele>8.861093</ele>
|
|
<time>2026-07-12T08:21:14.000Z</time>
|
|
</trkpt>
|
|
<trkpt lat="55.698883" lon="8.193031">
|
|
<ele>8.872537</ele>
|
|
<time>2026-07-12T08:21:15.000Z</time>
|
|
</trkpt>
|
|
<trkpt lat="55.698921" lon="8.193086">
|
|
<ele>8.883496</ele>
|
|
<time>2026-07-12T08:21:16.000Z</time>
|
|
</trkpt>
|
|
<trkpt lat="55.698963" lon="8.193140">
|
|
<ele>8.895087</ele>
|
|
<time>2026-07-12T08:21:17.000Z</time>
|
|
</trkpt>
|
|
<trkpt lat="55.699005" lon="8.193194">
|
|
<ele>8.906678</ele>
|
|
<time>2026-07-12T08:21:18.000Z</time>
|
|
</trkpt>
|
|
<trkpt lat="55.699047" lon="8.193249">
|
|
<ele>8.918343</ele>
|
|
<time>2026-07-12T08:21:19.000Z</time>
|
|
</trkpt>
|
|
<trkpt lat="55.699093" lon="8.193303">
|
|
<ele>8.930669</ele>
|
|
<time>2026-07-12T08:21:20.000Z</time>
|
|
</trkpt>
|
|
<trkpt lat="55.699139" lon="8.193356">
|
|
<ele>8.942926</ele>
|
|
<time>2026-07-12T08:21:21.000Z</time>
|
|
</trkpt>
|
|
<trkpt lat="55.699181" lon="8.193406">
|
|
<ele>8.954229</ele>
|
|
<time>2026-07-12T08:21:22.000Z</time>
|
|
</trkpt>
|
|
<trkpt lat="55.699226" lon="8.193458">
|
|
<ele>8.966230</ele>
|
|
<time>2026-07-12T08:21:23.000Z</time>
|
|
</trkpt>
|
|
<trkpt lat="55.699272" lon="8.193512">
|
|
<ele>8.978556</ele>
|
|
<time>2026-07-12T08:21:24.000Z</time>
|
|
</trkpt>
|
|
<trkpt lat="55.699318" lon="8.193565">
|
|
<ele>8.990813</ele>
|
|
<time>2026-07-12T08:21:25.000Z</time>
|
|
</trkpt>
|
|
<trkpt lat="55.699364" lon="8.193619">
|
|
<ele>9.003139</ele>
|
|
<time>2026-07-12T08:21:26.000Z</time>
|
|
</trkpt>
|
|
<trkpt lat="55.699406" lon="8.193668">
|
|
<ele>9.014372</ele>
|
|
<time>2026-07-12T08:21:27.000Z</time>
|
|
</trkpt>
|
|
<trkpt lat="55.699448" lon="8.193720">
|
|
<ele>9.025816</ele>
|
|
<time>2026-07-12T08:21:28.000Z</time>
|
|
</trkpt>
|
|
<trkpt lat="55.699497" lon="8.193780">
|
|
<ele>9.039121</ele>
|
|
<time>2026-07-12T08:21:29.000Z</time>
|
|
</trkpt>
|
|
<trkpt lat="55.699539" lon="8.193835">
|
|
<ele>9.050786</ele>
|
|
<time>2026-07-12T08:21:30.000Z</time>
|
|
</trkpt>
|
|
<trkpt lat="55.699585" lon="8.193885">
|
|
<ele>9.062841</ele>
|
|
<time>2026-07-12T08:21:31.000Z</time>
|
|
</trkpt>
|
|
<trkpt lat="55.699627" lon="8.193933">
|
|
<ele>9.074006</ele>
|
|
<time>2026-07-12T08:21:32.000Z</time>
|
|
</trkpt>
|
|
<trkpt lat="55.699673" lon="8.193985">
|
|
<ele>9.086194</ele>
|
|
<time>2026-07-12T08:21:33.000Z</time>
|
|
</trkpt>
|
|
<trkpt lat="55.699715" lon="8.194040">
|
|
<ele>9.097860</ele>
|
|
<time>2026-07-12T08:21:34.000Z</time>
|
|
</trkpt>
|
|
<trkpt lat="55.699757" lon="8.194097">
|
|
<ele>9.109676</ele>
|
|
<time>2026-07-12T08:21:35.000Z</time>
|
|
</trkpt>
|
|
<trkpt lat="55.699795" lon="8.194149">
|
|
<ele>9.120400</ele>
|
|
<time>2026-07-12T08:21:36.000Z</time>
|
|
</trkpt>
|
|
<trkpt lat="55.699833" lon="8.194200">
|
|
<ele>9.131048</ele>
|
|
<time>2026-07-12T08:21:37.000Z</time>
|
|
</trkpt>
|
|
<trkpt lat="55.699875" lon="8.194249">
|
|
<ele>9.142280</ele>
|
|
<time>2026-07-12T08:21:38.000Z</time>
|
|
</trkpt>
|
|
<trkpt lat="55.699913" lon="8.194299">
|
|
<ele>9.152852</ele>
|
|
<time>2026-07-12T08:21:39.000Z</time>
|
|
</trkpt>
|
|
<trkpt lat="55.699955" lon="8.194349">
|
|
<ele>9.164155</ele>
|
|
<time>2026-07-12T08:21:40.000Z</time>
|
|
</trkpt>
|
|
<trkpt lat="55.699997" lon="8.194399">
|
|
<ele>9.175458</ele>
|
|
<time>2026-07-12T08:21:41.000Z</time>
|
|
</trkpt>
|
|
<trkpt lat="55.700039" lon="8.194450">
|
|
<ele>9.186831</ele>
|
|
<time>2026-07-12T08:21:42.000Z</time>
|
|
</trkpt>
|
|
<trkpt lat="55.700077" lon="8.194500">
|
|
<ele>9.197403</ele>
|
|
<time>2026-07-12T08:21:43.000Z</time>
|
|
</trkpt>
|
|
<trkpt lat="55.700119" lon="8.194547">
|
|
<ele>9.208500</ele>
|
|
<time>2026-07-12T08:21:44.000Z</time>
|
|
</trkpt>
|
|
<trkpt lat="55.700157" lon="8.194593">
|
|
<ele>9.218779</ele>
|
|
<time>2026-07-12T08:21:45.000Z</time>
|
|
</trkpt>
|
|
<trkpt lat="55.700195" lon="8.194643">
|
|
<ele>9.229351</ele>
|
|
<time>2026-07-12T08:21:46.000Z</time>
|
|
</trkpt>
|
|
<trkpt lat="55.700233" lon="8.194696">
|
|
<ele>9.240153</ele>
|
|
<time>2026-07-12T08:21:47.000Z</time>
|
|
</trkpt>
|
|
<trkpt lat="55.700275" lon="8.194750">
|
|
<ele>9.290254</ele>
|
|
<time>2026-07-12T08:21:48.000Z</time>
|
|
</trkpt>
|
|
<trkpt lat="55.700317" lon="8.194799">
|
|
<ele>9.387198</ele>
|
|
<time>2026-07-12T08:21:49.000Z</time>
|
|
</trkpt>
|
|
<trkpt lat="55.700359" lon="8.194844">
|
|
<ele>9.481824</ele>
|
|
<time>2026-07-12T08:21:50.000Z</time>
|
|
</trkpt>
|
|
<trkpt lat="55.700405" lon="8.194885">
|
|
<ele>9.581107</ele>
|
|
<time>2026-07-12T08:21:51.000Z</time>
|
|
</trkpt>
|
|
<trkpt lat="55.700447" lon="8.194928">
|
|
<ele>9.674628</ele>
|
|
<time>2026-07-12T08:21:52.000Z</time>
|
|
</trkpt>
|
|
<trkpt lat="55.700493" lon="8.194971">
|
|
<ele>9.774905</ele>
|
|
<time>2026-07-12T08:21:53.000Z</time>
|
|
</trkpt>
|
|
<trkpt lat="55.700539" lon="8.195009">
|
|
<ele>9.872768</ele>
|
|
<time>2026-07-12T08:21:54.000Z</time>
|
|
</trkpt>
|
|
<trkpt lat="55.700581" lon="8.195044">
|
|
<ele>9.962261</ele>
|
|
<time>2026-07-12T08:21:55.000Z</time>
|
|
</trkpt>
|
|
<trkpt lat="55.700623" lon="8.195076">
|
|
<ele>10.050417</ele>
|
|
<time>2026-07-12T08:21:56.000Z</time>
|
|
</trkpt>
|
|
<trkpt lat="55.700668" lon="8.195107">
|
|
<ele>10.143520</ele>
|
|
<time>2026-07-12T08:21:57.000Z</time>
|
|
</trkpt>
|
|
<trkpt lat="55.700710" lon="8.195139">
|
|
<ele>10.231676</ele>
|
|
<time>2026-07-12T08:21:58.000Z</time>
|
|
</trkpt>
|
|
<trkpt lat="55.700756" lon="8.195169">
|
|
<ele>10.326199</ele>
|
|
<time>2026-07-12T08:21:59.000Z</time>
|
|
</trkpt>
|
|
<trkpt lat="55.700798" lon="8.195195">
|
|
<ele>10.411992</ele>
|
|
<time>2026-07-12T08:22:00.000Z</time>
|
|
</trkpt>
|
|
<trkpt lat="55.700840" lon="8.195222">
|
|
<ele>10.498149</ele>
|
|
<time>2026-07-12T08:22:01.000Z</time>
|
|
</trkpt>
|
|
<trkpt lat="55.700874" lon="8.195246">
|
|
<ele>10.568723</ele>
|
|
<time>2026-07-12T08:22:02.000Z</time>
|
|
</trkpt>
|
|
<trkpt lat="55.700909" lon="8.195266">
|
|
<ele>10.639641</ele>
|
|
<time>2026-07-12T08:22:03.000Z</time>
|
|
</trkpt>
|
|
<trkpt lat="55.700943" lon="8.195284">
|
|
<ele>10.708073</ele>
|
|
<time>2026-07-12T08:22:04.000Z</time>
|
|
</trkpt>
|
|
<trkpt lat="55.700974" lon="8.195304">
|
|
<ele>10.771692</ele>
|
|
<time>2026-07-12T08:22:05.000Z</time>
|
|
</trkpt>
|
|
<trkpt lat="55.701004" lon="8.195327">
|
|
<ele>10.834722</ele>
|
|
<time>2026-07-12T08:22:06.000Z</time>
|
|
</trkpt>
|
|
<trkpt lat="55.701035" lon="8.195351">
|
|
<ele>10.899955</ele>
|
|
<time>2026-07-12T08:22:07.000Z</time>
|
|
</trkpt>
|
|
<trkpt lat="55.701065" lon="8.195374">
|
|
<ele>10.962985</ele>
|
|
<time>2026-07-12T08:22:08.000Z</time>
|
|
</trkpt>
|
|
<trkpt lat="55.701099" lon="8.195395">
|
|
<ele>11.032420</ele>
|
|
<time>2026-07-12T08:22:09.000Z</time>
|
|
</trkpt>
|
|
<trkpt lat="55.701130" lon="8.195416">
|
|
<ele>11.096418</ele>
|
|
<time>2026-07-12T08:22:10.000Z</time>
|
|
</trkpt>
|
|
<trkpt lat="55.701160" lon="8.195437">
|
|
<ele>11.158618</ele>
|
|
<time>2026-07-12T08:22:11.000Z</time>
|
|
</trkpt>
|
|
<trkpt lat="55.701187" lon="8.195458">
|
|
<ele>11.215475</ele>
|
|
<time>2026-07-12T08:22:12.000Z</time>
|
|
</trkpt>
|
|
<trkpt lat="55.701214" lon="8.195479">
|
|
<ele>11.272332</ele>
|
|
<time>2026-07-12T08:22:13.000Z</time>
|
|
</trkpt>
|
|
<trkpt lat="55.701241" lon="8.195500">
|
|
<ele>11.329190</ele>
|
|
<time>2026-07-12T08:22:14.000Z</time>
|
|
</trkpt>
|
|
<trkpt lat="55.701267" lon="8.195524">
|
|
<ele>11.385715</ele>
|
|
<time>2026-07-12T08:22:15.000Z</time>
|
|
</trkpt>
|
|
<trkpt lat="55.701298" lon="8.195552">
|
|
<ele>11.452804</ele>
|
|
<time>2026-07-12T08:22:16.000Z</time>
|
|
</trkpt>
|
|
<trkpt lat="55.701328" lon="8.195588">
|
|
<ele>11.522652</ele>
|
|
<time>2026-07-12T08:22:17.000Z</time>
|
|
</trkpt>
|
|
<trkpt lat="55.701363" lon="8.195632">
|
|
<ele>11.605379</ele>
|
|
<time>2026-07-12T08:22:18.000Z</time>
|
|
</trkpt>
|
|
<trkpt lat="55.701397" lon="8.195684">
|
|
<ele>11.691948</ele>
|
|
<time>2026-07-12T08:22:19.000Z</time>
|
|
</trkpt>
|
|
<trkpt lat="55.701431" lon="8.195748">
|
|
<ele>11.787544</ele>
|
|
<time>2026-07-12T08:22:20.000Z</time>
|
|
</trkpt>
|
|
<trkpt lat="55.701458" lon="8.195818">
|
|
<ele>11.879738</ele>
|
|
<time>2026-07-12T08:22:21.000Z</time>
|
|
</trkpt>
|
|
<trkpt lat="55.701489" lon="8.195891">
|
|
<ele>11.979084</ele>
|
|
<time>2026-07-12T08:22:22.000Z</time>
|
|
</trkpt>
|
|
<trkpt lat="55.701523" lon="8.195964">
|
|
<ele>12.082016</ele>
|
|
<time>2026-07-12T08:22:23.000Z</time>
|
|
</trkpt>
|
|
<trkpt lat="55.701561" lon="8.196033">
|
|
<ele>12.186874</ele>
|
|
<time>2026-07-12T08:22:24.000Z</time>
|
|
</trkpt>
|
|
<trkpt lat="55.701595" lon="8.196098">
|
|
<ele>12.283263</ele>
|
|
<time>2026-07-12T08:22:25.000Z</time>
|
|
</trkpt>
|
|
<trkpt lat="55.701630" lon="8.196158">
|
|
<ele>12.377121</ele>
|
|
<time>2026-07-12T08:22:26.000Z</time>
|
|
</trkpt>
|
|
<trkpt lat="55.701668" lon="8.196216">
|
|
<ele>12.473791</ele>
|
|
<time>2026-07-12T08:22:27.000Z</time>
|
|
</trkpt>
|
|
<trkpt lat="55.701706" lon="8.196274">
|
|
<ele>12.570462</ele>
|
|
<time>2026-07-12T08:22:28.000Z</time>
|
|
</trkpt>
|
|
<trkpt lat="55.701744" lon="8.196331">
|
|
<ele>12.666427</ele>
|
|
<time>2026-07-12T08:22:29.000Z</time>
|
|
</trkpt>
|
|
<trkpt lat="55.701782" lon="8.196387">
|
|
<ele>12.670994</ele>
|
|
<time>2026-07-12T08:22:30.000Z</time>
|
|
</trkpt>
|
|
<trkpt lat="55.701824" lon="8.196444">
|
|
<ele>12.571610</ele>
|
|
<time>2026-07-12T08:22:31.000Z</time>
|
|
</trkpt>
|
|
<trkpt lat="55.701870" lon="8.196503">
|
|
<ele>12.464928</ele>
|
|
<time>2026-07-12T08:22:32.000Z</time>
|
|
</trkpt>
|
|
<trkpt lat="55.701912" lon="8.196565">
|
|
<ele>12.362241</ele>
|
|
<time>2026-07-12T08:22:33.000Z</time>
|
|
</trkpt>
|
|
<trkpt lat="55.701958" lon="8.196631">
|
|
<ele>12.251053</ele>
|
|
<time>2026-07-12T08:22:34.000Z</time>
|
|
</trkpt>
|
|
<trkpt lat="55.702003" lon="8.196696">
|
|
<ele>12.141993</ele>
|
|
<time>2026-07-12T08:22:35.000Z</time>
|
|
</trkpt>
|
|
<trkpt lat="55.702053" lon="8.196760">
|
|
<ele>12.026115</ele>
|
|
<time>2026-07-12T08:22:36.000Z</time>
|
|
</trkpt>
|
|
<trkpt lat="55.702099" lon="8.196823">
|
|
<ele>11.916897</ele>
|
|
<time>2026-07-12T08:22:37.000Z</time>
|
|
</trkpt>
|
|
<trkpt lat="55.702152" lon="8.196887">
|
|
<ele>11.796401</ele>
|
|
<time>2026-07-12T08:22:38.000Z</time>
|
|
</trkpt>
|
|
<trkpt lat="55.702206" lon="8.196950">
|
|
<ele>11.674931</ele>
|
|
<time>2026-07-12T08:22:39.000Z</time>
|
|
</trkpt>
|
|
<trkpt lat="55.702255" lon="8.197008">
|
|
<ele>11.564221</ele>
|
|
<time>2026-07-12T08:22:40.000Z</time>
|
|
</trkpt>
|
|
<trkpt lat="55.702305" lon="8.197063">
|
|
<ele>11.453649</ele>
|
|
<time>2026-07-12T08:22:41.000Z</time>
|
|
</trkpt>
|
|
<trkpt lat="55.702362" lon="8.197123">
|
|
<ele>11.329080</ele>
|
|
<time>2026-07-12T08:22:42.000Z</time>
|
|
</trkpt>
|
|
<trkpt lat="55.702415" lon="8.197186">
|
|
<ele>11.209177</ele>
|
|
<time>2026-07-12T08:22:43.000Z</time>
|
|
</trkpt>
|
|
<trkpt lat="55.702465" lon="8.197247">
|
|
<ele>11.095129</ele>
|
|
<time>2026-07-12T08:22:44.000Z</time>
|
|
</trkpt>
|
|
<trkpt lat="55.702511" lon="8.197310">
|
|
<ele>10.985912</ele>
|
|
<time>2026-07-12T08:22:45.000Z</time>
|
|
</trkpt>
|
|
<trkpt lat="55.702545" lon="8.197380">
|
|
<ele>10.888029</ele>
|
|
<time>2026-07-12T08:22:46.000Z</time>
|
|
</trkpt>
|
|
<trkpt lat="55.702564" lon="8.197455">
|
|
<ele>10.800934</ele>
|
|
<time>2026-07-12T08:22:47.000Z</time>
|
|
</trkpt>
|
|
<trkpt lat="55.702572" lon="8.197531">
|
|
<ele>10.719045</ele>
|
|
<time>2026-07-12T08:22:48.000Z</time>
|
|
</trkpt>
|
|
<trkpt lat="55.702568" lon="8.197603">
|
|
<ele>10.642416</ele>
|
|
<time>2026-07-12T08:22:49.000Z</time>
|
|
</trkpt>
|
|
<trkpt lat="55.702557" lon="8.197679">
|
|
<ele>10.559308</ele>
|
|
<time>2026-07-12T08:22:50.000Z</time>
|
|
</trkpt>
|
|
<trkpt lat="55.702545" lon="8.197759">
|
|
<ele>10.471624</ele>
|
|
<time>2026-07-12T08:22:51.000Z</time>
|
|
</trkpt>
|
|
<trkpt lat="55.702534" lon="8.197842">
|
|
<ele>10.381316</ele>
|
|
<time>2026-07-12T08:22:52.000Z</time>
|
|
</trkpt>
|
|
<trkpt lat="55.702515" lon="8.197924">
|
|
<ele>10.287409</ele>
|
|
<time>2026-07-12T08:22:53.000Z</time>
|
|
</trkpt>
|
|
<trkpt lat="55.702496" lon="8.198004">
|
|
<ele>10.195458</ele>
|
|
<time>2026-07-12T08:22:54.000Z</time>
|
|
</trkpt>
|
|
<trkpt lat="55.702480" lon="8.198082">
|
|
<ele>10.107540</ele>
|
|
<time>2026-07-12T08:22:55.000Z</time>
|
|
</trkpt>
|
|
<trkpt lat="55.702461" lon="8.198161">
|
|
<ele>10.016563</ele>
|
|
<time>2026-07-12T08:22:56.000Z</time>
|
|
</trkpt>
|
|
<trkpt lat="55.702438" lon="8.198248">
|
|
<ele>9.914779</ele>
|
|
<time>2026-07-12T08:22:57.000Z</time>
|
|
</trkpt>
|
|
<trkpt lat="55.702415" lon="8.198338">
|
|
<ele>9.810110</ele>
|
|
<time>2026-07-12T08:22:58.000Z</time>
|
|
</trkpt>
|
|
<trkpt lat="55.702393" lon="8.198433">
|
|
<ele>9.701323</ele>
|
|
<time>2026-07-12T08:22:59.000Z</time>
|
|
</trkpt>
|
|
<trkpt lat="55.702373" lon="8.198535">
|
|
<ele>9.586935</ele>
|
|
<time>2026-07-12T08:23:00.000Z</time>
|
|
</trkpt>
|
|
<trkpt lat="55.702351" lon="8.198632">
|
|
<ele>9.476187</ele>
|
|
<time>2026-07-12T08:23:01.000Z</time>
|
|
</trkpt>
|
|
<trkpt lat="55.702328" lon="8.198725">
|
|
<ele>9.368615</ele>
|
|
<time>2026-07-12T08:23:02.000Z</time>
|
|
</trkpt>
|
|
<trkpt lat="55.702305" lon="8.198815">
|
|
<ele>9.321245</ele>
|
|
<time>2026-07-12T08:23:03.000Z</time>
|
|
</trkpt>
|
|
<trkpt lat="55.702282" lon="8.198903">
|
|
<ele>9.301402</ele>
|
|
<time>2026-07-12T08:23:04.000Z</time>
|
|
</trkpt>
|
|
<trkpt lat="55.702255" lon="8.198990">
|
|
<ele>9.281084</ele>
|
|
<time>2026-07-12T08:23:05.000Z</time>
|
|
</trkpt>
|
|
<trkpt lat="55.702236" lon="8.199080">
|
|
<ele>9.261424</ele>
|
|
<time>2026-07-12T08:23:06.000Z</time>
|
|
</trkpt>
|
|
<trkpt lat="55.702213" lon="8.199172">
|
|
<ele>9.240835</ele>
|
|
<time>2026-07-12T08:23:07.000Z</time>
|
|
</trkpt>
|
|
<trkpt lat="55.702190" lon="8.199260">
|
|
<ele>9.220992</ele>
|
|
<time>2026-07-12T08:23:08.000Z</time>
|
|
</trkpt>
|
|
<trkpt lat="55.702168" lon="8.199346">
|
|
<ele>9.201672</ele>
|
|
<time>2026-07-12T08:23:09.000Z</time>
|
|
</trkpt>
|
|
<trkpt lat="55.702141" lon="8.199434">
|
|
<ele>9.181175</ele>
|
|
<time>2026-07-12T08:23:10.000Z</time>
|
|
</trkpt>
|
|
<trkpt lat="55.702110" lon="8.199521">
|
|
<ele>9.160118</ele>
|
|
<time>2026-07-12T08:23:11.000Z</time>
|
|
</trkpt>
|
|
<trkpt lat="55.702084" lon="8.199610">
|
|
<ele>9.139611</ele>
|
|
<time>2026-07-12T08:23:12.000Z</time>
|
|
</trkpt>
|
|
<trkpt lat="55.702061" lon="8.199704">
|
|
<ele>9.118648</ele>
|
|
<time>2026-07-12T08:23:13.000Z</time>
|
|
</trkpt>
|
|
<trkpt lat="55.702038" lon="8.199795">
|
|
<ele>9.098246</ele>
|
|
<time>2026-07-12T08:23:14.000Z</time>
|
|
</trkpt>
|
|
<trkpt lat="55.702015" lon="8.199876">
|
|
<ele>9.079691</ele>
|
|
<time>2026-07-12T08:23:15.000Z</time>
|
|
</trkpt>
|
|
<trkpt lat="55.701992" lon="8.199955">
|
|
<ele>9.061501</ele>
|
|
<time>2026-07-12T08:23:16.000Z</time>
|
|
</trkpt>
|
|
<trkpt lat="55.701973" lon="8.200041">
|
|
<ele>9.042605</ele>
|
|
<time>2026-07-12T08:23:17.000Z</time>
|
|
</trkpt>
|
|
<trkpt lat="55.701950" lon="8.200126">
|
|
<ele>9.023317</ele>
|
|
<time>2026-07-12T08:23:18.000Z</time>
|
|
</trkpt>
|
|
<trkpt lat="55.701923" lon="8.200210">
|
|
<ele>9.003534</ele>
|
|
<time>2026-07-12T08:23:19.000Z</time>
|
|
</trkpt>
|
|
<trkpt lat="55.701897" lon="8.200294">
|
|
<ele>8.983930</ele>
|
|
<time>2026-07-12T08:23:20.000Z</time>
|
|
</trkpt>
|
|
<trkpt lat="55.701870" lon="8.200373">
|
|
<ele>8.965029</ele>
|
|
<time>2026-07-12T08:23:21.000Z</time>
|
|
</trkpt>
|
|
<trkpt lat="55.701843" lon="8.200449">
|
|
<ele>8.946650</ele>
|
|
<time>2026-07-12T08:23:22.000Z</time>
|
|
</trkpt>
|
|
<trkpt lat="55.701817" lon="8.200522">
|
|
<ele>8.928984</ele>
|
|
<time>2026-07-12T08:23:23.000Z</time>
|
|
</trkpt>
|
|
<trkpt lat="55.701794" lon="8.200594">
|
|
<ele>8.912054</ele>
|
|
<time>2026-07-12T08:23:24.000Z</time>
|
|
</trkpt>
|
|
<trkpt lat="55.701782" lon="8.200666">
|
|
<ele>8.896694</ele>
|
|
<time>2026-07-12T08:23:25.000Z</time>
|
|
</trkpt>
|
|
<trkpt lat="55.701786" lon="8.200738">
|
|
<ele>8.881894</ele>
|
|
<time>2026-07-12T08:23:26.000Z</time>
|
|
</trkpt>
|
|
<trkpt lat="55.701809" lon="8.200808">
|
|
<ele>8.865319</ele>
|
|
<time>2026-07-12T08:23:27.000Z</time>
|
|
</trkpt>
|
|
<trkpt lat="55.701832" lon="8.200875">
|
|
<ele>8.849270</ele>
|
|
<time>2026-07-12T08:23:28.000Z</time>
|
|
</trkpt>
|
|
<trkpt lat="55.701851" lon="8.200941">
|
|
<ele>8.834109</ele>
|
|
<time>2026-07-12T08:23:29.000Z</time>
|
|
</trkpt>
|
|
<trkpt lat="55.701870" lon="8.201001">
|
|
<ele>8.820030</ele>
|
|
<time>2026-07-12T08:23:30.000Z</time>
|
|
</trkpt>
|
|
<trkpt lat="55.701881" lon="8.201062">
|
|
<ele>8.806928</ele>
|
|
<time>2026-07-12T08:23:31.000Z</time>
|
|
</trkpt>
|
|
<trkpt lat="55.701893" lon="8.201129">
|
|
<ele>8.792547</ele>
|
|
<time>2026-07-12T08:23:32.000Z</time>
|
|
</trkpt>
|
|
<trkpt lat="55.701908" lon="8.201194">
|
|
<ele>8.778178</ele>
|
|
<time>2026-07-12T08:23:33.000Z</time>
|
|
</trkpt>
|
|
<trkpt lat="55.701931" lon="8.201251">
|
|
<ele>8.763837</ele>
|
|
<time>2026-07-12T08:23:34.000Z</time>
|
|
</trkpt>
|
|
<trkpt lat="55.701954" lon="8.201301">
|
|
<ele>8.750634</ele>
|
|
<time>2026-07-12T08:23:35.000Z</time>
|
|
</trkpt>
|
|
<trkpt lat="55.701984" lon="8.201342">
|
|
<ele>8.736888</ele>
|
|
<time>2026-07-12T08:23:36.000Z</time>
|
|
</trkpt>
|
|
<trkpt lat="55.702023" lon="8.201382">
|
|
<ele>8.720535</ele>
|
|
<time>2026-07-12T08:23:37.000Z</time>
|
|
</trkpt>
|
|
<trkpt lat="55.702057" lon="8.201420">
|
|
<ele>8.705949</ele>
|
|
<time>2026-07-12T08:23:38.000Z</time>
|
|
</trkpt>
|
|
<trkpt lat="55.702099" lon="8.201457">
|
|
<ele>8.688926</ele>
|
|
<time>2026-07-12T08:23:39.000Z</time>
|
|
</trkpt>
|
|
<trkpt lat="55.702148" lon="8.201506">
|
|
<ele>8.677873</ele>
|
|
<time>2026-07-12T08:23:40.000Z</time>
|
|
</trkpt>
|
|
<trkpt lat="55.702198" lon="8.201553">
|
|
<ele>8.671576</ele>
|
|
<time>2026-07-12T08:23:41.000Z</time>
|
|
</trkpt>
|
|
<trkpt lat="55.702244" lon="8.201596">
|
|
<ele>8.665791</ele>
|
|
<time>2026-07-12T08:23:42.000Z</time>
|
|
</trkpt>
|
|
<trkpt lat="55.702286" lon="8.201638">
|
|
<ele>8.660426</ele>
|
|
<time>2026-07-12T08:23:43.000Z</time>
|
|
</trkpt>
|
|
<trkpt lat="55.702332" lon="8.201678">
|
|
<ele>8.654726</ele>
|
|
<time>2026-07-12T08:23:44.000Z</time>
|
|
</trkpt>
|
|
<trkpt lat="55.702381" lon="8.201716">
|
|
<ele>8.648775</ele>
|
|
<time>2026-07-12T08:23:45.000Z</time>
|
|
</trkpt>
|
|
<trkpt lat="55.702427" lon="8.201754">
|
|
<ele>8.643129</ele>
|
|
<time>2026-07-12T08:23:46.000Z</time>
|
|
</trkpt>
|
|
<trkpt lat="55.702473" lon="8.201793">
|
|
<ele>8.637456</ele>
|
|
<time>2026-07-12T08:23:47.000Z</time>
|
|
</trkpt>
|
|
<trkpt lat="55.702518" lon="8.201835">
|
|
<ele>8.631798</ele>
|
|
<time>2026-07-12T08:23:48.000Z</time>
|
|
</trkpt>
|
|
<trkpt lat="55.702564" lon="8.201876">
|
|
<ele>8.626070</ele>
|
|
<time>2026-07-12T08:23:49.000Z</time>
|
|
</trkpt>
|
|
<trkpt lat="55.702614" lon="8.201917">
|
|
<ele>8.619941</ele>
|
|
<time>2026-07-12T08:23:50.000Z</time>
|
|
</trkpt>
|
|
<trkpt lat="55.702663" lon="8.201958">
|
|
<ele>8.613912</ele>
|
|
<time>2026-07-12T08:23:51.000Z</time>
|
|
</trkpt>
|
|
<trkpt lat="55.702717" lon="8.201998">
|
|
<ele>8.607401</ele>
|
|
<time>2026-07-12T08:23:52.000Z</time>
|
|
</trkpt>
|
|
<trkpt lat="55.702766" lon="8.202041">
|
|
<ele>8.601318</ele>
|
|
<time>2026-07-12T08:23:53.000Z</time>
|
|
</trkpt>
|
|
<trkpt lat="55.702812" lon="8.202084">
|
|
<ele>8.595532</ele>
|
|
<time>2026-07-12T08:23:54.000Z</time>
|
|
</trkpt>
|
|
<trkpt lat="55.702862" lon="8.202123">
|
|
<ele>8.589455</ele>
|
|
<time>2026-07-12T08:23:55.000Z</time>
|
|
</trkpt>
|
|
<trkpt lat="55.702908" lon="8.202160">
|
|
<ele>8.583834</ele>
|
|
<time>2026-07-12T08:23:56.000Z</time>
|
|
</trkpt>
|
|
<trkpt lat="55.702957" lon="8.202197">
|
|
<ele>8.577909</ele>
|
|
<time>2026-07-12T08:23:57.000Z</time>
|
|
</trkpt>
|
|
<trkpt lat="55.703003" lon="8.202234">
|
|
<ele>8.572289</ele>
|
|
<time>2026-07-12T08:23:58.000Z</time>
|
|
</trkpt>
|
|
<trkpt lat="55.703049" lon="8.202268">
|
|
<ele>8.566744</ele>
|
|
<time>2026-07-12T08:23:59.000Z</time>
|
|
</trkpt>
|
|
<trkpt lat="55.703094" lon="8.202302">
|
|
<ele>8.561301</ele>
|
|
<time>2026-07-12T08:24:00.000Z</time>
|
|
</trkpt>
|
|
<trkpt lat="55.703140" lon="8.202337">
|
|
<ele>8.555732</ele>
|
|
<time>2026-07-12T08:24:01.000Z</time>
|
|
</trkpt>
|
|
<trkpt lat="55.703190" lon="8.202374">
|
|
<ele>8.549703</ele>
|
|
<time>2026-07-12T08:24:02.000Z</time>
|
|
</trkpt>
|
|
<trkpt lat="55.703239" lon="8.202411">
|
|
<ele>8.543778</ele>
|
|
<time>2026-07-12T08:24:03.000Z</time>
|
|
</trkpt>
|
|
<trkpt lat="55.703285" lon="8.202448">
|
|
<ele>8.538157</ele>
|
|
<time>2026-07-12T08:24:04.000Z</time>
|
|
</trkpt>
|
|
<trkpt lat="55.703335" lon="8.202487">
|
|
<ele>8.532080</ele>
|
|
<time>2026-07-12T08:24:05.000Z</time>
|
|
</trkpt>
|
|
<trkpt lat="55.703384" lon="8.202527">
|
|
<ele>8.526078</ele>
|
|
<time>2026-07-12T08:24:06.000Z</time>
|
|
</trkpt>
|
|
<trkpt lat="55.703430" lon="8.202567">
|
|
<ele>8.520378</ele>
|
|
<time>2026-07-12T08:24:07.000Z</time>
|
|
</trkpt>
|
|
<trkpt lat="55.703480" lon="8.202608">
|
|
<ele>8.514248</ele>
|
|
<time>2026-07-12T08:24:08.000Z</time>
|
|
</trkpt>
|
|
<trkpt lat="55.703526" lon="8.202646">
|
|
<ele>8.508602</ele>
|
|
<time>2026-07-12T08:24:09.000Z</time>
|
|
</trkpt>
|
|
<trkpt lat="55.703571" lon="8.202682">
|
|
<ele>8.503109</ele>
|
|
<time>2026-07-12T08:24:10.000Z</time>
|
|
</trkpt>
|
|
<trkpt lat="55.703617" lon="8.202719">
|
|
<ele>8.497489</ele>
|
|
<time>2026-07-12T08:24:11.000Z</time>
|
|
</trkpt>
|
|
<trkpt lat="55.703667" lon="8.202758">
|
|
<ele>8.491412</ele>
|
|
<time>2026-07-12T08:24:12.000Z</time>
|
|
</trkpt>
|
|
<trkpt lat="55.703716" lon="8.202797">
|
|
<ele>8.485436</ele>
|
|
<time>2026-07-12T08:24:13.000Z</time>
|
|
</trkpt>
|
|
<trkpt lat="55.703770" lon="8.202837">
|
|
<ele>8.489073</ele>
|
|
<time>2026-07-12T08:24:14.000Z</time>
|
|
</trkpt>
|
|
<trkpt lat="55.703823" lon="8.202878">
|
|
<ele>8.504880</ele>
|
|
<time>2026-07-12T08:24:15.000Z</time>
|
|
</trkpt>
|
|
<trkpt lat="55.703869" lon="8.202918">
|
|
<ele>8.518885</ele>
|
|
<time>2026-07-12T08:24:16.000Z</time>
|
|
</trkpt>
|
|
<trkpt lat="55.703918" lon="8.202958">
|
|
<ele>8.533630</ele>
|
|
<time>2026-07-12T08:24:17.000Z</time>
|
|
</trkpt>
|
|
<trkpt lat="55.703968" lon="8.203001">
|
|
<ele>8.548821</ele>
|
|
<time>2026-07-12T08:24:18.000Z</time>
|
|
</trkpt>
|
|
<trkpt lat="55.704014" lon="8.203044">
|
|
<ele>8.563035</ele>
|
|
<time>2026-07-12T08:24:19.000Z</time>
|
|
</trkpt>
|
|
<trkpt lat="55.704063" lon="8.203084">
|
|
<ele>8.577781</ele>
|
|
<time>2026-07-12T08:24:20.000Z</time>
|
|
</trkpt>
|
|
<trkpt lat="55.704117" lon="8.203123">
|
|
<ele>8.593720</ele>
|
|
<time>2026-07-12T08:24:21.000Z</time>
|
|
</trkpt>
|
|
<trkpt lat="55.704166" lon="8.203162">
|
|
<ele>8.608402</ele>
|
|
<time>2026-07-12T08:24:22.000Z</time>
|
|
</trkpt>
|
|
<trkpt lat="55.704216" lon="8.203201">
|
|
<ele>8.623334</ele>
|
|
<time>2026-07-12T08:24:23.000Z</time>
|
|
</trkpt>
|
|
<trkpt lat="55.704262" lon="8.203241">
|
|
<ele>8.637339</ele>
|
|
<time>2026-07-12T08:24:24.000Z</time>
|
|
</trkpt>
|
|
<trkpt lat="55.704311" lon="8.203282">
|
|
<ele>8.652150</ele>
|
|
<time>2026-07-12T08:24:25.000Z</time>
|
|
</trkpt>
|
|
<trkpt lat="55.704361" lon="8.203322">
|
|
<ele>8.667145</ele>
|
|
<time>2026-07-12T08:24:26.000Z</time>
|
|
</trkpt>
|
|
<trkpt lat="55.704411" lon="8.203362">
|
|
<ele>8.682140</ele>
|
|
<time>2026-07-12T08:24:27.000Z</time>
|
|
</trkpt>
|
|
<trkpt lat="55.704453" lon="8.203402">
|
|
<ele>8.695171</ele>
|
|
<time>2026-07-12T08:24:28.000Z</time>
|
|
</trkpt>
|
|
<trkpt lat="55.704498" lon="8.203442">
|
|
<ele>8.708931</ele>
|
|
<time>2026-07-12T08:24:29.000Z</time>
|
|
</trkpt>
|
|
<trkpt lat="55.704548" lon="8.203485">
|
|
<ele>8.724122</ele>
|
|
<time>2026-07-12T08:24:30.000Z</time>
|
|
</trkpt>
|
|
<trkpt lat="55.704597" lon="8.203526">
|
|
<ele>8.738932</ele>
|
|
<time>2026-07-12T08:24:31.000Z</time>
|
|
</trkpt>
|
|
<trkpt lat="55.704643" lon="8.203568">
|
|
<ele>8.753076</ele>
|
|
<time>2026-07-12T08:24:32.000Z</time>
|
|
</trkpt>
|
|
<trkpt lat="55.704693" lon="8.203609">
|
|
<ele>8.768134</ele>
|
|
<time>2026-07-12T08:24:33.000Z</time>
|
|
</trkpt>
|
|
<trkpt lat="55.704739" lon="8.203650">
|
|
<ele>8.782207</ele>
|
|
<time>2026-07-12T08:24:34.000Z</time>
|
|
</trkpt>
|
|
<trkpt lat="55.704788" lon="8.203692">
|
|
<ele>8.797085</ele>
|
|
<time>2026-07-12T08:24:35.000Z</time>
|
|
</trkpt>
|
|
<trkpt lat="55.704838" lon="8.203734">
|
|
<ele>8.812209</ele>
|
|
<time>2026-07-12T08:24:36.000Z</time>
|
|
</trkpt>
|
|
<trkpt lat="55.704887" lon="8.203774">
|
|
<ele>8.826954</ele>
|
|
<time>2026-07-12T08:24:37.000Z</time>
|
|
</trkpt>
|
|
<trkpt lat="55.704937" lon="8.203814">
|
|
<ele>8.841949</ele>
|
|
<time>2026-07-12T08:24:38.000Z</time>
|
|
</trkpt>
|
|
<trkpt lat="55.704987" lon="8.203854">
|
|
<ele>8.856944</ele>
|
|
<time>2026-07-12T08:24:39.000Z</time>
|
|
</trkpt>
|
|
<trkpt lat="55.705036" lon="8.203894">
|
|
<ele>8.871689</ele>
|
|
<time>2026-07-12T08:24:40.000Z</time>
|
|
</trkpt>
|
|
<trkpt lat="55.705086" lon="8.203932">
|
|
<ele>8.886560</ele>
|
|
<time>2026-07-12T08:24:41.000Z</time>
|
|
</trkpt>
|
|
<trkpt lat="55.705135" lon="8.203971">
|
|
<ele>8.901242</ele>
|
|
<time>2026-07-12T08:24:42.000Z</time>
|
|
</trkpt>
|
|
<trkpt lat="55.705181" lon="8.204012">
|
|
<ele>8.915315</ele>
|
|
<time>2026-07-12T08:24:43.000Z</time>
|
|
</trkpt>
|
|
<trkpt lat="55.705231" lon="8.204052">
|
|
<ele>8.930310</ele>
|
|
<time>2026-07-12T08:24:44.000Z</time>
|
|
</trkpt>
|
|
<trkpt lat="55.705276" lon="8.204090">
|
|
<ele>8.943935</ele>
|
|
<time>2026-07-12T08:24:45.000Z</time>
|
|
</trkpt>
|
|
<trkpt lat="55.705326" lon="8.204126">
|
|
<ele>8.958687</ele>
|
|
<time>2026-07-12T08:24:46.000Z</time>
|
|
</trkpt>
|
|
<trkpt lat="55.705379" lon="8.204164">
|
|
<ele>8.974027</ele>
|
|
<time>2026-07-12T08:24:47.000Z</time>
|
|
</trkpt>
|
|
<trkpt lat="55.705429" lon="8.204205">
|
|
<ele>8.982944</ele>
|
|
<time>2026-07-12T08:24:48.000Z</time>
|
|
</trkpt>
|
|
<trkpt lat="55.705479" lon="8.204247">
|
|
<ele>8.991899</ele>
|
|
<time>2026-07-12T08:24:49.000Z</time>
|
|
</trkpt>
|
|
<trkpt lat="55.705524" lon="8.204288">
|
|
<ele>9.000088</ele>
|
|
<time>2026-07-12T08:24:50.000Z</time>
|
|
</trkpt>
|
|
<trkpt lat="55.705574" lon="8.204329">
|
|
<ele>9.009004</ele>
|
|
<time>2026-07-12T08:24:51.000Z</time>
|
|
</trkpt>
|
|
<trkpt lat="55.705624" lon="8.204364">
|
|
<ele>9.017705</ele>
|
|
<time>2026-07-12T08:24:52.000Z</time>
|
|
</trkpt>
|
|
<trkpt lat="55.705673" lon="8.204399">
|
|
<ele>9.026256</ele>
|
|
<time>2026-07-12T08:24:53.000Z</time>
|
|
</trkpt>
|
|
<trkpt lat="55.705727" lon="8.204435">
|
|
<ele>9.035594</ele>
|
|
<time>2026-07-12T08:24:54.000Z</time>
|
|
</trkpt>
|
|
<trkpt lat="55.705772" lon="8.204473">
|
|
<ele>9.043662</ele>
|
|
<time>2026-07-12T08:24:55.000Z</time>
|
|
</trkpt>
|
|
<trkpt lat="55.705818" lon="8.204511">
|
|
<ele>9.051876</ele>
|
|
<time>2026-07-12T08:24:56.000Z</time>
|
|
</trkpt>
|
|
<trkpt lat="55.705868" lon="8.204551">
|
|
<ele>9.060755</ele>
|
|
<time>2026-07-12T08:24:57.000Z</time>
|
|
</trkpt>
|
|
<trkpt lat="55.705914" lon="8.204587">
|
|
<ele>9.068893</ele>
|
|
<time>2026-07-12T08:24:58.000Z</time>
|
|
</trkpt>
|
|
<trkpt lat="55.705967" lon="8.204624">
|
|
<ele>9.078113</ele>
|
|
<time>2026-07-12T08:24:59.000Z</time>
|
|
</trkpt>
|
|
<trkpt lat="55.706013" lon="8.204658">
|
|
<ele>9.086180</ele>
|
|
<time>2026-07-12T08:25:00.000Z</time>
|
|
</trkpt>
|
|
<trkpt lat="55.706062" lon="8.204693">
|
|
<ele>9.094731</ele>
|
|
<time>2026-07-12T08:25:01.000Z</time>
|
|
</trkpt>
|
|
<trkpt lat="55.706112" lon="8.204730">
|
|
<ele>9.103500</ele>
|
|
<time>2026-07-12T08:25:02.000Z</time>
|
|
</trkpt>
|
|
<trkpt lat="55.706158" lon="8.204764">
|
|
<ele>9.111567</ele>
|
|
<time>2026-07-12T08:25:03.000Z</time>
|
|
</trkpt>
|
|
<trkpt lat="55.706207" lon="8.204799">
|
|
<ele>9.120118</ele>
|
|
<time>2026-07-12T08:25:04.000Z</time>
|
|
</trkpt>
|
|
<trkpt lat="55.706257" lon="8.204836">
|
|
<ele>9.128888</ele>
|
|
<time>2026-07-12T08:25:05.000Z</time>
|
|
</trkpt>
|
|
<trkpt lat="55.706306" lon="8.204872">
|
|
<ele>9.137473</ele>
|
|
<time>2026-07-12T08:25:06.000Z</time>
|
|
</trkpt>
|
|
<trkpt lat="55.706356" lon="8.204908">
|
|
<ele>9.146208</ele>
|
|
<time>2026-07-12T08:25:07.000Z</time>
|
|
</trkpt>
|
|
<trkpt lat="55.706406" lon="8.204945">
|
|
<ele>9.154978</ele>
|
|
<time>2026-07-12T08:25:08.000Z</time>
|
|
</trkpt>
|
|
<trkpt lat="55.706455" lon="8.204980">
|
|
<ele>9.163529</ele>
|
|
<time>2026-07-12T08:25:09.000Z</time>
|
|
</trkpt>
|
|
<trkpt lat="55.706501" lon="8.205013">
|
|
<ele>9.171561</ele>
|
|
<time>2026-07-12T08:25:10.000Z</time>
|
|
</trkpt>
|
|
<trkpt lat="55.706551" lon="8.205044">
|
|
<ele>9.180135</ele>
|
|
<time>2026-07-12T08:25:11.000Z</time>
|
|
</trkpt>
|
|
<trkpt lat="55.706600" lon="8.205070">
|
|
<ele>9.188414</ele>
|
|
<time>2026-07-12T08:25:12.000Z</time>
|
|
</trkpt>
|
|
<trkpt lat="55.706650" lon="8.205094">
|
|
<ele>9.196799</ele>
|
|
<time>2026-07-12T08:25:13.000Z</time>
|
|
</trkpt>
|
|
<trkpt lat="55.706699" lon="8.205117">
|
|
<ele>9.205005</ele>
|
|
<time>2026-07-12T08:25:14.000Z</time>
|
|
</trkpt>
|
|
<trkpt lat="55.706749" lon="8.205141">
|
|
<ele>9.213390</ele>
|
|
<time>2026-07-12T08:25:15.000Z</time>
|
|
</trkpt>
|
|
<trkpt lat="55.706799" lon="8.205164">
|
|
<ele>9.221752</ele>
|
|
<time>2026-07-12T08:25:16.000Z</time>
|
|
</trkpt>
|
|
<trkpt lat="55.706848" lon="8.205187">
|
|
<ele>9.229957</ele>
|
|
<time>2026-07-12T08:25:17.000Z</time>
|
|
</trkpt>
|
|
<trkpt lat="55.706902" lon="8.205207">
|
|
<ele>9.238887</ele>
|
|
<time>2026-07-12T08:25:18.000Z</time>
|
|
</trkpt>
|
|
<trkpt lat="55.706951" lon="8.205226">
|
|
<ele>9.247007</ele>
|
|
<time>2026-07-12T08:25:19.000Z</time>
|
|
</trkpt>
|
|
<trkpt lat="55.707001" lon="8.205246">
|
|
<ele>9.255304</ele>
|
|
<time>2026-07-12T08:25:20.000Z</time>
|
|
</trkpt>
|
|
<trkpt lat="55.707054" lon="8.205267">
|
|
<ele>9.264095</ele>
|
|
<time>2026-07-12T08:25:21.000Z</time>
|
|
</trkpt>
|
|
<trkpt lat="55.707111" lon="8.205289">
|
|
<ele>9.253750</ele>
|
|
<time>2026-07-12T08:25:22.000Z</time>
|
|
</trkpt>
|
|
<trkpt lat="55.707161" lon="8.205311">
|
|
<ele>9.243234</ele>
|
|
<time>2026-07-12T08:25:23.000Z</time>
|
|
</trkpt>
|
|
<trkpt lat="55.707214" lon="8.205334">
|
|
<ele>9.232094</ele>
|
|
<time>2026-07-12T08:25:24.000Z</time>
|
|
</trkpt>
|
|
<trkpt lat="55.707272" lon="8.205357">
|
|
<ele>9.219961</ele>
|
|
<time>2026-07-12T08:25:25.000Z</time>
|
|
</trkpt>
|
|
<trkpt lat="55.707329" lon="8.205378">
|
|
<ele>9.208076</ele>
|
|
<time>2026-07-12T08:25:26.000Z</time>
|
|
</trkpt>
|
|
<trkpt lat="55.707386" lon="8.205399">
|
|
<ele>9.196192</ele>
|
|
<time>2026-07-12T08:25:27.000Z</time>
|
|
</trkpt>
|
|
<trkpt lat="55.707439" lon="8.205420">
|
|
<ele>9.185105</ele>
|
|
<time>2026-07-12T08:25:28.000Z</time>
|
|
</trkpt>
|
|
<trkpt lat="55.707497" lon="8.205439">
|
|
<ele>9.173064</ele>
|
|
<time>2026-07-12T08:25:29.000Z</time>
|
|
</trkpt>
|
|
<trkpt lat="55.707550" lon="8.205456">
|
|
<ele>9.162068</ele>
|
|
<time>2026-07-12T08:25:30.000Z</time>
|
|
</trkpt>
|
|
<trkpt lat="55.707603" lon="8.205469">
|
|
<ele>9.151145</ele>
|
|
<time>2026-07-12T08:25:31.000Z</time>
|
|
</trkpt>
|
|
<trkpt lat="55.707661" lon="8.205480">
|
|
<ele>9.139237</ele>
|
|
<time>2026-07-12T08:25:32.000Z</time>
|
|
</trkpt>
|
|
<trkpt lat="55.707718" lon="8.205491">
|
|
<ele>9.127531</ele>
|
|
<time>2026-07-12T08:25:33.000Z</time>
|
|
</trkpt>
|
|
<trkpt lat="55.707771" lon="8.205504">
|
|
<ele>9.116608</ele>
|
|
<time>2026-07-12T08:25:34.000Z</time>
|
|
</trkpt>
|
|
<trkpt lat="55.707828" lon="8.205521">
|
|
<ele>9.104808</ele>
|
|
<time>2026-07-12T08:25:35.000Z</time>
|
|
</trkpt>
|
|
<trkpt lat="55.707882" lon="8.205538">
|
|
<ele>9.093611</ele>
|
|
<time>2026-07-12T08:25:36.000Z</time>
|
|
</trkpt>
|
|
<trkpt lat="55.707939" lon="8.205552">
|
|
<ele>9.081864</ele>
|
|
<time>2026-07-12T08:25:37.000Z</time>
|
|
</trkpt>
|
|
<trkpt lat="55.707993" lon="8.205566">
|
|
<ele>9.070722</ele>
|
|
<time>2026-07-12T08:25:38.000Z</time>
|
|
</trkpt>
|
|
<trkpt lat="55.708050" lon="8.205577">
|
|
<ele>9.059017</ele>
|
|
<time>2026-07-12T08:25:39.000Z</time>
|
|
</trkpt>
|
|
<trkpt lat="55.708103" lon="8.205587">
|
|
<ele>9.048135</ele>
|
|
<time>2026-07-12T08:25:40.000Z</time>
|
|
</trkpt>
|
|
<trkpt lat="55.708157" lon="8.205600">
|
|
<ele>9.037010</ele>
|
|
<time>2026-07-12T08:25:41.000Z</time>
|
|
</trkpt>
|
|
<trkpt lat="55.708214" lon="8.205612">
|
|
<ele>9.025292</ele>
|
|
<time>2026-07-12T08:25:42.000Z</time>
|
|
</trkpt>
|
|
<trkpt lat="55.708267" lon="8.205623">
|
|
<ele>9.014398</ele>
|
|
<time>2026-07-12T08:25:43.000Z</time>
|
|
</trkpt>
|
|
<trkpt lat="55.708324" lon="8.205634">
|
|
<ele>9.002692</ele>
|
|
<time>2026-07-12T08:25:44.000Z</time>
|
|
</trkpt>
|
|
<trkpt lat="55.708378" lon="8.205646">
|
|
<ele>8.991582</ele>
|
|
<time>2026-07-12T08:25:45.000Z</time>
|
|
</trkpt>
|
|
<trkpt lat="55.708431" lon="8.205661">
|
|
<ele>8.980625</ele>
|
|
<time>2026-07-12T08:25:46.000Z</time>
|
|
</trkpt>
|
|
<trkpt lat="55.708485" lon="8.205675">
|
|
<ele>8.969483</ele>
|
|
<time>2026-07-12T08:25:47.000Z</time>
|
|
</trkpt>
|
|
<trkpt lat="55.708538" lon="8.205687">
|
|
<ele>8.958575</ele>
|
|
<time>2026-07-12T08:25:48.000Z</time>
|
|
</trkpt>
|
|
<trkpt lat="55.708595" lon="8.205699">
|
|
<ele>8.946857</ele>
|
|
<time>2026-07-12T08:25:49.000Z</time>
|
|
</trkpt>
|
|
<trkpt lat="55.708649" lon="8.205711">
|
|
<ele>8.935746</ele>
|
|
<time>2026-07-12T08:25:50.000Z</time>
|
|
</trkpt>
|
|
<trkpt lat="55.708706" lon="8.205725">
|
|
<ele>8.923998</ele>
|
|
<time>2026-07-12T08:25:51.000Z</time>
|
|
</trkpt>
|
|
<trkpt lat="55.708763" lon="8.205737">
|
|
<ele>8.912280</ele>
|
|
<time>2026-07-12T08:25:52.000Z</time>
|
|
</trkpt>
|
|
<trkpt lat="55.708820" lon="8.205751">
|
|
<ele>8.900532</ele>
|
|
<time>2026-07-12T08:25:53.000Z</time>
|
|
</trkpt>
|
|
<trkpt lat="55.708878" lon="8.205766">
|
|
<ele>8.906842</ele>
|
|
<time>2026-07-12T08:25:54.000Z</time>
|
|
</trkpt>
|
|
<trkpt lat="55.708931" lon="8.205781">
|
|
<ele>8.918094</ele>
|
|
<time>2026-07-12T08:25:55.000Z</time>
|
|
</trkpt>
|
|
<trkpt lat="55.708988" lon="8.205798">
|
|
<ele>8.930211</ele>
|
|
<time>2026-07-12T08:25:56.000Z</time>
|
|
</trkpt>
|
|
<trkpt lat="55.709042" lon="8.205814">
|
|
<ele>8.941689</ele>
|
|
<time>2026-07-12T08:25:57.000Z</time>
|
|
</trkpt>
|
|
<trkpt lat="55.709095" lon="8.205827">
|
|
<ele>8.952906</ele>
|
|
<time>2026-07-12T08:25:58.000Z</time>
|
|
</trkpt>
|
|
<trkpt lat="55.709148" lon="8.205835">
|
|
<ele>8.964058</ele>
|
|
<time>2026-07-12T08:25:59.000Z</time>
|
|
</trkpt>
|
|
<trkpt lat="55.709198" lon="8.205842">
|
|
<ele>8.974573</ele>
|
|
<time>2026-07-12T08:26:00.000Z</time>
|
|
</trkpt>
|
|
<trkpt lat="55.709248" lon="8.205849">
|
|
<ele>8.985088</ele>
|
|
<time>2026-07-12T08:26:01.000Z</time>
|
|
</trkpt>
|
|
<trkpt lat="55.709297" lon="8.205859">
|
|
<ele>8.995429</ele>
|
|
<time>2026-07-12T08:26:02.000Z</time>
|
|
</trkpt>
|
|
<trkpt lat="55.709347" lon="8.205872">
|
|
<ele>9.006023</ele>
|
|
<time>2026-07-12T08:26:03.000Z</time>
|
|
</trkpt>
|
|
<trkpt lat="55.709396" lon="8.205887">
|
|
<ele>9.016448</ele>
|
|
<time>2026-07-12T08:26:04.000Z</time>
|
|
</trkpt>
|
|
<trkpt lat="55.709446" lon="8.205901">
|
|
<ele>9.027060</ele>
|
|
<time>2026-07-12T08:26:05.000Z</time>
|
|
</trkpt>
|
|
<trkpt lat="55.709499" lon="8.205914">
|
|
<ele>9.038277</ele>
|
|
<time>2026-07-12T08:26:06.000Z</time>
|
|
</trkpt>
|
|
<trkpt lat="55.709553" lon="8.205927">
|
|
<ele>9.049702</ele>
|
|
<time>2026-07-12T08:26:07.000Z</time>
|
|
</trkpt>
|
|
<trkpt lat="55.709606" lon="8.205940">
|
|
<ele>9.060919</ele>
|
|
<time>2026-07-12T08:26:08.000Z</time>
|
|
</trkpt>
|
|
<trkpt lat="55.709656" lon="8.205954">
|
|
<ele>9.071531</ele>
|
|
<time>2026-07-12T08:26:09.000Z</time>
|
|
</trkpt>
|
|
<trkpt lat="55.709705" lon="8.205966">
|
|
<ele>9.081901</ele>
|
|
<time>2026-07-12T08:26:10.000Z</time>
|
|
</trkpt>
|
|
<trkpt lat="55.709755" lon="8.205977">
|
|
<ele>9.092464</ele>
|
|
<time>2026-07-12T08:26:11.000Z</time>
|
|
</trkpt>
|
|
<trkpt lat="55.709808" lon="8.205989">
|
|
<ele>9.103666</ele>
|
|
<time>2026-07-12T08:26:12.000Z</time>
|
|
</trkpt>
|
|
<trkpt lat="55.709858" lon="8.206000">
|
|
<ele>9.114229</ele>
|
|
<time>2026-07-12T08:26:13.000Z</time>
|
|
</trkpt>
|
|
<trkpt lat="55.709911" lon="8.206014">
|
|
<ele>9.125462</ele>
|
|
<time>2026-07-12T08:26:14.000Z</time>
|
|
</trkpt>
|
|
<trkpt lat="55.709961" lon="8.206027">
|
|
<ele>9.136057</ele>
|
|
<time>2026-07-12T08:26:15.000Z</time>
|
|
</trkpt>
|
|
<trkpt lat="55.710011" lon="8.206040">
|
|
<ele>9.146651</ele>
|
|
<time>2026-07-12T08:26:16.000Z</time>
|
|
</trkpt>
|
|
<trkpt lat="55.710060" lon="8.206054">
|
|
<ele>9.157056</ele>
|
|
<time>2026-07-12T08:26:17.000Z</time>
|
|
</trkpt>
|
|
<trkpt lat="55.710113" lon="8.206066">
|
|
<ele>9.168258</ele>
|
|
<time>2026-07-12T08:26:18.000Z</time>
|
|
</trkpt>
|
|
<trkpt lat="55.710167" lon="8.206079">
|
|
<ele>9.179683</ele>
|
|
<time>2026-07-12T08:26:19.000Z</time>
|
|
</trkpt>
|
|
<trkpt lat="55.710216" lon="8.206091">
|
|
<ele>9.190053</ele>
|
|
<time>2026-07-12T08:26:20.000Z</time>
|
|
</trkpt>
|
|
<trkpt lat="55.710270" lon="8.206102">
|
|
<ele>9.201449</ele>
|
|
<time>2026-07-12T08:26:21.000Z</time>
|
|
</trkpt>
|
|
<trkpt lat="55.710320" lon="8.206115">
|
|
<ele>9.212043</ele>
|
|
<time>2026-07-12T08:26:22.000Z</time>
|
|
</trkpt>
|
|
<trkpt lat="55.710365" lon="8.206128">
|
|
<ele>9.221601</ele>
|
|
<time>2026-07-12T08:26:23.000Z</time>
|
|
</trkpt>
|
|
<trkpt lat="55.710415" lon="8.206141">
|
|
<ele>9.232196</ele>
|
|
<time>2026-07-12T08:26:24.000Z</time>
|
|
</trkpt>
|
|
<trkpt lat="55.710464" lon="8.206153">
|
|
<ele>9.242566</ele>
|
|
<time>2026-07-12T08:26:25.000Z</time>
|
|
</trkpt>
|
|
<trkpt lat="55.710514" lon="8.206165">
|
|
<ele>9.253144</ele>
|
|
<time>2026-07-12T08:26:26.000Z</time>
|
|
</trkpt>
|
|
<trkpt lat="55.710560" lon="8.206177">
|
|
<ele>9.262892</ele>
|
|
<time>2026-07-12T08:26:27.000Z</time>
|
|
</trkpt>
|
|
<trkpt lat="55.710609" lon="8.206188">
|
|
<ele>9.273246</ele>
|
|
<time>2026-07-12T08:26:28.000Z</time>
|
|
</trkpt>
|
|
<trkpt lat="55.710655" lon="8.206198">
|
|
<ele>9.283028</ele>
|
|
<time>2026-07-12T08:26:29.000Z</time>
|
|
</trkpt>
|
|
<trkpt lat="55.710705" lon="8.206208">
|
|
<ele>9.293661</ele>
|
|
<time>2026-07-12T08:26:30.000Z</time>
|
|
</trkpt>
|
|
<trkpt lat="55.710754" lon="8.206218">
|
|
<ele>9.304084</ele>
|
|
<time>2026-07-12T08:26:31.000Z</time>
|
|
</trkpt>
|
|
<trkpt lat="55.710800" lon="8.206229">
|
|
<ele>9.313892</ele>
|
|
<time>2026-07-12T08:26:32.000Z</time>
|
|
</trkpt>
|
|
<trkpt lat="55.710850" lon="8.206241">
|
|
<ele>9.324554</ele>
|
|
<time>2026-07-12T08:26:33.000Z</time>
|
|
</trkpt>
|
|
<trkpt lat="55.710896" lon="8.206252">
|
|
<ele>9.334363</ele>
|
|
<time>2026-07-12T08:26:34.000Z</time>
|
|
</trkpt>
|
|
<trkpt lat="55.710945" lon="8.206264">
|
|
<ele>9.344815</ele>
|
|
<time>2026-07-12T08:26:35.000Z</time>
|
|
</trkpt>
|
|
<trkpt lat="55.710995" lon="8.206279">
|
|
<ele>9.355531</ele>
|
|
<time>2026-07-12T08:26:36.000Z</time>
|
|
</trkpt>
|
|
<trkpt lat="55.711041" lon="8.206291">
|
|
<ele>9.365356</ele>
|
|
<time>2026-07-12T08:26:37.000Z</time>
|
|
</trkpt>
|
|
<trkpt lat="55.711090" lon="8.206303">
|
|
<ele>9.375808</ele>
|
|
<time>2026-07-12T08:26:38.000Z</time>
|
|
</trkpt>
|
|
<trkpt lat="55.711140" lon="8.206313">
|
|
<ele>9.386441</ele>
|
|
<time>2026-07-12T08:26:39.000Z</time>
|
|
</trkpt>
|
|
<trkpt lat="55.711185" lon="8.206322">
|
|
<ele>9.396011</ele>
|
|
<time>2026-07-12T08:26:40.000Z</time>
|
|
</trkpt>
|
|
<trkpt lat="55.711235" lon="8.206331">
|
|
<ele>9.406631</ele>
|
|
<time>2026-07-12T08:26:41.000Z</time>
|
|
</trkpt>
|
|
<trkpt lat="55.711285" lon="8.206342">
|
|
<ele>9.417277</ele>
|
|
<time>2026-07-12T08:26:42.000Z</time>
|
|
</trkpt>
|
|
<trkpt lat="55.711330" lon="8.206352">
|
|
<ele>9.426861</ele>
|
|
<time>2026-07-12T08:26:43.000Z</time>
|
|
</trkpt>
|
|
<trkpt lat="55.711380" lon="8.206364">
|
|
<ele>9.437523</ele>
|
|
<time>2026-07-12T08:26:44.000Z</time>
|
|
</trkpt>
|
|
<trkpt lat="55.711426" lon="8.206373">
|
|
<ele>9.447302</ele>
|
|
<time>2026-07-12T08:26:45.000Z</time>
|
|
</trkpt>
|
|
<trkpt lat="55.711475" lon="8.206384">
|
|
<ele>9.457739</ele>
|
|
<time>2026-07-12T08:26:46.000Z</time>
|
|
</trkpt>
|
|
<trkpt lat="55.711525" lon="8.206395">
|
|
<ele>9.468386</ele>
|
|
<time>2026-07-12T08:26:47.000Z</time>
|
|
</trkpt>
|
|
<trkpt lat="55.711575" lon="8.206404">
|
|
<ele>9.479006</ele>
|
|
<time>2026-07-12T08:26:48.000Z</time>
|
|
</trkpt>
|
|
<trkpt lat="55.711624" lon="8.206413">
|
|
<ele>9.489416</ele>
|
|
<time>2026-07-12T08:26:49.000Z</time>
|
|
</trkpt>
|
|
<trkpt lat="55.711670" lon="8.206423">
|
|
<ele>9.499209</ele>
|
|
<time>2026-07-12T08:26:50.000Z</time>
|
|
</trkpt>
|
|
<trkpt lat="55.711720" lon="8.206433">
|
|
<ele>9.509842</ele>
|
|
<time>2026-07-12T08:26:51.000Z</time>
|
|
</trkpt>
|
|
<trkpt lat="55.711769" lon="8.206446">
|
|
<ele>9.520311</ele>
|
|
<time>2026-07-12T08:26:52.000Z</time>
|
|
</trkpt>
|
|
<trkpt lat="55.711819" lon="8.206460">
|
|
<ele>9.531008</ele>
|
|
<time>2026-07-12T08:26:53.000Z</time>
|
|
</trkpt>
|
|
<trkpt lat="55.711868" lon="8.206472">
|
|
<ele>9.541460</ele>
|
|
<time>2026-07-12T08:26:54.000Z</time>
|
|
</trkpt>
|
|
<trkpt lat="55.711918" lon="8.206483">
|
|
<ele>9.552107</ele>
|
|
<time>2026-07-12T08:26:55.000Z</time>
|
|
</trkpt>
|
|
<trkpt lat="55.711964" lon="8.206492">
|
|
<ele>9.561886</ele>
|
|
<time>2026-07-12T08:26:56.000Z</time>
|
|
</trkpt>
|
|
<trkpt lat="55.712013" lon="8.206501">
|
|
<ele>9.572296</ele>
|
|
<time>2026-07-12T08:26:57.000Z</time>
|
|
</trkpt>
|
|
<trkpt lat="55.712063" lon="8.206511">
|
|
<ele>9.582929</ele>
|
|
<time>2026-07-12T08:26:58.000Z</time>
|
|
</trkpt>
|
|
<trkpt lat="55.712109" lon="8.206520">
|
|
<ele>9.592708</ele>
|
|
<time>2026-07-12T08:26:59.000Z</time>
|
|
</trkpt>
|
|
<trkpt lat="55.712158" lon="8.206529">
|
|
<ele>9.603118</ele>
|
|
<time>2026-07-12T08:27:00.000Z</time>
|
|
</trkpt>
|
|
<trkpt lat="55.712204" lon="8.206536">
|
|
<ele>9.612874</ele>
|
|
<time>2026-07-12T08:27:01.000Z</time>
|
|
</trkpt>
|
|
<trkpt lat="55.712254" lon="8.206543">
|
|
<ele>9.623473</ele>
|
|
<time>2026-07-12T08:27:02.000Z</time>
|
|
</trkpt>
|
|
<trkpt lat="55.712296" lon="8.206552">
|
|
<ele>9.632413</ele>
|
|
<time>2026-07-12T08:27:03.000Z</time>
|
|
</trkpt>
|
|
<trkpt lat="55.712341" lon="8.206562">
|
|
<ele>9.641996</ele>
|
|
<time>2026-07-12T08:27:04.000Z</time>
|
|
</trkpt>
|
|
<trkpt lat="55.712387" lon="8.206574">
|
|
<ele>9.651821</ele>
|
|
<time>2026-07-12T08:27:05.000Z</time>
|
|
</trkpt>
|
|
<trkpt lat="55.712429" lon="8.206586">
|
|
<ele>9.655887</ele>
|
|
<time>2026-07-12T08:27:06.000Z</time>
|
|
</trkpt>
|
|
<trkpt lat="55.712475" lon="8.206596">
|
|
<ele>9.657718</ele>
|
|
<time>2026-07-12T08:27:07.000Z</time>
|
|
</trkpt>
|
|
<trkpt lat="55.712524" lon="8.206609">
|
|
<ele>9.659676</ele>
|
|
<time>2026-07-12T08:27:08.000Z</time>
|
|
</trkpt>
|
|
<trkpt lat="55.712570" lon="8.206622">
|
|
<ele>9.661516</ele>
|
|
<time>2026-07-12T08:27:09.000Z</time>
|
|
</trkpt>
|
|
<trkpt lat="55.712612" lon="8.206635">
|
|
<ele>9.663201</ele>
|
|
<time>2026-07-12T08:27:10.000Z</time>
|
|
</trkpt>
|
|
<trkpt lat="55.712658" lon="8.206647">
|
|
<ele>9.665038</ele>
|
|
<time>2026-07-12T08:27:11.000Z</time>
|
|
</trkpt>
|
|
<trkpt lat="55.712704" lon="8.206660">
|
|
<ele>9.666878</ele>
|
|
<time>2026-07-12T08:27:12.000Z</time>
|
|
</trkpt>
|
|
<trkpt lat="55.712750" lon="8.206675">
|
|
<ele>9.668726</ele>
|
|
<time>2026-07-12T08:27:13.000Z</time>
|
|
</trkpt>
|
|
<trkpt lat="55.712795" lon="8.206686">
|
|
<ele>9.670521</ele>
|
|
<time>2026-07-12T08:27:14.000Z</time>
|
|
</trkpt>
|
|
<trkpt lat="55.712841" lon="8.206697">
|
|
<ele>9.672355</ele>
|
|
<time>2026-07-12T08:27:15.000Z</time>
|
|
</trkpt>
|
|
<trkpt lat="55.712891" lon="8.206708">
|
|
<ele>9.674346</ele>
|
|
<time>2026-07-12T08:27:16.000Z</time>
|
|
</trkpt>
|
|
<trkpt lat="55.712936" lon="8.206718">
|
|
<ele>9.676138</ele>
|
|
<time>2026-07-12T08:27:17.000Z</time>
|
|
</trkpt>
|
|
<trkpt lat="55.712982" lon="8.206729">
|
|
<ele>9.677972</ele>
|
|
<time>2026-07-12T08:27:18.000Z</time>
|
|
</trkpt>
|
|
<trkpt lat="55.713032" lon="8.206739">
|
|
<ele>9.679960</ele>
|
|
<time>2026-07-12T08:27:19.000Z</time>
|
|
</trkpt>
|
|
<trkpt lat="55.713081" lon="8.206749">
|
|
<ele>9.681909</ele>
|
|
<time>2026-07-12T08:27:20.000Z</time>
|
|
</trkpt>
|
|
<trkpt lat="55.713127" lon="8.206759">
|
|
<ele>9.683740</ele>
|
|
<time>2026-07-12T08:27:21.000Z</time>
|
|
</trkpt>
|
|
<trkpt lat="55.713177" lon="8.206769">
|
|
<ele>9.685728</ele>
|
|
<time>2026-07-12T08:27:22.000Z</time>
|
|
</trkpt>
|
|
<trkpt lat="55.713223" lon="8.206779">
|
|
<ele>9.687559</ele>
|
|
<time>2026-07-12T08:27:23.000Z</time>
|
|
</trkpt>
|
|
<trkpt lat="55.713272" lon="8.206789">
|
|
<ele>9.689508</ele>
|
|
<time>2026-07-12T08:27:24.000Z</time>
|
|
</trkpt>
|
|
<trkpt lat="55.713322" lon="8.206799">
|
|
<ele>9.691496</ele>
|
|
<time>2026-07-12T08:27:25.000Z</time>
|
|
</trkpt>
|
|
<trkpt lat="55.713371" lon="8.206807">
|
|
<ele>9.693440</ele>
|
|
<time>2026-07-12T08:27:26.000Z</time>
|
|
</trkpt>
|
|
<trkpt lat="55.713425" lon="8.206816">
|
|
<ele>9.695583</ele>
|
|
<time>2026-07-12T08:27:27.000Z</time>
|
|
</trkpt>
|
|
<trkpt lat="55.713467" lon="8.206824">
|
|
<ele>9.697252</ele>
|
|
<time>2026-07-12T08:27:28.000Z</time>
|
|
</trkpt>
|
|
<trkpt lat="55.713516" lon="8.206836">
|
|
<ele>9.699207</ele>
|
|
<time>2026-07-12T08:27:29.000Z</time>
|
|
</trkpt>
|
|
<trkpt lat="55.713566" lon="8.206849">
|
|
<ele>9.701203</ele>
|
|
<time>2026-07-12T08:27:30.000Z</time>
|
|
</trkpt>
|
|
<trkpt lat="55.713615" lon="8.206860">
|
|
<ele>9.703155</ele>
|
|
<time>2026-07-12T08:27:31.000Z</time>
|
|
</trkpt>
|
|
<trkpt lat="55.713661" lon="8.206870">
|
|
<ele>9.704986</ele>
|
|
<time>2026-07-12T08:27:32.000Z</time>
|
|
</trkpt>
|
|
<trkpt lat="55.713711" lon="8.206881">
|
|
<ele>9.706977</ele>
|
|
<time>2026-07-12T08:27:33.000Z</time>
|
|
</trkpt>
|
|
<trkpt lat="55.713760" lon="8.206892">
|
|
<ele>9.708928</ele>
|
|
<time>2026-07-12T08:27:34.000Z</time>
|
|
</trkpt>
|
|
<trkpt lat="55.713806" lon="8.206905">
|
|
<ele>9.710769</ele>
|
|
<time>2026-07-12T08:27:35.000Z</time>
|
|
</trkpt>
|
|
<trkpt lat="55.713856" lon="8.206917">
|
|
<ele>9.712762</ele>
|
|
<time>2026-07-12T08:27:36.000Z</time>
|
|
</trkpt>
|
|
<trkpt lat="55.713902" lon="8.206926">
|
|
<ele>9.714591</ele>
|
|
<time>2026-07-12T08:27:37.000Z</time>
|
|
</trkpt>
|
|
<trkpt lat="55.713951" lon="8.206939">
|
|
<ele>9.716549</ele>
|
|
<time>2026-07-12T08:27:38.000Z</time>
|
|
</trkpt>
|
|
<trkpt lat="55.713997" lon="8.206951">
|
|
<ele>9.718386</ele>
|
|
<time>2026-07-12T08:27:39.000Z</time>
|
|
</trkpt>
|
|
<trkpt lat="55.714046" lon="8.206962">
|
|
<ele>9.720337</ele>
|
|
<time>2026-07-12T08:27:40.000Z</time>
|
|
</trkpt>
|
|
<trkpt lat="55.714096" lon="8.206970">
|
|
<ele>9.722321</ele>
|
|
<time>2026-07-12T08:27:41.000Z</time>
|
|
</trkpt>
|
|
<trkpt lat="55.714142" lon="8.206980">
|
|
<ele>9.724152</ele>
|
|
<time>2026-07-12T08:27:42.000Z</time>
|
|
</trkpt>
|
|
<trkpt lat="55.714191" lon="8.206989">
|
|
<ele>9.726533</ele>
|
|
<time>2026-07-12T08:27:43.000Z</time>
|
|
</trkpt>
|
|
<trkpt lat="55.714241" lon="8.206997">
|
|
<ele>9.731645</ele>
|
|
<time>2026-07-12T08:27:44.000Z</time>
|
|
</trkpt>
|
|
<trkpt lat="55.714287" lon="8.207006">
|
|
<ele>9.736357</ele>
|
|
<time>2026-07-12T08:27:45.000Z</time>
|
|
</trkpt>
|
|
<trkpt lat="55.714336" lon="8.207015">
|
|
<ele>9.741374</ele>
|
|
<time>2026-07-12T08:27:46.000Z</time>
|
|
</trkpt>
|
|
<trkpt lat="55.714386" lon="8.207025">
|
|
<ele>9.746498</ele>
|
|
<time>2026-07-12T08:27:47.000Z</time>
|
|
</trkpt>
|
|
<trkpt lat="55.714432" lon="8.207034">
|
|
<ele>9.751210</ele>
|
|
<time>2026-07-12T08:27:48.000Z</time>
|
|
</trkpt>
|
|
<trkpt lat="55.714478" lon="8.207043">
|
|
<ele>9.755923</ele>
|
|
<time>2026-07-12T08:27:49.000Z</time>
|
|
</trkpt>
|
|
<trkpt lat="55.714527" lon="8.207052">
|
|
<ele>9.760939</ele>
|
|
<time>2026-07-12T08:27:50.000Z</time>
|
|
</trkpt>
|
|
<trkpt lat="55.714573" lon="8.207062">
|
|
<ele>9.765658</ele>
|
|
<time>2026-07-12T08:27:51.000Z</time>
|
|
</trkpt>
|
|
<trkpt lat="55.714623" lon="8.207072">
|
|
<ele>9.770782</ele>
|
|
<time>2026-07-12T08:27:52.000Z</time>
|
|
</trkpt>
|
|
<trkpt lat="55.714672" lon="8.207083">
|
|
<ele>9.775811</ele>
|
|
<time>2026-07-12T08:27:53.000Z</time>
|
|
</trkpt>
|
|
<trkpt lat="55.714722" lon="8.207092">
|
|
<ele>9.780929</ele>
|
|
<time>2026-07-12T08:27:54.000Z</time>
|
|
</trkpt>
|
|
<trkpt lat="55.714771" lon="8.207101">
|
|
<ele>9.785945</ele>
|
|
<time>2026-07-12T08:27:55.000Z</time>
|
|
</trkpt>
|
|
<trkpt lat="55.714821" lon="8.207109">
|
|
<ele>9.791057</ele>
|
|
<time>2026-07-12T08:27:56.000Z</time>
|
|
</trkpt>
|
|
<trkpt lat="55.714870" lon="8.207121">
|
|
<ele>9.796094</ele>
|
|
<time>2026-07-12T08:27:57.000Z</time>
|
|
</trkpt>
|
|
<trkpt lat="55.714920" lon="8.207131">
|
|
<ele>9.801218</ele>
|
|
<time>2026-07-12T08:27:58.000Z</time>
|
|
</trkpt>
|
|
<trkpt lat="55.714970" lon="8.207143">
|
|
<ele>9.806356</ele>
|
|
<time>2026-07-12T08:27:59.000Z</time>
|
|
</trkpt>
|
|
<trkpt lat="55.715015" lon="8.207155">
|
|
<ele>9.810990</ele>
|
|
<time>2026-07-12T08:28:00.000Z</time>
|
|
</trkpt>
|
|
<trkpt lat="55.715061" lon="8.207168">
|
|
<ele>9.815733</ele>
|
|
<time>2026-07-12T08:28:01.000Z</time>
|
|
</trkpt>
|
|
<trkpt lat="55.715111" lon="8.207178">
|
|
<ele>9.820857</ele>
|
|
<time>2026-07-12T08:28:02.000Z</time>
|
|
</trkpt>
|
|
<trkpt lat="55.715160" lon="8.207189">
|
|
<ele>9.825886</ele>
|
|
<time>2026-07-12T08:28:03.000Z</time>
|
|
</trkpt>
|
|
<trkpt lat="55.715206" lon="8.207201">
|
|
<ele>9.830620</ele>
|
|
<time>2026-07-12T08:28:04.000Z</time>
|
|
</trkpt>
|
|
<trkpt lat="55.715252" lon="8.207213">
|
|
<ele>9.835355</ele>
|
|
<time>2026-07-12T08:28:05.000Z</time>
|
|
</trkpt>
|
|
<trkpt lat="55.715302" lon="8.207226">
|
|
<ele>9.840501</ele>
|
|
<time>2026-07-12T08:28:06.000Z</time>
|
|
</trkpt>
|
|
<trkpt lat="55.715347" lon="8.207235">
|
|
<ele>9.845112</ele>
|
|
<time>2026-07-12T08:28:07.000Z</time>
|
|
</trkpt>
|
|
<trkpt lat="55.715393" lon="8.207245">
|
|
<ele>9.849831</ele>
|
|
<time>2026-07-12T08:28:08.000Z</time>
|
|
</trkpt>
|
|
<trkpt lat="55.715439" lon="8.207253">
|
|
<ele>9.854538</ele>
|
|
<time>2026-07-12T08:28:09.000Z</time>
|
|
</trkpt>
|
|
<trkpt lat="55.715485" lon="8.207262">
|
|
<ele>9.859251</ele>
|
|
<time>2026-07-12T08:28:10.000Z</time>
|
|
</trkpt>
|
|
<trkpt lat="55.715534" lon="8.207272">
|
|
<ele>9.864273</ele>
|
|
<time>2026-07-12T08:28:11.000Z</time>
|
|
</trkpt>
|
|
<trkpt lat="55.715580" lon="8.207282">
|
|
<ele>9.868992</ele>
|
|
<time>2026-07-12T08:28:12.000Z</time>
|
|
</trkpt>
|
|
<trkpt lat="55.715630" lon="8.207294">
|
|
<ele>9.874130</ele>
|
|
<time>2026-07-12T08:28:13.000Z</time>
|
|
</trkpt>
|
|
<trkpt lat="55.715675" lon="8.207306">
|
|
<ele>9.878764</ele>
|
|
<time>2026-07-12T08:28:14.000Z</time>
|
|
</trkpt>
|
|
<trkpt lat="55.715725" lon="8.207317">
|
|
<ele>9.883894</ele>
|
|
<time>2026-07-12T08:28:15.000Z</time>
|
|
</trkpt>
|
|
<trkpt lat="55.715771" lon="8.207329">
|
|
<ele>9.888629</ele>
|
|
<time>2026-07-12T08:28:16.000Z</time>
|
|
</trkpt>
|
|
<trkpt lat="55.715817" lon="8.207341">
|
|
<ele>9.893363</ele>
|
|
<time>2026-07-12T08:28:17.000Z</time>
|
|
</trkpt>
|
|
<trkpt lat="55.715866" lon="8.207354">
|
|
<ele>9.898408</ele>
|
|
<time>2026-07-12T08:28:18.000Z</time>
|
|
</trkpt>
|
|
<trkpt lat="55.715912" lon="8.207365">
|
|
<ele>9.903135</ele>
|
|
<time>2026-07-12T08:28:19.000Z</time>
|
|
</trkpt>
|
|
<trkpt lat="55.715954" lon="8.207375">
|
|
<ele>9.907450</ele>
|
|
<time>2026-07-12T08:28:20.000Z</time>
|
|
</trkpt>
|
|
<trkpt lat="55.715996" lon="8.207384">
|
|
<ele>9.909211</ele>
|
|
<time>2026-07-12T08:28:21.000Z</time>
|
|
</trkpt>
|
|
<trkpt lat="55.716030" lon="8.207392">
|
|
<ele>9.909502</ele>
|
|
<time>2026-07-12T08:28:22.000Z</time>
|
|
</trkpt>
|
|
<trkpt lat="55.716064" lon="8.207400">
|
|
<ele>9.909793</ele>
|
|
<time>2026-07-12T08:28:23.000Z</time>
|
|
</trkpt>
|
|
<trkpt lat="55.716106" lon="8.207411">
|
|
<ele>9.910153</ele>
|
|
<time>2026-07-12T08:28:24.000Z</time>
|
|
</trkpt>
|
|
<trkpt lat="55.716133" lon="8.207418">
|
|
<ele>9.910384</ele>
|
|
<time>2026-07-12T08:28:25.000Z</time>
|
|
</trkpt>
|
|
<trkpt lat="55.716160" lon="8.207426">
|
|
<ele>9.910616</ele>
|
|
<time>2026-07-12T08:28:26.000Z</time>
|
|
</trkpt>
|
|
<trkpt lat="55.716179" lon="8.207432">
|
|
<ele>9.910780</ele>
|
|
<time>2026-07-12T08:28:27.000Z</time>
|
|
</trkpt>
|
|
<trkpt lat="55.716183" lon="8.207435">
|
|
<ele>9.910817</ele>
|
|
<time>2026-07-12T08:28:54.000Z</time>
|
|
</trkpt>
|
|
<trkpt lat="55.716194" lon="8.207433">
|
|
<ele>9.910911</ele>
|
|
<time>2026-07-12T08:28:55.000Z</time>
|
|
</trkpt>
|
|
<trkpt lat="55.716217" lon="8.207429">
|
|
<ele>9.911107</ele>
|
|
<time>2026-07-12T08:28:56.000Z</time>
|
|
</trkpt>
|
|
<trkpt lat="55.716240" lon="8.207431">
|
|
<ele>9.911302</ele>
|
|
<time>2026-07-12T08:28:57.000Z</time>
|
|
</trkpt>
|
|
<trkpt lat="55.716267" lon="8.207439">
|
|
<ele>9.911534</ele>
|
|
<time>2026-07-12T08:28:58.000Z</time>
|
|
</trkpt>
|
|
<trkpt lat="55.716293" lon="8.207449">
|
|
<ele>9.911760</ele>
|
|
<time>2026-07-12T08:28:59.000Z</time>
|
|
</trkpt>
|
|
<trkpt lat="55.716328" lon="8.207458">
|
|
<ele>9.912060</ele>
|
|
<time>2026-07-12T08:29:00.000Z</time>
|
|
</trkpt>
|
|
<trkpt lat="55.716366" lon="8.207464">
|
|
<ele>9.912384</ele>
|
|
<time>2026-07-12T08:29:01.000Z</time>
|
|
</trkpt>
|
|
<trkpt lat="55.716400" lon="8.207472">
|
|
<ele>9.912675</ele>
|
|
<time>2026-07-12T08:29:02.000Z</time>
|
|
</trkpt>
|
|
<trkpt lat="55.716438" lon="8.207481">
|
|
<ele>9.913000</ele>
|
|
<time>2026-07-12T08:29:03.000Z</time>
|
|
</trkpt>
|
|
<trkpt lat="55.716476" lon="8.207494">
|
|
<ele>9.913328</ele>
|
|
<time>2026-07-12T08:29:04.000Z</time>
|
|
</trkpt>
|
|
<trkpt lat="55.716522" lon="8.207506">
|
|
<ele>9.913722</ele>
|
|
<time>2026-07-12T08:29:05.000Z</time>
|
|
</trkpt>
|
|
<trkpt lat="55.716564" lon="8.207516">
|
|
<ele>9.914082</ele>
|
|
<time>2026-07-12T08:29:06.000Z</time>
|
|
</trkpt>
|
|
<trkpt lat="55.716610" lon="8.207524">
|
|
<ele>9.914474</ele>
|
|
<time>2026-07-12T08:29:07.000Z</time>
|
|
</trkpt>
|
|
<trkpt lat="55.716652" lon="8.207535">
|
|
<ele>9.914834</ele>
|
|
<time>2026-07-12T08:29:08.000Z</time>
|
|
</trkpt>
|
|
<trkpt lat="55.716694" lon="8.207544">
|
|
<ele>9.915193</ele>
|
|
<time>2026-07-12T08:29:09.000Z</time>
|
|
</trkpt>
|
|
<trkpt lat="55.716740" lon="8.207555">
|
|
<ele>9.915587</ele>
|
|
<time>2026-07-12T08:29:10.000Z</time>
|
|
</trkpt>
|
|
<trkpt lat="55.716782" lon="8.207563">
|
|
<ele>9.915945</ele>
|
|
<time>2026-07-12T08:29:11.000Z</time>
|
|
</trkpt>
|
|
<trkpt lat="55.716827" lon="8.207572">
|
|
<ele>9.916329</ele>
|
|
<time>2026-07-12T08:29:12.000Z</time>
|
|
</trkpt>
|
|
<trkpt lat="55.716877" lon="8.207581">
|
|
<ele>9.916755</ele>
|
|
<time>2026-07-12T08:29:13.000Z</time>
|
|
</trkpt>
|
|
<trkpt lat="55.716923" lon="8.207589">
|
|
<ele>9.917148</ele>
|
|
<time>2026-07-12T08:29:14.000Z</time>
|
|
</trkpt>
|
|
<trkpt lat="55.716972" lon="8.207597">
|
|
<ele>9.917565</ele>
|
|
<time>2026-07-12T08:29:15.000Z</time>
|
|
</trkpt>
|
|
<trkpt lat="55.717014" lon="8.207605">
|
|
<ele>9.917923</ele>
|
|
<time>2026-07-12T08:29:16.000Z</time>
|
|
</trkpt>
|
|
<trkpt lat="55.717060" lon="8.207614">
|
|
<ele>9.918316</ele>
|
|
<time>2026-07-12T08:29:17.000Z</time>
|
|
</trkpt>
|
|
<trkpt lat="55.717110" lon="8.207623">
|
|
<ele>9.918742</ele>
|
|
<time>2026-07-12T08:29:18.000Z</time>
|
|
</trkpt>
|
|
<trkpt lat="55.717155" lon="8.207631">
|
|
<ele>9.919126</ele>
|
|
<time>2026-07-12T08:29:19.000Z</time>
|
|
</trkpt>
|
|
<trkpt lat="55.717201" lon="8.207643">
|
|
<ele>9.919520</ele>
|
|
<time>2026-07-12T08:29:20.000Z</time>
|
|
</trkpt>
|
|
<trkpt lat="55.717247" lon="8.207653">
|
|
<ele>9.919913</ele>
|
|
<time>2026-07-12T08:29:21.000Z</time>
|
|
</trkpt>
|
|
<trkpt lat="55.717297" lon="8.207664">
|
|
<ele>9.920341</ele>
|
|
<time>2026-07-12T08:29:22.000Z</time>
|
|
</trkpt>
|
|
<trkpt lat="55.717346" lon="8.207674">
|
|
<ele>9.920759</ele>
|
|
<time>2026-07-12T08:29:23.000Z</time>
|
|
</trkpt>
|
|
<trkpt lat="55.717388" lon="8.207685">
|
|
<ele>9.921119</ele>
|
|
<time>2026-07-12T08:29:24.000Z</time>
|
|
</trkpt>
|
|
<trkpt lat="55.717434" lon="8.207698">
|
|
<ele>9.921514</ele>
|
|
<time>2026-07-12T08:29:25.000Z</time>
|
|
</trkpt>
|
|
<trkpt lat="55.717487" lon="8.207709">
|
|
<ele>9.921967</ele>
|
|
<time>2026-07-12T08:29:26.000Z</time>
|
|
</trkpt>
|
|
<trkpt lat="55.717533" lon="8.207721">
|
|
<ele>9.922361</ele>
|
|
<time>2026-07-12T08:29:27.000Z</time>
|
|
</trkpt>
|
|
<trkpt lat="55.717583" lon="8.207731">
|
|
<ele>9.922788</ele>
|
|
<time>2026-07-12T08:29:28.000Z</time>
|
|
</trkpt>
|
|
<trkpt lat="55.717628" lon="8.207741">
|
|
<ele>9.923173</ele>
|
|
<time>2026-07-12T08:29:29.000Z</time>
|
|
</trkpt>
|
|
<trkpt lat="55.717678" lon="8.207750">
|
|
<ele>9.923599</ele>
|
|
<time>2026-07-12T08:29:30.000Z</time>
|
|
</trkpt>
|
|
<trkpt lat="55.717728" lon="8.207762">
|
|
<ele>9.924027</ele>
|
|
<time>2026-07-12T08:29:31.000Z</time>
|
|
</trkpt>
|
|
<trkpt lat="55.717777" lon="8.207772">
|
|
<ele>9.922455</ele>
|
|
<time>2026-07-12T08:29:32.000Z</time>
|
|
</trkpt>
|
|
<trkpt lat="55.717827" lon="8.207784">
|
|
<ele>9.918803</ele>
|
|
<time>2026-07-12T08:29:33.000Z</time>
|
|
</trkpt>
|
|
<trkpt lat="55.717876" lon="8.207797">
|
|
<ele>9.915218</ele>
|
|
<time>2026-07-12T08:29:34.000Z</time>
|
|
</trkpt>
|
|
<trkpt lat="55.717926" lon="8.207809">
|
|
<ele>9.911566</ele>
|
|
<time>2026-07-12T08:29:35.000Z</time>
|
|
</trkpt>
|
|
<trkpt lat="55.717976" lon="8.207820">
|
|
<ele>9.907920</ele>
|
|
<time>2026-07-12T08:29:36.000Z</time>
|
|
</trkpt>
|
|
<trkpt lat="55.718025" lon="8.207831">
|
|
<ele>9.904345</ele>
|
|
<time>2026-07-12T08:29:37.000Z</time>
|
|
</trkpt>
|
|
<trkpt lat="55.718071" lon="8.207841">
|
|
<ele>9.900991</ele>
|
|
<time>2026-07-12T08:29:38.000Z</time>
|
|
</trkpt>
|
|
<trkpt lat="55.718121" lon="8.207849">
|
|
<ele>9.897358</ele>
|
|
<time>2026-07-12T08:29:39.000Z</time>
|
|
</trkpt>
|
|
<trkpt lat="55.718166" lon="8.207858">
|
|
<ele>9.894081</ele>
|
|
<time>2026-07-12T08:29:40.000Z</time>
|
|
</trkpt>
|
|
<trkpt lat="55.718216" lon="8.207870">
|
|
<ele>9.890429</ele>
|
|
<time>2026-07-12T08:29:41.000Z</time>
|
|
</trkpt>
|
|
<trkpt lat="55.718266" lon="8.207883">
|
|
<ele>9.886772</ele>
|
|
<time>2026-07-12T08:29:42.000Z</time>
|
|
</trkpt>
|
|
<trkpt lat="55.718315" lon="8.207895">
|
|
<ele>9.883192</ele>
|
|
<time>2026-07-12T08:29:43.000Z</time>
|
|
</trkpt>
|
|
<trkpt lat="55.718369" lon="8.207906">
|
|
<ele>9.879259</ele>
|
|
<time>2026-07-12T08:29:44.000Z</time>
|
|
</trkpt>
|
|
<trkpt lat="55.718418" lon="8.207913">
|
|
<ele>9.875701</ele>
|
|
<time>2026-07-12T08:29:45.000Z</time>
|
|
</trkpt>
|
|
<trkpt lat="55.718468" lon="8.207923">
|
|
<ele>9.872059</ele>
|
|
<time>2026-07-12T08:29:46.000Z</time>
|
|
</trkpt>
|
|
<trkpt lat="55.718517" lon="8.207933">
|
|
<ele>9.868490</ele>
|
|
<time>2026-07-12T08:29:47.000Z</time>
|
|
</trkpt>
|
|
<trkpt lat="55.718563" lon="8.207943">
|
|
<ele>9.865136</ele>
|
|
<time>2026-07-12T08:29:48.000Z</time>
|
|
</trkpt>
|
|
<trkpt lat="55.718613" lon="8.207955">
|
|
<ele>9.861484</ele>
|
|
<time>2026-07-12T08:29:49.000Z</time>
|
|
</trkpt>
|
|
<trkpt lat="55.718655" lon="8.207969">
|
|
<ele>9.858392</ele>
|
|
<time>2026-07-12T08:29:50.000Z</time>
|
|
</trkpt>
|
|
<trkpt lat="55.718697" lon="8.207982">
|
|
<ele>9.855306</ele>
|
|
<time>2026-07-12T08:29:51.000Z</time>
|
|
</trkpt>
|
|
<trkpt lat="55.718735" lon="8.207994">
|
|
<ele>9.852513</ele>
|
|
<time>2026-07-12T08:29:52.000Z</time>
|
|
</trkpt>
|
|
<trkpt lat="55.718781" lon="8.208008">
|
|
<ele>9.849135</ele>
|
|
<time>2026-07-12T08:29:53.000Z</time>
|
|
</trkpt>
|
|
<trkpt lat="55.718826" lon="8.208027">
|
|
<ele>9.845788</ele>
|
|
<time>2026-07-12T08:29:54.000Z</time>
|
|
</trkpt>
|
|
<trkpt lat="55.718880" lon="8.208050">
|
|
<ele>9.841769</ele>
|
|
<time>2026-07-12T08:29:55.000Z</time>
|
|
</trkpt>
|
|
<trkpt lat="55.718933" lon="8.208078">
|
|
<ele>9.837767</ele>
|
|
<time>2026-07-12T08:29:56.000Z</time>
|
|
</trkpt>
|
|
<trkpt lat="55.718986" lon="8.208111">
|
|
<ele>9.833702</ele>
|
|
<time>2026-07-12T08:29:57.000Z</time>
|
|
</trkpt>
|
|
<trkpt lat="55.719044" lon="8.208143">
|
|
<ele>9.829306</ele>
|
|
<time>2026-07-12T08:29:58.000Z</time>
|
|
</trkpt>
|
|
<trkpt lat="55.719097" lon="8.208178">
|
|
<ele>9.825214</ele>
|
|
<time>2026-07-12T08:29:59.000Z</time>
|
|
</trkpt>
|
|
<trkpt lat="55.719151" lon="8.208212">
|
|
<ele>9.821067</ele>
|
|
<time>2026-07-12T08:30:00.000Z</time>
|
|
</trkpt>
|
|
<trkpt lat="55.719200" lon="8.208241">
|
|
<ele>9.817329</ele>
|
|
<time>2026-07-12T08:30:01.000Z</time>
|
|
</trkpt>
|
|
<trkpt lat="55.719250" lon="8.208269">
|
|
<ele>9.813535</ele>
|
|
<time>2026-07-12T08:30:02.000Z</time>
|
|
</trkpt>
|
|
<trkpt lat="55.719296" lon="8.208299">
|
|
<ele>9.809988</ele>
|
|
<time>2026-07-12T08:30:03.000Z</time>
|
|
</trkpt>
|
|
<trkpt lat="55.719341" lon="8.208330">
|
|
<ele>9.806495</ele>
|
|
<time>2026-07-12T08:30:04.000Z</time>
|
|
</trkpt>
|
|
<trkpt lat="55.719391" lon="8.208357">
|
|
<ele>9.802713</ele>
|
|
<time>2026-07-12T08:30:05.000Z</time>
|
|
</trkpt>
|
|
<trkpt lat="55.719437" lon="8.208384">
|
|
<ele>9.799206</ele>
|
|
<time>2026-07-12T08:30:06.000Z</time>
|
|
</trkpt>
|
|
<trkpt lat="55.719490" lon="8.208415">
|
|
<ele>9.795168</ele>
|
|
<time>2026-07-12T08:30:07.000Z</time>
|
|
</trkpt>
|
|
<trkpt lat="55.719540" lon="8.208445">
|
|
<ele>9.769964</ele>
|
|
<time>2026-07-12T08:30:08.000Z</time>
|
|
</trkpt>
|
|
<trkpt lat="55.719593" lon="8.208475">
|
|
<ele>9.734255</ele>
|
|
<time>2026-07-12T08:30:09.000Z</time>
|
|
</trkpt>
|
|
<trkpt lat="55.719646" lon="8.208507">
|
|
<ele>9.698320</ele>
|
|
<time>2026-07-12T08:30:10.000Z</time>
|
|
</trkpt>
|
|
<trkpt lat="55.719696" lon="8.208538">
|
|
<ele>9.664323</ele>
|
|
<time>2026-07-12T08:30:11.000Z</time>
|
|
</trkpt>
|
|
<trkpt lat="55.719753" lon="8.208570">
|
|
<ele>9.625947</ele>
|
|
<time>2026-07-12T08:30:12.000Z</time>
|
|
</trkpt>
|
|
<trkpt lat="55.719803" lon="8.208600">
|
|
<ele>9.592068</ele>
|
|
<time>2026-07-12T08:30:13.000Z</time>
|
|
</trkpt>
|
|
<trkpt lat="55.719856" lon="8.208632">
|
|
<ele>9.556132</ele>
|
|
<time>2026-07-12T08:30:14.000Z</time>
|
|
</trkpt>
|
|
<trkpt lat="55.719910" lon="8.208663">
|
|
<ele>9.519701</ele>
|
|
<time>2026-07-12T08:30:15.000Z</time>
|
|
</trkpt>
|
|
<trkpt lat="55.719963" lon="8.208693">
|
|
<ele>9.483992</ele>
|
|
<time>2026-07-12T08:30:16.000Z</time>
|
|
</trkpt>
|
|
<trkpt lat="55.720016" lon="8.208725">
|
|
<ele>9.448056</ele>
|
|
<time>2026-07-12T08:30:17.000Z</time>
|
|
</trkpt>
|
|
<trkpt lat="55.720070" lon="8.208756">
|
|
<ele>9.411626</ele>
|
|
<time>2026-07-12T08:30:18.000Z</time>
|
|
</trkpt>
|
|
<trkpt lat="55.720119" lon="8.208786">
|
|
<ele>9.378354</ele>
|
|
<time>2026-07-12T08:30:19.000Z</time>
|
|
</trkpt>
|
|
<trkpt lat="55.720173" lon="8.208817">
|
|
<ele>9.341923</ele>
|
|
<time>2026-07-12T08:30:20.000Z</time>
|
|
</trkpt>
|
|
<trkpt lat="55.720226" lon="8.208846">
|
|
<ele>9.306322</ele>
|
|
<time>2026-07-12T08:30:21.000Z</time>
|
|
</trkpt>
|
|
<trkpt lat="55.720276" lon="8.208875">
|
|
<ele>9.272556</ele>
|
|
<time>2026-07-12T08:30:22.000Z</time>
|
|
</trkpt>
|
|
<trkpt lat="55.720329" lon="8.208904">
|
|
<ele>9.236955</ele>
|
|
<time>2026-07-12T08:30:23.000Z</time>
|
|
</trkpt>
|
|
<trkpt lat="55.720383" lon="8.208932">
|
|
<ele>9.200843</ele>
|
|
<time>2026-07-12T08:30:24.000Z</time>
|
|
</trkpt>
|
|
<trkpt lat="55.720436" lon="8.208961">
|
|
<ele>9.165242</ele>
|
|
<time>2026-07-12T08:30:25.000Z</time>
|
|
</trkpt>
|
|
<trkpt lat="55.720490" lon="8.208992">
|
|
<ele>9.128811</ele>
|
|
<time>2026-07-12T08:30:26.000Z</time>
|
|
</trkpt>
|
|
<trkpt lat="55.720543" lon="8.209024">
|
|
<ele>9.092876</ele>
|
|
<time>2026-07-12T08:30:27.000Z</time>
|
|
</trkpt>
|
|
<trkpt lat="55.720600" lon="8.209055">
|
|
<ele>9.054608</ele>
|
|
<time>2026-07-12T08:30:28.000Z</time>
|
|
</trkpt>
|
|
<trkpt lat="55.720654" lon="8.209085">
|
|
<ele>9.018286</ele>
|
|
<time>2026-07-12T08:30:29.000Z</time>
|
|
</trkpt>
|
|
<trkpt lat="55.720707" lon="8.209116">
|
|
<ele>8.982466</ele>
|
|
<time>2026-07-12T08:30:30.000Z</time>
|
|
</trkpt>
|
|
<trkpt lat="55.720760" lon="8.209147">
|
|
<ele>8.946645</ele>
|
|
<time>2026-07-12T08:30:31.000Z</time>
|
|
</trkpt>
|
|
<trkpt lat="55.720814" lon="8.209178">
|
|
<ele>8.910214</ele>
|
|
<time>2026-07-12T08:30:32.000Z</time>
|
|
</trkpt>
|
|
<trkpt lat="55.720867" lon="8.209208">
|
|
<ele>8.874505</ele>
|
|
<time>2026-07-12T08:30:33.000Z</time>
|
|
</trkpt>
|
|
<trkpt lat="55.720921" lon="8.209240">
|
|
<ele>8.837961</ele>
|
|
<time>2026-07-12T08:30:34.000Z</time>
|
|
</trkpt>
|
|
<trkpt lat="55.720974" lon="8.209269">
|
|
<ele>8.802360</ele>
|
|
<time>2026-07-12T08:30:35.000Z</time>
|
|
</trkpt>
|
|
<trkpt lat="55.721027" lon="8.209300">
|
|
<ele>8.766540</ele>
|
|
<time>2026-07-12T08:30:36.000Z</time>
|
|
</trkpt>
|
|
<trkpt lat="55.721081" lon="8.209332">
|
|
<ele>8.729996</ele>
|
|
<time>2026-07-12T08:30:37.000Z</time>
|
|
</trkpt>
|
|
<trkpt lat="55.721134" lon="8.209365">
|
|
<ele>8.693943</ele>
|
|
<time>2026-07-12T08:30:38.000Z</time>
|
|
</trkpt>
|
|
<trkpt lat="55.721184" lon="8.209394">
|
|
<ele>8.660177</ele>
|
|
<time>2026-07-12T08:30:39.000Z</time>
|
|
</trkpt>
|
|
<trkpt lat="55.721233" lon="8.209425">
|
|
<ele>8.638724</ele>
|
|
<time>2026-07-12T08:30:40.000Z</time>
|
|
</trkpt>
|
|
<trkpt lat="55.721283" lon="8.209455">
|
|
<ele>8.636729</ele>
|
|
<time>2026-07-12T08:30:41.000Z</time>
|
|
</trkpt>
|
|
<trkpt lat="55.721333" lon="8.209485">
|
|
<ele>8.634734</ele>
|
|
<time>2026-07-12T08:30:42.000Z</time>
|
|
</trkpt>
|
|
<trkpt lat="55.721386" lon="8.209515">
|
|
<ele>8.632631</ele>
|
|
<time>2026-07-12T08:30:43.000Z</time>
|
|
</trkpt>
|
|
<trkpt lat="55.721436" lon="8.209543">
|
|
<ele>8.630650</ele>
|
|
<time>2026-07-12T08:30:44.000Z</time>
|
|
</trkpt>
|
|
<trkpt lat="55.721485" lon="8.209572">
|
|
<ele>8.628697</ele>
|
|
<time>2026-07-12T08:30:45.000Z</time>
|
|
</trkpt>
|
|
<trkpt lat="55.721539" lon="8.209600">
|
|
<ele>8.626571</ele>
|
|
<time>2026-07-12T08:30:46.000Z</time>
|
|
</trkpt>
|
|
<trkpt lat="55.721588" lon="8.209627">
|
|
<ele>8.624632</ele>
|
|
<time>2026-07-12T08:30:47.000Z</time>
|
|
</trkpt>
|
|
<trkpt lat="55.721638" lon="8.209653">
|
|
<ele>8.622662</ele>
|
|
<time>2026-07-12T08:30:48.000Z</time>
|
|
</trkpt>
|
|
<trkpt lat="55.721691" lon="8.209679">
|
|
<ele>8.620584</ele>
|
|
<time>2026-07-12T08:30:49.000Z</time>
|
|
</trkpt>
|
|
<trkpt lat="55.721745" lon="8.209705">
|
|
<ele>8.618469</ele>
|
|
<time>2026-07-12T08:30:50.000Z</time>
|
|
</trkpt>
|
|
<trkpt lat="55.721794" lon="8.209730">
|
|
<ele>8.616542</ele>
|
|
<time>2026-07-12T08:30:51.000Z</time>
|
|
</trkpt>
|
|
<trkpt lat="55.721844" lon="8.209754">
|
|
<ele>8.614584</ele>
|
|
<time>2026-07-12T08:30:52.000Z</time>
|
|
</trkpt>
|
|
<trkpt lat="55.721893" lon="8.209775">
|
|
<ele>8.612679</ele>
|
|
<time>2026-07-12T08:30:53.000Z</time>
|
|
</trkpt>
|
|
<trkpt lat="55.721943" lon="8.209793">
|
|
<ele>8.610750</ele>
|
|
<time>2026-07-12T08:30:54.000Z</time>
|
|
</trkpt>
|
|
<trkpt lat="55.721989" lon="8.209808">
|
|
<ele>8.608982</ele>
|
|
<time>2026-07-12T08:30:55.000Z</time>
|
|
</trkpt>
|
|
<trkpt lat="55.722034" lon="8.209822">
|
|
<ele>8.607256</ele>
|
|
<time>2026-07-12T08:30:56.000Z</time>
|
|
</trkpt>
|
|
<trkpt lat="55.722088" lon="8.209834">
|
|
<ele>8.605198</ele>
|
|
<time>2026-07-12T08:30:57.000Z</time>
|
|
</trkpt>
|
|
<trkpt lat="55.722134" lon="8.209848">
|
|
<ele>8.603434</ele>
|
|
<time>2026-07-12T08:30:58.000Z</time>
|
|
</trkpt>
|
|
<trkpt lat="55.722176" lon="8.209867">
|
|
<ele>8.601796</ele>
|
|
<time>2026-07-12T08:30:59.000Z</time>
|
|
</trkpt>
|
|
<trkpt lat="55.722218" lon="8.209889">
|
|
<ele>8.600141</ele>
|
|
<time>2026-07-12T08:31:00.000Z</time>
|
|
</trkpt>
|
|
<trkpt lat="55.722260" lon="8.209915">
|
|
<ele>8.598460</ele>
|
|
<time>2026-07-12T08:31:01.000Z</time>
|
|
</trkpt>
|
|
<trkpt lat="55.722298" lon="8.209935">
|
|
<ele>8.596961</ele>
|
|
<time>2026-07-12T08:31:02.000Z</time>
|
|
</trkpt>
|
|
<trkpt lat="55.722340" lon="8.209950">
|
|
<ele>8.595342</ele>
|
|
<time>2026-07-12T08:31:03.000Z</time>
|
|
</trkpt>
|
|
<trkpt lat="55.722378" lon="8.209961">
|
|
<ele>8.593887</ele>
|
|
<time>2026-07-12T08:31:04.000Z</time>
|
|
</trkpt>
|
|
<trkpt lat="55.722420" lon="8.209970">
|
|
<ele>8.592288</ele>
|
|
<time>2026-07-12T08:31:05.000Z</time>
|
|
</trkpt>
|
|
<trkpt lat="55.722462" lon="8.209981">
|
|
<ele>8.590683</ele>
|
|
<time>2026-07-12T08:31:06.000Z</time>
|
|
</trkpt>
|
|
<trkpt lat="55.722504" lon="8.209992">
|
|
<ele>8.589078</ele>
|
|
<time>2026-07-12T08:31:07.000Z</time>
|
|
</trkpt>
|
|
<trkpt lat="55.722549" lon="8.210004">
|
|
<ele>8.587358</ele>
|
|
<time>2026-07-12T08:31:08.000Z</time>
|
|
</trkpt>
|
|
<trkpt lat="55.722595" lon="8.210015">
|
|
<ele>8.585604</ele>
|
|
<time>2026-07-12T08:31:09.000Z</time>
|
|
</trkpt>
|
|
<trkpt lat="55.722645" lon="8.210029">
|
|
<ele>8.583690</ele>
|
|
<time>2026-07-12T08:31:10.000Z</time>
|
|
</trkpt>
|
|
<trkpt lat="55.722698" lon="8.210042">
|
|
<ele>8.581668</ele>
|
|
<time>2026-07-12T08:31:11.000Z</time>
|
|
</trkpt>
|
|
<trkpt lat="55.722748" lon="8.210056">
|
|
<ele>8.579755</ele>
|
|
<time>2026-07-12T08:31:12.000Z</time>
|
|
</trkpt>
|
|
<trkpt lat="55.722801" lon="8.210070">
|
|
<ele>8.577729</ele>
|
|
<time>2026-07-12T08:31:13.000Z</time>
|
|
</trkpt>
|
|
<trkpt lat="55.722855" lon="8.210083">
|
|
<ele>8.575669</ele>
|
|
<time>2026-07-12T08:31:14.000Z</time>
|
|
</trkpt>
|
|
<trkpt lat="55.722904" lon="8.210096">
|
|
<ele>8.573797</ele>
|
|
<time>2026-07-12T08:31:15.000Z</time>
|
|
</trkpt>
|
|
<trkpt lat="55.722954" lon="8.210107">
|
|
<ele>8.571892</ele>
|
|
<time>2026-07-12T08:31:16.000Z</time>
|
|
</trkpt>
|
|
<trkpt lat="55.723003" lon="8.210115">
|
|
<ele>8.574031</ele>
|
|
<time>2026-07-12T08:31:17.000Z</time>
|
|
</trkpt>
|
|
<trkpt lat="55.723049" lon="8.210119">
|
|
<ele>8.577087</ele>
|
|
<time>2026-07-12T08:31:18.000Z</time>
|
|
</trkpt>
|
|
<trkpt lat="55.723103" lon="8.210119">
|
|
<ele>8.580669</ele>
|
|
<time>2026-07-12T08:31:19.000Z</time>
|
|
</trkpt>
|
|
<trkpt lat="55.723156" lon="8.210116">
|
|
<ele>8.584187</ele>
|
|
<time>2026-07-12T08:31:20.000Z</time>
|
|
</trkpt>
|
|
<trkpt lat="55.723206" lon="8.210111">
|
|
<ele>8.587510</ele>
|
|
<time>2026-07-12T08:31:21.000Z</time>
|
|
</trkpt>
|
|
<trkpt lat="55.723255" lon="8.210107">
|
|
<ele>8.590764</ele>
|
|
<time>2026-07-12T08:31:22.000Z</time>
|
|
</trkpt>
|
|
<trkpt lat="55.723309" lon="8.210107">
|
|
<ele>8.594347</ele>
|
|
<time>2026-07-12T08:31:23.000Z</time>
|
|
</trkpt>
|
|
<trkpt lat="55.723362" lon="8.210115">
|
|
<ele>8.597876</ele>
|
|
<time>2026-07-12T08:31:24.000Z</time>
|
|
</trkpt>
|
|
<trkpt lat="55.723412" lon="8.210128">
|
|
<ele>8.601229</ele>
|
|
<time>2026-07-12T08:31:25.000Z</time>
|
|
</trkpt>
|
|
<trkpt lat="55.723461" lon="8.210141">
|
|
<ele>8.604516</ele>
|
|
<time>2026-07-12T08:31:26.000Z</time>
|
|
</trkpt>
|
|
<trkpt lat="55.723511" lon="8.210154">
|
|
<ele>8.607868</ele>
|
|
<time>2026-07-12T08:31:27.000Z</time>
|
|
</trkpt>
|
|
<trkpt lat="55.723560" lon="8.210164">
|
|
<ele>8.611141</ele>
|
|
<time>2026-07-12T08:31:28.000Z</time>
|
|
</trkpt>
|
|
<trkpt lat="55.723614" lon="8.210176">
|
|
<ele>8.614751</ele>
|
|
<time>2026-07-12T08:31:29.000Z</time>
|
|
</trkpt>
|
|
<trkpt lat="55.723656" lon="8.210199">
|
|
<ele>8.617667</ele>
|
|
<time>2026-07-12T08:31:30.000Z</time>
|
|
</trkpt>
|
|
<trkpt lat="55.723698" lon="8.210235">
|
|
<ele>8.620762</ele>
|
|
<time>2026-07-12T08:31:31.000Z</time>
|
|
</trkpt>
|
|
<trkpt lat="55.723736" lon="8.210271">
|
|
<ele>8.623619</ele>
|
|
<time>2026-07-12T08:31:32.000Z</time>
|
|
</trkpt>
|
|
<trkpt lat="55.723774" lon="8.210297">
|
|
<ele>8.626321</ele>
|
|
<time>2026-07-12T08:31:33.000Z</time>
|
|
</trkpt>
|
|
<trkpt lat="55.723812" lon="8.210313">
|
|
<ele>8.628912</ele>
|
|
<time>2026-07-12T08:31:34.000Z</time>
|
|
</trkpt>
|
|
<trkpt lat="55.723846" lon="8.210322">
|
|
<ele>8.631193</ele>
|
|
<time>2026-07-12T08:31:35.000Z</time>
|
|
</trkpt>
|
|
<trkpt lat="55.723881" lon="8.210329">
|
|
<ele>8.633530</ele>
|
|
<time>2026-07-12T08:31:36.000Z</time>
|
|
</trkpt>
|
|
<trkpt lat="55.723908" lon="8.210332">
|
|
<ele>8.635324</ele>
|
|
<time>2026-07-12T08:31:37.000Z</time>
|
|
</trkpt>
|
|
<trkpt lat="55.723930" lon="8.210332">
|
|
<ele>8.636784</ele>
|
|
<time>2026-07-12T08:31:38.000Z</time>
|
|
</trkpt>
|
|
<trkpt lat="55.723946" lon="8.210333">
|
|
<ele>8.637846</ele>
|
|
<time>2026-07-12T08:31:39.000Z</time>
|
|
</trkpt>
|
|
<trkpt lat="55.723972" lon="8.210354">
|
|
<ele>8.639741</ele>
|
|
<time>2026-07-12T08:32:19.000Z</time>
|
|
</trkpt>
|
|
<trkpt lat="55.724007" lon="8.210382">
|
|
<ele>8.642288</ele>
|
|
<time>2026-07-12T08:32:20.000Z</time>
|
|
</trkpt>
|
|
<trkpt lat="55.724030" lon="8.210395">
|
|
<ele>8.643890</ele>
|
|
<time>2026-07-12T08:32:21.000Z</time>
|
|
</trkpt>
|
|
<trkpt lat="55.724064" lon="8.210403">
|
|
<ele>8.646165</ele>
|
|
<time>2026-07-12T08:32:22.000Z</time>
|
|
</trkpt>
|
|
<trkpt lat="55.724098" lon="8.210415">
|
|
<ele>8.648465</ele>
|
|
<time>2026-07-12T08:32:23.000Z</time>
|
|
</trkpt>
|
|
<trkpt lat="55.724136" lon="8.210431">
|
|
<ele>8.651056</ele>
|
|
<time>2026-07-12T08:32:24.000Z</time>
|
|
</trkpt>
|
|
<trkpt lat="55.724174" lon="8.210450">
|
|
<ele>8.653675</ele>
|
|
<time>2026-07-12T08:32:25.000Z</time>
|
|
</trkpt>
|
|
<trkpt lat="55.724213" lon="8.210465">
|
|
<ele>8.656323</ele>
|
|
<time>2026-07-12T08:32:26.000Z</time>
|
|
</trkpt>
|
|
<trkpt lat="55.724258" lon="8.210475">
|
|
<ele>8.659332</ele>
|
|
<time>2026-07-12T08:32:27.000Z</time>
|
|
</trkpt>
|
|
<trkpt lat="55.724300" lon="8.210485">
|
|
<ele>8.662143</ele>
|
|
<time>2026-07-12T08:32:28.000Z</time>
|
|
</trkpt>
|
|
<trkpt lat="55.724346" lon="8.210498">
|
|
<ele>8.665233</ele>
|
|
<time>2026-07-12T08:32:29.000Z</time>
|
|
</trkpt>
|
|
<trkpt lat="55.724392" lon="8.210510">
|
|
<ele>8.668318</ele>
|
|
<time>2026-07-12T08:32:30.000Z</time>
|
|
</trkpt>
|
|
<trkpt lat="55.724438" lon="8.210523">
|
|
<ele>8.671408</ele>
|
|
<time>2026-07-12T08:32:31.000Z</time>
|
|
</trkpt>
|
|
<trkpt lat="55.724487" lon="8.210532">
|
|
<ele>8.674677</ele>
|
|
<time>2026-07-12T08:32:32.000Z</time>
|
|
</trkpt>
|
|
<trkpt lat="55.724529" lon="8.210542">
|
|
<ele>8.677488</ele>
|
|
<time>2026-07-12T08:32:33.000Z</time>
|
|
</trkpt>
|
|
<trkpt lat="55.724571" lon="8.210551">
|
|
<ele>8.680295</ele>
|
|
<time>2026-07-12T08:32:34.000Z</time>
|
|
</trkpt>
|
|
<trkpt lat="55.724617" lon="8.210562">
|
|
<ele>8.683374</ele>
|
|
<time>2026-07-12T08:32:35.000Z</time>
|
|
</trkpt>
|
|
<trkpt lat="55.724659" lon="8.210571">
|
|
<ele>8.686181</ele>
|
|
<time>2026-07-12T08:32:36.000Z</time>
|
|
</trkpt>
|
|
<trkpt lat="55.724697" lon="8.210582">
|
|
<ele>8.688735</ele>
|
|
<time>2026-07-12T08:32:37.000Z</time>
|
|
</trkpt>
|
|
<trkpt lat="55.724739" lon="8.210591">
|
|
<ele>8.690639</ele>
|
|
<time>2026-07-12T08:32:38.000Z</time>
|
|
</trkpt>
|
|
<trkpt lat="55.724785" lon="8.210599">
|
|
<ele>8.689893</ele>
|
|
<time>2026-07-12T08:32:39.000Z</time>
|
|
</trkpt>
|
|
<trkpt lat="55.724827" lon="8.210607">
|
|
<ele>8.689211</ele>
|
|
<time>2026-07-12T08:32:40.000Z</time>
|
|
</trkpt>
|
|
<trkpt lat="55.724876" lon="8.210617">
|
|
<ele>8.688414</ele>
|
|
<time>2026-07-12T08:32:41.000Z</time>
|
|
</trkpt>
|
|
<trkpt lat="55.724922" lon="8.210627">
|
|
<ele>8.687666</ele>
|
|
<time>2026-07-12T08:32:42.000Z</time>
|
|
</trkpt>
|
|
<trkpt lat="55.724968" lon="8.210634">
|
|
<ele>8.686920</ele>
|
|
<time>2026-07-12T08:32:43.000Z</time>
|
|
</trkpt>
|
|
<trkpt lat="55.725018" lon="8.210642">
|
|
<ele>8.686110</ele>
|
|
<time>2026-07-12T08:32:44.000Z</time>
|
|
</trkpt>
|
|
<trkpt lat="55.725067" lon="8.210654">
|
|
<ele>8.685311</ele>
|
|
<time>2026-07-12T08:32:45.000Z</time>
|
|
</trkpt>
|
|
<trkpt lat="55.725121" lon="8.210669">
|
|
<ele>8.684428</ele>
|
|
<time>2026-07-12T08:32:46.000Z</time>
|
|
</trkpt>
|
|
<trkpt lat="55.725170" lon="8.210682">
|
|
<ele>8.683628</ele>
|
|
<time>2026-07-12T08:32:47.000Z</time>
|
|
</trkpt>
|
|
<trkpt lat="55.725220" lon="8.210695">
|
|
<ele>8.682812</ele>
|
|
<time>2026-07-12T08:32:48.000Z</time>
|
|
</trkpt>
|
|
<trkpt lat="55.725273" lon="8.210710">
|
|
<ele>8.681945</ele>
|
|
<time>2026-07-12T08:32:49.000Z</time>
|
|
</trkpt>
|
|
<trkpt lat="55.725327" lon="8.210726">
|
|
<ele>8.681061</ele>
|
|
<time>2026-07-12T08:32:50.000Z</time>
|
|
</trkpt>
|
|
<trkpt lat="55.725384" lon="8.210741">
|
|
<ele>8.680131</ele>
|
|
<time>2026-07-12T08:32:51.000Z</time>
|
|
</trkpt>
|
|
<trkpt lat="55.725437" lon="8.210757">
|
|
<ele>8.679262</ele>
|
|
<time>2026-07-12T08:32:52.000Z</time>
|
|
</trkpt>
|
|
<trkpt lat="55.725487" lon="8.210770">
|
|
<ele>8.678446</ele>
|
|
<time>2026-07-12T08:32:53.000Z</time>
|
|
</trkpt>
|
|
<trkpt lat="55.725540" lon="8.210781">
|
|
<ele>8.677585</ele>
|
|
<time>2026-07-12T08:32:54.000Z</time>
|
|
</trkpt>
|
|
<trkpt lat="55.725590" lon="8.210791">
|
|
<ele>8.676772</ele>
|
|
<time>2026-07-12T08:32:55.000Z</time>
|
|
</trkpt>
|
|
<trkpt lat="55.725643" lon="8.210800">
|
|
<ele>8.675912</ele>
|
|
<time>2026-07-12T08:32:56.000Z</time>
|
|
</trkpt>
|
|
<trkpt lat="55.725693" lon="8.210811">
|
|
<ele>8.675099</ele>
|
|
<time>2026-07-12T08:32:57.000Z</time>
|
|
</trkpt>
|
|
<trkpt lat="55.725746" lon="8.210825">
|
|
<ele>8.674233</ele>
|
|
<time>2026-07-12T08:32:58.000Z</time>
|
|
</trkpt>
|
|
<trkpt lat="55.725796" lon="8.210841">
|
|
<ele>8.673413</ele>
|
|
<time>2026-07-12T08:32:59.000Z</time>
|
|
</trkpt>
|
|
<trkpt lat="55.725849" lon="8.210856">
|
|
<ele>8.672546</ele>
|
|
<time>2026-07-12T08:33:00.000Z</time>
|
|
</trkpt>
|
|
<trkpt lat="55.725903" lon="8.210870">
|
|
<ele>8.671665</ele>
|
|
<time>2026-07-12T08:33:01.000Z</time>
|
|
</trkpt>
|
|
<trkpt lat="55.725956" lon="8.210882">
|
|
<ele>8.670802</ele>
|
|
<time>2026-07-12T08:33:02.000Z</time>
|
|
</trkpt>
|
|
<trkpt lat="55.726009" lon="8.210897">
|
|
<ele>8.669935</ele>
|
|
<time>2026-07-12T08:33:03.000Z</time>
|
|
</trkpt>
|
|
<trkpt lat="55.726067" lon="8.210913">
|
|
<ele>8.668988</ele>
|
|
<time>2026-07-12T08:33:04.000Z</time>
|
|
</trkpt>
|
|
<trkpt lat="55.726124" lon="8.210928">
|
|
<ele>8.668057</ele>
|
|
<time>2026-07-12T08:33:05.000Z</time>
|
|
</trkpt>
|
|
<trkpt lat="55.726181" lon="8.210940">
|
|
<ele>8.667130</ele>
|
|
<time>2026-07-12T08:33:06.000Z</time>
|
|
</trkpt>
|
|
<trkpt lat="55.726238" lon="8.210955">
|
|
<ele>8.666200</ele>
|
|
<time>2026-07-12T08:33:07.000Z</time>
|
|
</trkpt>
|
|
<trkpt lat="55.726292" lon="8.210972">
|
|
<ele>8.665314</ele>
|
|
<time>2026-07-12T08:33:08.000Z</time>
|
|
</trkpt>
|
|
<trkpt lat="55.726349" lon="8.210987">
|
|
<ele>8.664383</ele>
|
|
<time>2026-07-12T08:33:09.000Z</time>
|
|
</trkpt>
|
|
<trkpt lat="55.726402" lon="8.211001">
|
|
<ele>8.663518</ele>
|
|
<time>2026-07-12T08:33:10.000Z</time>
|
|
</trkpt>
|
|
<trkpt lat="55.726460" lon="8.211017">
|
|
<ele>8.662570</ele>
|
|
<time>2026-07-12T08:33:11.000Z</time>
|
|
</trkpt>
|
|
<trkpt lat="55.726513" lon="8.211037">
|
|
<ele>8.664764</ele>
|
|
<time>2026-07-12T08:33:12.000Z</time>
|
|
</trkpt>
|
|
<trkpt lat="55.726570" lon="8.211059">
|
|
<ele>8.702516</ele>
|
|
<time>2026-07-12T08:33:13.000Z</time>
|
|
</trkpt>
|
|
<trkpt lat="55.726624" lon="8.211081">
|
|
<ele>8.738372</ele>
|
|
<time>2026-07-12T08:33:14.000Z</time>
|
|
</trkpt>
|
|
<trkpt lat="55.726673" lon="8.211103">
|
|
<ele>8.771083</ele>
|
|
<time>2026-07-12T08:33:15.000Z</time>
|
|
</trkpt>
|
|
<trkpt lat="55.726727" lon="8.211128">
|
|
<ele>8.807201</ele>
|
|
<time>2026-07-12T08:33:16.000Z</time>
|
|
</trkpt>
|
|
<trkpt lat="55.726780" lon="8.211151">
|
|
<ele>8.842512</ele>
|
|
<time>2026-07-12T08:33:17.000Z</time>
|
|
</trkpt>
|
|
<trkpt lat="55.726833" lon="8.211176">
|
|
<ele>8.878003</ele>
|
|
<time>2026-07-12T08:33:18.000Z</time>
|
|
</trkpt>
|
|
<trkpt lat="55.726887" lon="8.211201">
|
|
<ele>8.914120</ele>
|
|
<time>2026-07-12T08:33:19.000Z</time>
|
|
</trkpt>
|
|
<trkpt lat="55.726936" lon="8.211227">
|
|
<ele>8.947219</ele>
|
|
<time>2026-07-12T08:33:20.000Z</time>
|
|
</trkpt>
|
|
<trkpt lat="55.726990" lon="8.211256">
|
|
<ele>8.983731</ele>
|
|
<time>2026-07-12T08:33:21.000Z</time>
|
|
</trkpt>
|
|
<trkpt lat="55.727043" lon="8.211286">
|
|
<ele>9.019733</ele>
|
|
<time>2026-07-12T08:33:22.000Z</time>
|
|
</trkpt>
|
|
<trkpt lat="55.727097" lon="8.211315">
|
|
<ele>9.056245</ele>
|
|
<time>2026-07-12T08:33:23.000Z</time>
|
|
</trkpt>
|
|
<trkpt lat="55.727150" lon="8.211347">
|
|
<ele>9.092475</ele>
|
|
<time>2026-07-12T08:33:24.000Z</time>
|
|
</trkpt>
|
|
<trkpt lat="55.727203" lon="8.211375">
|
|
<ele>9.128263</ele>
|
|
<time>2026-07-12T08:33:25.000Z</time>
|
|
</trkpt>
|
|
<trkpt lat="55.727253" lon="8.211405">
|
|
<ele>9.162420</ele>
|
|
<time>2026-07-12T08:33:26.000Z</time>
|
|
</trkpt>
|
|
<trkpt lat="55.727303" lon="8.211432">
|
|
<ele>9.196244</ele>
|
|
<time>2026-07-12T08:33:27.000Z</time>
|
|
</trkpt>
|
|
<trkpt lat="55.727356" lon="8.211459">
|
|
<ele>9.231929</ele>
|
|
<time>2026-07-12T08:33:28.000Z</time>
|
|
</trkpt>
|
|
<trkpt lat="55.727406" lon="8.211490">
|
|
<ele>9.266205</ele>
|
|
<time>2026-07-12T08:33:29.000Z</time>
|
|
</trkpt>
|
|
<trkpt lat="55.727455" lon="8.211519">
|
|
<ele>9.299633</ele>
|
|
<time>2026-07-12T08:33:30.000Z</time>
|
|
</trkpt>
|
|
<trkpt lat="55.727505" lon="8.211550">
|
|
<ele>9.333908</ele>
|
|
<time>2026-07-12T08:33:31.000Z</time>
|
|
</trkpt>
|
|
<trkpt lat="55.727558" lon="8.211577">
|
|
<ele>9.369594</ele>
|
|
<time>2026-07-12T08:33:32.000Z</time>
|
|
</trkpt>
|
|
<trkpt lat="55.727608" lon="8.211604">
|
|
<ele>9.403417</ele>
|
|
<time>2026-07-12T08:33:33.000Z</time>
|
|
</trkpt>
|
|
<trkpt lat="55.727661" lon="8.211633">
|
|
<ele>9.439310</ele>
|
|
<time>2026-07-12T08:33:34.000Z</time>
|
|
</trkpt>
|
|
<trkpt lat="55.727711" lon="8.211662">
|
|
<ele>9.473352</ele>
|
|
<time>2026-07-12T08:33:35.000Z</time>
|
|
</trkpt>
|
|
<trkpt lat="55.727764" lon="8.211690">
|
|
<ele>9.509140</ele>
|
|
<time>2026-07-12T08:33:36.000Z</time>
|
|
</trkpt>
|
|
<trkpt lat="55.727818" lon="8.211718">
|
|
<ele>9.545548</ele>
|
|
<time>2026-07-12T08:33:37.000Z</time>
|
|
</trkpt>
|
|
<trkpt lat="55.727871" lon="8.211746">
|
|
<ele>9.581336</ele>
|
|
<time>2026-07-12T08:33:38.000Z</time>
|
|
</trkpt>
|
|
<trkpt lat="55.727924" lon="8.211776">
|
|
<ele>9.617338</ele>
|
|
<time>2026-07-12T08:33:39.000Z</time>
|
|
</trkpt>
|
|
<trkpt lat="55.727978" lon="8.211804">
|
|
<ele>9.653746</ele>
|
|
<time>2026-07-12T08:33:40.000Z</time>
|
|
</trkpt>
|
|
<trkpt lat="55.728031" lon="8.211833">
|
|
<ele>9.689639</ele>
|
|
<time>2026-07-12T08:33:41.000Z</time>
|
|
</trkpt>
|
|
<trkpt lat="55.728081" lon="8.211864">
|
|
<ele>9.723915</ele>
|
|
<time>2026-07-12T08:33:42.000Z</time>
|
|
</trkpt>
|
|
<trkpt lat="55.728134" lon="8.211895">
|
|
<ele>9.760029</ele>
|
|
<time>2026-07-12T08:33:43.000Z</time>
|
|
</trkpt>
|
|
<trkpt lat="55.728191" lon="8.211926">
|
|
<ele>9.798611</ele>
|
|
<time>2026-07-12T08:33:44.000Z</time>
|
|
</trkpt>
|
|
<trkpt lat="55.728245" lon="8.211959">
|
|
<ele>9.828006</ele>
|
|
<time>2026-07-12T08:33:45.000Z</time>
|
|
</trkpt>
|
|
<trkpt lat="55.728298" lon="8.211989">
|
|
<ele>9.835974</ele>
|
|
<time>2026-07-12T08:33:46.000Z</time>
|
|
</trkpt>
|
|
<trkpt lat="55.728352" lon="8.212020">
|
|
<ele>9.844102</ele>
|
|
<time>2026-07-12T08:33:47.000Z</time>
|
|
</trkpt>
|
|
<trkpt lat="55.728405" lon="8.212050">
|
|
<ele>9.852069</ele>
|
|
<time>2026-07-12T08:33:48.000Z</time>
|
|
</trkpt>
|
|
<trkpt lat="55.728458" lon="8.212080">
|
|
<ele>9.860037</ele>
|
|
<time>2026-07-12T08:33:49.000Z</time>
|
|
</trkpt>
|
|
<trkpt lat="55.728512" lon="8.212109">
|
|
<ele>9.868117</ele>
|
|
<time>2026-07-12T08:33:50.000Z</time>
|
|
</trkpt>
|
|
<trkpt lat="55.728565" lon="8.212135">
|
|
<ele>9.875993</ele>
|
|
<time>2026-07-12T08:33:51.000Z</time>
|
|
</trkpt>
|
|
<trkpt lat="55.728619" lon="8.212162">
|
|
<ele>9.884028</ele>
|
|
<time>2026-07-12T08:33:52.000Z</time>
|
|
</trkpt>
|
|
<trkpt lat="55.728668" lon="8.212193">
|
|
<ele>9.891478</ele>
|
|
<time>2026-07-12T08:33:53.000Z</time>
|
|
</trkpt>
|
|
<trkpt lat="55.728722" lon="8.212223">
|
|
<ele>9.899582</ele>
|
|
<time>2026-07-12T08:33:54.000Z</time>
|
|
</trkpt>
|
|
<trkpt lat="55.728775" lon="8.212253">
|
|
<ele>9.907549</ele>
|
|
<time>2026-07-12T08:33:55.000Z</time>
|
|
</trkpt>
|
|
<trkpt lat="55.728825" lon="8.212280">
|
|
<ele>9.915034</ele>
|
|
<time>2026-07-12T08:33:56.000Z</time>
|
|
</trkpt>
|
|
<trkpt lat="55.728878" lon="8.212307">
|
|
<ele>9.922932</ele>
|
|
<time>2026-07-12T08:33:57.000Z</time>
|
|
</trkpt>
|
|
<trkpt lat="55.728931" lon="8.212337">
|
|
<ele>9.930899</ele>
|
|
<time>2026-07-12T08:33:58.000Z</time>
|
|
</trkpt>
|
|
<trkpt lat="55.728985" lon="8.212365">
|
|
<ele>9.938956</ele>
|
|
<time>2026-07-12T08:33:59.000Z</time>
|
|
</trkpt>
|
|
<trkpt lat="55.729038" lon="8.212395">
|
|
<ele>9.946924</ele>
|
|
<time>2026-07-12T08:34:00.000Z</time>
|
|
</trkpt>
|
|
<trkpt lat="55.729088" lon="8.212424">
|
|
<ele>9.954457</ele>
|
|
<time>2026-07-12T08:34:01.000Z</time>
|
|
</trkpt>
|
|
<trkpt lat="55.729137" lon="8.212455">
|
|
<ele>9.961908</ele>
|
|
<time>2026-07-12T08:34:02.000Z</time>
|
|
</trkpt>
|
|
<trkpt lat="55.729187" lon="8.212483">
|
|
<ele>9.969417</ele>
|
|
<time>2026-07-12T08:34:03.000Z</time>
|
|
</trkpt>
|
|
<trkpt lat="55.729240" lon="8.212511">
|
|
<ele>9.977336</ele>
|
|
<time>2026-07-12T08:34:04.000Z</time>
|
|
</trkpt>
|
|
<trkpt lat="55.729290" lon="8.212539">
|
|
<ele>9.984845</ele>
|
|
<time>2026-07-12T08:34:05.000Z</time>
|
|
</trkpt>
|
|
<trkpt lat="55.729343" lon="8.212568">
|
|
<ele>9.992789</ele>
|
|
<time>2026-07-12T08:34:06.000Z</time>
|
|
</trkpt>
|
|
<trkpt lat="55.729393" lon="8.212599">
|
|
<ele>10.000374</ele>
|
|
<time>2026-07-12T08:34:07.000Z</time>
|
|
</trkpt>
|
|
<trkpt lat="55.729446" lon="8.212630">
|
|
<ele>10.008366</ele>
|
|
<time>2026-07-12T08:34:08.000Z</time>
|
|
</trkpt>
|
|
<trkpt lat="55.729496" lon="8.212661">
|
|
<ele>10.015952</ele>
|
|
<time>2026-07-12T08:34:09.000Z</time>
|
|
</trkpt>
|
|
<trkpt lat="55.729549" lon="8.212691">
|
|
<ele>10.023919</ele>
|
|
<time>2026-07-12T08:34:10.000Z</time>
|
|
</trkpt>
|
|
<trkpt lat="55.729603" lon="8.212721">
|
|
<ele>10.032023</ele>
|
|
<time>2026-07-12T08:34:11.000Z</time>
|
|
</trkpt>
|
|
<trkpt lat="55.729656" lon="8.212751">
|
|
<ele>10.039990</ele>
|
|
<time>2026-07-12T08:34:12.000Z</time>
|
|
</trkpt>
|
|
<trkpt lat="55.729710" lon="8.212781">
|
|
<ele>10.048094</ele>
|
|
<time>2026-07-12T08:34:13.000Z</time>
|
|
</trkpt>
|
|
<trkpt lat="55.729759" lon="8.212810">
|
|
<ele>10.055492</ele>
|
|
<time>2026-07-12T08:34:14.000Z</time>
|
|
</trkpt>
|
|
<trkpt lat="55.729813" lon="8.212837">
|
|
<ele>10.063527</ele>
|
|
<time>2026-07-12T08:34:15.000Z</time>
|
|
</trkpt>
|
|
<trkpt lat="55.729866" lon="8.212865">
|
|
<ele>10.071447</ele>
|
|
<time>2026-07-12T08:34:16.000Z</time>
|
|
</trkpt>
|
|
<trkpt lat="55.729916" lon="8.212894">
|
|
<ele>10.078980</ele>
|
|
<time>2026-07-12T08:34:17.000Z</time>
|
|
</trkpt>
|
|
<trkpt lat="55.729969" lon="8.212926">
|
|
<ele>10.087390</ele>
|
|
<time>2026-07-12T08:34:18.000Z</time>
|
|
</trkpt>
|
|
<trkpt lat="55.730019" lon="8.212955">
|
|
<ele>10.095760</ele>
|
|
<time>2026-07-12T08:34:19.000Z</time>
|
|
</trkpt>
|
|
<trkpt lat="55.730072" lon="8.212984">
|
|
<ele>10.104585</ele>
|
|
<time>2026-07-12T08:34:20.000Z</time>
|
|
</trkpt>
|
|
<trkpt lat="55.730122" lon="8.213014">
|
|
<ele>10.112983</ele>
|
|
<time>2026-07-12T08:34:21.000Z</time>
|
|
</trkpt>
|
|
<trkpt lat="55.730175" lon="8.213045">
|
|
<ele>10.121862</ele>
|
|
<time>2026-07-12T08:34:22.000Z</time>
|
|
</trkpt>
|
|
<trkpt lat="55.730225" lon="8.213074">
|
|
<ele>10.130232</ele>
|
|
<time>2026-07-12T08:34:23.000Z</time>
|
|
</trkpt>
|
|
<trkpt lat="55.730278" lon="8.213102">
|
|
<ele>10.139031</ele>
|
|
<time>2026-07-12T08:34:24.000Z</time>
|
|
</trkpt>
|
|
<trkpt lat="55.730328" lon="8.213131">
|
|
<ele>10.147401</ele>
|
|
<time>2026-07-12T08:34:25.000Z</time>
|
|
</trkpt>
|
|
<trkpt lat="55.730377" lon="8.213160">
|
|
<ele>10.155620</ele>
|
|
<time>2026-07-12T08:34:26.000Z</time>
|
|
</trkpt>
|
|
<trkpt lat="55.730427" lon="8.213189">
|
|
<ele>10.163990</ele>
|
|
<time>2026-07-12T08:34:27.000Z</time>
|
|
</trkpt>
|
|
<trkpt lat="55.730480" lon="8.213217">
|
|
<ele>10.172789</ele>
|
|
<time>2026-07-12T08:34:28.000Z</time>
|
|
</trkpt>
|
|
<trkpt lat="55.730530" lon="8.213245">
|
|
<ele>10.181132</ele>
|
|
<time>2026-07-12T08:34:29.000Z</time>
|
|
</trkpt>
|
|
<trkpt lat="55.730579" lon="8.213274">
|
|
<ele>10.189351</ele>
|
|
<time>2026-07-12T08:34:30.000Z</time>
|
|
</trkpt>
|
|
<trkpt lat="55.730629" lon="8.213305">
|
|
<ele>10.197778</ele>
|
|
<time>2026-07-12T08:34:31.000Z</time>
|
|
</trkpt>
|
|
<trkpt lat="55.730679" lon="8.213333">
|
|
<ele>10.206121</ele>
|
|
<time>2026-07-12T08:34:32.000Z</time>
|
|
</trkpt>
|
|
<trkpt lat="55.730728" lon="8.213357">
|
|
<ele>10.214209</ele>
|
|
<time>2026-07-12T08:34:33.000Z</time>
|
|
</trkpt>
|
|
<trkpt lat="55.730778" lon="8.213375">
|
|
<ele>10.222328</ele>
|
|
<time>2026-07-12T08:34:34.000Z</time>
|
|
</trkpt>
|
|
<trkpt lat="55.730823" lon="8.213385">
|
|
<ele>10.229544</ele>
|
|
<time>2026-07-12T08:34:35.000Z</time>
|
|
</trkpt>
|
|
<trkpt lat="55.730865" lon="8.213386">
|
|
<ele>10.236228</ele>
|
|
<time>2026-07-12T08:34:36.000Z</time>
|
|
</trkpt>
|
|
<trkpt lat="55.730904" lon="8.213369">
|
|
<ele>10.242618</ele>
|
|
<time>2026-07-12T08:34:37.000Z</time>
|
|
</trkpt>
|
|
<trkpt lat="55.730927" lon="8.213334">
|
|
<ele>10.247438</ele>
|
|
<time>2026-07-12T08:34:38.000Z</time>
|
|
</trkpt>
|
|
<trkpt lat="55.730938" lon="8.213292">
|
|
<ele>10.251589</ele>
|
|
<time>2026-07-12T08:34:39.000Z</time>
|
|
</trkpt>
|
|
<trkpt lat="55.730946" lon="8.213260">
|
|
<ele>10.254726</ele>
|
|
<time>2026-07-12T08:34:40.000Z</time>
|
|
</trkpt>
|
|
<trkpt lat="55.730953" lon="8.213243">
|
|
<ele>10.256613</ele>
|
|
<time>2026-07-12T08:34:41.000Z</time>
|
|
</trkpt>
|
|
<trkpt lat="55.730968" lon="8.213234">
|
|
<ele>10.259132</ele>
|
|
<time>2026-07-12T08:34:52.000Z</time>
|
|
</trkpt>
|
|
<trkpt lat="55.730988" lon="8.213232">
|
|
<ele>10.262320</ele>
|
|
<time>2026-07-12T08:34:53.000Z</time>
|
|
</trkpt>
|
|
<trkpt lat="55.731003" lon="8.213243">
|
|
<ele>10.264902</ele>
|
|
<time>2026-07-12T08:34:54.000Z</time>
|
|
</trkpt>
|
|
<trkpt lat="55.731018" lon="8.213252">
|
|
<ele>10.267422</ele>
|
|
<time>2026-07-12T08:34:55.000Z</time>
|
|
</trkpt>
|
|
<trkpt lat="55.731037" lon="8.213259">
|
|
<ele>10.270510</ele>
|
|
<time>2026-07-12T08:34:56.000Z</time>
|
|
</trkpt>
|
|
<trkpt lat="55.731056" lon="8.213263">
|
|
<ele>10.273554</ele>
|
|
<time>2026-07-12T08:34:57.000Z</time>
|
|
</trkpt>
|
|
<trkpt lat="55.731075" lon="8.213274">
|
|
<ele>10.276734</ele>
|
|
<time>2026-07-12T08:34:58.000Z</time>
|
|
</trkpt>
|
|
<trkpt lat="55.731091" lon="8.213300">
|
|
<ele>10.280185</ele>
|
|
<time>2026-07-12T08:34:59.000Z</time>
|
|
</trkpt>
|
|
<trkpt lat="55.731094" lon="8.213339">
|
|
<ele>10.283712</ele>
|
|
<time>2026-07-12T08:35:00.000Z</time>
|
|
</trkpt>
|
|
<trkpt lat="55.731091" lon="8.213384">
|
|
<ele>10.287772</ele>
|
|
<time>2026-07-12T08:35:01.000Z</time>
|
|
</trkpt>
|
|
<trkpt lat="55.731083" lon="8.213437">
|
|
<ele>10.292689</ele>
|
|
<time>2026-07-12T08:35:02.000Z</time>
|
|
</trkpt>
|
|
<trkpt lat="55.731072" lon="8.213498">
|
|
<ele>10.298428</ele>
|
|
<time>2026-07-12T08:35:03.000Z</time>
|
|
</trkpt>
|
|
<trkpt lat="55.731060" lon="8.213561">
|
|
<ele>10.304387</ele>
|
|
<time>2026-07-12T08:35:04.000Z</time>
|
|
</trkpt>
|
|
<trkpt lat="55.731049" lon="8.213623">
|
|
<ele>10.310212</ele>
|
|
<time>2026-07-12T08:35:05.000Z</time>
|
|
</trkpt>
|
|
<trkpt lat="55.731041" lon="8.213687">
|
|
<ele>10.316086</ele>
|
|
<time>2026-07-12T08:35:06.000Z</time>
|
|
</trkpt>
|
|
<trkpt lat="55.731030" lon="8.213762">
|
|
<ele>10.323030</ele>
|
|
<time>2026-07-12T08:35:07.000Z</time>
|
|
</trkpt>
|
|
<trkpt lat="55.731018" lon="8.213826">
|
|
<ele>10.329074</ele>
|
|
<time>2026-07-12T08:35:08.000Z</time>
|
|
</trkpt>
|
|
<trkpt lat="55.731007" lon="8.213897">
|
|
<ele>10.335673</ele>
|
|
<time>2026-07-12T08:35:09.000Z</time>
|
|
</trkpt>
|
|
<trkpt lat="55.730995" lon="8.213964">
|
|
<ele>10.341972</ele>
|
|
<time>2026-07-12T08:35:10.000Z</time>
|
|
</trkpt>
|
|
<trkpt lat="55.730988" lon="8.214030">
|
|
<ele>10.347990</ele>
|
|
<time>2026-07-12T08:35:11.000Z</time>
|
|
</trkpt>
|
|
<trkpt lat="55.730976" lon="8.214097">
|
|
<ele>10.354290</ele>
|
|
<time>2026-07-12T08:35:12.000Z</time>
|
|
</trkpt>
|
|
<trkpt lat="55.730965" lon="8.214164">
|
|
<ele>10.360543</ele>
|
|
<time>2026-07-12T08:35:13.000Z</time>
|
|
</trkpt>
|
|
<trkpt lat="55.730953" lon="8.214228">
|
|
<ele>10.366587</ele>
|
|
<time>2026-07-12T08:35:14.000Z</time>
|
|
</trkpt>
|
|
<trkpt lat="55.730946" lon="8.214289">
|
|
<ele>10.373698</ele>
|
|
<time>2026-07-12T08:35:15.000Z</time>
|
|
</trkpt>
|
|
<trkpt lat="55.730942" lon="8.214345">
|
|
<ele>10.381886</ele>
|
|
<time>2026-07-12T08:35:16.000Z</time>
|
|
</trkpt>
|
|
<trkpt lat="55.730949" lon="8.214395">
|
|
<ele>10.389359</ele>
|
|
<time>2026-07-12T08:35:17.000Z</time>
|
|
</trkpt>
|
|
<trkpt lat="55.730972" lon="8.214438">
|
|
<ele>10.397961</ele>
|
|
<time>2026-07-12T08:35:18.000Z</time>
|
|
</trkpt>
|
|
<trkpt lat="55.730991" lon="8.214481">
|
|
<ele>10.405889</ele>
|
|
<time>2026-07-12T08:35:19.000Z</time>
|
|
</trkpt>
|
|
<trkpt lat="55.731018" lon="8.214528">
|
|
<ele>10.415628</ele>
|
|
<time>2026-07-12T08:35:20.000Z</time>
|
|
</trkpt>
|
|
<trkpt lat="55.731049" lon="8.214586">
|
|
<ele>10.427226</ele>
|
|
<time>2026-07-12T08:35:21.000Z</time>
|
|
</trkpt>
|
|
<trkpt lat="55.731075" lon="8.214643">
|
|
<ele>10.437866</ele>
|
|
<time>2026-07-12T08:35:22.000Z</time>
|
|
</trkpt>
|
|
<trkpt lat="55.731102" lon="8.214704">
|
|
<ele>10.449120</ele>
|
|
<time>2026-07-12T08:35:23.000Z</time>
|
|
</trkpt>
|
|
<trkpt lat="55.731129" lon="8.214766">
|
|
<ele>10.460489</ele>
|
|
<time>2026-07-12T08:35:24.000Z</time>
|
|
</trkpt>
|
|
<trkpt lat="55.731152" lon="8.214826">
|
|
<ele>10.471016</ele>
|
|
<time>2026-07-12T08:35:25.000Z</time>
|
|
</trkpt>
|
|
<trkpt lat="55.731171" lon="8.214889">
|
|
<ele>10.481382</ele>
|
|
<time>2026-07-12T08:35:26.000Z</time>
|
|
</trkpt>
|
|
<trkpt lat="55.731190" lon="8.214958">
|
|
<ele>10.492523</ele>
|
|
<time>2026-07-12T08:35:27.000Z</time>
|
|
</trkpt>
|
|
<trkpt lat="55.731209" lon="8.215029">
|
|
<ele>10.503925</ele>
|
|
<time>2026-07-12T08:35:28.000Z</time>
|
|
</trkpt>
|
|
<trkpt lat="55.731224" lon="8.215104">
|
|
<ele>10.515469</ele>
|
|
<time>2026-07-12T08:35:29.000Z</time>
|
|
</trkpt>
|
|
<trkpt lat="55.731243" lon="8.215176">
|
|
<ele>10.527002</ele>
|
|
<time>2026-07-12T08:35:30.000Z</time>
|
|
</trkpt>
|
|
<trkpt lat="55.731258" lon="8.215246">
|
|
<ele>10.537865</ele>
|
|
<time>2026-07-12T08:35:31.000Z</time>
|
|
</trkpt>
|
|
<trkpt lat="55.731281" lon="8.215346">
|
|
<ele>10.553533</ele>
|
|
<time>2026-07-12T08:35:32.000Z</time>
|
|
</trkpt>
|
|
<trkpt lat="55.731300" lon="8.215425">
|
|
<ele>10.565992</ele>
|
|
<time>2026-07-12T08:35:33.000Z</time>
|
|
</trkpt>
|
|
<trkpt lat="55.731323" lon="8.215504">
|
|
<ele>10.578892</ele>
|
|
<time>2026-07-12T08:35:34.000Z</time>
|
|
</trkpt>
|
|
<trkpt lat="55.731342" lon="8.215581">
|
|
<ele>10.591085</ele>
|
|
<time>2026-07-12T08:35:35.000Z</time>
|
|
</trkpt>
|
|
<trkpt lat="55.731365" lon="8.215659">
|
|
<ele>10.603856</ele>
|
|
<time>2026-07-12T08:35:36.000Z</time>
|
|
</trkpt>
|
|
<trkpt lat="55.731388" lon="8.215740">
|
|
<ele>10.617014</ele>
|
|
<time>2026-07-12T08:35:37.000Z</time>
|
|
</trkpt>
|
|
<trkpt lat="55.731407" lon="8.215818">
|
|
<ele>10.629340</ele>
|
|
<time>2026-07-12T08:35:38.000Z</time>
|
|
</trkpt>
|
|
<trkpt lat="55.731430" lon="8.215899">
|
|
<ele>10.642498</ele>
|
|
<time>2026-07-12T08:35:39.000Z</time>
|
|
</trkpt>
|
|
<trkpt lat="55.731449" lon="8.215982">
|
|
<ele>10.655493</ele>
|
|
<time>2026-07-12T08:35:40.000Z</time>
|
|
</trkpt>
|
|
<trkpt lat="55.731464" lon="8.216070">
|
|
<ele>10.668829</ele>
|
|
<time>2026-07-12T08:35:41.000Z</time>
|
|
</trkpt>
|
|
<trkpt lat="55.731476" lon="8.216159">
|
|
<ele>10.682103</ele>
|
|
<time>2026-07-12T08:35:42.000Z</time>
|
|
</trkpt>
|
|
<trkpt lat="55.731487" lon="8.216247">
|
|
<ele>10.695177</ele>
|
|
<time>2026-07-12T08:35:43.000Z</time>
|
|
</trkpt>
|
|
<trkpt lat="55.731499" lon="8.216335">
|
|
<ele>10.708310</ele>
|
|
<time>2026-07-12T08:35:44.000Z</time>
|
|
</trkpt>
|
|
<trkpt lat="55.731503" lon="8.216424">
|
|
<ele>10.721259</ele>
|
|
<time>2026-07-12T08:35:45.000Z</time>
|
|
</trkpt>
|
|
<trkpt lat="55.731514" lon="8.216516">
|
|
<ele>10.734901</ele>
|
|
<time>2026-07-12T08:35:46.000Z</time>
|
|
</trkpt>
|
|
<trkpt lat="55.731518" lon="8.216613">
|
|
<ele>10.749007</ele>
|
|
<time>2026-07-12T08:35:47.000Z</time>
|
|
</trkpt>
|
|
<trkpt lat="55.731525" lon="8.216706">
|
|
<ele>10.762616</ele>
|
|
<time>2026-07-12T08:35:48.000Z</time>
|
|
</trkpt>
|
|
<trkpt lat="55.731533" lon="8.216800">
|
|
<ele>10.776405</ele>
|
|
<time>2026-07-12T08:35:49.000Z</time>
|
|
</trkpt>
|
|
<trkpt lat="55.731537" lon="8.216891">
|
|
<ele>10.789644</ele>
|
|
<time>2026-07-12T08:35:50.000Z</time>
|
|
</trkpt>
|
|
<trkpt lat="55.731537" lon="8.216982">
|
|
<ele>10.802843</ele>
|
|
<time>2026-07-12T08:35:51.000Z</time>
|
|
</trkpt>
|
|
<trkpt lat="55.731537" lon="8.217076">
|
|
<ele>10.816477</ele>
|
|
<time>2026-07-12T08:35:52.000Z</time>
|
|
</trkpt>
|
|
<trkpt lat="55.731529" lon="8.217171">
|
|
<ele>10.830409</ele>
|
|
<time>2026-07-12T08:35:53.000Z</time>
|
|
</trkpt>
|
|
<trkpt lat="55.731525" lon="8.217265">
|
|
<ele>10.828869</ele>
|
|
<time>2026-07-12T08:35:54.000Z</time>
|
|
</trkpt>
|
|
<trkpt lat="55.731518" lon="8.217356">
|
|
<ele>10.823903</ele>
|
|
<time>2026-07-12T08:35:55.000Z</time>
|
|
</trkpt>
|
|
<trkpt lat="55.731510" lon="8.217449">
|
|
<ele>10.818815</ele>
|
|
<time>2026-07-12T08:35:56.000Z</time>
|
|
</trkpt>
|
|
<trkpt lat="55.731503" lon="8.217552">
|
|
<ele>10.813205</ele>
|
|
<time>2026-07-12T08:35:57.000Z</time>
|
|
</trkpt>
|
|
<trkpt lat="55.731491" lon="8.217646">
|
|
<ele>10.807994</ele>
|
|
<time>2026-07-12T08:35:58.000Z</time>
|
|
</trkpt>
|
|
<trkpt lat="55.731480" lon="8.217742">
|
|
<ele>10.802696</ele>
|
|
<time>2026-07-12T08:35:59.000Z</time>
|
|
</trkpt>
|
|
<trkpt lat="55.731472" lon="8.217834">
|
|
<ele>10.797663</ele>
|
|
<time>2026-07-12T08:36:00.000Z</time>
|
|
</trkpt>
|
|
<trkpt lat="55.731461" lon="8.217924">
|
|
<ele>10.792683</ele>
|
|
<time>2026-07-12T08:36:01.000Z</time>
|
|
</trkpt>
|
|
<trkpt lat="55.731445" lon="8.218014">
|
|
<ele>10.787579</ele>
|
|
<time>2026-07-12T08:36:02.000Z</time>
|
|
</trkpt>
|
|
<trkpt lat="55.731430" lon="8.218104">
|
|
<ele>10.782504</ele>
|
|
<time>2026-07-12T08:36:03.000Z</time>
|
|
</trkpt>
|
|
<trkpt lat="55.731415" lon="8.218195">
|
|
<ele>10.777377</ele>
|
|
<time>2026-07-12T08:36:04.000Z</time>
|
|
</trkpt>
|
|
<trkpt lat="55.731396" lon="8.218285">
|
|
<ele>10.772180</ele>
|
|
<time>2026-07-12T08:36:05.000Z</time>
|
|
</trkpt>
|
|
<trkpt lat="55.731380" lon="8.218374">
|
|
<ele>10.767128</ele>
|
|
<time>2026-07-12T08:36:06.000Z</time>
|
|
</trkpt>
|
|
<trkpt lat="55.731365" lon="8.218463">
|
|
<ele>10.762104</ele>
|
|
<time>2026-07-12T08:36:07.000Z</time>
|
|
</trkpt>
|
|
<trkpt lat="55.731350" lon="8.218554">
|
|
<ele>10.756977</ele>
|
|
<time>2026-07-12T08:36:08.000Z</time>
|
|
</trkpt>
|
|
<trkpt lat="55.731338" lon="8.218642">
|
|
<ele>10.752081</ele>
|
|
<time>2026-07-12T08:36:09.000Z</time>
|
|
</trkpt>
|
|
<trkpt lat="55.731331" lon="8.218728">
|
|
<ele>10.747383</ele>
|
|
<time>2026-07-12T08:36:10.000Z</time>
|
|
</trkpt>
|
|
<trkpt lat="55.731319" lon="8.218814">
|
|
<ele>10.742592</ele>
|
|
<time>2026-07-12T08:36:11.000Z</time>
|
|
</trkpt>
|
|
<trkpt lat="55.731304" lon="8.218899">
|
|
<ele>10.737775</ele>
|
|
<time>2026-07-12T08:36:12.000Z</time>
|
|
</trkpt>
|
|
<trkpt lat="55.731293" lon="8.218983">
|
|
<ele>10.733112</ele>
|
|
<time>2026-07-12T08:36:13.000Z</time>
|
|
</trkpt>
|
|
<trkpt lat="55.731277" lon="8.219066">
|
|
<ele>10.728368</ele>
|
|
<time>2026-07-12T08:36:14.000Z</time>
|
|
</trkpt>
|
|
<trkpt lat="55.731266" lon="8.219148">
|
|
<ele>10.723810</ele>
|
|
<time>2026-07-12T08:36:15.000Z</time>
|
|
</trkpt>
|
|
<trkpt lat="55.731255" lon="8.219222">
|
|
<ele>10.719671</ele>
|
|
<time>2026-07-12T08:36:16.000Z</time>
|
|
</trkpt>
|
|
<trkpt lat="55.731243" lon="8.219287">
|
|
<ele>10.715972</ele>
|
|
<time>2026-07-12T08:36:17.000Z</time>
|
|
</trkpt>
|
|
<trkpt lat="55.731232" lon="8.219351">
|
|
<ele>10.712354</ele>
|
|
<time>2026-07-12T08:36:18.000Z</time>
|
|
</trkpt>
|
|
<trkpt lat="55.731224" lon="8.219416">
|
|
<ele>10.708756</ele>
|
|
<time>2026-07-12T08:36:19.000Z</time>
|
|
</trkpt>
|
|
<trkpt lat="55.731213" lon="8.219482">
|
|
<ele>10.705034</ele>
|
|
<time>2026-07-12T08:36:20.000Z</time>
|
|
</trkpt>
|
|
<trkpt lat="55.731201" lon="8.219549">
|
|
<ele>10.701233</ele>
|
|
<time>2026-07-12T08:36:21.000Z</time>
|
|
</trkpt>
|
|
<trkpt lat="55.731190" lon="8.219616">
|
|
<ele>10.697459</ele>
|
|
<time>2026-07-12T08:36:22.000Z</time>
|
|
</trkpt>
|
|
<trkpt lat="55.731174" lon="8.219686">
|
|
<ele>10.693374</ele>
|
|
<time>2026-07-12T08:36:23.000Z</time>
|
|
</trkpt>
|
|
<trkpt lat="55.731163" lon="8.219755">
|
|
<ele>10.689496</ele>
|
|
<time>2026-07-12T08:36:24.000Z</time>
|
|
</trkpt>
|
|
<trkpt lat="55.731148" lon="8.219814">
|
|
<ele>10.685996</ele>
|
|
<time>2026-07-12T08:36:25.000Z</time>
|
|
</trkpt>
|
|
<trkpt lat="55.731125" lon="8.219901">
|
|
<ele>10.680798</ele>
|
|
<time>2026-07-12T08:36:26.000Z</time>
|
|
</trkpt>
|
|
<trkpt lat="55.731110" lon="8.219968">
|
|
<ele>10.676900</ele>
|
|
<time>2026-07-12T08:36:27.000Z</time>
|
|
</trkpt>
|
|
<trkpt lat="55.731098" lon="8.220034">
|
|
<ele>10.673149</ele>
|
|
<time>2026-07-12T08:36:28.000Z</time>
|
|
</trkpt>
|
|
<trkpt lat="55.731083" lon="8.220101">
|
|
<ele>10.669251</ele>
|
|
<time>2026-07-12T08:36:29.000Z</time>
|
|
</trkpt>
|
|
<trkpt lat="55.731072" lon="8.220174">
|
|
<ele>10.665164</ele>
|
|
<time>2026-07-12T08:36:30.000Z</time>
|
|
</trkpt>
|
|
<trkpt lat="55.731060" lon="8.220244">
|
|
<ele>10.661208</ele>
|
|
<time>2026-07-12T08:36:31.000Z</time>
|
|
</trkpt>
|
|
<trkpt lat="55.731045" lon="8.220311">
|
|
<ele>10.668315</ele>
|
|
<time>2026-07-12T08:36:32.000Z</time>
|
|
</trkpt>
|
|
<trkpt lat="55.731033" lon="8.220376">
|
|
<ele>10.678351</ele>
|
|
<time>2026-07-12T08:36:33.000Z</time>
|
|
</trkpt>
|
|
<trkpt lat="55.731022" lon="8.220442">
|
|
<ele>10.688449</ele>
|
|
<time>2026-07-12T08:36:34.000Z</time>
|
|
</trkpt>
|
|
<trkpt lat="55.731007" lon="8.220510">
|
|
<ele>10.699163</ele>
|
|
<time>2026-07-12T08:36:35.000Z</time>
|
|
</trkpt>
|
|
<trkpt lat="55.730991" lon="8.220580">
|
|
<ele>10.710247</ele>
|
|
<time>2026-07-12T08:36:36.000Z</time>
|
|
</trkpt>
|
|
<trkpt lat="55.730976" lon="8.220649">
|
|
<ele>10.721098</ele>
|
|
<time>2026-07-12T08:36:37.000Z</time>
|
|
</trkpt>
|
|
<trkpt lat="55.730965" lon="8.220716">
|
|
<ele>10.731337</ele>
|
|
<time>2026-07-12T08:36:38.000Z</time>
|
|
</trkpt>
|
|
<trkpt lat="55.730949" lon="8.220784">
|
|
<ele>10.742149</ele>
|
|
<time>2026-07-12T08:36:39.000Z</time>
|
|
</trkpt>
|
|
<trkpt lat="55.730934" lon="8.220853">
|
|
<ele>10.753000</ele>
|
|
<time>2026-07-12T08:36:40.000Z</time>
|
|
</trkpt>
|
|
<trkpt lat="55.730915" lon="8.220922">
|
|
<ele>10.764268</ele>
|
|
<time>2026-07-12T08:36:41.000Z</time>
|
|
</trkpt>
|
|
<trkpt lat="55.730900" lon="8.220995">
|
|
<ele>10.775669</ele>
|
|
<time>2026-07-12T08:36:42.000Z</time>
|
|
</trkpt>
|
|
<trkpt lat="55.730888" lon="8.221065">
|
|
<ele>10.786404</ele>
|
|
<time>2026-07-12T08:36:43.000Z</time>
|
|
</trkpt>
|
|
<trkpt lat="55.730877" lon="8.221129">
|
|
<ele>10.796221</ele>
|
|
<time>2026-07-12T08:36:44.000Z</time>
|
|
</trkpt>
|
|
<trkpt lat="55.730865" lon="8.221187">
|
|
<ele>10.805286</ele>
|
|
<time>2026-07-12T08:36:45.000Z</time>
|
|
</trkpt>
|
|
<trkpt lat="55.730854" lon="8.221240">
|
|
<ele>10.813573</ele>
|
|
<time>2026-07-12T08:36:46.000Z</time>
|
|
</trkpt>
|
|
<trkpt lat="55.730846" lon="8.221289">
|
|
<ele>10.821058</ele>
|
|
<time>2026-07-12T08:36:47.000Z</time>
|
|
</trkpt>
|
|
<trkpt lat="55.730835" lon="8.221328">
|
|
<ele>10.827458</ele>
|
|
<time>2026-07-12T08:36:48.000Z</time>
|
|
</trkpt>
|
|
<trkpt lat="55.730831" lon="8.221359">
|
|
<ele>10.832123</ele>
|
|
<time>2026-07-12T08:36:49.000Z</time>
|
|
</trkpt>
|
|
<trkpt lat="55.730827" lon="8.221394">
|
|
<ele>10.837363</ele>
|
|
<time>2026-07-12T08:36:50.000Z</time>
|
|
</trkpt>
|
|
<trkpt lat="55.730835" lon="8.221419">
|
|
<ele>10.841582</ele>
|
|
<time>2026-07-12T08:36:51.000Z</time>
|
|
</trkpt>
|
|
<trkpt lat="55.730850" lon="8.221445">
|
|
<ele>10.847043</ele>
|
|
<time>2026-07-12T08:36:52.000Z</time>
|
|
</trkpt>
|
|
<trkpt lat="55.730877" lon="8.221466">
|
|
<ele>10.854723</ele>
|
|
<time>2026-07-12T08:36:53.000Z</time>
|
|
</trkpt>
|
|
<trkpt lat="55.730907" lon="8.221480">
|
|
<ele>10.862804</ele>
|
|
<time>2026-07-12T08:36:54.000Z</time>
|
|
</trkpt>
|
|
<trkpt lat="55.730938" lon="8.221493">
|
|
<ele>10.871103</ele>
|
|
<time>2026-07-12T08:36:55.000Z</time>
|
|
</trkpt>
|
|
<trkpt lat="55.730972" lon="8.221505">
|
|
<ele>10.880135</ele>
|
|
<time>2026-07-12T08:36:56.000Z</time>
|
|
</trkpt>
|
|
<trkpt lat="55.731007" lon="8.221518">
|
|
<ele>10.889452</ele>
|
|
<time>2026-07-12T08:36:57.000Z</time>
|
|
</trkpt>
|
|
<trkpt lat="55.731045" lon="8.221525">
|
|
<ele>10.899406</ele>
|
|
<time>2026-07-12T08:36:58.000Z</time>
|
|
</trkpt>
|
|
<trkpt lat="55.731079" lon="8.221533">
|
|
<ele>10.908342</ele>
|
|
<time>2026-07-12T08:36:59.000Z</time>
|
|
</trkpt>
|
|
<trkpt lat="55.731117" lon="8.221543">
|
|
<ele>10.918351</ele>
|
|
<time>2026-07-12T08:37:00.000Z</time>
|
|
</trkpt>
|
|
<trkpt lat="55.731155" lon="8.221554">
|
|
<ele>10.928382</ele>
|
|
<time>2026-07-12T08:37:01.000Z</time>
|
|
</trkpt>
|
|
<trkpt lat="55.731190" lon="8.221560">
|
|
<ele>10.937544</ele>
|
|
<time>2026-07-12T08:37:02.000Z</time>
|
|
</trkpt>
|
|
<trkpt lat="55.731228" lon="8.221566">
|
|
<ele>10.947483</ele>
|
|
<time>2026-07-12T08:37:03.000Z</time>
|
|
</trkpt>
|
|
<trkpt lat="55.731266" lon="8.221573">
|
|
<ele>10.957437</ele>
|
|
<time>2026-07-12T08:37:04.000Z</time>
|
|
</trkpt>
|
|
<trkpt lat="55.731304" lon="8.221581">
|
|
<ele>10.967407</ele>
|
|
<time>2026-07-12T08:37:05.000Z</time>
|
|
</trkpt>
|
|
<trkpt lat="55.731346" lon="8.221594">
|
|
<ele>10.978515</ele>
|
|
<time>2026-07-12T08:37:06.000Z</time>
|
|
</trkpt>
|
|
<trkpt lat="55.731384" lon="8.221605">
|
|
<ele>10.988547</ele>
|
|
<time>2026-07-12T08:37:07.000Z</time>
|
|
</trkpt>
|
|
<trkpt lat="55.731426" lon="8.221617">
|
|
<ele>10.999630</ele>
|
|
<time>2026-07-12T08:37:08.000Z</time>
|
|
</trkpt>
|
|
<trkpt lat="55.731468" lon="8.221627">
|
|
<ele>11.010671</ele>
|
|
<time>2026-07-12T08:37:09.000Z</time>
|
|
</trkpt>
|
|
<trkpt lat="55.731514" lon="8.221641">
|
|
<ele>11.022831</ele>
|
|
<time>2026-07-12T08:37:10.000Z</time>
|
|
</trkpt>
|
|
<trkpt lat="55.731556" lon="8.221655">
|
|
<ele>11.033965</ele>
|
|
<time>2026-07-12T08:37:11.000Z</time>
|
|
</trkpt>
|
|
<trkpt lat="55.731609" lon="8.221670">
|
|
<ele>11.047949</ele>
|
|
<time>2026-07-12T08:37:12.000Z</time>
|
|
</trkpt>
|
|
<trkpt lat="55.731655" lon="8.221684">
|
|
<ele>11.060108</ele>
|
|
<time>2026-07-12T08:37:13.000Z</time>
|
|
</trkpt>
|
|
<trkpt lat="55.731701" lon="8.221697">
|
|
<ele>11.072244</ele>
|
|
<time>2026-07-12T08:37:14.000Z</time>
|
|
</trkpt>
|
|
<trkpt lat="55.731750" lon="8.221706">
|
|
<ele>11.085079</ele>
|
|
<time>2026-07-12T08:37:15.000Z</time>
|
|
</trkpt>
|
|
<trkpt lat="55.731796" lon="8.221716">
|
|
<ele>11.097154</ele>
|
|
<time>2026-07-12T08:37:16.000Z</time>
|
|
</trkpt>
|
|
<trkpt lat="55.731842" lon="8.221726">
|
|
<ele>11.109229</ele>
|
|
<time>2026-07-12T08:37:17.000Z</time>
|
|
</trkpt>
|
|
<trkpt lat="55.731888" lon="8.221738">
|
|
<ele>11.121342</ele>
|
|
<time>2026-07-12T08:37:18.000Z</time>
|
|
</trkpt>
|
|
<trkpt lat="55.731934" lon="8.221750">
|
|
<ele>11.148152</ele>
|
|
<time>2026-07-12T08:37:19.000Z</time>
|
|
</trkpt>
|
|
<trkpt lat="55.731976" lon="8.221760">
|
|
<ele>11.194841</ele>
|
|
<time>2026-07-12T08:37:20.000Z</time>
|
|
</trkpt>
|
|
<trkpt lat="55.732014" lon="8.221768">
|
|
<ele>11.237002</ele>
|
|
<time>2026-07-12T08:37:21.000Z</time>
|
|
</trkpt>
|
|
<trkpt lat="55.732052" lon="8.221777">
|
|
<ele>11.279241</ele>
|
|
<time>2026-07-12T08:37:22.000Z</time>
|
|
</trkpt>
|
|
<trkpt lat="55.732086" lon="8.221785">
|
|
<ele>11.317029</ele>
|
|
<time>2026-07-12T08:37:23.000Z</time>
|
|
</trkpt>
|
|
<trkpt lat="55.732121" lon="8.221791">
|
|
<ele>11.355771</ele>
|
|
<time>2026-07-12T08:37:24.000Z</time>
|
|
</trkpt>
|
|
<trkpt lat="55.732151" lon="8.221798">
|
|
<ele>11.389108</ele>
|
|
<time>2026-07-12T08:37:25.000Z</time>
|
|
</trkpt>
|
|
<trkpt lat="55.732185" lon="8.221803">
|
|
<ele>11.426697</ele>
|
|
<time>2026-07-12T08:37:26.000Z</time>
|
|
</trkpt>
|
|
<trkpt lat="55.732231" lon="8.221809">
|
|
<ele>11.477516</ele>
|
|
<time>2026-07-12T08:37:27.000Z</time>
|
|
</trkpt>
|
|
<trkpt lat="55.732281" lon="8.221822">
|
|
<ele>11.533193</ele>
|
|
<time>2026-07-12T08:37:28.000Z</time>
|
|
</trkpt>
|
|
<trkpt lat="55.732330" lon="8.221831">
|
|
<ele>11.587468</ele>
|
|
<time>2026-07-12T08:37:29.000Z</time>
|
|
</trkpt>
|
|
<trkpt lat="55.732380" lon="8.221839">
|
|
<ele>11.642781</ele>
|
|
<time>2026-07-12T08:37:30.000Z</time>
|
|
</trkpt>
|
|
<trkpt lat="55.732422" lon="8.221848">
|
|
<ele>11.689391</ele>
|
|
<time>2026-07-12T08:37:31.000Z</time>
|
|
</trkpt>
|
|
<trkpt lat="55.732468" lon="8.221858">
|
|
<ele>11.740452</ele>
|
|
<time>2026-07-12T08:37:32.000Z</time>
|
|
</trkpt>
|
|
<trkpt lat="55.732510" lon="8.221871">
|
|
<ele>11.787424</ele>
|
|
<time>2026-07-12T08:37:33.000Z</time>
|
|
</trkpt>
|
|
<trkpt lat="55.732555" lon="8.221887">
|
|
<ele>11.837988</ele>
|
|
<time>2026-07-12T08:37:34.000Z</time>
|
|
</trkpt>
|
|
<trkpt lat="55.732601" lon="8.221903">
|
|
<ele>11.889633</ele>
|
|
<time>2026-07-12T08:37:35.000Z</time>
|
|
</trkpt>
|
|
<trkpt lat="55.732655" lon="8.221917">
|
|
<ele>11.949761</ele>
|
|
<time>2026-07-12T08:37:36.000Z</time>
|
|
</trkpt>
|
|
<trkpt lat="55.732708" lon="8.221932">
|
|
<ele>12.008892</ele>
|
|
<time>2026-07-12T08:37:37.000Z</time>
|
|
</trkpt>
|
|
<trkpt lat="55.732769" lon="8.221949">
|
|
<ele>12.076923</ele>
|
|
<time>2026-07-12T08:37:38.000Z</time>
|
|
</trkpt>
|
|
<trkpt lat="55.732822" lon="8.221963">
|
|
<ele>12.135961</ele>
|
|
<time>2026-07-12T08:37:39.000Z</time>
|
|
</trkpt>
|
|
<trkpt lat="55.732876" lon="8.221974">
|
|
<ele>12.195847</ele>
|
|
<time>2026-07-12T08:37:40.000Z</time>
|
|
</trkpt>
|
|
<trkpt lat="55.732925" lon="8.221983">
|
|
<ele>12.250123</ele>
|
|
<time>2026-07-12T08:37:41.000Z</time>
|
|
</trkpt>
|
|
<trkpt lat="55.732975" lon="8.221992">
|
|
<ele>12.305494</ele>
|
|
<time>2026-07-12T08:37:42.000Z</time>
|
|
</trkpt>
|
|
<trkpt lat="55.733028" lon="8.222000">
|
|
<ele>12.364099</ele>
|
|
<time>2026-07-12T08:37:43.000Z</time>
|
|
</trkpt>
|
|
<trkpt lat="55.733078" lon="8.222007">
|
|
<ele>12.419360</ele>
|
|
<time>2026-07-12T08:37:44.000Z</time>
|
|
</trkpt>
|
|
<trkpt lat="55.733124" lon="8.222014">
|
|
<ele>12.470228</ele>
|
|
<time>2026-07-12T08:37:45.000Z</time>
|
|
</trkpt>
|
|
<trkpt lat="55.733173" lon="8.222022">
|
|
<ele>12.524443</ele>
|
|
<time>2026-07-12T08:37:46.000Z</time>
|
|
</trkpt>
|
|
<trkpt lat="55.733223" lon="8.222035">
|
|
<ele>12.580119</ele>
|
|
<time>2026-07-12T08:37:47.000Z</time>
|
|
</trkpt>
|
|
<trkpt lat="55.733273" lon="8.222053">
|
|
<ele>12.636329</ele>
|
|
<time>2026-07-12T08:37:48.000Z</time>
|
|
</trkpt>
|
|
<trkpt lat="55.733322" lon="8.222069">
|
|
<ele>12.691221</ele>
|
|
<time>2026-07-12T08:37:49.000Z</time>
|
|
</trkpt>
|
|
<trkpt lat="55.733372" lon="8.222085">
|
|
<ele>12.747198</ele>
|
|
<time>2026-07-12T08:37:50.000Z</time>
|
|
</trkpt>
|
|
<trkpt lat="55.733425" lon="8.222104">
|
|
<ele>12.806770</ele>
|
|
<time>2026-07-12T08:37:51.000Z</time>
|
|
</trkpt>
|
|
<trkpt lat="55.733475" lon="8.222119">
|
|
<ele>12.862640</ele>
|
|
<time>2026-07-12T08:37:52.000Z</time>
|
|
</trkpt>
|
|
<trkpt lat="55.733524" lon="8.222133">
|
|
<ele>12.917322</ele>
|
|
<time>2026-07-12T08:37:53.000Z</time>
|
|
</trkpt>
|
|
<trkpt lat="55.733578" lon="8.222147">
|
|
<ele>12.977449</ele>
|
|
<time>2026-07-12T08:37:54.000Z</time>
|
|
</trkpt>
|
|
<trkpt lat="55.733631" lon="8.222164">
|
|
<ele>13.036788</ele>
|
|
<time>2026-07-12T08:37:55.000Z</time>
|
|
</trkpt>
|
|
<trkpt lat="55.733681" lon="8.222180">
|
|
<ele>13.092764</ele>
|
|
<time>2026-07-12T08:37:56.000Z</time>
|
|
</trkpt>
|
|
<trkpt lat="55.733734" lon="8.222194">
|
|
<ele>13.122469</ele>
|
|
<time>2026-07-12T08:37:57.000Z</time>
|
|
</trkpt>
|
|
<trkpt lat="55.733784" lon="8.222205">
|
|
<ele>13.138435</ele>
|
|
<time>2026-07-12T08:37:58.000Z</time>
|
|
</trkpt>
|
|
<trkpt lat="55.733833" lon="8.222213">
|
|
<ele>13.154029</ele>
|
|
<time>2026-07-12T08:37:59.000Z</time>
|
|
</trkpt>
|
|
<trkpt lat="55.733879" lon="8.222218">
|
|
<ele>13.168634</ele>
|
|
<time>2026-07-12T08:38:00.000Z</time>
|
|
</trkpt>
|
|
<trkpt lat="55.733925" lon="8.222226">
|
|
<ele>13.183281</ele>
|
|
<time>2026-07-12T08:38:01.000Z</time>
|
|
</trkpt>
|
|
<trkpt lat="55.733974" lon="8.222239">
|
|
<ele>13.198982</ele>
|
|
<time>2026-07-12T08:38:02.000Z</time>
|
|
</trkpt>
|
|
<trkpt lat="55.734024" lon="8.222258">
|
|
<ele>13.215185</ele>
|
|
<time>2026-07-12T08:38:03.000Z</time>
|
|
</trkpt>
|
|
<trkpt lat="55.734074" lon="8.222276">
|
|
<ele>13.231353</ele>
|
|
<time>2026-07-12T08:38:04.000Z</time>
|
|
</trkpt>
|
|
<trkpt lat="55.734116" lon="8.222290">
|
|
<ele>13.244895</ele>
|
|
<time>2026-07-12T08:38:05.000Z</time>
|
|
</trkpt>
|
|
<trkpt lat="55.734169" lon="8.222304">
|
|
<ele>13.261876</ele>
|
|
<time>2026-07-12T08:38:06.000Z</time>
|
|
</trkpt>
|
|
<trkpt lat="55.734222" lon="8.222317">
|
|
<ele>13.278831</ele>
|
|
<time>2026-07-12T08:38:07.000Z</time>
|
|
</trkpt>
|
|
<trkpt lat="55.734272" lon="8.222328">
|
|
<ele>13.294797</ele>
|
|
<time>2026-07-12T08:38:08.000Z</time>
|
|
</trkpt>
|
|
<trkpt lat="55.734325" lon="8.222342">
|
|
<ele>13.311778</ele>
|
|
<time>2026-07-12T08:38:09.000Z</time>
|
|
</trkpt>
|
|
<trkpt lat="55.734375" lon="8.222355">
|
|
<ele>13.327792</ele>
|
|
<time>2026-07-12T08:38:10.000Z</time>
|
|
</trkpt>
|
|
<trkpt lat="55.734428" lon="8.222367">
|
|
<ele>13.344723</ele>
|
|
<time>2026-07-12T08:38:11.000Z</time>
|
|
</trkpt>
|
|
<trkpt lat="55.734482" lon="8.222380">
|
|
<ele>13.361993</ele>
|
|
<time>2026-07-12T08:38:12.000Z</time>
|
|
</trkpt>
|
|
<trkpt lat="55.734535" lon="8.222390">
|
|
<ele>13.378883</ele>
|
|
<time>2026-07-12T08:38:13.000Z</time>
|
|
</trkpt>
|
|
<trkpt lat="55.734589" lon="8.222400">
|
|
<ele>13.396089</ele>
|
|
<time>2026-07-12T08:38:14.000Z</time>
|
|
</trkpt>
|
|
<trkpt lat="55.734642" lon="8.222410">
|
|
<ele>13.412979</ele>
|
|
<time>2026-07-12T08:38:15.000Z</time>
|
|
</trkpt>
|
|
<trkpt lat="55.734692" lon="8.222419">
|
|
<ele>13.428905</ele>
|
|
<time>2026-07-12T08:38:16.000Z</time>
|
|
</trkpt>
|
|
<trkpt lat="55.734741" lon="8.222427">
|
|
<ele>13.444499</ele>
|
|
<time>2026-07-12T08:38:17.000Z</time>
|
|
</trkpt>
|
|
<trkpt lat="55.734791" lon="8.222433">
|
|
<ele>13.460380</ele>
|
|
<time>2026-07-12T08:38:18.000Z</time>
|
|
</trkpt>
|
|
<trkpt lat="55.734837" lon="8.222441">
|
|
<ele>13.475027</ele>
|
|
<time>2026-07-12T08:38:19.000Z</time>
|
|
</trkpt>
|
|
<trkpt lat="55.734886" lon="8.222447">
|
|
<ele>13.490592</ele>
|
|
<time>2026-07-12T08:38:20.000Z</time>
|
|
</trkpt>
|
|
<trkpt lat="55.734932" lon="8.222455">
|
|
<ele>13.505240</ele>
|
|
<time>2026-07-12T08:38:21.000Z</time>
|
|
</trkpt>
|
|
<trkpt lat="55.734982" lon="8.222466">
|
|
<ele>13.521206</ele>
|
|
<time>2026-07-12T08:38:22.000Z</time>
|
|
</trkpt>
|
|
<trkpt lat="55.735035" lon="8.222477">
|
|
<ele>13.538116</ele>
|
|
<time>2026-07-12T08:38:23.000Z</time>
|
|
</trkpt>
|
|
<trkpt lat="55.735088" lon="8.222489">
|
|
<ele>13.555048</ele>
|
|
<time>2026-07-12T08:38:24.000Z</time>
|
|
</trkpt>
|
|
<trkpt lat="55.735146" lon="8.222500">
|
|
<ele>13.573533</ele>
|
|
<time>2026-07-12T08:38:25.000Z</time>
|
|
</trkpt>
|
|
<trkpt lat="55.735199" lon="8.222509">
|
|
<ele>13.590405</ele>
|
|
<time>2026-07-12T08:38:26.000Z</time>
|
|
</trkpt>
|
|
<trkpt lat="55.735252" lon="8.222520">
|
|
<ele>13.607315</ele>
|
|
<time>2026-07-12T08:38:27.000Z</time>
|
|
</trkpt>
|
|
<trkpt lat="55.735310" lon="8.222531">
|
|
<ele>13.625800</ele>
|
|
<time>2026-07-12T08:38:28.000Z</time>
|
|
</trkpt>
|
|
<trkpt lat="55.735363" lon="8.222546">
|
|
<ele>13.642808</ele>
|
|
<time>2026-07-12T08:38:29.000Z</time>
|
|
</trkpt>
|
|
<trkpt lat="55.735413" lon="8.222559">
|
|
<ele>13.658822</ele>
|
|
<time>2026-07-12T08:38:30.000Z</time>
|
|
</trkpt>
|
|
<trkpt lat="55.735470" lon="8.222570">
|
|
<ele>13.676991</ele>
|
|
<time>2026-07-12T08:38:31.000Z</time>
|
|
</trkpt>
|
|
<trkpt lat="55.735523" lon="8.222579">
|
|
<ele>13.686535</ele>
|
|
<time>2026-07-12T08:38:32.000Z</time>
|
|
</trkpt>
|
|
<trkpt lat="55.735577" lon="8.222588">
|
|
<ele>13.694211</ele>
|
|
<time>2026-07-12T08:38:33.000Z</time>
|
|
</trkpt>
|
|
<trkpt lat="55.735630" lon="8.222593">
|
|
<ele>13.701723</ele>
|
|
<time>2026-07-12T08:38:34.000Z</time>
|
|
</trkpt>
|
|
<trkpt lat="55.735680" lon="8.222597">
|
|
<ele>13.708806</ele>
|
|
<time>2026-07-12T08:38:35.000Z</time>
|
|
</trkpt>
|
|
<trkpt lat="55.735729" lon="8.222602">
|
|
<ele>13.715752</ele>
|
|
<time>2026-07-12T08:38:36.000Z</time>
|
|
</trkpt>
|
|
<trkpt lat="55.735775" lon="8.222606">
|
|
<ele>13.722270</ele>
|
|
<time>2026-07-12T08:38:37.000Z</time>
|
|
</trkpt>
|
|
<trkpt lat="55.735821" lon="8.222612">
|
|
<ele>13.728798</ele>
|
|
<time>2026-07-12T08:38:38.000Z</time>
|
|
</trkpt>
|
|
<trkpt lat="55.735867" lon="8.222622">
|
|
<ele>13.735357</ele>
|
|
<time>2026-07-12T08:38:39.000Z</time>
|
|
</trkpt>
|
|
<trkpt lat="55.735916" lon="8.222632">
|
|
<ele>13.742337</ele>
|
|
<time>2026-07-12T08:38:40.000Z</time>
|
|
</trkpt>
|
|
<trkpt lat="55.735962" lon="8.222639">
|
|
<ele>13.748871</ele>
|
|
<time>2026-07-12T08:38:41.000Z</time>
|
|
</trkpt>
|
|
<trkpt lat="55.736011" lon="8.222647">
|
|
<ele>13.755835</ele>
|
|
<time>2026-07-12T08:38:42.000Z</time>
|
|
</trkpt>
|
|
<trkpt lat="55.736061" lon="8.222655">
|
|
<ele>13.762940</ele>
|
|
<time>2026-07-12T08:38:43.000Z</time>
|
|
</trkpt>
|
|
<trkpt lat="55.736114" lon="8.222664">
|
|
<ele>13.770475</ele>
|
|
<time>2026-07-12T08:38:44.000Z</time>
|
|
</trkpt>
|
|
<trkpt lat="55.736168" lon="8.222672">
|
|
<ele>13.778144</ele>
|
|
<time>2026-07-12T08:38:45.000Z</time>
|
|
</trkpt>
|
|
<trkpt lat="55.736217" lon="8.222682">
|
|
<ele>13.785125</ele>
|
|
<time>2026-07-12T08:38:46.000Z</time>
|
|
</trkpt>
|
|
<trkpt lat="55.736271" lon="8.222693">
|
|
<ele>13.792817</ele>
|
|
<time>2026-07-12T08:38:47.000Z</time>
|
|
</trkpt>
|
|
<trkpt lat="55.736324" lon="8.222702">
|
|
<ele>13.800352</ele>
|
|
<time>2026-07-12T08:38:48.000Z</time>
|
|
</trkpt>
|
|
<trkpt lat="55.736378" lon="8.222711">
|
|
<ele>13.808028</ele>
|
|
<time>2026-07-12T08:38:49.000Z</time>
|
|
</trkpt>
|
|
<trkpt lat="55.736431" lon="8.222718">
|
|
<ele>13.815550</ele>
|
|
<time>2026-07-12T08:38:50.000Z</time>
|
|
</trkpt>
|
|
<trkpt lat="55.736485" lon="8.222725">
|
|
<ele>13.823213</ele>
|
|
<time>2026-07-12T08:38:51.000Z</time>
|
|
</trkpt>
|
|
<trkpt lat="55.736534" lon="8.222732">
|
|
<ele>13.830170</ele>
|
|
<time>2026-07-12T08:38:52.000Z</time>
|
|
</trkpt>
|
|
<trkpt lat="55.736584" lon="8.222739">
|
|
<ele>13.837268</ele>
|
|
<time>2026-07-12T08:38:53.000Z</time>
|
|
</trkpt>
|
|
<trkpt lat="55.736637" lon="8.222748">
|
|
<ele>13.844803</ele>
|
|
<time>2026-07-12T08:38:54.000Z</time>
|
|
</trkpt>
|
|
<trkpt lat="55.736687" lon="8.222759">
|
|
<ele>13.851934</ele>
|
|
<time>2026-07-12T08:38:55.000Z</time>
|
|
</trkpt>
|
|
<trkpt lat="55.736736" lon="8.222770">
|
|
<ele>13.858923</ele>
|
|
<time>2026-07-12T08:38:56.000Z</time>
|
|
</trkpt>
|
|
<trkpt lat="55.736790" lon="8.222779">
|
|
<ele>13.866599</ele>
|
|
<time>2026-07-12T08:38:57.000Z</time>
|
|
</trkpt>
|
|
<trkpt lat="55.736839" lon="8.222788">
|
|
<ele>13.873571</ele>
|
|
<time>2026-07-12T08:38:58.000Z</time>
|
|
</trkpt>
|
|
<trkpt lat="55.736889" lon="8.222797">
|
|
<ele>13.880684</ele>
|
|
<time>2026-07-12T08:38:59.000Z</time>
|
|
</trkpt>
|
|
<trkpt lat="55.736942" lon="8.222807">
|
|
<ele>13.888227</ele>
|
|
<time>2026-07-12T08:39:00.000Z</time>
|
|
</trkpt>
|
|
<trkpt lat="55.736992" lon="8.222819">
|
|
<ele>13.895368</ele>
|
|
<time>2026-07-12T08:39:01.000Z</time>
|
|
</trkpt>
|
|
<trkpt lat="55.737034" lon="8.222829">
|
|
<ele>13.901365</ele>
|
|
<time>2026-07-12T08:39:02.000Z</time>
|
|
</trkpt>
|
|
<trkpt lat="55.737083" lon="8.222840">
|
|
<ele>13.908355</ele>
|
|
<time>2026-07-12T08:39:03.000Z</time>
|
|
</trkpt>
|
|
<trkpt lat="55.737137" lon="8.222854">
|
|
<ele>13.916078</ele>
|
|
<time>2026-07-12T08:39:04.000Z</time>
|
|
</trkpt>
|
|
<trkpt lat="55.737186" lon="8.222868">
|
|
<ele>13.923102</ele>
|
|
<time>2026-07-12T08:39:05.000Z</time>
|
|
</trkpt>
|
|
<trkpt lat="55.737240" lon="8.222885">
|
|
<ele>13.930864</ele>
|
|
<time>2026-07-12T08:39:06.000Z</time>
|
|
</trkpt>
|
|
<trkpt lat="55.737289" lon="8.222900">
|
|
<ele>13.948239</ele>
|
|
<time>2026-07-12T08:39:07.000Z</time>
|
|
</trkpt>
|
|
<trkpt lat="55.737335" lon="8.222918">
|
|
<ele>13.980202</ele>
|
|
<time>2026-07-12T08:39:08.000Z</time>
|
|
</trkpt>
|
|
<trkpt lat="55.737381" lon="8.222936">
|
|
<ele>14.012165</ele>
|
|
<time>2026-07-12T08:39:09.000Z</time>
|
|
</trkpt>
|
|
<trkpt lat="55.737423" lon="8.222955">
|
|
<ele>14.041574</ele>
|
|
<time>2026-07-12T08:39:10.000Z</time>
|
|
</trkpt>
|
|
<trkpt lat="55.737469" lon="8.222977">
|
|
<ele>14.073900</ele>
|
|
<time>2026-07-12T08:39:11.000Z</time>
|
|
</trkpt>
|
|
<trkpt lat="55.737515" lon="8.222998">
|
|
<ele>14.106129</ele>
|
|
<time>2026-07-12T08:39:12.000Z</time>
|
|
</trkpt>
|
|
<trkpt lat="55.737560" lon="8.223017">
|
|
<ele>14.137516</ele>
|
|
<time>2026-07-12T08:39:13.000Z</time>
|
|
</trkpt>
|
|
<trkpt lat="55.737606" lon="8.223042">
|
|
<ele>14.170158</ele>
|
|
<time>2026-07-12T08:39:14.000Z</time>
|
|
</trkpt>
|
|
<trkpt lat="55.737656" lon="8.223071">
|
|
<ele>14.205850</ele>
|
|
<time>2026-07-12T08:39:15.000Z</time>
|
|
</trkpt>
|
|
<trkpt lat="55.737701" lon="8.223102">
|
|
<ele>14.238602</ele>
|
|
<time>2026-07-12T08:39:16.000Z</time>
|
|
</trkpt>
|
|
<trkpt lat="55.737751" lon="8.223132">
|
|
<ele>14.274414</ele>
|
|
<time>2026-07-12T08:39:17.000Z</time>
|
|
</trkpt>
|
|
<trkpt lat="55.737797" lon="8.223160">
|
|
<ele>14.307410</ele>
|
|
<time>2026-07-12T08:39:18.000Z</time>
|
|
</trkpt>
|
|
<trkpt lat="55.737843" lon="8.223189">
|
|
<ele>14.340532</ele>
|
|
<time>2026-07-12T08:39:19.000Z</time>
|
|
</trkpt>
|
|
<trkpt lat="55.737888" lon="8.223221">
|
|
<ele>14.373424</ele>
|
|
<time>2026-07-12T08:39:20.000Z</time>
|
|
</trkpt>
|
|
<trkpt lat="55.737938" lon="8.223256">
|
|
<ele>14.409892</ele>
|
|
<time>2026-07-12T08:39:21.000Z</time>
|
|
</trkpt>
|
|
<trkpt lat="55.737984" lon="8.223292">
|
|
<ele>14.444001</ele>
|
|
<time>2026-07-12T08:39:22.000Z</time>
|
|
</trkpt>
|
|
<trkpt lat="55.738022" lon="8.223331">
|
|
<ele>14.473782</ele>
|
|
<time>2026-07-12T08:39:23.000Z</time>
|
|
</trkpt>
|
|
<trkpt lat="55.738071" lon="8.223386">
|
|
<ele>14.513114</ele>
|
|
<time>2026-07-12T08:39:24.000Z</time>
|
|
</trkpt>
|
|
<trkpt lat="55.738106" lon="8.223439">
|
|
<ele>14.544323</ele>
|
|
<time>2026-07-12T08:39:25.000Z</time>
|
|
</trkpt>
|
|
<trkpt lat="55.738144" lon="8.223486">
|
|
<ele>14.575744</ele>
|
|
<time>2026-07-12T08:39:26.000Z</time>
|
|
</trkpt>
|
|
<trkpt lat="55.738182" lon="8.223522">
|
|
<ele>14.604968</ele>
|
|
<time>2026-07-12T08:39:27.000Z</time>
|
|
</trkpt>
|
|
<trkpt lat="55.738220" lon="8.223543">
|
|
<ele>14.631973</ele>
|
|
<time>2026-07-12T08:39:28.000Z</time>
|
|
</trkpt>
|
|
<trkpt lat="55.738255" lon="8.223553">
|
|
<ele>14.656028</ele>
|
|
<time>2026-07-12T08:39:29.000Z</time>
|
|
</trkpt>
|
|
<trkpt lat="55.738293" lon="8.223561">
|
|
<ele>14.681994</ele>
|
|
<time>2026-07-12T08:39:30.000Z</time>
|
|
</trkpt>
|
|
<trkpt lat="55.738335" lon="8.223572">
|
|
<ele>14.710802</ele>
|
|
<time>2026-07-12T08:39:31.000Z</time>
|
|
</trkpt>
|
|
<trkpt lat="55.738380" lon="8.223580">
|
|
<ele>14.741491</ele>
|
|
<time>2026-07-12T08:39:32.000Z</time>
|
|
</trkpt>
|
|
<trkpt lat="55.738422" lon="8.223588">
|
|
<ele>14.770154</ele>
|
|
<time>2026-07-12T08:39:33.000Z</time>
|
|
</trkpt>
|
|
<trkpt lat="55.738468" lon="8.223596">
|
|
<ele>14.801517</ele>
|
|
<time>2026-07-12T08:39:34.000Z</time>
|
|
</trkpt>
|
|
<trkpt lat="55.738510" lon="8.223605">
|
|
<ele>14.830224</ele>
|
|
<time>2026-07-12T08:39:35.000Z</time>
|
|
</trkpt>
|
|
<trkpt lat="55.738560" lon="8.223618">
|
|
<ele>14.864514</ele>
|
|
<time>2026-07-12T08:39:36.000Z</time>
|
|
</trkpt>
|
|
<trkpt lat="55.738606" lon="8.223628">
|
|
<ele>14.895961</ele>
|
|
<time>2026-07-12T08:39:37.000Z</time>
|
|
</trkpt>
|
|
<trkpt lat="55.738647" lon="8.223640">
|
|
<ele>14.924158</ele>
|
|
<time>2026-07-12T08:39:38.000Z</time>
|
|
</trkpt>
|
|
<trkpt lat="55.738693" lon="8.223657">
|
|
<ele>14.956041</ele>
|
|
<time>2026-07-12T08:39:39.000Z</time>
|
|
</trkpt>
|
|
<trkpt lat="55.738739" lon="8.223672">
|
|
<ele>14.987776</ele>
|
|
<time>2026-07-12T08:39:40.000Z</time>
|
|
</trkpt>
|
|
<trkpt lat="55.738781" lon="8.223684">
|
|
<ele>15.016643</ele>
|
|
<time>2026-07-12T08:39:41.000Z</time>
|
|
</trkpt>
|
|
<trkpt lat="55.738819" lon="8.223694">
|
|
<ele>15.042710</ele>
|
|
<time>2026-07-12T08:39:42.000Z</time>
|
|
</trkpt>
|
|
<trkpt lat="55.738861" lon="8.223700">
|
|
<ele>15.071302</ele>
|
|
<time>2026-07-12T08:39:43.000Z</time>
|
|
</trkpt>
|
|
<trkpt lat="55.738903" lon="8.223701">
|
|
<ele>15.099804</ele>
|
|
<time>2026-07-12T08:39:44.000Z</time>
|
|
</trkpt>
|
|
<trkpt lat="55.738937" lon="8.223696">
|
|
<ele>15.122955</ele>
|
|
<time>2026-07-12T08:39:45.000Z</time>
|
|
</trkpt>
|
|
<trkpt lat="55.738968" lon="8.223688">
|
|
<ele>15.144211</ele>
|
|
<time>2026-07-12T08:39:46.000Z</time>
|
|
</trkpt>
|
|
<trkpt lat="55.738998" lon="8.223680">
|
|
<ele>15.157394</ele>
|
|
<time>2026-07-12T08:39:47.000Z</time>
|
|
</trkpt>
|
|
<trkpt lat="55.739029" lon="8.223669">
|
|
<ele>15.161421</ele>
|
|
<time>2026-07-12T08:39:48.000Z</time>
|
|
</trkpt>
|
|
<trkpt lat="55.739052" lon="8.223660">
|
|
<ele>15.164420</ele>
|
|
<time>2026-07-12T08:39:49.000Z</time>
|
|
</trkpt>
|
|
<trkpt lat="55.739078" lon="8.223649">
|
|
<ele>15.167825</ele>
|
|
<time>2026-07-12T08:39:50.000Z</time>
|
|
</trkpt>
|
|
<trkpt lat="55.739109" lon="8.223635">
|
|
<ele>15.171899</ele>
|
|
<time>2026-07-12T08:39:51.000Z</time>
|
|
</trkpt>
|
|
<trkpt lat="55.739140" lon="8.223618">
|
|
<ele>15.176032</ele>
|
|
<time>2026-07-12T08:39:52.000Z</time>
|
|
</trkpt>
|
|
<trkpt lat="55.739170" lon="8.223593">
|
|
<ele>15.180253</ele>
|
|
<time>2026-07-12T08:39:53.000Z</time>
|
|
</trkpt>
|
|
<trkpt lat="55.739204" lon="8.223573">
|
|
<ele>15.184815</ele>
|
|
<time>2026-07-12T08:39:54.000Z</time>
|
|
</trkpt>
|
|
<trkpt lat="55.739239" lon="8.223552">
|
|
<ele>15.189521</ele>
|
|
<time>2026-07-12T08:39:55.000Z</time>
|
|
</trkpt>
|
|
<trkpt lat="55.739269" lon="8.223527">
|
|
<ele>15.193742</ele>
|
|
<time>2026-07-12T08:39:56.000Z</time>
|
|
</trkpt>
|
|
<trkpt lat="55.739304" lon="8.223498">
|
|
<ele>15.198662</ele>
|
|
<time>2026-07-12T08:39:57.000Z</time>
|
|
</trkpt>
|
|
<trkpt lat="55.739334" lon="8.223472">
|
|
<ele>15.202914</ele>
|
|
<time>2026-07-12T08:39:58.000Z</time>
|
|
</trkpt>
|
|
<trkpt lat="55.739361" lon="8.223448">
|
|
<ele>15.206759</ele>
|
|
<time>2026-07-12T08:39:59.000Z</time>
|
|
</trkpt>
|
|
<trkpt lat="55.739384" lon="8.223428">
|
|
<ele>15.210021</ele>
|
|
<time>2026-07-12T08:40:00.000Z</time>
|
|
</trkpt>
|
|
<trkpt lat="55.739403" lon="8.223409">
|
|
<ele>15.212799</ele>
|
|
<time>2026-07-12T08:40:01.000Z</time>
|
|
</trkpt>
|
|
<trkpt lat="55.739429" lon="8.223386">
|
|
<ele>15.216499</ele>
|
|
<time>2026-07-12T08:40:02.000Z</time>
|
|
</trkpt>
|
|
<trkpt lat="55.739460" lon="8.223360">
|
|
<ele>15.220865</ele>
|
|
<time>2026-07-12T08:40:03.000Z</time>
|
|
</trkpt>
|
|
<trkpt lat="55.739491" lon="8.223335">
|
|
<ele>15.225202</ele>
|
|
<time>2026-07-12T08:40:04.000Z</time>
|
|
</trkpt>
|
|
<trkpt lat="55.739525" lon="8.223311">
|
|
<ele>15.229862</ele>
|
|
<time>2026-07-12T08:40:05.000Z</time>
|
|
</trkpt>
|
|
<trkpt lat="55.739559" lon="8.223289">
|
|
<ele>15.234472</ele>
|
|
<time>2026-07-12T08:40:06.000Z</time>
|
|
</trkpt>
|
|
<trkpt lat="55.739601" lon="8.223270">
|
|
<ele>15.239992</ele>
|
|
<time>2026-07-12T08:40:07.000Z</time>
|
|
</trkpt>
|
|
<trkpt lat="55.739651" lon="8.223260">
|
|
<ele>15.246402</ele>
|
|
<time>2026-07-12T08:40:08.000Z</time>
|
|
</trkpt>
|
|
<trkpt lat="55.739696" lon="8.223247">
|
|
<ele>15.252209</ele>
|
|
<time>2026-07-12T08:40:09.000Z</time>
|
|
</trkpt>
|
|
<trkpt lat="55.739754" lon="8.223236">
|
|
<ele>15.259639</ele>
|
|
<time>2026-07-12T08:40:10.000Z</time>
|
|
</trkpt>
|
|
<trkpt lat="55.739822" lon="8.223231">
|
|
<ele>15.268308</ele>
|
|
<time>2026-07-12T08:40:11.000Z</time>
|
|
</trkpt>
|
|
<trkpt lat="55.739891" lon="8.223226">
|
|
<ele>15.277105</ele>
|
|
<time>2026-07-12T08:40:12.000Z</time>
|
|
</trkpt>
|
|
<trkpt lat="55.739952" lon="8.223208">
|
|
<ele>15.284981</ele>
|
|
<time>2026-07-12T08:40:13.000Z</time>
|
|
</trkpt>
|
|
<trkpt lat="55.740002" lon="8.223189">
|
|
<ele>15.291495</ele>
|
|
<time>2026-07-12T08:40:14.000Z</time>
|
|
</trkpt>
|
|
<trkpt lat="55.740059" lon="8.223179">
|
|
<ele>15.298791</ele>
|
|
<time>2026-07-12T08:40:15.000Z</time>
|
|
</trkpt>
|
|
<trkpt lat="55.740124" lon="8.223171">
|
|
<ele>15.307090</ele>
|
|
<time>2026-07-12T08:40:16.000Z</time>
|
|
</trkpt>
|
|
<trkpt lat="55.740185" lon="8.223165">
|
|
<ele>15.314872</ele>
|
|
<time>2026-07-12T08:40:17.000Z</time>
|
|
</trkpt>
|
|
<trkpt lat="55.740250" lon="8.223157">
|
|
<ele>15.323172</ele>
|
|
<time>2026-07-12T08:40:18.000Z</time>
|
|
</trkpt>
|
|
<trkpt lat="55.740311" lon="8.223144">
|
|
<ele>15.330998</ele>
|
|
<time>2026-07-12T08:40:19.000Z</time>
|
|
</trkpt>
|
|
<trkpt lat="55.740379" lon="8.223134">
|
|
<ele>15.339689</ele>
|
|
<time>2026-07-12T08:40:20.000Z</time>
|
|
</trkpt>
|
|
<trkpt lat="55.740448" lon="8.223125">
|
|
<ele>15.348502</ele>
|
|
<time>2026-07-12T08:40:21.000Z</time>
|
|
</trkpt>
|
|
<trkpt lat="55.740509" lon="8.223107">
|
|
<ele>15.356379</ele>
|
|
<time>2026-07-12T08:40:22.000Z</time>
|
|
</trkpt>
|
|
<trkpt lat="55.740566" lon="8.223088">
|
|
<ele>15.363766</ele>
|
|
<time>2026-07-12T08:40:23.000Z</time>
|
|
</trkpt>
|
|
<trkpt lat="55.740623" lon="8.223071">
|
|
<ele>15.371128</ele>
|
|
<time>2026-07-12T08:40:24.000Z</time>
|
|
</trkpt>
|
|
<trkpt lat="55.740677" lon="8.223051">
|
|
<ele>15.378155</ele>
|
|
<time>2026-07-12T08:40:25.000Z</time>
|
|
</trkpt>
|
|
<trkpt lat="55.740730" lon="8.223029">
|
|
<ele>15.384740</ele>
|
|
<time>2026-07-12T08:40:26.000Z</time>
|
|
</trkpt>
|
|
<trkpt lat="55.740776" lon="8.223006">
|
|
<ele>15.383616</ele>
|
|
<time>2026-07-12T08:40:27.000Z</time>
|
|
</trkpt>
|
|
<trkpt lat="55.740822" lon="8.222983">
|
|
<ele>15.382493</ele>
|
|
<time>2026-07-12T08:40:28.000Z</time>
|
|
</trkpt>
|
|
<trkpt lat="55.740879" lon="8.222960">
|
|
<ele>15.381118</ele>
|
|
<time>2026-07-12T08:40:29.000Z</time>
|
|
</trkpt>
|
|
<trkpt lat="55.740936" lon="8.222935">
|
|
<ele>15.379738</ele>
|
|
<time>2026-07-12T08:40:30.000Z</time>
|
|
</trkpt>
|
|
<trkpt lat="55.740990" lon="8.222908">
|
|
<ele>15.378419</ele>
|
|
<time>2026-07-12T08:40:31.000Z</time>
|
|
</trkpt>
|
|
<trkpt lat="55.741039" lon="8.222881">
|
|
<ele>15.377212</ele>
|
|
<time>2026-07-12T08:40:32.000Z</time>
|
|
</trkpt>
|
|
<trkpt lat="55.741093" lon="8.222849">
|
|
<ele>15.375874</ele>
|
|
<time>2026-07-12T08:40:33.000Z</time>
|
|
</trkpt>
|
|
<trkpt lat="55.741146" lon="8.222815">
|
|
<ele>15.374549</ele>
|
|
<time>2026-07-12T08:40:34.000Z</time>
|
|
</trkpt>
|
|
<trkpt lat="55.741196" lon="8.222785">
|
|
<ele>15.373308</ele>
|
|
<time>2026-07-12T08:40:35.000Z</time>
|
|
</trkpt>
|
|
<trkpt lat="55.741249" lon="8.222752">
|
|
<ele>15.371987</ele>
|
|
<time>2026-07-12T08:40:36.000Z</time>
|
|
</trkpt>
|
|
<trkpt lat="55.741299" lon="8.222718">
|
|
<ele>15.370729</ele>
|
|
<time>2026-07-12T08:40:37.000Z</time>
|
|
</trkpt>
|
|
<trkpt lat="55.741344" lon="8.222688">
|
|
<ele>15.369598</ele>
|
|
<time>2026-07-12T08:40:38.000Z</time>
|
|
</trkpt>
|
|
<trkpt lat="55.741394" lon="8.222657">
|
|
<ele>15.368353</ele>
|
|
<time>2026-07-12T08:40:39.000Z</time>
|
|
</trkpt>
|
|
<trkpt lat="55.741447" lon="8.222626">
|
|
<ele>15.367041</ele>
|
|
<time>2026-07-12T08:40:40.000Z</time>
|
|
</trkpt>
|
|
<trkpt lat="55.741505" lon="8.222594">
|
|
<ele>15.365613</ele>
|
|
<time>2026-07-12T08:40:41.000Z</time>
|
|
</trkpt>
|
|
<trkpt lat="55.741558" lon="8.222568">
|
|
<ele>15.364320</ele>
|
|
<time>2026-07-12T08:40:42.000Z</time>
|
|
</trkpt>
|
|
<trkpt lat="55.741612" lon="8.222544">
|
|
<ele>15.363012</ele>
|
|
<time>2026-07-12T08:40:43.000Z</time>
|
|
</trkpt>
|
|
<trkpt lat="55.741669" lon="8.222521">
|
|
<ele>15.361637</ele>
|
|
<time>2026-07-12T08:40:44.000Z</time>
|
|
</trkpt>
|
|
<trkpt lat="55.741726" lon="8.222498">
|
|
<ele>15.360263</ele>
|
|
<time>2026-07-12T08:40:45.000Z</time>
|
|
</trkpt>
|
|
<trkpt lat="55.741783" lon="8.222472">
|
|
<ele>15.358879</ele>
|
|
<time>2026-07-12T08:40:46.000Z</time>
|
|
</trkpt>
|
|
<trkpt lat="55.741844" lon="8.222446">
|
|
<ele>15.357404</ele>
|
|
<time>2026-07-12T08:40:47.000Z</time>
|
|
</trkpt>
|
|
<trkpt lat="55.741901" lon="8.222420">
|
|
<ele>15.356020</ele>
|
|
<time>2026-07-12T08:40:48.000Z</time>
|
|
</trkpt>
|
|
<trkpt lat="55.741955" lon="8.222393">
|
|
<ele>15.354701</ele>
|
|
<time>2026-07-12T08:40:49.000Z</time>
|
|
</trkpt>
|
|
<trkpt lat="55.742008" lon="8.222370">
|
|
<ele>15.353418</ele>
|
|
<time>2026-07-12T08:40:50.000Z</time>
|
|
</trkpt>
|
|
<trkpt lat="55.742058" lon="8.222351">
|
|
<ele>15.352216</ele>
|
|
<time>2026-07-12T08:40:51.000Z</time>
|
|
</trkpt>
|
|
<trkpt lat="55.742107" lon="8.222330">
|
|
<ele>15.351031</ele>
|
|
<time>2026-07-12T08:40:52.000Z</time>
|
|
</trkpt>
|
|
<trkpt lat="55.742157" lon="8.222308">
|
|
<ele>15.349820</ele>
|
|
<time>2026-07-12T08:40:53.000Z</time>
|
|
</trkpt>
|
|
<trkpt lat="55.742207" lon="8.222282">
|
|
<ele>15.348595</ele>
|
|
<time>2026-07-12T08:40:54.000Z</time>
|
|
</trkpt>
|
|
<trkpt lat="55.742252" lon="8.222255">
|
|
<ele>15.347478</ele>
|
|
<time>2026-07-12T08:40:55.000Z</time>
|
|
</trkpt>
|
|
<trkpt lat="55.742294" lon="8.222228">
|
|
<ele>15.346428</ele>
|
|
<time>2026-07-12T08:40:56.000Z</time>
|
|
</trkpt>
|
|
<trkpt lat="55.742332" lon="8.222204">
|
|
<ele>15.345480</ele>
|
|
<time>2026-07-12T08:40:57.000Z</time>
|
|
</trkpt>
|
|
<trkpt lat="55.742371" lon="8.222182">
|
|
<ele>15.344517</ele>
|
|
<time>2026-07-12T08:40:58.000Z</time>
|
|
</trkpt>
|
|
<trkpt lat="55.742409" lon="8.222160">
|
|
<ele>15.343578</ele>
|
|
<time>2026-07-12T08:40:59.000Z</time>
|
|
</trkpt>
|
|
<trkpt lat="55.742447" lon="8.222138">
|
|
<ele>15.342638</ele>
|
|
<time>2026-07-12T08:41:00.000Z</time>
|
|
</trkpt>
|
|
<trkpt lat="55.742489" lon="8.222116">
|
|
<ele>15.383917</ele>
|
|
<time>2026-07-12T08:41:01.000Z</time>
|
|
</trkpt>
|
|
<trkpt lat="55.742538" lon="8.222090">
|
|
<ele>15.439614</ele>
|
|
<time>2026-07-12T08:41:02.000Z</time>
|
|
</trkpt>
|
|
<trkpt lat="55.742577" lon="8.222065">
|
|
<ele>15.484771</ele>
|
|
<time>2026-07-12T08:41:03.000Z</time>
|
|
</trkpt>
|
|
<trkpt lat="55.742619" lon="8.222041">
|
|
<ele>15.532824</ele>
|
|
<time>2026-07-12T08:41:04.000Z</time>
|
|
</trkpt>
|
|
<trkpt lat="55.742664" lon="8.222017">
|
|
<ele>15.583996</ele>
|
|
<time>2026-07-12T08:41:05.000Z</time>
|
|
</trkpt>
|
|
<trkpt lat="55.742722" lon="8.221997">
|
|
<ele>15.648345</ele>
|
|
<time>2026-07-12T08:41:06.000Z</time>
|
|
</trkpt>
|
|
<trkpt lat="55.742771" lon="8.221979">
|
|
<ele>15.702842</ele>
|
|
<time>2026-07-12T08:41:07.000Z</time>
|
|
</trkpt>
|
|
<trkpt lat="55.742825" lon="8.221955">
|
|
<ele>15.763468</ele>
|
|
<time>2026-07-12T08:41:08.000Z</time>
|
|
</trkpt>
|
|
<trkpt lat="55.742882" lon="8.221925">
|
|
<ele>15.828216</ele>
|
|
<time>2026-07-12T08:41:09.000Z</time>
|
|
</trkpt>
|
|
<trkpt lat="55.742935" lon="8.221891">
|
|
<ele>15.889589</ele>
|
|
<time>2026-07-12T08:41:10.000Z</time>
|
|
</trkpt>
|
|
<trkpt lat="55.742989" lon="8.221861">
|
|
<ele>15.951211</ele>
|
|
<time>2026-07-12T08:41:11.000Z</time>
|
|
</trkpt>
|
|
<trkpt lat="55.743034" lon="8.221832">
|
|
<ele>16.003348</ele>
|
|
<time>2026-07-12T08:41:12.000Z</time>
|
|
</trkpt>
|
|
<trkpt lat="55.743076" lon="8.221806">
|
|
<ele>16.051789</ele>
|
|
<time>2026-07-12T08:41:13.000Z</time>
|
|
</trkpt>
|
|
<trkpt lat="55.743118" lon="8.221786">
|
|
<ele>16.099148</ele>
|
|
<time>2026-07-12T08:41:14.000Z</time>
|
|
</trkpt>
|
|
<trkpt lat="55.743168" lon="8.221765">
|
|
<ele>16.155106</ele>
|
|
<time>2026-07-12T08:41:15.000Z</time>
|
|
</trkpt>
|
|
<trkpt lat="55.743214" lon="8.221745">
|
|
<ele>16.206685</ele>
|
|
<time>2026-07-12T08:41:16.000Z</time>
|
|
</trkpt>
|
|
<trkpt lat="55.743259" lon="8.221722">
|
|
<ele>16.257685</ele>
|
|
<time>2026-07-12T08:41:17.000Z</time>
|
|
</trkpt>
|
|
<trkpt lat="55.743305" lon="8.221693">
|
|
<ele>16.310846</ele>
|
|
<time>2026-07-12T08:41:18.000Z</time>
|
|
</trkpt>
|
|
<trkpt lat="55.743351" lon="8.221662">
|
|
<ele>16.364430</ele>
|
|
<time>2026-07-12T08:41:19.000Z</time>
|
|
</trkpt>
|
|
<trkpt lat="55.743393" lon="8.221629">
|
|
<ele>16.414448</ele>
|
|
<time>2026-07-12T08:41:20.000Z</time>
|
|
</trkpt>
|
|
<trkpt lat="55.743431" lon="8.221599">
|
|
<ele>16.459738</ele>
|
|
<time>2026-07-12T08:41:21.000Z</time>
|
|
</trkpt>
|
|
<trkpt lat="55.743477" lon="8.221569">
|
|
<ele>16.513108</ele>
|
|
<time>2026-07-12T08:41:22.000Z</time>
|
|
</trkpt>
|
|
<trkpt lat="55.743534" lon="8.221536">
|
|
<ele>16.578402</ele>
|
|
<time>2026-07-12T08:41:23.000Z</time>
|
|
</trkpt>
|
|
<trkpt lat="55.743580" lon="8.221506">
|
|
<ele>16.631772</ele>
|
|
<time>2026-07-12T08:41:24.000Z</time>
|
|
</trkpt>
|
|
<trkpt lat="55.743622" lon="8.221475">
|
|
<ele>16.681307</ele>
|
|
<time>2026-07-12T08:41:25.000Z</time>
|
|
</trkpt>
|
|
<trkpt lat="55.743671" lon="8.221433">
|
|
<ele>16.740562</ele>
|
|
<time>2026-07-12T08:41:26.000Z</time>
|
|
</trkpt>
|
|
<trkpt lat="55.743713" lon="8.221399">
|
|
<ele>16.790831</ele>
|
|
<time>2026-07-12T08:41:27.000Z</time>
|
|
</trkpt>
|
|
<trkpt lat="55.743751" lon="8.221371">
|
|
<ele>16.835637</ele>
|
|
<time>2026-07-12T08:41:28.000Z</time>
|
|
</trkpt>
|
|
<trkpt lat="55.743797" lon="8.221348">
|
|
<ele>16.887684</ele>
|
|
<time>2026-07-12T08:41:29.000Z</time>
|
|
</trkpt>
|
|
<trkpt lat="55.743839" lon="8.221327">
|
|
<ele>16.935205</ele>
|
|
<time>2026-07-12T08:41:30.000Z</time>
|
|
</trkpt>
|
|
<trkpt lat="55.743881" lon="8.221308">
|
|
<ele>16.982408</ele>
|
|
<time>2026-07-12T08:41:31.000Z</time>
|
|
</trkpt>
|
|
<trkpt lat="55.743919" lon="8.221292">
|
|
<ele>17.024942</ele>
|
|
<time>2026-07-12T08:41:32.000Z</time>
|
|
</trkpt>
|
|
<trkpt lat="55.743958" lon="8.221274">
|
|
<ele>17.068829</ele>
|
|
<time>2026-07-12T08:41:33.000Z</time>
|
|
</trkpt>
|
|
<trkpt lat="55.744007" lon="8.221255">
|
|
<ele>17.123453</ele>
|
|
<time>2026-07-12T08:41:34.000Z</time>
|
|
</trkpt>
|
|
<trkpt lat="55.744057" lon="8.221243">
|
|
<ele>17.178405</ele>
|
|
<time>2026-07-12T08:41:35.000Z</time>
|
|
</trkpt>
|
|
<trkpt lat="55.744114" lon="8.221228">
|
|
<ele>17.241163</ele>
|
|
<time>2026-07-12T08:41:36.000Z</time>
|
|
</trkpt>
|
|
<trkpt lat="55.744160" lon="8.221202">
|
|
<ele>17.293738</ele>
|
|
<time>2026-07-12T08:41:37.000Z</time>
|
|
</trkpt>
|
|
<trkpt lat="55.744209" lon="8.221175">
|
|
<ele>17.288313</ele>
|
|
<time>2026-07-12T08:41:38.000Z</time>
|
|
</trkpt>
|
|
<trkpt lat="55.744259" lon="8.221148">
|
|
<ele>17.272751</ele>
|
|
<time>2026-07-12T08:41:39.000Z</time>
|
|
</trkpt>
|
|
<trkpt lat="55.744312" lon="8.221119">
|
|
<ele>17.256237</ele>
|
|
<time>2026-07-12T08:41:40.000Z</time>
|
|
</trkpt>
|
|
<trkpt lat="55.744362" lon="8.221091">
|
|
<ele>17.240625</ele>
|
|
<time>2026-07-12T08:41:41.000Z</time>
|
|
</trkpt>
|
|
<trkpt lat="55.744415" lon="8.221065">
|
|
<ele>17.224252</ele>
|
|
<time>2026-07-12T08:41:42.000Z</time>
|
|
</trkpt>
|
|
<trkpt lat="55.744465" lon="8.221042">
|
|
<ele>17.208871</ele>
|
|
<time>2026-07-12T08:41:43.000Z</time>
|
|
</trkpt>
|
|
<trkpt lat="55.744522" lon="8.221020">
|
|
<ele>17.191502</ele>
|
|
<time>2026-07-12T08:41:44.000Z</time>
|
|
</trkpt>
|
|
<trkpt lat="55.744576" lon="8.220997">
|
|
<ele>17.174965</ele>
|
|
<time>2026-07-12T08:41:45.000Z</time>
|
|
</trkpt>
|
|
<trkpt lat="55.744629" lon="8.220974">
|
|
<ele>17.158719</ele>
|
|
<time>2026-07-12T08:41:46.000Z</time>
|
|
</trkpt>
|
|
<trkpt lat="55.744679" lon="8.220950">
|
|
<ele>17.143295</ele>
|
|
<time>2026-07-12T08:41:47.000Z</time>
|
|
</trkpt>
|
|
<trkpt lat="55.744728" lon="8.220924">
|
|
<ele>17.128067</ele>
|
|
<time>2026-07-12T08:41:48.000Z</time>
|
|
</trkpt>
|
|
<trkpt lat="55.744770" lon="8.220897">
|
|
<ele>17.114766</ele>
|
|
<time>2026-07-12T08:41:49.000Z</time>
|
|
</trkpt>
|
|
<trkpt lat="55.744816" lon="8.220872">
|
|
<ele>17.100441</ele>
|
|
<time>2026-07-12T08:41:50.000Z</time>
|
|
</trkpt>
|
|
<trkpt lat="55.744865" lon="8.220850">
|
|
<ele>17.085391</ele>
|
|
<time>2026-07-12T08:41:51.000Z</time>
|
|
</trkpt>
|
|
<trkpt lat="55.744911" lon="8.220827">
|
|
<ele>17.071161</ele>
|
|
<time>2026-07-12T08:41:52.000Z</time>
|
|
</trkpt>
|
|
<trkpt lat="55.744961" lon="8.220808">
|
|
<ele>17.055934</ele>
|
|
<time>2026-07-12T08:41:53.000Z</time>
|
|
</trkpt>
|
|
<trkpt lat="55.745003" lon="8.220793">
|
|
<ele>17.043177</ele>
|
|
<time>2026-07-12T08:41:54.000Z</time>
|
|
</trkpt>
|
|
<trkpt lat="55.745056" lon="8.220771">
|
|
<ele>17.026969</ele>
|
|
<time>2026-07-12T08:41:55.000Z</time>
|
|
</trkpt>
|
|
<trkpt lat="55.745110" lon="8.220749">
|
|
<ele>17.010472</ele>
|
|
<time>2026-07-12T08:41:56.000Z</time>
|
|
</trkpt>
|
|
<trkpt lat="55.745155" lon="8.220729">
|
|
<ele>16.996658</ele>
|
|
<time>2026-07-12T08:41:57.000Z</time>
|
|
</trkpt>
|
|
<trkpt lat="55.745201" lon="8.220708">
|
|
<ele>16.982515</ele>
|
|
<time>2026-07-12T08:41:58.000Z</time>
|
|
</trkpt>
|
|
<trkpt lat="55.745247" lon="8.220685">
|
|
<ele>16.968285</ele>
|
|
<time>2026-07-12T08:41:59.000Z</time>
|
|
</trkpt>
|
|
<trkpt lat="55.745289" lon="8.220659">
|
|
<ele>16.955040</ele>
|
|
<time>2026-07-12T08:42:00.000Z</time>
|
|
</trkpt>
|
|
<trkpt lat="55.745335" lon="8.220633">
|
|
<ele>16.940665</ele>
|
|
<time>2026-07-12T08:42:01.000Z</time>
|
|
</trkpt>
|
|
<trkpt lat="55.745388" lon="8.220612">
|
|
<ele>16.924495</ele>
|
|
<time>2026-07-12T08:42:02.000Z</time>
|
|
</trkpt>
|
|
<trkpt lat="55.745441" lon="8.220592">
|
|
<ele>16.908360</ele>
|
|
<time>2026-07-12T08:42:03.000Z</time>
|
|
</trkpt>
|
|
<trkpt lat="55.745491" lon="8.220571">
|
|
<ele>16.893060</ele>
|
|
<time>2026-07-12T08:42:04.000Z</time>
|
|
</trkpt>
|
|
<trkpt lat="55.745544" lon="8.220554">
|
|
<ele>16.877022</ele>
|
|
<time>2026-07-12T08:42:05.000Z</time>
|
|
</trkpt>
|
|
<trkpt lat="55.745602" lon="8.220534">
|
|
<ele>16.859428</ele>
|
|
<time>2026-07-12T08:42:06.000Z</time>
|
|
</trkpt>
|
|
<trkpt lat="55.745647" lon="8.220509">
|
|
<ele>16.845388</ele>
|
|
<time>2026-07-12T08:42:07.000Z</time>
|
|
</trkpt>
|
|
<trkpt lat="55.745693" lon="8.220484">
|
|
<ele>16.831063</ele>
|
|
<time>2026-07-12T08:42:08.000Z</time>
|
|
</trkpt>
|
|
<trkpt lat="55.745750" lon="8.220460">
|
|
<ele>16.813619</ele>
|
|
<time>2026-07-12T08:42:09.000Z</time>
|
|
</trkpt>
|
|
<trkpt lat="55.745811" lon="8.220440">
|
|
<ele>16.795147</ele>
|
|
<time>2026-07-12T08:42:10.000Z</time>
|
|
</trkpt>
|
|
<trkpt lat="55.745861" lon="8.220419">
|
|
<ele>16.779848</ele>
|
|
<time>2026-07-12T08:42:11.000Z</time>
|
|
</trkpt>
|
|
<trkpt lat="55.745911" lon="8.220392">
|
|
<ele>16.773633</ele>
|
|
<time>2026-07-12T08:42:12.000Z</time>
|
|
</trkpt>
|
|
<trkpt lat="55.745953" lon="8.220360">
|
|
<ele>16.840712</ele>
|
|
<time>2026-07-12T08:42:13.000Z</time>
|
|
</trkpt>
|
|
<trkpt lat="55.745998" lon="8.220325">
|
|
<ele>16.912818</ele>
|
|
<time>2026-07-12T08:42:14.000Z</time>
|
|
</trkpt>
|
|
<trkpt lat="55.746048" lon="8.220291">
|
|
<ele>16.991403</ele>
|
|
<time>2026-07-12T08:42:15.000Z</time>
|
|
</trkpt>
|
|
<trkpt lat="55.746094" lon="8.220265">
|
|
<ele>17.062259</ele>
|
|
<time>2026-07-12T08:42:16.000Z</time>
|
|
</trkpt>
|
|
<trkpt lat="55.746136" lon="8.220238">
|
|
<ele>17.127821</ele>
|
|
<time>2026-07-12T08:42:17.000Z</time>
|
|
</trkpt>
|
|
<trkpt lat="55.746189" lon="8.220202">
|
|
<ele>17.211109</ele>
|
|
<time>2026-07-12T08:42:18.000Z</time>
|
|
</trkpt>
|
|
<trkpt lat="55.746227" lon="8.220178">
|
|
<ele>17.270307</ele>
|
|
<time>2026-07-12T08:42:19.000Z</time>
|
|
</trkpt>
|
|
<trkpt lat="55.746273" lon="8.220155">
|
|
<ele>17.340451</ele>
|
|
<time>2026-07-12T08:42:20.000Z</time>
|
|
</trkpt>
|
|
<trkpt lat="55.746319" lon="8.220135">
|
|
<ele>17.409965</ele>
|
|
<time>2026-07-12T08:42:21.000Z</time>
|
|
</trkpt>
|
|
<trkpt lat="55.746361" lon="8.220119">
|
|
<ele>17.473016</ele>
|
|
<time>2026-07-12T08:42:22.000Z</time>
|
|
</trkpt>
|
|
<trkpt lat="55.746403" lon="8.220105">
|
|
<ele>17.535742</ele>
|
|
<time>2026-07-12T08:42:23.000Z</time>
|
|
</trkpt>
|
|
<trkpt lat="55.746445" lon="8.220094">
|
|
<ele>17.598058</ele>
|
|
<time>2026-07-12T08:42:24.000Z</time>
|
|
</trkpt>
|
|
<trkpt lat="55.746479" lon="8.220085">
|
|
<ele>17.648516</ele>
|
|
<time>2026-07-12T08:42:25.000Z</time>
|
|
</trkpt>
|
|
<trkpt lat="55.746510" lon="8.220076">
|
|
<ele>17.694623</ele>
|
|
<time>2026-07-12T08:42:26.000Z</time>
|
|
</trkpt>
|
|
<trkpt lat="55.746544" lon="8.220060">
|
|
<ele>17.746251</ele>
|
|
<time>2026-07-12T08:42:27.000Z</time>
|
|
</trkpt>
|
|
<trkpt lat="55.746578" lon="8.220048">
|
|
<ele>17.797133</ele>
|
|
<time>2026-07-12T08:42:28.000Z</time>
|
|
</trkpt>
|
|
<trkpt lat="55.746609" lon="8.220038">
|
|
<ele>17.843381</ele>
|
|
<time>2026-07-12T08:42:29.000Z</time>
|
|
</trkpt>
|
|
<trkpt lat="55.746651" lon="8.220036">
|
|
<ele>17.905053</ele>
|
|
<time>2026-07-12T08:42:30.000Z</time>
|
|
</trkpt>
|
|
<trkpt lat="55.746708" lon="8.220045">
|
|
<ele>17.989050</ele>
|
|
<time>2026-07-12T08:42:31.000Z</time>
|
|
</trkpt>
|
|
<trkpt lat="55.746765" lon="8.220049">
|
|
<ele>18.072783</ele>
|
|
<time>2026-07-12T08:42:32.000Z</time>
|
|
</trkpt>
|
|
<trkpt lat="55.746826" lon="8.220028">
|
|
<ele>18.163988</ele>
|
|
<time>2026-07-12T08:42:33.000Z</time>
|
|
</trkpt>
|
|
<trkpt lat="55.746887" lon="8.220009">
|
|
<ele>18.254892</ele>
|
|
<time>2026-07-12T08:42:34.000Z</time>
|
|
</trkpt>
|
|
<trkpt lat="55.746933" lon="8.220009">
|
|
<ele>18.322414</ele>
|
|
<time>2026-07-12T08:42:35.000Z</time>
|
|
</trkpt>
|
|
<trkpt lat="55.746979" lon="8.220009">
|
|
<ele>18.389935</ele>
|
|
<time>2026-07-12T08:42:36.000Z</time>
|
|
</trkpt>
|
|
<trkpt lat="55.747021" lon="8.220007">
|
|
<ele>18.451607</ele>
|
|
<time>2026-07-12T08:42:37.000Z</time>
|
|
</trkpt>
|
|
<trkpt lat="55.747063" lon="8.220007">
|
|
<ele>18.513257</ele>
|
|
<time>2026-07-12T08:42:38.000Z</time>
|
|
</trkpt>
|
|
<trkpt lat="55.747101" lon="8.220011">
|
|
<ele>18.569133</ele>
|
|
<time>2026-07-12T08:42:39.000Z</time>
|
|
</trkpt>
|
|
<trkpt lat="55.747135" lon="8.220017">
|
|
<ele>18.619286</ele>
|
|
<time>2026-07-12T08:42:40.000Z</time>
|
|
</trkpt>
|
|
<trkpt lat="55.747177" lon="8.220030">
|
|
<ele>18.681864</ele>
|
|
<time>2026-07-12T08:42:41.000Z</time>
|
|
</trkpt>
|
|
<trkpt lat="55.747219" lon="8.220045">
|
|
<ele>18.744747</ele>
|
|
<time>2026-07-12T08:42:42.000Z</time>
|
|
</trkpt>
|
|
<trkpt lat="55.747265" lon="8.220055">
|
|
<ele>18.812772</ele>
|
|
<time>2026-07-12T08:42:43.000Z</time>
|
|
</trkpt>
|
|
<trkpt lat="55.747318" lon="8.220065">
|
|
<ele>18.891006</ele>
|
|
<time>2026-07-12T08:42:44.000Z</time>
|
|
</trkpt>
|
|
<trkpt lat="55.747353" lon="8.220069">
|
|
<ele>18.942487</ele>
|
|
<time>2026-07-12T08:42:45.000Z</time>
|
|
</trkpt>
|
|
<trkpt lat="55.747387" lon="8.220060">
|
|
<ele>18.992945</ele>
|
|
<time>2026-07-12T08:42:46.000Z</time>
|
|
</trkpt>
|
|
<trkpt lat="55.747429" lon="8.220045">
|
|
<ele>19.055828</ele>
|
|
<time>2026-07-12T08:42:47.000Z</time>
|
|
</trkpt>
|
|
<trkpt lat="55.747467" lon="8.220034">
|
|
<ele>19.112342</ele>
|
|
<time>2026-07-12T08:42:48.000Z</time>
|
|
</trkpt>
|
|
<trkpt lat="55.747513" lon="8.220026">
|
|
<ele>19.180186</ele>
|
|
<time>2026-07-12T08:42:49.000Z</time>
|
|
</trkpt>
|
|
<trkpt lat="55.747562" lon="8.220017">
|
|
<ele>19.252494</ele>
|
|
<time>2026-07-12T08:42:50.000Z</time>
|
|
</trkpt>
|
|
<trkpt lat="55.747604" lon="8.220010">
|
|
<ele>19.314415</ele>
|
|
<time>2026-07-12T08:42:51.000Z</time>
|
|
</trkpt>
|
|
<trkpt lat="55.747658" lon="8.220008">
|
|
<ele>19.393696</ele>
|
|
<time>2026-07-12T08:42:52.000Z</time>
|
|
</trkpt>
|
|
<trkpt lat="55.747711" lon="8.220004">
|
|
<ele>19.420922</ele>
|
|
<time>2026-07-12T08:42:53.000Z</time>
|
|
</trkpt>
|
|
<trkpt lat="55.747765" lon="8.220001">
|
|
<ele>19.438963</ele>
|
|
<time>2026-07-12T08:42:54.000Z</time>
|
|
</trkpt>
|
|
<trkpt lat="55.747810" lon="8.219993">
|
|
<ele>19.454065</ele>
|
|
<time>2026-07-12T08:42:55.000Z</time>
|
|
</trkpt>
|
|
<trkpt lat="55.747860" lon="8.219974">
|
|
<ele>19.471139</ele>
|
|
<time>2026-07-12T08:42:56.000Z</time>
|
|
</trkpt>
|
|
<trkpt lat="55.747913" lon="8.219956">
|
|
<ele>19.489158</ele>
|
|
<time>2026-07-12T08:42:57.000Z</time>
|
|
</trkpt>
|
|
<trkpt lat="55.747955" lon="8.219944">
|
|
<ele>19.503363</ele>
|
|
<time>2026-07-12T08:42:58.000Z</time>
|
|
</trkpt>
|
|
<trkpt lat="55.747997" lon="8.219930">
|
|
<ele>19.517633</ele>
|
|
<time>2026-07-12T08:42:59.000Z</time>
|
|
</trkpt>
|
|
<trkpt lat="55.748035" lon="8.219921">
|
|
<ele>19.530435</ele>
|
|
<time>2026-07-12T08:43:00.000Z</time>
|
|
</trkpt>
|
|
<trkpt lat="55.748070" lon="8.219925">
|
|
<ele>19.542147</ele>
|
|
<time>2026-07-12T08:43:01.000Z</time>
|
|
</trkpt>
|
|
<trkpt lat="55.748112" lon="8.219937">
|
|
<ele>19.556352</ele>
|
|
<time>2026-07-12T08:43:02.000Z</time>
|
|
</trkpt>
|
|
<trkpt lat="55.748154" lon="8.219954">
|
|
<ele>19.570736</ele>
|
|
<time>2026-07-12T08:43:03.000Z</time>
|
|
</trkpt>
|
|
<trkpt lat="55.748196" lon="8.219972">
|
|
<ele>19.585164</ele>
|
|
<time>2026-07-12T08:43:04.000Z</time>
|
|
</trkpt>
|
|
<trkpt lat="55.748234" lon="8.219995">
|
|
<ele>19.598569</ele>
|
|
<time>2026-07-12T08:43:05.000Z</time>
|
|
</trkpt>
|
|
<trkpt lat="55.748272" lon="8.220026">
|
|
<ele>19.612532</ele>
|
|
<time>2026-07-12T08:43:06.000Z</time>
|
|
</trkpt>
|
|
<trkpt lat="55.748306" lon="8.220057">
|
|
<ele>19.625294</ele>
|
|
<time>2026-07-12T08:43:07.000Z</time>
|
|
</trkpt>
|
|
<trkpt lat="55.748333" lon="8.220083">
|
|
<ele>19.635549</ele>
|
|
<time>2026-07-12T08:43:08.000Z</time>
|
|
</trkpt>
|
|
<trkpt lat="55.748402" lon="8.220158">
|
|
<ele>19.662560</ele>
|
|
<time>2026-07-12T08:43:09.000Z</time>
|
|
</trkpt>
|
|
<trkpt lat="55.748451" lon="8.220209">
|
|
<ele>19.681523</ele>
|
|
<time>2026-07-12T08:43:10.000Z</time>
|
|
</trkpt>
|
|
<trkpt lat="55.748493" lon="8.220256">
|
|
<ele>19.698099</ele>
|
|
<time>2026-07-12T08:43:11.000Z</time>
|
|
</trkpt>
|
|
<trkpt lat="55.748531" lon="8.220299">
|
|
<ele>19.713143</ele>
|
|
<time>2026-07-12T08:43:12.000Z</time>
|
|
</trkpt>
|
|
<trkpt lat="55.748596" lon="8.220373">
|
|
<ele>19.738922</ele>
|
|
<time>2026-07-12T08:43:13.000Z</time>
|
|
</trkpt>
|
|
<trkpt lat="55.748650" lon="8.220424">
|
|
<ele>19.759344</ele>
|
|
<time>2026-07-12T08:43:14.000Z</time>
|
|
</trkpt>
|
|
<trkpt lat="55.748695" lon="8.220470">
|
|
<ele>19.776680</ele>
|
|
<time>2026-07-12T08:43:15.000Z</time>
|
|
</trkpt>
|
|
<trkpt lat="55.748741" lon="8.220521">
|
|
<ele>19.794786</ele>
|
|
<time>2026-07-12T08:43:16.000Z</time>
|
|
</trkpt>
|
|
<trkpt lat="55.748783" lon="8.220571">
|
|
<ele>19.811669</ele>
|
|
<time>2026-07-12T08:43:17.000Z</time>
|
|
</trkpt>
|
|
<trkpt lat="55.748821" lon="8.220619">
|
|
<ele>19.827238</ele>
|
|
<time>2026-07-12T08:43:18.000Z</time>
|
|
</trkpt>
|
|
<trkpt lat="55.748859" lon="8.220662">
|
|
<ele>19.842282</ele>
|
|
<time>2026-07-12T08:43:19.000Z</time>
|
|
</trkpt>
|
|
<trkpt lat="55.748898" lon="8.220703">
|
|
<ele>19.857414</ele>
|
|
<time>2026-07-12T08:43:20.000Z</time>
|
|
</trkpt>
|
|
<trkpt lat="55.748936" lon="8.220744">
|
|
<ele>19.872260</ele>
|
|
<time>2026-07-12T08:43:21.000Z</time>
|
|
</trkpt>
|
|
<trkpt lat="55.748970" lon="8.220784">
|
|
<ele>19.885877</ele>
|
|
<time>2026-07-12T08:43:22.000Z</time>
|
|
</trkpt>
|
|
<trkpt lat="55.749001" lon="8.220821">
|
|
<ele>19.898348</ele>
|
|
<time>2026-07-12T08:43:23.000Z</time>
|
|
</trkpt>
|
|
<trkpt lat="55.749031" lon="8.220859">
|
|
<ele>19.910651</ele>
|
|
<time>2026-07-12T08:43:24.000Z</time>
|
|
</trkpt>
|
|
<trkpt lat="55.749062" lon="8.220901">
|
|
<ele>19.923669</ele>
|
|
<time>2026-07-12T08:43:25.000Z</time>
|
|
</trkpt>
|
|
<trkpt lat="55.749088" lon="8.220944">
|
|
<ele>19.935531</ele>
|
|
<time>2026-07-12T08:43:26.000Z</time>
|
|
</trkpt>
|
|
<trkpt lat="55.749119" lon="8.220988">
|
|
<ele>19.948780</ele>
|
|
<time>2026-07-12T08:43:27.000Z</time>
|
|
</trkpt>
|
|
<trkpt lat="55.749153" lon="8.221034">
|
|
<ele>19.963050</ele>
|
|
<time>2026-07-12T08:43:28.000Z</time>
|
|
</trkpt>
|
|
<trkpt lat="55.749187" lon="8.221082">
|
|
<ele>19.977552</ele>
|
|
<time>2026-07-12T08:43:29.000Z</time>
|
|
</trkpt>
|
|
<trkpt lat="55.749222" lon="8.221128">
|
|
<ele>19.992089</ele>
|
|
<time>2026-07-12T08:43:30.000Z</time>
|
|
</trkpt>
|
|
<trkpt lat="55.749252" lon="8.221169">
|
|
<ele>20.004728</ele>
|
|
<time>2026-07-12T08:43:31.000Z</time>
|
|
</trkpt>
|
|
<trkpt lat="55.749294" lon="8.221218">
|
|
<ele>19.999116</ele>
|
|
<time>2026-07-12T08:43:32.000Z</time>
|
|
</trkpt>
|
|
<trkpt lat="55.749332" lon="8.221253">
|
|
<ele>19.991893</ele>
|
|
<time>2026-07-12T08:43:33.000Z</time>
|
|
</trkpt>
|
|
<trkpt lat="55.749371" lon="8.221284">
|
|
<ele>19.984683</ele>
|
|
<time>2026-07-12T08:43:34.000Z</time>
|
|
</trkpt>
|
|
<trkpt lat="55.749405" lon="8.221307">
|
|
<ele>19.978543</ele>
|
|
<time>2026-07-12T08:43:35.000Z</time>
|
|
</trkpt>
|
|
<trkpt lat="55.749439" lon="8.221326">
|
|
<ele>19.972528</ele>
|
|
<time>2026-07-12T08:43:36.000Z</time>
|
|
</trkpt>
|
|
<trkpt lat="55.749496" lon="8.221346">
|
|
<ele>19.962723</ele>
|
|
<time>2026-07-12T08:43:37.000Z</time>
|
|
</trkpt>
|
|
<trkpt lat="55.749538" lon="8.221352">
|
|
<ele>19.955613</ele>
|
|
<time>2026-07-12T08:43:38.000Z</time>
|
|
</trkpt>
|
|
<trkpt lat="55.749580" lon="8.221349">
|
|
<ele>19.948519</ele>
|
|
<time>2026-07-12T08:43:39.000Z</time>
|
|
</trkpt>
|
|
<trkpt lat="55.749626" lon="8.221332">
|
|
<ele>19.940590</ele>
|
|
<time>2026-07-12T08:43:40.000Z</time>
|
|
</trkpt>
|
|
<trkpt lat="55.749676" lon="8.221307">
|
|
<ele>19.931824</ele>
|
|
<time>2026-07-12T08:43:41.000Z</time>
|
|
</trkpt>
|
|
<trkpt lat="55.749725" lon="8.221283">
|
|
<ele>19.923247</ele>
|
|
<time>2026-07-12T08:43:42.000Z</time>
|
|
</trkpt>
|
|
<trkpt lat="55.749775" lon="8.221262">
|
|
<ele>19.914577</ele>
|
|
<time>2026-07-12T08:43:43.000Z</time>
|
|
</trkpt>
|
|
<trkpt lat="55.749828" lon="8.221247">
|
|
<ele>19.905520</ele>
|
|
<time>2026-07-12T08:43:44.000Z</time>
|
|
</trkpt>
|
|
<trkpt lat="55.749878" lon="8.221233">
|
|
<ele>19.896978</ele>
|
|
<time>2026-07-12T08:43:45.000Z</time>
|
|
</trkpt>
|
|
<trkpt lat="55.749928" lon="8.221217">
|
|
<ele>19.888404</ele>
|
|
<time>2026-07-12T08:43:46.000Z</time>
|
|
</trkpt>
|
|
<trkpt lat="55.749977" lon="8.221198">
|
|
<ele>19.879940</ele>
|
|
<time>2026-07-12T08:43:47.000Z</time>
|
|
</trkpt>
|
|
<trkpt lat="55.750031" lon="8.221181">
|
|
<ele>19.870685</ele>
|
|
<time>2026-07-12T08:43:48.000Z</time>
|
|
</trkpt>
|
|
<trkpt lat="55.750088" lon="8.221166">
|
|
<ele>19.860961</ele>
|
|
<time>2026-07-12T08:43:49.000Z</time>
|
|
</trkpt>
|
|
<trkpt lat="55.750145" lon="8.221148">
|
|
<ele>19.851191</ele>
|
|
<time>2026-07-12T08:43:50.000Z</time>
|
|
</trkpt>
|
|
<trkpt lat="55.750202" lon="8.221134">
|
|
<ele>19.841481</ele>
|
|
<time>2026-07-12T08:43:51.000Z</time>
|
|
</trkpt>
|
|
<trkpt lat="55.750259" lon="8.221123">
|
|
<ele>19.831805</ele>
|
|
<time>2026-07-12T08:43:52.000Z</time>
|
|
</trkpt>
|
|
<trkpt lat="55.750313" lon="8.221114">
|
|
<ele>19.822652</ele>
|
|
<time>2026-07-12T08:43:53.000Z</time>
|
|
</trkpt>
|
|
<trkpt lat="55.750370" lon="8.221107">
|
|
<ele>19.813010</ele>
|
|
<time>2026-07-12T08:43:54.000Z</time>
|
|
</trkpt>
|
|
<trkpt lat="55.750431" lon="8.221096">
|
|
<ele>19.802663</ele>
|
|
<time>2026-07-12T08:43:55.000Z</time>
|
|
</trkpt>
|
|
<trkpt lat="55.750492" lon="8.221085">
|
|
<ele>19.792316</ele>
|
|
<time>2026-07-12T08:43:56.000Z</time>
|
|
</trkpt>
|
|
<trkpt lat="55.750546" lon="8.221070">
|
|
<ele>19.783092</ele>
|
|
<time>2026-07-12T08:43:57.000Z</time>
|
|
</trkpt>
|
|
<trkpt lat="55.750603" lon="8.221052">
|
|
<ele>19.773322</ele>
|
|
<time>2026-07-12T08:43:58.000Z</time>
|
|
</trkpt>
|
|
<trkpt lat="55.750664" lon="8.221032">
|
|
<ele>19.762854</ele>
|
|
<time>2026-07-12T08:43:59.000Z</time>
|
|
</trkpt>
|
|
<trkpt lat="55.750717" lon="8.221017">
|
|
<ele>19.753798</ele>
|
|
<time>2026-07-12T08:44:00.000Z</time>
|
|
</trkpt>
|
|
<trkpt lat="55.750771" lon="8.221003">
|
|
<ele>19.744588</ele>
|
|
<time>2026-07-12T08:44:01.000Z</time>
|
|
</trkpt>
|
|
<trkpt lat="55.750828" lon="8.220991">
|
|
<ele>19.734902</ele>
|
|
<time>2026-07-12T08:44:02.000Z</time>
|
|
</trkpt>
|
|
<trkpt lat="55.750885" lon="8.220980">
|
|
<ele>19.725226</ele>
|
|
<time>2026-07-12T08:44:03.000Z</time>
|
|
</trkpt>
|
|
<trkpt lat="55.750938" lon="8.220966">
|
|
<ele>19.716184</ele>
|
|
<time>2026-07-12T08:44:04.000Z</time>
|
|
</trkpt>
|
|
<trkpt lat="55.750988" lon="8.220953">
|
|
<ele>19.707656</ele>
|
|
<time>2026-07-12T08:44:05.000Z</time>
|
|
</trkpt>
|
|
<trkpt lat="55.751045" lon="8.220941">
|
|
<ele>19.676097</ele>
|
|
<time>2026-07-12T08:44:06.000Z</time>
|
|
</trkpt>
|
|
<trkpt lat="55.751099" lon="8.220931">
|
|
<ele>19.627861</ele>
|
|
<time>2026-07-12T08:44:07.000Z</time>
|
|
</trkpt>
|
|
<trkpt lat="55.751152" lon="8.220922">
|
|
<ele>19.580560</ele>
|
|
<time>2026-07-12T08:44:08.000Z</time>
|
|
</trkpt>
|
|
<trkpt lat="55.751205" lon="8.220915">
|
|
<ele>19.533343</ele>
|
|
<time>2026-07-12T08:44:09.000Z</time>
|
|
</trkpt>
|
|
<trkpt lat="55.751255" lon="8.220903">
|
|
<ele>19.488518</ele>
|
|
<time>2026-07-12T08:44:10.000Z</time>
|
|
</trkpt>
|
|
<trkpt lat="55.751305" lon="8.220892">
|
|
<ele>19.443757</ele>
|
|
<time>2026-07-12T08:44:11.000Z</time>
|
|
</trkpt>
|
|
<trkpt lat="55.751350" lon="8.220882">
|
|
<ele>19.403466</ele>
|
|
<time>2026-07-12T08:44:12.000Z</time>
|
|
</trkpt>
|
|
<trkpt lat="55.751396" lon="8.220876">
|
|
<ele>19.362488</ele>
|
|
<time>2026-07-12T08:44:13.000Z</time>
|
|
</trkpt>
|
|
<trkpt lat="55.751450" lon="8.220875">
|
|
<ele>19.314510</ele>
|
|
<time>2026-07-12T08:44:14.000Z</time>
|
|
</trkpt>
|
|
<trkpt lat="55.751511" lon="8.220880">
|
|
<ele>19.260258</ele>
|
|
<time>2026-07-12T08:44:15.000Z</time>
|
|
</trkpt>
|
|
<trkpt lat="55.751564" lon="8.220882">
|
|
<ele>19.213161</ele>
|
|
<time>2026-07-12T08:44:16.000Z</time>
|
|
</trkpt>
|
|
<trkpt lat="55.751617" lon="8.220889">
|
|
<ele>19.165944</ele>
|
|
<time>2026-07-12T08:44:17.000Z</time>
|
|
</trkpt>
|
|
<trkpt lat="55.751667" lon="8.220896">
|
|
<ele>19.121384</ele>
|
|
<time>2026-07-12T08:44:18.000Z</time>
|
|
</trkpt>
|
|
<trkpt lat="55.751717" lon="8.220901">
|
|
<ele>19.076892</ele>
|
|
<time>2026-07-12T08:44:19.000Z</time>
|
|
</trkpt>
|
|
<trkpt lat="55.751759" lon="8.220901">
|
|
<ele>19.039578</ele>
|
|
<time>2026-07-12T08:44:20.000Z</time>
|
|
</trkpt>
|
|
<trkpt lat="55.751804" lon="8.220900">
|
|
<ele>18.999596</ele>
|
|
<time>2026-07-12T08:44:21.000Z</time>
|
|
</trkpt>
|
|
<trkpt lat="55.751846" lon="8.220892">
|
|
<ele>18.962068</ele>
|
|
<time>2026-07-12T08:44:22.000Z</time>
|
|
</trkpt>
|
|
<trkpt lat="55.751888" lon="8.220881">
|
|
<ele>18.924350</ele>
|
|
<time>2026-07-12T08:44:23.000Z</time>
|
|
</trkpt>
|
|
<trkpt lat="55.751949" lon="8.220870">
|
|
<ele>18.869877</ele>
|
|
<time>2026-07-12T08:44:24.000Z</time>
|
|
</trkpt>
|
|
<trkpt lat="55.752010" lon="8.220857">
|
|
<ele>18.815295</ele>
|
|
<time>2026-07-12T08:44:25.000Z</time>
|
|
</trkpt>
|
|
<trkpt lat="55.752068" lon="8.220837">
|
|
<ele>18.762804</ele>
|
|
<time>2026-07-12T08:44:26.000Z</time>
|
|
</trkpt>
|
|
<trkpt lat="55.752125" lon="8.220813">
|
|
<ele>18.710761</ele>
|
|
<time>2026-07-12T08:44:27.000Z</time>
|
|
</trkpt>
|
|
<trkpt lat="55.752190" lon="8.220791">
|
|
<ele>18.651975</ele>
|
|
<time>2026-07-12T08:44:28.000Z</time>
|
|
</trkpt>
|
|
<trkpt lat="55.752255" lon="8.220770">
|
|
<ele>18.593280</ele>
|
|
<time>2026-07-12T08:44:29.000Z</time>
|
|
</trkpt>
|
|
<trkpt lat="55.752312" lon="8.220750">
|
|
<ele>18.541661</ele>
|
|
<time>2026-07-12T08:44:30.000Z</time>
|
|
</trkpt>
|
|
<trkpt lat="55.752365" lon="8.220729">
|
|
<ele>18.493418</ele>
|
|
<time>2026-07-12T08:44:31.000Z</time>
|
|
</trkpt>
|
|
<trkpt lat="55.752426" lon="8.220703">
|
|
<ele>18.437686</ele>
|
|
<time>2026-07-12T08:44:32.000Z</time>
|
|
</trkpt>
|
|
<trkpt lat="55.752491" lon="8.220674">
|
|
<ele>18.378145</ele>
|
|
<time>2026-07-12T08:44:33.000Z</time>
|
|
</trkpt>
|
|
<trkpt lat="55.752556" lon="8.220645">
|
|
<ele>18.318605</ele>
|
|
<time>2026-07-12T08:44:34.000Z</time>
|
|
</trkpt>
|
|
<trkpt lat="55.752621" lon="8.220615">
|
|
<ele>18.258940</ele>
|
|
<time>2026-07-12T08:44:35.000Z</time>
|
|
</trkpt>
|
|
<trkpt lat="55.752686" lon="8.220590">
|
|
<ele>18.199855</ele>
|
|
<time>2026-07-12T08:44:36.000Z</time>
|
|
</trkpt>
|
|
<trkpt lat="55.752750" lon="8.220571">
|
|
<ele>18.142207</ele>
|
|
<time>2026-07-12T08:44:37.000Z</time>
|
|
</trkpt>
|
|
<trkpt lat="55.752827" lon="8.220563">
|
|
<ele>18.054674</ele>
|
|
<time>2026-07-12T08:44:38.000Z</time>
|
|
</trkpt>
|
|
<trkpt lat="55.752911" lon="8.220567">
|
|
<ele>17.934888</ele>
|
|
<time>2026-07-12T08:44:39.000Z</time>
|
|
</trkpt>
|
|
<trkpt lat="55.752998" lon="8.220564">
|
|
<ele>17.810846</ele>
|
|
<time>2026-07-12T08:44:40.000Z</time>
|
|
</trkpt>
|
|
<trkpt lat="55.753098" lon="8.220563">
|
|
<ele>17.668294</ele>
|
|
<time>2026-07-12T08:44:41.000Z</time>
|
|
</trkpt>
|
|
<trkpt lat="55.753197" lon="8.220574">
|
|
<ele>17.526893</ele>
|
|
<time>2026-07-12T08:44:42.000Z</time>
|
|
</trkpt>
|
|
<trkpt lat="55.753281" lon="8.220588">
|
|
<ele>17.406626</ele>
|
|
<time>2026-07-12T08:44:43.000Z</time>
|
|
</trkpt>
|
|
<trkpt lat="55.753357" lon="8.220605">
|
|
<ele>17.297433</ele>
|
|
<time>2026-07-12T08:44:44.000Z</time>
|
|
</trkpt>
|
|
<trkpt lat="55.753433" lon="8.220627">
|
|
<ele>17.187666</ele>
|
|
<time>2026-07-12T08:44:45.000Z</time>
|
|
</trkpt>
|
|
<trkpt lat="55.753521" lon="8.220654">
|
|
<ele>17.060366</ele>
|
|
<time>2026-07-12T08:44:46.000Z</time>
|
|
</trkpt>
|
|
<trkpt lat="55.753601" lon="8.220679">
|
|
<ele>16.944576</ele>
|
|
<time>2026-07-12T08:44:47.000Z</time>
|
|
</trkpt>
|
|
<trkpt lat="55.753674" lon="8.220709">
|
|
<ele>16.837767</ele>
|
|
<time>2026-07-12T08:44:48.000Z</time>
|
|
</trkpt>
|
|
<trkpt lat="55.753746" lon="8.220741">
|
|
<ele>16.731970</ele>
|
|
<time>2026-07-12T08:44:49.000Z</time>
|
|
</trkpt>
|
|
<trkpt lat="55.753818" lon="8.220777">
|
|
<ele>16.625348</ele>
|
|
<time>2026-07-12T08:44:50.000Z</time>
|
|
</trkpt>
|
|
<trkpt lat="55.753891" lon="8.220817">
|
|
<ele>16.516451</ele>
|
|
<time>2026-07-12T08:44:51.000Z</time>
|
|
</trkpt>
|
|
<trkpt lat="55.753960" lon="8.220856">
|
|
<ele>16.413236</ele>
|
|
<time>2026-07-12T08:44:52.000Z</time>
|
|
</trkpt>
|
|
<trkpt lat="55.754028" lon="8.220898">
|
|
<ele>16.310613</ele>
|
|
<time>2026-07-12T08:44:53.000Z</time>
|
|
</trkpt>
|
|
<trkpt lat="55.754093" lon="8.220946">
|
|
<ele>16.210273</ele>
|
|
<time>2026-07-12T08:44:54.000Z</time>
|
|
</trkpt>
|
|
<trkpt lat="55.754158" lon="8.220999">
|
|
<ele>16.108327</ele>
|
|
<time>2026-07-12T08:44:55.000Z</time>
|
|
</trkpt>
|
|
<trkpt lat="55.754230" lon="8.221048">
|
|
<ele>15.998421</ele>
|
|
<time>2026-07-12T08:44:56.000Z</time>
|
|
</trkpt>
|
|
<trkpt lat="55.754303" lon="8.221095">
|
|
<ele>15.887740</ele>
|
|
<time>2026-07-12T08:44:57.000Z</time>
|
|
</trkpt>
|
|
<trkpt lat="55.754375" lon="8.221143">
|
|
<ele>15.778119</ele>
|
|
<time>2026-07-12T08:44:58.000Z</time>
|
|
</trkpt>
|
|
<trkpt lat="55.754440" lon="8.221189">
|
|
<ele>15.678383</ele>
|
|
<time>2026-07-12T08:44:59.000Z</time>
|
|
</trkpt>
|
|
<trkpt lat="55.754505" lon="8.221237">
|
|
<ele>15.578044</ele>
|
|
<time>2026-07-12T08:45:00.000Z</time>
|
|
</trkpt>
|
|
<trkpt lat="55.754570" lon="8.221288">
|
|
<ele>15.510663</ele>
|
|
<time>2026-07-12T08:45:01.000Z</time>
|
|
</trkpt>
|
|
<trkpt lat="55.754639" lon="8.221332">
|
|
<ele>15.461185</ele>
|
|
<time>2026-07-12T08:45:02.000Z</time>
|
|
</trkpt>
|
|
<trkpt lat="55.754700" lon="8.221371">
|
|
<ele>15.417430</ele>
|
|
<time>2026-07-12T08:45:03.000Z</time>
|
|
</trkpt>
|
|
<trkpt lat="55.754757" lon="8.221410">
|
|
<ele>15.376206</ele>
|
|
<time>2026-07-12T08:45:04.000Z</time>
|
|
</trkpt>
|
|
<trkpt lat="55.754818" lon="8.221450">
|
|
<ele>15.332321</ele>
|
|
<time>2026-07-12T08:45:05.000Z</time>
|
|
</trkpt>
|
|
<trkpt lat="55.754879" lon="8.221493">
|
|
<ele>15.288029</ele>
|
|
<time>2026-07-12T08:45:06.000Z</time>
|
|
</trkpt>
|
|
<trkpt lat="55.754944" lon="8.221538">
|
|
<ele>15.240947</ele>
|
|
<time>2026-07-12T08:45:07.000Z</time>
|
|
</trkpt>
|
|
<trkpt lat="55.755012" lon="8.221584">
|
|
<ele>15.191838</ele>
|
|
<time>2026-07-12T08:45:08.000Z</time>
|
|
</trkpt>
|
|
<trkpt lat="55.755077" lon="8.221631">
|
|
<ele>15.144475</ele>
|
|
<time>2026-07-12T08:45:09.000Z</time>
|
|
</trkpt>
|
|
<trkpt lat="55.755138" lon="8.221681">
|
|
<ele>15.099135</ele>
|
|
<time>2026-07-12T08:45:10.000Z</time>
|
|
</trkpt>
|
|
<trkpt lat="55.755199" lon="8.221730">
|
|
<ele>15.053953</ele>
|
|
<time>2026-07-12T08:45:11.000Z</time>
|
|
</trkpt>
|
|
<trkpt lat="55.755260" lon="8.221777">
|
|
<ele>15.009079</ele>
|
|
<time>2026-07-12T08:45:12.000Z</time>
|
|
</trkpt>
|
|
<trkpt lat="55.755337" lon="8.221835">
|
|
<ele>14.952633</ele>
|
|
<time>2026-07-12T08:45:13.000Z</time>
|
|
</trkpt>
|
|
<trkpt lat="55.755402" lon="8.221883">
|
|
<ele>14.905125</ele>
|
|
<time>2026-07-12T08:45:14.000Z</time>
|
|
</trkpt>
|
|
<trkpt lat="55.755466" lon="8.221931">
|
|
<ele>14.858240</ele>
|
|
<time>2026-07-12T08:45:15.000Z</time>
|
|
</trkpt>
|
|
<trkpt lat="55.755527" lon="8.221981">
|
|
<ele>14.812900</ele>
|
|
<time>2026-07-12T08:45:16.000Z</time>
|
|
</trkpt>
|
|
<trkpt lat="55.755588" lon="8.222032">
|
|
<ele>14.767400</ele>
|
|
<time>2026-07-12T08:45:17.000Z</time>
|
|
</trkpt>
|
|
<trkpt lat="55.755650" lon="8.222081">
|
|
<ele>14.721602</ele>
|
|
<time>2026-07-12T08:45:18.000Z</time>
|
|
</trkpt>
|
|
<trkpt lat="55.755707" lon="8.222130">
|
|
<ele>14.678866</ele>
|
|
<time>2026-07-12T08:45:19.000Z</time>
|
|
</trkpt>
|
|
<trkpt lat="55.755764" lon="8.222179">
|
|
<ele>14.636130</ele>
|
|
<time>2026-07-12T08:45:20.000Z</time>
|
|
</trkpt>
|
|
<trkpt lat="55.755821" lon="8.222229">
|
|
<ele>14.593227</ele>
|
|
<time>2026-07-12T08:45:21.000Z</time>
|
|
</trkpt>
|
|
<trkpt lat="55.755875" lon="8.222281">
|
|
<ele>14.551774</ele>
|
|
<time>2026-07-12T08:45:22.000Z</time>
|
|
</trkpt>
|
|
<trkpt lat="55.755932" lon="8.222335">
|
|
<ele>14.508177</ele>
|
|
<time>2026-07-12T08:45:23.000Z</time>
|
|
</trkpt>
|
|
<trkpt lat="55.755989" lon="8.222383">
|
|
<ele>14.465605</ele>
|
|
<time>2026-07-12T08:45:24.000Z</time>
|
|
</trkpt>
|
|
<trkpt lat="55.756046" lon="8.222430">
|
|
<ele>14.423194</ele>
|
|
<time>2026-07-12T08:45:25.000Z</time>
|
|
</trkpt>
|
|
<trkpt lat="55.756103" lon="8.222475">
|
|
<ele>14.381097</ele>
|
|
<time>2026-07-12T08:45:26.000Z</time>
|
|
</trkpt>
|
|
<trkpt lat="55.756161" lon="8.222523">
|
|
<ele>14.337914</ele>
|
|
<time>2026-07-12T08:45:27.000Z</time>
|
|
</trkpt>
|
|
<trkpt lat="55.756218" lon="8.222571">
|
|
<ele>14.310493</ele>
|
|
<time>2026-07-12T08:45:28.000Z</time>
|
|
</trkpt>
|
|
<trkpt lat="55.756271" lon="8.222621">
|
|
<ele>14.289263</ele>
|
|
<time>2026-07-12T08:45:29.000Z</time>
|
|
</trkpt>
|
|
<trkpt lat="55.756329" lon="8.222670">
|
|
<ele>14.266542</ele>
|
|
<time>2026-07-12T08:45:30.000Z</time>
|
|
</trkpt>
|
|
<trkpt lat="55.756386" lon="8.222720">
|
|
<ele>14.244052</ele>
|
|
<time>2026-07-12T08:45:31.000Z</time>
|
|
</trkpt>
|
|
<trkpt lat="55.756443" lon="8.222771">
|
|
<ele>14.221473</ele>
|
|
<time>2026-07-12T08:45:32.000Z</time>
|
|
</trkpt>
|
|
<trkpt lat="55.756500" lon="8.222818">
|
|
<ele>14.199241</ele>
|
|
<time>2026-07-12T08:45:33.000Z</time>
|
|
</trkpt>
|
|
<trkpt lat="55.756550" lon="8.222867">
|
|
<ele>14.179039</ele>
|
|
<time>2026-07-12T08:45:34.000Z</time>
|
|
</trkpt>
|
|
<trkpt lat="55.756603" lon="8.222919">
|
|
<ele>14.157619</ele>
|
|
<time>2026-07-12T08:45:35.000Z</time>
|
|
</trkpt>
|
|
<trkpt lat="55.756657" lon="8.222970">
|
|
<ele>14.135983</ele>
|
|
<time>2026-07-12T08:45:36.000Z</time>
|
|
</trkpt>
|
|
<trkpt lat="55.756714" lon="8.223023">
|
|
<ele>14.113222</ele>
|
|
<time>2026-07-12T08:45:37.000Z</time>
|
|
</trkpt>
|
|
<trkpt lat="55.756767" lon="8.223074">
|
|
<ele>14.091898</ele>
|
|
<time>2026-07-12T08:45:38.000Z</time>
|
|
</trkpt>
|
|
<trkpt lat="55.756821" lon="8.223125">
|
|
<ele>14.070262</ele>
|
|
<time>2026-07-12T08:45:39.000Z</time>
|
|
</trkpt>
|
|
<trkpt lat="55.756874" lon="8.223177">
|
|
<ele>14.048842</ele>
|
|
<time>2026-07-12T08:45:40.000Z</time>
|
|
</trkpt>
|
|
<trkpt lat="55.756928" lon="8.223230">
|
|
<ele>14.027017</ele>
|
|
<time>2026-07-12T08:45:41.000Z</time>
|
|
</trkpt>
|
|
<trkpt lat="55.756985" lon="8.223284">
|
|
<ele>14.004163</ele>
|
|
<time>2026-07-12T08:45:42.000Z</time>
|
|
</trkpt>
|
|
<trkpt lat="55.757038" lon="8.223337">
|
|
<ele>13.982647</ele>
|
|
<time>2026-07-12T08:45:43.000Z</time>
|
|
</trkpt>
|
|
<trkpt lat="55.757092" lon="8.223391">
|
|
<ele>13.960724</ele>
|
|
<time>2026-07-12T08:45:44.000Z</time>
|
|
</trkpt>
|
|
<trkpt lat="55.757145" lon="8.223443">
|
|
<ele>13.939304</ele>
|
|
<time>2026-07-12T08:45:45.000Z</time>
|
|
</trkpt>
|
|
<trkpt lat="55.757202" lon="8.223494">
|
|
<ele>13.916725</ele>
|
|
<time>2026-07-12T08:45:46.000Z</time>
|
|
</trkpt>
|
|
<trkpt lat="55.757259" lon="8.223544">
|
|
<ele>13.894236</ele>
|
|
<time>2026-07-12T08:45:47.000Z</time>
|
|
</trkpt>
|
|
<trkpt lat="55.757313" lon="8.223595">
|
|
<ele>13.872600</ele>
|
|
<time>2026-07-12T08:45:48.000Z</time>
|
|
</trkpt>
|
|
<trkpt lat="55.757370" lon="8.223646">
|
|
<ele>13.850021</ele>
|
|
<time>2026-07-12T08:45:49.000Z</time>
|
|
</trkpt>
|
|
<trkpt lat="55.757423" lon="8.223699">
|
|
<ele>13.828504</ele>
|
|
<time>2026-07-12T08:45:50.000Z</time>
|
|
</trkpt>
|
|
<trkpt lat="55.757477" lon="8.223749">
|
|
<ele>13.806961</ele>
|
|
<time>2026-07-12T08:45:51.000Z</time>
|
|
</trkpt>
|
|
<trkpt lat="55.757530" lon="8.223802">
|
|
<ele>13.785445</ele>
|
|
<time>2026-07-12T08:45:52.000Z</time>
|
|
</trkpt>
|
|
<trkpt lat="55.757587" lon="8.223854">
|
|
<ele>13.762776</ele>
|
|
<time>2026-07-12T08:45:53.000Z</time>
|
|
</trkpt>
|
|
<trkpt lat="55.757641" lon="8.223905">
|
|
<ele>13.741140</ele>
|
|
<time>2026-07-12T08:45:54.000Z</time>
|
|
</trkpt>
|
|
<trkpt lat="55.757694" lon="8.223958">
|
|
<ele>13.719623</ele>
|
|
<time>2026-07-12T08:45:55.000Z</time>
|
|
</trkpt>
|
|
<trkpt lat="55.757748" lon="8.224012">
|
|
<ele>13.697701</ele>
|
|
<time>2026-07-12T08:45:56.000Z</time>
|
|
</trkpt>
|
|
<trkpt lat="55.757805" lon="8.224067">
|
|
<ele>13.676658</ele>
|
|
<time>2026-07-12T08:45:57.000Z</time>
|
|
</trkpt>
|
|
<trkpt lat="55.757862" lon="8.224121">
|
|
<ele>13.656514</ele>
|
|
<time>2026-07-12T08:45:58.000Z</time>
|
|
</trkpt>
|
|
<trkpt lat="55.757919" lon="8.224173">
|
|
<ele>13.636533</ele>
|
|
<time>2026-07-12T08:45:59.000Z</time>
|
|
</trkpt>
|
|
<trkpt lat="55.757977" lon="8.224224">
|
|
<ele>13.616353</ele>
|
|
<time>2026-07-12T08:46:00.000Z</time>
|
|
</trkpt>
|
|
<trkpt lat="55.758022" lon="8.224271">
|
|
<ele>13.600076</ele>
|
|
<time>2026-07-12T08:46:01.000Z</time>
|
|
</trkpt>
|
|
<trkpt lat="55.758064" lon="8.224314">
|
|
<ele>13.584960</ele>
|
|
<time>2026-07-12T08:46:02.000Z</time>
|
|
</trkpt>
|
|
<trkpt lat="55.758141" lon="8.224380">
|
|
<ele>13.558301</ele>
|
|
<time>2026-07-12T08:46:03.000Z</time>
|
|
</trkpt>
|
|
<trkpt lat="55.758198" lon="8.224434">
|
|
<ele>13.538158</ele>
|
|
<time>2026-07-12T08:46:04.000Z</time>
|
|
</trkpt>
|
|
<trkpt lat="55.758255" lon="8.224490">
|
|
<ele>13.517847</ele>
|
|
<time>2026-07-12T08:46:05.000Z</time>
|
|
</trkpt>
|
|
<trkpt lat="55.758308" lon="8.224542">
|
|
<ele>13.498967</ele>
|
|
<time>2026-07-12T08:46:06.000Z</time>
|
|
</trkpt>
|
|
<trkpt lat="55.758358" lon="8.224590">
|
|
<ele>13.481245</ele>
|
|
<time>2026-07-12T08:46:07.000Z</time>
|
|
</trkpt>
|
|
<trkpt lat="55.758408" lon="8.224637">
|
|
<ele>13.463606</ele>
|
|
<time>2026-07-12T08:46:08.000Z</time>
|
|
</trkpt>
|
|
<trkpt lat="55.758457" lon="8.224685">
|
|
<ele>13.446158</ele>
|
|
<time>2026-07-12T08:46:09.000Z</time>
|
|
</trkpt>
|
|
<trkpt lat="55.758507" lon="8.224736">
|
|
<ele>13.428180</ele>
|
|
<time>2026-07-12T08:46:10.000Z</time>
|
|
</trkpt>
|
|
<trkpt lat="55.758556" lon="8.224787">
|
|
<ele>13.410471</ele>
|
|
<time>2026-07-12T08:46:11.000Z</time>
|
|
</trkpt>
|
|
<trkpt lat="55.758606" lon="8.224836">
|
|
<ele>13.392665</ele>
|
|
<time>2026-07-12T08:46:12.000Z</time>
|
|
</trkpt>
|
|
<trkpt lat="55.758656" lon="8.224886">
|
|
<ele>13.374774</ele>
|
|
<time>2026-07-12T08:46:13.000Z</time>
|
|
</trkpt>
|
|
<trkpt lat="55.758705" lon="8.224936">
|
|
<ele>13.357154</ele>
|
|
<time>2026-07-12T08:46:14.000Z</time>
|
|
</trkpt>
|
|
<trkpt lat="55.758755" lon="8.224984">
|
|
<ele>13.339432</ele>
|
|
<time>2026-07-12T08:46:15.000Z</time>
|
|
</trkpt>
|
|
<trkpt lat="55.758801" lon="8.225032">
|
|
<ele>13.322797</ele>
|
|
<time>2026-07-12T08:46:16.000Z</time>
|
|
</trkpt>
|
|
<trkpt lat="55.758850" lon="8.225082">
|
|
<ele>13.305177</ele>
|
|
<time>2026-07-12T08:46:17.000Z</time>
|
|
</trkpt>
|
|
<trkpt lat="55.758900" lon="8.225134">
|
|
<ele>13.287111</ele>
|
|
<time>2026-07-12T08:46:18.000Z</time>
|
|
</trkpt>
|
|
<trkpt lat="55.758945" lon="8.225184">
|
|
<ele>13.270560</ele>
|
|
<time>2026-07-12T08:46:19.000Z</time>
|
|
</trkpt>
|
|
<trkpt lat="55.758991" lon="8.225240">
|
|
<ele>13.253172</ele>
|
|
<time>2026-07-12T08:46:20.000Z</time>
|
|
</trkpt>
|
|
<trkpt lat="55.759033" lon="8.225295">
|
|
<ele>13.236903</ele>
|
|
<time>2026-07-12T08:46:21.000Z</time>
|
|
</trkpt>
|
|
<trkpt lat="55.759083" lon="8.225348">
|
|
<ele>13.218748</ele>
|
|
<time>2026-07-12T08:46:22.000Z</time>
|
|
</trkpt>
|
|
<trkpt lat="55.759132" lon="8.225398">
|
|
<ele>13.201128</ele>
|
|
<time>2026-07-12T08:46:23.000Z</time>
|
|
</trkpt>
|
|
<trkpt lat="55.759178" lon="8.225445">
|
|
<ele>13.184581</ele>
|
|
<time>2026-07-12T08:46:24.000Z</time>
|
|
</trkpt>
|
|
<trkpt lat="55.759228" lon="8.225488">
|
|
<ele>13.167259</ele>
|
|
<time>2026-07-12T08:46:25.000Z</time>
|
|
</trkpt>
|
|
<trkpt lat="55.759274" lon="8.225529">
|
|
<ele>13.151211</ele>
|
|
<time>2026-07-12T08:46:26.000Z</time>
|
|
</trkpt>
|
|
<trkpt lat="55.759316" lon="8.225562">
|
|
<ele>13.136890</ele>
|
|
<time>2026-07-12T08:46:27.000Z</time>
|
|
</trkpt>
|
|
<trkpt lat="55.759357" lon="8.225593">
|
|
<ele>13.127943</ele>
|
|
<time>2026-07-12T08:46:28.000Z</time>
|
|
</trkpt>
|
|
<trkpt lat="55.759422" lon="8.225649">
|
|
<ele>13.121541</ele>
|
|
<time>2026-07-12T08:46:29.000Z</time>
|
|
</trkpt>
|
|
<trkpt lat="55.759472" lon="8.225694">
|
|
<ele>13.116574</ele>
|
|
<time>2026-07-12T08:46:30.000Z</time>
|
|
</trkpt>
|
|
<trkpt lat="55.759521" lon="8.225739">
|
|
<ele>13.111686</ele>
|
|
<time>2026-07-12T08:46:31.000Z</time>
|
|
</trkpt>
|
|
<trkpt lat="55.759571" lon="8.225785">
|
|
<ele>13.106696</ele>
|
|
<time>2026-07-12T08:46:32.000Z</time>
|
|
</trkpt>
|
|
<trkpt lat="55.759624" lon="8.225832">
|
|
<ele>13.101446</ele>
|
|
<time>2026-07-12T08:46:33.000Z</time>
|
|
</trkpt>
|
|
<trkpt lat="55.759674" lon="8.225879">
|
|
<ele>13.096433</ele>
|
|
<time>2026-07-12T08:46:34.000Z</time>
|
|
</trkpt>
|
|
<trkpt lat="55.759727" lon="8.225926">
|
|
<ele>13.091184</ele>
|
|
<time>2026-07-12T08:46:35.000Z</time>
|
|
</trkpt>
|
|
<trkpt lat="55.759781" lon="8.225972">
|
|
<ele>13.085876</ele>
|
|
<time>2026-07-12T08:46:36.000Z</time>
|
|
</trkpt>
|
|
<trkpt lat="55.759830" lon="8.226020">
|
|
<ele>13.080918</ele>
|
|
<time>2026-07-12T08:46:37.000Z</time>
|
|
</trkpt>
|
|
<trkpt lat="55.759880" lon="8.226067">
|
|
<ele>13.075905</ele>
|
|
<time>2026-07-12T08:46:38.000Z</time>
|
|
</trkpt>
|
|
<trkpt lat="55.759930" lon="8.226112">
|
|
<ele>13.070937</ele>
|
|
<time>2026-07-12T08:46:39.000Z</time>
|
|
</trkpt>
|
|
<trkpt lat="55.759979" lon="8.226157">
|
|
<ele>13.066049</ele>
|
|
<time>2026-07-12T08:46:40.000Z</time>
|
|
</trkpt>
|
|
<trkpt lat="55.760021" lon="8.226202">
|
|
<ele>13.061703</ele>
|
|
<time>2026-07-12T08:46:41.000Z</time>
|
|
</trkpt>
|
|
<trkpt lat="55.760071" lon="8.226248">
|
|
<ele>13.056713</ele>
|
|
<time>2026-07-12T08:46:42.000Z</time>
|
|
</trkpt>
|
|
<trkpt lat="55.760117" lon="8.226292">
|
|
<ele>13.052083</ele>
|
|
<time>2026-07-12T08:46:43.000Z</time>
|
|
</trkpt>
|
|
<trkpt lat="55.760162" lon="8.226334">
|
|
<ele>13.047578</ele>
|
|
<time>2026-07-12T08:46:44.000Z</time>
|
|
</trkpt>
|
|
<trkpt lat="55.760212" lon="8.226377">
|
|
<ele>13.042655</ele>
|
|
<time>2026-07-12T08:46:45.000Z</time>
|
|
</trkpt>
|
|
<trkpt lat="55.760262" lon="8.226419">
|
|
<ele>13.037754</ele>
|
|
<time>2026-07-12T08:46:46.000Z</time>
|
|
</trkpt>
|
|
<trkpt lat="55.760311" lon="8.226460">
|
|
<ele>13.032954</ele>
|
|
<time>2026-07-12T08:46:47.000Z</time>
|
|
</trkpt>
|
|
<trkpt lat="55.760361" lon="8.226501">
|
|
<ele>13.028074</ele>
|
|
<time>2026-07-12T08:46:48.000Z</time>
|
|
</trkpt>
|
|
<trkpt lat="55.760414" lon="8.226545">
|
|
<ele>13.022889</ele>
|
|
<time>2026-07-12T08:46:49.000Z</time>
|
|
</trkpt>
|
|
<trkpt lat="55.760460" lon="8.226590">
|
|
<ele>13.018235</ele>
|
|
<time>2026-07-12T08:46:50.000Z</time>
|
|
</trkpt>
|
|
<trkpt lat="55.760510" lon="8.226633">
|
|
<ele>13.013312</ele>
|
|
<time>2026-07-12T08:46:51.000Z</time>
|
|
</trkpt>
|
|
<trkpt lat="55.760571" lon="8.226687">
|
|
<ele>13.007273</ele>
|
|
<time>2026-07-12T08:46:52.000Z</time>
|
|
</trkpt>
|
|
<trkpt lat="55.760624" lon="8.226733">
|
|
<ele>13.002045</ele>
|
|
<time>2026-07-12T08:46:53.000Z</time>
|
|
</trkpt>
|
|
<trkpt lat="55.760677" lon="8.226782">
|
|
<ele>12.996750</ele>
|
|
<time>2026-07-12T08:46:54.000Z</time>
|
|
</trkpt>
|
|
<trkpt lat="55.760731" lon="8.226829">
|
|
<ele>12.991421</ele>
|
|
<time>2026-07-12T08:46:55.000Z</time>
|
|
</trkpt>
|
|
<trkpt lat="55.760784" lon="8.226876">
|
|
<ele>12.986172</ele>
|
|
<time>2026-07-12T08:46:56.000Z</time>
|
|
</trkpt>
|
|
<trkpt lat="55.760841" lon="8.226925">
|
|
<ele>12.980560</ele>
|
|
<time>2026-07-12T08:46:57.000Z</time>
|
|
</trkpt>
|
|
<trkpt lat="55.760895" lon="8.226972">
|
|
<ele>12.975231</ele>
|
|
<time>2026-07-12T08:46:58.000Z</time>
|
|
</trkpt>
|
|
<trkpt lat="55.760944" lon="8.227018">
|
|
<ele>12.970147</ele>
|
|
<time>2026-07-12T08:46:59.000Z</time>
|
|
</trkpt>
|
|
<trkpt lat="55.760994" lon="8.227064">
|
|
<ele>12.960300</ele>
|
|
<time>2026-07-12T08:47:00.000Z</time>
|
|
</trkpt>
|
|
<trkpt lat="55.761047" lon="8.227110">
|
|
<ele>12.949985</ele>
|
|
<time>2026-07-12T08:47:01.000Z</time>
|
|
</trkpt>
|
|
<trkpt lat="55.761105" lon="8.227160">
|
|
<ele>12.938711</ele>
|
|
<time>2026-07-12T08:47:02.000Z</time>
|
|
</trkpt>
|
|
<trkpt lat="55.761162" lon="8.227209">
|
|
<ele>12.927637</ele>
|
|
<time>2026-07-12T08:47:03.000Z</time>
|
|
</trkpt>
|
|
<trkpt lat="55.761215" lon="8.227259">
|
|
<ele>12.917143</ele>
|
|
<time>2026-07-12T08:47:04.000Z</time>
|
|
</trkpt>
|
|
<trkpt lat="55.761272" lon="8.227306">
|
|
<ele>12.906153</ele>
|
|
<time>2026-07-12T08:47:05.000Z</time>
|
|
</trkpt>
|
|
<trkpt lat="55.761326" lon="8.227354">
|
|
<ele>12.895594</ele>
|
|
<time>2026-07-12T08:47:06.000Z</time>
|
|
</trkpt>
|
|
<trkpt lat="55.761379" lon="8.227407">
|
|
<ele>12.884958</ele>
|
|
<time>2026-07-12T08:47:07.000Z</time>
|
|
</trkpt>
|
|
<trkpt lat="55.761436" lon="8.227458">
|
|
<ele>12.873797</ele>
|
|
<time>2026-07-12T08:47:08.000Z</time>
|
|
</trkpt>
|
|
<trkpt lat="55.761494" lon="8.227508">
|
|
<ele>12.862523</ele>
|
|
<time>2026-07-12T08:47:09.000Z</time>
|
|
</trkpt>
|
|
<trkpt lat="55.761551" lon="8.227560">
|
|
<ele>12.851318</ele>
|
|
<time>2026-07-12T08:47:10.000Z</time>
|
|
</trkpt>
|
|
<trkpt lat="55.761608" lon="8.227613">
|
|
<ele>12.840067</ele>
|
|
<time>2026-07-12T08:47:11.000Z</time>
|
|
</trkpt>
|
|
<trkpt lat="55.761662" lon="8.227664">
|
|
<ele>12.829373</ele>
|
|
<time>2026-07-12T08:47:12.000Z</time>
|
|
</trkpt>
|
|
<trkpt lat="55.761719" lon="8.227715">
|
|
<ele>12.818212</ele>
|
|
<time>2026-07-12T08:47:13.000Z</time>
|
|
</trkpt>
|
|
<trkpt lat="55.761768" lon="8.227768">
|
|
<ele>12.808180</ele>
|
|
<time>2026-07-12T08:47:14.000Z</time>
|
|
</trkpt>
|
|
<trkpt lat="55.761822" lon="8.227818">
|
|
<ele>12.797531</ele>
|
|
<time>2026-07-12T08:47:15.000Z</time>
|
|
</trkpt>
|
|
<trkpt lat="55.761871" lon="8.227866">
|
|
<ele>12.787746</ele>
|
|
<time>2026-07-12T08:47:16.000Z</time>
|
|
</trkpt>
|
|
<trkpt lat="55.761921" lon="8.227914">
|
|
<ele>12.777807</ele>
|
|
<time>2026-07-12T08:47:17.000Z</time>
|
|
</trkpt>
|
|
<trkpt lat="55.761971" lon="8.227962">
|
|
<ele>12.767869</ele>
|
|
<time>2026-07-12T08:47:18.000Z</time>
|
|
</trkpt>
|
|
<trkpt lat="55.762024" lon="8.228008">
|
|
<ele>12.757553</ele>
|
|
<time>2026-07-12T08:47:19.000Z</time>
|
|
</trkpt>
|
|
<trkpt lat="55.762073" lon="8.228055">
|
|
<ele>12.747815</ele>
|
|
<time>2026-07-12T08:47:20.000Z</time>
|
|
</trkpt>
|
|
<trkpt lat="55.762127" lon="8.228102">
|
|
<ele>12.737299</ele>
|
|
<time>2026-07-12T08:47:21.000Z</time>
|
|
</trkpt>
|
|
<trkpt lat="55.762180" lon="8.228149">
|
|
<ele>12.726940</ele>
|
|
<time>2026-07-12T08:47:22.000Z</time>
|
|
</trkpt>
|
|
<trkpt lat="55.762234" lon="8.228195">
|
|
<ele>12.716467</ele>
|
|
<time>2026-07-12T08:47:23.000Z</time>
|
|
</trkpt>
|
|
<trkpt lat="55.762283" lon="8.228241">
|
|
<ele>12.706776</ele>
|
|
<time>2026-07-12T08:47:24.000Z</time>
|
|
</trkpt>
|
|
<trkpt lat="55.762337" lon="8.228288">
|
|
<ele>12.696260</ele>
|
|
<time>2026-07-12T08:47:25.000Z</time>
|
|
</trkpt>
|
|
<trkpt lat="55.762390" lon="8.228336">
|
|
<ele>12.685857</ele>
|
|
<time>2026-07-12T08:47:26.000Z</time>
|
|
</trkpt>
|
|
<trkpt lat="55.762440" lon="8.228385">
|
|
<ele>12.675871</ele>
|
|
<time>2026-07-12T08:47:27.000Z</time>
|
|
</trkpt>
|
|
<trkpt lat="55.762493" lon="8.228436">
|
|
<ele>12.665330</ele>
|
|
<time>2026-07-12T08:47:28.000Z</time>
|
|
</trkpt>
|
|
<trkpt lat="55.762543" lon="8.228487">
|
|
<ele>12.653105</ele>
|
|
<time>2026-07-12T08:47:29.000Z</time>
|
|
</trkpt>
|
|
<trkpt lat="55.762596" lon="8.228537">
|
|
<ele>12.609573</ele>
|
|
<time>2026-07-12T08:47:30.000Z</time>
|
|
</trkpt>
|
|
<trkpt lat="55.762646" lon="8.228581">
|
|
<ele>12.569094</ele>
|
|
<time>2026-07-12T08:47:31.000Z</time>
|
|
</trkpt>
|
|
<trkpt lat="55.762695" lon="8.228627">
|
|
<ele>12.528890</ele>
|
|
<time>2026-07-12T08:47:32.000Z</time>
|
|
</trkpt>
|
|
<trkpt lat="55.762749" lon="8.228676">
|
|
<ele>12.484903</ele>
|
|
<time>2026-07-12T08:47:33.000Z</time>
|
|
</trkpt>
|
|
<trkpt lat="55.762798" lon="8.228724">
|
|
<ele>12.444311</ele>
|
|
<time>2026-07-12T08:47:34.000Z</time>
|
|
</trkpt>
|
|
<trkpt lat="55.762848" lon="8.228770">
|
|
<ele>12.403464</ele>
|
|
<time>2026-07-12T08:47:35.000Z</time>
|
|
</trkpt>
|
|
<trkpt lat="55.762898" lon="8.228815">
|
|
<ele>12.362803</ele>
|
|
<time>2026-07-12T08:47:36.000Z</time>
|
|
</trkpt>
|
|
<trkpt lat="55.762947" lon="8.228860">
|
|
<ele>12.322788</ele>
|
|
<time>2026-07-12T08:47:37.000Z</time>
|
|
</trkpt>
|
|
<trkpt lat="55.762997" lon="8.228907">
|
|
<ele>12.281752</ele>
|
|
<time>2026-07-12T08:47:38.000Z</time>
|
|
</trkpt>
|
|
<trkpt lat="55.763050" lon="8.228951">
|
|
<ele>12.239312</ele>
|
|
<time>2026-07-12T08:47:39.000Z</time>
|
|
</trkpt>
|
|
<trkpt lat="55.763100" lon="8.228995">
|
|
<ele>12.198834</ele>
|
|
<time>2026-07-12T08:47:40.000Z</time>
|
|
</trkpt>
|
|
<trkpt lat="55.763149" lon="8.229043">
|
|
<ele>12.158243</ele>
|
|
<time>2026-07-12T08:47:41.000Z</time>
|
|
</trkpt>
|
|
<trkpt lat="55.763199" lon="8.229095">
|
|
<ele>12.116214</ele>
|
|
<time>2026-07-12T08:47:42.000Z</time>
|
|
</trkpt>
|
|
<trkpt lat="55.763252" lon="8.229146">
|
|
<ele>12.072488</ele>
|
|
<time>2026-07-12T08:47:43.000Z</time>
|
|
</trkpt>
|
|
<trkpt lat="55.763306" lon="8.229198">
|
|
<ele>12.027931</ele>
|
|
<time>2026-07-12T08:47:44.000Z</time>
|
|
</trkpt>
|
|
<trkpt lat="55.763355" lon="8.229253">
|
|
<ele>11.985885</ele>
|
|
<time>2026-07-12T08:47:45.000Z</time>
|
|
</trkpt>
|
|
<trkpt lat="55.763409" lon="8.229304">
|
|
<ele>11.941521</ele>
|
|
<time>2026-07-12T08:47:46.000Z</time>
|
|
</trkpt>
|
|
<trkpt lat="55.763462" lon="8.229355">
|
|
<ele>11.897795</ele>
|
|
<time>2026-07-12T08:47:47.000Z</time>
|
|
</trkpt>
|
|
<trkpt lat="55.763519" lon="8.229408">
|
|
<ele>11.851124</ele>
|
|
<time>2026-07-12T08:47:48.000Z</time>
|
|
</trkpt>
|
|
<trkpt lat="55.763573" lon="8.229458">
|
|
<ele>11.806950</ele>
|
|
<time>2026-07-12T08:47:49.000Z</time>
|
|
</trkpt>
|
|
<trkpt lat="55.763630" lon="8.229508">
|
|
<ele>11.760834</ele>
|
|
<time>2026-07-12T08:47:50.000Z</time>
|
|
</trkpt>
|
|
<trkpt lat="55.763679" lon="8.229558">
|
|
<ele>11.719842</ele>
|
|
<time>2026-07-12T08:47:51.000Z</time>
|
|
</trkpt>
|
|
<trkpt lat="55.763733" lon="8.229608">
|
|
<ele>11.675667</ele>
|
|
<time>2026-07-12T08:47:52.000Z</time>
|
|
</trkpt>
|
|
<trkpt lat="55.763782" lon="8.229655">
|
|
<ele>11.635271</ele>
|
|
<time>2026-07-12T08:47:53.000Z</time>
|
|
</trkpt>
|
|
<trkpt lat="55.763832" lon="8.229704">
|
|
<ele>11.593847</ele>
|
|
<time>2026-07-12T08:47:54.000Z</time>
|
|
</trkpt>
|
|
<trkpt lat="55.763882" lon="8.229754">
|
|
<ele>11.552225</ele>
|
|
<time>2026-07-12T08:47:55.000Z</time>
|
|
</trkpt>
|
|
<trkpt lat="55.763931" lon="8.229801">
|
|
<ele>11.511829</ele>
|
|
<time>2026-07-12T08:47:56.000Z</time>
|
|
</trkpt>
|
|
<trkpt lat="55.763981" lon="8.229848">
|
|
<ele>11.470793</ele>
|
|
<time>2026-07-12T08:47:57.000Z</time>
|
|
</trkpt>
|
|
<trkpt lat="55.764030" lon="8.229893">
|
|
<ele>11.430778</ele>
|
|
<time>2026-07-12T08:47:58.000Z</time>
|
|
</trkpt>
|
|
<trkpt lat="55.764076" lon="8.229934">
|
|
<ele>11.393444</ele>
|
|
<time>2026-07-12T08:47:59.000Z</time>
|
|
</trkpt>
|
|
<trkpt lat="55.764114" lon="8.229969">
|
|
<ele>11.362393</ele>
|
|
<time>2026-07-12T08:48:00.000Z</time>
|
|
</trkpt>
|
|
<trkpt lat="55.764149" lon="8.230005">
|
|
<ele>11.331319</ele>
|
|
<time>2026-07-12T08:48:01.000Z</time>
|
|
</trkpt>
|
|
<trkpt lat="55.764183" lon="8.230042">
|
|
<ele>11.299597</ele>
|
|
<time>2026-07-12T08:48:02.000Z</time>
|
|
</trkpt>
|
|
<trkpt lat="55.764214" lon="8.230075">
|
|
<ele>11.270845</ele>
|
|
<time>2026-07-12T08:48:03.000Z</time>
|
|
</trkpt>
|
|
<trkpt lat="55.764244" lon="8.230104">
|
|
<ele>11.243672</ele>
|
|
<time>2026-07-12T08:48:04.000Z</time>
|
|
</trkpt>
|
|
<trkpt lat="55.764282" lon="8.230130">
|
|
<ele>11.211272</ele>
|
|
<time>2026-07-12T08:48:05.000Z</time>
|
|
</trkpt>
|
|
<trkpt lat="55.764320" lon="8.230157">
|
|
<ele>11.178708</ele>
|
|
<time>2026-07-12T08:48:06.000Z</time>
|
|
</trkpt>
|
|
<trkpt lat="55.764355" lon="8.230182">
|
|
<ele>11.148694</ele>
|
|
<time>2026-07-12T08:48:07.000Z</time>
|
|
</trkpt>
|
|
<trkpt lat="55.764389" lon="8.230208">
|
|
<ele>11.119242</ele>
|
|
<time>2026-07-12T08:48:08.000Z</time>
|
|
</trkpt>
|
|
<trkpt lat="55.764423" lon="8.230242">
|
|
<ele>11.088200</ele>
|
|
<time>2026-07-12T08:48:09.000Z</time>
|
|
</trkpt>
|
|
<trkpt lat="55.764469" lon="8.230286">
|
|
<ele>11.046634</ele>
|
|
<time>2026-07-12T08:48:10.000Z</time>
|
|
</trkpt>
|
|
<trkpt lat="55.764511" lon="8.230325">
|
|
<ele>11.008929</ele>
|
|
<time>2026-07-12T08:48:11.000Z</time>
|
|
</trkpt>
|
|
<trkpt lat="55.764553" lon="8.230366">
|
|
<ele>10.970801</ele>
|
|
<time>2026-07-12T08:48:12.000Z</time>
|
|
</trkpt>
|
|
<trkpt lat="55.764591" lon="8.230405">
|
|
<ele>10.935885</ele>
|
|
<time>2026-07-12T08:48:13.000Z</time>
|
|
</trkpt>
|
|
<trkpt lat="55.764633" lon="8.230445">
|
|
<ele>10.897970</ele>
|
|
<time>2026-07-12T08:48:14.000Z</time>
|
|
</trkpt>
|
|
<trkpt lat="55.764675" lon="8.230487">
|
|
<ele>10.859625</ele>
|
|
<time>2026-07-12T08:48:15.000Z</time>
|
|
</trkpt>
|
|
<trkpt lat="55.764717" lon="8.230527">
|
|
<ele>10.821710</ele>
|
|
<time>2026-07-12T08:48:16.000Z</time>
|
|
</trkpt>
|
|
<trkpt lat="55.764759" lon="8.230569">
|
|
<ele>10.783364</ele>
|
|
<time>2026-07-12T08:48:17.000Z</time>
|
|
</trkpt>
|
|
<trkpt lat="55.764801" lon="8.230611">
|
|
<ele>10.745019</ele>
|
|
<time>2026-07-12T08:48:18.000Z</time>
|
|
</trkpt>
|
|
<trkpt lat="55.764843" lon="8.230650">
|
|
<ele>10.707313</ele>
|
|
<time>2026-07-12T08:48:19.000Z</time>
|
|
</trkpt>
|
|
<trkpt lat="55.764889" lon="8.230691">
|
|
<ele>10.666366</ele>
|
|
<time>2026-07-12T08:48:20.000Z</time>
|
|
</trkpt>
|
|
<trkpt lat="55.764935" lon="8.230733">
|
|
<ele>10.625217</ele>
|
|
<time>2026-07-12T08:48:21.000Z</time>
|
|
</trkpt>
|
|
<trkpt lat="55.764984" lon="8.230778">
|
|
<ele>10.581331</ele>
|
|
<time>2026-07-12T08:48:22.000Z</time>
|
|
</trkpt>
|
|
<trkpt lat="55.765034" lon="8.230824">
|
|
<ele>10.536532</ele>
|
|
<time>2026-07-12T08:48:23.000Z</time>
|
|
</trkpt>
|
|
<trkpt lat="55.765083" lon="8.230869">
|
|
<ele>10.492646</ele>
|
|
<time>2026-07-12T08:48:24.000Z</time>
|
|
</trkpt>
|
|
<trkpt lat="55.765133" lon="8.230916">
|
|
<ele>10.447639</ele>
|
|
<time>2026-07-12T08:48:25.000Z</time>
|
|
</trkpt>
|
|
<trkpt lat="55.765183" lon="8.230964">
|
|
<ele>10.402422</ele>
|
|
<time>2026-07-12T08:48:26.000Z</time>
|
|
</trkpt>
|
|
<trkpt lat="55.765236" lon="8.231010">
|
|
<ele>10.355491</ele>
|
|
<time>2026-07-12T08:48:27.000Z</time>
|
|
</trkpt>
|
|
<trkpt lat="55.765286" lon="8.231056">
|
|
<ele>10.310692</ele>
|
|
<time>2026-07-12T08:48:28.000Z</time>
|
|
</trkpt>
|
|
<trkpt lat="55.765331" lon="8.231100">
|
|
<ele>10.269825</ele>
|
|
<time>2026-07-12T08:48:29.000Z</time>
|
|
</trkpt>
|
|
<trkpt lat="55.765381" lon="8.231145">
|
|
<ele>10.225230</ele>
|
|
<time>2026-07-12T08:48:30.000Z</time>
|
|
</trkpt>
|
|
<trkpt lat="55.765430" lon="8.231189">
|
|
<ele>10.181548</ele>
|
|
<time>2026-07-12T08:48:31.000Z</time>
|
|
</trkpt>
|
|
<trkpt lat="55.765480" lon="8.231231">
|
|
<ele>10.137543</ele>
|
|
<time>2026-07-12T08:48:32.000Z</time>
|
|
</trkpt>
|
|
<trkpt lat="55.765530" lon="8.231275">
|
|
<ele>10.093149</ele>
|
|
<time>2026-07-12T08:48:33.000Z</time>
|
|
</trkpt>
|
|
<trkpt lat="55.765575" lon="8.231318">
|
|
<ele>10.052496</ele>
|
|
<time>2026-07-12T08:48:34.000Z</time>
|
|
</trkpt>
|
|
<trkpt lat="55.765621" lon="8.231360">
|
|
<ele>10.011347</ele>
|
|
<time>2026-07-12T08:48:35.000Z</time>
|
|
</trkpt>
|
|
<trkpt lat="55.765667" lon="8.231404">
|
|
<ele>9.969781</ele>
|
|
<time>2026-07-12T08:48:36.000Z</time>
|
|
</trkpt>
|
|
<trkpt lat="55.765713" lon="8.231448">
|
|
<ele>9.928215</ele>
|
|
<time>2026-07-12T08:48:37.000Z</time>
|
|
</trkpt>
|
|
<trkpt lat="55.765762" lon="8.231493">
|
|
<ele>9.916834</ele>
|
|
<time>2026-07-12T08:48:38.000Z</time>
|
|
</trkpt>
|
|
<trkpt lat="55.765808" lon="8.231537">
|
|
<ele>9.913364</ele>
|
|
<time>2026-07-12T08:48:39.000Z</time>
|
|
</trkpt>
|
|
<trkpt lat="55.765854" lon="8.231581">
|
|
<ele>9.909893</ele>
|
|
<time>2026-07-12T08:48:40.000Z</time>
|
|
</trkpt>
|
|
<trkpt lat="55.765896" lon="8.231626">
|
|
<ele>9.906635</ele>
|
|
<time>2026-07-12T08:48:41.000Z</time>
|
|
</trkpt>
|
|
<trkpt lat="55.765942" lon="8.231673">
|
|
<ele>9.903110</ele>
|
|
<time>2026-07-12T08:48:42.000Z</time>
|
|
</trkpt>
|
|
<trkpt lat="55.765984" lon="8.231722">
|
|
<ele>9.899772</ele>
|
|
<time>2026-07-12T08:48:43.000Z</time>
|
|
</trkpt>
|
|
<trkpt lat="55.766029" lon="8.231771">
|
|
<ele>9.896266</ele>
|
|
<time>2026-07-12T08:48:44.000Z</time>
|
|
</trkpt>
|
|
<trkpt lat="55.766075" lon="8.231818">
|
|
<ele>9.892741</ele>
|
|
<time>2026-07-12T08:48:45.000Z</time>
|
|
</trkpt>
|
|
<trkpt lat="55.766117" lon="8.231866">
|
|
<ele>9.889424</ele>
|
|
<time>2026-07-12T08:48:46.000Z</time>
|
|
</trkpt>
|
|
<trkpt lat="55.766155" lon="8.231914">
|
|
<ele>9.886327</ele>
|
|
<time>2026-07-12T08:48:47.000Z</time>
|
|
</trkpt>
|
|
<trkpt lat="55.766197" lon="8.231958">
|
|
<ele>9.883088</ele>
|
|
<time>2026-07-12T08:48:48.000Z</time>
|
|
</trkpt>
|
|
<trkpt lat="55.766235" lon="8.232002">
|
|
<ele>9.880075</ele>
|
|
<time>2026-07-12T08:48:49.000Z</time>
|
|
</trkpt>
|
|
<trkpt lat="55.766270" lon="8.232043">
|
|
<ele>9.877290</ele>
|
|
<time>2026-07-12T08:48:50.000Z</time>
|
|
</trkpt>
|
|
<trkpt lat="55.766300" lon="8.232083">
|
|
<ele>9.874798</ele>
|
|
<time>2026-07-12T08:48:51.000Z</time>
|
|
</trkpt>
|
|
<trkpt lat="55.766331" lon="8.232128">
|
|
<ele>9.872139</ele>
|
|
<time>2026-07-12T08:48:52.000Z</time>
|
|
</trkpt>
|
|
<trkpt lat="55.766369" lon="8.232176">
|
|
<ele>9.869042</ele>
|
|
<time>2026-07-12T08:48:53.000Z</time>
|
|
</trkpt>
|
|
<trkpt lat="55.766403" lon="8.232220">
|
|
<ele>9.866248</ele>
|
|
<time>2026-07-12T08:48:54.000Z</time>
|
|
</trkpt>
|
|
<trkpt lat="55.766441" lon="8.232263">
|
|
<ele>9.863255</ele>
|
|
<time>2026-07-12T08:48:55.000Z</time>
|
|
</trkpt>
|
|
<trkpt lat="55.766476" lon="8.232303">
|
|
<ele>9.860490</ele>
|
|
<time>2026-07-12T08:48:56.000Z</time>
|
|
</trkpt>
|
|
<trkpt lat="55.766514" lon="8.232341">
|
|
<ele>9.857594</ele>
|
|
<time>2026-07-12T08:48:57.000Z</time>
|
|
</trkpt>
|
|
<trkpt lat="55.766556" lon="8.232380">
|
|
<ele>9.854446</ele>
|
|
<time>2026-07-12T08:48:58.000Z</time>
|
|
</trkpt>
|
|
<trkpt lat="55.766590" lon="8.232423">
|
|
<ele>9.851673</ele>
|
|
<time>2026-07-12T08:48:59.000Z</time>
|
|
</trkpt>
|
|
<trkpt lat="55.766624" lon="8.232466">
|
|
<ele>9.848901</ele>
|
|
<time>2026-07-12T08:49:00.000Z</time>
|
|
</trkpt>
|
|
<trkpt lat="55.766663" lon="8.232511">
|
|
<ele>9.845812</ele>
|
|
<time>2026-07-12T08:49:01.000Z</time>
|
|
</trkpt>
|
|
<trkpt lat="55.766708" lon="8.232565">
|
|
<ele>9.842205</ele>
|
|
<time>2026-07-12T08:49:02.000Z</time>
|
|
</trkpt>
|
|
<trkpt lat="55.766746" lon="8.232606">
|
|
<ele>9.839251</ele>
|
|
<time>2026-07-12T08:49:03.000Z</time>
|
|
</trkpt>
|
|
<trkpt lat="55.766785" lon="8.232647">
|
|
<ele>9.836241</ele>
|
|
<time>2026-07-12T08:49:04.000Z</time>
|
|
</trkpt>
|
|
<trkpt lat="55.766827" lon="8.232695">
|
|
<ele>9.832924</ele>
|
|
<time>2026-07-12T08:49:05.000Z</time>
|
|
</trkpt>
|
|
<trkpt lat="55.766865" lon="8.232746">
|
|
<ele>9.829760</ele>
|
|
<time>2026-07-12T08:49:06.000Z</time>
|
|
</trkpt>
|
|
<trkpt lat="55.766903" lon="8.232797">
|
|
<ele>9.826597</ele>
|
|
<time>2026-07-12T08:49:07.000Z</time>
|
|
</trkpt>
|
|
<trkpt lat="55.766945" lon="8.232848">
|
|
<ele>9.823217</ele>
|
|
<time>2026-07-12T08:49:08.000Z</time>
|
|
</trkpt>
|
|
<trkpt lat="55.766991" lon="8.232902">
|
|
<ele>9.819555</ele>
|
|
<time>2026-07-12T08:49:09.000Z</time>
|
|
</trkpt>
|
|
<trkpt lat="55.767033" lon="8.232954">
|
|
<ele>9.816154</ele>
|
|
<time>2026-07-12T08:49:10.000Z</time>
|
|
</trkpt>
|
|
<trkpt lat="55.767075" lon="8.233006">
|
|
<ele>9.812754</ele>
|
|
<time>2026-07-12T08:49:11.000Z</time>
|
|
</trkpt>
|
|
<trkpt lat="55.767120" lon="8.233058">
|
|
<ele>9.809188</ele>
|
|
<time>2026-07-12T08:49:12.000Z</time>
|
|
</trkpt>
|
|
<trkpt lat="55.767162" lon="8.233108">
|
|
<ele>9.805830</ele>
|
|
<time>2026-07-12T08:49:13.000Z</time>
|
|
</trkpt>
|
|
<trkpt lat="55.767204" lon="8.233157">
|
|
<ele>9.802492</ele>
|
|
<time>2026-07-12T08:49:14.000Z</time>
|
|
</trkpt>
|
|
<trkpt lat="55.767254" lon="8.233206">
|
|
<ele>9.799280</ele>
|
|
<time>2026-07-12T08:49:15.000Z</time>
|
|
</trkpt>
|
|
<trkpt lat="55.767300" lon="8.233253">
|
|
<ele>9.797038</ele>
|
|
<time>2026-07-12T08:49:16.000Z</time>
|
|
</trkpt>
|
|
<trkpt lat="55.767342" lon="8.233299">
|
|
<ele>9.794952</ele>
|
|
<time>2026-07-12T08:49:17.000Z</time>
|
|
</trkpt>
|
|
<trkpt lat="55.767387" lon="8.233346">
|
|
<ele>9.792746</ele>
|
|
<time>2026-07-12T08:49:18.000Z</time>
|
|
</trkpt>
|
|
<trkpt lat="55.767433" lon="8.233395">
|
|
<ele>9.790480</ele>
|
|
<time>2026-07-12T08:49:19.000Z</time>
|
|
</trkpt>
|
|
<trkpt lat="55.767475" lon="8.233444">
|
|
<ele>9.788356</ele>
|
|
<time>2026-07-12T08:49:20.000Z</time>
|
|
</trkpt>
|
|
<trkpt lat="55.767517" lon="8.233490">
|
|
<ele>9.786271</ele>
|
|
<time>2026-07-12T08:49:21.000Z</time>
|
|
</trkpt>
|
|
<trkpt lat="55.767559" lon="8.233536">
|
|
<ele>9.784186</ele>
|
|
<time>2026-07-12T08:49:22.000Z</time>
|
|
</trkpt>
|
|
<trkpt lat="55.767597" lon="8.233582">
|
|
<ele>9.782243</ele>
|
|
<time>2026-07-12T08:49:23.000Z</time>
|
|
</trkpt>
|
|
<trkpt lat="55.767639" lon="8.233628">
|
|
<ele>9.780158</ele>
|
|
<time>2026-07-12T08:49:24.000Z</time>
|
|
</trkpt>
|
|
<trkpt lat="55.767689" lon="8.233677">
|
|
<ele>9.777745</ele>
|
|
<time>2026-07-12T08:49:25.000Z</time>
|
|
</trkpt>
|
|
<trkpt lat="55.767731" lon="8.233726">
|
|
<ele>9.775621</ele>
|
|
<time>2026-07-12T08:49:26.000Z</time>
|
|
</trkpt>
|
|
<trkpt lat="55.767773" lon="8.233770">
|
|
<ele>9.773561</ele>
|
|
<time>2026-07-12T08:49:27.000Z</time>
|
|
</trkpt>
|
|
<trkpt lat="55.767811" lon="8.233813">
|
|
<ele>9.771657</ele>
|
|
<time>2026-07-12T08:49:28.000Z</time>
|
|
</trkpt>
|
|
<trkpt lat="55.767845" lon="8.233859">
|
|
<ele>9.769851</ele>
|
|
<time>2026-07-12T08:49:29.000Z</time>
|
|
</trkpt>
|
|
<trkpt lat="55.767899" lon="8.233919">
|
|
<ele>9.767159</ele>
|
|
<time>2026-07-12T08:49:30.000Z</time>
|
|
</trkpt>
|
|
<trkpt lat="55.767940" lon="8.233970">
|
|
<ele>9.765044</ele>
|
|
<time>2026-07-12T08:49:31.000Z</time>
|
|
</trkpt>
|
|
<trkpt lat="55.767986" lon="8.234021">
|
|
<ele>9.762753</ele>
|
|
<time>2026-07-12T08:49:32.000Z</time>
|
|
</trkpt>
|
|
<trkpt lat="55.768028" lon="8.234070">
|
|
<ele>9.760630</ele>
|
|
<time>2026-07-12T08:49:33.000Z</time>
|
|
</trkpt>
|
|
<trkpt lat="55.768070" lon="8.234118">
|
|
<ele>9.758519</ele>
|
|
<time>2026-07-12T08:49:34.000Z</time>
|
|
</trkpt>
|
|
<trkpt lat="55.768112" lon="8.234167">
|
|
<ele>9.756396</ele>
|
|
<time>2026-07-12T08:49:35.000Z</time>
|
|
</trkpt>
|
|
<trkpt lat="55.768158" lon="8.234216">
|
|
<ele>9.754129</ele>
|
|
<time>2026-07-12T08:49:36.000Z</time>
|
|
</trkpt>
|
|
<trkpt lat="55.768200" lon="8.234263">
|
|
<ele>9.752032</ele>
|
|
<time>2026-07-12T08:49:37.000Z</time>
|
|
</trkpt>
|
|
<trkpt lat="55.768242" lon="8.234312">
|
|
<ele>9.749908</ele>
|
|
<time>2026-07-12T08:49:38.000Z</time>
|
|
</trkpt>
|
|
<trkpt lat="55.768284" lon="8.234363">
|
|
<ele>9.747758</ele>
|
|
<time>2026-07-12T08:49:39.000Z</time>
|
|
</trkpt>
|
|
<trkpt lat="55.768330" lon="8.234415">
|
|
<ele>9.745454</ele>
|
|
<time>2026-07-12T08:49:40.000Z</time>
|
|
</trkpt>
|
|
<trkpt lat="55.768372" lon="8.234464">
|
|
<ele>9.743331</ele>
|
|
<time>2026-07-12T08:49:41.000Z</time>
|
|
</trkpt>
|
|
<trkpt lat="55.768414" lon="8.234510">
|
|
<ele>9.741246</ele>
|
|
<time>2026-07-12T08:49:42.000Z</time>
|
|
</trkpt>
|
|
<trkpt lat="55.768455" lon="8.234557">
|
|
<ele>9.739184</ele>
|
|
<time>2026-07-12T08:49:43.000Z</time>
|
|
</trkpt>
|
|
<trkpt lat="55.768494" lon="8.234601">
|
|
<ele>9.737232</ele>
|
|
<time>2026-07-12T08:49:44.000Z</time>
|
|
</trkpt>
|
|
<trkpt lat="55.768532" lon="8.234641">
|
|
<ele>9.735365</ele>
|
|
<time>2026-07-12T08:49:45.000Z</time>
|
|
</trkpt>
|
|
<trkpt lat="55.768574" lon="8.234682">
|
|
<ele>9.733340</ele>
|
|
<time>2026-07-12T08:49:46.000Z</time>
|
|
</trkpt>
|
|
<trkpt lat="55.768612" lon="8.234722">
|
|
<ele>9.731473</ele>
|
|
<time>2026-07-12T08:49:47.000Z</time>
|
|
</trkpt>
|
|
<trkpt lat="55.768650" lon="8.234761">
|
|
<ele>9.729619</ele>
|
|
<time>2026-07-12T08:49:48.000Z</time>
|
|
</trkpt>
|
|
<trkpt lat="55.768688" lon="8.234805">
|
|
<ele>9.727702</ele>
|
|
<time>2026-07-12T08:49:49.000Z</time>
|
|
</trkpt>
|
|
<trkpt lat="55.768726" lon="8.234852">
|
|
<ele>9.725745</ele>
|
|
<time>2026-07-12T08:49:50.000Z</time>
|
|
</trkpt>
|
|
<trkpt lat="55.768765" lon="8.234898">
|
|
<ele>9.721807</ele>
|
|
<time>2026-07-12T08:49:51.000Z</time>
|
|
</trkpt>
|
|
<trkpt lat="55.768803" lon="8.234942">
|
|
<ele>9.712489</ele>
|
|
<time>2026-07-12T08:49:52.000Z</time>
|
|
</trkpt>
|
|
<trkpt lat="55.768841" lon="8.234985">
|
|
<ele>9.703234</ele>
|
|
<time>2026-07-12T08:49:53.000Z</time>
|
|
</trkpt>
|
|
<trkpt lat="55.768879" lon="8.235028">
|
|
<ele>9.693979</ele>
|
|
<time>2026-07-12T08:49:54.000Z</time>
|
|
</trkpt>
|
|
<trkpt lat="55.768913" lon="8.235069">
|
|
<ele>9.685538</ele>
|
|
<time>2026-07-12T08:49:55.000Z</time>
|
|
</trkpt>
|
|
<trkpt lat="55.768940" lon="8.235107">
|
|
<ele>9.678463</ele>
|
|
<time>2026-07-12T08:49:56.000Z</time>
|
|
</trkpt>
|
|
<trkpt lat="55.768963" lon="8.235142">
|
|
<ele>9.672242</ele>
|
|
<time>2026-07-12T08:49:57.000Z</time>
|
|
</trkpt>
|
|
<trkpt lat="55.768982" lon="8.235170">
|
|
<ele>9.667172</ele>
|
|
<time>2026-07-12T08:49:58.000Z</time>
|
|
</trkpt>
|
|
<trkpt lat="55.769001" lon="8.235192">
|
|
<ele>9.662513</ele>
|
|
<time>2026-07-12T08:49:59.000Z</time>
|
|
</trkpt>
|
|
<trkpt lat="55.769016" lon="8.235210">
|
|
<ele>9.658795</ele>
|
|
<time>2026-07-12T08:50:00.000Z</time>
|
|
</trkpt>
|
|
<trkpt lat="55.769032" lon="8.235232">
|
|
<ele>9.654639</ele>
|
|
<time>2026-07-12T08:50:01.000Z</time>
|
|
</trkpt>
|
|
<trkpt lat="55.769051" lon="8.235257">
|
|
<ele>9.649782</ele>
|
|
<time>2026-07-12T08:50:02.000Z</time>
|
|
</trkpt>
|
|
<trkpt lat="55.769073" lon="8.235282">
|
|
<ele>9.644417</ele>
|
|
<time>2026-07-12T08:50:03.000Z</time>
|
|
</trkpt>
|
|
<trkpt lat="55.769100" lon="8.235307">
|
|
<ele>9.638163</ele>
|
|
<time>2026-07-12T08:50:04.000Z</time>
|
|
</trkpt>
|
|
<trkpt lat="55.769131" lon="8.235333">
|
|
<ele>9.631120</ele>
|
|
<time>2026-07-12T08:50:05.000Z</time>
|
|
</trkpt>
|
|
<trkpt lat="55.769161" lon="8.235362">
|
|
<ele>9.624104</ele>
|
|
<time>2026-07-12T08:50:06.000Z</time>
|
|
</trkpt>
|
|
<trkpt lat="55.769192" lon="8.235394">
|
|
<ele>9.616739</ele>
|
|
<time>2026-07-12T08:50:07.000Z</time>
|
|
</trkpt>
|
|
<trkpt lat="55.769226" lon="8.235430">
|
|
<ele>9.608608</ele>
|
|
<time>2026-07-12T08:50:08.000Z</time>
|
|
</trkpt>
|
|
<trkpt lat="55.769260" lon="8.235464">
|
|
<ele>9.600593</ele>
|
|
<time>2026-07-12T08:50:09.000Z</time>
|
|
</trkpt>
|
|
<trkpt lat="55.769295" lon="8.235497">
|
|
<ele>9.592453</ele>
|
|
<time>2026-07-12T08:50:10.000Z</time>
|
|
</trkpt>
|
|
<trkpt lat="55.769329" lon="8.235532">
|
|
<ele>9.584381</ele>
|
|
<time>2026-07-12T08:50:11.000Z</time>
|
|
</trkpt>
|
|
<trkpt lat="55.769356" lon="8.235568">
|
|
<ele>9.577447</ele>
|
|
<time>2026-07-12T08:50:12.000Z</time>
|
|
</trkpt>
|
|
<trkpt lat="55.769390" lon="8.235607">
|
|
<ele>9.569133</ele>
|
|
<time>2026-07-12T08:50:13.000Z</time>
|
|
</trkpt>
|
|
<trkpt lat="55.769428" lon="8.235649">
|
|
<ele>9.559940</ele>
|
|
<time>2026-07-12T08:50:14.000Z</time>
|
|
</trkpt>
|
|
<trkpt lat="55.769459" lon="8.235692">
|
|
<ele>9.551861</ele>
|
|
<time>2026-07-12T08:50:15.000Z</time>
|
|
</trkpt>
|
|
<trkpt lat="55.769497" lon="8.235738">
|
|
<ele>9.542416</ele>
|
|
<time>2026-07-12T08:50:16.000Z</time>
|
|
</trkpt>
|
|
<trkpt lat="55.769531" lon="8.235780">
|
|
<ele>9.533909</ele>
|
|
<time>2026-07-12T08:50:17.000Z</time>
|
|
</trkpt>
|
|
<trkpt lat="55.769569" lon="8.235826">
|
|
<ele>9.524464</ele>
|
|
<time>2026-07-12T08:50:18.000Z</time>
|
|
</trkpt>
|
|
<trkpt lat="55.769600" lon="8.235871">
|
|
<ele>9.516241</ele>
|
|
<time>2026-07-12T08:50:19.000Z</time>
|
|
</trkpt>
|
|
<trkpt lat="55.769630" lon="8.235920">
|
|
<ele>9.507870</ele>
|
|
<time>2026-07-12T08:50:20.000Z</time>
|
|
</trkpt>
|
|
<trkpt lat="55.769669" lon="8.235970">
|
|
<ele>9.497991</ele>
|
|
<time>2026-07-12T08:50:21.000Z</time>
|
|
</trkpt>
|
|
<trkpt lat="55.769711" lon="8.236023">
|
|
<ele>9.487409</ele>
|
|
<time>2026-07-12T08:50:22.000Z</time>
|
|
</trkpt>
|
|
<trkpt lat="55.769760" lon="8.236075">
|
|
<ele>9.475684</ele>
|
|
<time>2026-07-12T08:50:23.000Z</time>
|
|
</trkpt>
|
|
<trkpt lat="55.769802" lon="8.236130">
|
|
<ele>9.464966</ele>
|
|
<time>2026-07-12T08:50:24.000Z</time>
|
|
</trkpt>
|
|
<trkpt lat="55.769844" lon="8.236182">
|
|
<ele>9.454451</ele>
|
|
<time>2026-07-12T08:50:25.000Z</time>
|
|
</trkpt>
|
|
<trkpt lat="55.769882" lon="8.236236">
|
|
<ele>9.444455</ele>
|
|
<time>2026-07-12T08:50:26.000Z</time>
|
|
</trkpt>
|
|
<trkpt lat="55.769920" lon="8.236290">
|
|
<ele>9.434460</ele>
|
|
<time>2026-07-12T08:50:27.000Z</time>
|
|
</trkpt>
|
|
<trkpt lat="55.769955" lon="8.236345">
|
|
<ele>9.424862</ele>
|
|
<time>2026-07-12T08:50:28.000Z</time>
|
|
</trkpt>
|
|
<trkpt lat="55.769989" lon="8.236401">
|
|
<ele>9.415339</ele>
|
|
<time>2026-07-12T08:50:29.000Z</time>
|
|
</trkpt>
|
|
<trkpt lat="55.770023" lon="8.236456">
|
|
<ele>9.405895</ele>
|
|
<time>2026-07-12T08:50:30.000Z</time>
|
|
</trkpt>
|
|
<trkpt lat="55.770058" lon="8.236510">
|
|
<ele>9.396373</ele>
|
|
<time>2026-07-12T08:50:31.000Z</time>
|
|
</trkpt>
|
|
<trkpt lat="55.770092" lon="8.236568">
|
|
<ele>9.386692</ele>
|
|
<time>2026-07-12T08:50:32.000Z</time>
|
|
</trkpt>
|
|
<trkpt lat="55.770126" lon="8.236633">
|
|
<ele>9.376433</ele>
|
|
<time>2026-07-12T08:50:33.000Z</time>
|
|
</trkpt>
|
|
<trkpt lat="55.770157" lon="8.236701">
|
|
<ele>9.366318</ele>
|
|
<time>2026-07-12T08:50:34.000Z</time>
|
|
</trkpt>
|
|
<trkpt lat="55.770187" lon="8.236766">
|
|
<ele>9.356600</ele>
|
|
<time>2026-07-12T08:50:35.000Z</time>
|
|
</trkpt>
|
|
<trkpt lat="55.770222" lon="8.236832">
|
|
<ele>9.342890</ele>
|
|
<time>2026-07-12T08:50:36.000Z</time>
|
|
</trkpt>
|
|
<trkpt lat="55.770256" lon="8.236894">
|
|
<ele>9.329134</ele>
|
|
<time>2026-07-12T08:50:37.000Z</time>
|
|
</trkpt>
|
|
<trkpt lat="55.770290" lon="8.236950">
|
|
<ele>9.316043</ele>
|
|
<time>2026-07-12T08:50:38.000Z</time>
|
|
</trkpt>
|
|
<trkpt lat="55.770325" lon="8.237004">
|
|
<ele>9.302953</ele>
|
|
<time>2026-07-12T08:50:39.000Z</time>
|
|
</trkpt>
|
|
<trkpt lat="55.770351" lon="8.237057">
|
|
<ele>9.291781</ele>
|
|
<time>2026-07-12T08:50:40.000Z</time>
|
|
</trkpt>
|
|
<trkpt lat="55.770382" lon="8.237106">
|
|
<ele>9.280065</ele>
|
|
<time>2026-07-12T08:50:41.000Z</time>
|
|
</trkpt>
|
|
<trkpt lat="55.770416" lon="8.237177">
|
|
<ele>9.265250</ele>
|
|
<time>2026-07-12T08:50:42.000Z</time>
|
|
</trkpt>
|
|
<trkpt lat="55.770443" lon="8.237237">
|
|
<ele>9.253043</ele>
|
|
<time>2026-07-12T08:50:43.000Z</time>
|
|
</trkpt>
|
|
<trkpt lat="55.770470" lon="8.237290">
|
|
<ele>9.241683</ele>
|
|
<time>2026-07-12T08:50:44.000Z</time>
|
|
</trkpt>
|
|
<trkpt lat="55.770496" lon="8.237339">
|
|
<ele>9.230981</ele>
|
|
<time>2026-07-12T08:50:45.000Z</time>
|
|
</trkpt>
|
|
<trkpt lat="55.770523" lon="8.237386">
|
|
<ele>9.220308</ele>
|
|
<time>2026-07-12T08:50:46.000Z</time>
|
|
</trkpt>
|
|
<trkpt lat="55.770546" lon="8.237430">
|
|
<ele>9.210765</ele>
|
|
<time>2026-07-12T08:50:47.000Z</time>
|
|
</trkpt>
|
|
<trkpt lat="55.770569" lon="8.237473">
|
|
<ele>9.201338</ele>
|
|
<time>2026-07-12T08:50:48.000Z</time>
|
|
</trkpt>
|
|
<trkpt lat="55.770592" lon="8.237510">
|
|
<ele>9.192577</ele>
|
|
<time>2026-07-12T08:50:49.000Z</time>
|
|
</trkpt>
|
|
<trkpt lat="55.770615" lon="8.237546">
|
|
<ele>9.183922</ele>
|
|
<time>2026-07-12T08:50:50.000Z</time>
|
|
</trkpt>
|
|
<trkpt lat="55.770638" lon="8.237589">
|
|
<ele>9.174494</ele>
|
|
<time>2026-07-12T08:50:51.000Z</time>
|
|
</trkpt>
|
|
<trkpt lat="55.770660" lon="8.237638">
|
|
<ele>9.164534</ele>
|
|
<time>2026-07-12T08:50:52.000Z</time>
|
|
</trkpt>
|
|
<trkpt lat="55.770683" lon="8.237690">
|
|
<ele>9.154024</ele>
|
|
<time>2026-07-12T08:50:53.000Z</time>
|
|
</trkpt>
|
|
<trkpt lat="55.770710" lon="8.237736">
|
|
<ele>9.143462</ele>
|
|
<time>2026-07-12T08:50:54.000Z</time>
|
|
</trkpt>
|
|
<trkpt lat="55.770741" lon="8.237774">
|
|
<ele>9.132827</ele>
|
|
<time>2026-07-12T08:50:55.000Z</time>
|
|
</trkpt>
|
|
<trkpt lat="55.770775" lon="8.237802">
|
|
<ele>9.122243</ele>
|
|
<time>2026-07-12T08:50:56.000Z</time>
|
|
</trkpt>
|
|
<trkpt lat="55.770809" lon="8.237819">
|
|
<ele>9.112268</ele>
|
|
<time>2026-07-12T08:50:57.000Z</time>
|
|
</trkpt>
|
|
<trkpt lat="55.770843" lon="8.237829">
|
|
<ele>9.102534</ele>
|
|
<time>2026-07-12T08:50:58.000Z</time>
|
|
</trkpt>
|
|
<trkpt lat="55.770874" lon="8.237838">
|
|
<ele>9.093663</ele>
|
|
<time>2026-07-12T08:50:59.000Z</time>
|
|
</trkpt>
|
|
<trkpt lat="55.770905" lon="8.237851">
|
|
<ele>9.084667</ele>
|
|
<time>2026-07-12T08:51:00.000Z</time>
|
|
</trkpt>
|
|
<trkpt lat="55.770935" lon="8.237873">
|
|
<ele>9.075501</ele>
|
|
<time>2026-07-12T08:51:01.000Z</time>
|
|
</trkpt>
|
|
<trkpt lat="55.770969" lon="8.237895">
|
|
<ele>9.065282</ele>
|
|
<time>2026-07-12T08:51:02.000Z</time>
|
|
</trkpt>
|
|
<trkpt lat="55.771008" lon="8.237914">
|
|
<ele>9.053860</ele>
|
|
<time>2026-07-12T08:51:03.000Z</time>
|
|
</trkpt>
|
|
<trkpt lat="55.771046" lon="8.237930">
|
|
<ele>9.042831</ele>
|
|
<time>2026-07-12T08:51:04.000Z</time>
|
|
</trkpt>
|
|
<trkpt lat="55.771084" lon="8.237937">
|
|
<ele>9.032040</ele>
|
|
<time>2026-07-12T08:51:05.000Z</time>
|
|
</trkpt>
|
|
<trkpt lat="55.771126" lon="8.237937">
|
|
<ele>9.020178</ele>
|
|
<time>2026-07-12T08:51:06.000Z</time>
|
|
</trkpt>
|
|
<trkpt lat="55.771179" lon="8.237932">
|
|
<ele>9.005188</ele>
|
|
<time>2026-07-12T08:51:07.000Z</time>
|
|
</trkpt>
|
|
<trkpt lat="55.771225" lon="8.237931">
|
|
<ele>8.992194</ele>
|
|
<time>2026-07-12T08:51:08.000Z</time>
|
|
</trkpt>
|
|
<trkpt lat="55.771282" lon="8.237934">
|
|
<ele>8.976088</ele>
|
|
<time>2026-07-12T08:51:09.000Z</time>
|
|
</trkpt>
|
|
<trkpt lat="55.771332" lon="8.237933">
|
|
<ele>8.961965</ele>
|
|
<time>2026-07-12T08:51:10.000Z</time>
|
|
</trkpt>
|
|
<trkpt lat="55.771381" lon="8.237930">
|
|
<ele>8.948117</ele>
|
|
<time>2026-07-12T08:51:11.000Z</time>
|
|
</trkpt>
|
|
<trkpt lat="55.771431" lon="8.237927">
|
|
<ele>8.933987</ele>
|
|
<time>2026-07-12T08:51:12.000Z</time>
|
|
</trkpt>
|
|
<trkpt lat="55.771481" lon="8.237928">
|
|
<ele>8.919865</ele>
|
|
<time>2026-07-12T08:51:13.000Z</time>
|
|
</trkpt>
|
|
<trkpt lat="55.771530" lon="8.237931">
|
|
<ele>8.906017</ele>
|
|
<time>2026-07-12T08:51:14.000Z</time>
|
|
</trkpt>
|
|
<trkpt lat="55.771580" lon="8.237932">
|
|
<ele>8.891894</ele>
|
|
<time>2026-07-12T08:51:15.000Z</time>
|
|
</trkpt>
|
|
<trkpt lat="55.771626" lon="8.237930">
|
|
<ele>8.878898</ele>
|
|
<time>2026-07-12T08:51:16.000Z</time>
|
|
</trkpt>
|
|
<trkpt lat="55.771675" lon="8.237926">
|
|
<ele>8.865044</ele>
|
|
<time>2026-07-12T08:51:17.000Z</time>
|
|
</trkpt>
|
|
<trkpt lat="55.771729" lon="8.237920">
|
|
<ele>8.849762</ele>
|
|
<time>2026-07-12T08:51:18.000Z</time>
|
|
</trkpt>
|
|
<trkpt lat="55.771782" lon="8.237915">
|
|
<ele>8.851345</ele>
|
|
<time>2026-07-12T08:51:19.000Z</time>
|
|
</trkpt>
|
|
<trkpt lat="55.771835" lon="8.237913">
|
|
<ele>8.857141</ele>
|
|
<time>2026-07-12T08:51:20.000Z</time>
|
|
</trkpt>
|
|
<trkpt lat="55.771889" lon="8.237912">
|
|
<ele>8.863044</ele>
|
|
<time>2026-07-12T08:51:21.000Z</time>
|
|
</trkpt>
|
|
<trkpt lat="55.771946" lon="8.237912">
|
|
<ele>8.869275</ele>
|
|
<time>2026-07-12T08:51:22.000Z</time>
|
|
</trkpt>
|
|
<trkpt lat="55.772011" lon="8.237915">
|
|
<ele>8.876383</ele>
|
|
<time>2026-07-12T08:51:23.000Z</time>
|
|
</trkpt>
|
|
<trkpt lat="55.772072" lon="8.237917">
|
|
<ele>8.883053</ele>
|
|
<time>2026-07-12T08:51:24.000Z</time>
|
|
</trkpt>
|
|
<trkpt lat="55.772137" lon="8.237920">
|
|
<ele>8.890161</ele>
|
|
<time>2026-07-12T08:51:25.000Z</time>
|
|
</trkpt>
|
|
<trkpt lat="55.772198" lon="8.237922">
|
|
<ele>8.896831</ele>
|
|
<time>2026-07-12T08:51:26.000Z</time>
|
|
</trkpt>
|
|
<trkpt lat="55.772259" lon="8.237921">
|
|
<ele>8.903499</ele>
|
|
<time>2026-07-12T08:51:27.000Z</time>
|
|
</trkpt>
|
|
<trkpt lat="55.772320" lon="8.237921">
|
|
<ele>8.910168</ele>
|
|
<time>2026-07-12T08:51:28.000Z</time>
|
|
</trkpt>
|
|
<trkpt lat="55.772381" lon="8.237923">
|
|
<ele>8.916837</ele>
|
|
<time>2026-07-12T08:51:29.000Z</time>
|
|
</trkpt>
|
|
<trkpt lat="55.772438" lon="8.237925">
|
|
<ele>8.923070</ele>
|
|
<time>2026-07-12T08:51:30.000Z</time>
|
|
</trkpt>
|
|
<trkpt lat="55.772499" lon="8.237926">
|
|
<ele>8.929739</ele>
|
|
<time>2026-07-12T08:51:31.000Z</time>
|
|
</trkpt>
|
|
<trkpt lat="55.772556" lon="8.237926">
|
|
<ele>8.935970</ele>
|
|
<time>2026-07-12T08:51:32.000Z</time>
|
|
</trkpt>
|
|
<trkpt lat="55.772614" lon="8.237924">
|
|
<ele>8.942311</ele>
|
|
<time>2026-07-12T08:51:33.000Z</time>
|
|
</trkpt>
|
|
<trkpt lat="55.772671" lon="8.237920">
|
|
<ele>8.948547</ele>
|
|
<time>2026-07-12T08:51:34.000Z</time>
|
|
</trkpt>
|
|
<trkpt lat="55.772732" lon="8.237915">
|
|
<ele>8.955223</ele>
|
|
<time>2026-07-12T08:51:35.000Z</time>
|
|
</trkpt>
|
|
<trkpt lat="55.772789" lon="8.237912">
|
|
<ele>8.961457</ele>
|
|
<time>2026-07-12T08:51:36.000Z</time>
|
|
</trkpt>
|
|
<trkpt lat="55.772846" lon="8.237911">
|
|
<ele>8.967688</ele>
|
|
<time>2026-07-12T08:51:37.000Z</time>
|
|
</trkpt>
|
|
<trkpt lat="55.772907" lon="8.237907">
|
|
<ele>8.974361</ele>
|
|
<time>2026-07-12T08:51:38.000Z</time>
|
|
</trkpt>
|
|
<trkpt lat="55.772968" lon="8.237903">
|
|
<ele>8.981034</ele>
|
|
<time>2026-07-12T08:51:39.000Z</time>
|
|
</trkpt>
|
|
<trkpt lat="55.773026" lon="8.237899">
|
|
<ele>8.987380</ele>
|
|
<time>2026-07-12T08:51:40.000Z</time>
|
|
</trkpt>
|
|
<trkpt lat="55.773083" lon="8.237896">
|
|
<ele>8.993613</ele>
|
|
<time>2026-07-12T08:51:41.000Z</time>
|
|
</trkpt>
|
|
<trkpt lat="55.773140" lon="8.237894">
|
|
<ele>8.999846</ele>
|
|
<time>2026-07-12T08:51:42.000Z</time>
|
|
</trkpt>
|
|
<trkpt lat="55.773201" lon="8.237892">
|
|
<ele>9.006515</ele>
|
|
<time>2026-07-12T08:51:43.000Z</time>
|
|
</trkpt>
|
|
<trkpt lat="55.773262" lon="8.237890">
|
|
<ele>9.013185</ele>
|
|
<time>2026-07-12T08:51:44.000Z</time>
|
|
</trkpt>
|
|
<trkpt lat="55.773319" lon="8.237886">
|
|
<ele>9.019421</ele>
|
|
<time>2026-07-12T08:51:45.000Z</time>
|
|
</trkpt>
|
|
<trkpt lat="55.773376" lon="8.237884">
|
|
<ele>9.025653</ele>
|
|
<time>2026-07-12T08:51:46.000Z</time>
|
|
</trkpt>
|
|
<trkpt lat="55.773430" lon="8.237882">
|
|
<ele>9.031558</ele>
|
|
<time>2026-07-12T08:51:47.000Z</time>
|
|
</trkpt>
|
|
<trkpt lat="55.773491" lon="8.237884">
|
|
<ele>9.038228</ele>
|
|
<time>2026-07-12T08:51:48.000Z</time>
|
|
</trkpt>
|
|
<trkpt lat="55.773552" lon="8.237888">
|
|
<ele>9.046526</ele>
|
|
<time>2026-07-12T08:51:49.000Z</time>
|
|
</trkpt>
|
|
<trkpt lat="55.773613" lon="8.237891">
|
|
<ele>9.060172</ele>
|
|
<time>2026-07-12T08:51:50.000Z</time>
|
|
</trkpt>
|
|
<trkpt lat="55.773674" lon="8.237894">
|
|
<ele>9.073818</ele>
|
|
<time>2026-07-12T08:51:51.000Z</time>
|
|
</trkpt>
|
|
<trkpt lat="55.773735" lon="8.237896">
|
|
<ele>9.087461</ele>
|
|
<time>2026-07-12T08:51:52.000Z</time>
|
|
</trkpt>
|
|
<trkpt lat="55.773796" lon="8.237899">
|
|
<ele>9.101106</ele>
|
|
<time>2026-07-12T08:51:53.000Z</time>
|
|
</trkpt>
|
|
<trkpt lat="55.773853" lon="8.237899">
|
|
<ele>9.113853</ele>
|
|
<time>2026-07-12T08:51:54.000Z</time>
|
|
</trkpt>
|
|
<trkpt lat="55.773910" lon="8.237897">
|
|
<ele>9.126601</ele>
|
|
<time>2026-07-12T08:51:55.000Z</time>
|
|
</trkpt>
|
|
<trkpt lat="55.773964" lon="8.237896">
|
|
<ele>9.138677</ele>
|
|
<time>2026-07-12T08:51:56.000Z</time>
|
|
</trkpt>
|
|
<trkpt lat="55.774017" lon="8.237893">
|
|
<ele>9.150535</ele>
|
|
<time>2026-07-12T08:51:57.000Z</time>
|
|
</trkpt>
|
|
<trkpt lat="55.774075" lon="8.237889">
|
|
<ele>9.163515</ele>
|
|
<time>2026-07-12T08:51:58.000Z</time>
|
|
</trkpt>
|
|
<trkpt lat="55.774128" lon="8.237887">
|
|
<ele>9.175369</ele>
|
|
<time>2026-07-12T08:51:59.000Z</time>
|
|
</trkpt>
|
|
<trkpt lat="55.774178" lon="8.237884">
|
|
<ele>9.186556</ele>
|
|
<time>2026-07-12T08:52:00.000Z</time>
|
|
</trkpt>
|
|
<trkpt lat="55.774227" lon="8.237882">
|
|
<ele>9.197517</ele>
|
|
<time>2026-07-12T08:52:01.000Z</time>
|
|
</trkpt>
|
|
<trkpt lat="55.774277" lon="8.237883">
|
|
<ele>9.208698</ele>
|
|
<time>2026-07-12T08:52:02.000Z</time>
|
|
</trkpt>
|
|
<trkpt lat="55.774330" lon="8.237885">
|
|
<ele>9.220553</ele>
|
|
<time>2026-07-12T08:52:03.000Z</time>
|
|
</trkpt>
|
|
<trkpt lat="55.774376" lon="8.237886">
|
|
<ele>9.230840</ele>
|
|
<time>2026-07-12T08:52:04.000Z</time>
|
|
</trkpt>
|
|
<trkpt lat="55.774422" lon="8.237890">
|
|
<ele>9.241138</ele>
|
|
<time>2026-07-12T08:52:05.000Z</time>
|
|
</trkpt>
|
|
<trkpt lat="55.774471" lon="8.237895">
|
|
<ele>9.252114</ele>
|
|
<time>2026-07-12T08:52:06.000Z</time>
|
|
</trkpt>
|
|
<trkpt lat="55.774517" lon="8.237897">
|
|
<ele>9.262403</ele>
|
|
<time>2026-07-12T08:52:07.000Z</time>
|
|
</trkpt>
|
|
<trkpt lat="55.774567" lon="8.237895">
|
|
<ele>9.273587</ele>
|
|
<time>2026-07-12T08:52:08.000Z</time>
|
|
</trkpt>
|
|
<trkpt lat="55.774616" lon="8.237892">
|
|
<ele>9.284551</ele>
|
|
<time>2026-07-12T08:52:09.000Z</time>
|
|
</trkpt>
|
|
<trkpt lat="55.774670" lon="8.237890">
|
|
<ele>9.296629</ele>
|
|
<time>2026-07-12T08:52:10.000Z</time>
|
|
</trkpt>
|
|
<trkpt lat="55.774723" lon="8.237888">
|
|
<ele>9.308483</ele>
|
|
<time>2026-07-12T08:52:11.000Z</time>
|
|
</trkpt>
|
|
<trkpt lat="55.774780" lon="8.237888">
|
|
<ele>9.321229</ele>
|
|
<time>2026-07-12T08:52:12.000Z</time>
|
|
</trkpt>
|
|
<trkpt lat="55.774837" lon="8.237887">
|
|
<ele>9.333976</ele>
|
|
<time>2026-07-12T08:52:13.000Z</time>
|
|
</trkpt>
|
|
<trkpt lat="55.774891" lon="8.237886">
|
|
<ele>9.346052</ele>
|
|
<time>2026-07-12T08:52:14.000Z</time>
|
|
</trkpt>
|
|
<trkpt lat="55.774944" lon="8.237888">
|
|
<ele>9.357907</ele>
|
|
<time>2026-07-12T08:52:15.000Z</time>
|
|
</trkpt>
|
|
<trkpt lat="55.775005" lon="8.237891">
|
|
<ele>9.371553</ele>
|
|
<time>2026-07-12T08:52:16.000Z</time>
|
|
</trkpt>
|
|
<trkpt lat="55.775063" lon="8.237894">
|
|
<ele>9.384528</ele>
|
|
<time>2026-07-12T08:52:17.000Z</time>
|
|
</trkpt>
|
|
<trkpt lat="55.775124" lon="8.237896">
|
|
<ele>9.398171</ele>
|
|
<time>2026-07-12T08:52:18.000Z</time>
|
|
</trkpt>
|
|
<trkpt lat="55.775181" lon="8.237895">
|
|
<ele>9.410918</ele>
|
|
<time>2026-07-12T08:52:19.000Z</time>
|
|
</trkpt>
|
|
<trkpt lat="55.775238" lon="8.237892">
|
|
<ele>9.423670</ele>
|
|
<time>2026-07-12T08:52:20.000Z</time>
|
|
</trkpt>
|
|
<trkpt lat="55.775291" lon="8.237891">
|
|
<ele>9.435522</ele>
|
|
<time>2026-07-12T08:52:21.000Z</time>
|
|
</trkpt>
|
|
<trkpt lat="55.775341" lon="8.237889">
|
|
<ele>9.443625</ele>
|
|
<time>2026-07-12T08:52:22.000Z</time>
|
|
</trkpt>
|
|
<trkpt lat="55.775398" lon="8.237888">
|
|
<ele>9.422251</ele>
|
|
<time>2026-07-12T08:52:23.000Z</time>
|
|
</trkpt>
|
|
<trkpt lat="55.775452" lon="8.237886">
|
|
<ele>9.401998</ele>
|
|
<time>2026-07-12T08:52:24.000Z</time>
|
|
</trkpt>
|
|
<trkpt lat="55.775513" lon="8.237882">
|
|
<ele>9.379110</ele>
|
|
<time>2026-07-12T08:52:25.000Z</time>
|
|
</trkpt>
|
|
<trkpt lat="55.775574" lon="8.237878">
|
|
<ele>9.356221</ele>
|
|
<time>2026-07-12T08:52:26.000Z</time>
|
|
</trkpt>
|
|
<trkpt lat="55.775635" lon="8.237875">
|
|
<ele>9.333340</ele>
|
|
<time>2026-07-12T08:52:27.000Z</time>
|
|
</trkpt>
|
|
<trkpt lat="55.775700" lon="8.237870">
|
|
<ele>9.308944</ele>
|
|
<time>2026-07-12T08:52:28.000Z</time>
|
|
</trkpt>
|
|
<trkpt lat="55.775761" lon="8.237866">
|
|
<ele>9.286056</ele>
|
|
<time>2026-07-12T08:52:29.000Z</time>
|
|
</trkpt>
|
|
<trkpt lat="55.775822" lon="8.237862">
|
|
<ele>9.263167</ele>
|
|
<time>2026-07-12T08:52:30.000Z</time>
|
|
</trkpt>
|
|
<trkpt lat="55.775883" lon="8.237863">
|
|
<ele>9.240293</ele>
|
|
<time>2026-07-12T08:52:31.000Z</time>
|
|
</trkpt>
|
|
<trkpt lat="55.775944" lon="8.237867">
|
|
<ele>9.217405</ele>
|
|
<time>2026-07-12T08:52:32.000Z</time>
|
|
</trkpt>
|
|
<trkpt lat="55.776001" lon="8.237871">
|
|
<ele>9.196015</ele>
|
|
<time>2026-07-12T08:52:33.000Z</time>
|
|
</trkpt>
|
|
<trkpt lat="55.776058" lon="8.237872">
|
|
<ele>9.174641</ele>
|
|
<time>2026-07-12T08:52:34.000Z</time>
|
|
</trkpt>
|
|
<trkpt lat="55.776119" lon="8.237871">
|
|
<ele>9.151767</ele>
|
|
<time>2026-07-12T08:52:35.000Z</time>
|
|
</trkpt>
|
|
<trkpt lat="55.776173" lon="8.237868">
|
|
<ele>9.131509</ele>
|
|
<time>2026-07-12T08:52:36.000Z</time>
|
|
</trkpt>
|
|
<trkpt lat="55.776226" lon="8.237865">
|
|
<ele>9.111626</ele>
|
|
<time>2026-07-12T08:52:37.000Z</time>
|
|
</trkpt>
|
|
<trkpt lat="55.776283" lon="8.237862">
|
|
<ele>9.090244</ele>
|
|
<time>2026-07-12T08:52:38.000Z</time>
|
|
</trkpt>
|
|
<trkpt lat="55.776344" lon="8.237860">
|
|
<ele>9.067367</ele>
|
|
<time>2026-07-12T08:52:39.000Z</time>
|
|
</trkpt>
|
|
<trkpt lat="55.776405" lon="8.237861">
|
|
<ele>9.044493</ele>
|
|
<time>2026-07-12T08:52:40.000Z</time>
|
|
</trkpt>
|
|
<trkpt lat="55.776466" lon="8.237863">
|
|
<ele>9.021616</ele>
|
|
<time>2026-07-12T08:52:41.000Z</time>
|
|
</trkpt>
|
|
<trkpt lat="55.776531" lon="8.237865">
|
|
<ele>8.997240</ele>
|
|
<time>2026-07-12T08:52:42.000Z</time>
|
|
</trkpt>
|
|
<trkpt lat="55.776596" lon="8.237865">
|
|
<ele>8.972867</ele>
|
|
<time>2026-07-12T08:52:43.000Z</time>
|
|
</trkpt>
|
|
<trkpt lat="55.776657" lon="8.237868">
|
|
<ele>8.949985</ele>
|
|
<time>2026-07-12T08:52:44.000Z</time>
|
|
</trkpt>
|
|
<trkpt lat="55.776714" lon="8.237872">
|
|
<ele>8.928596</ele>
|
|
<time>2026-07-12T08:52:45.000Z</time>
|
|
</trkpt>
|
|
<trkpt lat="55.776772" lon="8.237879">
|
|
<ele>8.906797</ele>
|
|
<time>2026-07-12T08:52:46.000Z</time>
|
|
</trkpt>
|
|
<trkpt lat="55.776825" lon="8.237886">
|
|
<ele>8.886870</ele>
|
|
<time>2026-07-12T08:52:47.000Z</time>
|
|
</trkpt>
|
|
<trkpt lat="55.776882" lon="8.237891">
|
|
<ele>8.865470</ele>
|
|
<time>2026-07-12T08:52:48.000Z</time>
|
|
</trkpt>
|
|
<trkpt lat="55.776936" lon="8.237891">
|
|
<ele>8.845222</ele>
|
|
<time>2026-07-12T08:52:49.000Z</time>
|
|
</trkpt>
|
|
<trkpt lat="55.776985" lon="8.237890">
|
|
<ele>8.826848</ele>
|
|
<time>2026-07-12T08:52:50.000Z</time>
|
|
</trkpt>
|
|
<trkpt lat="55.777050" lon="8.237891">
|
|
<ele>8.802474</ele>
|
|
<time>2026-07-12T08:52:51.000Z</time>
|
|
</trkpt>
|
|
<trkpt lat="55.777096" lon="8.237891">
|
|
<ele>8.785226</ele>
|
|
<time>2026-07-12T08:52:52.000Z</time>
|
|
</trkpt>
|
|
<trkpt lat="55.777142" lon="8.237888">
|
|
<ele>8.775088</ele>
|
|
<time>2026-07-12T08:52:53.000Z</time>
|
|
</trkpt>
|
|
<trkpt lat="55.777191" lon="8.237884">
|
|
<ele>8.798161</ele>
|
|
<time>2026-07-12T08:52:54.000Z</time>
|
|
</trkpt>
|
|
<trkpt lat="55.777237" lon="8.237879">
|
|
<ele>8.819839</ele>
|
|
<time>2026-07-12T08:52:55.000Z</time>
|
|
</trkpt>
|
|
<trkpt lat="55.777279" lon="8.237872">
|
|
<ele>8.839681</ele>
|
|
<time>2026-07-12T08:52:56.000Z</time>
|
|
</trkpt>
|
|
<trkpt lat="55.777325" lon="8.237865">
|
|
<ele>8.861397</ele>
|
|
<time>2026-07-12T08:52:57.000Z</time>
|
|
</trkpt>
|
|
<trkpt lat="55.777370" lon="8.237859">
|
|
<ele>8.882624</ele>
|
|
<time>2026-07-12T08:52:58.000Z</time>
|
|
</trkpt>
|
|
<trkpt lat="55.777416" lon="8.237860">
|
|
<ele>8.904262</ele>
|
|
<time>2026-07-12T08:52:59.000Z</time>
|
|
</trkpt>
|
|
<trkpt lat="55.777477" lon="8.237858">
|
|
<ele>8.932960</ele>
|
|
<time>2026-07-12T08:53:00.000Z</time>
|
|
</trkpt>
|
|
<trkpt lat="55.777534" lon="8.237851">
|
|
<ele>8.959835</ele>
|
|
<time>2026-07-12T08:53:01.000Z</time>
|
|
</trkpt>
|
|
<trkpt lat="55.777592" lon="8.237850">
|
|
<ele>8.987118</ele>
|
|
<time>2026-07-12T08:53:02.000Z</time>
|
|
</trkpt>
|
|
<trkpt lat="55.777649" lon="8.237851">
|
|
<ele>9.013931</ele>
|
|
<time>2026-07-12T08:53:03.000Z</time>
|
|
</trkpt>
|
|
<trkpt lat="55.777706" lon="8.237846">
|
|
<ele>9.040775</ele>
|
|
<time>2026-07-12T08:53:04.000Z</time>
|
|
</trkpt>
|
|
<trkpt lat="55.777763" lon="8.237842">
|
|
<ele>9.067607</ele>
|
|
<time>2026-07-12T08:53:05.000Z</time>
|
|
</trkpt>
|
|
<trkpt lat="55.777821" lon="8.237841">
|
|
<ele>9.094890</ele>
|
|
<time>2026-07-12T08:53:06.000Z</time>
|
|
</trkpt>
|
|
<trkpt lat="55.777889" lon="8.237840">
|
|
<ele>9.126877</ele>
|
|
<time>2026-07-12T08:53:07.000Z</time>
|
|
</trkpt>
|
|
<trkpt lat="55.777950" lon="8.237837">
|
|
<ele>9.155580</ele>
|
|
<time>2026-07-12T08:53:08.000Z</time>
|
|
</trkpt>
|
|
<trkpt lat="55.778000" lon="8.237830">
|
|
<ele>9.179172</ele>
|
|
<time>2026-07-12T08:53:09.000Z</time>
|
|
</trkpt>
|
|
<trkpt lat="55.778049" lon="8.237826">
|
|
<ele>9.202244</ele>
|
|
<time>2026-07-12T08:53:10.000Z</time>
|
|
</trkpt>
|
|
<trkpt lat="55.778099" lon="8.237825">
|
|
<ele>9.225765</ele>
|
|
<time>2026-07-12T08:53:11.000Z</time>
|
|
</trkpt>
|
|
<trkpt lat="55.778156" lon="8.237822">
|
|
<ele>9.252588</ele>
|
|
<time>2026-07-12T08:53:12.000Z</time>
|
|
</trkpt>
|
|
<trkpt lat="55.778217" lon="8.237821">
|
|
<ele>9.281282</ele>
|
|
<time>2026-07-12T08:53:13.000Z</time>
|
|
</trkpt>
|
|
<trkpt lat="55.778278" lon="8.237821">
|
|
<ele>9.309975</ele>
|
|
<time>2026-07-12T08:53:14.000Z</time>
|
|
</trkpt>
|
|
<trkpt lat="55.778339" lon="8.237823">
|
|
<ele>9.338672</ele>
|
|
<time>2026-07-12T08:53:15.000Z</time>
|
|
</trkpt>
|
|
<trkpt lat="55.778404" lon="8.237826">
|
|
<ele>9.369257</ele>
|
|
<time>2026-07-12T08:53:16.000Z</time>
|
|
</trkpt>
|
|
<trkpt lat="55.778473" lon="8.237824">
|
|
<ele>9.401717</ele>
|
|
<time>2026-07-12T08:53:17.000Z</time>
|
|
</trkpt>
|
|
<trkpt lat="55.778538" lon="8.237821">
|
|
<ele>9.432302</ele>
|
|
<time>2026-07-12T08:53:18.000Z</time>
|
|
</trkpt>
|
|
<trkpt lat="55.778595" lon="8.237823">
|
|
<ele>9.459118</ele>
|
|
<time>2026-07-12T08:53:19.000Z</time>
|
|
</trkpt>
|
|
<trkpt lat="55.778652" lon="8.237827">
|
|
<ele>9.485950</ele>
|
|
<time>2026-07-12T08:53:20.000Z</time>
|
|
</trkpt>
|
|
<trkpt lat="55.778713" lon="8.237837">
|
|
<ele>9.514765</ele>
|
|
<time>2026-07-12T08:53:21.000Z</time>
|
|
</trkpt>
|
|
<trkpt lat="55.778786" lon="8.237852">
|
|
<ele>9.549331</ele>
|
|
<time>2026-07-12T08:53:22.000Z</time>
|
|
</trkpt>
|
|
<trkpt lat="55.778854" lon="8.237867">
|
|
<ele>9.581561</ele>
|
|
<time>2026-07-12T08:53:23.000Z</time>
|
|
</trkpt>
|
|
<trkpt lat="55.778915" lon="8.237883">
|
|
<ele>9.610565</ele>
|
|
<time>2026-07-12T08:53:24.000Z</time>
|
|
</trkpt>
|
|
<trkpt lat="55.778976" lon="8.237895">
|
|
<ele>9.606534</ele>
|
|
<time>2026-07-12T08:53:25.000Z</time>
|
|
</trkpt>
|
|
<trkpt lat="55.779049" lon="8.237908">
|
|
<ele>9.590069</ele>
|
|
<time>2026-07-12T08:53:26.000Z</time>
|
|
</trkpt>
|
|
<trkpt lat="55.779121" lon="8.237929">
|
|
<ele>9.573694</ele>
|
|
<time>2026-07-12T08:53:27.000Z</time>
|
|
</trkpt>
|
|
<trkpt lat="55.779190" lon="8.237952">
|
|
<ele>9.557939</ele>
|
|
<time>2026-07-12T08:53:28.000Z</time>
|
|
</trkpt>
|
|
<trkpt lat="55.779255" lon="8.237973">
|
|
<ele>9.543112</ele>
|
|
<time>2026-07-12T08:53:29.000Z</time>
|
|
</trkpt>
|
|
<trkpt lat="55.779316" lon="8.237990">
|
|
<ele>9.529255</ele>
|
|
<time>2026-07-12T08:53:30.000Z</time>
|
|
</trkpt>
|
|
<trkpt lat="55.779373" lon="8.238005">
|
|
<ele>9.516323</ele>
|
|
<time>2026-07-12T08:53:31.000Z</time>
|
|
</trkpt>
|
|
<trkpt lat="55.779442" lon="8.238018">
|
|
<ele>9.500751</ele>
|
|
<time>2026-07-12T08:53:32.000Z</time>
|
|
</trkpt>
|
|
<trkpt lat="55.779514" lon="8.238033">
|
|
<ele>9.484482</ele>
|
|
<time>2026-07-12T08:53:33.000Z</time>
|
|
</trkpt>
|
|
<trkpt lat="55.779583" lon="8.238048">
|
|
<ele>9.468881</ele>
|
|
<time>2026-07-12T08:53:34.000Z</time>
|
|
</trkpt>
|
|
<trkpt lat="55.779648" lon="8.238060">
|
|
<ele>9.454215</ele>
|
|
<time>2026-07-12T08:53:35.000Z</time>
|
|
</trkpt>
|
|
<trkpt lat="55.779720" lon="8.238073">
|
|
<ele>9.437973</ele>
|
|
<time>2026-07-12T08:53:36.000Z</time>
|
|
</trkpt>
|
|
<trkpt lat="55.779797" lon="8.238092">
|
|
<ele>9.420527</ele>
|
|
<time>2026-07-12T08:53:37.000Z</time>
|
|
</trkpt>
|
|
<trkpt lat="55.779873" lon="8.238111">
|
|
<ele>9.403303</ele>
|
|
<time>2026-07-12T08:53:38.000Z</time>
|
|
</trkpt>
|
|
<trkpt lat="55.779945" lon="8.238131">
|
|
<ele>9.386948</ele>
|
|
<time>2026-07-12T08:53:39.000Z</time>
|
|
</trkpt>
|
|
<trkpt lat="55.780014" lon="8.238149">
|
|
<ele>9.371297</ele>
|
|
<time>2026-07-12T08:53:40.000Z</time>
|
|
</trkpt>
|
|
<trkpt lat="55.780075" lon="8.238164">
|
|
<ele>9.357477</ele>
|
|
<time>2026-07-12T08:53:41.000Z</time>
|
|
</trkpt>
|
|
<trkpt lat="55.780136" lon="8.238179">
|
|
<ele>9.343656</ele>
|
|
<time>2026-07-12T08:53:42.000Z</time>
|
|
</trkpt>
|
|
<trkpt lat="55.780197" lon="8.238193">
|
|
<ele>9.329853</ele>
|
|
<time>2026-07-12T08:53:43.000Z</time>
|
|
</trkpt>
|
|
<trkpt lat="55.780262" lon="8.238209">
|
|
<ele>9.315126</ele>
|
|
<time>2026-07-12T08:53:44.000Z</time>
|
|
</trkpt>
|
|
<trkpt lat="55.780327" lon="8.238220">
|
|
<ele>9.300472</ele>
|
|
<time>2026-07-12T08:53:45.000Z</time>
|
|
</trkpt>
|
|
<trkpt lat="55.780388" lon="8.238231">
|
|
<ele>9.286712</ele>
|
|
<time>2026-07-12T08:53:46.000Z</time>
|
|
</trkpt>
|
|
<trkpt lat="55.780453" lon="8.238238">
|
|
<ele>9.272098</ele>
|
|
<time>2026-07-12T08:53:47.000Z</time>
|
|
</trkpt>
|
|
<trkpt lat="55.780518" lon="8.238242">
|
|
<ele>9.257501</ele>
|
|
<time>2026-07-12T08:53:48.000Z</time>
|
|
</trkpt>
|
|
<trkpt lat="55.780575" lon="8.238251">
|
|
<ele>9.244658</ele>
|
|
<time>2026-07-12T08:53:49.000Z</time>
|
|
</trkpt>
|
|
<trkpt lat="55.780636" lon="8.238259">
|
|
<ele>9.230931</ele>
|
|
<time>2026-07-12T08:53:50.000Z</time>
|
|
</trkpt>
|
|
<trkpt lat="55.780701" lon="8.238269">
|
|
<ele>9.216289</ele>
|
|
<time>2026-07-12T08:53:51.000Z</time>
|
|
</trkpt>
|
|
<trkpt lat="55.780766" lon="8.238281">
|
|
<ele>9.216830</ele>
|
|
<time>2026-07-12T08:53:52.000Z</time>
|
|
</trkpt>
|
|
<trkpt lat="55.780823" lon="8.238297">
|
|
<ele>9.220465</ele>
|
|
<time>2026-07-12T08:53:53.000Z</time>
|
|
</trkpt>
|
|
<trkpt lat="55.780884" lon="8.238313">
|
|
<ele>9.224349</ele>
|
|
<time>2026-07-12T08:53:54.000Z</time>
|
|
</trkpt>
|
|
<trkpt lat="55.780941" lon="8.238328">
|
|
<ele>9.227979</ele>
|
|
<time>2026-07-12T08:53:55.000Z</time>
|
|
</trkpt>
|
|
<trkpt lat="55.780998" lon="8.238338">
|
|
<ele>9.231587</ele>
|
|
<time>2026-07-12T08:53:56.000Z</time>
|
|
</trkpt>
|
|
<trkpt lat="55.781055" lon="8.238348">
|
|
<ele>9.235195</ele>
|
|
<time>2026-07-12T08:53:57.000Z</time>
|
|
</trkpt>
|
|
<trkpt lat="55.781113" lon="8.238361">
|
|
<ele>9.238878</ele>
|
|
<time>2026-07-12T08:53:58.000Z</time>
|
|
</trkpt>
|
|
<trkpt lat="55.781170" lon="8.238376">
|
|
<ele>9.242508</ele>
|
|
<time>2026-07-12T08:53:59.000Z</time>
|
|
</trkpt>
|
|
<trkpt lat="55.781231" lon="8.238389">
|
|
<ele>9.246378</ele>
|
|
<time>2026-07-12T08:54:00.000Z</time>
|
|
</trkpt>
|
|
<trkpt lat="55.781284" lon="8.238402">
|
|
<ele>9.249748</ele>
|
|
<time>2026-07-12T08:54:01.000Z</time>
|
|
</trkpt>
|
|
<trkpt lat="55.781342" lon="8.238415">
|
|
<ele>9.253431</ele>
|
|
<time>2026-07-12T08:54:02.000Z</time>
|
|
</trkpt>
|
|
<trkpt lat="55.781403" lon="8.238423">
|
|
<ele>9.257284</ele>
|
|
<time>2026-07-12T08:54:03.000Z</time>
|
|
</trkpt>
|
|
<trkpt lat="55.781460" lon="8.238430">
|
|
<ele>9.260883</ele>
|
|
<time>2026-07-12T08:54:04.000Z</time>
|
|
</trkpt>
|
|
<trkpt lat="55.781517" lon="8.238442">
|
|
<ele>9.264499</ele>
|
|
<time>2026-07-12T08:54:05.000Z</time>
|
|
</trkpt>
|
|
<trkpt lat="55.781574" lon="8.238459">
|
|
<ele>9.268140</ele>
|
|
<time>2026-07-12T08:54:06.000Z</time>
|
|
</trkpt>
|
|
<trkpt lat="55.781628" lon="8.238477">
|
|
<ele>9.271600</ele>
|
|
<time>2026-07-12T08:54:07.000Z</time>
|
|
</trkpt>
|
|
<trkpt lat="55.781685" lon="8.238492">
|
|
<ele>9.275230</ele>
|
|
<time>2026-07-12T08:54:08.000Z</time>
|
|
</trkpt>
|
|
<trkpt lat="55.781742" lon="8.238505">
|
|
<ele>9.278850</ele>
|
|
<time>2026-07-12T08:54:09.000Z</time>
|
|
</trkpt>
|
|
<trkpt lat="55.781796" lon="8.238519">
|
|
<ele>9.282288</ele>
|
|
<time>2026-07-12T08:54:10.000Z</time>
|
|
</trkpt>
|
|
<trkpt lat="55.781845" lon="8.238534">
|
|
<ele>9.285420</ele>
|
|
<time>2026-07-12T08:54:11.000Z</time>
|
|
</trkpt>
|
|
<trkpt lat="55.781899" lon="8.238552">
|
|
<ele>9.288881</ele>
|
|
<time>2026-07-12T08:54:12.000Z</time>
|
|
</trkpt>
|
|
<trkpt lat="55.781956" lon="8.238568">
|
|
<ele>9.292516</ele>
|
|
<time>2026-07-12T08:54:13.000Z</time>
|
|
</trkpt>
|
|
<trkpt lat="55.782013" lon="8.238586">
|
|
<ele>9.296163</ele>
|
|
<time>2026-07-12T08:54:14.000Z</time>
|
|
</trkpt>
|
|
<trkpt lat="55.782066" lon="8.238604">
|
|
<ele>9.299562</ele>
|
|
<time>2026-07-12T08:54:15.000Z</time>
|
|
</trkpt>
|
|
<trkpt lat="55.782116" lon="8.238617">
|
|
<ele>9.302745</ele>
|
|
<time>2026-07-12T08:54:16.000Z</time>
|
|
</trkpt>
|
|
<trkpt lat="55.782165" lon="8.238630">
|
|
<ele>9.305866</ele>
|
|
<time>2026-07-12T08:54:17.000Z</time>
|
|
</trkpt>
|
|
<trkpt lat="55.782215" lon="8.238641">
|
|
<ele>9.309040</ele>
|
|
<time>2026-07-12T08:54:18.000Z</time>
|
|
</trkpt>
|
|
<trkpt lat="55.782261" lon="8.238646">
|
|
<ele>9.311943</ele>
|
|
<time>2026-07-12T08:54:19.000Z</time>
|
|
</trkpt>
|
|
<trkpt lat="55.782314" lon="8.238653">
|
|
<ele>9.315291</ele>
|
|
<time>2026-07-12T08:54:20.000Z</time>
|
|
</trkpt>
|
|
<trkpt lat="55.782368" lon="8.238661">
|
|
<ele>9.318704</ele>
|
|
<time>2026-07-12T08:54:21.000Z</time>
|
|
</trkpt>
|
|
<trkpt lat="55.782425" lon="8.238668">
|
|
<ele>9.322304</ele>
|
|
<time>2026-07-12T08:54:22.000Z</time>
|
|
</trkpt>
|
|
<trkpt lat="55.782482" lon="8.238679">
|
|
<ele>9.325915</ele>
|
|
<time>2026-07-12T08:54:23.000Z</time>
|
|
</trkpt>
|
|
<trkpt lat="55.782539" lon="8.238693">
|
|
<ele>9.319465</ele>
|
|
<time>2026-07-12T08:54:24.000Z</time>
|
|
</trkpt>
|
|
<trkpt lat="55.782597" lon="8.238710">
|
|
<ele>9.309546</ele>
|
|
<time>2026-07-12T08:54:25.000Z</time>
|
|
</trkpt>
|
|
<trkpt lat="55.782658" lon="8.238730">
|
|
<ele>9.299080</ele>
|
|
<time>2026-07-12T08:54:26.000Z</time>
|
|
</trkpt>
|
|
<trkpt lat="55.782715" lon="8.238752">
|
|
<ele>9.289238</ele>
|
|
<time>2026-07-12T08:54:27.000Z</time>
|
|
</trkpt>
|
|
<trkpt lat="55.782772" lon="8.238772">
|
|
<ele>9.279434</ele>
|
|
<time>2026-07-12T08:54:28.000Z</time>
|
|
</trkpt>
|
|
<trkpt lat="55.782829" lon="8.238792">
|
|
<ele>9.269631</ele>
|
|
<time>2026-07-12T08:54:29.000Z</time>
|
|
</trkpt>
|
|
<trkpt lat="55.782883" lon="8.238812">
|
|
<ele>9.260324</ele>
|
|
<time>2026-07-12T08:54:30.000Z</time>
|
|
</trkpt>
|
|
<trkpt lat="55.782940" lon="8.238832">
|
|
<ele>9.250520</ele>
|
|
<time>2026-07-12T08:54:31.000Z</time>
|
|
</trkpt>
|
|
<trkpt lat="55.782997" lon="8.238852">
|
|
<ele>9.240717</ele>
|
|
<time>2026-07-12T08:54:32.000Z</time>
|
|
</trkpt>
|
|
<trkpt lat="55.783058" lon="8.238864">
|
|
<ele>9.230361</ele>
|
|
<time>2026-07-12T08:54:33.000Z</time>
|
|
</trkpt>
|
|
<trkpt lat="55.783119" lon="8.238875">
|
|
<ele>9.220015</ele>
|
|
<time>2026-07-12T08:54:34.000Z</time>
|
|
</trkpt>
|
|
<trkpt lat="55.783180" lon="8.238891">
|
|
<ele>9.209611</ele>
|
|
<time>2026-07-12T08:54:35.000Z</time>
|
|
</trkpt>
|
|
<trkpt lat="55.783245" lon="8.238910">
|
|
<ele>9.198496</ele>
|
|
<time>2026-07-12T08:54:36.000Z</time>
|
|
</trkpt>
|
|
<trkpt lat="55.783310" lon="8.238929">
|
|
<ele>9.187381</ele>
|
|
<time>2026-07-12T08:54:37.000Z</time>
|
|
</trkpt>
|
|
<trkpt lat="55.783367" lon="8.238949">
|
|
<ele>9.177578</ele>
|
|
<time>2026-07-12T08:54:38.000Z</time>
|
|
</trkpt>
|
|
<trkpt lat="55.783428" lon="8.238973">
|
|
<ele>9.167036</ele>
|
|
<time>2026-07-12T08:54:39.000Z</time>
|
|
</trkpt>
|
|
<trkpt lat="55.783485" lon="8.238994">
|
|
<ele>9.157214</ele>
|
|
<time>2026-07-12T08:54:40.000Z</time>
|
|
</trkpt>
|
|
<trkpt lat="55.783543" lon="8.239012">
|
|
<ele>9.147279</ele>
|
|
<time>2026-07-12T08:54:41.000Z</time>
|
|
</trkpt>
|
|
<trkpt lat="55.783604" lon="8.239029">
|
|
<ele>9.136861</ele>
|
|
<time>2026-07-12T08:54:42.000Z</time>
|
|
</trkpt>
|
|
<trkpt lat="55.783665" lon="8.239043">
|
|
<ele>9.126482</ele>
|
|
<time>2026-07-12T08:54:43.000Z</time>
|
|
</trkpt>
|
|
<trkpt lat="55.783730" lon="8.239059">
|
|
<ele>9.115410</ele>
|
|
<time>2026-07-12T08:54:44.000Z</time>
|
|
</trkpt>
|
|
<trkpt lat="55.783791" lon="8.239074">
|
|
<ele>9.105019</ele>
|
|
<time>2026-07-12T08:54:45.000Z</time>
|
|
</trkpt>
|
|
<trkpt lat="55.783848" lon="8.239090">
|
|
<ele>9.095282</ele>
|
|
<time>2026-07-12T08:54:46.000Z</time>
|
|
</trkpt>
|
|
<trkpt lat="55.783901" lon="8.239109">
|
|
<ele>9.086159</ele>
|
|
<time>2026-07-12T08:54:47.000Z</time>
|
|
</trkpt>
|
|
<trkpt lat="55.783962" lon="8.239128">
|
|
<ele>9.075709</ele>
|
|
<time>2026-07-12T08:54:48.000Z</time>
|
|
</trkpt>
|
|
<trkpt lat="55.784019" lon="8.239150">
|
|
<ele>9.065868</ele>
|
|
<time>2026-07-12T08:54:49.000Z</time>
|
|
</trkpt>
|
|
<trkpt lat="55.784073" lon="8.239170">
|
|
<ele>9.056560</ele>
|
|
<time>2026-07-12T08:54:50.000Z</time>
|
|
</trkpt>
|
|
<trkpt lat="55.784130" lon="8.239189">
|
|
<ele>9.046775</ele>
|
|
<time>2026-07-12T08:54:51.000Z</time>
|
|
</trkpt>
|
|
<trkpt lat="55.784187" lon="8.239211">
|
|
<ele>9.036933</ele>
|
|
<time>2026-07-12T08:54:52.000Z</time>
|
|
</trkpt>
|
|
<trkpt lat="55.784248" lon="8.239230">
|
|
<ele>9.026483</ele>
|
|
<time>2026-07-12T08:54:53.000Z</time>
|
|
</trkpt>
|
|
<trkpt lat="55.784309" lon="8.239247">
|
|
<ele>9.019452</ele>
|
|
<time>2026-07-12T08:54:54.000Z</time>
|
|
</trkpt>
|
|
<trkpt lat="55.784367" lon="8.239266">
|
|
<ele>9.014155</ele>
|
|
<time>2026-07-12T08:54:55.000Z</time>
|
|
</trkpt>
|
|
<trkpt lat="55.784424" lon="8.239286">
|
|
<ele>9.008938</ele>
|
|
<time>2026-07-12T08:54:56.000Z</time>
|
|
</trkpt>
|
|
<trkpt lat="55.784485" lon="8.239304">
|
|
<ele>9.003385</ele>
|
|
<time>2026-07-12T08:54:57.000Z</time>
|
|
</trkpt>
|
|
<trkpt lat="55.784546" lon="8.239323">
|
|
<ele>8.997823</ele>
|
|
<time>2026-07-12T08:54:58.000Z</time>
|
|
</trkpt>
|
|
<trkpt lat="55.784607" lon="8.239346">
|
|
<ele>8.992223</ele>
|
|
<time>2026-07-12T08:54:59.000Z</time>
|
|
</trkpt>
|
|
<trkpt lat="55.784668" lon="8.239367">
|
|
<ele>8.986643</ele>
|
|
<time>2026-07-12T08:55:00.000Z</time>
|
|
</trkpt>
|
|
<trkpt lat="55.784729" lon="8.239388">
|
|
<ele>8.981063</ele>
|
|
<time>2026-07-12T08:55:01.000Z</time>
|
|
</trkpt>
|
|
<trkpt lat="55.784794" lon="8.239408">
|
|
<ele>8.975139</ele>
|
|
<time>2026-07-12T08:55:02.000Z</time>
|
|
</trkpt>
|
|
<trkpt lat="55.784859" lon="8.239421">
|
|
<ele>8.969265</ele>
|
|
<time>2026-07-12T08:55:03.000Z</time>
|
|
</trkpt>
|
|
<trkpt lat="55.784920" lon="8.239430">
|
|
<ele>8.963768</ele>
|
|
<time>2026-07-12T08:55:04.000Z</time>
|
|
</trkpt>
|
|
<trkpt lat="55.784985" lon="8.239436">
|
|
<ele>8.957923</ele>
|
|
<time>2026-07-12T08:55:05.000Z</time>
|
|
</trkpt>
|
|
<trkpt lat="55.785049" lon="8.239439">
|
|
<ele>8.952173</ele>
|
|
<time>2026-07-12T08:55:06.000Z</time>
|
|
</trkpt>
|
|
<trkpt lat="55.785110" lon="8.239447">
|
|
<ele>8.946680</ele>
|
|
<time>2026-07-12T08:55:07.000Z</time>
|
|
</trkpt>
|
|
<trkpt lat="55.785172" lon="8.239460">
|
|
<ele>8.941074</ele>
|
|
<time>2026-07-12T08:55:08.000Z</time>
|
|
</trkpt>
|
|
<trkpt lat="55.785233" lon="8.239474">
|
|
<ele>8.935550</ele>
|
|
<time>2026-07-12T08:55:09.000Z</time>
|
|
</trkpt>
|
|
<trkpt lat="55.785297" lon="8.239488">
|
|
<ele>8.929759</ele>
|
|
<time>2026-07-12T08:55:10.000Z</time>
|
|
</trkpt>
|
|
<trkpt lat="55.785358" lon="8.239504">
|
|
<ele>8.924222</ele>
|
|
<time>2026-07-12T08:55:11.000Z</time>
|
|
</trkpt>
|
|
<trkpt lat="55.785419" lon="8.239519">
|
|
<ele>8.918692</ele>
|
|
<time>2026-07-12T08:55:12.000Z</time>
|
|
</trkpt>
|
|
<trkpt lat="55.785480" lon="8.239532">
|
|
<ele>8.913174</ele>
|
|
<time>2026-07-12T08:55:13.000Z</time>
|
|
</trkpt>
|
|
<trkpt lat="55.785542" lon="8.239543">
|
|
<ele>8.907579</ele>
|
|
<time>2026-07-12T08:55:14.000Z</time>
|
|
</trkpt>
|
|
<trkpt lat="55.785595" lon="8.239554">
|
|
<ele>8.902787</ele>
|
|
<time>2026-07-12T08:55:15.000Z</time>
|
|
</trkpt>
|
|
<trkpt lat="55.785652" lon="8.239569">
|
|
<ele>8.897612</ele>
|
|
<time>2026-07-12T08:55:16.000Z</time>
|
|
</trkpt>
|
|
<trkpt lat="55.785709" lon="8.239586">
|
|
<ele>8.892422</ele>
|
|
<time>2026-07-12T08:55:17.000Z</time>
|
|
</trkpt>
|
|
<trkpt lat="55.785767" lon="8.239602">
|
|
<ele>8.887151</ele>
|
|
<time>2026-07-12T08:55:18.000Z</time>
|
|
</trkpt>
|
|
<trkpt lat="55.785828" lon="8.239618">
|
|
<ele>8.881613</ele>
|
|
<time>2026-07-12T08:55:19.000Z</time>
|
|
</trkpt>
|
|
<trkpt lat="55.785889" lon="8.239632">
|
|
<ele>8.876090</ele>
|
|
<time>2026-07-12T08:55:20.000Z</time>
|
|
</trkpt>
|
|
<trkpt lat="55.785950" lon="8.239642">
|
|
<ele>8.870588</ele>
|
|
<time>2026-07-12T08:55:21.000Z</time>
|
|
</trkpt>
|
|
<trkpt lat="55.786007" lon="8.239656">
|
|
<ele>8.865421</ele>
|
|
<time>2026-07-12T08:55:22.000Z</time>
|
|
</trkpt>
|
|
<trkpt lat="55.786064" lon="8.239672">
|
|
<ele>8.864775</ele>
|
|
<time>2026-07-12T08:55:23.000Z</time>
|
|
</trkpt>
|
|
<trkpt lat="55.786121" lon="8.239686">
|
|
<ele>8.874852</ele>
|
|
<time>2026-07-12T08:55:24.000Z</time>
|
|
</trkpt>
|
|
<trkpt lat="55.786175" lon="8.239696">
|
|
<ele>8.884359</ele>
|
|
<time>2026-07-12T08:55:25.000Z</time>
|
|
</trkpt>
|
|
<trkpt lat="55.786224" lon="8.239706">
|
|
<ele>8.892997</ele>
|
|
<time>2026-07-12T08:55:26.000Z</time>
|
|
</trkpt>
|
|
<trkpt lat="55.786282" lon="8.239718">
|
|
<ele>8.903222</ele>
|
|
<time>2026-07-12T08:55:27.000Z</time>
|
|
</trkpt>
|
|
<trkpt lat="55.786335" lon="8.239726">
|
|
<ele>8.912537</ele>
|
|
<time>2026-07-12T08:55:28.000Z</time>
|
|
</trkpt>
|
|
<trkpt lat="55.786388" lon="8.239734">
|
|
<ele>8.921851</ele>
|
|
<time>2026-07-12T08:55:29.000Z</time>
|
|
</trkpt>
|
|
<trkpt lat="55.786446" lon="8.239755">
|
|
<ele>8.932216</ele>
|
|
<time>2026-07-12T08:55:30.000Z</time>
|
|
</trkpt>
|
|
<trkpt lat="55.786499" lon="8.239781">
|
|
<ele>8.941844</ele>
|
|
<time>2026-07-12T08:55:31.000Z</time>
|
|
</trkpt>
|
|
<trkpt lat="55.786556" lon="8.239809">
|
|
<ele>8.952200</ele>
|
|
<time>2026-07-12T08:55:32.000Z</time>
|
|
</trkpt>
|
|
<trkpt lat="55.786610" lon="8.239839">
|
|
<ele>8.962107</ele>
|
|
<time>2026-07-12T08:55:33.000Z</time>
|
|
</trkpt>
|
|
<trkpt lat="55.786667" lon="8.239868">
|
|
<ele>8.972489</ele>
|
|
<time>2026-07-12T08:55:34.000Z</time>
|
|
</trkpt>
|
|
<trkpt lat="55.786724" lon="8.239896">
|
|
<ele>8.982845</ele>
|
|
<time>2026-07-12T08:55:35.000Z</time>
|
|
</trkpt>
|
|
<trkpt lat="55.786781" lon="8.239921">
|
|
<ele>8.993125</ele>
|
|
<time>2026-07-12T08:55:36.000Z</time>
|
|
</trkpt>
|
|
<trkpt lat="55.786838" lon="8.239944">
|
|
<ele>9.003361</ele>
|
|
<time>2026-07-12T08:55:37.000Z</time>
|
|
</trkpt>
|
|
<trkpt lat="55.786900" lon="8.239968">
|
|
<ele>9.014472</ele>
|
|
<time>2026-07-12T08:55:38.000Z</time>
|
|
</trkpt>
|
|
<trkpt lat="55.786961" lon="8.239990">
|
|
<ele>9.025372</ele>
|
|
<time>2026-07-12T08:55:39.000Z</time>
|
|
</trkpt>
|
|
<trkpt lat="55.787022" lon="8.240014">
|
|
<ele>9.036312</ele>
|
|
<time>2026-07-12T08:55:40.000Z</time>
|
|
</trkpt>
|
|
<trkpt lat="55.787079" lon="8.240037">
|
|
<ele>9.046548</ele>
|
|
<time>2026-07-12T08:55:41.000Z</time>
|
|
</trkpt>
|
|
<trkpt lat="55.787136" lon="8.240058">
|
|
<ele>9.056742</ele>
|
|
<time>2026-07-12T08:55:42.000Z</time>
|
|
</trkpt>
|
|
<trkpt lat="55.787197" lon="8.240081">
|
|
<ele>9.067661</ele>
|
|
<time>2026-07-12T08:55:43.000Z</time>
|
|
</trkpt>
|
|
<trkpt lat="55.787258" lon="8.240104">
|
|
<ele>9.078581</ele>
|
|
<time>2026-07-12T08:55:44.000Z</time>
|
|
</trkpt>
|
|
<trkpt lat="55.787315" lon="8.240128">
|
|
<ele>9.088838</ele>
|
|
<time>2026-07-12T08:55:45.000Z</time>
|
|
</trkpt>
|
|
<trkpt lat="55.787369" lon="8.240149">
|
|
<ele>9.098518</ele>
|
|
<time>2026-07-12T08:55:46.000Z</time>
|
|
</trkpt>
|
|
<trkpt lat="55.787430" lon="8.240169">
|
|
<ele>9.109381</ele>
|
|
<time>2026-07-12T08:55:47.000Z</time>
|
|
</trkpt>
|
|
<trkpt lat="55.787487" lon="8.240190">
|
|
<ele>9.119574</ele>
|
|
<time>2026-07-12T08:55:48.000Z</time>
|
|
</trkpt>
|
|
<trkpt lat="55.787540" lon="8.240211">
|
|
<ele>9.129083</ele>
|
|
<time>2026-07-12T08:55:49.000Z</time>
|
|
</trkpt>
|
|
<trkpt lat="55.787590" lon="8.240232">
|
|
<ele>9.138080</ele>
|
|
<time>2026-07-12T08:55:50.000Z</time>
|
|
</trkpt>
|
|
<trkpt lat="55.787643" lon="8.240254">
|
|
<ele>9.147610</ele>
|
|
<time>2026-07-12T08:55:51.000Z</time>
|
|
</trkpt>
|
|
<trkpt lat="55.787697" lon="8.240277">
|
|
<ele>9.157334</ele>
|
|
<time>2026-07-12T08:55:52.000Z</time>
|
|
</trkpt>
|
|
<trkpt lat="55.787750" lon="8.240298">
|
|
<ele>9.166843</ele>
|
|
<time>2026-07-12T08:55:53.000Z</time>
|
|
</trkpt>
|
|
<trkpt lat="55.787807" lon="8.240318">
|
|
<ele>9.177612</ele>
|
|
<time>2026-07-12T08:55:54.000Z</time>
|
|
</trkpt>
|
|
<trkpt lat="55.787861" lon="8.240337">
|
|
<ele>9.208865</ele>
|
|
<time>2026-07-12T08:55:55.000Z</time>
|
|
</trkpt>
|
|
<trkpt lat="55.787914" lon="8.240355">
|
|
<ele>9.239500</ele>
|
|
<time>2026-07-12T08:55:56.000Z</time>
|
|
</trkpt>
|
|
<trkpt lat="55.787971" lon="8.240369">
|
|
<ele>9.272169</ele>
|
|
<time>2026-07-12T08:55:57.000Z</time>
|
|
</trkpt>
|
|
<trkpt lat="55.788029" lon="8.240380">
|
|
<ele>9.305285</ele>
|
|
<time>2026-07-12T08:55:58.000Z</time>
|
|
</trkpt>
|
|
<trkpt lat="55.788086" lon="8.240386">
|
|
<ele>9.337704</ele>
|
|
<time>2026-07-12T08:55:59.000Z</time>
|
|
</trkpt>
|
|
<trkpt lat="55.788136" lon="8.240381">
|
|
<ele>9.366136</ele>
|
|
<time>2026-07-12T08:56:00.000Z</time>
|
|
</trkpt>
|
|
<trkpt lat="55.788181" lon="8.240363">
|
|
<ele>9.392323</ele>
|
|
<time>2026-07-12T08:56:01.000Z</time>
|
|
</trkpt>
|
|
<trkpt lat="55.788227" lon="8.240337">
|
|
<ele>9.419727</ele>
|
|
<time>2026-07-12T08:56:02.000Z</time>
|
|
</trkpt>
|
|
<trkpt lat="55.788269" lon="8.240308">
|
|
<ele>9.445307</ele>
|
|
<time>2026-07-12T08:56:03.000Z</time>
|
|
</trkpt>
|
|
<trkpt lat="55.788315" lon="8.240275">
|
|
<ele>9.473468</ele>
|
|
<time>2026-07-12T08:56:04.000Z</time>
|
|
</trkpt>
|
|
<trkpt lat="55.788364" lon="8.240245">
|
|
<ele>9.502890</ele>
|
|
<time>2026-07-12T08:56:05.000Z</time>
|
|
</trkpt>
|
|
<trkpt lat="55.788410" lon="8.240213">
|
|
<ele>9.530933</ele>
|
|
<time>2026-07-12T08:56:06.000Z</time>
|
|
</trkpt>
|
|
<trkpt lat="55.788460" lon="8.240178">
|
|
<ele>9.561441</ele>
|
|
<time>2026-07-12T08:56:07.000Z</time>
|
|
</trkpt>
|
|
<trkpt lat="55.788506" lon="8.240145">
|
|
<ele>9.589602</ele>
|
|
<time>2026-07-12T08:56:08.000Z</time>
|
|
</trkpt>
|
|
<trkpt lat="55.788551" lon="8.240118">
|
|
<ele>9.616565</ele>
|
|
<time>2026-07-12T08:56:09.000Z</time>
|
|
</trkpt>
|
|
<trkpt lat="55.788593" lon="8.240098">
|
|
<ele>9.641251</ele>
|
|
<time>2026-07-12T08:56:10.000Z</time>
|
|
</trkpt>
|
|
<trkpt lat="55.788631" lon="8.240087">
|
|
<ele>9.663109</ele>
|
|
<time>2026-07-12T08:56:11.000Z</time>
|
|
</trkpt>
|
|
<trkpt lat="55.788670" lon="8.240074">
|
|
<ele>9.685637</ele>
|
|
<time>2026-07-12T08:56:12.000Z</time>
|
|
</trkpt>
|
|
<trkpt lat="55.788700" lon="8.240053">
|
|
<ele>9.703942</ele>
|
|
<time>2026-07-12T08:56:13.000Z</time>
|
|
</trkpt>
|
|
<trkpt lat="55.788723" lon="8.240020">
|
|
<ele>9.720719</ele>
|
|
<time>2026-07-12T08:56:14.000Z</time>
|
|
</trkpt>
|
|
<trkpt lat="55.788742" lon="8.239978">
|
|
<ele>9.737927</ele>
|
|
<time>2026-07-12T08:56:15.000Z</time>
|
|
</trkpt>
|
|
<trkpt lat="55.788761" lon="8.239936">
|
|
<ele>9.755135</ele>
|
|
<time>2026-07-12T08:56:16.000Z</time>
|
|
</trkpt>
|
|
<trkpt lat="55.788776" lon="8.239903">
|
|
<ele>9.768681</ele>
|
|
<time>2026-07-12T08:56:17.000Z</time>
|
|
</trkpt>
|
|
<trkpt lat="55.788803" lon="8.239878">
|
|
<ele>9.785964</ele>
|
|
<time>2026-07-12T08:56:18.000Z</time>
|
|
</trkpt>
|
|
<trkpt lat="55.788834" lon="8.239862">
|
|
<ele>9.804290</ele>
|
|
<time>2026-07-12T08:56:19.000Z</time>
|
|
</trkpt>
|
|
<trkpt lat="55.788868" lon="8.239848">
|
|
<ele>9.824104</ele>
|
|
<time>2026-07-12T08:56:20.000Z</time>
|
|
</trkpt>
|
|
<trkpt lat="55.788902" lon="8.239840">
|
|
<ele>9.843576</ele>
|
|
<time>2026-07-12T08:56:21.000Z</time>
|
|
</trkpt>
|
|
<trkpt lat="55.788933" lon="8.239836">
|
|
<ele>9.861223</ele>
|
|
<time>2026-07-12T08:56:22.000Z</time>
|
|
</trkpt>
|
|
<trkpt lat="55.788963" lon="8.239836">
|
|
<ele>9.878255</ele>
|
|
<time>2026-07-12T08:56:23.000Z</time>
|
|
</trkpt>
|
|
<trkpt lat="55.788998" lon="8.239840">
|
|
<ele>9.898168</ele>
|
|
<time>2026-07-12T08:56:24.000Z</time>
|
|
</trkpt>
|
|
<trkpt lat="55.789028" lon="8.239851">
|
|
<ele>9.915559</ele>
|
|
<time>2026-07-12T08:56:25.000Z</time>
|
|
</trkpt>
|
|
<trkpt lat="55.789055" lon="8.239864">
|
|
<ele>9.931440</ele>
|
|
<time>2026-07-12T08:56:26.000Z</time>
|
|
</trkpt>
|
|
<trkpt lat="55.789085" lon="8.239880">
|
|
<ele>9.949222</ele>
|
|
<time>2026-07-12T08:56:27.000Z</time>
|
|
</trkpt>
|
|
<trkpt lat="55.789116" lon="8.239895">
|
|
<ele>9.967462</ele>
|
|
<time>2026-07-12T08:56:28.000Z</time>
|
|
</trkpt>
|
|
<trkpt lat="55.789143" lon="8.239911">
|
|
<ele>9.983619</ele>
|
|
<time>2026-07-12T08:56:29.000Z</time>
|
|
</trkpt>
|
|
<trkpt lat="55.789169" lon="8.239923">
|
|
<ele>9.998870</ele>
|
|
<time>2026-07-12T08:56:30.000Z</time>
|
|
</trkpt>
|
|
<trkpt lat="55.789196" lon="8.239930">
|
|
<ele>10.014361</ele>
|
|
<time>2026-07-12T08:56:31.000Z</time>
|
|
</trkpt>
|
|
<trkpt lat="55.789223" lon="8.239928">
|
|
<ele>10.029704</ele>
|
|
<time>2026-07-12T08:56:32.000Z</time>
|
|
</trkpt>
|
|
<trkpt lat="55.789249" lon="8.239916">
|
|
<ele>10.044954</ele>
|
|
<time>2026-07-12T08:56:33.000Z</time>
|
|
</trkpt>
|
|
<trkpt lat="55.789272" lon="8.239897">
|
|
<ele>10.059353</ele>
|
|
<time>2026-07-12T08:56:34.000Z</time>
|
|
</trkpt>
|
|
<trkpt lat="55.789295" lon="8.239873">
|
|
<ele>10.074492</ele>
|
|
<time>2026-07-12T08:56:35.000Z</time>
|
|
</trkpt>
|
|
<trkpt lat="55.789318" lon="8.239848">
|
|
<ele>10.089796</ele>
|
|
<time>2026-07-12T08:56:36.000Z</time>
|
|
</trkpt>
|
|
<trkpt lat="55.789337" lon="8.239824">
|
|
<ele>10.103027</ele>
|
|
<time>2026-07-12T08:56:37.000Z</time>
|
|
</trkpt>
|
|
<trkpt lat="55.789356" lon="8.239798">
|
|
<ele>10.116638</ele>
|
|
<time>2026-07-12T08:56:38.000Z</time>
|
|
</trkpt>
|
|
<trkpt lat="55.789375" lon="8.239769">
|
|
<ele>10.130853</ele>
|
|
<time>2026-07-12T08:56:39.000Z</time>
|
|
</trkpt>
|
|
<trkpt lat="55.789398" lon="8.239744">
|
|
<ele>10.146156</ele>
|
|
<time>2026-07-12T08:56:40.000Z</time>
|
|
</trkpt>
|
|
<trkpt lat="55.789417" lon="8.239724">
|
|
<ele>10.158691</ele>
|
|
<time>2026-07-12T08:56:41.000Z</time>
|
|
</trkpt>
|
|
<trkpt lat="55.789440" lon="8.239708">
|
|
<ele>10.172713</ele>
|
|
<time>2026-07-12T08:56:42.000Z</time>
|
|
</trkpt>
|
|
<trkpt lat="55.789463" lon="8.239698">
|
|
<ele>10.186156</ele>
|
|
<time>2026-07-12T08:56:43.000Z</time>
|
|
</trkpt>
|
|
<trkpt lat="55.789482" lon="8.239694">
|
|
<ele>10.197018</ele>
|
|
<time>2026-07-12T08:56:44.000Z</time>
|
|
</trkpt>
|
|
<trkpt lat="55.789501" lon="8.239692">
|
|
<ele>10.191483</ele>
|
|
<time>2026-07-12T08:56:45.000Z</time>
|
|
</trkpt>
|
|
<trkpt lat="55.789528" lon="8.239690">
|
|
<ele>10.181464</ele>
|
|
<time>2026-07-12T08:56:46.000Z</time>
|
|
</trkpt>
|
|
<trkpt lat="55.789543" lon="8.239688">
|
|
<ele>10.175888</ele>
|
|
<time>2026-07-12T08:56:47.000Z</time>
|
|
</trkpt>
|
|
<trkpt lat="55.789612" lon="8.239540">
|
|
<ele>10.135811</ele>
|
|
<time>2026-07-12T09:06:41.000Z</time>
|
|
</trkpt>
|
|
<trkpt lat="55.789619" lon="8.239498">
|
|
<ele>10.126679</ele>
|
|
<time>2026-07-12T09:06:42.000Z</time>
|
|
</trkpt>
|
|
<trkpt lat="55.789635" lon="8.239444">
|
|
<ele>10.113956</ele>
|
|
<time>2026-07-12T09:06:43.000Z</time>
|
|
</trkpt>
|
|
<trkpt lat="55.789650" lon="8.239393">
|
|
<ele>10.101958</ele>
|
|
<time>2026-07-12T09:06:44.000Z</time>
|
|
</trkpt>
|
|
<trkpt lat="55.789665" lon="8.239345">
|
|
<ele>10.090511</ele>
|
|
<time>2026-07-12T09:06:45.000Z</time>
|
|
</trkpt>
|
|
<trkpt lat="55.789684" lon="8.239299">
|
|
<ele>10.078613</ele>
|
|
<time>2026-07-12T09:06:46.000Z</time>
|
|
</trkpt>
|
|
<trkpt lat="55.789703" lon="8.239256">
|
|
<ele>10.067213</ele>
|
|
<time>2026-07-12T09:06:47.000Z</time>
|
|
</trkpt>
|
|
<trkpt lat="55.789715" lon="8.239209">
|
|
<ele>10.056454</ele>
|
|
<time>2026-07-12T09:06:48.000Z</time>
|
|
</trkpt>
|
|
<trkpt lat="55.789726" lon="8.239159">
|
|
<ele>10.045262</ele>
|
|
<time>2026-07-12T09:06:49.000Z</time>
|
|
</trkpt>
|
|
<trkpt lat="55.789730" lon="8.239110">
|
|
<ele>10.034941</ele>
|
|
<time>2026-07-12T09:06:50.000Z</time>
|
|
</trkpt>
|
|
<trkpt lat="55.789734" lon="8.239064">
|
|
<ele>10.025238</ele>
|
|
<time>2026-07-12T09:06:51.000Z</time>
|
|
</trkpt>
|
|
<trkpt lat="55.789738" lon="8.239020">
|
|
<ele>10.015948</ele>
|
|
<time>2026-07-12T09:06:52.000Z</time>
|
|
</trkpt>
|
|
<trkpt lat="55.789741" lon="8.238973">
|
|
<ele>10.006088</ele>
|
|
<time>2026-07-12T09:06:53.000Z</time>
|
|
</trkpt>
|
|
<trkpt lat="55.789745" lon="8.238923">
|
|
<ele>9.995560</ele>
|
|
<time>2026-07-12T09:06:54.000Z</time>
|
|
</trkpt>
|
|
<trkpt lat="55.789749" lon="8.238874">
|
|
<ele>9.985240</ele>
|
|
<time>2026-07-12T09:06:55.000Z</time>
|
|
</trkpt>
|
|
<trkpt lat="55.789753" lon="8.238830">
|
|
<ele>9.975949</ele>
|
|
<time>2026-07-12T09:06:56.000Z</time>
|
|
</trkpt>
|
|
<trkpt lat="55.789753" lon="8.238785">
|
|
<ele>9.966569</ele>
|
|
<time>2026-07-12T09:06:57.000Z</time>
|
|
</trkpt>
|
|
<trkpt lat="55.789761" lon="8.238735">
|
|
<ele>9.955733</ele>
|
|
<time>2026-07-12T09:06:58.000Z</time>
|
|
</trkpt>
|
|
<trkpt lat="55.789776" lon="8.238680">
|
|
<ele>9.942990</ele>
|
|
<time>2026-07-12T09:06:59.000Z</time>
|
|
</trkpt>
|
|
<trkpt lat="55.789787" lon="8.238619">
|
|
<ele>9.929637</ele>
|
|
<time>2026-07-12T09:07:00.000Z</time>
|
|
</trkpt>
|
|
<trkpt lat="55.789803" lon="8.238553">
|
|
<ele>9.914655</ele>
|
|
<time>2026-07-12T09:07:01.000Z</time>
|
|
</trkpt>
|
|
<trkpt lat="55.789822" lon="8.238486">
|
|
<ele>9.899014</ele>
|
|
<time>2026-07-12T09:07:02.000Z</time>
|
|
</trkpt>
|
|
<trkpt lat="55.789841" lon="8.238423">
|
|
<ele>9.884112</ele>
|
|
<time>2026-07-12T09:07:03.000Z</time>
|
|
</trkpt>
|
|
<trkpt lat="55.789864" lon="8.238369">
|
|
<ele>9.869990</ele>
|
|
<time>2026-07-12T09:07:04.000Z</time>
|
|
</trkpt>
|
|
<trkpt lat="55.789890" lon="8.238317">
|
|
<ele>9.855485</ele>
|
|
<time>2026-07-12T09:07:05.000Z</time>
|
|
</trkpt>
|
|
<trkpt lat="55.789921" lon="8.238260">
|
|
<ele>9.838954</ele>
|
|
<time>2026-07-12T09:07:06.000Z</time>
|
|
</trkpt>
|
|
<trkpt lat="55.789951" lon="8.238205">
|
|
<ele>9.822981</ele>
|
|
<time>2026-07-12T09:07:07.000Z</time>
|
|
</trkpt>
|
|
<trkpt lat="55.789978" lon="8.238153">
|
|
<ele>9.808227</ele>
|
|
<time>2026-07-12T09:07:08.000Z</time>
|
|
</trkpt>
|
|
<trkpt lat="55.790005" lon="8.238105">
|
|
<ele>9.794074</ele>
|
|
<time>2026-07-12T09:07:09.000Z</time>
|
|
</trkpt>
|
|
<trkpt lat="55.790028" lon="8.238059">
|
|
<ele>9.781242</ele>
|
|
<time>2026-07-12T09:07:10.000Z</time>
|
|
</trkpt>
|
|
<trkpt lat="55.790051" lon="8.238017">
|
|
<ele>9.769021</ele>
|
|
<time>2026-07-12T09:07:11.000Z</time>
|
|
</trkpt>
|
|
<trkpt lat="55.790085" lon="8.237969">
|
|
<ele>9.752927</ele>
|
|
<time>2026-07-12T09:07:12.000Z</time>
|
|
</trkpt>
|
|
<trkpt lat="55.790123" lon="8.237918">
|
|
<ele>9.735278</ele>
|
|
<time>2026-07-12T09:07:13.000Z</time>
|
|
</trkpt>
|
|
<trkpt lat="55.790165" lon="8.237869">
|
|
<ele>9.716656</ele>
|
|
<time>2026-07-12T09:07:14.000Z</time>
|
|
</trkpt>
|
|
<trkpt lat="55.790203" lon="8.237823">
|
|
<ele>9.699614</ele>
|
|
<time>2026-07-12T09:07:15.000Z</time>
|
|
</trkpt>
|
|
<trkpt lat="55.790249" lon="8.237779">
|
|
<ele>9.680250</ele>
|
|
<time>2026-07-12T09:07:16.000Z</time>
|
|
</trkpt>
|
|
<trkpt lat="55.790295" lon="8.237734">
|
|
<ele>9.660786</ele>
|
|
<time>2026-07-12T09:07:17.000Z</time>
|
|
</trkpt>
|
|
<trkpt lat="55.790337" lon="8.237689">
|
|
<ele>9.642608</ele>
|
|
<time>2026-07-12T09:07:18.000Z</time>
|
|
</trkpt>
|
|
<trkpt lat="55.790375" lon="8.237650">
|
|
<ele>9.626343</ele>
|
|
<time>2026-07-12T09:07:19.000Z</time>
|
|
</trkpt>
|
|
<trkpt lat="55.790409" lon="8.237614">
|
|
<ele>9.611673</ele>
|
|
<time>2026-07-12T09:07:20.000Z</time>
|
|
</trkpt>
|
|
<trkpt lat="55.790440" lon="8.237578">
|
|
<ele>9.597947</ele>
|
|
<time>2026-07-12T09:07:21.000Z</time>
|
|
</trkpt>
|
|
<trkpt lat="55.790478" lon="8.237542">
|
|
<ele>9.581985</ele>
|
|
<time>2026-07-12T09:07:22.000Z</time>
|
|
</trkpt>
|
|
<trkpt lat="55.790520" lon="8.237510">
|
|
<ele>9.565045</ele>
|
|
<time>2026-07-12T09:07:23.000Z</time>
|
|
</trkpt>
|
|
<trkpt lat="55.790566" lon="8.237484">
|
|
<ele>9.547150</ele>
|
|
<time>2026-07-12T09:07:24.000Z</time>
|
|
</trkpt>
|
|
<trkpt lat="55.790619" lon="8.237455">
|
|
<ele>9.529928</ele>
|
|
<time>2026-07-12T09:07:25.000Z</time>
|
|
</trkpt>
|
|
<trkpt lat="55.790672" lon="8.237420">
|
|
<ele>9.524491</ele>
|
|
<time>2026-07-12T09:07:26.000Z</time>
|
|
</trkpt>
|
|
<trkpt lat="55.790726" lon="8.237384">
|
|
<ele>9.518945</ele>
|
|
<time>2026-07-12T09:07:27.000Z</time>
|
|
</trkpt>
|
|
<trkpt lat="55.790775" lon="8.237350">
|
|
<ele>9.513886</ele>
|
|
<time>2026-07-12T09:07:28.000Z</time>
|
|
</trkpt>
|
|
<trkpt lat="55.790836" lon="8.237322">
|
|
<ele>9.507828</ele>
|
|
<time>2026-07-12T09:07:29.000Z</time>
|
|
</trkpt>
|
|
<trkpt lat="55.790905" lon="8.237290">
|
|
<ele>9.500970</ele>
|
|
<time>2026-07-12T09:07:30.000Z</time>
|
|
</trkpt>
|
|
<trkpt lat="55.790974" lon="8.237245">
|
|
<ele>9.493902</ele>
|
|
<time>2026-07-12T09:07:31.000Z</time>
|
|
</trkpt>
|
|
<trkpt lat="55.791035" lon="8.237183">
|
|
<ele>9.487146</ele>
|
|
<time>2026-07-12T09:07:32.000Z</time>
|
|
</trkpt>
|
|
<trkpt lat="55.791084" lon="8.237109">
|
|
<ele>9.480964</ele>
|
|
<time>2026-07-12T09:07:33.000Z</time>
|
|
</trkpt>
|
|
<trkpt lat="55.791130" lon="8.237027">
|
|
<ele>9.474701</ele>
|
|
<time>2026-07-12T09:07:34.000Z</time>
|
|
</trkpt>
|
|
<trkpt lat="55.791168" lon="8.236944">
|
|
<ele>9.468913</ele>
|
|
<time>2026-07-12T09:07:35.000Z</time>
|
|
</trkpt>
|
|
<trkpt lat="55.791203" lon="8.236863">
|
|
<ele>9.463390</ele>
|
|
<time>2026-07-12T09:07:36.000Z</time>
|
|
</trkpt>
|
|
<trkpt lat="55.791241" lon="8.236788">
|
|
<ele>9.457931</ele>
|
|
<time>2026-07-12T09:07:37.000Z</time>
|
|
</trkpt>
|
|
<trkpt lat="55.791275" lon="8.236717">
|
|
<ele>9.452888</ele>
|
|
<time>2026-07-12T09:07:38.000Z</time>
|
|
</trkpt>
|
|
<trkpt lat="55.791306" lon="8.236651">
|
|
<ele>9.448238</ele>
|
|
<time>2026-07-12T09:07:39.000Z</time>
|
|
</trkpt>
|
|
<trkpt lat="55.791336" lon="8.236590">
|
|
<ele>9.443856</ele>
|
|
<time>2026-07-12T09:07:40.000Z</time>
|
|
</trkpt>
|
|
<trkpt lat="55.791363" lon="8.236535">
|
|
<ele>9.439908</ele>
|
|
<time>2026-07-12T09:07:41.000Z</time>
|
|
</trkpt>
|
|
<trkpt lat="55.791386" lon="8.236487">
|
|
<ele>9.436498</ele>
|
|
<time>2026-07-12T09:07:42.000Z</time>
|
|
</trkpt>
|
|
<trkpt lat="55.791412" lon="8.236442">
|
|
<ele>9.433009</ele>
|
|
<time>2026-07-12T09:07:43.000Z</time>
|
|
</trkpt>
|
|
<trkpt lat="55.791439" lon="8.236396">
|
|
<ele>9.429414</ele>
|
|
<time>2026-07-12T09:07:44.000Z</time>
|
|
</trkpt>
|
|
<trkpt lat="55.791466" lon="8.236345">
|
|
<ele>9.425626</ele>
|
|
<time>2026-07-12T09:07:45.000Z</time>
|
|
</trkpt>
|
|
<trkpt lat="55.791489" lon="8.236294">
|
|
<ele>9.422091</ele>
|
|
<time>2026-07-12T09:07:46.000Z</time>
|
|
</trkpt>
|
|
<trkpt lat="55.791515" lon="8.236243">
|
|
<ele>9.418369</ele>
|
|
<time>2026-07-12T09:07:47.000Z</time>
|
|
</trkpt>
|
|
<trkpt lat="55.791553" lon="8.236195">
|
|
<ele>9.413886</ele>
|
|
<time>2026-07-12T09:07:48.000Z</time>
|
|
</trkpt>
|
|
<trkpt lat="55.791588" lon="8.236146">
|
|
<ele>9.409603</ele>
|
|
<time>2026-07-12T09:07:49.000Z</time>
|
|
</trkpt>
|
|
<trkpt lat="55.791622" lon="8.236094">
|
|
<ele>9.405291</ele>
|
|
<time>2026-07-12T09:07:50.000Z</time>
|
|
</trkpt>
|
|
<trkpt lat="55.791656" lon="8.236035">
|
|
<ele>9.400722</ele>
|
|
<time>2026-07-12T09:07:51.000Z</time>
|
|
</trkpt>
|
|
<trkpt lat="55.791691" lon="8.235971">
|
|
<ele>9.395895</ele>
|
|
<time>2026-07-12T09:07:52.000Z</time>
|
|
</trkpt>
|
|
<trkpt lat="55.791721" lon="8.235906">
|
|
<ele>9.391348</ele>
|
|
<time>2026-07-12T09:07:53.000Z</time>
|
|
</trkpt>
|
|
<trkpt lat="55.791756" lon="8.235839">
|
|
<ele>9.386403</ele>
|
|
<time>2026-07-12T09:07:54.000Z</time>
|
|
</trkpt>
|
|
<trkpt lat="55.791794" lon="8.235770">
|
|
<ele>9.381181</ele>
|
|
<time>2026-07-12T09:07:55.000Z</time>
|
|
</trkpt>
|
|
<trkpt lat="55.791828" lon="8.235701">
|
|
<ele>9.376220</ele>
|
|
<time>2026-07-12T09:07:56.000Z</time>
|
|
</trkpt>
|
|
<trkpt lat="55.791863" lon="8.235630">
|
|
<ele>9.371114</ele>
|
|
<time>2026-07-12T09:07:57.000Z</time>
|
|
</trkpt>
|
|
<trkpt lat="55.791893" lon="8.235558">
|
|
<ele>9.366269</ele>
|
|
<time>2026-07-12T09:07:58.000Z</time>
|
|
</trkpt>
|
|
<trkpt lat="55.791931" lon="8.235487">
|
|
<ele>9.360969</ele>
|
|
<time>2026-07-12T09:07:59.000Z</time>
|
|
</trkpt>
|
|
<trkpt lat="55.791969" lon="8.235413">
|
|
<ele>9.358577</ele>
|
|
<time>2026-07-12T09:08:00.000Z</time>
|
|
</trkpt>
|
|
<trkpt lat="55.792004" lon="8.235340">
|
|
<ele>9.359502</ele>
|
|
<time>2026-07-12T09:08:01.000Z</time>
|
|
</trkpt>
|
|
<trkpt lat="55.792042" lon="8.235267">
|
|
<ele>9.360460</ele>
|
|
<time>2026-07-12T09:08:02.000Z</time>
|
|
</trkpt>
|
|
<trkpt lat="55.792084" lon="8.235193">
|
|
<ele>9.361474</ele>
|
|
<time>2026-07-12T09:08:03.000Z</time>
|
|
</trkpt>
|
|
<trkpt lat="55.792129" lon="8.235119">
|
|
<ele>9.362525</ele>
|
|
<time>2026-07-12T09:08:04.000Z</time>
|
|
</trkpt>
|
|
<trkpt lat="55.792168" lon="8.235046">
|
|
<ele>9.363496</ele>
|
|
<time>2026-07-12T09:08:05.000Z</time>
|
|
</trkpt>
|
|
<trkpt lat="55.792210" lon="8.234979">
|
|
<ele>9.364463</ele>
|
|
<time>2026-07-12T09:08:06.000Z</time>
|
|
</trkpt>
|
|
<trkpt lat="55.792248" lon="8.234915">
|
|
<ele>9.365360</ele>
|
|
<time>2026-07-12T09:08:07.000Z</time>
|
|
</trkpt>
|
|
<trkpt lat="55.792286" lon="8.234845">
|
|
<ele>9.366298</ele>
|
|
<time>2026-07-12T09:08:08.000Z</time>
|
|
</trkpt>
|
|
<trkpt lat="55.792320" lon="8.234770">
|
|
<ele>9.367227</ele>
|
|
<time>2026-07-12T09:08:09.000Z</time>
|
|
</trkpt>
|
|
<trkpt lat="55.792355" lon="8.234694">
|
|
<ele>9.368174</ele>
|
|
<time>2026-07-12T09:08:10.000Z</time>
|
|
</trkpt>
|
|
<trkpt lat="55.792393" lon="8.234619">
|
|
<ele>9.369147</ele>
|
|
<time>2026-07-12T09:08:11.000Z</time>
|
|
</trkpt>
|
|
<trkpt lat="55.792427" lon="8.234544">
|
|
<ele>9.370076</ele>
|
|
<time>2026-07-12T09:08:12.000Z</time>
|
|
</trkpt>
|
|
<trkpt lat="55.792461" lon="8.234467">
|
|
<ele>9.371019</ele>
|
|
<time>2026-07-12T09:08:13.000Z</time>
|
|
</trkpt>
|
|
<trkpt lat="55.792492" lon="8.234390">
|
|
<ele>9.371932</ele>
|
|
<time>2026-07-12T09:08:14.000Z</time>
|
|
</trkpt>
|
|
<trkpt lat="55.792526" lon="8.234313">
|
|
<ele>9.372876</ele>
|
|
<time>2026-07-12T09:08:15.000Z</time>
|
|
</trkpt>
|
|
<trkpt lat="55.792553" lon="8.234235">
|
|
<ele>9.373759</ele>
|
|
<time>2026-07-12T09:08:16.000Z</time>
|
|
</trkpt>
|
|
<trkpt lat="55.792580" lon="8.234158">
|
|
<ele>9.374634</ele>
|
|
<time>2026-07-12T09:08:17.000Z</time>
|
|
</trkpt>
|
|
<trkpt lat="55.792606" lon="8.234077">
|
|
<ele>9.375533</ele>
|
|
<time>2026-07-12T09:08:18.000Z</time>
|
|
</trkpt>
|
|
<trkpt lat="55.792633" lon="8.233997">
|
|
<ele>9.376432</ele>
|
|
<time>2026-07-12T09:08:19.000Z</time>
|
|
</trkpt>
|
|
<trkpt lat="55.792656" lon="8.233920">
|
|
<ele>9.377273</ele>
|
|
<time>2026-07-12T09:08:20.000Z</time>
|
|
</trkpt>
|
|
<trkpt lat="55.792679" lon="8.233847">
|
|
<ele>9.378079</ele>
|
|
<time>2026-07-12T09:08:21.000Z</time>
|
|
</trkpt>
|
|
<trkpt lat="55.792702" lon="8.233772">
|
|
<ele>9.378903</ele>
|
|
<time>2026-07-12T09:08:22.000Z</time>
|
|
</trkpt>
|
|
<trkpt lat="55.792721" lon="8.233696">
|
|
<ele>9.379704</ele>
|
|
<time>2026-07-12T09:08:23.000Z</time>
|
|
</trkpt>
|
|
<trkpt lat="55.792740" lon="8.233620">
|
|
<ele>9.380506</ele>
|
|
<time>2026-07-12T09:08:24.000Z</time>
|
|
</trkpt>
|
|
<trkpt lat="55.792759" lon="8.233541">
|
|
<ele>9.381334</ele>
|
|
<time>2026-07-12T09:08:25.000Z</time>
|
|
</trkpt>
|
|
<trkpt lat="55.792778" lon="8.233461">
|
|
<ele>9.382171</ele>
|
|
<time>2026-07-12T09:08:26.000Z</time>
|
|
</trkpt>
|
|
<trkpt lat="55.792797" lon="8.233379">
|
|
<ele>9.383026</ele>
|
|
<time>2026-07-12T09:08:27.000Z</time>
|
|
</trkpt>
|
|
<trkpt lat="55.792816" lon="8.233297">
|
|
<ele>9.383881</ele>
|
|
<time>2026-07-12T09:08:28.000Z</time>
|
|
</trkpt>
|
|
<trkpt lat="55.792831" lon="8.233218">
|
|
<ele>9.384685</ele>
|
|
<time>2026-07-12T09:08:29.000Z</time>
|
|
</trkpt>
|
|
<trkpt lat="55.792847" lon="8.233143">
|
|
<ele>9.385458</ele>
|
|
<time>2026-07-12T09:08:30.000Z</time>
|
|
</trkpt>
|
|
<trkpt lat="55.792862" lon="8.233067">
|
|
<ele>9.386235</ele>
|
|
<time>2026-07-12T09:08:31.000Z</time>
|
|
</trkpt>
|
|
<trkpt lat="55.792877" lon="8.232991">
|
|
<ele>9.387011</ele>
|
|
<time>2026-07-12T09:08:32.000Z</time>
|
|
</trkpt>
|
|
<trkpt lat="55.792896" lon="8.232904">
|
|
<ele>9.387911</ele>
|
|
<time>2026-07-12T09:08:33.000Z</time>
|
|
</trkpt>
|
|
<trkpt lat="55.792915" lon="8.232815">
|
|
<ele>9.388828</ele>
|
|
<time>2026-07-12T09:08:34.000Z</time>
|
|
</trkpt>
|
|
<trkpt lat="55.792931" lon="8.232726">
|
|
<ele>9.401671</ele>
|
|
<time>2026-07-12T09:08:35.000Z</time>
|
|
</trkpt>
|
|
<trkpt lat="55.792957" lon="8.232632">
|
|
<ele>9.418308</ele>
|
|
<time>2026-07-12T09:08:36.000Z</time>
|
|
</trkpt>
|
|
<trkpt lat="55.792980" lon="8.232538">
|
|
<ele>9.434589</ele>
|
|
<time>2026-07-12T09:08:37.000Z</time>
|
|
</trkpt>
|
|
<trkpt lat="55.793003" lon="8.232444">
|
|
<ele>9.450871</ele>
|
|
<time>2026-07-12T09:08:38.000Z</time>
|
|
</trkpt>
|
|
<trkpt lat="55.793022" lon="8.232345">
|
|
<ele>9.467484</ele>
|
|
<time>2026-07-12T09:08:39.000Z</time>
|
|
</trkpt>
|
|
<trkpt lat="55.793037" lon="8.232246">
|
|
<ele>9.483768</ele>
|
|
<time>2026-07-12T09:08:40.000Z</time>
|
|
</trkpt>
|
|
<trkpt lat="55.793057" lon="8.232150">
|
|
<ele>9.500027</ele>
|
|
<time>2026-07-12T09:08:41.000Z</time>
|
|
</trkpt>
|
|
<trkpt lat="55.793076" lon="8.232056">
|
|
<ele>9.515891</ele>
|
|
<time>2026-07-12T09:08:42.000Z</time>
|
|
</trkpt>
|
|
<trkpt lat="55.793091" lon="8.231963">
|
|
<ele>9.531256</ele>
|
|
<time>2026-07-12T09:08:43.000Z</time>
|
|
</trkpt>
|
|
<trkpt lat="55.793110" lon="8.231874">
|
|
<ele>9.546376</ele>
|
|
<time>2026-07-12T09:08:44.000Z</time>
|
|
</trkpt>
|
|
<trkpt lat="55.793125" lon="8.231790">
|
|
<ele>9.560373</ele>
|
|
<time>2026-07-12T09:08:45.000Z</time>
|
|
</trkpt>
|
|
<trkpt lat="55.793137" lon="8.231705">
|
|
<ele>9.574291</ele>
|
|
<time>2026-07-12T09:08:46.000Z</time>
|
|
</trkpt>
|
|
<trkpt lat="55.793152" lon="8.231619">
|
|
<ele>9.588591</ele>
|
|
<time>2026-07-12T09:08:47.000Z</time>
|
|
</trkpt>
|
|
<trkpt lat="55.793163" lon="8.231530">
|
|
<ele>9.603063</ele>
|
|
<time>2026-07-12T09:08:48.000Z</time>
|
|
</trkpt>
|
|
<trkpt lat="55.793175" lon="8.231446">
|
|
<ele>9.616827</ele>
|
|
<time>2026-07-12T09:08:49.000Z</time>
|
|
</trkpt>
|
|
<trkpt lat="55.793182" lon="8.231367">
|
|
<ele>9.629528</ele>
|
|
<time>2026-07-12T09:08:50.000Z</time>
|
|
</trkpt>
|
|
<trkpt lat="55.793190" lon="8.231289">
|
|
<ele>9.642120</ele>
|
|
<time>2026-07-12T09:08:51.000Z</time>
|
|
</trkpt>
|
|
<trkpt lat="55.793201" lon="8.231213">
|
|
<ele>9.654584</ele>
|
|
<time>2026-07-12T09:08:52.000Z</time>
|
|
</trkpt>
|
|
<trkpt lat="55.793209" lon="8.231144">
|
|
<ele>9.665772</ele>
|
|
<time>2026-07-12T09:08:53.000Z</time>
|
|
</trkpt>
|
|
<trkpt lat="55.793217" lon="8.231071">
|
|
<ele>9.677584</ele>
|
|
<time>2026-07-12T09:08:54.000Z</time>
|
|
</trkpt>
|
|
<trkpt lat="55.793228" lon="8.230996">
|
|
<ele>9.689893</ele>
|
|
<time>2026-07-12T09:08:55.000Z</time>
|
|
</trkpt>
|
|
<trkpt lat="55.793236" lon="8.230921">
|
|
<ele>9.702017</ele>
|
|
<time>2026-07-12T09:08:56.000Z</time>
|
|
</trkpt>
|
|
<trkpt lat="55.793247" lon="8.230845">
|
|
<ele>9.714480</ele>
|
|
<time>2026-07-12T09:08:57.000Z</time>
|
|
</trkpt>
|
|
<trkpt lat="55.793259" lon="8.230764">
|
|
<ele>9.727783</ele>
|
|
<time>2026-07-12T09:08:58.000Z</time>
|
|
</trkpt>
|
|
<trkpt lat="55.793266" lon="8.230678">
|
|
<ele>9.741584</ele>
|
|
<time>2026-07-12T09:08:59.000Z</time>
|
|
</trkpt>
|
|
<trkpt lat="55.793278" lon="8.230585">
|
|
<ele>9.756737</ele>
|
|
<time>2026-07-12T09:09:00.000Z</time>
|
|
</trkpt>
|
|
<trkpt lat="55.793289" lon="8.230491">
|
|
<ele>9.771986</ele>
|
|
<time>2026-07-12T09:09:01.000Z</time>
|
|
</trkpt>
|
|
<trkpt lat="55.793301" lon="8.230398">
|
|
<ele>9.787139</ele>
|
|
<time>2026-07-12T09:09:02.000Z</time>
|
|
</trkpt>
|
|
<trkpt lat="55.793312" lon="8.230304">
|
|
<ele>9.802387</ele>
|
|
<time>2026-07-12T09:09:03.000Z</time>
|
|
</trkpt>
|
|
<trkpt lat="55.793323" lon="8.230207">
|
|
<ele>9.818103</ele>
|
|
<time>2026-07-12T09:09:04.000Z</time>
|
|
</trkpt>
|
|
<trkpt lat="55.793339" lon="8.230112">
|
|
<ele>9.833852</ele>
|
|
<time>2026-07-12T09:09:05.000Z</time>
|
|
</trkpt>
|
|
<trkpt lat="55.793354" lon="8.230019">
|
|
<ele>9.849218</ele>
|
|
<time>2026-07-12T09:09:06.000Z</time>
|
|
</trkpt>
|
|
<trkpt lat="55.793373" lon="8.229925">
|
|
<ele>9.865082</ele>
|
|
<time>2026-07-12T09:09:07.000Z</time>
|
|
</trkpt>
|
|
<trkpt lat="55.793392" lon="8.229831">
|
|
<ele>9.880945</ele>
|
|
<time>2026-07-12T09:09:08.000Z</time>
|
|
</trkpt>
|
|
<trkpt lat="55.793407" lon="8.229735">
|
|
<ele>9.896769</ele>
|
|
<time>2026-07-12T09:09:09.000Z</time>
|
|
</trkpt>
|
|
<trkpt lat="55.793423" lon="8.229639">
|
|
<ele>9.863878</ele>
|
|
<time>2026-07-12T09:09:10.000Z</time>
|
|
</trkpt>
|
|
<trkpt lat="55.793438" lon="8.229544">
|
|
<ele>9.830559</ele>
|
|
<time>2026-07-12T09:09:11.000Z</time>
|
|
</trkpt>
|
|
<trkpt lat="55.793457" lon="8.229449">
|
|
<ele>9.796512</ele>
|
|
<time>2026-07-12T09:09:12.000Z</time>
|
|
</trkpt>
|
|
<trkpt lat="55.793480" lon="8.229349">
|
|
<ele>9.760029</ele>
|
|
<time>2026-07-12T09:09:13.000Z</time>
|
|
</trkpt>
|
|
<trkpt lat="55.793499" lon="8.229248">
|
|
<ele>9.724067</ele>
|
|
<time>2026-07-12T09:09:14.000Z</time>
|
|
</trkpt>
|
|
<trkpt lat="55.793518" lon="8.229152">
|
|
<ele>9.689702</ele>
|
|
<time>2026-07-12T09:09:15.000Z</time>
|
|
</trkpt>
|
|
<trkpt lat="55.793533" lon="8.229056">
|
|
<ele>9.656058</ele>
|
|
<time>2026-07-12T09:09:16.000Z</time>
|
|
</trkpt>
|
|
<trkpt lat="55.793549" lon="8.228968">
|
|
<ele>9.624828</ele>
|
|
<time>2026-07-12T09:09:17.000Z</time>
|
|
</trkpt>
|
|
<trkpt lat="55.793560" lon="8.228892">
|
|
<ele>9.598330</ele>
|
|
<time>2026-07-12T09:09:18.000Z</time>
|
|
</trkpt>
|
|
<trkpt lat="55.793572" lon="8.228828">
|
|
<ele>9.575549</ele>
|
|
<time>2026-07-12T09:09:19.000Z</time>
|
|
</trkpt>
|
|
<trkpt lat="55.793575" lon="8.228774">
|
|
<ele>9.557227</ele>
|
|
<time>2026-07-12T09:09:20.000Z</time>
|
|
</trkpt>
|
|
<trkpt lat="55.793583" lon="8.228728">
|
|
<ele>9.540968</ele>
|
|
<time>2026-07-12T09:09:21.000Z</time>
|
|
</trkpt>
|
|
<trkpt lat="55.793591" lon="8.228685">
|
|
<ele>9.525675</ele>
|
|
<time>2026-07-12T09:09:22.000Z</time>
|
|
</trkpt>
|
|
<trkpt lat="55.793594" lon="8.228645">
|
|
<ele>9.512049</ele>
|
|
<time>2026-07-12T09:09:23.000Z</time>
|
|
</trkpt>
|
|
<trkpt lat="55.793602" lon="8.228608">
|
|
<ele>9.498663</ele>
|
|
<time>2026-07-12T09:09:24.000Z</time>
|
|
</trkpt>
|
|
<trkpt lat="55.793602" lon="8.228575">
|
|
<ele>9.487520</ele>
|
|
<time>2026-07-12T09:09:25.000Z</time>
|
|
</trkpt>
|
|
<trkpt lat="55.793610" lon="8.228545">
|
|
<ele>9.476309</ele>
|
|
<time>2026-07-12T09:09:26.000Z</time>
|
|
</trkpt>
|
|
<trkpt lat="55.793610" lon="8.228517">
|
|
<ele>9.466854</ele>
|
|
<time>2026-07-12T09:09:27.000Z</time>
|
|
</trkpt>
|
|
<trkpt lat="55.793606" lon="8.228494">
|
|
<ele>9.458725</ele>
|
|
<time>2026-07-12T09:09:28.000Z</time>
|
|
</trkpt>
|
|
<trkpt lat="55.793602" lon="8.228479">
|
|
<ele>9.453119</ele>
|
|
<time>2026-07-12T09:09:29.000Z</time>
|
|
</trkpt>
|
|
<trkpt lat="55.793602" lon="8.228455">
|
|
<ele>9.445016</ele>
|
|
<time>2026-07-12T09:10:10.000Z</time>
|
|
</trkpt>
|
|
<trkpt lat="55.793613" lon="8.228464">
|
|
<ele>9.437743</ele>
|
|
<time>2026-07-12T09:10:11.000Z</time>
|
|
</trkpt>
|
|
<trkpt lat="55.793633" lon="8.228465">
|
|
<ele>9.425726</ele>
|
|
<time>2026-07-12T09:10:12.000Z</time>
|
|
</trkpt>
|
|
<trkpt lat="55.793648" lon="8.228454">
|
|
<ele>9.415981</ele>
|
|
<time>2026-07-12T09:10:13.000Z</time>
|
|
</trkpt>
|
|
<trkpt lat="55.793671" lon="8.228434">
|
|
<ele>9.400604</ele>
|
|
<time>2026-07-12T09:10:14.000Z</time>
|
|
</trkpt>
|
|
<trkpt lat="55.793694" lon="8.228409">
|
|
<ele>9.384415</ele>
|
|
<time>2026-07-12T09:10:15.000Z</time>
|
|
</trkpt>
|
|
<trkpt lat="55.793720" lon="8.228386">
|
|
<ele>9.366974</ele>
|
|
<time>2026-07-12T09:10:16.000Z</time>
|
|
</trkpt>
|
|
<trkpt lat="55.793747" lon="8.228372">
|
|
<ele>9.350082</ele>
|
|
<time>2026-07-12T09:10:17.000Z</time>
|
|
</trkpt>
|
|
<trkpt lat="55.793770" lon="8.228367">
|
|
<ele>9.336165</ele>
|
|
<time>2026-07-12T09:10:18.000Z</time>
|
|
</trkpt>
|
|
<trkpt lat="55.793785" lon="8.228369">
|
|
<ele>9.327131</ele>
|
|
<time>2026-07-12T09:10:19.000Z</time>
|
|
</trkpt>
|
|
<trkpt lat="55.793793" lon="8.228371">
|
|
<ele>9.322278</ele>
|
|
<time>2026-07-12T09:10:20.000Z</time>
|
|
</trkpt>
|
|
<trkpt lat="55.793797" lon="8.228369">
|
|
<ele>9.319783</ele>
|
|
<time>2026-07-12T09:10:21.000Z</time>
|
|
</trkpt>
|
|
<trkpt lat="55.793800" lon="8.228370">
|
|
<ele>9.317950</ele>
|
|
<time>2026-07-12T09:10:22.000Z</time>
|
|
</trkpt>
|
|
<trkpt lat="55.793804" lon="8.228372">
|
|
<ele>9.315454</ele>
|
|
<time>2026-07-12T09:10:23.000Z</time>
|
|
</trkpt>
|
|
<trkpt lat="55.793808" lon="8.228374">
|
|
<ele>9.312958</ele>
|
|
<time>2026-07-12T09:10:24.000Z</time>
|
|
</trkpt>
|
|
<trkpt lat="55.793804" lon="8.228413">
|
|
<ele>9.299572</ele>
|
|
<time>2026-07-12T09:10:38.000Z</time>
|
|
</trkpt>
|
|
<trkpt lat="55.793789" lon="8.228416">
|
|
<ele>9.290506</ele>
|
|
<time>2026-07-12T09:10:39.000Z</time>
|
|
</trkpt>
|
|
<trkpt lat="55.793774" lon="8.228423">
|
|
<ele>9.281192</ele>
|
|
<time>2026-07-12T09:10:40.000Z</time>
|
|
</trkpt>
|
|
<trkpt lat="55.793751" lon="8.228442">
|
|
<ele>9.265960</ele>
|
|
<time>2026-07-12T09:10:41.000Z</time>
|
|
</trkpt>
|
|
<trkpt lat="55.793732" lon="8.228455">
|
|
<ele>9.253733</ele>
|
|
<time>2026-07-12T09:10:42.000Z</time>
|
|
</trkpt>
|
|
<trkpt lat="55.793716" lon="8.228466">
|
|
<ele>9.243431</ele>
|
|
<time>2026-07-12T09:10:43.000Z</time>
|
|
</trkpt>
|
|
<trkpt lat="55.793705" lon="8.228476">
|
|
<ele>9.236011</ele>
|
|
<time>2026-07-12T09:10:44.000Z</time>
|
|
</trkpt>
|
|
<trkpt lat="55.793697" lon="8.228506">
|
|
<ele>9.224799</ele>
|
|
<time>2026-07-12T09:10:45.000Z</time>
|
|
</trkpt>
|
|
<trkpt lat="55.793701" lon="8.228527">
|
|
<ele>9.217313</ele>
|
|
<time>2026-07-12T09:10:46.000Z</time>
|
|
</trkpt>
|
|
<trkpt lat="55.793713" lon="8.228551">
|
|
<ele>9.206467</ele>
|
|
<time>2026-07-12T09:10:47.000Z</time>
|
|
</trkpt>
|
|
<trkpt lat="55.793732" lon="8.228569">
|
|
<ele>9.193538</ele>
|
|
<time>2026-07-12T09:10:48.000Z</time>
|
|
</trkpt>
|
|
<trkpt lat="55.793758" lon="8.228583">
|
|
<ele>9.177222</ele>
|
|
<time>2026-07-12T09:10:49.000Z</time>
|
|
</trkpt>
|
|
<trkpt lat="55.793781" lon="8.228595">
|
|
<ele>9.162825</ele>
|
|
<time>2026-07-12T09:10:50.000Z</time>
|
|
</trkpt>
|
|
<trkpt lat="55.793800" lon="8.228604">
|
|
<ele>9.151016</ele>
|
|
<time>2026-07-12T09:10:51.000Z</time>
|
|
</trkpt>
|
|
<trkpt lat="55.793823" lon="8.228614">
|
|
<ele>9.136795</ele>
|
|
<time>2026-07-12T09:10:52.000Z</time>
|
|
</trkpt>
|
|
<trkpt lat="55.793846" lon="8.228622">
|
|
<ele>9.122719</ele>
|
|
<time>2026-07-12T09:10:53.000Z</time>
|
|
</trkpt>
|
|
<trkpt lat="55.793865" lon="8.228629">
|
|
<ele>9.111065</ele>
|
|
<time>2026-07-12T09:10:54.000Z</time>
|
|
</trkpt>
|
|
<trkpt lat="55.793884" lon="8.228635">
|
|
<ele>9.099474</ele>
|
|
<time>2026-07-12T09:10:55.000Z</time>
|
|
</trkpt>
|
|
<trkpt lat="55.793903" lon="8.228638">
|
|
<ele>9.088018</ele>
|
|
<time>2026-07-12T09:10:56.000Z</time>
|
|
</trkpt>
|
|
<trkpt lat="55.793919" lon="8.228641">
|
|
<ele>9.078354</ele>
|
|
<time>2026-07-12T09:10:57.000Z</time>
|
|
</trkpt>
|
|
<trkpt lat="55.793941" lon="8.228643">
|
|
<ele>9.065123</ele>
|
|
<time>2026-07-12T09:10:58.000Z</time>
|
|
</trkpt>
|
|
<trkpt lat="55.793972" lon="8.228652">
|
|
<ele>9.046257</ele>
|
|
<time>2026-07-12T09:10:59.000Z</time>
|
|
</trkpt>
|
|
<trkpt lat="55.794003" lon="8.228665">
|
|
<ele>9.027128</ele>
|
|
<time>2026-07-12T09:11:00.000Z</time>
|
|
</trkpt>
|
|
<trkpt lat="55.794041" lon="8.228679">
|
|
<ele>9.003819</ele>
|
|
<time>2026-07-12T09:11:01.000Z</time>
|
|
</trkpt>
|
|
<trkpt lat="55.794075" lon="8.228692">
|
|
<ele>8.982932</ele>
|
|
<time>2026-07-12T09:11:02.000Z</time>
|
|
</trkpt>
|
|
<trkpt lat="55.794109" lon="8.228705">
|
|
<ele>8.962044</ele>
|
|
<time>2026-07-12T09:11:03.000Z</time>
|
|
</trkpt>
|
|
<trkpt lat="55.794144" lon="8.228717">
|
|
<ele>8.940635</ele>
|
|
<time>2026-07-12T09:11:04.000Z</time>
|
|
</trkpt>
|
|
<trkpt lat="55.794178" lon="8.228726">
|
|
<ele>8.919989</ele>
|
|
<time>2026-07-12T09:11:05.000Z</time>
|
|
</trkpt>
|
|
<trkpt lat="55.794216" lon="8.228737">
|
|
<ele>8.896865</ele>
|
|
<time>2026-07-12T09:11:06.000Z</time>
|
|
</trkpt>
|
|
<trkpt lat="55.794254" lon="8.228749">
|
|
<ele>8.873684</ele>
|
|
<time>2026-07-12T09:11:07.000Z</time>
|
|
</trkpt>
|
|
<trkpt lat="55.794300" lon="8.228764">
|
|
<ele>8.845595</ele>
|
|
<time>2026-07-12T09:11:08.000Z</time>
|
|
</trkpt>
|
|
<trkpt lat="55.794346" lon="8.228779">
|
|
<ele>8.817506</ele>
|
|
<time>2026-07-12T09:11:09.000Z</time>
|
|
</trkpt>
|
|
<trkpt lat="55.794384" lon="8.228796">
|
|
<ele>8.808548</ele>
|
|
<time>2026-07-12T09:11:10.000Z</time>
|
|
</trkpt>
|
|
<trkpt lat="55.794422" lon="8.228818">
|
|
<ele>8.799905</ele>
|
|
<time>2026-07-12T09:11:11.000Z</time>
|
|
</trkpt>
|
|
<trkpt lat="55.794460" lon="8.228834">
|
|
<ele>8.791460</ele>
|
|
<time>2026-07-12T09:11:12.000Z</time>
|
|
</trkpt>
|
|
<trkpt lat="55.794487" lon="8.228833">
|
|
<ele>8.785619</ele>
|
|
<time>2026-07-12T09:11:13.000Z</time>
|
|
</trkpt>
|
|
<trkpt lat="55.794510" lon="8.228814">
|
|
<ele>8.780135</ele>
|
|
<time>2026-07-12T09:11:14.000Z</time>
|
|
</trkpt>
|
|
<trkpt lat="55.794529" lon="8.228780">
|
|
<ele>8.774306</ele>
|
|
<time>2026-07-12T09:11:15.000Z</time>
|
|
</trkpt>
|
|
<trkpt lat="55.794540" lon="8.228744">
|
|
<ele>8.769324</ele>
|
|
<time>2026-07-12T09:11:16.000Z</time>
|
|
</trkpt>
|
|
<trkpt lat="55.794552" lon="8.228705">
|
|
<ele>8.763919</ele>
|
|
<time>2026-07-12T09:11:17.000Z</time>
|
|
</trkpt>
|
|
<trkpt lat="55.794571" lon="8.228662">
|
|
<ele>8.757269</ele>
|
|
<time>2026-07-12T09:11:18.000Z</time>
|
|
</trkpt>
|
|
<trkpt lat="55.794590" lon="8.228619">
|
|
<ele>8.750620</ele>
|
|
<time>2026-07-12T09:11:19.000Z</time>
|
|
</trkpt>
|
|
<trkpt lat="55.794609" lon="8.228568">
|
|
<ele>8.743181</ele>
|
|
<time>2026-07-12T09:11:20.000Z</time>
|
|
</trkpt>
|
|
<trkpt lat="55.794628" lon="8.228513">
|
|
<ele>8.735333</ele>
|
|
<time>2026-07-12T09:11:21.000Z</time>
|
|
</trkpt>
|
|
<trkpt lat="55.794647" lon="8.228452">
|
|
<ele>8.726854</ele>
|
|
<time>2026-07-12T09:11:22.000Z</time>
|
|
</trkpt>
|
|
<trkpt lat="55.794674" lon="8.228383">
|
|
<ele>8.716633</ele>
|
|
<time>2026-07-12T09:11:23.000Z</time>
|
|
</trkpt>
|
|
<trkpt lat="55.794693" lon="8.228320">
|
|
<ele>8.707940</ele>
|
|
<time>2026-07-12T09:11:24.000Z</time>
|
|
</trkpt>
|
|
<trkpt lat="55.794704" lon="8.228264">
|
|
<ele>8.700728</ele>
|
|
<time>2026-07-12T09:11:25.000Z</time>
|
|
</trkpt>
|
|
<trkpt lat="55.794708" lon="8.228210">
|
|
<ele>8.694106</ele>
|
|
<time>2026-07-12T09:11:26.000Z</time>
|
|
</trkpt>
|
|
<trkpt lat="55.794708" lon="8.228154">
|
|
<ele>8.687298</ele>
|
|
<time>2026-07-12T09:11:27.000Z</time>
|
|
</trkpt>
|
|
<trkpt lat="55.794708" lon="8.228096">
|
|
<ele>8.680246</ele>
|
|
<time>2026-07-12T09:11:28.000Z</time>
|
|
</trkpt>
|
|
<trkpt lat="55.794720" lon="8.228037">
|
|
<ele>8.672618</ele>
|
|
<time>2026-07-12T09:11:29.000Z</time>
|
|
</trkpt>
|
|
<trkpt lat="55.794731" lon="8.227978">
|
|
<ele>8.665060</ele>
|
|
<time>2026-07-12T09:11:30.000Z</time>
|
|
</trkpt>
|
|
<trkpt lat="55.794746" lon="8.227907">
|
|
<ele>8.655839</ele>
|
|
<time>2026-07-12T09:11:31.000Z</time>
|
|
</trkpt>
|
|
<trkpt lat="55.794762" lon="8.227824">
|
|
<ele>8.645171</ele>
|
|
<time>2026-07-12T09:11:32.000Z</time>
|
|
</trkpt>
|
|
<trkpt lat="55.794773" lon="8.227753">
|
|
<ele>8.636217</ele>
|
|
<time>2026-07-12T09:11:33.000Z</time>
|
|
</trkpt>
|
|
<trkpt lat="55.794777" lon="8.227688">
|
|
<ele>8.628267</ele>
|
|
<time>2026-07-12T09:11:34.000Z</time>
|
|
</trkpt>
|
|
<trkpt lat="55.794796" lon="8.227614">
|
|
<ele>8.618376</ele>
|
|
<time>2026-07-12T09:11:35.000Z</time>
|
|
</trkpt>
|
|
<trkpt lat="55.794819" lon="8.227540">
|
|
<ele>8.608095</ele>
|
|
<time>2026-07-12T09:11:36.000Z</time>
|
|
</trkpt>
|
|
<trkpt lat="55.794849" lon="8.227472">
|
|
<ele>8.597586</ele>
|
|
<time>2026-07-12T09:11:37.000Z</time>
|
|
</trkpt>
|
|
<trkpt lat="55.794895" lon="8.227399">
|
|
<ele>8.584254</ele>
|
|
<time>2026-07-12T09:11:38.000Z</time>
|
|
</trkpt>
|
|
<trkpt lat="55.794952" lon="8.227324">
|
|
<ele>8.568920</ele>
|
|
<time>2026-07-12T09:11:39.000Z</time>
|
|
</trkpt>
|
|
<trkpt lat="55.795006" lon="8.227254">
|
|
<ele>8.554470</ele>
|
|
<time>2026-07-12T09:11:40.000Z</time>
|
|
</trkpt>
|
|
<trkpt lat="55.795055" lon="8.227182">
|
|
<ele>8.540724</ele>
|
|
<time>2026-07-12T09:11:41.000Z</time>
|
|
</trkpt>
|
|
<trkpt lat="55.795105" lon="8.227117">
|
|
<ele>8.527331</ele>
|
|
<time>2026-07-12T09:11:42.000Z</time>
|
|
</trkpt>
|
|
<trkpt lat="55.795162" lon="8.227056">
|
|
<ele>8.512944</ele>
|
|
<time>2026-07-12T09:11:43.000Z</time>
|
|
</trkpt>
|
|
<trkpt lat="55.795216" lon="8.226999">
|
|
<ele>8.499364</ele>
|
|
<time>2026-07-12T09:11:44.000Z</time>
|
|
</trkpt>
|
|
<trkpt lat="55.795261" lon="8.226939">
|
|
<ele>8.487202</ele>
|
|
<time>2026-07-12T09:11:45.000Z</time>
|
|
</trkpt>
|
|
<trkpt lat="55.795311" lon="8.226880">
|
|
<ele>8.474225</ele>
|
|
<time>2026-07-12T09:11:46.000Z</time>
|
|
</trkpt>
|
|
<trkpt lat="55.795361" lon="8.226823">
|
|
<ele>8.461381</ele>
|
|
<time>2026-07-12T09:11:47.000Z</time>
|
|
</trkpt>
|
|
<trkpt lat="55.795403" lon="8.226767">
|
|
<ele>8.450030</ele>
|
|
<time>2026-07-12T09:11:48.000Z</time>
|
|
</trkpt>
|
|
<trkpt lat="55.795441" lon="8.226718">
|
|
<ele>8.439879</ele>
|
|
<time>2026-07-12T09:11:49.000Z</time>
|
|
</trkpt>
|
|
<trkpt lat="55.795528" lon="8.226620">
|
|
<ele>8.440080</ele>
|
|
<time>2026-07-12T09:11:50.000Z</time>
|
|
</trkpt>
|
|
<trkpt lat="55.795582" lon="8.226565">
|
|
<ele>8.456437</ele>
|
|
<time>2026-07-12T09:11:51.000Z</time>
|
|
</trkpt>
|
|
<trkpt lat="55.795631" lon="8.226515">
|
|
<ele>8.471286</ele>
|
|
<time>2026-07-12T09:11:52.000Z</time>
|
|
</trkpt>
|
|
<trkpt lat="55.795685" lon="8.226461">
|
|
<ele>8.487569</ele>
|
|
<time>2026-07-12T09:11:53.000Z</time>
|
|
</trkpt>
|
|
<trkpt lat="55.795742" lon="8.226404">
|
|
<ele>8.504758</ele>
|
|
<time>2026-07-12T09:11:54.000Z</time>
|
|
</trkpt>
|
|
<trkpt lat="55.795795" lon="8.226346">
|
|
<ele>8.521115</ele>
|
|
<time>2026-07-12T09:11:55.000Z</time>
|
|
</trkpt>
|
|
<trkpt lat="55.795849" lon="8.226288">
|
|
<ele>8.537696</ele>
|
|
<time>2026-07-12T09:11:56.000Z</time>
|
|
</trkpt>
|
|
<trkpt lat="55.795898" lon="8.226232">
|
|
<ele>8.553006</ele>
|
|
<time>2026-07-12T09:11:57.000Z</time>
|
|
</trkpt>
|
|
<trkpt lat="55.795956" lon="8.226170">
|
|
<ele>8.570793</ele>
|
|
<time>2026-07-12T09:11:58.000Z</time>
|
|
</trkpt>
|
|
<trkpt lat="55.796009" lon="8.226110">
|
|
<ele>8.587306</ele>
|
|
<time>2026-07-12T09:11:59.000Z</time>
|
|
</trkpt>
|
|
<trkpt lat="55.796062" lon="8.226057">
|
|
<ele>8.603288</ele>
|
|
<time>2026-07-12T09:12:00.000Z</time>
|
|
</trkpt>
|
|
<trkpt lat="55.796116" lon="8.226001">
|
|
<ele>8.619719</ele>
|
|
<time>2026-07-12T09:12:01.000Z</time>
|
|
</trkpt>
|
|
<trkpt lat="55.796169" lon="8.225948">
|
|
<ele>8.635701</ele>
|
|
<time>2026-07-12T09:12:02.000Z</time>
|
|
</trkpt>
|
|
<trkpt lat="55.796223" lon="8.225895">
|
|
<ele>8.651913</ele>
|
|
<time>2026-07-12T09:12:03.000Z</time>
|
|
</trkpt>
|
|
<trkpt lat="55.796276" lon="8.225838">
|
|
<ele>8.668193</ele>
|
|
<time>2026-07-12T09:12:04.000Z</time>
|
|
</trkpt>
|
|
<trkpt lat="55.796326" lon="8.225782">
|
|
<ele>8.683724</ele>
|
|
<time>2026-07-12T09:12:05.000Z</time>
|
|
</trkpt>
|
|
<trkpt lat="55.796379" lon="8.225728">
|
|
<ele>8.699779</ele>
|
|
<time>2026-07-12T09:12:06.000Z</time>
|
|
</trkpt>
|
|
<trkpt lat="55.796433" lon="8.225676">
|
|
<ele>8.715920</ele>
|
|
<time>2026-07-12T09:12:07.000Z</time>
|
|
</trkpt>
|
|
<trkpt lat="55.796482" lon="8.225623">
|
|
<ele>8.730994</ele>
|
|
<time>2026-07-12T09:12:08.000Z</time>
|
|
</trkpt>
|
|
<trkpt lat="55.796532" lon="8.225571">
|
|
<ele>8.746219</ele>
|
|
<time>2026-07-12T09:12:09.000Z</time>
|
|
</trkpt>
|
|
<trkpt lat="55.796581" lon="8.225522">
|
|
<ele>8.760995</ele>
|
|
<time>2026-07-12T09:12:10.000Z</time>
|
|
</trkpt>
|
|
<trkpt lat="55.796627" lon="8.225475">
|
|
<ele>8.774939</ele>
|
|
<time>2026-07-12T09:12:11.000Z</time>
|
|
</trkpt>
|
|
<trkpt lat="55.796669" lon="8.225430">
|
|
<ele>8.787827</ele>
|
|
<time>2026-07-12T09:12:12.000Z</time>
|
|
</trkpt>
|
|
<trkpt lat="55.796707" lon="8.225390">
|
|
<ele>8.799434</ele>
|
|
<time>2026-07-12T09:12:13.000Z</time>
|
|
</trkpt>
|
|
<trkpt lat="55.796745" lon="8.225351">
|
|
<ele>8.810966</ele>
|
|
<time>2026-07-12T09:12:14.000Z</time>
|
|
</trkpt>
|
|
<trkpt lat="55.796783" lon="8.225310">
|
|
<ele>8.822648</ele>
|
|
<time>2026-07-12T09:12:15.000Z</time>
|
|
</trkpt>
|
|
<trkpt lat="55.796822" lon="8.225266">
|
|
<ele>8.834788</ele>
|
|
<time>2026-07-12T09:12:16.000Z</time>
|
|
</trkpt>
|
|
<trkpt lat="55.796864" lon="8.225222">
|
|
<ele>8.847600</ele>
|
|
<time>2026-07-12T09:12:17.000Z</time>
|
|
</trkpt>
|
|
<trkpt lat="55.796905" lon="8.225179">
|
|
<ele>8.860111</ele>
|
|
<time>2026-07-12T09:12:18.000Z</time>
|
|
</trkpt>
|
|
<trkpt lat="55.796944" lon="8.225138">
|
|
<ele>8.872019</ele>
|
|
<time>2026-07-12T09:12:19.000Z</time>
|
|
</trkpt>
|
|
<trkpt lat="55.796986" lon="8.225094">
|
|
<ele>8.884831</ele>
|
|
<time>2026-07-12T09:12:20.000Z</time>
|
|
</trkpt>
|
|
<trkpt lat="55.797028" lon="8.225046">
|
|
<ele>8.897954</ele>
|
|
<time>2026-07-12T09:12:21.000Z</time>
|
|
</trkpt>
|
|
<trkpt lat="55.797073" lon="8.224998">
|
|
<ele>8.886218</ele>
|
|
<time>2026-07-12T09:12:22.000Z</time>
|
|
</trkpt>
|
|
<trkpt lat="55.797115" lon="8.224953">
|
|
<ele>8.869718</ele>
|
|
<time>2026-07-12T09:12:23.000Z</time>
|
|
</trkpt>
|
|
<trkpt lat="55.797161" lon="8.224904">
|
|
<ele>8.851675</ele>
|
|
<time>2026-07-12T09:12:24.000Z</time>
|
|
</trkpt>
|
|
<trkpt lat="55.797207" lon="8.224855">
|
|
<ele>8.833632</ele>
|
|
<time>2026-07-12T09:12:25.000Z</time>
|
|
</trkpt>
|
|
<trkpt lat="55.797253" lon="8.224812">
|
|
<ele>8.816145</ele>
|
|
<time>2026-07-12T09:12:26.000Z</time>
|
|
</trkpt>
|
|
<trkpt lat="55.797298" lon="8.224769">
|
|
<ele>8.798955</ele>
|
|
<time>2026-07-12T09:12:27.000Z</time>
|
|
</trkpt>
|
|
<trkpt lat="55.797352" lon="8.224721">
|
|
<ele>8.778641</ele>
|
|
<time>2026-07-12T09:12:28.000Z</time>
|
|
</trkpt>
|
|
<trkpt lat="55.797398" lon="8.224665">
|
|
<ele>8.759883</ele>
|
|
<time>2026-07-12T09:12:29.000Z</time>
|
|
</trkpt>
|
|
<trkpt lat="55.797443" lon="8.224606">
|
|
<ele>8.741071</ele>
|
|
<time>2026-07-12T09:12:30.000Z</time>
|
|
</trkpt>
|
|
<trkpt lat="55.797489" lon="8.224555">
|
|
<ele>8.722831</ele>
|
|
<time>2026-07-12T09:12:31.000Z</time>
|
|
</trkpt>
|
|
<trkpt lat="55.797535" lon="8.224504">
|
|
<ele>8.704590</ele>
|
|
<time>2026-07-12T09:12:32.000Z</time>
|
|
</trkpt>
|
|
<trkpt lat="55.797581" lon="8.224452">
|
|
<ele>8.686249</ele>
|
|
<time>2026-07-12T09:12:33.000Z</time>
|
|
</trkpt>
|
|
<trkpt lat="55.797630" lon="8.224401">
|
|
<ele>8.667145</ele>
|
|
<time>2026-07-12T09:12:34.000Z</time>
|
|
</trkpt>
|
|
<trkpt lat="55.797680" lon="8.224348">
|
|
<ele>8.647558</ele>
|
|
<time>2026-07-12T09:12:35.000Z</time>
|
|
</trkpt>
|
|
<trkpt lat="55.797726" lon="8.224296">
|
|
<ele>8.629217</ele>
|
|
<time>2026-07-12T09:12:36.000Z</time>
|
|
</trkpt>
|
|
<trkpt lat="55.797775" lon="8.224240">
|
|
<ele>8.609618</ele>
|
|
<time>2026-07-12T09:12:37.000Z</time>
|
|
</trkpt>
|
|
<trkpt lat="55.797829" lon="8.224178">
|
|
<ele>8.587990</ele>
|
|
<time>2026-07-12T09:12:38.000Z</time>
|
|
</trkpt>
|
|
<trkpt lat="55.797871" lon="8.224131">
|
|
<ele>8.571292</ele>
|
|
<time>2026-07-12T09:12:39.000Z</time>
|
|
</trkpt>
|
|
<trkpt lat="55.797901" lon="8.224097">
|
|
<ele>8.559322</ele>
|
|
<time>2026-07-12T09:12:40.000Z</time>
|
|
</trkpt>
|
|
<trkpt lat="55.797970" lon="8.224015">
|
|
<ele>8.531397</ele>
|
|
<time>2026-07-12T09:12:41.000Z</time>
|
|
</trkpt>
|
|
<trkpt lat="55.798023" lon="8.223959">
|
|
<ele>8.510653</ele>
|
|
<time>2026-07-12T09:12:42.000Z</time>
|
|
</trkpt>
|
|
<trkpt lat="55.798077" lon="8.223905">
|
|
<ele>8.489807</ele>
|
|
<time>2026-07-12T09:12:43.000Z</time>
|
|
</trkpt>
|
|
<trkpt lat="55.798122" lon="8.223858">
|
|
<ele>8.472246</ele>
|
|
<time>2026-07-12T09:12:44.000Z</time>
|
|
</trkpt>
|
|
<trkpt lat="55.798168" lon="8.223815">
|
|
<ele>8.454759</ele>
|
|
<time>2026-07-12T09:12:45.000Z</time>
|
|
</trkpt>
|
|
<trkpt lat="55.798214" lon="8.223777">
|
|
<ele>8.437692</ele>
|
|
<time>2026-07-12T09:12:46.000Z</time>
|
|
</trkpt>
|
|
<trkpt lat="55.798267" lon="8.223736">
|
|
<ele>8.418242</ele>
|
|
<time>2026-07-12T09:12:47.000Z</time>
|
|
</trkpt>
|
|
<trkpt lat="55.798325" lon="8.223685">
|
|
<ele>8.396470</ele>
|
|
<time>2026-07-12T09:12:48.000Z</time>
|
|
</trkpt>
|
|
<trkpt lat="55.798378" lon="8.223630">
|
|
<ele>8.375822</ele>
|
|
<time>2026-07-12T09:12:49.000Z</time>
|
|
</trkpt>
|
|
<trkpt lat="55.798420" lon="8.223578">
|
|
<ele>8.358602</ele>
|
|
<time>2026-07-12T09:12:50.000Z</time>
|
|
</trkpt>
|
|
<trkpt lat="55.798462" lon="8.223527">
|
|
<ele>8.341489</ele>
|
|
<time>2026-07-12T09:12:51.000Z</time>
|
|
</trkpt>
|
|
<trkpt lat="55.798511" lon="8.223472">
|
|
<ele>8.321992</ele>
|
|
<time>2026-07-12T09:12:52.000Z</time>
|
|
</trkpt>
|
|
<trkpt lat="55.798565" lon="8.223416">
|
|
<ele>8.300958</ele>
|
|
<time>2026-07-12T09:12:53.000Z</time>
|
|
</trkpt>
|
|
<trkpt lat="55.798622" lon="8.223364">
|
|
<ele>8.349098</ele>
|
|
<time>2026-07-12T09:12:54.000Z</time>
|
|
</trkpt>
|
|
<trkpt lat="55.798676" lon="8.223313">
|
|
<ele>8.418914</ele>
|
|
<time>2026-07-12T09:12:55.000Z</time>
|
|
</trkpt>
|
|
<trkpt lat="55.798721" lon="8.223269">
|
|
<ele>8.477551</ele>
|
|
<time>2026-07-12T09:12:56.000Z</time>
|
|
</trkpt>
|
|
<trkpt lat="55.798767" lon="8.223227">
|
|
<ele>8.536595</ele>
|
|
<time>2026-07-12T09:12:57.000Z</time>
|
|
</trkpt>
|
|
<trkpt lat="55.798821" lon="8.223176">
|
|
<ele>8.606410</ele>
|
|
<time>2026-07-12T09:12:58.000Z</time>
|
|
</trkpt>
|
|
<trkpt lat="55.798874" lon="8.223120">
|
|
<ele>8.676803</ele>
|
|
<time>2026-07-12T09:12:59.000Z</time>
|
|
</trkpt>
|
|
<trkpt lat="55.798931" lon="8.223066">
|
|
<ele>8.750547</ele>
|
|
<time>2026-07-12T09:13:00.000Z</time>
|
|
</trkpt>
|
|
<trkpt lat="55.798985" lon="8.223016">
|
|
<ele>8.820064</ele>
|
|
<time>2026-07-12T09:13:01.000Z</time>
|
|
</trkpt>
|
|
<trkpt lat="55.799046" lon="8.222964">
|
|
<ele>8.897307</ele>
|
|
<time>2026-07-12T09:13:02.000Z</time>
|
|
</trkpt>
|
|
<trkpt lat="55.799107" lon="8.222909">
|
|
<ele>8.975400</ele>
|
|
<time>2026-07-12T09:13:03.000Z</time>
|
|
</trkpt>
|
|
<trkpt lat="55.799168" lon="8.222855">
|
|
<ele>9.053206</ele>
|
|
<time>2026-07-12T09:13:04.000Z</time>
|
|
</trkpt>
|
|
<trkpt lat="55.799229" lon="8.222802">
|
|
<ele>9.130728</ele>
|
|
<time>2026-07-12T09:13:05.000Z</time>
|
|
</trkpt>
|
|
<trkpt lat="55.799286" lon="8.222754">
|
|
<ele>9.202743</ele>
|
|
<time>2026-07-12T09:13:06.000Z</time>
|
|
</trkpt>
|
|
<trkpt lat="55.799339" lon="8.222710">
|
|
<ele>9.269531</ele>
|
|
<time>2026-07-12T09:13:07.000Z</time>
|
|
</trkpt>
|
|
<trkpt lat="55.799397" lon="8.222665">
|
|
<ele>9.341788</ele>
|
|
<time>2026-07-12T09:13:08.000Z</time>
|
|
</trkpt>
|
|
<trkpt lat="55.799450" lon="8.222619">
|
|
<ele>9.409129</ele>
|
|
<time>2026-07-12T09:13:09.000Z</time>
|
|
</trkpt>
|
|
<trkpt lat="55.799500" lon="8.222573">
|
|
<ele>9.473409</ele>
|
|
<time>2026-07-12T09:13:10.000Z</time>
|
|
</trkpt>
|
|
<trkpt lat="55.799549" lon="8.222526">
|
|
<ele>9.536978</ele>
|
|
<time>2026-07-12T09:13:11.000Z</time>
|
|
</trkpt>
|
|
<trkpt lat="55.799603" lon="8.222477">
|
|
<ele>9.606201</ele>
|
|
<time>2026-07-12T09:13:12.000Z</time>
|
|
</trkpt>
|
|
<trkpt lat="55.799652" lon="8.222430">
|
|
<ele>9.669771</ele>
|
|
<time>2026-07-12T09:13:13.000Z</time>
|
|
</trkpt>
|
|
<trkpt lat="55.799705" lon="8.222383">
|
|
<ele>9.737396</ele>
|
|
<time>2026-07-12T09:13:14.000Z</time>
|
|
</trkpt>
|
|
<trkpt lat="55.799755" lon="8.222339">
|
|
<ele>9.801096</ele>
|
|
<time>2026-07-12T09:13:15.000Z</time>
|
|
</trkpt>
|
|
<trkpt lat="55.799801" lon="8.222297">
|
|
<ele>9.860139</ele>
|
|
<time>2026-07-12T09:13:16.000Z</time>
|
|
</trkpt>
|
|
<trkpt lat="55.799847" lon="8.222257">
|
|
<ele>9.918607</ele>
|
|
<time>2026-07-12T09:13:17.000Z</time>
|
|
</trkpt>
|
|
<trkpt lat="55.799892" lon="8.222218">
|
|
<ele>9.975768</ele>
|
|
<time>2026-07-12T09:13:18.000Z</time>
|
|
</trkpt>
|
|
<trkpt lat="55.799938" lon="8.222181">
|
|
<ele>10.033416</ele>
|
|
<time>2026-07-12T09:13:19.000Z</time>
|
|
</trkpt>
|
|
<trkpt lat="55.799984" lon="8.222146">
|
|
<ele>10.090548</ele>
|
|
<time>2026-07-12T09:13:20.000Z</time>
|
|
</trkpt>
|
|
<trkpt lat="55.800030" lon="8.222108">
|
|
<ele>10.148464</ele>
|
|
<time>2026-07-12T09:13:21.000Z</time>
|
|
</trkpt>
|
|
<trkpt lat="55.800079" lon="8.222063">
|
|
<ele>10.211434</ele>
|
|
<time>2026-07-12T09:13:22.000Z</time>
|
|
</trkpt>
|
|
<trkpt lat="55.800125" lon="8.222017">
|
|
<ele>10.271693</ele>
|
|
<time>2026-07-12T09:13:23.000Z</time>
|
|
</trkpt>
|
|
<trkpt lat="55.800175" lon="8.221976">
|
|
<ele>10.334563</ele>
|
|
<time>2026-07-12T09:13:24.000Z</time>
|
|
</trkpt>
|
|
<trkpt lat="55.800217" lon="8.221942">
|
|
<ele>10.328722</ele>
|
|
<time>2026-07-12T09:13:25.000Z</time>
|
|
</trkpt>
|
|
<trkpt lat="55.800259" lon="8.221909">
|
|
<ele>10.300483</ele>
|
|
<time>2026-07-12T09:13:26.000Z</time>
|
|
</trkpt>
|
|
<trkpt lat="55.800301" lon="8.221872">
|
|
<ele>10.271657</ele>
|
|
<time>2026-07-12T09:13:27.000Z</time>
|
|
</trkpt>
|
|
<trkpt lat="55.800343" lon="8.221836">
|
|
<ele>10.242983</ele>
|
|
<time>2026-07-12T09:13:28.000Z</time>
|
|
</trkpt>
|
|
<trkpt lat="55.800377" lon="8.221798">
|
|
<ele>10.218287</ele>
|
|
<time>2026-07-12T09:13:29.000Z</time>
|
|
</trkpt>
|
|
<trkpt lat="55.800415" lon="8.221757">
|
|
<ele>10.190952</ele>
|
|
<time>2026-07-12T09:13:30.000Z</time>
|
|
</trkpt>
|
|
<trkpt lat="55.800449" lon="8.221716">
|
|
<ele>10.165689</ele>
|
|
<time>2026-07-12T09:13:31.000Z</time>
|
|
</trkpt>
|
|
<trkpt lat="55.800488" lon="8.221671">
|
|
<ele>10.137099</ele>
|
|
<time>2026-07-12T09:13:32.000Z</time>
|
|
</trkpt>
|
|
<trkpt lat="55.800529" lon="8.221623">
|
|
<ele>10.106912</ele>
|
|
<time>2026-07-12T09:13:33.000Z</time>
|
|
</trkpt>
|
|
<trkpt lat="55.800571" lon="8.221578">
|
|
<ele>10.076756</ele>
|
|
<time>2026-07-12T09:13:34.000Z</time>
|
|
</trkpt>
|
|
<trkpt lat="55.800613" lon="8.221531">
|
|
<ele>10.046239</ele>
|
|
<time>2026-07-12T09:13:35.000Z</time>
|
|
</trkpt>
|
|
<trkpt lat="55.800652" lon="8.221481">
|
|
<ele>10.016672</ele>
|
|
<time>2026-07-12T09:13:36.000Z</time>
|
|
</trkpt>
|
|
<trkpt lat="55.800694" lon="8.221429">
|
|
<ele>9.985200</ele>
|
|
<time>2026-07-12T09:13:37.000Z</time>
|
|
</trkpt>
|
|
<trkpt lat="55.800735" lon="8.221371">
|
|
<ele>9.952983</ele>
|
|
<time>2026-07-12T09:13:38.000Z</time>
|
|
</trkpt>
|
|
<trkpt lat="55.800781" lon="8.221308">
|
|
<ele>9.917278</ele>
|
|
<time>2026-07-12T09:13:39.000Z</time>
|
|
</trkpt>
|
|
<trkpt lat="55.800827" lon="8.221245">
|
|
<ele>9.881574</ele>
|
|
<time>2026-07-12T09:13:40.000Z</time>
|
|
</trkpt>
|
|
<trkpt lat="55.800869" lon="8.221182">
|
|
<ele>9.847785</ele>
|
|
<time>2026-07-12T09:13:41.000Z</time>
|
|
</trkpt>
|
|
<trkpt lat="55.800915" lon="8.221121">
|
|
<ele>9.812498</ele>
|
|
<time>2026-07-12T09:13:42.000Z</time>
|
|
</trkpt>
|
|
<trkpt lat="55.800961" lon="8.221059">
|
|
<ele>9.777003</ele>
|
|
<time>2026-07-12T09:13:43.000Z</time>
|
|
</trkpt>
|
|
<trkpt lat="55.801006" lon="8.221002">
|
|
<ele>9.743027</ele>
|
|
<time>2026-07-12T09:13:44.000Z</time>
|
|
</trkpt>
|
|
<trkpt lat="55.801056" lon="8.220948">
|
|
<ele>9.707052</ele>
|
|
<time>2026-07-12T09:13:45.000Z</time>
|
|
</trkpt>
|
|
<trkpt lat="55.801105" lon="8.220896">
|
|
<ele>9.671960</ele>
|
|
<time>2026-07-12T09:13:46.000Z</time>
|
|
</trkpt>
|
|
<trkpt lat="55.801151" lon="8.220844">
|
|
<ele>9.638439</ele>
|
|
<time>2026-07-12T09:13:47.000Z</time>
|
|
</trkpt>
|
|
<trkpt lat="55.801205" lon="8.220795">
|
|
<ele>9.601156</ele>
|
|
<time>2026-07-12T09:13:48.000Z</time>
|
|
</trkpt>
|
|
<trkpt lat="55.801254" lon="8.220748">
|
|
<ele>9.566917</ele>
|
|
<time>2026-07-12T09:13:49.000Z</time>
|
|
</trkpt>
|
|
<trkpt lat="55.801300" lon="8.220708">
|
|
<ele>9.535426</ele>
|
|
<time>2026-07-12T09:13:50.000Z</time>
|
|
</trkpt>
|
|
<trkpt lat="55.801346" lon="8.220669">
|
|
<ele>9.504085</ele>
|
|
<time>2026-07-12T09:13:51.000Z</time>
|
|
</trkpt>
|
|
<trkpt lat="55.801392" lon="8.220631">
|
|
<ele>9.472891</ele>
|
|
<time>2026-07-12T09:13:52.000Z</time>
|
|
</trkpt>
|
|
<trkpt lat="55.801437" lon="8.220590">
|
|
<ele>9.441796</ele>
|
|
<time>2026-07-12T09:13:53.000Z</time>
|
|
</trkpt>
|
|
<trkpt lat="55.801483" lon="8.220542">
|
|
<ele>9.408996</ele>
|
|
<time>2026-07-12T09:13:54.000Z</time>
|
|
</trkpt>
|
|
<trkpt lat="55.801529" lon="8.220491">
|
|
<ele>9.375659</ele>
|
|
<time>2026-07-12T09:13:55.000Z</time>
|
|
</trkpt>
|
|
<trkpt lat="55.801578" lon="8.220437">
|
|
<ele>9.340208</ele>
|
|
<time>2026-07-12T09:13:56.000Z</time>
|
|
</trkpt>
|
|
<trkpt lat="55.801628" lon="8.220382">
|
|
<ele>9.304052</ele>
|
|
<time>2026-07-12T09:13:57.000Z</time>
|
|
</trkpt>
|
|
<trkpt lat="55.801674" lon="8.220327">
|
|
<ele>9.269964</ele>
|
|
<time>2026-07-12T09:13:58.000Z</time>
|
|
</trkpt>
|
|
<trkpt lat="55.801720" lon="8.220276">
|
|
<ele>9.247385</ele>
|
|
<time>2026-07-12T09:13:59.000Z</time>
|
|
</trkpt>
|
|
<trkpt lat="55.801762" lon="8.220223">
|
|
<ele>9.269671</ele>
|
|
<time>2026-07-12T09:14:00.000Z</time>
|
|
</trkpt>
|
|
<trkpt lat="55.801796" lon="8.220166">
|
|
<ele>9.289889</ele>
|
|
<time>2026-07-12T09:14:01.000Z</time>
|
|
</trkpt>
|
|
<trkpt lat="55.801830" lon="8.220106">
|
|
<ele>9.310615</ele>
|
|
<time>2026-07-12T09:14:02.000Z</time>
|
|
</trkpt>
|
|
<trkpt lat="55.801865" lon="8.220047">
|
|
<ele>9.331483</ele>
|
|
<time>2026-07-12T09:14:03.000Z</time>
|
|
</trkpt>
|
|
<trkpt lat="55.801903" lon="8.219991">
|
|
<ele>9.352838</ele>
|
|
<time>2026-07-12T09:14:04.000Z</time>
|
|
</trkpt>
|
|
<trkpt lat="55.801937" lon="8.219937">
|
|
<ele>9.372564</ele>
|
|
<time>2026-07-12T09:14:05.000Z</time>
|
|
</trkpt>
|
|
<trkpt lat="55.801979" lon="8.219890">
|
|
<ele>9.394038</ele>
|
|
<time>2026-07-12T09:14:06.000Z</time>
|
|
</trkpt>
|
|
<trkpt lat="55.802029" lon="8.219844">
|
|
<ele>9.418400</ele>
|
|
<time>2026-07-12T09:14:07.000Z</time>
|
|
</trkpt>
|
|
<trkpt lat="55.802071" lon="8.219797">
|
|
<ele>9.439874</ele>
|
|
<time>2026-07-12T09:14:08.000Z</time>
|
|
</trkpt>
|
|
<trkpt lat="55.802113" lon="8.219752">
|
|
<ele>9.461093</ele>
|
|
<time>2026-07-12T09:14:09.000Z</time>
|
|
</trkpt>
|
|
<trkpt lat="55.802155" lon="8.219708">
|
|
<ele>9.482188</ele>
|
|
<time>2026-07-12T09:14:10.000Z</time>
|
|
</trkpt>
|
|
<trkpt lat="55.802196" lon="8.219666">
|
|
<ele>9.502664</ele>
|
|
<time>2026-07-12T09:14:11.000Z</time>
|
|
</trkpt>
|
|
<trkpt lat="55.802238" lon="8.219627">
|
|
<ele>9.523168</ele>
|
|
<time>2026-07-12T09:14:12.000Z</time>
|
|
</trkpt>
|
|
<trkpt lat="55.802277" lon="8.219584">
|
|
<ele>9.543025</ele>
|
|
<time>2026-07-12T09:14:13.000Z</time>
|
|
</trkpt>
|
|
<trkpt lat="55.802315" lon="8.219543">
|
|
<ele>9.562260</ele>
|
|
<time>2026-07-12T09:14:14.000Z</time>
|
|
</trkpt>
|
|
<trkpt lat="55.802357" lon="8.219504">
|
|
<ele>9.582764</ele>
|
|
<time>2026-07-12T09:14:15.000Z</time>
|
|
</trkpt>
|
|
<trkpt lat="55.802399" lon="8.219469">
|
|
<ele>9.602836</ele>
|
|
<time>2026-07-12T09:14:16.000Z</time>
|
|
</trkpt>
|
|
<trkpt lat="55.802444" lon="8.219433">
|
|
<ele>9.624191</ele>
|
|
<time>2026-07-12T09:14:17.000Z</time>
|
|
</trkpt>
|
|
<trkpt lat="55.802490" lon="8.219394">
|
|
<ele>9.646244</ele>
|
|
<time>2026-07-12T09:14:18.000Z</time>
|
|
</trkpt>
|
|
<trkpt lat="55.802536" lon="8.219353">
|
|
<ele>9.668512</ele>
|
|
<time>2026-07-12T09:14:19.000Z</time>
|
|
</trkpt>
|
|
<trkpt lat="55.802582" lon="8.219317">
|
|
<ele>9.690261</ele>
|
|
<time>2026-07-12T09:14:20.000Z</time>
|
|
</trkpt>
|
|
<trkpt lat="55.802624" lon="8.219284">
|
|
<ele>9.710132</ele>
|
|
<time>2026-07-12T09:14:21.000Z</time>
|
|
</trkpt>
|
|
<trkpt lat="55.802662" lon="8.219250">
|
|
<ele>9.728541</ele>
|
|
<time>2026-07-12T09:14:22.000Z</time>
|
|
</trkpt>
|
|
<trkpt lat="55.802700" lon="8.219217">
|
|
<ele>9.746842</ele>
|
|
<time>2026-07-12T09:14:23.000Z</time>
|
|
</trkpt>
|
|
<trkpt lat="55.802738" lon="8.219186">
|
|
<ele>9.764935</ele>
|
|
<time>2026-07-12T09:14:24.000Z</time>
|
|
</trkpt>
|
|
<trkpt lat="55.802780" lon="8.219157">
|
|
<ele>9.784433</ele>
|
|
<time>2026-07-12T09:14:25.000Z</time>
|
|
</trkpt>
|
|
<trkpt lat="55.802818" lon="8.219131">
|
|
<ele>9.802054</ele>
|
|
<time>2026-07-12T09:14:26.000Z</time>
|
|
</trkpt>
|
|
<trkpt lat="55.802860" lon="8.219103">
|
|
<ele>9.821466</ele>
|
|
<time>2026-07-12T09:14:27.000Z</time>
|
|
</trkpt>
|
|
<trkpt lat="55.802902" lon="8.219078">
|
|
<ele>9.840633</ele>
|
|
<time>2026-07-12T09:14:28.000Z</time>
|
|
</trkpt>
|
|
<trkpt lat="55.802940" lon="8.219052">
|
|
<ele>9.858254</ele>
|
|
<time>2026-07-12T09:14:29.000Z</time>
|
|
</trkpt>
|
|
<trkpt lat="55.802975" lon="8.219027">
|
|
<ele>9.874577</ele>
|
|
<time>2026-07-12T09:14:30.000Z</time>
|
|
</trkpt>
|
|
<trkpt lat="55.803013" lon="8.218997">
|
|
<ele>9.892570</ele>
|
|
<time>2026-07-12T09:14:31.000Z</time>
|
|
</trkpt>
|
|
<trkpt lat="55.803051" lon="8.218967">
|
|
<ele>9.910563</ele>
|
|
<time>2026-07-12T09:14:32.000Z</time>
|
|
</trkpt>
|
|
<trkpt lat="55.803089" lon="8.218935">
|
|
<ele>9.928758</ele>
|
|
<time>2026-07-12T09:14:33.000Z</time>
|
|
</trkpt>
|
|
<trkpt lat="55.803127" lon="8.218899">
|
|
<ele>9.947390</ele>
|
|
<time>2026-07-12T09:14:34.000Z</time>
|
|
</trkpt>
|
|
<trkpt lat="55.803165" lon="8.218858">
|
|
<ele>9.966625</ele>
|
|
<time>2026-07-12T09:14:35.000Z</time>
|
|
</trkpt>
|
|
<trkpt lat="55.803200" lon="8.218811">
|
|
<ele>9.985603</ele>
|
|
<time>2026-07-12T09:14:36.000Z</time>
|
|
</trkpt>
|
|
<trkpt lat="55.803226" lon="8.218757">
|
|
<ele>10.002899</ele>
|
|
<time>2026-07-12T09:14:37.000Z</time>
|
|
</trkpt>
|
|
<trkpt lat="55.803257" lon="8.218695">
|
|
<ele>10.017817</ele>
|
|
<time>2026-07-12T09:14:38.000Z</time>
|
|
</trkpt>
|
|
<trkpt lat="55.803291" lon="8.218622">
|
|
<ele>9.969001</ele>
|
|
<time>2026-07-12T09:14:39.000Z</time>
|
|
</trkpt>
|
|
<trkpt lat="55.803326" lon="8.218553">
|
|
<ele>9.921143</ele>
|
|
<time>2026-07-12T09:14:40.000Z</time>
|
|
</trkpt>
|
|
<trkpt lat="55.803368" lon="8.218486">
|
|
<ele>9.869465</ele>
|
|
<time>2026-07-12T09:14:41.000Z</time>
|
|
</trkpt>
|
|
<trkpt lat="55.803410" lon="8.218423">
|
|
<ele>9.819139</ele>
|
|
<time>2026-07-12T09:14:42.000Z</time>
|
|
</trkpt>
|
|
<trkpt lat="55.803459" lon="8.218363">
|
|
<ele>9.764645</ele>
|
|
<time>2026-07-12T09:14:43.000Z</time>
|
|
</trkpt>
|
|
<trkpt lat="55.803509" lon="8.218308">
|
|
<ele>9.710791</ele>
|
|
<time>2026-07-12T09:14:44.000Z</time>
|
|
</trkpt>
|
|
<trkpt lat="55.803562" lon="8.218255">
|
|
<ele>9.655093</ele>
|
|
<time>2026-07-12T09:14:45.000Z</time>
|
|
</trkpt>
|
|
<trkpt lat="55.803616" lon="8.218204">
|
|
<ele>9.599085</ele>
|
|
<time>2026-07-12T09:14:46.000Z</time>
|
|
</trkpt>
|
|
<trkpt lat="55.803669" lon="8.218149">
|
|
<ele>9.542875</ele>
|
|
<time>2026-07-12T09:14:47.000Z</time>
|
|
</trkpt>
|
|
<trkpt lat="55.803722" lon="8.218094">
|
|
<ele>9.486665</ele>
|
|
<time>2026-07-12T09:14:48.000Z</time>
|
|
</trkpt>
|
|
<trkpt lat="55.803776" lon="8.218039">
|
|
<ele>9.429662</ele>
|
|
<time>2026-07-12T09:14:49.000Z</time>
|
|
</trkpt>
|
|
<trkpt lat="55.803825" lon="8.217987">
|
|
<ele>9.377394</ele>
|
|
<time>2026-07-12T09:14:50.000Z</time>
|
|
</trkpt>
|
|
<trkpt lat="55.803879" lon="8.217935">
|
|
<ele>9.321142</ele>
|
|
<time>2026-07-12T09:14:51.000Z</time>
|
|
</trkpt>
|
|
<trkpt lat="55.803928" lon="8.217884">
|
|
<ele>9.269135</ele>
|
|
<time>2026-07-12T09:14:52.000Z</time>
|
|
</trkpt>
|
|
<trkpt lat="55.803978" lon="8.217834">
|
|
<ele>9.216590</ele>
|
|
<time>2026-07-12T09:14:53.000Z</time>
|
|
</trkpt>
|
|
<trkpt lat="55.804028" lon="8.217781">
|
|
<ele>9.163271</ele>
|
|
<time>2026-07-12T09:14:54.000Z</time>
|
|
</trkpt>
|
|
<trkpt lat="55.804077" lon="8.217728">
|
|
<ele>9.110737</ele>
|
|
<time>2026-07-12T09:14:55.000Z</time>
|
|
</trkpt>
|
|
<trkpt lat="55.804123" lon="8.217677">
|
|
<ele>9.061083</ele>
|
|
<time>2026-07-12T09:14:56.000Z</time>
|
|
</trkpt>
|
|
<trkpt lat="55.804169" lon="8.217625">
|
|
<ele>9.011156</ele>
|
|
<time>2026-07-12T09:14:57.000Z</time>
|
|
</trkpt>
|
|
<trkpt lat="55.804218" lon="8.217569">
|
|
<ele>8.957803</ele>
|
|
<time>2026-07-12T09:14:58.000Z</time>
|
|
</trkpt>
|
|
<trkpt lat="55.804272" lon="8.217515">
|
|
<ele>8.901054</ele>
|
|
<time>2026-07-12T09:14:59.000Z</time>
|
|
</trkpt>
|
|
<trkpt lat="55.804329" lon="8.217460">
|
|
<ele>8.841650</ele>
|
|
<time>2026-07-12T09:15:00.000Z</time>
|
|
</trkpt>
|
|
<trkpt lat="55.804382" lon="8.217404">
|
|
<ele>8.785180</ele>
|
|
<time>2026-07-12T09:15:01.000Z</time>
|
|
</trkpt>
|
|
<trkpt lat="55.804436" lon="8.217348">
|
|
<ele>8.727919</ele>
|
|
<time>2026-07-12T09:15:02.000Z</time>
|
|
</trkpt>
|
|
<trkpt lat="55.804485" lon="8.217292">
|
|
<ele>8.674567</ele>
|
|
<time>2026-07-12T09:15:03.000Z</time>
|
|
</trkpt>
|
|
<trkpt lat="55.804539" lon="8.217236">
|
|
<ele>8.617306</ele>
|
|
<time>2026-07-12T09:15:04.000Z</time>
|
|
</trkpt>
|
|
<trkpt lat="55.804592" lon="8.217179">
|
|
<ele>8.560571</ele>
|
|
<time>2026-07-12T09:15:05.000Z</time>
|
|
</trkpt>
|
|
<trkpt lat="55.804646" lon="8.217121">
|
|
<ele>8.502786</ele>
|
|
<time>2026-07-12T09:15:06.000Z</time>
|
|
</trkpt>
|
|
<trkpt lat="55.804703" lon="8.217067">
|
|
<ele>8.443626</ele>
|
|
<time>2026-07-12T09:15:07.000Z</time>
|
|
</trkpt>
|
|
<trkpt lat="55.804752" lon="8.217013">
|
|
<ele>8.390823</ele>
|
|
<time>2026-07-12T09:15:08.000Z</time>
|
|
</trkpt>
|
|
<trkpt lat="55.804802" lon="8.216961">
|
|
<ele>8.370583</ele>
|
|
<time>2026-07-12T09:15:09.000Z</time>
|
|
</trkpt>
|
|
<trkpt lat="55.804852" lon="8.216907">
|
|
<ele>8.366063</ele>
|
|
<time>2026-07-12T09:15:10.000Z</time>
|
|
</trkpt>
|
|
<trkpt lat="55.804905" lon="8.216850">
|
|
<ele>8.361277</ele>
|
|
<time>2026-07-12T09:15:11.000Z</time>
|
|
</trkpt>
|
|
<trkpt lat="55.804958" lon="8.216795">
|
|
<ele>8.356535</ele>
|
|
<time>2026-07-12T09:15:12.000Z</time>
|
|
</trkpt>
|
|
<trkpt lat="55.805012" lon="8.216740">
|
|
<ele>8.351726</ele>
|
|
<time>2026-07-12T09:15:13.000Z</time>
|
|
</trkpt>
|
|
<trkpt lat="55.805061" lon="8.216685">
|
|
<ele>8.347249</ele>
|
|
<time>2026-07-12T09:15:14.000Z</time>
|
|
</trkpt>
|
|
<trkpt lat="55.805119" lon="8.216632">
|
|
<ele>8.342210</ele>
|
|
<time>2026-07-12T09:15:15.000Z</time>
|
|
</trkpt>
|
|
<trkpt lat="55.805172" lon="8.216576">
|
|
<ele>8.337446</ele>
|
|
<time>2026-07-12T09:15:16.000Z</time>
|
|
</trkpt>
|
|
<trkpt lat="55.805222" lon="8.216521">
|
|
<ele>8.332903</ele>
|
|
<time>2026-07-12T09:15:17.000Z</time>
|
|
</trkpt>
|
|
<trkpt lat="55.805271" lon="8.216466">
|
|
<ele>8.328426</ele>
|
|
<time>2026-07-12T09:15:18.000Z</time>
|
|
</trkpt>
|
|
<trkpt lat="55.805325" lon="8.216407">
|
|
<ele>8.323529</ele>
|
|
<time>2026-07-12T09:15:19.000Z</time>
|
|
</trkpt>
|
|
<trkpt lat="55.805374" lon="8.216350">
|
|
<ele>8.319005</ele>
|
|
<time>2026-07-12T09:15:20.000Z</time>
|
|
</trkpt>
|
|
<trkpt lat="55.805420" lon="8.216293">
|
|
<ele>8.314673</ele>
|
|
<time>2026-07-12T09:15:21.000Z</time>
|
|
</trkpt>
|
|
<trkpt lat="55.805470" lon="8.216234">
|
|
<ele>8.310036</ele>
|
|
<time>2026-07-12T09:15:22.000Z</time>
|
|
</trkpt>
|
|
<trkpt lat="55.805523" lon="8.216171">
|
|
<ele>8.305110</ele>
|
|
<time>2026-07-12T09:15:23.000Z</time>
|
|
</trkpt>
|
|
<trkpt lat="55.805569" lon="8.216111">
|
|
<ele>8.300702</ele>
|
|
<time>2026-07-12T09:15:24.000Z</time>
|
|
</trkpt>
|
|
<trkpt lat="55.805618" lon="8.216049">
|
|
<ele>8.296056</ele>
|
|
<time>2026-07-12T09:15:25.000Z</time>
|
|
</trkpt>
|
|
<trkpt lat="55.805668" lon="8.215985">
|
|
<ele>8.291296</ele>
|
|
<time>2026-07-12T09:15:26.000Z</time>
|
|
</trkpt>
|
|
<trkpt lat="55.805714" lon="8.215920">
|
|
<ele>8.286756</ele>
|
|
<time>2026-07-12T09:15:27.000Z</time>
|
|
</trkpt>
|
|
<trkpt lat="55.805759" lon="8.215857">
|
|
<ele>8.282331</ele>
|
|
<time>2026-07-12T09:15:28.000Z</time>
|
|
</trkpt>
|
|
<trkpt lat="55.805809" lon="8.215790">
|
|
<ele>8.277494</ele>
|
|
<time>2026-07-12T09:15:29.000Z</time>
|
|
</trkpt>
|
|
<trkpt lat="55.805859" lon="8.215720">
|
|
<ele>8.272577</ele>
|
|
<time>2026-07-12T09:15:30.000Z</time>
|
|
</trkpt>
|
|
<trkpt lat="55.805904" lon="8.215650">
|
|
<ele>8.267958</ele>
|
|
<time>2026-07-12T09:15:31.000Z</time>
|
|
</trkpt>
|
|
<trkpt lat="55.805946" lon="8.215577">
|
|
<ele>8.263420</ele>
|
|
<time>2026-07-12T09:15:32.000Z</time>
|
|
</trkpt>
|
|
<trkpt lat="55.805992" lon="8.215506">
|
|
<ele>8.258714</ele>
|
|
<time>2026-07-12T09:15:33.000Z</time>
|
|
</trkpt>
|
|
<trkpt lat="55.806034" lon="8.215439">
|
|
<ele>8.254355</ele>
|
|
<time>2026-07-12T09:15:34.000Z</time>
|
|
</trkpt>
|
|
<trkpt lat="55.806080" lon="8.215371">
|
|
<ele>8.249733</ele>
|
|
<time>2026-07-12T09:15:35.000Z</time>
|
|
</trkpt>
|
|
<trkpt lat="55.806129" lon="8.215302">
|
|
<ele>8.244904</ele>
|
|
<time>2026-07-12T09:15:36.000Z</time>
|
|
</trkpt>
|
|
<trkpt lat="55.806171" lon="8.215236">
|
|
<ele>8.240573</ele>
|
|
<time>2026-07-12T09:15:37.000Z</time>
|
|
</trkpt>
|
|
<trkpt lat="55.806213" lon="8.215165">
|
|
<ele>8.236096</ele>
|
|
<time>2026-07-12T09:15:38.000Z</time>
|
|
</trkpt>
|
|
<trkpt lat="55.806255" lon="8.215090">
|
|
<ele>8.257192</ele>
|
|
<time>2026-07-12T09:15:39.000Z</time>
|
|
</trkpt>
|
|
<trkpt lat="55.806293" lon="8.215011">
|
|
<ele>8.290045</ele>
|
|
<time>2026-07-12T09:15:40.000Z</time>
|
|
</trkpt>
|
|
<trkpt lat="55.806328" lon="8.214928">
|
|
<ele>8.322829</ele>
|
|
<time>2026-07-12T09:15:41.000Z</time>
|
|
</trkpt>
|
|
<trkpt lat="55.806366" lon="8.214845">
|
|
<ele>8.356652</ele>
|
|
<time>2026-07-12T09:15:42.000Z</time>
|
|
</trkpt>
|
|
<trkpt lat="55.806404" lon="8.214766">
|
|
<ele>8.389505</ele>
|
|
<time>2026-07-12T09:15:43.000Z</time>
|
|
</trkpt>
|
|
<trkpt lat="55.806442" lon="8.214687">
|
|
<ele>8.422358</ele>
|
|
<time>2026-07-12T09:15:44.000Z</time>
|
|
</trkpt>
|
|
<trkpt lat="55.806484" lon="8.214612">
|
|
<ele>8.455809</ele>
|
|
<time>2026-07-12T09:15:45.000Z</time>
|
|
</trkpt>
|
|
<trkpt lat="55.806522" lon="8.214540">
|
|
<ele>8.487015</ele>
|
|
<time>2026-07-12T09:15:46.000Z</time>
|
|
</trkpt>
|
|
<trkpt lat="55.806564" lon="8.214469">
|
|
<ele>8.519583</ele>
|
|
<time>2026-07-12T09:15:47.000Z</time>
|
|
</trkpt>
|
|
<trkpt lat="55.806603" lon="8.214401">
|
|
<ele>8.550279</ele>
|
|
<time>2026-07-12T09:15:48.000Z</time>
|
|
</trkpt>
|
|
<trkpt lat="55.806644" lon="8.214334">
|
|
<ele>8.581573</ele>
|
|
<time>2026-07-12T09:15:49.000Z</time>
|
|
</trkpt>
|
|
<trkpt lat="55.806683" lon="8.214264">
|
|
<ele>8.612715</ele>
|
|
<time>2026-07-12T09:15:50.000Z</time>
|
|
</trkpt>
|
|
<trkpt lat="55.806725" lon="8.214193">
|
|
<ele>8.645283</ele>
|
|
<time>2026-07-12T09:15:51.000Z</time>
|
|
</trkpt>
|
|
<trkpt lat="55.806763" lon="8.214123">
|
|
<ele>8.676031</ele>
|
|
<time>2026-07-12T09:15:52.000Z</time>
|
|
</trkpt>
|
|
<trkpt lat="55.806801" lon="8.214052">
|
|
<ele>8.707007</ele>
|
|
<time>2026-07-12T09:15:53.000Z</time>
|
|
</trkpt>
|
|
<trkpt lat="55.806843" lon="8.213982">
|
|
<ele>8.739358</ele>
|
|
<time>2026-07-12T09:15:54.000Z</time>
|
|
</trkpt>
|
|
<trkpt lat="55.806885" lon="8.213911">
|
|
<ele>8.771926</ele>
|
|
<time>2026-07-12T09:15:55.000Z</time>
|
|
</trkpt>
|
|
<trkpt lat="55.806927" lon="8.213841">
|
|
<ele>8.804277</ele>
|
|
<time>2026-07-12T09:15:56.000Z</time>
|
|
</trkpt>
|
|
<trkpt lat="55.806965" lon="8.213770">
|
|
<ele>8.835253</ele>
|
|
<time>2026-07-12T09:15:57.000Z</time>
|
|
</trkpt>
|
|
<trkpt lat="55.807007" lon="8.213703">
|
|
<ele>8.866964</ele>
|
|
<time>2026-07-12T09:15:58.000Z</time>
|
|
</trkpt>
|
|
<trkpt lat="55.807049" lon="8.213640">
|
|
<ele>8.897845</ele>
|
|
<time>2026-07-12T09:15:59.000Z</time>
|
|
</trkpt>
|
|
<trkpt lat="55.807091" lon="8.213584">
|
|
<ele>8.927350</ele>
|
|
<time>2026-07-12T09:16:00.000Z</time>
|
|
</trkpt>
|
|
<trkpt lat="55.807125" lon="8.213533">
|
|
<ele>8.952349</ele>
|
|
<time>2026-07-12T09:16:01.000Z</time>
|
|
</trkpt>
|
|
<trkpt lat="55.807159" lon="8.213488">
|
|
<ele>8.976170</ele>
|
|
<time>2026-07-12T09:16:02.000Z</time>
|
|
</trkpt>
|
|
<trkpt lat="55.807186" lon="8.213445">
|
|
<ele>8.996541</ele>
|
|
<time>2026-07-12T09:16:03.000Z</time>
|
|
</trkpt>
|
|
<trkpt lat="55.807205" lon="8.213403">
|
|
<ele>9.013575</ele>
|
|
<time>2026-07-12T09:16:04.000Z</time>
|
|
</trkpt>
|
|
<trkpt lat="55.807220" lon="8.213360">
|
|
<ele>9.029564</ele>
|
|
<time>2026-07-12T09:16:05.000Z</time>
|
|
</trkpt>
|
|
<trkpt lat="55.807232" lon="8.213320">
|
|
<ele>9.043889</ele>
|
|
<time>2026-07-12T09:16:06.000Z</time>
|
|
</trkpt>
|
|
<trkpt lat="55.807240" lon="8.213285">
|
|
<ele>9.055827</ele>
|
|
<time>2026-07-12T09:16:07.000Z</time>
|
|
</trkpt>
|
|
<trkpt lat="55.807255" lon="8.213261">
|
|
<ele>9.067167</ele>
|
|
<time>2026-07-12T09:16:08.000Z</time>
|
|
</trkpt>
|
|
<trkpt lat="55.807270" lon="8.213244">
|
|
<ele>9.077165</ele>
|
|
<time>2026-07-12T09:16:09.000Z</time>
|
|
</trkpt>
|
|
<trkpt lat="55.807289" lon="8.213233">
|
|
<ele>9.088397</ele>
|
|
<time>2026-07-12T09:16:10.000Z</time>
|
|
</trkpt>
|
|
<trkpt lat="55.807308" lon="8.213222">
|
|
<ele>9.099630</ele>
|
|
<time>2026-07-12T09:16:11.000Z</time>
|
|
</trkpt>
|
|
<trkpt lat="55.807327" lon="8.213208">
|
|
<ele>9.111190</ele>
|
|
<time>2026-07-12T09:16:12.000Z</time>
|
|
</trkpt>
|
|
<trkpt lat="55.807343" lon="8.213182">
|
|
<ele>9.123372</ele>
|
|
<time>2026-07-12T09:16:13.000Z</time>
|
|
</trkpt>
|
|
<trkpt lat="55.807354" lon="8.213144">
|
|
<ele>9.136876</ele>
|
|
<time>2026-07-12T09:16:14.000Z</time>
|
|
</trkpt>
|
|
<trkpt lat="55.807358" lon="8.213100">
|
|
<ele>9.150958</ele>
|
|
<time>2026-07-12T09:16:15.000Z</time>
|
|
</trkpt>
|
|
<trkpt lat="55.807365" lon="8.213058">
|
|
<ele>9.164798</ele>
|
|
<time>2026-07-12T09:16:16.000Z</time>
|
|
</trkpt>
|
|
<trkpt lat="55.807381" lon="8.213023">
|
|
<ele>9.179052</ele>
|
|
<time>2026-07-12T09:16:17.000Z</time>
|
|
</trkpt>
|
|
<trkpt lat="55.807400" lon="8.212988">
|
|
<ele>9.194426</ele>
|
|
<time>2026-07-12T09:16:18.000Z</time>
|
|
</trkpt>
|
|
<trkpt lat="55.807423" lon="8.212951">
|
|
<ele>9.211857</ele>
|
|
<time>2026-07-12T09:16:19.000Z</time>
|
|
</trkpt>
|
|
<trkpt lat="55.807453" lon="8.212910">
|
|
<ele>9.233122</ele>
|
|
<time>2026-07-12T09:16:20.000Z</time>
|
|
</trkpt>
|
|
<trkpt lat="55.807480" lon="8.212862">
|
|
<ele>9.246953</ele>
|
|
<time>2026-07-12T09:16:21.000Z</time>
|
|
</trkpt>
|
|
<trkpt lat="55.807510" lon="8.212811">
|
|
<ele>9.250115</ele>
|
|
<time>2026-07-12T09:16:22.000Z</time>
|
|
</trkpt>
|
|
<trkpt lat="55.807541" lon="8.212759">
|
|
<ele>9.253361</ele>
|
|
<time>2026-07-12T09:16:23.000Z</time>
|
|
</trkpt>
|
|
<trkpt lat="55.807571" lon="8.212705">
|
|
<ele>9.256613</ele>
|
|
<time>2026-07-12T09:16:24.000Z</time>
|
|
</trkpt>
|
|
<trkpt lat="55.807606" lon="8.212651">
|
|
<ele>9.260144</ele>
|
|
<time>2026-07-12T09:16:25.000Z</time>
|
|
</trkpt>
|
|
<trkpt lat="55.807636" lon="8.212595">
|
|
<ele>9.263457</ele>
|
|
<time>2026-07-12T09:16:26.000Z</time>
|
|
</trkpt>
|
|
<trkpt lat="55.807674" lon="8.212537">
|
|
<ele>9.267272</ele>
|
|
<time>2026-07-12T09:16:27.000Z</time>
|
|
</trkpt>
|
|
<trkpt lat="55.807709" lon="8.212482">
|
|
<ele>9.270831</ele>
|
|
<time>2026-07-12T09:16:28.000Z</time>
|
|
</trkpt>
|
|
<trkpt lat="55.807739" lon="8.212422">
|
|
<ele>9.274270</ele>
|
|
<time>2026-07-12T09:16:29.000Z</time>
|
|
</trkpt>
|
|
<trkpt lat="55.807766" lon="8.212359">
|
|
<ele>9.277664</ele>
|
|
<time>2026-07-12T09:16:30.000Z</time>
|
|
</trkpt>
|
|
<trkpt lat="55.807785" lon="8.212290">
|
|
<ele>9.280954</ele>
|
|
<time>2026-07-12T09:16:31.000Z</time>
|
|
</trkpt>
|
|
<trkpt lat="55.807796" lon="8.212220">
|
|
<ele>9.284067</ele>
|
|
<time>2026-07-12T09:16:32.000Z</time>
|
|
</trkpt>
|
|
<trkpt lat="55.807812" lon="8.212144">
|
|
<ele>9.287543</ele>
|
|
<time>2026-07-12T09:16:33.000Z</time>
|
|
</trkpt>
|
|
<trkpt lat="55.807835" lon="8.212060">
|
|
<ele>9.291545</ele>
|
|
<time>2026-07-12T09:16:34.000Z</time>
|
|
</trkpt>
|
|
<trkpt lat="55.807865" lon="8.211987">
|
|
<ele>9.295418</ele>
|
|
<time>2026-07-12T09:16:35.000Z</time>
|
|
</trkpt>
|
|
<trkpt lat="55.807899" lon="8.211922">
|
|
<ele>9.299221</ele>
|
|
<time>2026-07-12T09:16:36.000Z</time>
|
|
</trkpt>
|
|
<trkpt lat="55.807938" lon="8.211859">
|
|
<ele>9.303235</ele>
|
|
<time>2026-07-12T09:16:37.000Z</time>
|
|
</trkpt>
|
|
<trkpt lat="55.807976" lon="8.211795">
|
|
<ele>9.307223</ele>
|
|
<time>2026-07-12T09:16:38.000Z</time>
|
|
</trkpt>
|
|
<trkpt lat="55.808010" lon="8.211731">
|
|
<ele>9.310995</ele>
|
|
<time>2026-07-12T09:16:39.000Z</time>
|
|
</trkpt>
|
|
<trkpt lat="55.808048" lon="8.211665">
|
|
<ele>9.315041</ele>
|
|
<time>2026-07-12T09:16:40.000Z</time>
|
|
</trkpt>
|
|
<trkpt lat="55.808083" lon="8.211599">
|
|
<ele>9.318928</ele>
|
|
<time>2026-07-12T09:16:41.000Z</time>
|
|
</trkpt>
|
|
<trkpt lat="55.808117" lon="8.211531">
|
|
<ele>9.322826</ele>
|
|
<time>2026-07-12T09:16:42.000Z</time>
|
|
</trkpt>
|
|
<trkpt lat="55.808155" lon="8.211460">
|
|
<ele>9.327025</ele>
|
|
<time>2026-07-12T09:16:43.000Z</time>
|
|
</trkpt>
|
|
<trkpt lat="55.808189" lon="8.211392">
|
|
<ele>9.330923</ele>
|
|
<time>2026-07-12T09:16:44.000Z</time>
|
|
</trkpt>
|
|
<trkpt lat="55.808224" lon="8.211326">
|
|
<ele>9.334809</ele>
|
|
<time>2026-07-12T09:16:45.000Z</time>
|
|
</trkpt>
|
|
<trkpt lat="55.808258" lon="8.211258">
|
|
<ele>9.338707</ele>
|
|
<time>2026-07-12T09:16:46.000Z</time>
|
|
</trkpt>
|
|
<trkpt lat="55.808292" lon="8.211192">
|
|
<ele>9.342542</ele>
|
|
<time>2026-07-12T09:16:47.000Z</time>
|
|
</trkpt>
|
|
<trkpt lat="55.808331" lon="8.211128">
|
|
<ele>9.346585</ele>
|
|
<time>2026-07-12T09:16:48.000Z</time>
|
|
</trkpt>
|
|
<trkpt lat="55.808365" lon="8.211065">
|
|
<ele>9.350326</ele>
|
|
<time>2026-07-12T09:16:49.000Z</time>
|
|
</trkpt>
|
|
<trkpt lat="55.808399" lon="8.210999">
|
|
<ele>9.354160</ele>
|
|
<time>2026-07-12T09:16:50.000Z</time>
|
|
</trkpt>
|
|
<trkpt lat="55.808434" lon="8.210929">
|
|
<ele>9.358173</ele>
|
|
<time>2026-07-12T09:16:51.000Z</time>
|
|
</trkpt>
|
|
<trkpt lat="55.808468" lon="8.210861">
|
|
<ele>9.362071</ele>
|
|
<time>2026-07-12T09:16:52.000Z</time>
|
|
</trkpt>
|
|
<trkpt lat="55.808506" lon="8.210793">
|
|
<ele>9.366178</ele>
|
|
<time>2026-07-12T09:16:53.000Z</time>
|
|
</trkpt>
|
|
<trkpt lat="55.808544" lon="8.210726">
|
|
<ele>9.370255</ele>
|
|
<time>2026-07-12T09:16:54.000Z</time>
|
|
</trkpt>
|
|
<trkpt lat="55.808582" lon="8.210659">
|
|
<ele>9.374331</ele>
|
|
<time>2026-07-12T09:16:55.000Z</time>
|
|
</trkpt>
|
|
<trkpt lat="55.808617" lon="8.210590">
|
|
<ele>9.378312</ele>
|
|
<time>2026-07-12T09:16:56.000Z</time>
|
|
</trkpt>
|
|
<trkpt lat="55.808655" lon="8.210522">
|
|
<ele>9.382419</ele>
|
|
<time>2026-07-12T09:16:57.000Z</time>
|
|
</trkpt>
|
|
<trkpt lat="55.808689" lon="8.210454">
|
|
<ele>9.401989</ele>
|
|
<time>2026-07-12T09:16:58.000Z</time>
|
|
</trkpt>
|
|
<trkpt lat="55.808723" lon="8.210386">
|
|
<ele>9.423404</ele>
|
|
<time>2026-07-12T09:16:59.000Z</time>
|
|
</trkpt>
|
|
<trkpt lat="55.808758" lon="8.210318">
|
|
<ele>9.445100</ele>
|
|
<time>2026-07-12T09:17:00.000Z</time>
|
|
</trkpt>
|
|
<trkpt lat="55.808792" lon="8.210249">
|
|
<ele>9.466692</ele>
|
|
<time>2026-07-12T09:17:01.000Z</time>
|
|
</trkpt>
|
|
<trkpt lat="55.808826" lon="8.210182">
|
|
<ele>9.487932</ele>
|
|
<time>2026-07-12T09:17:02.000Z</time>
|
|
</trkpt>
|
|
<trkpt lat="55.808861" lon="8.210116">
|
|
<ele>9.509284</ele>
|
|
<time>2026-07-12T09:17:03.000Z</time>
|
|
</trkpt>
|
|
<trkpt lat="55.808895" lon="8.210051">
|
|
<ele>9.530177</ele>
|
|
<time>2026-07-12T09:17:04.000Z</time>
|
|
</trkpt>
|
|
<trkpt lat="55.808929" lon="8.209988">
|
|
<ele>9.550728</ele>
|
|
<time>2026-07-12T09:17:05.000Z</time>
|
|
</trkpt>
|
|
<trkpt lat="55.808964" lon="8.209924">
|
|
<ele>9.571740</ele>
|
|
<time>2026-07-12T09:17:06.000Z</time>
|
|
</trkpt>
|
|
<trkpt lat="55.808998" lon="8.209857">
|
|
<ele>9.592980</ele>
|
|
<time>2026-07-12T09:17:07.000Z</time>
|
|
</trkpt>
|
|
<trkpt lat="55.809029" lon="8.209795">
|
|
<ele>9.612506</ele>
|
|
<time>2026-07-12T09:17:08.000Z</time>
|
|
</trkpt>
|
|
<trkpt lat="55.809063" lon="8.209730">
|
|
<ele>9.633399</ele>
|
|
<time>2026-07-12T09:17:09.000Z</time>
|
|
</trkpt>
|
|
<trkpt lat="55.809097" lon="8.209662">
|
|
<ele>9.654815</ele>
|
|
<time>2026-07-12T09:17:10.000Z</time>
|
|
</trkpt>
|
|
<trkpt lat="55.809132" lon="8.209596">
|
|
<ele>9.676166</ele>
|
|
<time>2026-07-12T09:17:11.000Z</time>
|
|
</trkpt>
|
|
<trkpt lat="55.809162" lon="8.209530">
|
|
<ele>9.696139</ele>
|
|
<time>2026-07-12T09:17:12.000Z</time>
|
|
</trkpt>
|
|
<trkpt lat="55.809196" lon="8.209465">
|
|
<ele>9.717032</ele>
|
|
<time>2026-07-12T09:17:13.000Z</time>
|
|
</trkpt>
|
|
<trkpt lat="55.809231" lon="8.209403">
|
|
<ele>9.737709</ele>
|
|
<time>2026-07-12T09:17:14.000Z</time>
|
|
</trkpt>
|
|
<trkpt lat="55.809261" lon="8.209343">
|
|
<ele>9.756605</ele>
|
|
<time>2026-07-12T09:17:15.000Z</time>
|
|
</trkpt>
|
|
<trkpt lat="55.809292" lon="8.209286">
|
|
<ele>9.775268</ele>
|
|
<time>2026-07-12T09:17:16.000Z</time>
|
|
</trkpt>
|
|
<trkpt lat="55.809326" lon="8.209230">
|
|
<ele>9.794665</ele>
|
|
<time>2026-07-12T09:17:17.000Z</time>
|
|
</trkpt>
|
|
<trkpt lat="55.809357" lon="8.209170">
|
|
<ele>9.813842</ele>
|
|
<time>2026-07-12T09:17:18.000Z</time>
|
|
</trkpt>
|
|
<trkpt lat="55.809387" lon="8.209108">
|
|
<ele>9.833091</ele>
|
|
<time>2026-07-12T09:17:19.000Z</time>
|
|
</trkpt>
|
|
<trkpt lat="55.809418" lon="8.209050">
|
|
<ele>9.851924</ele>
|
|
<time>2026-07-12T09:17:20.000Z</time>
|
|
</trkpt>
|
|
<trkpt lat="55.809452" lon="8.208992">
|
|
<ele>9.871644</ele>
|
|
<time>2026-07-12T09:17:21.000Z</time>
|
|
</trkpt>
|
|
<trkpt lat="55.809483" lon="8.208929">
|
|
<ele>9.891346</ele>
|
|
<time>2026-07-12T09:17:22.000Z</time>
|
|
</trkpt>
|
|
<trkpt lat="55.809517" lon="8.208859">
|
|
<ele>9.913115</ele>
|
|
<time>2026-07-12T09:17:23.000Z</time>
|
|
</trkpt>
|
|
<trkpt lat="55.809551" lon="8.208795">
|
|
<ele>9.933837</ele>
|
|
<time>2026-07-12T09:17:24.000Z</time>
|
|
</trkpt>
|
|
<trkpt lat="55.809586" lon="8.208728">
|
|
<ele>9.955360</ele>
|
|
<time>2026-07-12T09:17:25.000Z</time>
|
|
</trkpt>
|
|
<trkpt lat="55.809624" lon="8.208663">
|
|
<ele>9.977428</ele>
|
|
<time>2026-07-12T09:17:26.000Z</time>
|
|
</trkpt>
|
|
<trkpt lat="55.809658" lon="8.208600">
|
|
<ele>9.997979</ele>
|
|
<time>2026-07-12T09:17:27.000Z</time>
|
|
</trkpt>
|
|
<trkpt lat="55.809692" lon="8.208535">
|
|
<ele>10.018872</ele>
|
|
<time>2026-07-12T09:17:28.000Z</time>
|
|
</trkpt>
|
|
<trkpt lat="55.809731" lon="8.208469">
|
|
<ele>10.041406</ele>
|
|
<time>2026-07-12T09:17:29.000Z</time>
|
|
</trkpt>
|
|
<trkpt lat="55.809765" lon="8.208405">
|
|
<ele>10.062127</ele>
|
|
<time>2026-07-12T09:17:30.000Z</time>
|
|
</trkpt>
|
|
<trkpt lat="55.809799" lon="8.208339">
|
|
<ele>10.083193</ele>
|
|
<time>2026-07-12T09:17:31.000Z</time>
|
|
</trkpt>
|
|
<trkpt lat="55.809833" lon="8.208275">
|
|
<ele>10.103915</ele>
|
|
<time>2026-07-12T09:17:32.000Z</time>
|
|
</trkpt>
|
|
<trkpt lat="55.809868" lon="8.208213">
|
|
<ele>10.124591</ele>
|
|
<time>2026-07-12T09:17:33.000Z</time>
|
|
</trkpt>
|
|
<trkpt lat="55.809898" lon="8.208150">
|
|
<ele>10.150596</ele>
|
|
<time>2026-07-12T09:17:34.000Z</time>
|
|
</trkpt>
|
|
<trkpt lat="55.809929" lon="8.208088">
|
|
<ele>10.185929</ele>
|
|
<time>2026-07-12T09:17:35.000Z</time>
|
|
</trkpt>
|
|
<trkpt lat="55.809963" lon="8.208032">
|
|
<ele>10.221028</ele>
|
|
<time>2026-07-12T09:17:36.000Z</time>
|
|
</trkpt>
|
|
<trkpt lat="55.809990" lon="8.207974">
|
|
<ele>10.253094</ele>
|
|
<time>2026-07-12T09:17:37.000Z</time>
|
|
</trkpt>
|
|
<trkpt lat="55.810020" lon="8.207918">
|
|
<ele>10.286034</ele>
|
|
<time>2026-07-12T09:17:38.000Z</time>
|
|
</trkpt>
|
|
<trkpt lat="55.810051" lon="8.207859">
|
|
<ele>10.320423</ele>
|
|
<time>2026-07-12T09:17:39.000Z</time>
|
|
</trkpt>
|
|
<trkpt lat="55.810085" lon="8.207794">
|
|
<ele>10.358230</ele>
|
|
<time>2026-07-12T09:17:40.000Z</time>
|
|
</trkpt>
|
|
<trkpt lat="55.810120" lon="8.207731">
|
|
<ele>10.395947</ele>
|
|
<time>2026-07-12T09:17:41.000Z</time>
|
|
</trkpt>
|
|
<trkpt lat="55.810154" lon="8.207668">
|
|
<ele>10.433136</ele>
|
|
<time>2026-07-12T09:17:42.000Z</time>
|
|
</trkpt>
|
|
<trkpt lat="55.810184" lon="8.207611">
|
|
<ele>10.466385</ele>
|
|
<time>2026-07-12T09:17:43.000Z</time>
|
|
</trkpt>
|
|
<trkpt lat="55.810219" lon="8.207556">
|
|
<ele>10.501761</ele>
|
|
<time>2026-07-12T09:17:44.000Z</time>
|
|
</trkpt>
|
|
<trkpt lat="55.810253" lon="8.207503">
|
|
<ele>10.536006</ele>
|
|
<time>2026-07-12T09:17:45.000Z</time>
|
|
</trkpt>
|
|
<trkpt lat="55.810280" lon="8.207453">
|
|
<ele>10.565529</ele>
|
|
<time>2026-07-12T09:17:46.000Z</time>
|
|
</trkpt>
|
|
<trkpt lat="55.810299" lon="8.207399">
|
|
<ele>10.592654</ele>
|
|
<time>2026-07-12T09:17:47.000Z</time>
|
|
</trkpt>
|
|
<trkpt lat="55.810307" lon="8.207343">
|
|
<ele>10.617254</ele>
|
|
<time>2026-07-12T09:17:48.000Z</time>
|
|
</trkpt>
|
|
<trkpt lat="55.810307" lon="8.207298">
|
|
<ele>10.636413</ele>
|
|
<time>2026-07-12T09:17:49.000Z</time>
|
|
</trkpt>
|
|
<trkpt lat="55.810303" lon="8.207256">
|
|
<ele>10.654549</ele>
|
|
<time>2026-07-12T09:17:50.000Z</time>
|
|
</trkpt>
|
|
<trkpt lat="55.810295" lon="8.207221">
|
|
<ele>10.670635</ele>
|
|
<time>2026-07-12T09:17:51.000Z</time>
|
|
</trkpt>
|
|
<trkpt lat="55.810287" lon="8.207185">
|
|
<ele>10.687117</ele>
|
|
<time>2026-07-12T09:17:52.000Z</time>
|
|
</trkpt>
|
|
<trkpt lat="55.810287" lon="8.207146">
|
|
<ele>10.703721</ele>
|
|
<time>2026-07-12T09:17:53.000Z</time>
|
|
</trkpt>
|
|
<trkpt lat="55.810295" lon="8.207101">
|
|
<ele>10.723816</ele>
|
|
<time>2026-07-12T09:17:54.000Z</time>
|
|
</trkpt>
|
|
<trkpt lat="55.810307" lon="8.207047">
|
|
<ele>10.748538</ele>
|
|
<time>2026-07-12T09:17:55.000Z</time>
|
|
</trkpt>
|
|
<trkpt lat="55.810322" lon="8.206986">
|
|
<ele>10.776886</ele>
|
|
<time>2026-07-12T09:17:56.000Z</time>
|
|
</trkpt>
|
|
<trkpt lat="55.810345" lon="8.206922">
|
|
<ele>10.809229</ele>
|
|
<time>2026-07-12T09:17:57.000Z</time>
|
|
</trkpt>
|
|
<trkpt lat="55.810364" lon="8.206858">
|
|
<ele>10.840046</ele>
|
|
<time>2026-07-12T09:17:58.000Z</time>
|
|
</trkpt>
|
|
<trkpt lat="55.810387" lon="8.206798">
|
|
<ele>10.870968</ele>
|
|
<time>2026-07-12T09:17:59.000Z</time>
|
|
</trkpt>
|
|
<trkpt lat="55.810410" lon="8.206742">
|
|
<ele>10.900499</ele>
|
|
<time>2026-07-12T09:18:00.000Z</time>
|
|
</trkpt>
|
|
<trkpt lat="55.810432" lon="8.206689">
|
|
<ele>10.928552</ele>
|
|
<time>2026-07-12T09:18:01.000Z</time>
|
|
</trkpt>
|
|
<trkpt lat="55.810455" lon="8.206633">
|
|
<ele>10.958083</ele>
|
|
<time>2026-07-12T09:18:02.000Z</time>
|
|
</trkpt>
|
|
<trkpt lat="55.810478" lon="8.206573">
|
|
<ele>10.989005</ele>
|
|
<time>2026-07-12T09:18:03.000Z</time>
|
|
</trkpt>
|
|
<trkpt lat="55.810505" lon="8.206515">
|
|
<ele>11.021070</ele>
|
|
<time>2026-07-12T09:18:04.000Z</time>
|
|
</trkpt>
|
|
<trkpt lat="55.810532" lon="8.206456">
|
|
<ele>11.053465</ele>
|
|
<time>2026-07-12T09:18:05.000Z</time>
|
|
</trkpt>
|
|
<trkpt lat="55.810562" lon="8.206396">
|
|
<ele>11.087657</ele>
|
|
<time>2026-07-12T09:18:06.000Z</time>
|
|
</trkpt>
|
|
<trkpt lat="55.810593" lon="8.206333">
|
|
<ele>11.123309</ele>
|
|
<time>2026-07-12T09:18:07.000Z</time>
|
|
</trkpt>
|
|
<trkpt lat="55.810631" lon="8.206271">
|
|
<ele>11.162368</ele>
|
|
<time>2026-07-12T09:18:08.000Z</time>
|
|
</trkpt>
|
|
<trkpt lat="55.810665" lon="8.206211">
|
|
<ele>11.198646</ele>
|
|
<time>2026-07-12T09:18:09.000Z</time>
|
|
</trkpt>
|
|
<trkpt lat="55.810696" lon="8.206154">
|
|
<ele>11.232417</ele>
|
|
<time>2026-07-12T09:18:10.000Z</time>
|
|
</trkpt>
|
|
<trkpt lat="55.810722" lon="8.206101">
|
|
<ele>11.262370</ele>
|
|
<time>2026-07-12T09:18:11.000Z</time>
|
|
</trkpt>
|
|
<trkpt lat="55.810745" lon="8.206047">
|
|
<ele>11.291218</ele>
|
|
<time>2026-07-12T09:18:12.000Z</time>
|
|
</trkpt>
|
|
<trkpt lat="55.810776" lon="8.205985">
|
|
<ele>11.326550</ele>
|
|
<time>2026-07-12T09:18:13.000Z</time>
|
|
</trkpt>
|
|
<trkpt lat="55.810802" lon="8.205926">
|
|
<ele>11.358472</ele>
|
|
<time>2026-07-12T09:18:14.000Z</time>
|
|
</trkpt>
|
|
<trkpt lat="55.810829" lon="8.205874">
|
|
<ele>11.388614</ele>
|
|
<time>2026-07-12T09:18:15.000Z</time>
|
|
</trkpt>
|
|
<trkpt lat="55.810856" lon="8.205828">
|
|
<ele>11.416933</ele>
|
|
<time>2026-07-12T09:18:16.000Z</time>
|
|
</trkpt>
|
|
<trkpt lat="55.810883" lon="8.205778">
|
|
<ele>11.446456</ele>
|
|
<time>2026-07-12T09:18:17.000Z</time>
|
|
</trkpt>
|
|
<trkpt lat="55.810909" lon="8.205734">
|
|
<ele>11.473639</ele>
|
|
<time>2026-07-12T09:18:18.000Z</time>
|
|
</trkpt>
|
|
<trkpt lat="55.810936" lon="8.205695">
|
|
<ele>11.497017</ele>
|
|
<time>2026-07-12T09:18:19.000Z</time>
|
|
</trkpt>
|
|
<trkpt lat="55.810959" lon="8.205657">
|
|
<ele>11.469182</ele>
|
|
<time>2026-07-12T09:18:20.000Z</time>
|
|
</trkpt>
|
|
<trkpt lat="55.810986" lon="8.205622">
|
|
<ele>11.439555</ele>
|
|
<time>2026-07-12T09:18:21.000Z</time>
|
|
</trkpt>
|
|
<trkpt lat="55.811016" lon="8.205587">
|
|
<ele>11.407740</ele>
|
|
<time>2026-07-12T09:18:22.000Z</time>
|
|
</trkpt>
|
|
<trkpt lat="55.811058" lon="8.205548">
|
|
<ele>11.365723</ele>
|
|
<time>2026-07-12T09:18:23.000Z</time>
|
|
</trkpt>
|
|
<trkpt lat="55.811115" lon="8.205500">
|
|
<ele>11.309795</ele>
|
|
<time>2026-07-12T09:18:24.000Z</time>
|
|
</trkpt>
|
|
<trkpt lat="55.811176" lon="8.205444">
|
|
<ele>11.248918</ele>
|
|
<time>2026-07-12T09:18:25.000Z</time>
|
|
</trkpt>
|
|
<trkpt lat="55.811234" lon="8.205391">
|
|
<ele>11.191092</ele>
|
|
<time>2026-07-12T09:18:26.000Z</time>
|
|
</trkpt>
|
|
<trkpt lat="55.811283" lon="8.205334">
|
|
<ele>11.139172</ele>
|
|
<time>2026-07-12T09:18:27.000Z</time>
|
|
</trkpt>
|
|
<trkpt lat="55.811337" lon="8.205267">
|
|
<ele>11.080788</ele>
|
|
<time>2026-07-12T09:18:28.000Z</time>
|
|
</trkpt>
|
|
<trkpt lat="55.811382" lon="8.205190">
|
|
<ele>11.025421</ele>
|
|
<time>2026-07-12T09:18:29.000Z</time>
|
|
</trkpt>
|
|
<trkpt lat="55.811424" lon="8.205110">
|
|
<ele>10.970857</ele>
|
|
<time>2026-07-12T09:18:30.000Z</time>
|
|
</trkpt>
|
|
<trkpt lat="55.811462" lon="8.205030">
|
|
<ele>10.918651</ele>
|
|
<time>2026-07-12T09:18:31.000Z</time>
|
|
</trkpt>
|
|
<trkpt lat="55.811504" lon="8.204955">
|
|
<ele>10.865880</ele>
|
|
<time>2026-07-12T09:18:32.000Z</time>
|
|
</trkpt>
|
|
<trkpt lat="55.811542" lon="8.204880">
|
|
<ele>10.815551</ele>
|
|
<time>2026-07-12T09:18:33.000Z</time>
|
|
</trkpt>
|
|
<trkpt lat="55.811584" lon="8.204803">
|
|
<ele>10.762070</ele>
|
|
<time>2026-07-12T09:18:34.000Z</time>
|
|
</trkpt>
|
|
<trkpt lat="55.811623" lon="8.204728">
|
|
<ele>10.711143</ele>
|
|
<time>2026-07-12T09:18:35.000Z</time>
|
|
</trkpt>
|
|
<trkpt lat="55.811665" lon="8.204651">
|
|
<ele>10.657662</ele>
|
|
<time>2026-07-12T09:18:36.000Z</time>
|
|
</trkpt>
|
|
<trkpt lat="55.811703" lon="8.204575">
|
|
<ele>10.606962</ele>
|
|
<time>2026-07-12T09:18:37.000Z</time>
|
|
</trkpt>
|
|
<trkpt lat="55.811741" lon="8.204496">
|
|
<ele>10.555136</ele>
|
|
<time>2026-07-12T09:18:38.000Z</time>
|
|
</trkpt>
|
|
<trkpt lat="55.811779" lon="8.204420">
|
|
<ele>10.504436</ele>
|
|
<time>2026-07-12T09:18:39.000Z</time>
|
|
</trkpt>
|
|
<trkpt lat="55.811817" lon="8.204348">
|
|
<ele>10.455208</ele>
|
|
<time>2026-07-12T09:18:40.000Z</time>
|
|
</trkpt>
|
|
<trkpt lat="55.811852" lon="8.204271">
|
|
<ele>10.405850</ele>
|
|
<time>2026-07-12T09:18:41.000Z</time>
|
|
</trkpt>
|
|
<trkpt lat="55.811890" lon="8.204192">
|
|
<ele>10.354024</ele>
|
|
<time>2026-07-12T09:18:42.000Z</time>
|
|
</trkpt>
|
|
<trkpt lat="55.811924" lon="8.204116">
|
|
<ele>10.305609</ele>
|
|
<time>2026-07-12T09:18:43.000Z</time>
|
|
</trkpt>
|
|
<trkpt lat="55.811958" lon="8.204038">
|
|
<ele>10.256412</ele>
|
|
<time>2026-07-12T09:18:44.000Z</time>
|
|
</trkpt>
|
|
<trkpt lat="55.811993" lon="8.203959">
|
|
<ele>10.206275</ele>
|
|
<time>2026-07-12T09:18:45.000Z</time>
|
|
</trkpt>
|
|
<trkpt lat="55.812027" lon="8.203880">
|
|
<ele>10.156683</ele>
|
|
<time>2026-07-12T09:18:46.000Z</time>
|
|
</trkpt>
|
|
<trkpt lat="55.812057" lon="8.203801">
|
|
<ele>10.109164</ele>
|
|
<time>2026-07-12T09:18:47.000Z</time>
|
|
</trkpt>
|
|
<trkpt lat="55.812092" lon="8.203721">
|
|
<ele>10.058635</ele>
|
|
<time>2026-07-12T09:18:48.000Z</time>
|
|
</trkpt>
|
|
<trkpt lat="55.812126" lon="8.203641">
|
|
<ele>10.008646</ele>
|
|
<time>2026-07-12T09:18:49.000Z</time>
|
|
</trkpt>
|
|
<trkpt lat="55.812160" lon="8.203562">
|
|
<ele>9.959054</ele>
|
|
<time>2026-07-12T09:18:50.000Z</time>
|
|
</trkpt>
|
|
<trkpt lat="55.812191" lon="8.203483">
|
|
<ele>9.911033</ele>
|
|
<time>2026-07-12T09:18:51.000Z</time>
|
|
</trkpt>
|
|
<trkpt lat="55.812221" lon="8.203404">
|
|
<ele>9.910341</ele>
|
|
<time>2026-07-12T09:18:52.000Z</time>
|
|
</trkpt>
|
|
<trkpt lat="55.812252" lon="8.203321">
|
|
<ele>9.919024</ele>
|
|
<time>2026-07-12T09:18:53.000Z</time>
|
|
</trkpt>
|
|
<trkpt lat="55.812283" lon="8.203239">
|
|
<ele>9.927635</ele>
|
|
<time>2026-07-12T09:18:54.000Z</time>
|
|
</trkpt>
|
|
<trkpt lat="55.812317" lon="8.203158">
|
|
<ele>9.936444</ele>
|
|
<time>2026-07-12T09:18:55.000Z</time>
|
|
</trkpt>
|
|
<trkpt lat="55.812344" lon="8.203076">
|
|
<ele>9.944724</ele>
|
|
<time>2026-07-12T09:18:56.000Z</time>
|
|
</trkpt>
|
|
<trkpt lat="55.812370" lon="8.202995">
|
|
<ele>9.952852</ele>
|
|
<time>2026-07-12T09:18:57.000Z</time>
|
|
</trkpt>
|
|
<trkpt lat="55.812397" lon="8.202911">
|
|
<ele>9.961283</ele>
|
|
<time>2026-07-12T09:18:58.000Z</time>
|
|
</trkpt>
|
|
<trkpt lat="55.812424" lon="8.202826">
|
|
<ele>9.969790</ele>
|
|
<time>2026-07-12T09:18:59.000Z</time>
|
|
</trkpt>
|
|
<trkpt lat="55.812450" lon="8.202740">
|
|
<ele>9.978299</ele>
|
|
<time>2026-07-12T09:19:00.000Z</time>
|
|
</trkpt>
|
|
<trkpt lat="55.812477" lon="8.202655">
|
|
<ele>9.986806</ele>
|
|
<time>2026-07-12T09:19:01.000Z</time>
|
|
</trkpt>
|
|
<trkpt lat="55.812504" lon="8.202570">
|
|
<ele>9.995313</ele>
|
|
<time>2026-07-12T09:19:02.000Z</time>
|
|
</trkpt>
|
|
<trkpt lat="55.812527" lon="8.202490">
|
|
<ele>10.003142</ele>
|
|
<time>2026-07-12T09:19:03.000Z</time>
|
|
</trkpt>
|
|
<trkpt lat="55.812550" lon="8.202408">
|
|
<ele>10.011127</ele>
|
|
<time>2026-07-12T09:19:04.000Z</time>
|
|
</trkpt>
|
|
<trkpt lat="55.812576" lon="8.202312">
|
|
<ele>10.020412</ele>
|
|
<time>2026-07-12T09:19:05.000Z</time>
|
|
</trkpt>
|
|
<trkpt lat="55.812599" lon="8.202224">
|
|
<ele>10.028868</ele>
|
|
<time>2026-07-12T09:19:06.000Z</time>
|
|
</trkpt>
|
|
<trkpt lat="55.812622" lon="8.202130">
|
|
<ele>10.037800</ele>
|
|
<time>2026-07-12T09:19:07.000Z</time>
|
|
</trkpt>
|
|
<trkpt lat="55.812645" lon="8.202043">
|
|
<ele>10.046177</ele>
|
|
<time>2026-07-12T09:19:08.000Z</time>
|
|
</trkpt>
|
|
<trkpt lat="55.812664" lon="8.201955">
|
|
<ele>10.054391</ele>
|
|
<time>2026-07-12T09:19:09.000Z</time>
|
|
</trkpt>
|
|
<trkpt lat="55.812683" lon="8.201864">
|
|
<ele>10.062849</ele>
|
|
<time>2026-07-12T09:19:10.000Z</time>
|
|
</trkpt>
|
|
<trkpt lat="55.812698" lon="8.201776">
|
|
<ele>10.070861</ele>
|
|
<time>2026-07-12T09:19:11.000Z</time>
|
|
</trkpt>
|
|
<trkpt lat="55.812717" lon="8.201689">
|
|
<ele>10.078993</ele>
|
|
<time>2026-07-12T09:19:12.000Z</time>
|
|
</trkpt>
|
|
<trkpt lat="55.812736" lon="8.201603">
|
|
<ele>10.087044</ele>
|
|
<time>2026-07-12T09:19:13.000Z</time>
|
|
</trkpt>
|
|
<trkpt lat="55.812756" lon="8.201518">
|
|
<ele>10.095072</ele>
|
|
<time>2026-07-12T09:19:14.000Z</time>
|
|
</trkpt>
|
|
<trkpt lat="55.812771" lon="8.201435">
|
|
<ele>10.102669</ele>
|
|
<time>2026-07-12T09:19:15.000Z</time>
|
|
</trkpt>
|
|
<trkpt lat="55.812790" lon="8.201355">
|
|
<ele>10.110236</ele>
|
|
<time>2026-07-12T09:19:16.000Z</time>
|
|
</trkpt>
|
|
<trkpt lat="55.812813" lon="8.201279">
|
|
<ele>10.117756</ele>
|
|
<time>2026-07-12T09:19:17.000Z</time>
|
|
</trkpt>
|
|
<trkpt lat="55.812832" lon="8.201201">
|
|
<ele>10.125163</ele>
|
|
<time>2026-07-12T09:19:18.000Z</time>
|
|
</trkpt>
|
|
<trkpt lat="55.812851" lon="8.201124">
|
|
<ele>10.132490</ele>
|
|
<time>2026-07-12T09:19:19.000Z</time>
|
|
</trkpt>
|
|
<trkpt lat="55.812870" lon="8.201048">
|
|
<ele>10.139737</ele>
|
|
<time>2026-07-12T09:19:20.000Z</time>
|
|
</trkpt>
|
|
<trkpt lat="55.812889" lon="8.200968">
|
|
<ele>10.147304</ele>
|
|
<time>2026-07-12T09:19:21.000Z</time>
|
|
</trkpt>
|
|
<trkpt lat="55.812908" lon="8.200891">
|
|
<ele>10.154631</ele>
|
|
<time>2026-07-12T09:19:22.000Z</time>
|
|
</trkpt>
|
|
<trkpt lat="55.812927" lon="8.200815">
|
|
<ele>10.161878</ele>
|
|
<time>2026-07-12T09:19:23.000Z</time>
|
|
</trkpt>
|
|
<trkpt lat="55.812943" lon="8.200740">
|
|
<ele>10.168868</ele>
|
|
<time>2026-07-12T09:19:24.000Z</time>
|
|
</trkpt>
|
|
<trkpt lat="55.812962" lon="8.200666">
|
|
<ele>10.175956</ele>
|
|
<time>2026-07-12T09:19:25.000Z</time>
|
|
</trkpt>
|
|
<trkpt lat="55.812981" lon="8.200595">
|
|
<ele>10.182851</ele>
|
|
<time>2026-07-12T09:19:26.000Z</time>
|
|
</trkpt>
|
|
<trkpt lat="55.812996" lon="8.200528">
|
|
<ele>10.189627</ele>
|
|
<time>2026-07-12T09:19:27.000Z</time>
|
|
</trkpt>
|
|
<trkpt lat="55.813007" lon="8.200462">
|
|
<ele>10.196094</ele>
|
|
<time>2026-07-12T09:19:28.000Z</time>
|
|
</trkpt>
|
|
<trkpt lat="55.813023" lon="8.200399">
|
|
<ele>10.202590</ele>
|
|
<time>2026-07-12T09:19:29.000Z</time>
|
|
</trkpt>
|
|
<trkpt lat="55.813038" lon="8.200335">
|
|
<ele>10.209105</ele>
|
|
<time>2026-07-12T09:19:30.000Z</time>
|
|
</trkpt>
|
|
<trkpt lat="55.813053" lon="8.200265">
|
|
<ele>10.216143</ele>
|
|
<time>2026-07-12T09:19:31.000Z</time>
|
|
</trkpt>
|
|
<trkpt lat="55.813068" lon="8.200198">
|
|
<ele>10.222919</ele>
|
|
<time>2026-07-12T09:19:32.000Z</time>
|
|
</trkpt>
|
|
<trkpt lat="55.813080" lon="8.200136">
|
|
<ele>10.229080</ele>
|
|
<time>2026-07-12T09:19:33.000Z</time>
|
|
</trkpt>
|
|
<trkpt lat="55.813091" lon="8.200081">
|
|
<ele>10.234565</ele>
|
|
<time>2026-07-12T09:19:34.000Z</time>
|
|
</trkpt>
|
|
<trkpt lat="55.813103" lon="8.200040">
|
|
<ele>10.238908</ele>
|
|
<time>2026-07-12T09:19:35.000Z</time>
|
|
</trkpt>
|
|
<trkpt lat="55.813114" lon="8.200008">
|
|
<ele>10.242432</ele>
|
|
<time>2026-07-12T09:19:36.000Z</time>
|
|
</trkpt>
|
|
<trkpt lat="55.813122" lon="8.199983">
|
|
<ele>10.245135</ele>
|
|
<time>2026-07-12T09:19:37.000Z</time>
|
|
</trkpt>
|
|
<trkpt lat="55.813129" lon="8.199966">
|
|
<ele>10.247115</ele>
|
|
<time>2026-07-12T09:19:38.000Z</time>
|
|
</trkpt>
|
|
<trkpt lat="55.813137" lon="8.199950">
|
|
<ele>10.249128</ele>
|
|
<time>2026-07-12T09:19:39.000Z</time>
|
|
</trkpt>
|
|
<trkpt lat="55.813149" lon="8.199931">
|
|
<ele>10.251813</ele>
|
|
<time>2026-07-12T09:19:40.000Z</time>
|
|
</trkpt>
|
|
<trkpt lat="55.813160" lon="8.199909">
|
|
<ele>10.254580</ele>
|
|
<time>2026-07-12T09:19:41.000Z</time>
|
|
</trkpt>
|
|
<trkpt lat="55.813168" lon="8.199888">
|
|
<ele>10.256963</ele>
|
|
<time>2026-07-12T09:19:42.000Z</time>
|
|
</trkpt>
|
|
<trkpt lat="55.813171" lon="8.199868">
|
|
<ele>10.258908</ele>
|
|
<time>2026-07-12T09:19:43.000Z</time>
|
|
</trkpt>
|
|
<trkpt lat="55.813179" lon="8.199850">
|
|
<ele>10.261064</ele>
|
|
<time>2026-07-12T09:19:44.000Z</time>
|
|
</trkpt>
|
|
<trkpt lat="55.813179" lon="8.199830">
|
|
<ele>10.262943</ele>
|
|
<time>2026-07-12T09:19:45.000Z</time>
|
|
</trkpt>
|
|
<trkpt lat="55.813179" lon="8.199812">
|
|
<ele>10.264635</ele>
|
|
<time>2026-07-12T09:19:46.000Z</time>
|
|
</trkpt>
|
|
<trkpt lat="55.813175" lon="8.199793">
|
|
<ele>10.266541</ele>
|
|
<time>2026-07-12T09:19:47.000Z</time>
|
|
</trkpt>
|
|
<trkpt lat="55.813175" lon="8.199772">
|
|
<ele>10.268514</ele>
|
|
<time>2026-07-12T09:19:48.000Z</time>
|
|
</trkpt>
|
|
<trkpt lat="55.813179" lon="8.199753">
|
|
<ele>10.270420</ele>
|
|
<time>2026-07-12T09:19:49.000Z</time>
|
|
</trkpt>
|
|
<trkpt lat="55.813183" lon="8.199729">
|
|
<ele>10.272772</ele>
|
|
<time>2026-07-12T09:19:50.000Z</time>
|
|
</trkpt>
|
|
<trkpt lat="55.813190" lon="8.199698">
|
|
<ele>10.275911</ele>
|
|
<time>2026-07-12T09:19:51.000Z</time>
|
|
</trkpt>
|
|
<trkpt lat="55.813198" lon="8.199660">
|
|
<ele>10.279723</ele>
|
|
<time>2026-07-12T09:19:52.000Z</time>
|
|
</trkpt>
|
|
<trkpt lat="55.813210" lon="8.199616">
|
|
<ele>10.284318</ele>
|
|
<time>2026-07-12T09:19:53.000Z</time>
|
|
</trkpt>
|
|
<trkpt lat="55.813217" lon="8.199569">
|
|
<ele>10.288886</ele>
|
|
<time>2026-07-12T09:19:54.000Z</time>
|
|
</trkpt>
|
|
<trkpt lat="55.813225" lon="8.199523">
|
|
<ele>10.293410</ele>
|
|
<time>2026-07-12T09:19:55.000Z</time>
|
|
</trkpt>
|
|
<trkpt lat="55.813232" lon="8.199480">
|
|
<ele>10.297616</ele>
|
|
<time>2026-07-12T09:19:56.000Z</time>
|
|
</trkpt>
|
|
<trkpt lat="55.813240" lon="8.199436">
|
|
<ele>10.301961</ele>
|
|
<time>2026-07-12T09:19:57.000Z</time>
|
|
</trkpt>
|
|
<trkpt lat="55.813248" lon="8.199396">
|
|
<ele>10.305950</ele>
|
|
<time>2026-07-12T09:19:58.000Z</time>
|
|
</trkpt>
|
|
<trkpt lat="55.813259" lon="8.199356">
|
|
<ele>10.310134</ele>
|
|
<time>2026-07-12T09:19:59.000Z</time>
|
|
</trkpt>
|
|
<trkpt lat="55.813271" lon="8.199312">
|
|
<ele>10.314729</ele>
|
|
<time>2026-07-12T09:20:00.000Z</time>
|
|
</trkpt>
|
|
<trkpt lat="55.813282" lon="8.199261">
|
|
<ele>10.319861</ele>
|
|
<time>2026-07-12T09:20:01.000Z</time>
|
|
</trkpt>
|
|
<trkpt lat="55.813297" lon="8.199210">
|
|
<ele>10.325269</ele>
|
|
<time>2026-07-12T09:20:02.000Z</time>
|
|
</trkpt>
|
|
<trkpt lat="55.813309" lon="8.199159">
|
|
<ele>10.330464</ele>
|
|
<time>2026-07-12T09:20:03.000Z</time>
|
|
</trkpt>
|
|
<trkpt lat="55.813320" lon="8.199107">
|
|
<ele>10.335684</ele>
|
|
<time>2026-07-12T09:20:04.000Z</time>
|
|
</trkpt>
|
|
<trkpt lat="55.813332" lon="8.199061">
|
|
<ele>10.340449</ele>
|
|
<time>2026-07-12T09:20:05.000Z</time>
|
|
</trkpt>
|
|
<trkpt lat="55.813343" lon="8.199017">
|
|
<ele>10.344973</ele>
|
|
<time>2026-07-12T09:20:06.000Z</time>
|
|
</trkpt>
|
|
<trkpt lat="55.813354" lon="8.198970">
|
|
<ele>10.349757</ele>
|
|
<time>2026-07-12T09:20:07.000Z</time>
|
|
</trkpt>
|
|
<trkpt lat="55.813370" lon="8.198927">
|
|
<ele>10.354602</ele>
|
|
<time>2026-07-12T09:20:08.000Z</time>
|
|
</trkpt>
|
|
<trkpt lat="55.813381" lon="8.198892">
|
|
<ele>10.358370</ele>
|
|
<time>2026-07-12T09:20:09.000Z</time>
|
|
</trkpt>
|
|
<trkpt lat="55.813393" lon="8.198854">
|
|
<ele>10.362465</ele>
|
|
<time>2026-07-12T09:20:10.000Z</time>
|
|
</trkpt>
|
|
<trkpt lat="55.813408" lon="8.198802">
|
|
<ele>10.367956</ele>
|
|
<time>2026-07-12T09:20:11.000Z</time>
|
|
</trkpt>
|
|
<trkpt lat="55.813419" lon="8.198750">
|
|
<ele>10.373176</ele>
|
|
<time>2026-07-12T09:20:12.000Z</time>
|
|
</trkpt>
|
|
<trkpt lat="55.813431" lon="8.198697">
|
|
<ele>10.378545</ele>
|
|
<time>2026-07-12T09:20:13.000Z</time>
|
|
</trkpt>
|
|
<trkpt lat="55.813446" lon="8.198645">
|
|
<ele>10.384036</ele>
|
|
<time>2026-07-12T09:20:14.000Z</time>
|
|
</trkpt>
|
|
<trkpt lat="55.813461" lon="8.198591">
|
|
<ele>10.389696</ele>
|
|
<time>2026-07-12T09:20:15.000Z</time>
|
|
</trkpt>
|
|
<trkpt lat="55.813473" lon="8.198535">
|
|
<ele>10.395326</ele>
|
|
<time>2026-07-12T09:20:16.000Z</time>
|
|
</trkpt>
|
|
<trkpt lat="55.813484" lon="8.198478">
|
|
<ele>10.400989</ele>
|
|
<time>2026-07-12T09:20:17.000Z</time>
|
|
</trkpt>
|
|
<trkpt lat="55.813499" lon="8.198421">
|
|
<ele>10.406902</ele>
|
|
<time>2026-07-12T09:20:18.000Z</time>
|
|
</trkpt>
|
|
<trkpt lat="55.813511" lon="8.198364">
|
|
<ele>10.412621</ele>
|
|
<time>2026-07-12T09:20:19.000Z</time>
|
|
</trkpt>
|
|
<trkpt lat="55.813522" lon="8.198309">
|
|
<ele>10.418105</ele>
|
|
<time>2026-07-12T09:20:20.000Z</time>
|
|
</trkpt>
|
|
<trkpt lat="55.813534" lon="8.198254">
|
|
<ele>10.423648</ele>
|
|
<time>2026-07-12T09:20:21.000Z</time>
|
|
</trkpt>
|
|
<trkpt lat="55.813545" lon="8.198199">
|
|
<ele>10.429133</ele>
|
|
<time>2026-07-12T09:20:22.000Z</time>
|
|
</trkpt>
|
|
<trkpt lat="55.813557" lon="8.198145">
|
|
<ele>10.434589</ele>
|
|
<time>2026-07-12T09:20:23.000Z</time>
|
|
</trkpt>
|
|
<trkpt lat="55.813568" lon="8.198092">
|
|
<ele>10.439897</ele>
|
|
<time>2026-07-12T09:20:24.000Z</time>
|
|
</trkpt>
|
|
<trkpt lat="55.813580" lon="8.198046">
|
|
<ele>10.444662</ele>
|
|
<time>2026-07-12T09:20:25.000Z</time>
|
|
</trkpt>
|
|
<trkpt lat="55.813591" lon="8.197999">
|
|
<ele>10.449445</ele>
|
|
<time>2026-07-12T09:20:26.000Z</time>
|
|
</trkpt>
|
|
<trkpt lat="55.813599" lon="8.197951">
|
|
<ele>10.454149</ele>
|
|
<time>2026-07-12T09:20:27.000Z</time>
|
|
</trkpt>
|
|
<trkpt lat="55.813610" lon="8.197913">
|
|
<ele>10.458165</ele>
|
|
<time>2026-07-12T09:20:28.000Z</time>
|
|
</trkpt>
|
|
<trkpt lat="55.813618" lon="8.197884">
|
|
<ele>10.461200</ele>
|
|
<time>2026-07-12T09:20:29.000Z</time>
|
|
</trkpt>
|
|
<trkpt lat="55.813641" lon="8.197824">
|
|
<ele>10.468024</ele>
|
|
<time>2026-07-12T09:20:34.000Z</time>
|
|
</trkpt>
|
|
<trkpt lat="55.813656" lon="8.197786">
|
|
<ele>10.472387</ele>
|
|
<time>2026-07-12T09:20:35.000Z</time>
|
|
</trkpt>
|
|
<trkpt lat="55.813660" lon="8.197753">
|
|
<ele>10.475558</ele>
|
|
<time>2026-07-12T09:20:36.000Z</time>
|
|
</trkpt>
|
|
<trkpt lat="55.813660" lon="8.197720">
|
|
<ele>10.478658</ele>
|
|
<time>2026-07-12T09:20:37.000Z</time>
|
|
</trkpt>
|
|
<trkpt lat="55.813652" lon="8.197698">
|
|
<ele>10.481120</ele>
|
|
<time>2026-07-12T09:20:38.000Z</time>
|
|
</trkpt>
|
|
<trkpt lat="55.813648" lon="8.197675">
|
|
<ele>10.481846</ele>
|
|
<time>2026-07-12T09:20:39.000Z</time>
|
|
</trkpt>
|
|
<trkpt lat="55.813652" lon="8.197649">
|
|
<ele>10.474294</ele>
|
|
<time>2026-07-12T09:20:40.000Z</time>
|
|
</trkpt>
|
|
<trkpt lat="55.813660" lon="8.197624">
|
|
<ele>10.466234</ele>
|
|
<time>2026-07-12T09:20:41.000Z</time>
|
|
</trkpt>
|
|
<trkpt lat="55.813667" lon="8.197598">
|
|
<ele>10.458156</ele>
|
|
<time>2026-07-12T09:20:42.000Z</time>
|
|
</trkpt>
|
|
<trkpt lat="55.813675" lon="8.197567">
|
|
<ele>10.448600</ele>
|
|
<time>2026-07-12T09:20:43.000Z</time>
|
|
</trkpt>
|
|
<trkpt lat="55.813686" lon="8.197527">
|
|
<ele>10.436123</ele>
|
|
<time>2026-07-12T09:20:44.000Z</time>
|
|
</trkpt>
|
|
<trkpt lat="55.813698" lon="8.197485">
|
|
<ele>10.422923</ele>
|
|
<time>2026-07-12T09:20:45.000Z</time>
|
|
</trkpt>
|
|
<trkpt lat="55.813713" lon="8.197438">
|
|
<ele>10.407780</ele>
|
|
<time>2026-07-12T09:20:46.000Z</time>
|
|
</trkpt>
|
|
<trkpt lat="55.813728" lon="8.197388">
|
|
<ele>10.391901</ele>
|
|
<time>2026-07-12T09:20:47.000Z</time>
|
|
</trkpt>
|
|
<trkpt lat="55.813747" lon="8.197341">
|
|
<ele>10.375680</ele>
|
|
<time>2026-07-12T09:20:48.000Z</time>
|
|
</trkpt>
|
|
<trkpt lat="55.813759" lon="8.197293">
|
|
<ele>10.360961</ele>
|
|
<time>2026-07-12T09:20:49.000Z</time>
|
|
</trkpt>
|
|
<trkpt lat="55.813774" lon="8.197243">
|
|
<ele>10.345082</ele>
|
|
<time>2026-07-12T09:20:50.000Z</time>
|
|
</trkpt>
|
|
<trkpt lat="55.813786" lon="8.197186">
|
|
<ele>10.328029</ele>
|
|
<time>2026-07-12T09:20:51.000Z</time>
|
|
</trkpt>
|
|
<trkpt lat="55.813801" lon="8.197127">
|
|
<ele>10.309887</ele>
|
|
<time>2026-07-12T09:20:52.000Z</time>
|
|
</trkpt>
|
|
<trkpt lat="55.813816" lon="8.197063">
|
|
<ele>10.290460</ele>
|
|
<time>2026-07-12T09:20:53.000Z</time>
|
|
</trkpt>
|
|
<trkpt lat="55.813828" lon="8.197000">
|
|
<ele>10.271824</ele>
|
|
<time>2026-07-12T09:20:54.000Z</time>
|
|
</trkpt>
|
|
<trkpt lat="55.813843" lon="8.196940">
|
|
<ele>10.253426</ele>
|
|
<time>2026-07-12T09:20:55.000Z</time>
|
|
</trkpt>
|
|
<trkpt lat="55.813858" lon="8.196878">
|
|
<ele>10.234514</ele>
|
|
<time>2026-07-12T09:20:56.000Z</time>
|
|
</trkpt>
|
|
<trkpt lat="55.813877" lon="8.196805">
|
|
<ele>10.211976</ele>
|
|
<time>2026-07-12T09:20:57.000Z</time>
|
|
</trkpt>
|
|
<trkpt lat="55.813889" lon="8.196735">
|
|
<ele>10.191473</ele>
|
|
<time>2026-07-12T09:20:58.000Z</time>
|
|
</trkpt>
|
|
<trkpt lat="55.813900" lon="8.196669">
|
|
<ele>10.172186</ele>
|
|
<time>2026-07-12T09:20:59.000Z</time>
|
|
</trkpt>
|
|
<trkpt lat="55.813915" lon="8.196602">
|
|
<ele>10.151981</ele>
|
|
<time>2026-07-12T09:21:00.000Z</time>
|
|
</trkpt>
|
|
<trkpt lat="55.813930" lon="8.196536">
|
|
<ele>10.132035</ele>
|
|
<time>2026-07-12T09:21:01.000Z</time>
|
|
</trkpt>
|
|
<trkpt lat="55.813946" lon="8.196468">
|
|
<ele>10.111382</ele>
|
|
<time>2026-07-12T09:21:02.000Z</time>
|
|
</trkpt>
|
|
<trkpt lat="55.813961" lon="8.196402">
|
|
<ele>10.091437</ele>
|
|
<time>2026-07-12T09:21:03.000Z</time>
|
|
</trkpt>
|
|
<trkpt lat="55.813976" lon="8.196336">
|
|
<ele>10.071492</ele>
|
|
<time>2026-07-12T09:21:04.000Z</time>
|
|
</trkpt>
|
|
<trkpt lat="55.813995" lon="8.196268">
|
|
<ele>10.050216</ele>
|
|
<time>2026-07-12T09:21:05.000Z</time>
|
|
</trkpt>
|
|
<trkpt lat="55.814011" lon="8.196202">
|
|
<ele>10.030078</ele>
|
|
<time>2026-07-12T09:21:06.000Z</time>
|
|
</trkpt>
|
|
<trkpt lat="55.814026" lon="8.196127">
|
|
<ele>10.007775</ele>
|
|
<time>2026-07-12T09:21:07.000Z</time>
|
|
</trkpt>
|
|
<trkpt lat="55.814041" lon="8.196049">
|
|
<ele>9.984679</ele>
|
|
<time>2026-07-12T09:21:08.000Z</time>
|
|
</trkpt>
|
|
<trkpt lat="55.814060" lon="8.195975">
|
|
<ele>9.961886</ele>
|
|
<time>2026-07-12T09:21:09.000Z</time>
|
|
</trkpt>
|
|
<trkpt lat="55.814079" lon="8.195902">
|
|
<ele>9.939347</ele>
|
|
<time>2026-07-12T09:21:10.000Z</time>
|
|
</trkpt>
|
|
<trkpt lat="55.814095" lon="8.195828">
|
|
<ele>9.917134</ele>
|
|
<time>2026-07-12T09:21:11.000Z</time>
|
|
</trkpt>
|
|
<trkpt lat="55.814110" lon="8.195753">
|
|
<ele>9.894831</ele>
|
|
<time>2026-07-12T09:21:12.000Z</time>
|
|
</trkpt>
|
|
<trkpt lat="55.814125" lon="8.195682">
|
|
<ele>9.873581</ele>
|
|
<time>2026-07-12T09:21:13.000Z</time>
|
|
</trkpt>
|
|
<trkpt lat="55.814140" lon="8.195609">
|
|
<ele>9.851805</ele>
|
|
<time>2026-07-12T09:21:14.000Z</time>
|
|
</trkpt>
|
|
<trkpt lat="55.814156" lon="8.195532">
|
|
<ele>9.828806</ele>
|
|
<time>2026-07-12T09:21:15.000Z</time>
|
|
</trkpt>
|
|
<trkpt lat="55.814167" lon="8.195458">
|
|
<ele>9.807362</ele>
|
|
<time>2026-07-12T09:21:16.000Z</time>
|
|
</trkpt>
|
|
<trkpt lat="55.814182" lon="8.195385">
|
|
<ele>9.785586</ele>
|
|
<time>2026-07-12T09:21:17.000Z</time>
|
|
</trkpt>
|
|
<trkpt lat="55.814205" lon="8.195313">
|
|
<ele>9.762383</ele>
|
|
<time>2026-07-12T09:21:18.000Z</time>
|
|
</trkpt>
|
|
<trkpt lat="55.814224" lon="8.195239">
|
|
<ele>9.739590</ele>
|
|
<time>2026-07-12T09:21:19.000Z</time>
|
|
</trkpt>
|
|
<trkpt lat="55.814243" lon="8.195160">
|
|
<ele>9.715516</ele>
|
|
<time>2026-07-12T09:21:20.000Z</time>
|
|
</trkpt>
|
|
<trkpt lat="55.814262" lon="8.195086">
|
|
<ele>9.692723</ele>
|
|
<time>2026-07-12T09:21:21.000Z</time>
|
|
</trkpt>
|
|
<trkpt lat="55.814278" lon="8.195012">
|
|
<ele>9.670510</ele>
|
|
<time>2026-07-12T09:21:22.000Z</time>
|
|
</trkpt>
|
|
<trkpt lat="55.814297" lon="8.194937">
|
|
<ele>9.647462</ele>
|
|
<time>2026-07-12T09:21:23.000Z</time>
|
|
</trkpt>
|
|
<trkpt lat="55.814312" lon="8.194864">
|
|
<ele>9.625686</ele>
|
|
<time>2026-07-12T09:21:24.000Z</time>
|
|
</trkpt>
|
|
<trkpt lat="55.814327" lon="8.194793">
|
|
<ele>9.604436</ele>
|
|
<time>2026-07-12T09:21:25.000Z</time>
|
|
</trkpt>
|
|
<trkpt lat="55.814343" lon="8.194719">
|
|
<ele>9.587983</ele>
|
|
<time>2026-07-12T09:21:26.000Z</time>
|
|
</trkpt>
|
|
<trkpt lat="55.814362" lon="8.194650">
|
|
<ele>9.597642</ele>
|
|
<time>2026-07-12T09:21:27.000Z</time>
|
|
</trkpt>
|
|
<trkpt lat="55.814377" lon="8.194582">
|
|
<ele>9.606824</ele>
|
|
<time>2026-07-12T09:21:28.000Z</time>
|
|
</trkpt>
|
|
<trkpt lat="55.814392" lon="8.194512">
|
|
<ele>9.616241</ele>
|
|
<time>2026-07-12T09:21:29.000Z</time>
|
|
</trkpt>
|
|
<trkpt lat="55.814407" lon="8.194443">
|
|
<ele>9.625541</ele>
|
|
<time>2026-07-12T09:21:30.000Z</time>
|
|
</trkpt>
|
|
<trkpt lat="55.814423" lon="8.194370">
|
|
<ele>9.635390</ele>
|
|
<time>2026-07-12T09:21:31.000Z</time>
|
|
</trkpt>
|
|
<trkpt lat="55.814438" lon="8.194299">
|
|
<ele>9.644924</ele>
|
|
<time>2026-07-12T09:21:32.000Z</time>
|
|
</trkpt>
|
|
<trkpt lat="55.814457" lon="8.194228">
|
|
<ele>9.654809</ele>
|
|
<time>2026-07-12T09:21:33.000Z</time>
|
|
</trkpt>
|
|
<trkpt lat="55.814472" lon="8.194155">
|
|
<ele>9.664579</ele>
|
|
<time>2026-07-12T09:21:34.000Z</time>
|
|
</trkpt>
|
|
<trkpt lat="55.814487" lon="8.194081">
|
|
<ele>9.674467</ele>
|
|
<time>2026-07-12T09:21:35.000Z</time>
|
|
</trkpt>
|
|
<trkpt lat="55.814503" lon="8.194006">
|
|
<ele>9.684551</ele>
|
|
<time>2026-07-12T09:21:36.000Z</time>
|
|
</trkpt>
|
|
<trkpt lat="55.814518" lon="8.193932">
|
|
<ele>9.694439</ele>
|
|
<time>2026-07-12T09:21:37.000Z</time>
|
|
</trkpt>
|
|
<trkpt lat="55.814533" lon="8.193857">
|
|
<ele>9.704446</ele>
|
|
<time>2026-07-12T09:21:38.000Z</time>
|
|
</trkpt>
|
|
<trkpt lat="55.814552" lon="8.193787">
|
|
<ele>9.714217</ele>
|
|
<time>2026-07-12T09:21:39.000Z</time>
|
|
</trkpt>
|
|
<trkpt lat="55.814571" lon="8.193714">
|
|
<ele>9.724330</ele>
|
|
<time>2026-07-12T09:21:40.000Z</time>
|
|
</trkpt>
|
|
<trkpt lat="55.814590" lon="8.193640">
|
|
<ele>9.734556</ele>
|
|
<time>2026-07-12T09:21:41.000Z</time>
|
|
</trkpt>
|
|
<trkpt lat="55.814609" lon="8.193566">
|
|
<ele>9.744783</ele>
|
|
<time>2026-07-12T09:21:42.000Z</time>
|
|
</trkpt>
|
|
<trkpt lat="55.814625" lon="8.193492">
|
|
<ele>9.754749</ele>
|
|
<time>2026-07-12T09:21:43.000Z</time>
|
|
</trkpt>
|
|
<trkpt lat="55.814640" lon="8.193421">
|
|
<ele>9.764284</ele>
|
|
<time>2026-07-12T09:21:44.000Z</time>
|
|
</trkpt>
|
|
<trkpt lat="55.814663" lon="8.193346">
|
|
<ele>9.775023</ele>
|
|
<time>2026-07-12T09:21:45.000Z</time>
|
|
</trkpt>
|
|
<trkpt lat="55.814682" lon="8.193269">
|
|
<ele>9.785594</ele>
|
|
<time>2026-07-12T09:21:46.000Z</time>
|
|
</trkpt>
|
|
<trkpt lat="55.814701" lon="8.193193">
|
|
<ele>9.796050</ele>
|
|
<time>2026-07-12T09:21:47.000Z</time>
|
|
</trkpt>
|
|
<trkpt lat="55.814720" lon="8.193114">
|
|
<ele>9.806851</ele>
|
|
<time>2026-07-12T09:21:48.000Z</time>
|
|
</trkpt>
|
|
<trkpt lat="55.814739" lon="8.193037">
|
|
<ele>9.817422</ele>
|
|
<time>2026-07-12T09:21:49.000Z</time>
|
|
</trkpt>
|
|
<trkpt lat="55.814758" lon="8.192959">
|
|
<ele>9.828108</ele>
|
|
<time>2026-07-12T09:21:50.000Z</time>
|
|
</trkpt>
|
|
<trkpt lat="55.814777" lon="8.192884">
|
|
<ele>9.838449</ele>
|
|
<time>2026-07-12T09:21:51.000Z</time>
|
|
</trkpt>
|
|
<trkpt lat="55.814796" lon="8.192813">
|
|
<ele>9.848333</ele>
|
|
<time>2026-07-12T09:21:52.000Z</time>
|
|
</trkpt>
|
|
<trkpt lat="55.814819" lon="8.192740">
|
|
<ele>9.858853</ele>
|
|
<time>2026-07-12T09:21:53.000Z</time>
|
|
</trkpt>
|
|
<trkpt lat="55.814838" lon="8.192668">
|
|
<ele>9.868852</ele>
|
|
<time>2026-07-12T09:21:54.000Z</time>
|
|
</trkpt>
|
|
<trkpt lat="55.814854" lon="8.192595">
|
|
<ele>9.878701</ele>
|
|
<time>2026-07-12T09:21:55.000Z</time>
|
|
</trkpt>
|
|
<trkpt lat="55.814869" lon="8.192525">
|
|
<ele>9.888118</ele>
|
|
<time>2026-07-12T09:21:56.000Z</time>
|
|
</trkpt>
|
|
<trkpt lat="55.814880" lon="8.192458">
|
|
<ele>9.896891</ele>
|
|
<time>2026-07-12T09:21:57.000Z</time>
|
|
</trkpt>
|
|
<trkpt lat="55.814896" lon="8.192392">
|
|
<ele>9.905926</ele>
|
|
<time>2026-07-12T09:21:58.000Z</time>
|
|
</trkpt>
|
|
<trkpt lat="55.814907" lon="8.192327">
|
|
<ele>9.914459</ele>
|
|
<time>2026-07-12T09:21:59.000Z</time>
|
|
</trkpt>
|
|
<trkpt lat="55.814919" lon="8.192269">
|
|
<ele>9.922228</ele>
|
|
<time>2026-07-12T09:22:00.000Z</time>
|
|
</trkpt>
|
|
<trkpt lat="55.814926" lon="8.192227">
|
|
<ele>9.927734</ele>
|
|
<time>2026-07-12T09:22:01.000Z</time>
|
|
</trkpt>
|
|
<trkpt lat="55.814930" lon="8.192200">
|
|
<ele>9.931244</ele>
|
|
<time>2026-07-12T09:22:02.000Z</time>
|
|
</trkpt>
|
|
<trkpt lat="55.814930" lon="8.192173">
|
|
<ele>9.934638</ele>
|
|
<time>2026-07-12T09:22:03.000Z</time>
|
|
</trkpt>
|
|
<trkpt lat="55.814930" lon="8.192136">
|
|
<ele>9.939288</ele>
|
|
<time>2026-07-12T09:22:04.000Z</time>
|
|
</trkpt>
|
|
<trkpt lat="55.814941" lon="8.192079">
|
|
<ele>9.946864</ele>
|
|
<time>2026-07-12T09:22:05.000Z</time>
|
|
</trkpt>
|
|
<trkpt lat="55.814953" lon="8.192001">
|
|
<ele>9.957029</ele>
|
|
<time>2026-07-12T09:22:06.000Z</time>
|
|
</trkpt>
|
|
<trkpt lat="55.814972" lon="8.191907">
|
|
<ele>9.969585</ele>
|
|
<time>2026-07-12T09:22:07.000Z</time>
|
|
</trkpt>
|
|
<trkpt lat="55.814987" lon="8.191817">
|
|
<ele>9.981385</ele>
|
|
<time>2026-07-12T09:22:08.000Z</time>
|
|
</trkpt>
|
|
<trkpt lat="55.815010" lon="8.191734">
|
|
<ele>9.984623</ele>
|
|
<time>2026-07-12T09:22:09.000Z</time>
|
|
</trkpt>
|
|
<trkpt lat="55.815029" lon="8.191651">
|
|
<ele>9.974631</ele>
|
|
<time>2026-07-12T09:22:10.000Z</time>
|
|
</trkpt>
|
|
<trkpt lat="55.815044" lon="8.191559">
|
|
<ele>9.963952</ele>
|
|
<time>2026-07-12T09:22:11.000Z</time>
|
|
</trkpt>
|
|
<trkpt lat="55.815063" lon="8.191471">
|
|
<ele>9.953442</ele>
|
|
<time>2026-07-12T09:22:12.000Z</time>
|
|
</trkpt>
|
|
<trkpt lat="55.815075" lon="8.191386">
|
|
<ele>9.943671</ele>
|
|
<time>2026-07-12T09:22:13.000Z</time>
|
|
</trkpt>
|
|
<trkpt lat="55.815090" lon="8.191303">
|
|
<ele>9.933952</ele>
|
|
<time>2026-07-12T09:22:14.000Z</time>
|
|
</trkpt>
|
|
<trkpt lat="55.815105" lon="8.191219">
|
|
<ele>9.924125</ele>
|
|
<time>2026-07-12T09:22:15.000Z</time>
|
|
</trkpt>
|
|
<trkpt lat="55.815121" lon="8.191134">
|
|
<ele>9.914132</ele>
|
|
<time>2026-07-12T09:22:16.000Z</time>
|
|
</trkpt>
|
|
<trkpt lat="55.815136" lon="8.191052">
|
|
<ele>9.904518</ele>
|
|
<time>2026-07-12T09:22:17.000Z</time>
|
|
</trkpt>
|
|
<trkpt lat="55.815151" lon="8.190972">
|
|
<ele>9.895116</ele>
|
|
<time>2026-07-12T09:22:18.000Z</time>
|
|
</trkpt>
|
|
<trkpt lat="55.815170" lon="8.190892">
|
|
<ele>9.885433</ele>
|
|
<time>2026-07-12T09:22:19.000Z</time>
|
|
</trkpt>
|
|
<trkpt lat="55.815189" lon="8.190809">
|
|
<ele>9.875442</ele>
|
|
<time>2026-07-12T09:22:20.000Z</time>
|
|
</trkpt>
|
|
<trkpt lat="55.815208" lon="8.190729">
|
|
<ele>9.865759</ele>
|
|
<time>2026-07-12T09:22:21.000Z</time>
|
|
</trkpt>
|
|
<trkpt lat="55.815224" lon="8.190656">
|
|
<ele>9.857024</ele>
|
|
<time>2026-07-12T09:22:22.000Z</time>
|
|
</trkpt>
|
|
<trkpt lat="55.815235" lon="8.190585">
|
|
<ele>9.848813</ele>
|
|
<time>2026-07-12T09:22:23.000Z</time>
|
|
</trkpt>
|
|
<trkpt lat="55.815250" lon="8.190517">
|
|
<ele>9.840669</ele>
|
|
<time>2026-07-12T09:22:24.000Z</time>
|
|
</trkpt>
|
|
<trkpt lat="55.815262" lon="8.190452">
|
|
<ele>9.833042</ele>
|
|
<time>2026-07-12T09:22:25.000Z</time>
|
|
</trkpt>
|
|
<trkpt lat="55.815277" lon="8.190382">
|
|
<ele>9.824690</ele>
|
|
<time>2026-07-12T09:22:26.000Z</time>
|
|
</trkpt>
|
|
<trkpt lat="55.815289" lon="8.190309">
|
|
<ele>9.816211</ele>
|
|
<time>2026-07-12T09:22:27.000Z</time>
|
|
</trkpt>
|
|
<trkpt lat="55.815300" lon="8.190235">
|
|
<ele>9.807677</ele>
|
|
<time>2026-07-12T09:22:28.000Z</time>
|
|
</trkpt>
|
|
<trkpt lat="55.815315" lon="8.190163">
|
|
<ele>9.799117</ele>
|
|
<time>2026-07-12T09:22:29.000Z</time>
|
|
</trkpt>
|
|
<trkpt lat="55.815331" lon="8.190091">
|
|
<ele>9.790485</ele>
|
|
<time>2026-07-12T09:22:30.000Z</time>
|
|
</trkpt>
|
|
<trkpt lat="55.815346" lon="8.190021">
|
|
<ele>9.782133</ele>
|
|
<time>2026-07-12T09:22:31.000Z</time>
|
|
</trkpt>
|
|
<trkpt lat="55.815357" lon="8.189952">
|
|
<ele>9.774137</ele>
|
|
<time>2026-07-12T09:22:32.000Z</time>
|
|
</trkpt>
|
|
<trkpt lat="55.815373" lon="8.189878">
|
|
<ele>9.765298</ele>
|
|
<time>2026-07-12T09:22:33.000Z</time>
|
|
</trkpt>
|
|
<trkpt lat="55.815384" lon="8.189802">
|
|
<ele>9.756549</ele>
|
|
<time>2026-07-12T09:22:34.000Z</time>
|
|
</trkpt>
|
|
<trkpt lat="55.815399" lon="8.189730">
|
|
<ele>9.747988</ele>
|
|
<time>2026-07-12T09:22:35.000Z</time>
|
|
</trkpt>
|
|
<trkpt lat="55.815411" lon="8.189647">
|
|
<ele>9.738434</ele>
|
|
<time>2026-07-12T09:22:36.000Z</time>
|
|
</trkpt>
|
|
<trkpt lat="55.815426" lon="8.189573">
|
|
<ele>9.729664</ele>
|
|
<time>2026-07-12T09:22:37.000Z</time>
|
|
</trkpt>
|
|
<trkpt lat="55.815441" lon="8.189500">
|
|
<ele>9.720998</ele>
|
|
<time>2026-07-12T09:22:38.000Z</time>
|
|
</trkpt>
|
|
<trkpt lat="55.815453" lon="8.189426">
|
|
<ele>9.712412</ele>
|
|
<time>2026-07-12T09:22:39.000Z</time>
|
|
</trkpt>
|
|
<trkpt lat="55.815464" lon="8.189356">
|
|
<ele>9.704309</ele>
|
|
<time>2026-07-12T09:22:40.000Z</time>
|
|
</trkpt>
|
|
<trkpt lat="55.815479" lon="8.189287">
|
|
<ele>9.696061</ele>
|
|
<time>2026-07-12T09:22:41.000Z</time>
|
|
</trkpt>
|
|
<trkpt lat="55.815495" lon="8.189223">
|
|
<ele>9.688252</ele>
|
|
<time>2026-07-12T09:22:42.000Z</time>
|
|
</trkpt>
|
|
<trkpt lat="55.815506" lon="8.189175">
|
|
<ele>9.682473</ele>
|
|
<time>2026-07-12T09:22:43.000Z</time>
|
|
</trkpt>
|
|
<trkpt lat="55.815517" lon="8.189100">
|
|
<ele>9.673832</ele>
|
|
<time>2026-07-12T09:23:45.000Z</time>
|
|
</trkpt>
|
|
<trkpt lat="55.815529" lon="8.189050">
|
|
<ele>9.667770</ele>
|
|
<time>2026-07-12T09:23:46.000Z</time>
|
|
</trkpt>
|
|
<trkpt lat="55.815540" lon="8.189005">
|
|
<ele>9.662300</ele>
|
|
<time>2026-07-12T09:23:47.000Z</time>
|
|
</trkpt>
|
|
<trkpt lat="55.815548" lon="8.188954">
|
|
<ele>9.656397</ele>
|
|
<time>2026-07-12T09:23:48.000Z</time>
|
|
</trkpt>
|
|
<trkpt lat="55.815559" lon="8.188899">
|
|
<ele>9.649888</ele>
|
|
<time>2026-07-12T09:23:49.000Z</time>
|
|
</trkpt>
|
|
<trkpt lat="55.815567" lon="8.188838">
|
|
<ele>9.642905</ele>
|
|
<time>2026-07-12T09:23:50.000Z</time>
|
|
</trkpt>
|
|
<trkpt lat="55.815578" lon="8.188780">
|
|
<ele>9.636081</ele>
|
|
<time>2026-07-12T09:23:51.000Z</time>
|
|
</trkpt>
|
|
<trkpt lat="55.815586" lon="8.188723">
|
|
<ele>9.630399</ele>
|
|
<time>2026-07-12T09:23:52.000Z</time>
|
|
</trkpt>
|
|
<trkpt lat="55.815601" lon="8.188663">
|
|
<ele>9.626017</ele>
|
|
<time>2026-07-12T09:23:53.000Z</time>
|
|
</trkpt>
|
|
<trkpt lat="55.815613" lon="8.188600">
|
|
<ele>9.621579</ele>
|
|
<time>2026-07-12T09:23:54.000Z</time>
|
|
</trkpt>
|
|
<trkpt lat="55.815624" lon="8.188539">
|
|
<ele>9.617304</ele>
|
|
<time>2026-07-12T09:23:55.000Z</time>
|
|
</trkpt>
|
|
<trkpt lat="55.815636" lon="8.188476">
|
|
<ele>9.612866</ele>
|
|
<time>2026-07-12T09:23:56.000Z</time>
|
|
</trkpt>
|
|
<trkpt lat="55.815647" lon="8.188407">
|
|
<ele>9.608080</ele>
|
|
<time>2026-07-12T09:23:57.000Z</time>
|
|
</trkpt>
|
|
<trkpt lat="55.815662" lon="8.188339">
|
|
<ele>9.603206</ele>
|
|
<time>2026-07-12T09:23:58.000Z</time>
|
|
</trkpt>
|
|
<trkpt lat="55.815674" lon="8.188273">
|
|
<ele>9.598578</ele>
|
|
<time>2026-07-12T09:23:59.000Z</time>
|
|
</trkpt>
|
|
<trkpt lat="55.815689" lon="8.188205">
|
|
<ele>9.593704</ele>
|
|
<time>2026-07-12T09:24:00.000Z</time>
|
|
</trkpt>
|
|
<trkpt lat="55.815704" lon="8.188133">
|
|
<ele>9.588580</ele>
|
|
<time>2026-07-12T09:24:01.000Z</time>
|
|
</trkpt>
|
|
<trkpt lat="55.815720" lon="8.188063">
|
|
<ele>9.583538</ele>
|
|
<time>2026-07-12T09:24:02.000Z</time>
|
|
</trkpt>
|
|
<trkpt lat="55.815735" lon="8.187990">
|
|
<ele>9.578352</ele>
|
|
<time>2026-07-12T09:24:03.000Z</time>
|
|
</trkpt>
|
|
<trkpt lat="55.815750" lon="8.187917">
|
|
<ele>9.573166</ele>
|
|
<time>2026-07-12T09:24:04.000Z</time>
|
|
</trkpt>
|
|
<trkpt lat="55.815765" lon="8.187852">
|
|
<ele>9.568477</ele>
|
|
<time>2026-07-12T09:24:05.000Z</time>
|
|
</trkpt>
|
|
<trkpt lat="55.815781" lon="8.187789">
|
|
<ele>9.563864</ele>
|
|
<time>2026-07-12T09:24:06.000Z</time>
|
|
</trkpt>
|
|
<trkpt lat="55.815796" lon="8.187702">
|
|
<ele>9.557792</ele>
|
|
<time>2026-07-12T09:24:07.000Z</time>
|
|
</trkpt>
|
|
<trkpt lat="55.815807" lon="8.187621">
|
|
<ele>9.552232</ele>
|
|
<time>2026-07-12T09:24:08.000Z</time>
|
|
</trkpt>
|
|
<trkpt lat="55.815823" lon="8.187547">
|
|
<ele>9.546942</ele>
|
|
<time>2026-07-12T09:24:09.000Z</time>
|
|
</trkpt>
|
|
<trkpt lat="55.815834" lon="8.187471">
|
|
<ele>9.541705</ele>
|
|
<time>2026-07-12T09:24:10.000Z</time>
|
|
</trkpt>
|
|
<trkpt lat="55.815845" lon="8.187395">
|
|
<ele>9.536469</ele>
|
|
<time>2026-07-12T09:24:11.000Z</time>
|
|
</trkpt>
|
|
<trkpt lat="55.815861" lon="8.187323">
|
|
<ele>9.531303</ele>
|
|
<time>2026-07-12T09:24:12.000Z</time>
|
|
</trkpt>
|
|
<trkpt lat="55.815872" lon="8.187252">
|
|
<ele>9.526389</ele>
|
|
<time>2026-07-12T09:24:13.000Z</time>
|
|
</trkpt>
|
|
<trkpt lat="55.815884" lon="8.187184">
|
|
<ele>9.521634</ele>
|
|
<time>2026-07-12T09:24:14.000Z</time>
|
|
</trkpt>
|
|
<trkpt lat="55.815895" lon="8.187112">
|
|
<ele>9.516655</ele>
|
|
<time>2026-07-12T09:24:15.000Z</time>
|
|
</trkpt>
|
|
<trkpt lat="55.815910" lon="8.187036">
|
|
<ele>9.511281</ele>
|
|
<time>2026-07-12T09:24:16.000Z</time>
|
|
</trkpt>
|
|
<trkpt lat="55.815922" lon="8.186965">
|
|
<ele>9.506334</ele>
|
|
<time>2026-07-12T09:24:17.000Z</time>
|
|
</trkpt>
|
|
<trkpt lat="55.815933" lon="8.186898">
|
|
<ele>9.501676</ele>
|
|
<time>2026-07-12T09:24:18.000Z</time>
|
|
</trkpt>
|
|
<trkpt lat="55.815945" lon="8.186830">
|
|
<ele>9.496921</ele>
|
|
<time>2026-07-12T09:24:19.000Z</time>
|
|
</trkpt>
|
|
<trkpt lat="55.815960" lon="8.186758">
|
|
<ele>9.491797</ele>
|
|
<time>2026-07-12T09:24:20.000Z</time>
|
|
</trkpt>
|
|
<trkpt lat="55.815979" lon="8.186690">
|
|
<ele>9.486730</ele>
|
|
<time>2026-07-12T09:24:21.000Z</time>
|
|
</trkpt>
|
|
<trkpt lat="55.815994" lon="8.186625">
|
|
<ele>9.482042</ele>
|
|
<time>2026-07-12T09:24:22.000Z</time>
|
|
</trkpt>
|
|
<trkpt lat="55.816010" lon="8.186558">
|
|
<ele>9.477185</ele>
|
|
<time>2026-07-12T09:24:23.000Z</time>
|
|
</trkpt>
|
|
<trkpt lat="55.816025" lon="8.186484">
|
|
<ele>9.471936</ele>
|
|
<time>2026-07-12T09:24:24.000Z</time>
|
|
</trkpt>
|
|
<trkpt lat="55.816044" lon="8.186414">
|
|
<ele>9.466749</ele>
|
|
<time>2026-07-12T09:24:25.000Z</time>
|
|
</trkpt>
|
|
<trkpt lat="55.816063" lon="8.186342">
|
|
<ele>9.461441</ele>
|
|
<time>2026-07-12T09:24:26.000Z</time>
|
|
</trkpt>
|
|
<trkpt lat="55.816082" lon="8.186269">
|
|
<ele>9.456074</ele>
|
|
<time>2026-07-12T09:24:27.000Z</time>
|
|
</trkpt>
|
|
<trkpt lat="55.816101" lon="8.186192">
|
|
<ele>9.450462</ele>
|
|
<time>2026-07-12T09:24:28.000Z</time>
|
|
</trkpt>
|
|
<trkpt lat="55.816120" lon="8.186113">
|
|
<ele>9.444729</ele>
|
|
<time>2026-07-12T09:24:29.000Z</time>
|
|
</trkpt>
|
|
<trkpt lat="55.816143" lon="8.186038">
|
|
<ele>9.439028</ele>
|
|
<time>2026-07-12T09:24:30.000Z</time>
|
|
</trkpt>
|
|
<trkpt lat="55.816166" lon="8.185965">
|
|
<ele>9.433444</ele>
|
|
<time>2026-07-12T09:24:31.000Z</time>
|
|
</trkpt>
|
|
<trkpt lat="55.816189" lon="8.185890">
|
|
<ele>9.427743</ele>
|
|
<time>2026-07-12T09:24:32.000Z</time>
|
|
</trkpt>
|
|
<trkpt lat="55.816212" lon="8.185817">
|
|
<ele>9.422159</ele>
|
|
<time>2026-07-12T09:24:33.000Z</time>
|
|
</trkpt>
|
|
<trkpt lat="55.816231" lon="8.185743">
|
|
<ele>9.418494</ele>
|
|
<time>2026-07-12T09:24:34.000Z</time>
|
|
</trkpt>
|
|
<trkpt lat="55.816250" lon="8.185667">
|
|
<ele>9.420087</ele>
|
|
<time>2026-07-12T09:24:35.000Z</time>
|
|
</trkpt>
|
|
<trkpt lat="55.816273" lon="8.185591">
|
|
<ele>9.421739</ele>
|
|
<time>2026-07-12T09:24:36.000Z</time>
|
|
</trkpt>
|
|
<trkpt lat="55.816292" lon="8.185514">
|
|
<ele>9.423349</ele>
|
|
<time>2026-07-12T09:24:37.000Z</time>
|
|
</trkpt>
|
|
<trkpt lat="55.816311" lon="8.185442">
|
|
<ele>9.424872</ele>
|
|
<time>2026-07-12T09:24:38.000Z</time>
|
|
</trkpt>
|
|
<trkpt lat="55.816330" lon="8.185374">
|
|
<ele>9.426326</ele>
|
|
<time>2026-07-12T09:24:39.000Z</time>
|
|
</trkpt>
|
|
<trkpt lat="55.816349" lon="8.185315">
|
|
<ele>9.427628</ele>
|
|
<time>2026-07-12T09:24:40.000Z</time>
|
|
</trkpt>
|
|
<trkpt lat="55.816368" lon="8.185265">
|
|
<ele>9.428784</ele>
|
|
<time>2026-07-12T09:24:41.000Z</time>
|
|
</trkpt>
|
|
<trkpt lat="55.816383" lon="8.185212">
|
|
<ele>9.429920</ele>
|
|
<time>2026-07-12T09:24:42.000Z</time>
|
|
</trkpt>
|
|
<trkpt lat="55.816406" lon="8.185136">
|
|
<ele>9.431572</ele>
|
|
<time>2026-07-12T09:24:43.000Z</time>
|
|
</trkpt>
|
|
<trkpt lat="55.816429" lon="8.185076">
|
|
<ele>9.432963</ele>
|
|
<time>2026-07-12T09:24:44.000Z</time>
|
|
</trkpt>
|
|
<trkpt lat="55.816452" lon="8.185015">
|
|
<ele>9.434369</ele>
|
|
<time>2026-07-12T09:24:45.000Z</time>
|
|
</trkpt>
|
|
<trkpt lat="55.816479" lon="8.184954">
|
|
<ele>9.435856</ele>
|
|
<time>2026-07-12T09:24:46.000Z</time>
|
|
</trkpt>
|
|
<trkpt lat="55.816505" lon="8.184897">
|
|
<ele>9.437262</ele>
|
|
<time>2026-07-12T09:24:47.000Z</time>
|
|
</trkpt>
|
|
<trkpt lat="55.816528" lon="8.184836">
|
|
<ele>9.438668</ele>
|
|
<time>2026-07-12T09:24:48.000Z</time>
|
|
</trkpt>
|
|
<trkpt lat="55.816551" lon="8.184772">
|
|
<ele>9.440123</ele>
|
|
<time>2026-07-12T09:24:49.000Z</time>
|
|
</trkpt>
|
|
<trkpt lat="55.816578" lon="8.184710">
|
|
<ele>9.441624</ele>
|
|
<time>2026-07-12T09:24:50.000Z</time>
|
|
</trkpt>
|
|
<trkpt lat="55.816605" lon="8.184645">
|
|
<ele>9.443172</ele>
|
|
<time>2026-07-12T09:24:51.000Z</time>
|
|
</trkpt>
|
|
<trkpt lat="55.816631" lon="8.184577">
|
|
<ele>9.444747</ele>
|
|
<time>2026-07-12T09:24:52.000Z</time>
|
|
</trkpt>
|
|
<trkpt lat="55.816662" lon="8.184505">
|
|
<ele>9.446483</ele>
|
|
<time>2026-07-12T09:24:53.000Z</time>
|
|
</trkpt>
|
|
<trkpt lat="55.816689" lon="8.184434">
|
|
<ele>9.448125</ele>
|
|
<time>2026-07-12T09:24:54.000Z</time>
|
|
</trkpt>
|
|
<trkpt lat="55.816719" lon="8.184362">
|
|
<ele>9.449841</ele>
|
|
<time>2026-07-12T09:24:55.000Z</time>
|
|
</trkpt>
|
|
<trkpt lat="55.816750" lon="8.184292">
|
|
<ele>9.451547</ele>
|
|
<time>2026-07-12T09:24:56.000Z</time>
|
|
</trkpt>
|
|
<trkpt lat="55.816780" lon="8.184220">
|
|
<ele>9.453263</ele>
|
|
<time>2026-07-12T09:24:57.000Z</time>
|
|
</trkpt>
|
|
<trkpt lat="55.816807" lon="8.184159">
|
|
<ele>9.454750</ele>
|
|
<time>2026-07-12T09:24:58.000Z</time>
|
|
</trkpt>
|
|
<trkpt lat="55.816841" lon="8.184099">
|
|
<ele>9.456381</ele>
|
|
<time>2026-07-12T09:24:59.000Z</time>
|
|
</trkpt>
|
|
<trkpt lat="55.816879" lon="8.184022">
|
|
<ele>9.458344</ele>
|
|
<time>2026-07-12T09:25:00.000Z</time>
|
|
</trkpt>
|
|
<trkpt lat="55.816914" lon="8.183954">
|
|
<ele>9.460109</ele>
|
|
<time>2026-07-12T09:25:01.000Z</time>
|
|
</trkpt>
|
|
<trkpt lat="55.816944" lon="8.183886">
|
|
<ele>9.461764</ele>
|
|
<time>2026-07-12T09:25:02.000Z</time>
|
|
</trkpt>
|
|
<trkpt lat="55.816975" lon="8.183821">
|
|
<ele>9.463397</ele>
|
|
<time>2026-07-12T09:25:03.000Z</time>
|
|
</trkpt>
|
|
<trkpt lat="55.817009" lon="8.183755">
|
|
<ele>9.465111</ele>
|
|
<time>2026-07-12T09:25:04.000Z</time>
|
|
</trkpt>
|
|
<trkpt lat="55.817047" lon="8.183690">
|
|
<ele>9.466907</ele>
|
|
<time>2026-07-12T09:25:05.000Z</time>
|
|
</trkpt>
|
|
<trkpt lat="55.817078" lon="8.183628">
|
|
<ele>9.468496</ele>
|
|
<time>2026-07-12T09:25:06.000Z</time>
|
|
</trkpt>
|
|
<trkpt lat="55.817112" lon="8.183568">
|
|
<ele>9.470127</ele>
|
|
<time>2026-07-12T09:25:07.000Z</time>
|
|
</trkpt>
|
|
<trkpt lat="55.817150" lon="8.183507">
|
|
<ele>9.471871</ele>
|
|
<time>2026-07-12T09:25:08.000Z</time>
|
|
</trkpt>
|
|
<trkpt lat="55.817188" lon="8.183444">
|
|
<ele>9.473640</ele>
|
|
<time>2026-07-12T09:25:09.000Z</time>
|
|
</trkpt>
|
|
<trkpt lat="55.817223" lon="8.183381">
|
|
<ele>9.475336</ele>
|
|
<time>2026-07-12T09:25:10.000Z</time>
|
|
</trkpt>
|
|
<trkpt lat="55.817257" lon="8.183319">
|
|
<ele>9.476995</ele>
|
|
<time>2026-07-12T09:25:11.000Z</time>
|
|
</trkpt>
|
|
<trkpt lat="55.817291" lon="8.183256">
|
|
<ele>9.478667</ele>
|
|
<time>2026-07-12T09:25:12.000Z</time>
|
|
</trkpt>
|
|
<trkpt lat="55.817329" lon="8.183197">
|
|
<ele>9.489567</ele>
|
|
<time>2026-07-12T09:25:13.000Z</time>
|
|
</trkpt>
|
|
<trkpt lat="55.817364" lon="8.183137">
|
|
<ele>9.506476</ele>
|
|
<time>2026-07-12T09:25:14.000Z</time>
|
|
</trkpt>
|
|
<trkpt lat="55.817394" lon="8.183076">
|
|
<ele>9.522326</ele>
|
|
<time>2026-07-12T09:25:15.000Z</time>
|
|
</trkpt>
|
|
<trkpt lat="55.817429" lon="8.183022">
|
|
<ele>9.538445</ele>
|
|
<time>2026-07-12T09:25:16.000Z</time>
|
|
</trkpt>
|
|
<trkpt lat="55.817467" lon="8.182968">
|
|
<ele>9.555366</ele>
|
|
<time>2026-07-12T09:25:17.000Z</time>
|
|
</trkpt>
|
|
<trkpt lat="55.817509" lon="8.182911">
|
|
<ele>9.573745</ele>
|
|
<time>2026-07-12T09:25:18.000Z</time>
|
|
</trkpt>
|
|
<trkpt lat="55.817547" lon="8.182849">
|
|
<ele>9.591683</ele>
|
|
<time>2026-07-12T09:25:19.000Z</time>
|
|
</trkpt>
|
|
<trkpt lat="55.817585" lon="8.182796">
|
|
<ele>9.608483</ele>
|
|
<time>2026-07-12T09:25:20.000Z</time>
|
|
</trkpt>
|
|
<trkpt lat="55.817619" lon="8.182743">
|
|
<ele>9.624210</ele>
|
|
<time>2026-07-12T09:25:21.000Z</time>
|
|
</trkpt>
|
|
<trkpt lat="55.817657" lon="8.182692">
|
|
<ele>9.640772</ele>
|
|
<time>2026-07-12T09:25:22.000Z</time>
|
|
</trkpt>
|
|
<trkpt lat="55.817696" lon="8.182641">
|
|
<ele>9.657612</ele>
|
|
<time>2026-07-12T09:25:23.000Z</time>
|
|
</trkpt>
|
|
<trkpt lat="55.817738" lon="8.182590">
|
|
<ele>9.675305</ele>
|
|
<time>2026-07-12T09:25:24.000Z</time>
|
|
</trkpt>
|
|
<trkpt lat="55.817776" lon="8.182542">
|
|
<ele>9.691520</ele>
|
|
<time>2026-07-12T09:25:25.000Z</time>
|
|
</trkpt>
|
|
<trkpt lat="55.817814" lon="8.182491">
|
|
<ele>9.708081</ele>
|
|
<time>2026-07-12T09:25:26.000Z</time>
|
|
</trkpt>
|
|
<trkpt lat="55.817856" lon="8.182434">
|
|
<ele>9.726460</ele>
|
|
<time>2026-07-12T09:25:27.000Z</time>
|
|
</trkpt>
|
|
<trkpt lat="55.817894" lon="8.182383">
|
|
<ele>9.743022</ele>
|
|
<time>2026-07-12T09:25:28.000Z</time>
|
|
</trkpt>
|
|
<trkpt lat="55.817936" lon="8.182332">
|
|
<ele>9.760714</ele>
|
|
<time>2026-07-12T09:25:29.000Z</time>
|
|
</trkpt>
|
|
<trkpt lat="55.817974" lon="8.182282">
|
|
<ele>9.777159</ele>
|
|
<time>2026-07-12T09:25:30.000Z</time>
|
|
</trkpt>
|
|
<trkpt lat="55.818016" lon="8.182231">
|
|
<ele>9.794851</ele>
|
|
<time>2026-07-12T09:25:31.000Z</time>
|
|
</trkpt>
|
|
<trkpt lat="55.818054" lon="8.182180">
|
|
<ele>9.811412</ele>
|
|
<time>2026-07-12T09:25:32.000Z</time>
|
|
</trkpt>
|
|
<trkpt lat="55.818092" lon="8.182132">
|
|
<ele>9.827627</ele>
|
|
<time>2026-07-12T09:25:33.000Z</time>
|
|
</trkpt>
|
|
<trkpt lat="55.818134" lon="8.182082">
|
|
<ele>9.845210</ele>
|
|
<time>2026-07-12T09:25:34.000Z</time>
|
|
</trkpt>
|
|
<trkpt lat="55.818172" lon="8.182030">
|
|
<ele>9.861890</ele>
|
|
<time>2026-07-12T09:25:35.000Z</time>
|
|
</trkpt>
|
|
<trkpt lat="55.818211" lon="8.181976">
|
|
<ele>9.879084</ele>
|
|
<time>2026-07-12T09:25:36.000Z</time>
|
|
</trkpt>
|
|
<trkpt lat="55.818253" lon="8.181923">
|
|
<ele>9.897000</ele>
|
|
<time>2026-07-12T09:25:37.000Z</time>
|
|
</trkpt>
|
|
<trkpt lat="55.818291" lon="8.181870">
|
|
<ele>9.913800</ele>
|
|
<time>2026-07-12T09:25:38.000Z</time>
|
|
</trkpt>
|
|
<trkpt lat="55.818329" lon="8.181819">
|
|
<ele>9.930361</ele>
|
|
<time>2026-07-12T09:25:39.000Z</time>
|
|
</trkpt>
|
|
<trkpt lat="55.818367" lon="8.181767">
|
|
<ele>9.947040</ele>
|
|
<time>2026-07-12T09:25:40.000Z</time>
|
|
</trkpt>
|
|
<trkpt lat="55.818405" lon="8.181716">
|
|
<ele>9.963602</ele>
|
|
<time>2026-07-12T09:25:41.000Z</time>
|
|
</trkpt>
|
|
<trkpt lat="55.818439" lon="8.181669">
|
|
<ele>9.978582</ele>
|
|
<time>2026-07-12T09:25:42.000Z</time>
|
|
</trkpt>
|
|
<trkpt lat="55.818478" lon="8.181623">
|
|
<ele>9.994863</ele>
|
|
<time>2026-07-12T09:25:43.000Z</time>
|
|
</trkpt>
|
|
<trkpt lat="55.818516" lon="8.181581">
|
|
<ele>10.010428</ele>
|
|
<time>2026-07-12T09:25:44.000Z</time>
|
|
</trkpt>
|
|
<trkpt lat="55.818554" lon="8.181538">
|
|
<ele>10.026098</ele>
|
|
<time>2026-07-12T09:25:45.000Z</time>
|
|
</trkpt>
|
|
<trkpt lat="55.818592" lon="8.181496">
|
|
<ele>10.041663</ele>
|
|
<time>2026-07-12T09:25:46.000Z</time>
|
|
</trkpt>
|
|
<trkpt lat="55.818630" lon="8.181454">
|
|
<ele>10.057228</ele>
|
|
<time>2026-07-12T09:25:47.000Z</time>
|
|
</trkpt>
|
|
<trkpt lat="55.818665" lon="8.181410">
|
|
<ele>10.072139</ele>
|
|
<time>2026-07-12T09:25:48.000Z</time>
|
|
</trkpt>
|
|
<trkpt lat="55.818699" lon="8.181369">
|
|
<ele>10.086430</ele>
|
|
<time>2026-07-12T09:25:49.000Z</time>
|
|
</trkpt>
|
|
<trkpt lat="55.818733" lon="8.181332">
|
|
<ele>10.100298</ele>
|
|
<time>2026-07-12T09:25:50.000Z</time>
|
|
</trkpt>
|
|
<trkpt lat="55.818760" lon="8.181298">
|
|
<ele>10.112318</ele>
|
|
<time>2026-07-12T09:25:51.000Z</time>
|
|
</trkpt>
|
|
<trkpt lat="55.818779" lon="8.181268">
|
|
<ele>10.121848</ele>
|
|
<time>2026-07-12T09:25:52.000Z</time>
|
|
</trkpt>
|
|
<trkpt lat="55.818790" lon="8.181245">
|
|
<ele>10.128216</ele>
|
|
<time>2026-07-12T09:25:53.000Z</time>
|
|
</trkpt>
|
|
<trkpt lat="55.818798" lon="8.181236">
|
|
<ele>10.131768</ele>
|
|
<time>2026-07-12T09:25:54.000Z</time>
|
|
</trkpt>
|
|
<trkpt lat="55.818871" lon="8.181185">
|
|
<ele>10.161195</ele>
|
|
<time>2026-07-12T09:26:03.000Z</time>
|
|
</trkpt>
|
|
<trkpt lat="55.818890" lon="8.181160">
|
|
<ele>10.170062</ele>
|
|
<time>2026-07-12T09:26:04.000Z</time>
|
|
</trkpt>
|
|
<trkpt lat="55.818909" lon="8.181130">
|
|
<ele>10.179592</ele>
|
|
<time>2026-07-12T09:26:05.000Z</time>
|
|
</trkpt>
|
|
<trkpt lat="55.818928" lon="8.181101">
|
|
<ele>10.188984</ele>
|
|
<time>2026-07-12T09:26:06.000Z</time>
|
|
</trkpt>
|
|
<trkpt lat="55.818947" lon="8.181073">
|
|
<ele>10.198241</ele>
|
|
<time>2026-07-12T09:26:07.000Z</time>
|
|
</trkpt>
|
|
<trkpt lat="55.818970" lon="8.181046">
|
|
<ele>10.208579</ele>
|
|
<time>2026-07-12T09:26:08.000Z</time>
|
|
</trkpt>
|
|
<trkpt lat="55.818985" lon="8.181019">
|
|
<ele>10.216584</ele>
|
|
<time>2026-07-12T09:26:09.000Z</time>
|
|
</trkpt>
|
|
<trkpt lat="55.819008" lon="8.180991">
|
|
<ele>10.227041</ele>
|
|
<time>2026-07-12T09:26:10.000Z</time>
|
|
</trkpt>
|
|
<trkpt lat="55.819031" lon="8.180962">
|
|
<ele>10.237617</ele>
|
|
<time>2026-07-12T09:26:11.000Z</time>
|
|
</trkpt>
|
|
<trkpt lat="55.819054" lon="8.180928">
|
|
<ele>10.248837</ele>
|
|
<time>2026-07-12T09:26:12.000Z</time>
|
|
</trkpt>
|
|
<trkpt lat="55.819080" lon="8.180893">
|
|
<ele>10.261069</ele>
|
|
<time>2026-07-12T09:26:13.000Z</time>
|
|
</trkpt>
|
|
<trkpt lat="55.819111" lon="8.180856">
|
|
<ele>10.275075</ele>
|
|
<time>2026-07-12T09:26:14.000Z</time>
|
|
</trkpt>
|
|
<trkpt lat="55.819141" lon="8.180817">
|
|
<ele>10.289015</ele>
|
|
<time>2026-07-12T09:26:15.000Z</time>
|
|
</trkpt>
|
|
<trkpt lat="55.819176" lon="8.180777">
|
|
<ele>10.304623</ele>
|
|
<time>2026-07-12T09:26:16.000Z</time>
|
|
</trkpt>
|
|
<trkpt lat="55.819210" lon="8.180733">
|
|
<ele>10.320397</ele>
|
|
<time>2026-07-12T09:26:17.000Z</time>
|
|
</trkpt>
|
|
<trkpt lat="55.819241" lon="8.180687">
|
|
<ele>10.335542</ele>
|
|
<time>2026-07-12T09:26:18.000Z</time>
|
|
</trkpt>
|
|
<trkpt lat="55.819275" lon="8.180643">
|
|
<ele>10.351316</ele>
|
|
<time>2026-07-12T09:26:19.000Z</time>
|
|
</trkpt>
|
|
<trkpt lat="55.819309" lon="8.180600">
|
|
<ele>10.366967</ele>
|
|
<time>2026-07-12T09:26:20.000Z</time>
|
|
</trkpt>
|
|
<trkpt lat="55.819347" lon="8.180557">
|
|
<ele>10.383864</ele>
|
|
<time>2026-07-12T09:26:21.000Z</time>
|
|
</trkpt>
|
|
<trkpt lat="55.819382" lon="8.180517">
|
|
<ele>10.399472</ele>
|
|
<time>2026-07-12T09:26:22.000Z</time>
|
|
</trkpt>
|
|
<trkpt lat="55.819416" lon="8.180476">
|
|
<ele>10.414882</ele>
|
|
<time>2026-07-12T09:26:23.000Z</time>
|
|
</trkpt>
|
|
<trkpt lat="55.819450" lon="8.180432">
|
|
<ele>10.430656</ele>
|
|
<time>2026-07-12T09:26:24.000Z</time>
|
|
</trkpt>
|
|
<trkpt lat="55.819481" lon="8.180388">
|
|
<ele>10.445535</ele>
|
|
<time>2026-07-12T09:26:25.000Z</time>
|
|
</trkpt>
|
|
<trkpt lat="55.819515" lon="8.180346">
|
|
<ele>10.461065</ele>
|
|
<time>2026-07-12T09:26:26.000Z</time>
|
|
</trkpt>
|
|
<trkpt lat="55.819550" lon="8.180306">
|
|
<ele>10.476672</ele>
|
|
<time>2026-07-12T09:26:27.000Z</time>
|
|
</trkpt>
|
|
<trkpt lat="55.819588" lon="8.180266">
|
|
<ele>10.493239</ele>
|
|
<time>2026-07-12T09:26:28.000Z</time>
|
|
</trkpt>
|
|
<trkpt lat="55.819622" lon="8.180226">
|
|
<ele>10.508532</ele>
|
|
<time>2026-07-12T09:26:29.000Z</time>
|
|
</trkpt>
|
|
<trkpt lat="55.819656" lon="8.180187">
|
|
<ele>10.523710</ele>
|
|
<time>2026-07-12T09:26:30.000Z</time>
|
|
</trkpt>
|
|
<trkpt lat="55.819687" lon="8.180146">
|
|
<ele>10.538203</ele>
|
|
<time>2026-07-12T09:26:31.000Z</time>
|
|
</trkpt>
|
|
<trkpt lat="55.819725" lon="8.180103">
|
|
<ele>10.555100</ele>
|
|
<time>2026-07-12T09:26:32.000Z</time>
|
|
</trkpt>
|
|
<trkpt lat="55.819756" lon="8.180062">
|
|
<ele>10.569592</ele>
|
|
<time>2026-07-12T09:26:33.000Z</time>
|
|
</trkpt>
|
|
<trkpt lat="55.819790" lon="8.180020">
|
|
<ele>10.585122</ele>
|
|
<time>2026-07-12T09:26:34.000Z</time>
|
|
</trkpt>
|
|
<trkpt lat="55.819820" lon="8.179977">
|
|
<ele>10.599575</ele>
|
|
<time>2026-07-12T09:26:35.000Z</time>
|
|
</trkpt>
|
|
<trkpt lat="55.819851" lon="8.179933">
|
|
<ele>10.614453</ele>
|
|
<time>2026-07-12T09:26:36.000Z</time>
|
|
</trkpt>
|
|
<trkpt lat="55.819885" lon="8.179890">
|
|
<ele>10.630104</ele>
|
|
<time>2026-07-12T09:26:37.000Z</time>
|
|
</trkpt>
|
|
<trkpt lat="55.819920" lon="8.179846">
|
|
<ele>10.646183</ele>
|
|
<time>2026-07-12T09:26:38.000Z</time>
|
|
</trkpt>
|
|
<trkpt lat="55.819950" lon="8.179800">
|
|
<ele>10.661042</ele>
|
|
<time>2026-07-12T09:26:39.000Z</time>
|
|
</trkpt>
|
|
<trkpt lat="55.819981" lon="8.179755">
|
|
<ele>10.676052</ele>
|
|
<time>2026-07-12T09:26:40.000Z</time>
|
|
</trkpt>
|
|
<trkpt lat="55.820011" lon="8.179712">
|
|
<ele>10.690506</ele>
|
|
<time>2026-07-12T09:26:41.000Z</time>
|
|
</trkpt>
|
|
<trkpt lat="55.820045" lon="8.179667">
|
|
<ele>10.706405</ele>
|
|
<time>2026-07-12T09:26:42.000Z</time>
|
|
</trkpt>
|
|
<trkpt lat="55.820080" lon="8.179623">
|
|
<ele>10.722484</ele>
|
|
<time>2026-07-12T09:26:43.000Z</time>
|
|
</trkpt>
|
|
<trkpt lat="55.820110" lon="8.179578">
|
|
<ele>10.737205</ele>
|
|
<time>2026-07-12T09:26:44.000Z</time>
|
|
</trkpt>
|
|
<trkpt lat="55.820145" lon="8.179533">
|
|
<ele>10.753407</ele>
|
|
<time>2026-07-12T09:26:45.000Z</time>
|
|
</trkpt>
|
|
<trkpt lat="55.820179" lon="8.179488">
|
|
<ele>10.769306</ele>
|
|
<time>2026-07-12T09:26:46.000Z</time>
|
|
</trkpt>
|
|
<trkpt lat="55.820217" lon="8.179444">
|
|
<ele>10.776012</ele>
|
|
<time>2026-07-12T09:26:47.000Z</time>
|
|
</trkpt>
|
|
<trkpt lat="55.820251" lon="8.179401">
|
|
<ele>10.765168</ele>
|
|
<time>2026-07-12T09:26:48.000Z</time>
|
|
</trkpt>
|
|
<trkpt lat="55.820282" lon="8.179359">
|
|
<ele>10.755039</ele>
|
|
<time>2026-07-12T09:26:49.000Z</time>
|
|
</trkpt>
|
|
<trkpt lat="55.820316" lon="8.179317">
|
|
<ele>10.744279</ele>
|
|
<time>2026-07-12T09:26:50.000Z</time>
|
|
</trkpt>
|
|
<trkpt lat="55.820351" lon="8.179276">
|
|
<ele>10.733385</ele>
|
|
<time>2026-07-12T09:26:51.000Z</time>
|
|
</trkpt>
|
|
<trkpt lat="55.820385" lon="8.179235">
|
|
<ele>10.722708</ele>
|
|
<time>2026-07-12T09:26:52.000Z</time>
|
|
</trkpt>
|
|
<trkpt lat="55.820415" lon="8.179194">
|
|
<ele>10.712874</ele>
|
|
<time>2026-07-12T09:26:53.000Z</time>
|
|
</trkpt>
|
|
<trkpt lat="55.820450" lon="8.179152">
|
|
<ele>10.701900</ele>
|
|
<time>2026-07-12T09:26:54.000Z</time>
|
|
</trkpt>
|
|
<trkpt lat="55.820484" lon="8.179110">
|
|
<ele>10.691140</ele>
|
|
<time>2026-07-12T09:26:55.000Z</time>
|
|
</trkpt>
|
|
<trkpt lat="55.820518" lon="8.179069">
|
|
<ele>10.680462</ele>
|
|
<time>2026-07-12T09:26:56.000Z</time>
|
|
</trkpt>
|
|
<trkpt lat="55.820553" lon="8.179028">
|
|
<ele>10.669569</ele>
|
|
<time>2026-07-12T09:26:57.000Z</time>
|
|
</trkpt>
|
|
<trkpt lat="55.820587" lon="8.178987">
|
|
<ele>10.658891</ele>
|
|
<time>2026-07-12T09:26:58.000Z</time>
|
|
</trkpt>
|
|
<trkpt lat="55.820618" lon="8.178943">
|
|
<ele>10.648583</ele>
|
|
<time>2026-07-12T09:26:59.000Z</time>
|
|
</trkpt>
|
|
<trkpt lat="55.820652" lon="8.178902">
|
|
<ele>10.637906</ele>
|
|
<time>2026-07-12T09:27:00.000Z</time>
|
|
</trkpt>
|
|
<trkpt lat="55.820683" lon="8.178859">
|
|
<ele>10.627688</ele>
|
|
<time>2026-07-12T09:27:01.000Z</time>
|
|
</trkpt>
|
|
<trkpt lat="55.820717" lon="8.178809">
|
|
<ele>10.616221</ele>
|
|
<time>2026-07-12T09:27:02.000Z</time>
|
|
</trkpt>
|
|
<trkpt lat="55.820751" lon="8.178765">
|
|
<ele>10.605292</ele>
|
|
<time>2026-07-12T09:27:03.000Z</time>
|
|
</trkpt>
|
|
<trkpt lat="55.820786" lon="8.178722">
|
|
<ele>10.594235</ele>
|
|
<time>2026-07-12T09:27:04.000Z</time>
|
|
</trkpt>
|
|
<trkpt lat="55.820820" lon="8.178680">
|
|
<ele>10.583476</ele>
|
|
<time>2026-07-12T09:27:05.000Z</time>
|
|
</trkpt>
|
|
<trkpt lat="55.820854" lon="8.178639">
|
|
<ele>10.572798</ele>
|
|
<time>2026-07-12T09:27:06.000Z</time>
|
|
</trkpt>
|
|
<trkpt lat="55.820885" lon="8.178597">
|
|
<ele>10.562669</ele>
|
|
<time>2026-07-12T09:27:07.000Z</time>
|
|
</trkpt>
|
|
<trkpt lat="55.820919" lon="8.178550">
|
|
<ele>10.551477</ele>
|
|
<time>2026-07-12T09:27:08.000Z</time>
|
|
</trkpt>
|
|
<trkpt lat="55.820953" lon="8.178505">
|
|
<ele>10.540461</ele>
|
|
<time>2026-07-12T09:27:09.000Z</time>
|
|
</trkpt>
|
|
<trkpt lat="55.820988" lon="8.178459">
|
|
<ele>10.529150</ele>
|
|
<time>2026-07-12T09:27:10.000Z</time>
|
|
</trkpt>
|
|
<trkpt lat="55.821022" lon="8.178415">
|
|
<ele>10.518221</ele>
|
|
<time>2026-07-12T09:27:11.000Z</time>
|
|
</trkpt>
|
|
<trkpt lat="55.821053" lon="8.178372">
|
|
<ele>10.508003</ele>
|
|
<time>2026-07-12T09:27:12.000Z</time>
|
|
</trkpt>
|
|
<trkpt lat="55.821087" lon="8.178329">
|
|
<ele>10.497159</ele>
|
|
<time>2026-07-12T09:27:13.000Z</time>
|
|
</trkpt>
|
|
<trkpt lat="55.821121" lon="8.178287">
|
|
<ele>10.486399</ele>
|
|
<time>2026-07-12T09:27:14.000Z</time>
|
|
</trkpt>
|
|
<trkpt lat="55.821152" lon="8.178244">
|
|
<ele>10.476181</ele>
|
|
<time>2026-07-12T09:27:15.000Z</time>
|
|
</trkpt>
|
|
<trkpt lat="55.821186" lon="8.178201">
|
|
<ele>10.465337</ele>
|
|
<time>2026-07-12T09:27:16.000Z</time>
|
|
</trkpt>
|
|
<trkpt lat="55.821220" lon="8.178159">
|
|
<ele>10.454578</ele>
|
|
<time>2026-07-12T09:27:17.000Z</time>
|
|
</trkpt>
|
|
<trkpt lat="55.821251" lon="8.178115">
|
|
<ele>10.444269</ele>
|
|
<time>2026-07-12T09:27:18.000Z</time>
|
|
</trkpt>
|
|
<trkpt lat="55.821285" lon="8.178070">
|
|
<ele>10.433254</ele>
|
|
<time>2026-07-12T09:27:19.000Z</time>
|
|
</trkpt>
|
|
<trkpt lat="55.821316" lon="8.178027">
|
|
<ele>10.423036</ele>
|
|
<time>2026-07-12T09:27:20.000Z</time>
|
|
</trkpt>
|
|
<trkpt lat="55.821350" lon="8.177983">
|
|
<ele>10.412107</ele>
|
|
<time>2026-07-12T09:27:21.000Z</time>
|
|
</trkpt>
|
|
<trkpt lat="55.821381" lon="8.177938">
|
|
<ele>10.401707</ele>
|
|
<time>2026-07-12T09:27:22.000Z</time>
|
|
</trkpt>
|
|
<trkpt lat="55.821411" lon="8.177891">
|
|
<ele>10.391316</ele>
|
|
<time>2026-07-12T09:27:23.000Z</time>
|
|
</trkpt>
|
|
<trkpt lat="55.821442" lon="8.177843">
|
|
<ele>10.380634</ele>
|
|
<time>2026-07-12T09:27:24.000Z</time>
|
|
</trkpt>
|
|
<trkpt lat="55.821472" lon="8.177793">
|
|
<ele>10.369949</ele>
|
|
<time>2026-07-12T09:27:25.000Z</time>
|
|
</trkpt>
|
|
<trkpt lat="55.821506" lon="8.177740">
|
|
<ele>10.358198</ele>
|
|
<time>2026-07-12T09:27:26.000Z</time>
|
|
</trkpt>
|
|
<trkpt lat="55.821537" lon="8.177689">
|
|
<ele>10.347223</ele>
|
|
<time>2026-07-12T09:27:27.000Z</time>
|
|
</trkpt>
|
|
<trkpt lat="55.821568" lon="8.177639">
|
|
<ele>10.336347</ele>
|
|
<time>2026-07-12T09:27:28.000Z</time>
|
|
</trkpt>
|
|
<trkpt lat="55.821598" lon="8.177587">
|
|
<ele>10.325460</ele>
|
|
<time>2026-07-12T09:27:29.000Z</time>
|
|
</trkpt>
|
|
<trkpt lat="55.821625" lon="8.177541">
|
|
<ele>10.315743</ele>
|
|
<time>2026-07-12T09:27:30.000Z</time>
|
|
</trkpt>
|
|
<trkpt lat="55.821655" lon="8.177491">
|
|
<ele>10.316681</ele>
|
|
<time>2026-07-12T09:27:31.000Z</time>
|
|
</trkpt>
|
|
<trkpt lat="55.821690" lon="8.177434">
|
|
<ele>10.323381</ele>
|
|
<time>2026-07-12T09:27:32.000Z</time>
|
|
</trkpt>
|
|
<trkpt lat="55.821716" lon="8.177383">
|
|
<ele>10.328844</ele>
|
|
<time>2026-07-12T09:27:33.000Z</time>
|
|
</trkpt>
|
|
<trkpt lat="55.821743" lon="8.177334">
|
|
<ele>10.334289</ele>
|
|
<time>2026-07-12T09:27:34.000Z</time>
|
|
</trkpt>
|
|
<trkpt lat="55.821774" lon="8.177283">
|
|
<ele>10.340251</ele>
|
|
<time>2026-07-12T09:27:35.000Z</time>
|
|
</trkpt>
|
|
<trkpt lat="55.821804" lon="8.177234">
|
|
<ele>10.346000</ele>
|
|
<time>2026-07-12T09:27:36.000Z</time>
|
|
</trkpt>
|
|
<trkpt lat="55.821831" lon="8.177183">
|
|
<ele>10.351560</ele>
|
|
<time>2026-07-12T09:27:37.000Z</time>
|
|
</trkpt>
|
|
<trkpt lat="55.821857" lon="8.177131">
|
|
<ele>10.357083</ele>
|
|
<time>2026-07-12T09:27:38.000Z</time>
|
|
</trkpt>
|
|
<trkpt lat="55.821884" lon="8.177077">
|
|
<ele>10.362818</ele>
|
|
<time>2026-07-12T09:27:39.000Z</time>
|
|
</trkpt>
|
|
<trkpt lat="55.821911" lon="8.177023">
|
|
<ele>10.368553</ele>
|
|
<time>2026-07-12T09:27:40.000Z</time>
|
|
</trkpt>
|
|
<trkpt lat="55.821938" lon="8.176968">
|
|
<ele>10.374347</ele>
|
|
<time>2026-07-12T09:27:41.000Z</time>
|
|
</trkpt>
|
|
<trkpt lat="55.821964" lon="8.176911">
|
|
<ele>10.380172</ele>
|
|
<time>2026-07-12T09:27:42.000Z</time>
|
|
</trkpt>
|
|
<trkpt lat="55.821991" lon="8.176856">
|
|
<ele>10.385967</ele>
|
|
<time>2026-07-12T09:27:43.000Z</time>
|
|
</trkpt>
|
|
<trkpt lat="55.822018" lon="8.176801">
|
|
<ele>10.391761</ele>
|
|
<time>2026-07-12T09:27:44.000Z</time>
|
|
</trkpt>
|
|
<trkpt lat="55.822044" lon="8.176746">
|
|
<ele>10.397464</ele>
|
|
<time>2026-07-12T09:27:45.000Z</time>
|
|
</trkpt>
|
|
<trkpt lat="55.822071" lon="8.176691">
|
|
<ele>10.403259</ele>
|
|
<time>2026-07-12T09:27:46.000Z</time>
|
|
</trkpt>
|
|
<trkpt lat="55.822098" lon="8.176637">
|
|
<ele>10.408994</ele>
|
|
<time>2026-07-12T09:27:47.000Z</time>
|
|
</trkpt>
|
|
<trkpt lat="55.822121" lon="8.176581">
|
|
<ele>10.414497</ele>
|
|
<time>2026-07-12T09:27:48.000Z</time>
|
|
</trkpt>
|
|
<trkpt lat="55.822144" lon="8.176525">
|
|
<ele>10.420000</ele>
|
|
<time>2026-07-12T09:27:49.000Z</time>
|
|
</trkpt>
|
|
<trkpt lat="55.822170" lon="8.176468">
|
|
<ele>10.425825</ele>
|
|
<time>2026-07-12T09:27:50.000Z</time>
|
|
</trkpt>
|
|
<trkpt lat="55.822197" lon="8.176413">
|
|
<ele>10.431620</ele>
|
|
<time>2026-07-12T09:27:51.000Z</time>
|
|
</trkpt>
|
|
<trkpt lat="55.822224" lon="8.176357">
|
|
<ele>10.437474</ele>
|
|
<time>2026-07-12T09:27:52.000Z</time>
|
|
</trkpt>
|
|
<trkpt lat="55.822247" lon="8.176302">
|
|
<ele>10.442914</ele>
|
|
<time>2026-07-12T09:27:53.000Z</time>
|
|
</trkpt>
|
|
<trkpt lat="55.822273" lon="8.176246">
|
|
<ele>10.448677</ele>
|
|
<time>2026-07-12T09:27:54.000Z</time>
|
|
</trkpt>
|
|
<trkpt lat="55.822300" lon="8.176188">
|
|
<ele>10.454653</ele>
|
|
<time>2026-07-12T09:27:55.000Z</time>
|
|
</trkpt>
|
|
<trkpt lat="55.822327" lon="8.176129">
|
|
<ele>10.460690</ele>
|
|
<time>2026-07-12T09:27:56.000Z</time>
|
|
</trkpt>
|
|
<trkpt lat="55.822346" lon="8.176071">
|
|
<ele>10.466017</ele>
|
|
<time>2026-07-12T09:27:57.000Z</time>
|
|
</trkpt>
|
|
<trkpt lat="55.822369" lon="8.176014">
|
|
<ele>10.471584</ele>
|
|
<time>2026-07-12T09:27:58.000Z</time>
|
|
</trkpt>
|
|
<trkpt lat="55.822392" lon="8.175957">
|
|
<ele>10.477152</ele>
|
|
<time>2026-07-12T09:27:59.000Z</time>
|
|
</trkpt>
|
|
<trkpt lat="55.822414" lon="8.175900">
|
|
<ele>10.482638</ele>
|
|
<time>2026-07-12T09:28:00.000Z</time>
|
|
</trkpt>
|
|
<trkpt lat="55.822434" lon="8.175839">
|
|
<ele>10.488241</ele>
|
|
<time>2026-07-12T09:28:01.000Z</time>
|
|
</trkpt>
|
|
<trkpt lat="55.822456" lon="8.175775">
|
|
<ele>10.494194</ele>
|
|
<time>2026-07-12T09:28:02.000Z</time>
|
|
</trkpt>
|
|
<trkpt lat="55.822479" lon="8.175714">
|
|
<ele>10.500022</ele>
|
|
<time>2026-07-12T09:28:03.000Z</time>
|
|
</trkpt>
|
|
<trkpt lat="55.822502" lon="8.175653">
|
|
<ele>10.505850</ele>
|
|
<time>2026-07-12T09:28:04.000Z</time>
|
|
</trkpt>
|
|
<trkpt lat="55.822521" lon="8.175591">
|
|
<ele>10.511453</ele>
|
|
<time>2026-07-12T09:28:05.000Z</time>
|
|
</trkpt>
|
|
<trkpt lat="55.822540" lon="8.175528">
|
|
<ele>10.517126</ele>
|
|
<time>2026-07-12T09:28:06.000Z</time>
|
|
</trkpt>
|
|
<trkpt lat="55.822563" lon="8.175466">
|
|
<ele>10.523020</ele>
|
|
<time>2026-07-12T09:28:07.000Z</time>
|
|
</trkpt>
|
|
<trkpt lat="55.822582" lon="8.175404">
|
|
<ele>10.528623</ele>
|
|
<time>2026-07-12T09:28:08.000Z</time>
|
|
</trkpt>
|
|
<trkpt lat="55.822601" lon="8.175343">
|
|
<ele>10.534156</ele>
|
|
<time>2026-07-12T09:28:09.000Z</time>
|
|
</trkpt>
|
|
<trkpt lat="55.822620" lon="8.175280">
|
|
<ele>10.539828</ele>
|
|
<time>2026-07-12T09:28:10.000Z</time>
|
|
</trkpt>
|
|
<trkpt lat="55.822639" lon="8.175215">
|
|
<ele>10.545641</ele>
|
|
<time>2026-07-12T09:28:11.000Z</time>
|
|
</trkpt>
|
|
<trkpt lat="55.822659" lon="8.175153">
|
|
<ele>10.551313</ele>
|
|
<time>2026-07-12T09:28:12.000Z</time>
|
|
</trkpt>
|
|
<trkpt lat="55.822678" lon="8.175091">
|
|
<ele>10.556916</ele>
|
|
<time>2026-07-12T09:28:13.000Z</time>
|
|
</trkpt>
|
|
<trkpt lat="55.822697" lon="8.175031">
|
|
<ele>10.562380</ele>
|
|
<time>2026-07-12T09:28:14.000Z</time>
|
|
</trkpt>
|
|
<trkpt lat="55.822716" lon="8.174971">
|
|
<ele>10.562075</ele>
|
|
<time>2026-07-12T09:28:15.000Z</time>
|
|
</trkpt>
|
|
<trkpt lat="55.822735" lon="8.174912">
|
|
<ele>10.542547</ele>
|
|
<time>2026-07-12T09:28:16.000Z</time>
|
|
</trkpt>
|
|
<trkpt lat="55.822754" lon="8.174853">
|
|
<ele>10.523019</ele>
|
|
<time>2026-07-12T09:28:17.000Z</time>
|
|
</trkpt>
|
|
<trkpt lat="55.822769" lon="8.174794">
|
|
<ele>10.504423</ele>
|
|
<time>2026-07-12T09:28:18.000Z</time>
|
|
</trkpt>
|
|
<trkpt lat="55.822784" lon="8.174736">
|
|
<ele>10.486088</ele>
|
|
<time>2026-07-12T09:28:19.000Z</time>
|
|
</trkpt>
|
|
<trkpt lat="55.822803" lon="8.174679">
|
|
<ele>10.467056</ele>
|
|
<time>2026-07-12T09:28:20.000Z</time>
|
|
</trkpt>
|
|
<trkpt lat="55.822819" lon="8.174622">
|
|
<ele>10.448759</ele>
|
|
<time>2026-07-12T09:28:21.000Z</time>
|
|
</trkpt>
|
|
<trkpt lat="55.822838" lon="8.174564">
|
|
<ele>10.429480</ele>
|
|
<time>2026-07-12T09:28:22.000Z</time>
|
|
</trkpt>
|
|
<trkpt lat="55.822853" lon="8.174506">
|
|
<ele>10.411145</ele>
|
|
<time>2026-07-12T09:28:23.000Z</time>
|
|
</trkpt>
|
|
<trkpt lat="55.822872" lon="8.174449">
|
|
<ele>10.392113</ele>
|
|
<time>2026-07-12T09:28:24.000Z</time>
|
|
</trkpt>
|
|
<trkpt lat="55.822891" lon="8.174393">
|
|
<ele>10.373328</ele>
|
|
<time>2026-07-12T09:28:25.000Z</time>
|
|
</trkpt>
|
|
<trkpt lat="55.822910" lon="8.174334">
|
|
<ele>10.353800</ele>
|
|
<time>2026-07-12T09:28:26.000Z</time>
|
|
</trkpt>
|
|
<trkpt lat="55.822926" lon="8.174272">
|
|
<ele>10.334208</ele>
|
|
<time>2026-07-12T09:28:27.000Z</time>
|
|
</trkpt>
|
|
<trkpt lat="55.822941" lon="8.174208">
|
|
<ele>10.314295</ele>
|
|
<time>2026-07-12T09:28:28.000Z</time>
|
|
</trkpt>
|
|
<trkpt lat="55.822960" lon="8.174144">
|
|
<ele>10.293510</ele>
|
|
<time>2026-07-12T09:28:29.000Z</time>
|
|
</trkpt>
|
|
<trkpt lat="55.822975" lon="8.174080">
|
|
<ele>10.273597</ele>
|
|
<time>2026-07-12T09:28:30.000Z</time>
|
|
</trkpt>
|
|
<trkpt lat="55.822994" lon="8.174017">
|
|
<ele>10.253065</ele>
|
|
<time>2026-07-12T09:28:31.000Z</time>
|
|
</trkpt>
|
|
<trkpt lat="55.823010" lon="8.173955">
|
|
<ele>10.233473</ele>
|
|
<time>2026-07-12T09:28:32.000Z</time>
|
|
</trkpt>
|
|
<trkpt lat="55.823032" lon="8.173893">
|
|
<ele>10.212416</ele>
|
|
<time>2026-07-12T09:28:33.000Z</time>
|
|
</trkpt>
|
|
<trkpt lat="55.823051" lon="8.173831">
|
|
<ele>10.192136</ele>
|
|
<time>2026-07-12T09:28:34.000Z</time>
|
|
</trkpt>
|
|
<trkpt lat="55.823074" lon="8.173771">
|
|
<ele>10.171278</ele>
|
|
<time>2026-07-12T09:28:35.000Z</time>
|
|
</trkpt>
|
|
<trkpt lat="55.823097" lon="8.173712">
|
|
<ele>10.150657</ele>
|
|
<time>2026-07-12T09:28:36.000Z</time>
|
|
</trkpt>
|
|
<trkpt lat="55.823120" lon="8.173652">
|
|
<ele>10.129799</ele>
|
|
<time>2026-07-12T09:28:37.000Z</time>
|
|
</trkpt>
|
|
<trkpt lat="55.823139" lon="8.173594">
|
|
<ele>10.110520</ele>
|
|
<time>2026-07-12T09:28:38.000Z</time>
|
|
</trkpt>
|
|
<trkpt lat="55.823162" lon="8.173533">
|
|
<ele>10.089424</ele>
|
|
<time>2026-07-12T09:28:39.000Z</time>
|
|
</trkpt>
|
|
<trkpt lat="55.823185" lon="8.173472">
|
|
<ele>10.068329</ele>
|
|
<time>2026-07-12T09:28:40.000Z</time>
|
|
</trkpt>
|
|
<trkpt lat="55.823212" lon="8.173409">
|
|
<ele>10.045575</ele>
|
|
<time>2026-07-12T09:28:41.000Z</time>
|
|
</trkpt>
|
|
<trkpt lat="55.823235" lon="8.173342">
|
|
<ele>10.023029</ele>
|
|
<time>2026-07-12T09:28:42.000Z</time>
|
|
</trkpt>
|
|
<trkpt lat="55.823254" lon="8.173272">
|
|
<ele>10.000705</ele>
|
|
<time>2026-07-12T09:28:43.000Z</time>
|
|
</trkpt>
|
|
<trkpt lat="55.823277" lon="8.173206">
|
|
<ele>9.978403</ele>
|
|
<time>2026-07-12T09:28:44.000Z</time>
|
|
</trkpt>
|
|
<trkpt lat="55.823303" lon="8.173144">
|
|
<ele>9.956187</ele>
|
|
<time>2026-07-12T09:28:45.000Z</time>
|
|
</trkpt>
|
|
<trkpt lat="55.823326" lon="8.173085">
|
|
<ele>9.935566</ele>
|
|
<time>2026-07-12T09:28:46.000Z</time>
|
|
</trkpt>
|
|
<trkpt lat="55.823349" lon="8.173029">
|
|
<ele>9.915646</ele>
|
|
<time>2026-07-12T09:28:47.000Z</time>
|
|
</trkpt>
|
|
<trkpt lat="55.823376" lon="8.172977">
|
|
<ele>9.895314</ele>
|
|
<time>2026-07-12T09:28:48.000Z</time>
|
|
</trkpt>
|
|
<trkpt lat="55.823399" lon="8.172930">
|
|
<ele>9.877415</ele>
|
|
<time>2026-07-12T09:28:49.000Z</time>
|
|
</trkpt>
|
|
<trkpt lat="55.823421" lon="8.172887">
|
|
<ele>9.860715</ele>
|
|
<time>2026-07-12T09:28:50.000Z</time>
|
|
</trkpt>
|
|
<trkpt lat="55.823441" lon="8.172848">
|
|
<ele>9.845551</ele>
|
|
<time>2026-07-12T09:28:51.000Z</time>
|
|
</trkpt>
|
|
<trkpt lat="55.823460" lon="8.172812">
|
|
<ele>9.831368</ele>
|
|
<time>2026-07-12T09:28:52.000Z</time>
|
|
</trkpt>
|
|
<trkpt lat="55.823479" lon="8.172783">
|
|
<ele>9.818575</ele>
|
|
<time>2026-07-12T09:28:53.000Z</time>
|
|
</trkpt>
|
|
<trkpt lat="55.823498" lon="8.172761">
|
|
<ele>9.806989</ele>
|
|
<time>2026-07-12T09:28:54.000Z</time>
|
|
</trkpt>
|
|
<trkpt lat="55.823517" lon="8.172747">
|
|
<ele>9.796478</ele>
|
|
<time>2026-07-12T09:28:55.000Z</time>
|
|
</trkpt>
|
|
<trkpt lat="55.823536" lon="8.172741">
|
|
<ele>9.786614</ele>
|
|
<time>2026-07-12T09:28:56.000Z</time>
|
|
</trkpt>
|
|
<trkpt lat="55.823559" lon="8.172740">
|
|
<ele>9.774854</ele>
|
|
<time>2026-07-12T09:28:57.000Z</time>
|
|
</trkpt>
|
|
<trkpt lat="55.823586" lon="8.172739">
|
|
<ele>9.761050</ele>
|
|
<time>2026-07-12T09:28:58.000Z</time>
|
|
</trkpt>
|
|
<trkpt lat="55.823608" lon="8.172737">
|
|
<ele>9.749789</ele>
|
|
<time>2026-07-12T09:28:59.000Z</time>
|
|
</trkpt>
|
|
<trkpt lat="55.823662" lon="8.172728">
|
|
<ele>9.722066</ele>
|
|
<time>2026-07-12T09:29:09.000Z</time>
|
|
</trkpt>
|
|
<trkpt lat="55.823681" lon="8.172729">
|
|
<ele>9.712350</ele>
|
|
<time>2026-07-12T09:29:10.000Z</time>
|
|
</trkpt>
|
|
<trkpt lat="55.823696" lon="8.172727">
|
|
<ele>9.704661</ele>
|
|
<time>2026-07-12T09:29:11.000Z</time>
|
|
</trkpt>
|
|
<trkpt lat="55.823719" lon="8.172720">
|
|
<ele>9.692734</ele>
|
|
<time>2026-07-12T09:29:12.000Z</time>
|
|
</trkpt>
|
|
<trkpt lat="55.823746" lon="8.172714">
|
|
<ele>9.678825</ele>
|
|
<time>2026-07-12T09:29:13.000Z</time>
|
|
</trkpt>
|
|
<trkpt lat="55.823776" lon="8.172718">
|
|
<ele>9.663447</ele>
|
|
<time>2026-07-12T09:29:14.000Z</time>
|
|
</trkpt>
|
|
<trkpt lat="55.823807" lon="8.172734">
|
|
<ele>9.646721</ele>
|
|
<time>2026-07-12T09:29:15.000Z</time>
|
|
</trkpt>
|
|
<trkpt lat="55.823837" lon="8.172759">
|
|
<ele>9.614465</ele>
|
|
<time>2026-07-12T09:29:16.000Z</time>
|
|
</trkpt>
|
|
<trkpt lat="55.823864" lon="8.172786">
|
|
<ele>9.584308</ele>
|
|
<time>2026-07-12T09:29:17.000Z</time>
|
|
</trkpt>
|
|
<trkpt lat="55.823883" lon="8.172806">
|
|
<ele>9.562813</ele>
|
|
<time>2026-07-12T09:29:18.000Z</time>
|
|
</trkpt>
|
|
<trkpt lat="55.823898" lon="8.172819">
|
|
<ele>9.546567</ele>
|
|
<time>2026-07-12T09:29:19.000Z</time>
|
|
</trkpt>
|
|
<trkpt lat="55.823910" lon="8.172833">
|
|
<ele>9.532596</ele>
|
|
<time>2026-07-12T09:29:20.000Z</time>
|
|
</trkpt>
|
|
<trkpt lat="55.823921" lon="8.172857">
|
|
<ele>9.515652</ele>
|
|
<time>2026-07-12T09:29:21.000Z</time>
|
|
</trkpt>
|
|
<trkpt lat="55.823936" lon="8.172889">
|
|
<ele>9.492853</ele>
|
|
<time>2026-07-12T09:29:22.000Z</time>
|
|
</trkpt>
|
|
<trkpt lat="55.823948" lon="8.172927">
|
|
<ele>9.469007</ele>
|
|
<time>2026-07-12T09:29:23.000Z</time>
|
|
</trkpt>
|
|
<trkpt lat="55.823959" lon="8.172967">
|
|
<ele>9.444645</ele>
|
|
<time>2026-07-12T09:29:24.000Z</time>
|
|
</trkpt>
|
|
<trkpt lat="55.823975" lon="8.173010">
|
|
<ele>9.416431</ele>
|
|
<time>2026-07-12T09:29:25.000Z</time>
|
|
</trkpt>
|
|
<trkpt lat="55.823994" lon="8.173053">
|
|
<ele>9.386505</ele>
|
|
<time>2026-07-12T09:29:26.000Z</time>
|
|
</trkpt>
|
|
<trkpt lat="55.824013" lon="8.173096">
|
|
<ele>9.356578</ele>
|
|
<time>2026-07-12T09:29:27.000Z</time>
|
|
</trkpt>
|
|
<trkpt lat="55.824028" lon="8.173141">
|
|
<ele>9.327955</ele>
|
|
<time>2026-07-12T09:29:28.000Z</time>
|
|
</trkpt>
|
|
<trkpt lat="55.824047" lon="8.173183">
|
|
<ele>9.298456</ele>
|
|
<time>2026-07-12T09:29:29.000Z</time>
|
|
</trkpt>
|
|
<trkpt lat="55.824066" lon="8.173223">
|
|
<ele>9.269802</ele>
|
|
<time>2026-07-12T09:29:30.000Z</time>
|
|
</trkpt>
|
|
<trkpt lat="55.824089" lon="8.173259">
|
|
<ele>9.239978</ele>
|
|
<time>2026-07-12T09:29:31.000Z</time>
|
|
</trkpt>
|
|
<trkpt lat="55.824112" lon="8.173294">
|
|
<ele>9.210513</ele>
|
|
<time>2026-07-12T09:29:32.000Z</time>
|
|
</trkpt>
|
|
<trkpt lat="55.824142" lon="8.173329">
|
|
<ele>9.175585</ele>
|
|
<time>2026-07-12T09:29:33.000Z</time>
|
|
</trkpt>
|
|
<trkpt lat="55.824173" lon="8.173365">
|
|
<ele>9.139542</ele>
|
|
<time>2026-07-12T09:29:34.000Z</time>
|
|
</trkpt>
|
|
<trkpt lat="55.824204" lon="8.173393">
|
|
<ele>9.105691</ele>
|
|
<time>2026-07-12T09:29:35.000Z</time>
|
|
</trkpt>
|
|
<trkpt lat="55.824234" lon="8.173415">
|
|
<ele>9.074096</ele>
|
|
<time>2026-07-12T09:29:36.000Z</time>
|
|
</trkpt>
|
|
<trkpt lat="55.824261" lon="8.173426">
|
|
<ele>9.047124</ele>
|
|
<time>2026-07-12T09:29:37.000Z</time>
|
|
</trkpt>
|
|
<trkpt lat="55.824284" lon="8.173430">
|
|
<ele>9.024620</ele>
|
|
<time>2026-07-12T09:29:38.000Z</time>
|
|
</trkpt>
|
|
<trkpt lat="55.824307" lon="8.173433">
|
|
<ele>9.002162</ele>
|
|
<time>2026-07-12T09:29:39.000Z</time>
|
|
</trkpt>
|
|
<trkpt lat="55.824333" lon="8.173436">
|
|
<ele>8.976791</ele>
|
|
<time>2026-07-12T09:29:40.000Z</time>
|
|
</trkpt>
|
|
<trkpt lat="55.824364" lon="8.173436">
|
|
<ele>8.946603</ele>
|
|
<time>2026-07-12T09:29:41.000Z</time>
|
|
</trkpt>
|
|
<trkpt lat="55.824398" lon="8.173435">
|
|
<ele>8.913489</ele>
|
|
<time>2026-07-12T09:29:42.000Z</time>
|
|
</trkpt>
|
|
<trkpt lat="55.824440" lon="8.173436">
|
|
<ele>8.872586</ele>
|
|
<time>2026-07-12T09:29:43.000Z</time>
|
|
</trkpt>
|
|
<trkpt lat="55.824482" lon="8.173439">
|
|
<ele>8.831654</ele>
|
|
<time>2026-07-12T09:29:44.000Z</time>
|
|
</trkpt>
|
|
<trkpt lat="55.824528" lon="8.173441">
|
|
<ele>8.786846</ele>
|
|
<time>2026-07-12T09:29:45.000Z</time>
|
|
</trkpt>
|
|
<trkpt lat="55.824573" lon="8.173443">
|
|
<ele>8.743012</ele>
|
|
<time>2026-07-12T09:29:46.000Z</time>
|
|
</trkpt>
|
|
<trkpt lat="55.824619" lon="8.173446">
|
|
<ele>8.698187</ele>
|
|
<time>2026-07-12T09:29:47.000Z</time>
|
|
</trkpt>
|
|
<trkpt lat="55.824665" lon="8.173450">
|
|
<ele>8.653339</ele>
|
|
<time>2026-07-12T09:29:48.000Z</time>
|
|
</trkpt>
|
|
<trkpt lat="55.824715" lon="8.173461">
|
|
<ele>8.604279</ele>
|
|
<time>2026-07-12T09:29:49.000Z</time>
|
|
</trkpt>
|
|
<trkpt lat="55.824760" lon="8.173471">
|
|
<ele>8.560118</ele>
|
|
<time>2026-07-12T09:29:50.000Z</time>
|
|
</trkpt>
|
|
<trkpt lat="55.824806" lon="8.173480">
|
|
<ele>8.515054</ele>
|
|
<time>2026-07-12T09:29:51.000Z</time>
|
|
</trkpt>
|
|
<trkpt lat="55.824856" lon="8.173489">
|
|
<ele>8.466116</ele>
|
|
<time>2026-07-12T09:29:52.000Z</time>
|
|
</trkpt>
|
|
<trkpt lat="55.824905" lon="8.173495">
|
|
<ele>8.418288</ele>
|
|
<time>2026-07-12T09:29:53.000Z</time>
|
|
</trkpt>
|
|
<trkpt lat="55.824951" lon="8.173500">
|
|
<ele>8.373410</ele>
|
|
<time>2026-07-12T09:29:54.000Z</time>
|
|
</trkpt>
|
|
<trkpt lat="55.824997" lon="8.173507">
|
|
<ele>8.328452</ele>
|
|
<time>2026-07-12T09:29:55.000Z</time>
|
|
</trkpt>
|
|
<trkpt lat="55.825043" lon="8.173515">
|
|
<ele>8.283444</ele>
|
|
<time>2026-07-12T09:29:56.000Z</time>
|
|
</trkpt>
|
|
<trkpt lat="55.825085" lon="8.173524">
|
|
<ele>8.242249</ele>
|
|
<time>2026-07-12T09:29:57.000Z</time>
|
|
</trkpt>
|
|
<trkpt lat="55.825130" lon="8.173534">
|
|
<ele>8.198089</ele>
|
|
<time>2026-07-12T09:29:58.000Z</time>
|
|
</trkpt>
|
|
<trkpt lat="55.825172" lon="8.173549">
|
|
<ele>8.156374</ele>
|
|
<time>2026-07-12T09:29:59.000Z</time>
|
|
</trkpt>
|
|
<trkpt lat="55.825214" lon="8.173569">
|
|
<ele>8.114037</ele>
|
|
<time>2026-07-12T09:30:00.000Z</time>
|
|
</trkpt>
|
|
<trkpt lat="55.825249" lon="8.173591">
|
|
<ele>8.077892</ele>
|
|
<time>2026-07-12T09:30:01.000Z</time>
|
|
</trkpt>
|
|
<trkpt lat="55.825275" lon="8.173612">
|
|
<ele>8.050090</ele>
|
|
<time>2026-07-12T09:30:02.000Z</time>
|
|
</trkpt>
|
|
<trkpt lat="55.825302" lon="8.173628">
|
|
<ele>8.022379</ele>
|
|
<time>2026-07-12T09:30:03.000Z</time>
|
|
</trkpt>
|
|
<trkpt lat="55.825333" lon="8.173637">
|
|
<ele>7.991792</ele>
|
|
<time>2026-07-12T09:30:04.000Z</time>
|
|
</trkpt>
|
|
<trkpt lat="55.825359" lon="8.173639">
|
|
<ele>7.966450</ele>
|
|
<time>2026-07-12T09:30:05.000Z</time>
|
|
</trkpt>
|
|
<trkpt lat="55.825390" lon="8.173635">
|
|
<ele>7.936183</ele>
|
|
<time>2026-07-12T09:30:06.000Z</time>
|
|
</trkpt>
|
|
<trkpt lat="55.825424" lon="8.173625">
|
|
<ele>7.902625</ele>
|
|
<time>2026-07-12T09:30:07.000Z</time>
|
|
</trkpt>
|
|
<trkpt lat="55.825462" lon="8.173613">
|
|
<ele>7.939529</ele>
|
|
<time>2026-07-12T09:30:08.000Z</time>
|
|
</trkpt>
|
|
<trkpt lat="55.825497" lon="8.173599">
|
|
<ele>7.989492</ele>
|
|
<time>2026-07-12T09:30:09.000Z</time>
|
|
</trkpt>
|
|
<trkpt lat="55.825531" lon="8.173592">
|
|
<ele>8.037163</ele>
|
|
<time>2026-07-12T09:30:10.000Z</time>
|
|
</trkpt>
|
|
<trkpt lat="55.825569" lon="8.173590">
|
|
<ele>8.090113</ele>
|
|
<time>2026-07-12T09:30:11.000Z</time>
|
|
</trkpt>
|
|
<trkpt lat="55.825607" lon="8.173590">
|
|
<ele>8.143039</ele>
|
|
<time>2026-07-12T09:30:12.000Z</time>
|
|
</trkpt>
|
|
<trkpt lat="55.825645" lon="8.173591">
|
|
<ele>8.195972</ele>
|
|
<time>2026-07-12T09:30:13.000Z</time>
|
|
</trkpt>
|
|
<trkpt lat="55.825680" lon="8.173595">
|
|
<ele>8.244820</ele>
|
|
<time>2026-07-12T09:30:14.000Z</time>
|
|
</trkpt>
|
|
<trkpt lat="55.825714" lon="8.173608">
|
|
<ele>8.293255</ele>
|
|
<time>2026-07-12T09:30:15.000Z</time>
|
|
</trkpt>
|
|
<trkpt lat="55.825752" lon="8.173624">
|
|
<ele>8.347642</ele>
|
|
<time>2026-07-12T09:30:16.000Z</time>
|
|
</trkpt>
|
|
<trkpt lat="55.825787" lon="8.173647">
|
|
<ele>8.399605</ele>
|
|
<time>2026-07-12T09:30:17.000Z</time>
|
|
</trkpt>
|
|
<trkpt lat="55.825817" lon="8.173676">
|
|
<ele>8.447151</ele>
|
|
<time>2026-07-12T09:30:18.000Z</time>
|
|
</trkpt>
|
|
<trkpt lat="55.825844" lon="8.173704">
|
|
<ele>8.490672</ele>
|
|
<time>2026-07-12T09:30:19.000Z</time>
|
|
</trkpt>
|
|
<trkpt lat="55.825871" lon="8.173719">
|
|
<ele>8.530066</ele>
|
|
<time>2026-07-12T09:30:20.000Z</time>
|
|
</trkpt>
|
|
<trkpt lat="55.825893" lon="8.173725">
|
|
<ele>8.561065</ele>
|
|
<time>2026-07-12T09:30:21.000Z</time>
|
|
</trkpt>
|
|
<trkpt lat="55.825916" lon="8.173722">
|
|
<ele>8.593185</ele>
|
|
<time>2026-07-12T09:30:22.000Z</time>
|
|
</trkpt>
|
|
<trkpt lat="55.825939" lon="8.173714">
|
|
<ele>8.625825</ele>
|
|
<time>2026-07-12T09:30:23.000Z</time>
|
|
</trkpt>
|
|
<trkpt lat="55.825958" lon="8.173704">
|
|
<ele>8.653421</ele>
|
|
<time>2026-07-12T09:30:24.000Z</time>
|
|
</trkpt>
|
|
<trkpt lat="55.825974" lon="8.173697">
|
|
<ele>8.676369</ele>
|
|
<time>2026-07-12T09:30:25.000Z</time>
|
|
</trkpt>
|
|
<trkpt lat="55.825993" lon="8.173689">
|
|
<ele>8.703562</ele>
|
|
<time>2026-07-12T09:30:26.000Z</time>
|
|
</trkpt>
|
|
<trkpt lat="55.826008" lon="8.173673">
|
|
<ele>8.727917</ele>
|
|
<time>2026-07-12T09:30:27.000Z</time>
|
|
</trkpt>
|
|
<trkpt lat="55.826031" lon="8.173646">
|
|
<ele>8.766289</ele>
|
|
<time>2026-07-12T09:30:28.000Z</time>
|
|
</trkpt>
|
|
<trkpt lat="55.826054" lon="8.173614">
|
|
<ele>8.806946</ele>
|
|
<time>2026-07-12T09:30:29.000Z</time>
|
|
</trkpt>
|
|
<trkpt lat="55.826077" lon="8.173577">
|
|
<ele>8.850121</ele>
|
|
<time>2026-07-12T09:30:30.000Z</time>
|
|
</trkpt>
|
|
<trkpt lat="55.826103" lon="8.173541">
|
|
<ele>8.895997</ele>
|
|
<time>2026-07-12T09:30:31.000Z</time>
|
|
</trkpt>
|
|
<trkpt lat="55.826134" lon="8.173507">
|
|
<ele>8.946710</ele>
|
|
<time>2026-07-12T09:30:32.000Z</time>
|
|
</trkpt>
|
|
<trkpt lat="55.826164" lon="8.173471">
|
|
<ele>8.997100</ele>
|
|
<time>2026-07-12T09:30:33.000Z</time>
|
|
</trkpt>
|
|
<trkpt lat="55.826199" lon="8.173434">
|
|
<ele>9.053794</ele>
|
|
<time>2026-07-12T09:30:34.000Z</time>
|
|
</trkpt>
|
|
<trkpt lat="55.826229" lon="8.173398">
|
|
<ele>9.104184</ele>
|
|
<time>2026-07-12T09:30:35.000Z</time>
|
|
</trkpt>
|
|
<trkpt lat="55.826260" lon="8.173363">
|
|
<ele>9.155312</ele>
|
|
<time>2026-07-12T09:30:36.000Z</time>
|
|
</trkpt>
|
|
<trkpt lat="55.826290" lon="8.173326">
|
|
<ele>9.206143</ele>
|
|
<time>2026-07-12T09:30:37.000Z</time>
|
|
</trkpt>
|
|
<trkpt lat="55.826317" lon="8.173286">
|
|
<ele>9.255066</ele>
|
|
<time>2026-07-12T09:30:38.000Z</time>
|
|
</trkpt>
|
|
<trkpt lat="55.826344" lon="8.173243">
|
|
<ele>9.305523</ele>
|
|
<time>2026-07-12T09:30:39.000Z</time>
|
|
</trkpt>
|
|
<trkpt lat="55.826363" lon="8.173198">
|
|
<ele>9.349565</ele>
|
|
<time>2026-07-12T09:30:40.000Z</time>
|
|
</trkpt>
|
|
<trkpt lat="55.826378" lon="8.173149">
|
|
<ele>9.393223</ele>
|
|
<time>2026-07-12T09:30:41.000Z</time>
|
|
</trkpt>
|
|
<trkpt lat="55.826389" lon="8.173100">
|
|
<ele>9.434506</ele>
|
|
<time>2026-07-12T09:30:42.000Z</time>
|
|
</trkpt>
|
|
<trkpt lat="55.826397" lon="8.173049">
|
|
<ele>9.475932</ele>
|
|
<time>2026-07-12T09:30:43.000Z</time>
|
|
</trkpt>
|
|
<trkpt lat="55.826405" lon="8.172995">
|
|
<ele>9.519623</ele>
|
|
<time>2026-07-12T09:30:44.000Z</time>
|
|
</trkpt>
|
|
<trkpt lat="55.826416" lon="8.172946">
|
|
<ele>9.560906</ele>
|
|
<time>2026-07-12T09:30:45.000Z</time>
|
|
</trkpt>
|
|
<trkpt lat="55.826431" lon="8.172901">
|
|
<ele>9.601843</ele>
|
|
<time>2026-07-12T09:30:46.000Z</time>
|
|
</trkpt>
|
|
<trkpt lat="55.826450" lon="8.172846">
|
|
<ele>9.652358</ele>
|
|
<time>2026-07-12T09:30:47.000Z</time>
|
|
</trkpt>
|
|
<trkpt lat="55.826481" lon="8.172792">
|
|
<ele>9.712765</ele>
|
|
<time>2026-07-12T09:30:48.000Z</time>
|
|
</trkpt>
|
|
<trkpt lat="55.826511" lon="8.172751">
|
|
<ele>9.765441</ele>
|
|
<time>2026-07-12T09:30:49.000Z</time>
|
|
</trkpt>
|
|
<trkpt lat="55.826550" lon="8.172717">
|
|
<ele>9.825924</ele>
|
|
<time>2026-07-12T09:30:50.000Z</time>
|
|
</trkpt>
|
|
<trkpt lat="55.826584" lon="8.172684">
|
|
<ele>9.879859</ele>
|
|
<time>2026-07-12T09:30:51.000Z</time>
|
|
</trkpt>
|
|
<trkpt lat="55.826614" lon="8.172648">
|
|
<ele>9.930249</ele>
|
|
<time>2026-07-12T09:30:52.000Z</time>
|
|
</trkpt>
|
|
<trkpt lat="55.826649" lon="8.172612">
|
|
<ele>9.986548</ele>
|
|
<time>2026-07-12T09:30:53.000Z</time>
|
|
</trkpt>
|
|
<trkpt lat="55.826687" lon="8.172576">
|
|
<ele>10.046501</ele>
|
|
<time>2026-07-12T09:30:54.000Z</time>
|
|
</trkpt>
|
|
<trkpt lat="55.826721" lon="8.172540">
|
|
<ele>10.101599</ele>
|
|
<time>2026-07-12T09:30:55.000Z</time>
|
|
</trkpt>
|
|
<trkpt lat="55.826759" lon="8.172501">
|
|
<ele>10.162690</ele>
|
|
<time>2026-07-12T09:30:56.000Z</time>
|
|
</trkpt>
|
|
<trkpt lat="55.826797" lon="8.172462">
|
|
<ele>10.223781</ele>
|
|
<time>2026-07-12T09:30:57.000Z</time>
|
|
</trkpt>
|
|
<trkpt lat="55.826839" lon="8.172424">
|
|
<ele>10.289399</ele>
|
|
<time>2026-07-12T09:30:58.000Z</time>
|
|
</trkpt>
|
|
<trkpt lat="55.826878" lon="8.172386">
|
|
<ele>10.351322</ele>
|
|
<time>2026-07-12T09:30:59.000Z</time>
|
|
</trkpt>
|
|
<trkpt lat="55.826916" lon="8.172348">
|
|
<ele>10.397255</ele>
|
|
<time>2026-07-12T09:31:00.000Z</time>
|
|
</trkpt>
|
|
<trkpt lat="55.826954" lon="8.172318">
|
|
<ele>10.378663</ele>
|
|
<time>2026-07-12T09:31:01.000Z</time>
|
|
</trkpt>
|
|
<trkpt lat="55.826981" lon="8.172294">
|
|
<ele>10.365166</ele>
|
|
<time>2026-07-12T09:31:02.000Z</time>
|
|
</trkpt>
|
|
<trkpt lat="55.826992" lon="8.172272">
|
|
<ele>10.357767</ele>
|
|
<time>2026-07-12T09:31:03.000Z</time>
|
|
</trkpt>
|
|
<trkpt lat="55.826996" lon="8.172258">
|
|
<ele>10.353821</ele>
|
|
<time>2026-07-12T09:31:04.000Z</time>
|
|
</trkpt>
|
|
<trkpt lat="55.827126" lon="8.172229">
|
|
<ele>10.295223</ele>
|
|
<time>2026-07-12T09:40:48.000Z</time>
|
|
</trkpt>
|
|
<trkpt lat="55.827156" lon="8.172223">
|
|
<ele>10.281721</ele>
|
|
<time>2026-07-12T09:40:49.000Z</time>
|
|
</trkpt>
|
|
<trkpt lat="55.827194" lon="8.172216">
|
|
<ele>10.264635</ele>
|
|
<time>2026-07-12T09:40:50.000Z</time>
|
|
</trkpt>
|
|
<trkpt lat="55.827240" lon="8.172213">
|
|
<ele>10.244047</ele>
|
|
<time>2026-07-12T09:40:51.000Z</time>
|
|
</trkpt>
|
|
<trkpt lat="55.827278" lon="8.172209">
|
|
<ele>10.227022</ele>
|
|
<time>2026-07-12T09:40:52.000Z</time>
|
|
</trkpt>
|
|
<trkpt lat="55.827328" lon="8.172202">
|
|
<ele>10.204590</ele>
|
|
<time>2026-07-12T09:40:53.000Z</time>
|
|
</trkpt>
|
|
<trkpt lat="55.827370" lon="8.172195">
|
|
<ele>10.185724</ele>
|
|
<time>2026-07-12T09:40:54.000Z</time>
|
|
</trkpt>
|
|
<trkpt lat="55.827412" lon="8.172186">
|
|
<ele>10.166803</ele>
|
|
<time>2026-07-12T09:40:55.000Z</time>
|
|
</trkpt>
|
|
<trkpt lat="55.827454" lon="8.172175">
|
|
<ele>10.147817</ele>
|
|
<time>2026-07-12T09:40:56.000Z</time>
|
|
</trkpt>
|
|
<trkpt lat="55.827499" lon="8.172163">
|
|
<ele>10.127466</ele>
|
|
<time>2026-07-12T09:40:57.000Z</time>
|
|
</trkpt>
|
|
<trkpt lat="55.827557" lon="8.172155">
|
|
<ele>10.101447</ele>
|
|
<time>2026-07-12T09:40:58.000Z</time>
|
|
</trkpt>
|
|
<trkpt lat="55.827599" lon="8.172155">
|
|
<ele>10.082663</ele>
|
|
<time>2026-07-12T09:40:59.000Z</time>
|
|
</trkpt>
|
|
<trkpt lat="55.827641" lon="8.172165">
|
|
<ele>10.063711</ele>
|
|
<time>2026-07-12T09:41:00.000Z</time>
|
|
</trkpt>
|
|
<trkpt lat="55.827683" lon="8.172184">
|
|
<ele>10.044329</ele>
|
|
<time>2026-07-12T09:41:01.000Z</time>
|
|
</trkpt>
|
|
<trkpt lat="55.827721" lon="8.172217">
|
|
<ele>10.025420</ele>
|
|
<time>2026-07-12T09:41:02.000Z</time>
|
|
</trkpt>
|
|
<trkpt lat="55.827747" lon="8.172264">
|
|
<ele>10.008848</ele>
|
|
<time>2026-07-12T09:41:03.000Z</time>
|
|
</trkpt>
|
|
<trkpt lat="55.827778" lon="8.172312">
|
|
<ele>9.990473</ele>
|
|
<time>2026-07-12T09:41:04.000Z</time>
|
|
</trkpt>
|
|
<trkpt lat="55.827805" lon="8.172346">
|
|
<ele>9.975682</ele>
|
|
<time>2026-07-12T09:41:05.000Z</time>
|
|
</trkpt>
|
|
<trkpt lat="55.827839" lon="8.172367">
|
|
<ele>9.959586</ele>
|
|
<time>2026-07-12T09:41:06.000Z</time>
|
|
</trkpt>
|
|
<trkpt lat="55.827885" lon="8.172373">
|
|
<ele>9.938957</ele>
|
|
<time>2026-07-12T09:41:07.000Z</time>
|
|
</trkpt>
|
|
<trkpt lat="55.827934" lon="8.172372">
|
|
<ele>9.917040</ele>
|
|
<time>2026-07-12T09:41:08.000Z</time>
|
|
</trkpt>
|
|
<trkpt lat="55.827988" lon="8.172376">
|
|
<ele>9.892868</ele>
|
|
<time>2026-07-12T09:41:09.000Z</time>
|
|
</trkpt>
|
|
<trkpt lat="55.828041" lon="8.172388">
|
|
<ele>9.868972</ele>
|
|
<time>2026-07-12T09:41:10.000Z</time>
|
|
</trkpt>
|
|
<trkpt lat="55.828098" lon="8.172405">
|
|
<ele>9.843124</ele>
|
|
<time>2026-07-12T09:41:11.000Z</time>
|
|
</trkpt>
|
|
<trkpt lat="55.828152" lon="8.172421">
|
|
<ele>9.818640</ele>
|
|
<time>2026-07-12T09:41:12.000Z</time>
|
|
</trkpt>
|
|
<trkpt lat="55.828201" lon="8.172430">
|
|
<ele>9.796608</ele>
|
|
<time>2026-07-12T09:41:13.000Z</time>
|
|
</trkpt>
|
|
<trkpt lat="55.828251" lon="8.172432">
|
|
<ele>9.774240</ele>
|
|
<time>2026-07-12T09:41:14.000Z</time>
|
|
</trkpt>
|
|
<trkpt lat="55.828304" lon="8.172428">
|
|
<ele>9.750514</ele>
|
|
<time>2026-07-12T09:41:15.000Z</time>
|
|
</trkpt>
|
|
<trkpt lat="55.828358" lon="8.172425">
|
|
<ele>9.726351</ele>
|
|
<time>2026-07-12T09:41:16.000Z</time>
|
|
</trkpt>
|
|
<trkpt lat="55.828407" lon="8.172426">
|
|
<ele>9.704434</ele>
|
|
<time>2026-07-12T09:41:17.000Z</time>
|
|
</trkpt>
|
|
<trkpt lat="55.828457" lon="8.172429">
|
|
<ele>9.682059</ele>
|
|
<time>2026-07-12T09:41:18.000Z</time>
|
|
</trkpt>
|
|
<trkpt lat="55.828506" lon="8.172435">
|
|
<ele>9.660091</ele>
|
|
<time>2026-07-12T09:41:19.000Z</time>
|
|
</trkpt>
|
|
<trkpt lat="55.828556" lon="8.172441">
|
|
<ele>9.637678</ele>
|
|
<time>2026-07-12T09:41:20.000Z</time>
|
|
</trkpt>
|
|
<trkpt lat="55.828606" lon="8.172444">
|
|
<ele>9.615303</ele>
|
|
<time>2026-07-12T09:41:21.000Z</time>
|
|
</trkpt>
|
|
<trkpt lat="55.828651" lon="8.172449">
|
|
<ele>9.598278</ele>
|
|
<time>2026-07-12T09:41:22.000Z</time>
|
|
</trkpt>
|
|
<trkpt lat="55.828701" lon="8.172453">
|
|
<ele>9.631716</ele>
|
|
<time>2026-07-12T09:41:23.000Z</time>
|
|
</trkpt>
|
|
<trkpt lat="55.828751" lon="8.172456">
|
|
<ele>9.665139</ele>
|
|
<time>2026-07-12T09:41:24.000Z</time>
|
|
</trkpt>
|
|
<trkpt lat="55.828800" lon="8.172458">
|
|
<ele>9.697883</ele>
|
|
<time>2026-07-12T09:41:25.000Z</time>
|
|
</trkpt>
|
|
<trkpt lat="55.828850" lon="8.172461">
|
|
<ele>9.731306</ele>
|
|
<time>2026-07-12T09:41:26.000Z</time>
|
|
</trkpt>
|
|
<trkpt lat="55.828892" lon="8.172462">
|
|
<ele>9.759368</ele>
|
|
<time>2026-07-12T09:41:27.000Z</time>
|
|
</trkpt>
|
|
<trkpt lat="55.828941" lon="8.172464">
|
|
<ele>9.792112</ele>
|
|
<time>2026-07-12T09:41:28.000Z</time>
|
|
</trkpt>
|
|
<trkpt lat="55.828991" lon="8.172466">
|
|
<ele>9.825525</ele>
|
|
<time>2026-07-12T09:41:29.000Z</time>
|
|
</trkpt>
|
|
<trkpt lat="55.829037" lon="8.172469">
|
|
<ele>9.856277</ele>
|
|
<time>2026-07-12T09:41:30.000Z</time>
|
|
</trkpt>
|
|
<trkpt lat="55.829082" lon="8.172476">
|
|
<ele>9.886455</ele>
|
|
<time>2026-07-12T09:41:31.000Z</time>
|
|
</trkpt>
|
|
<trkpt lat="55.829132" lon="8.172483">
|
|
<ele>9.919962</ele>
|
|
<time>2026-07-12T09:41:32.000Z</time>
|
|
</trkpt>
|
|
<trkpt lat="55.829178" lon="8.172493">
|
|
<ele>9.950922</ele>
|
|
<time>2026-07-12T09:41:33.000Z</time>
|
|
</trkpt>
|
|
<trkpt lat="55.829227" lon="8.172500">
|
|
<ele>9.983763</ele>
|
|
<time>2026-07-12T09:41:34.000Z</time>
|
|
</trkpt>
|
|
<trkpt lat="55.829273" lon="8.172502">
|
|
<ele>10.014504</ele>
|
|
<time>2026-07-12T09:41:35.000Z</time>
|
|
</trkpt>
|
|
<trkpt lat="55.829319" lon="8.172500">
|
|
<ele>10.045245</ele>
|
|
<time>2026-07-12T09:41:36.000Z</time>
|
|
</trkpt>
|
|
<trkpt lat="55.829369" lon="8.172494">
|
|
<ele>10.078725</ele>
|
|
<time>2026-07-12T09:41:37.000Z</time>
|
|
</trkpt>
|
|
<trkpt lat="55.829414" lon="8.172488">
|
|
<ele>10.108872</ele>
|
|
<time>2026-07-12T09:41:38.000Z</time>
|
|
</trkpt>
|
|
<trkpt lat="55.829464" lon="8.172485">
|
|
<ele>10.142295</ele>
|
|
<time>2026-07-12T09:41:39.000Z</time>
|
|
</trkpt>
|
|
<trkpt lat="55.829517" lon="8.172486">
|
|
<ele>10.177706</ele>
|
|
<time>2026-07-12T09:41:40.000Z</time>
|
|
</trkpt>
|
|
<trkpt lat="55.829563" lon="8.172487">
|
|
<ele>10.208440</ele>
|
|
<time>2026-07-12T09:41:41.000Z</time>
|
|
</trkpt>
|
|
<trkpt lat="55.829609" lon="8.172490">
|
|
<ele>10.239192</ele>
|
|
<time>2026-07-12T09:41:42.000Z</time>
|
|
</trkpt>
|
|
<trkpt lat="55.829651" lon="8.172497">
|
|
<ele>10.267374</ele>
|
|
<time>2026-07-12T09:41:43.000Z</time>
|
|
</trkpt>
|
|
<trkpt lat="55.829689" lon="8.172507">
|
|
<ele>10.293037</ele>
|
|
<time>2026-07-12T09:41:44.000Z</time>
|
|
</trkpt>
|
|
<trkpt lat="55.829727" lon="8.172519">
|
|
<ele>10.318820</ele>
|
|
<time>2026-07-12T09:41:45.000Z</time>
|
|
</trkpt>
|
|
<trkpt lat="55.829765" lon="8.172527">
|
|
<ele>10.344384</ele>
|
|
<time>2026-07-12T09:41:46.000Z</time>
|
|
</trkpt>
|
|
<trkpt lat="55.829800" lon="8.172529">
|
|
<ele>10.367779</ele>
|
|
<time>2026-07-12T09:41:47.000Z</time>
|
|
</trkpt>
|
|
<trkpt lat="55.829838" lon="8.172526">
|
|
<ele>10.393191</ele>
|
|
<time>2026-07-12T09:41:48.000Z</time>
|
|
</trkpt>
|
|
<trkpt lat="55.829876" lon="8.172526">
|
|
<ele>10.418578</ele>
|
|
<time>2026-07-12T09:41:49.000Z</time>
|
|
</trkpt>
|
|
<trkpt lat="55.829910" lon="8.172528">
|
|
<ele>10.441305</ele>
|
|
<time>2026-07-12T09:41:50.000Z</time>
|
|
</trkpt>
|
|
<trkpt lat="55.829948" lon="8.172531">
|
|
<ele>10.466717</ele>
|
|
<time>2026-07-12T09:41:51.000Z</time>
|
|
</trkpt>
|
|
<trkpt lat="55.829987" lon="8.172532">
|
|
<ele>10.492774</ele>
|
|
<time>2026-07-12T09:41:52.000Z</time>
|
|
</trkpt>
|
|
<trkpt lat="55.830025" lon="8.172534">
|
|
<ele>10.518173</ele>
|
|
<time>2026-07-12T09:41:53.000Z</time>
|
|
</trkpt>
|
|
<trkpt lat="55.830067" lon="8.172534">
|
|
<ele>10.546232</ele>
|
|
<time>2026-07-12T09:41:54.000Z</time>
|
|
</trkpt>
|
|
<trkpt lat="55.830112" lon="8.172534">
|
|
<ele>10.576295</ele>
|
|
<time>2026-07-12T09:41:55.000Z</time>
|
|
</trkpt>
|
|
<trkpt lat="55.830154" lon="8.172534">
|
|
<ele>10.604355</ele>
|
|
<time>2026-07-12T09:41:56.000Z</time>
|
|
</trkpt>
|
|
<trkpt lat="55.830200" lon="8.172534">
|
|
<ele>10.635086</ele>
|
|
<time>2026-07-12T09:41:57.000Z</time>
|
|
</trkpt>
|
|
<trkpt lat="55.830250" lon="8.172536">
|
|
<ele>10.668499</ele>
|
|
<time>2026-07-12T09:41:58.000Z</time>
|
|
</trkpt>
|
|
<trkpt lat="55.830296" lon="8.172538">
|
|
<ele>10.699240</ele>
|
|
<time>2026-07-12T09:41:59.000Z</time>
|
|
</trkpt>
|
|
<trkpt lat="55.830349" lon="8.172542">
|
|
<ele>10.734680</ele>
|
|
<time>2026-07-12T09:42:00.000Z</time>
|
|
</trkpt>
|
|
<trkpt lat="55.830399" lon="8.172545">
|
|
<ele>10.768103</ele>
|
|
<time>2026-07-12T09:42:01.000Z</time>
|
|
</trkpt>
|
|
<trkpt lat="55.830456" lon="8.172546">
|
|
<ele>10.787004</ele>
|
|
<time>2026-07-12T09:42:02.000Z</time>
|
|
</trkpt>
|
|
<trkpt lat="55.830513" lon="8.172550">
|
|
<ele>10.735441</ele>
|
|
<time>2026-07-12T09:42:03.000Z</time>
|
|
</trkpt>
|
|
<trkpt lat="55.830566" lon="8.172555">
|
|
<ele>10.687466</ele>
|
|
<time>2026-07-12T09:42:04.000Z</time>
|
|
</trkpt>
|
|
<trkpt lat="55.830624" lon="8.172558">
|
|
<ele>10.635017</ele>
|
|
<time>2026-07-12T09:42:05.000Z</time>
|
|
</trkpt>
|
|
<trkpt lat="55.830681" lon="8.172559">
|
|
<ele>10.583491</ele>
|
|
<time>2026-07-12T09:42:06.000Z</time>
|
|
</trkpt>
|
|
<trkpt lat="55.830734" lon="8.172560">
|
|
<ele>10.535581</ele>
|
|
<time>2026-07-12T09:42:07.000Z</time>
|
|
</trkpt>
|
|
<trkpt lat="55.830788" lon="8.172560">
|
|
<ele>10.486770</ele>
|
|
<time>2026-07-12T09:42:08.000Z</time>
|
|
</trkpt>
|
|
<trkpt lat="55.830837" lon="8.172560">
|
|
<ele>10.442478</ele>
|
|
<time>2026-07-12T09:42:09.000Z</time>
|
|
</trkpt>
|
|
<trkpt lat="55.830883" lon="8.172560">
|
|
<ele>10.400898</ele>
|
|
<time>2026-07-12T09:42:10.000Z</time>
|
|
</trkpt>
|
|
<trkpt lat="55.830929" lon="8.172560">
|
|
<ele>10.359318</ele>
|
|
<time>2026-07-12T09:42:11.000Z</time>
|
|
</trkpt>
|
|
<trkpt lat="55.830975" lon="8.172560">
|
|
<ele>10.317738</ele>
|
|
<time>2026-07-12T09:42:12.000Z</time>
|
|
</trkpt>
|
|
<trkpt lat="55.831024" lon="8.172559">
|
|
<ele>10.273443</ele>
|
|
<time>2026-07-12T09:42:13.000Z</time>
|
|
</trkpt>
|
|
<trkpt lat="55.831074" lon="8.172560">
|
|
<ele>10.228244</ele>
|
|
<time>2026-07-12T09:42:14.000Z</time>
|
|
</trkpt>
|
|
<trkpt lat="55.831131" lon="8.172562">
|
|
<ele>10.176711</ele>
|
|
<time>2026-07-12T09:42:15.000Z</time>
|
|
</trkpt>
|
|
<trkpt lat="55.831192" lon="8.172566">
|
|
<ele>10.121535</ele>
|
|
<time>2026-07-12T09:42:16.000Z</time>
|
|
</trkpt>
|
|
<trkpt lat="55.831253" lon="8.172570">
|
|
<ele>10.066359</ele>
|
|
<time>2026-07-12T09:42:17.000Z</time>
|
|
</trkpt>
|
|
<trkpt lat="55.831314" lon="8.172574">
|
|
<ele>10.011183</ele>
|
|
<time>2026-07-12T09:42:18.000Z</time>
|
|
</trkpt>
|
|
<trkpt lat="55.831379" lon="8.172576">
|
|
<ele>9.952419</ele>
|
|
<time>2026-07-12T09:42:19.000Z</time>
|
|
</trkpt>
|
|
<trkpt lat="55.831436" lon="8.172573">
|
|
<ele>9.900874</ele>
|
|
<time>2026-07-12T09:42:20.000Z</time>
|
|
</trkpt>
|
|
<trkpt lat="55.831493" lon="8.172562">
|
|
<ele>9.849049</ele>
|
|
<time>2026-07-12T09:42:21.000Z</time>
|
|
</trkpt>
|
|
<trkpt lat="55.831547" lon="8.172549">
|
|
<ele>9.799793</ele>
|
|
<time>2026-07-12T09:42:22.000Z</time>
|
|
</trkpt>
|
|
<trkpt lat="55.831604" lon="8.172544">
|
|
<ele>9.748208</ele>
|
|
<time>2026-07-12T09:42:23.000Z</time>
|
|
</trkpt>
|
|
<trkpt lat="55.831657" lon="8.172544">
|
|
<ele>9.700300</ele>
|
|
<time>2026-07-12T09:42:24.000Z</time>
|
|
</trkpt>
|
|
<trkpt lat="55.831707" lon="8.172547">
|
|
<ele>9.655079</ele>
|
|
<time>2026-07-12T09:42:25.000Z</time>
|
|
</trkpt>
|
|
<trkpt lat="55.831760" lon="8.172557">
|
|
<ele>9.606903</ele>
|
|
<time>2026-07-12T09:42:26.000Z</time>
|
|
</trkpt>
|
|
<trkpt lat="55.831810" lon="8.172566">
|
|
<ele>9.561477</ele>
|
|
<time>2026-07-12T09:42:27.000Z</time>
|
|
</trkpt>
|
|
<trkpt lat="55.831863" lon="8.172574">
|
|
<ele>9.513398</ele>
|
|
<time>2026-07-12T09:42:28.000Z</time>
|
|
</trkpt>
|
|
<trkpt lat="55.831913" lon="8.172578">
|
|
<ele>9.468156</ele>
|
|
<time>2026-07-12T09:42:29.000Z</time>
|
|
</trkpt>
|
|
<trkpt lat="55.831963" lon="8.172581">
|
|
<ele>9.422935</ele>
|
|
<time>2026-07-12T09:42:30.000Z</time>
|
|
</trkpt>
|
|
<trkpt lat="55.832008" lon="8.172583">
|
|
<ele>9.382246</ele>
|
|
<time>2026-07-12T09:42:31.000Z</time>
|
|
</trkpt>
|
|
<trkpt lat="55.832050" lon="8.172584">
|
|
<ele>9.344278</ele>
|
|
<time>2026-07-12T09:42:32.000Z</time>
|
|
</trkpt>
|
|
<trkpt lat="55.832096" lon="8.172587">
|
|
<ele>9.302670</ele>
|
|
<time>2026-07-12T09:42:33.000Z</time>
|
|
</trkpt>
|
|
<trkpt lat="55.832146" lon="8.172592">
|
|
<ele>9.257403</ele>
|
|
<time>2026-07-12T09:42:34.000Z</time>
|
|
</trkpt>
|
|
<trkpt lat="55.832195" lon="8.172596">
|
|
<ele>9.213065</ele>
|
|
<time>2026-07-12T09:42:35.000Z</time>
|
|
</trkpt>
|
|
<trkpt lat="55.832249" lon="8.172598">
|
|
<ele>9.171010</ele>
|
|
<time>2026-07-12T09:42:36.000Z</time>
|
|
</trkpt>
|
|
<trkpt lat="55.832306" lon="8.172596">
|
|
<ele>9.163231</ele>
|
|
<time>2026-07-12T09:42:37.000Z</time>
|
|
</trkpt>
|
|
<trkpt lat="55.832363" lon="8.172592">
|
|
<ele>9.155447</ele>
|
|
<time>2026-07-12T09:42:38.000Z</time>
|
|
</trkpt>
|
|
<trkpt lat="55.832417" lon="8.172589">
|
|
<ele>9.148076</ele>
|
|
<time>2026-07-12T09:42:39.000Z</time>
|
|
</trkpt>
|
|
<trkpt lat="55.832470" lon="8.172587">
|
|
<ele>9.140843</ele>
|
|
<time>2026-07-12T09:42:40.000Z</time>
|
|
</trkpt>
|
|
<trkpt lat="55.832523" lon="8.172586">
|
|
<ele>9.133611</ele>
|
|
<time>2026-07-12T09:42:41.000Z</time>
|
|
</trkpt>
|
|
<trkpt lat="55.832577" lon="8.172585">
|
|
<ele>9.126242</ele>
|
|
<time>2026-07-12T09:42:42.000Z</time>
|
|
</trkpt>
|
|
<trkpt lat="55.832630" lon="8.172588">
|
|
<ele>9.119007</ele>
|
|
<time>2026-07-12T09:42:43.000Z</time>
|
|
</trkpt>
|
|
<trkpt lat="55.832676" lon="8.172593">
|
|
<ele>9.112719</ele>
|
|
<time>2026-07-12T09:42:44.000Z</time>
|
|
</trkpt>
|
|
<trkpt lat="55.832726" lon="8.172595">
|
|
<ele>9.105895</ele>
|
|
<time>2026-07-12T09:42:45.000Z</time>
|
|
</trkpt>
|
|
<trkpt lat="55.832767" lon="8.172595">
|
|
<ele>9.100300</ele>
|
|
<time>2026-07-12T09:42:46.000Z</time>
|
|
</trkpt>
|
|
<trkpt lat="55.832813" lon="8.172596">
|
|
<ele>9.094023</ele>
|
|
<time>2026-07-12T09:42:47.000Z</time>
|
|
</trkpt>
|
|
<trkpt lat="55.832859" lon="8.172598">
|
|
<ele>9.087745</ele>
|
|
<time>2026-07-12T09:42:48.000Z</time>
|
|
</trkpt>
|
|
<trkpt lat="55.832905" lon="8.172602">
|
|
<ele>9.081461</ele>
|
|
<time>2026-07-12T09:42:49.000Z</time>
|
|
</trkpt>
|
|
<trkpt lat="55.832954" lon="8.172603">
|
|
<ele>9.074775</ele>
|
|
<time>2026-07-12T09:42:50.000Z</time>
|
|
</trkpt>
|
|
<trkpt lat="55.833004" lon="8.172601">
|
|
<ele>9.067951</ele>
|
|
<time>2026-07-12T09:42:51.000Z</time>
|
|
</trkpt>
|
|
<trkpt lat="55.833057" lon="8.172597">
|
|
<ele>9.060713</ele>
|
|
<time>2026-07-12T09:42:52.000Z</time>
|
|
</trkpt>
|
|
<trkpt lat="55.833111" lon="8.172586">
|
|
<ele>9.053296</ele>
|
|
<time>2026-07-12T09:42:53.000Z</time>
|
|
</trkpt>
|
|
<trkpt lat="55.833160" lon="8.172571">
|
|
<ele>9.046513</ele>
|
|
<time>2026-07-12T09:42:54.000Z</time>
|
|
</trkpt>
|
|
<trkpt lat="55.833210" lon="8.172552">
|
|
<ele>9.039537</ele>
|
|
<time>2026-07-12T09:42:55.000Z</time>
|
|
</trkpt>
|
|
<trkpt lat="55.833260" lon="8.172534">
|
|
<ele>9.032576</ele>
|
|
<time>2026-07-12T09:42:56.000Z</time>
|
|
</trkpt>
|
|
<trkpt lat="55.833309" lon="8.172523">
|
|
<ele>9.025838</ele>
|
|
<time>2026-07-12T09:42:57.000Z</time>
|
|
</trkpt>
|
|
<trkpt lat="55.833355" lon="8.172527">
|
|
<ele>9.019554</ele>
|
|
<time>2026-07-12T09:42:58.000Z</time>
|
|
</trkpt>
|
|
<trkpt lat="55.833408" lon="8.172545">
|
|
<ele>9.012192</ele>
|
|
<time>2026-07-12T09:42:59.000Z</time>
|
|
</trkpt>
|
|
<trkpt lat="55.833458" lon="8.172562">
|
|
<ele>9.005246</ele>
|
|
<time>2026-07-12T09:43:00.000Z</time>
|
|
</trkpt>
|
|
<trkpt lat="55.833508" lon="8.172567">
|
|
<ele>8.998413</ele>
|
|
<time>2026-07-12T09:43:01.000Z</time>
|
|
</trkpt>
|
|
<trkpt lat="55.833553" lon="8.172559">
|
|
<ele>8.992242</ele>
|
|
<time>2026-07-12T09:43:02.000Z</time>
|
|
</trkpt>
|
|
<trkpt lat="55.833595" lon="8.172538">
|
|
<ele>8.986290</ele>
|
|
<time>2026-07-12T09:43:03.000Z</time>
|
|
</trkpt>
|
|
<trkpt lat="55.833633" lon="8.172515">
|
|
<ele>8.980814</ele>
|
|
<time>2026-07-12T09:43:04.000Z</time>
|
|
</trkpt>
|
|
<trkpt lat="55.833672" lon="8.172497">
|
|
<ele>8.975316</ele>
|
|
<time>2026-07-12T09:43:05.000Z</time>
|
|
</trkpt>
|
|
<trkpt lat="55.833717" lon="8.172489">
|
|
<ele>8.969146</ele>
|
|
<time>2026-07-12T09:43:06.000Z</time>
|
|
</trkpt>
|
|
<trkpt lat="55.833763" lon="8.172493">
|
|
<ele>8.962862</ele>
|
|
<time>2026-07-12T09:43:07.000Z</time>
|
|
</trkpt>
|
|
<trkpt lat="55.833813" lon="8.172509">
|
|
<ele>8.955930</ele>
|
|
<time>2026-07-12T09:43:08.000Z</time>
|
|
</trkpt>
|
|
<trkpt lat="55.833858" lon="8.172534">
|
|
<ele>8.949498</ele>
|
|
<time>2026-07-12T09:43:09.000Z</time>
|
|
</trkpt>
|
|
<trkpt lat="55.833912" lon="8.172558">
|
|
<ele>8.941904</ele>
|
|
<time>2026-07-12T09:43:10.000Z</time>
|
|
</trkpt>
|
|
<trkpt lat="55.833969" lon="8.172579">
|
|
<ele>8.933962</ele>
|
|
<time>2026-07-12T09:43:11.000Z</time>
|
|
</trkpt>
|
|
<trkpt lat="55.834026" lon="8.172593">
|
|
<ele>8.926782</ele>
|
|
<time>2026-07-12T09:43:12.000Z</time>
|
|
</trkpt>
|
|
<trkpt lat="55.834087" lon="8.172601">
|
|
<ele>8.926621</ele>
|
|
<time>2026-07-12T09:43:13.000Z</time>
|
|
</trkpt>
|
|
<trkpt lat="55.834145" lon="8.172608">
|
|
<ele>8.926468</ele>
|
|
<time>2026-07-12T09:43:14.000Z</time>
|
|
</trkpt>
|
|
<trkpt lat="55.834198" lon="8.172621">
|
|
<ele>8.926327</ele>
|
|
<time>2026-07-12T09:43:15.000Z</time>
|
|
</trkpt>
|
|
<trkpt lat="55.834248" lon="8.172634">
|
|
<ele>8.926194</ele>
|
|
<time>2026-07-12T09:43:16.000Z</time>
|
|
</trkpt>
|
|
<trkpt lat="55.834297" lon="8.172647">
|
|
<ele>8.926063</ele>
|
|
<time>2026-07-12T09:43:17.000Z</time>
|
|
</trkpt>
|
|
<trkpt lat="55.834347" lon="8.172661">
|
|
<ele>8.925930</ele>
|
|
<time>2026-07-12T09:43:18.000Z</time>
|
|
</trkpt>
|
|
<trkpt lat="55.834396" lon="8.172673">
|
|
<ele>8.925800</ele>
|
|
<time>2026-07-12T09:43:19.000Z</time>
|
|
</trkpt>
|
|
<trkpt lat="55.834446" lon="8.172681">
|
|
<ele>8.925667</ele>
|
|
<time>2026-07-12T09:43:20.000Z</time>
|
|
</trkpt>
|
|
<trkpt lat="55.834499" lon="8.172688">
|
|
<ele>8.925527</ele>
|
|
<time>2026-07-12T09:43:21.000Z</time>
|
|
</trkpt>
|
|
<trkpt lat="55.834549" lon="8.172691">
|
|
<ele>8.925395</ele>
|
|
<time>2026-07-12T09:43:22.000Z</time>
|
|
</trkpt>
|
|
<trkpt lat="55.834599" lon="8.172693">
|
|
<ele>8.925264</ele>
|
|
<time>2026-07-12T09:43:23.000Z</time>
|
|
</trkpt>
|
|
<trkpt lat="55.834652" lon="8.172696">
|
|
<ele>8.925124</ele>
|
|
<time>2026-07-12T09:43:24.000Z</time>
|
|
</trkpt>
|
|
<trkpt lat="55.834702" lon="8.172698">
|
|
<ele>8.924992</ele>
|
|
<time>2026-07-12T09:43:25.000Z</time>
|
|
</trkpt>
|
|
<trkpt lat="55.834755" lon="8.172698">
|
|
<ele>8.924852</ele>
|
|
<time>2026-07-12T09:43:26.000Z</time>
|
|
</trkpt>
|
|
<trkpt lat="55.834805" lon="8.172697">
|
|
<ele>8.924720</ele>
|
|
<time>2026-07-12T09:43:27.000Z</time>
|
|
</trkpt>
|
|
<trkpt lat="55.834854" lon="8.172694">
|
|
<ele>8.924591</ele>
|
|
<time>2026-07-12T09:43:28.000Z</time>
|
|
</trkpt>
|
|
<trkpt lat="55.834900" lon="8.172685">
|
|
<ele>8.924469</ele>
|
|
<time>2026-07-12T09:43:29.000Z</time>
|
|
</trkpt>
|
|
<trkpt lat="55.834946" lon="8.172665">
|
|
<ele>8.924344</ele>
|
|
<time>2026-07-12T09:43:30.000Z</time>
|
|
</trkpt>
|
|
<trkpt lat="55.834991" lon="8.172635">
|
|
<ele>8.924218</ele>
|
|
<time>2026-07-12T09:43:31.000Z</time>
|
|
</trkpt>
|
|
<trkpt lat="55.835033" lon="8.172604">
|
|
<ele>8.924098</ele>
|
|
<time>2026-07-12T09:43:32.000Z</time>
|
|
</trkpt>
|
|
<trkpt lat="55.835075" lon="8.172577">
|
|
<ele>8.923980</ele>
|
|
<time>2026-07-12T09:43:33.000Z</time>
|
|
</trkpt>
|
|
<trkpt lat="55.835110" lon="8.172560">
|
|
<ele>8.923885</ele>
|
|
<time>2026-07-12T09:43:34.000Z</time>
|
|
</trkpt>
|
|
<trkpt lat="55.835148" lon="8.172552">
|
|
<ele>8.923784</ele>
|
|
<time>2026-07-12T09:43:35.000Z</time>
|
|
</trkpt>
|
|
<trkpt lat="55.835186" lon="8.172556">
|
|
<ele>8.923684</ele>
|
|
<time>2026-07-12T09:43:36.000Z</time>
|
|
</trkpt>
|
|
<trkpt lat="55.835228" lon="8.172566">
|
|
<ele>8.923572</ele>
|
|
<time>2026-07-12T09:43:37.000Z</time>
|
|
</trkpt>
|
|
<trkpt lat="55.835274" lon="8.172582">
|
|
<ele>8.923448</ele>
|
|
<time>2026-07-12T09:43:38.000Z</time>
|
|
</trkpt>
|
|
<trkpt lat="55.835320" lon="8.172601">
|
|
<ele>8.923324</ele>
|
|
<time>2026-07-12T09:43:39.000Z</time>
|
|
</trkpt>
|
|
<trkpt lat="55.835373" lon="8.172620">
|
|
<ele>8.923181</ele>
|
|
<time>2026-07-12T09:43:40.000Z</time>
|
|
</trkpt>
|
|
<trkpt lat="55.835426" lon="8.172632">
|
|
<ele>8.923041</ele>
|
|
<time>2026-07-12T09:43:41.000Z</time>
|
|
</trkpt>
|
|
<trkpt lat="55.835480" lon="8.172638">
|
|
<ele>8.922898</ele>
|
|
<time>2026-07-12T09:43:42.000Z</time>
|
|
</trkpt>
|
|
<trkpt lat="55.835529" lon="8.172638">
|
|
<ele>8.922769</ele>
|
|
<time>2026-07-12T09:43:43.000Z</time>
|
|
</trkpt>
|
|
<trkpt lat="55.835579" lon="8.172631">
|
|
<ele>8.922637</ele>
|
|
<time>2026-07-12T09:43:44.000Z</time>
|
|
</trkpt>
|
|
<trkpt lat="55.835625" lon="8.172624">
|
|
<ele>8.922515</ele>
|
|
<time>2026-07-12T09:43:45.000Z</time>
|
|
</trkpt>
|
|
<trkpt lat="55.835670" lon="8.172617">
|
|
<ele>8.922396</ele>
|
|
<time>2026-07-12T09:43:46.000Z</time>
|
|
</trkpt>
|
|
<trkpt lat="55.835716" lon="8.172610">
|
|
<ele>8.922274</ele>
|
|
<time>2026-07-12T09:43:47.000Z</time>
|
|
</trkpt>
|
|
<trkpt lat="55.835762" lon="8.172603">
|
|
<ele>8.922153</ele>
|
|
<time>2026-07-12T09:43:48.000Z</time>
|
|
</trkpt>
|
|
<trkpt lat="55.835812" lon="8.172595">
|
|
<ele>8.915928</ele>
|
|
<time>2026-07-12T09:43:49.000Z</time>
|
|
</trkpt>
|
|
<trkpt lat="55.835865" lon="8.172587">
|
|
<ele>8.891378</ele>
|
|
<time>2026-07-12T09:43:50.000Z</time>
|
|
</trkpt>
|
|
<trkpt lat="55.835922" lon="8.172580">
|
|
<ele>8.865007</ele>
|
|
<time>2026-07-12T09:43:51.000Z</time>
|
|
</trkpt>
|
|
<trkpt lat="55.835979" lon="8.172574">
|
|
<ele>8.838652</ele>
|
|
<time>2026-07-12T09:43:52.000Z</time>
|
|
</trkpt>
|
|
<trkpt lat="55.836037" lon="8.172568">
|
|
<ele>8.811837</ele>
|
|
<time>2026-07-12T09:43:53.000Z</time>
|
|
</trkpt>
|
|
<trkpt lat="55.836094" lon="8.172564">
|
|
<ele>8.785508</ele>
|
|
<time>2026-07-12T09:43:54.000Z</time>
|
|
</trkpt>
|
|
<trkpt lat="55.836144" lon="8.172564">
|
|
<ele>8.762430</ele>
|
|
<time>2026-07-12T09:43:55.000Z</time>
|
|
</trkpt>
|
|
<trkpt lat="55.836193" lon="8.172564">
|
|
<ele>8.739814</ele>
|
|
<time>2026-07-12T09:43:56.000Z</time>
|
|
</trkpt>
|
|
<trkpt lat="55.836246" lon="8.172564">
|
|
<ele>8.715352</ele>
|
|
<time>2026-07-12T09:43:57.000Z</time>
|
|
</trkpt>
|
|
<trkpt lat="55.836304" lon="8.172564">
|
|
<ele>8.688581</ele>
|
|
<time>2026-07-12T09:43:58.000Z</time>
|
|
</trkpt>
|
|
<trkpt lat="55.836357" lon="8.172564">
|
|
<ele>8.664119</ele>
|
|
<time>2026-07-12T09:43:59.000Z</time>
|
|
</trkpt>
|
|
<trkpt lat="55.836410" lon="8.172567">
|
|
<ele>8.639644</ele>
|
|
<time>2026-07-12T09:44:00.000Z</time>
|
|
</trkpt>
|
|
<trkpt lat="55.836468" lon="8.172569">
|
|
<ele>8.612869</ele>
|
|
<time>2026-07-12T09:44:01.000Z</time>
|
|
</trkpt>
|
|
<trkpt lat="55.836529" lon="8.172571">
|
|
<ele>8.584709</ele>
|
|
<time>2026-07-12T09:44:02.000Z</time>
|
|
</trkpt>
|
|
<trkpt lat="55.836594" lon="8.172572">
|
|
<ele>8.554707</ele>
|
|
<time>2026-07-12T09:44:03.000Z</time>
|
|
</trkpt>
|
|
<trkpt lat="55.836655" lon="8.172572">
|
|
<ele>8.526552</ele>
|
|
<time>2026-07-12T09:44:04.000Z</time>
|
|
</trkpt>
|
|
<trkpt lat="55.836712" lon="8.172576">
|
|
<ele>8.500223</ele>
|
|
<time>2026-07-12T09:44:05.000Z</time>
|
|
</trkpt>
|
|
<trkpt lat="55.836769" lon="8.172588">
|
|
<ele>8.473731</ele>
|
|
<time>2026-07-12T09:44:06.000Z</time>
|
|
</trkpt>
|
|
<trkpt lat="55.836826" lon="8.172606">
|
|
<ele>8.447012</ele>
|
|
<time>2026-07-12T09:44:07.000Z</time>
|
|
</trkpt>
|
|
<trkpt lat="55.836880" lon="8.172623">
|
|
<ele>8.421702</ele>
|
|
<time>2026-07-12T09:44:08.000Z</time>
|
|
</trkpt>
|
|
<trkpt lat="55.836937" lon="8.172634">
|
|
<ele>8.395239</ele>
|
|
<time>2026-07-12T09:44:09.000Z</time>
|
|
</trkpt>
|
|
<trkpt lat="55.836994" lon="8.172641">
|
|
<ele>8.368868</ele>
|
|
<time>2026-07-12T09:44:10.000Z</time>
|
|
</trkpt>
|
|
<trkpt lat="55.837048" lon="8.172647">
|
|
<ele>8.343896</ele>
|
|
<time>2026-07-12T09:44:11.000Z</time>
|
|
</trkpt>
|
|
<trkpt lat="55.837101" lon="8.172654">
|
|
<ele>8.319366</ele>
|
|
<time>2026-07-12T09:44:12.000Z</time>
|
|
</trkpt>
|
|
<trkpt lat="55.837158" lon="8.172661">
|
|
<ele>8.292995</ele>
|
|
<time>2026-07-12T09:44:13.000Z</time>
|
|
</trkpt>
|
|
<trkpt lat="55.837212" lon="8.172667">
|
|
<ele>8.268022</ele>
|
|
<time>2026-07-12T09:44:14.000Z</time>
|
|
</trkpt>
|
|
<trkpt lat="55.837269" lon="8.172674">
|
|
<ele>8.241651</ele>
|
|
<time>2026-07-12T09:44:15.000Z</time>
|
|
</trkpt>
|
|
<trkpt lat="55.837322" lon="8.172681">
|
|
<ele>8.217122</ele>
|
|
<time>2026-07-12T09:44:16.000Z</time>
|
|
</trkpt>
|
|
<trkpt lat="55.837376" lon="8.172687">
|
|
<ele>8.192149</ele>
|
|
<time>2026-07-12T09:44:17.000Z</time>
|
|
</trkpt>
|
|
<trkpt lat="55.837429" lon="8.172689">
|
|
<ele>8.167681</ele>
|
|
<time>2026-07-12T09:44:18.000Z</time>
|
|
</trkpt>
|
|
<trkpt lat="55.837482" lon="8.172694">
|
|
<ele>8.143185</ele>
|
|
<time>2026-07-12T09:44:19.000Z</time>
|
|
</trkpt>
|
|
<trkpt lat="55.837532" lon="8.172698">
|
|
<ele>8.120083</ele>
|
|
<time>2026-07-12T09:44:20.000Z</time>
|
|
</trkpt>
|
|
<trkpt lat="55.837582" lon="8.172702">
|
|
<ele>8.096982</ele>
|
|
<time>2026-07-12T09:44:21.000Z</time>
|
|
</trkpt>
|
|
<trkpt lat="55.837635" lon="8.172708">
|
|
<ele>8.068574</ele>
|
|
<time>2026-07-12T09:44:22.000Z</time>
|
|
</trkpt>
|
|
<trkpt lat="55.837685" lon="8.172711">
|
|
<ele>8.040848</ele>
|
|
<time>2026-07-12T09:44:23.000Z</time>
|
|
</trkpt>
|
|
<trkpt lat="55.837730" lon="8.172713">
|
|
<ele>8.015901</ele>
|
|
<time>2026-07-12T09:44:24.000Z</time>
|
|
</trkpt>
|
|
<trkpt lat="55.837772" lon="8.172712">
|
|
<ele>7.992622</ele>
|
|
<time>2026-07-12T09:44:25.000Z</time>
|
|
</trkpt>
|
|
<trkpt lat="55.837811" lon="8.172712">
|
|
<ele>7.971008</ele>
|
|
<time>2026-07-12T09:44:26.000Z</time>
|
|
</trkpt>
|
|
<trkpt lat="55.837841" lon="8.172714">
|
|
<ele>7.954371</ele>
|
|
<time>2026-07-12T09:44:27.000Z</time>
|
|
</trkpt>
|
|
<trkpt lat="55.837860" lon="8.172716">
|
|
<ele>7.943822</ele>
|
|
<time>2026-07-12T09:44:28.000Z</time>
|
|
</trkpt>
|
|
<trkpt lat="55.837853" lon="8.172702">
|
|
<ele>7.937989</ele>
|
|
<time>2026-07-12T09:44:45.000Z</time>
|
|
</trkpt>
|
|
<trkpt lat="55.837837" lon="8.172692">
|
|
<ele>7.928591</ele>
|
|
<time>2026-07-12T09:44:46.000Z</time>
|
|
</trkpt>
|
|
<trkpt lat="55.837822" lon="8.172696">
|
|
<ele>7.920185</ele>
|
|
<time>2026-07-12T09:44:47.000Z</time>
|
|
</trkpt>
|
|
<trkpt lat="55.837799" lon="8.172698">
|
|
<ele>7.907423</ele>
|
|
<time>2026-07-12T09:44:48.000Z</time>
|
|
</trkpt>
|
|
<trkpt lat="55.837784" lon="8.172700">
|
|
<ele>7.899087</ele>
|
|
<time>2026-07-12T09:44:49.000Z</time>
|
|
</trkpt>
|
|
<trkpt lat="55.837742" lon="8.172699">
|
|
<ele>7.875808</ele>
|
|
<time>2026-07-12T09:44:50.000Z</time>
|
|
</trkpt>
|
|
<trkpt lat="55.837711" lon="8.172698">
|
|
<ele>7.858625</ele>
|
|
<time>2026-07-12T09:44:51.000Z</time>
|
|
</trkpt>
|
|
<trkpt lat="55.837673" lon="8.172696">
|
|
<ele>7.837556</ele>
|
|
<time>2026-07-12T09:44:52.000Z</time>
|
|
</trkpt>
|
|
<trkpt lat="55.837635" lon="8.172695">
|
|
<ele>7.816494</ele>
|
|
<time>2026-07-12T09:44:53.000Z</time>
|
|
</trkpt>
|
|
<trkpt lat="55.837597" lon="8.172695">
|
|
<ele>7.795434</ele>
|
|
<time>2026-07-12T09:44:54.000Z</time>
|
|
</trkpt>
|
|
<trkpt lat="55.837559" lon="8.172694">
|
|
<ele>7.774372</ele>
|
|
<time>2026-07-12T09:44:55.000Z</time>
|
|
</trkpt>
|
|
<trkpt lat="55.837513" lon="8.172689">
|
|
<ele>7.748832</ele>
|
|
<time>2026-07-12T09:44:56.000Z</time>
|
|
</trkpt>
|
|
<trkpt lat="55.837475" lon="8.172684">
|
|
<ele>7.727714</ele>
|
|
<time>2026-07-12T09:44:57.000Z</time>
|
|
</trkpt>
|
|
<trkpt lat="55.837440" lon="8.172678">
|
|
<ele>7.708227</ele>
|
|
<time>2026-07-12T09:44:58.000Z</time>
|
|
</trkpt>
|
|
<trkpt lat="55.837406" lon="8.172674">
|
|
<ele>7.689343</ele>
|
|
<time>2026-07-12T09:44:59.000Z</time>
|
|
</trkpt>
|
|
<trkpt lat="55.837364" lon="8.172671">
|
|
<ele>7.666048</ele>
|
|
<time>2026-07-12T09:45:00.000Z</time>
|
|
</trkpt>
|
|
<trkpt lat="55.837330" lon="8.172669">
|
|
<ele>7.647195</ele>
|
|
<time>2026-07-12T09:45:01.000Z</time>
|
|
</trkpt>
|
|
<trkpt lat="55.837299" lon="8.172664">
|
|
<ele>7.629944</ele>
|
|
<time>2026-07-12T09:45:02.000Z</time>
|
|
</trkpt>
|
|
<trkpt lat="55.837276" lon="8.172641">
|
|
<ele>7.615325</ele>
|
|
<time>2026-07-12T09:45:03.000Z</time>
|
|
</trkpt>
|
|
<trkpt lat="55.837261" lon="8.172596">
|
|
<ele>7.599039</ele>
|
|
<time>2026-07-12T09:45:04.000Z</time>
|
|
</trkpt>
|
|
<trkpt lat="55.837261" lon="8.172546">
|
|
<ele>7.583479</ele>
|
|
<time>2026-07-12T09:45:05.000Z</time>
|
|
</trkpt>
|
|
<trkpt lat="55.837269" lon="8.172491">
|
|
<ele>7.565797</ele>
|
|
<time>2026-07-12T09:45:06.000Z</time>
|
|
</trkpt>
|
|
<trkpt lat="55.837276" lon="8.172424">
|
|
<ele>7.544588</ele>
|
|
<time>2026-07-12T09:45:07.000Z</time>
|
|
</trkpt>
|
|
<trkpt lat="55.837292" lon="8.172350">
|
|
<ele>7.519911</ele>
|
|
<time>2026-07-12T09:45:08.000Z</time>
|
|
</trkpt>
|
|
<trkpt lat="55.837307" lon="8.172275">
|
|
<ele>7.495134</ele>
|
|
<time>2026-07-12T09:45:09.000Z</time>
|
|
</trkpt>
|
|
<trkpt lat="55.837330" lon="8.172203">
|
|
<ele>7.469354</ele>
|
|
<time>2026-07-12T09:45:10.000Z</time>
|
|
</trkpt>
|
|
<trkpt lat="55.837353" lon="8.172138">
|
|
<ele>7.445445</ele>
|
|
<time>2026-07-12T09:45:11.000Z</time>
|
|
</trkpt>
|
|
<trkpt lat="55.837383" lon="8.172079">
|
|
<ele>7.420674</ele>
|
|
<time>2026-07-12T09:45:12.000Z</time>
|
|
</trkpt>
|
|
<trkpt lat="55.837414" lon="8.172031">
|
|
<ele>7.397908</ele>
|
|
<time>2026-07-12T09:45:13.000Z</time>
|
|
</trkpt>
|
|
<trkpt lat="55.837452" lon="8.171991">
|
|
<ele>7.373444</ele>
|
|
<time>2026-07-12T09:45:14.000Z</time>
|
|
</trkpt>
|
|
<trkpt lat="55.837486" lon="8.171973">
|
|
<ele>7.353786</ele>
|
|
<time>2026-07-12T09:45:15.000Z</time>
|
|
</trkpt>
|
|
<trkpt lat="55.837524" lon="8.171968">
|
|
<ele>7.332669</ele>
|
|
<time>2026-07-12T09:45:16.000Z</time>
|
|
</trkpt>
|
|
<trkpt lat="55.837563" lon="8.171979">
|
|
<ele>7.310786</ele>
|
|
<time>2026-07-12T09:45:17.000Z</time>
|
|
</trkpt>
|
|
<trkpt lat="55.837597" lon="8.172003">
|
|
<ele>7.290516</ele>
|
|
<time>2026-07-12T09:45:18.000Z</time>
|
|
</trkpt>
|
|
<trkpt lat="55.837643" lon="8.172041">
|
|
<ele>7.262413</ele>
|
|
<time>2026-07-12T09:45:19.000Z</time>
|
|
</trkpt>
|
|
<trkpt lat="55.837685" lon="8.172071">
|
|
<ele>7.237334</ele>
|
|
<time>2026-07-12T09:45:20.000Z</time>
|
|
</trkpt>
|
|
<trkpt lat="55.837727" lon="8.172093">
|
|
<ele>7.213072</ele>
|
|
<time>2026-07-12T09:45:21.000Z</time>
|
|
</trkpt>
|
|
<trkpt lat="55.837769" lon="8.172106">
|
|
<ele>7.189446</ele>
|
|
<time>2026-07-12T09:45:22.000Z</time>
|
|
</trkpt>
|
|
<trkpt lat="55.837807" lon="8.172111">
|
|
<ele>7.168329</ele>
|
|
<time>2026-07-12T09:45:23.000Z</time>
|
|
</trkpt>
|
|
<trkpt lat="55.837841" lon="8.172111">
|
|
<ele>7.149486</ele>
|
|
<time>2026-07-12T09:45:24.000Z</time>
|
|
</trkpt>
|
|
<trkpt lat="55.837879" lon="8.172105">
|
|
<ele>7.128344</ele>
|
|
<time>2026-07-12T09:45:25.000Z</time>
|
|
</trkpt>
|
|
<trkpt lat="55.837917" lon="8.172098">
|
|
<ele>7.107171</ele>
|
|
<time>2026-07-12T09:45:26.000Z</time>
|
|
</trkpt>
|
|
<trkpt lat="55.837963" lon="8.172094">
|
|
<ele>7.105851</ele>
|
|
<time>2026-07-12T09:45:27.000Z</time>
|
|
</trkpt>
|
|
<trkpt lat="55.838005" lon="8.172087">
|
|
<ele>7.124642</ele>
|
|
<time>2026-07-12T09:45:28.000Z</time>
|
|
</trkpt>
|
|
<trkpt lat="55.838043" lon="8.172067">
|
|
<ele>7.142294</ele>
|
|
<time>2026-07-12T09:45:29.000Z</time>
|
|
</trkpt>
|
|
<trkpt lat="55.838078" lon="8.172030">
|
|
<ele>7.160425</ele>
|
|
<time>2026-07-12T09:45:30.000Z</time>
|
|
</trkpt>
|
|
<trkpt lat="55.838112" lon="8.171975">
|
|
<ele>7.180887</ele>
|
|
<time>2026-07-12T09:45:31.000Z</time>
|
|
</trkpt>
|
|
<trkpt lat="55.838139" lon="8.171907">
|
|
<ele>7.201719</ele>
|
|
<time>2026-07-12T09:45:32.000Z</time>
|
|
</trkpt>
|
|
<trkpt lat="55.838161" lon="8.171829">
|
|
<ele>7.223553</ele>
|
|
<time>2026-07-12T09:45:33.000Z</time>
|
|
</trkpt>
|
|
<trkpt lat="55.838177" lon="8.171745">
|
|
<ele>7.245741</ele>
|
|
<time>2026-07-12T09:45:34.000Z</time>
|
|
</trkpt>
|
|
<trkpt lat="55.838188" lon="8.171662">
|
|
<ele>7.267073</ele>
|
|
<time>2026-07-12T09:45:35.000Z</time>
|
|
</trkpt>
|
|
<trkpt lat="55.838200" lon="8.171581">
|
|
<ele>7.288028</ele>
|
|
<time>2026-07-12T09:45:36.000Z</time>
|
|
</trkpt>
|
|
<trkpt lat="55.838219" lon="8.171506">
|
|
<ele>7.308610</ele>
|
|
<time>2026-07-12T09:45:37.000Z</time>
|
|
</trkpt>
|
|
<trkpt lat="55.838242" lon="8.171442">
|
|
<ele>7.327617</ele>
|
|
<time>2026-07-12T09:45:38.000Z</time>
|
|
</trkpt>
|
|
<trkpt lat="55.838268" lon="8.171395">
|
|
<ele>7.344120</ele>
|
|
<time>2026-07-12T09:45:39.000Z</time>
|
|
</trkpt>
|
|
<trkpt lat="55.838306" lon="8.171370">
|
|
<ele>7.362166</ele>
|
|
<time>2026-07-12T09:45:40.000Z</time>
|
|
</trkpt>
|
|
<trkpt lat="55.838345" lon="8.171370">
|
|
<ele>7.379539</ele>
|
|
<time>2026-07-12T09:45:41.000Z</time>
|
|
</trkpt>
|
|
<trkpt lat="55.838390" lon="8.171390">
|
|
<ele>7.400200</ele>
|
|
<time>2026-07-12T09:45:42.000Z</time>
|
|
</trkpt>
|
|
<trkpt lat="55.838436" lon="8.171423">
|
|
<ele>7.422292</ele>
|
|
<time>2026-07-12T09:45:43.000Z</time>
|
|
</trkpt>
|
|
<trkpt lat="55.838478" lon="8.171457">
|
|
<ele>7.442843</ele>
|
|
<time>2026-07-12T09:45:44.000Z</time>
|
|
</trkpt>
|
|
<trkpt lat="55.838516" lon="8.171481">
|
|
<ele>7.460804</ele>
|
|
<time>2026-07-12T09:45:45.000Z</time>
|
|
</trkpt>
|
|
<trkpt lat="55.838551" lon="8.171495">
|
|
<ele>7.476784</ele>
|
|
<time>2026-07-12T09:45:46.000Z</time>
|
|
</trkpt>
|
|
<trkpt lat="55.838596" lon="8.171503">
|
|
<ele>7.496929</ele>
|
|
<time>2026-07-12T09:45:47.000Z</time>
|
|
</trkpt>
|
|
<trkpt lat="55.838642" lon="8.171505">
|
|
<ele>7.517427</ele>
|
|
<time>2026-07-12T09:45:48.000Z</time>
|
|
</trkpt>
|
|
<trkpt lat="55.838684" lon="8.171506">
|
|
<ele>7.536138</ele>
|
|
<time>2026-07-12T09:45:49.000Z</time>
|
|
</trkpt>
|
|
<trkpt lat="55.838718" lon="8.171508">
|
|
<ele>7.551292</ele>
|
|
<time>2026-07-12T09:45:50.000Z</time>
|
|
</trkpt>
|
|
<trkpt lat="55.838745" lon="8.171507">
|
|
<ele>7.563322</ele>
|
|
<time>2026-07-12T09:45:51.000Z</time>
|
|
</trkpt>
|
|
<trkpt lat="55.838772" lon="8.171500">
|
|
<ele>7.575477</ele>
|
|
<time>2026-07-12T09:45:52.000Z</time>
|
|
</trkpt>
|
|
<trkpt lat="55.838798" lon="8.171486">
|
|
<ele>7.587577</ele>
|
|
<time>2026-07-12T09:45:53.000Z</time>
|
|
</trkpt>
|
|
<trkpt lat="55.838833" lon="8.171465">
|
|
<ele>7.604029</ele>
|
|
<time>2026-07-12T09:45:54.000Z</time>
|
|
</trkpt>
|
|
<trkpt lat="55.838871" lon="8.171435">
|
|
<ele>7.622545</ele>
|
|
<time>2026-07-12T09:45:55.000Z</time>
|
|
</trkpt>
|
|
<trkpt lat="55.838913" lon="8.171390">
|
|
<ele>7.644380</ele>
|
|
<time>2026-07-12T09:45:56.000Z</time>
|
|
</trkpt>
|
|
<trkpt lat="55.838955" lon="8.171330">
|
|
<ele>7.668365</ele>
|
|
<time>2026-07-12T09:45:57.000Z</time>
|
|
</trkpt>
|
|
<trkpt lat="55.838993" lon="8.171257">
|
|
<ele>7.693264</ele>
|
|
<time>2026-07-12T09:45:58.000Z</time>
|
|
</trkpt>
|
|
<trkpt lat="55.839020" lon="8.171183">
|
|
<ele>7.715339</ele>
|
|
<time>2026-07-12T09:45:59.000Z</time>
|
|
</trkpt>
|
|
<trkpt lat="55.839047" lon="8.171116">
|
|
<ele>7.735968</ele>
|
|
<time>2026-07-12T09:46:00.000Z</time>
|
|
</trkpt>
|
|
<trkpt lat="55.839077" lon="8.171048">
|
|
<ele>7.757599</ele>
|
|
<time>2026-07-12T09:46:01.000Z</time>
|
|
</trkpt>
|
|
<trkpt lat="55.839108" lon="8.170982">
|
|
<ele>7.779122</ele>
|
|
<time>2026-07-12T09:46:02.000Z</time>
|
|
</trkpt>
|
|
<trkpt lat="55.839138" lon="8.170918">
|
|
<ele>7.799976</ele>
|
|
<time>2026-07-12T09:46:03.000Z</time>
|
|
</trkpt>
|
|
<trkpt lat="55.839165" lon="8.170858">
|
|
<ele>7.819209</ele>
|
|
<time>2026-07-12T09:46:04.000Z</time>
|
|
</trkpt>
|
|
<trkpt lat="55.839191" lon="8.170808">
|
|
<ele>7.836255</ele>
|
|
<time>2026-07-12T09:46:05.000Z</time>
|
|
</trkpt>
|
|
<trkpt lat="55.839222" lon="8.170756">
|
|
<ele>7.855225</ele>
|
|
<time>2026-07-12T09:46:06.000Z</time>
|
|
</trkpt>
|
|
<trkpt lat="55.839256" lon="8.170703">
|
|
<ele>7.875354</ele>
|
|
<time>2026-07-12T09:46:07.000Z</time>
|
|
</trkpt>
|
|
<trkpt lat="55.839287" lon="8.170651">
|
|
<ele>7.894324</ele>
|
|
<time>2026-07-12T09:46:08.000Z</time>
|
|
</trkpt>
|
|
<trkpt lat="55.839321" lon="8.170598">
|
|
<ele>7.939563</ele>
|
|
<time>2026-07-12T09:46:09.000Z</time>
|
|
</trkpt>
|
|
<trkpt lat="55.839352" lon="8.170549">
|
|
<ele>7.983566</ele>
|
|
<time>2026-07-12T09:46:10.000Z</time>
|
|
</trkpt>
|
|
<trkpt lat="55.839386" lon="8.170506">
|
|
<ele>8.027836</ele>
|
|
<time>2026-07-12T09:46:11.000Z</time>
|
|
</trkpt>
|
|
<trkpt lat="55.839416" lon="8.170471">
|
|
<ele>8.065910</ele>
|
|
<time>2026-07-12T09:46:12.000Z</time>
|
|
</trkpt>
|
|
<trkpt lat="55.839447" lon="8.170441">
|
|
<ele>8.103365</ele>
|
|
<time>2026-07-12T09:46:13.000Z</time>
|
|
</trkpt>
|
|
<trkpt lat="55.839481" lon="8.170416">
|
|
<ele>8.142415</ele>
|
|
<time>2026-07-12T09:46:14.000Z</time>
|
|
</trkpt>
|
|
<trkpt lat="55.839512" lon="8.170399">
|
|
<ele>8.176850</ele>
|
|
<time>2026-07-12T09:46:15.000Z</time>
|
|
</trkpt>
|
|
<trkpt lat="55.839542" lon="8.170381">
|
|
<ele>8.210457</ele>
|
|
<time>2026-07-12T09:46:16.000Z</time>
|
|
</trkpt>
|
|
<trkpt lat="55.839592" lon="8.170349">
|
|
<ele>8.266861</ele>
|
|
<time>2026-07-12T09:46:17.000Z</time>
|
|
</trkpt>
|
|
<trkpt lat="55.839626" lon="8.170325">
|
|
<ele>8.305687</ele>
|
|
<time>2026-07-12T09:46:18.000Z</time>
|
|
</trkpt>
|
|
<trkpt lat="55.839664" lon="8.170299">
|
|
<ele>8.348903</ele>
|
|
<time>2026-07-12T09:46:19.000Z</time>
|
|
</trkpt>
|
|
<trkpt lat="55.839703" lon="8.170269">
|
|
<ele>8.394003</ele>
|
|
<time>2026-07-12T09:46:20.000Z</time>
|
|
</trkpt>
|
|
<trkpt lat="55.839741" lon="8.170238">
|
|
<ele>8.438375</ele>
|
|
<time>2026-07-12T09:46:21.000Z</time>
|
|
</trkpt>
|
|
<trkpt lat="55.839779" lon="8.170205">
|
|
<ele>8.483257</ele>
|
|
<time>2026-07-12T09:46:22.000Z</time>
|
|
</trkpt>
|
|
<trkpt lat="55.839813" lon="8.170175">
|
|
<ele>8.523539</ele>
|
|
<time>2026-07-12T09:46:23.000Z</time>
|
|
</trkpt>
|
|
<trkpt lat="55.839848" lon="8.170143">
|
|
<ele>8.565305</ele>
|
|
<time>2026-07-12T09:46:24.000Z</time>
|
|
</trkpt>
|
|
<trkpt lat="55.839882" lon="8.170115">
|
|
<ele>8.605072</ele>
|
|
<time>2026-07-12T09:46:25.000Z</time>
|
|
</trkpt>
|
|
<trkpt lat="55.839912" lon="8.170088">
|
|
<ele>8.640756</ele>
|
|
<time>2026-07-12T09:46:26.000Z</time>
|
|
</trkpt>
|
|
<trkpt lat="55.839943" lon="8.170062">
|
|
<ele>8.677133</ele>
|
|
<time>2026-07-12T09:46:27.000Z</time>
|
|
</trkpt>
|
|
<trkpt lat="55.839973" lon="8.170038">
|
|
<ele>8.712047</ele>
|
|
<time>2026-07-12T09:46:28.000Z</time>
|
|
</trkpt>
|
|
<trkpt lat="55.840012" lon="8.170009">
|
|
<ele>8.756914</ele>
|
|
<time>2026-07-12T09:46:29.000Z</time>
|
|
</trkpt>
|
|
<trkpt lat="55.840042" lon="8.169983">
|
|
<ele>8.792333</ele>
|
|
<time>2026-07-12T09:46:30.000Z</time>
|
|
</trkpt>
|
|
<trkpt lat="55.840073" lon="8.169958">
|
|
<ele>8.828459</ele>
|
|
<time>2026-07-12T09:46:31.000Z</time>
|
|
</trkpt>
|
|
<trkpt lat="55.840103" lon="8.169932">
|
|
<ele>8.863879</ele>
|
|
<time>2026-07-12T09:46:32.000Z</time>
|
|
</trkpt>
|
|
<trkpt lat="55.840138" lon="8.169899">
|
|
<ele>8.905921</ele>
|
|
<time>2026-07-12T09:46:33.000Z</time>
|
|
</trkpt>
|
|
<trkpt lat="55.840164" lon="8.169856">
|
|
<ele>8.943589</ele>
|
|
<time>2026-07-12T09:46:34.000Z</time>
|
|
</trkpt>
|
|
<trkpt lat="55.840187" lon="8.169804">
|
|
<ele>8.983048</ele>
|
|
<time>2026-07-12T09:46:35.000Z</time>
|
|
</trkpt>
|
|
<trkpt lat="55.840199" lon="8.169745">
|
|
<ele>9.020453</ele>
|
|
<time>2026-07-12T09:46:36.000Z</time>
|
|
</trkpt>
|
|
<trkpt lat="55.840199" lon="8.169686">
|
|
<ele>9.055623</ele>
|
|
<time>2026-07-12T09:46:37.000Z</time>
|
|
</trkpt>
|
|
<trkpt lat="55.840191" lon="8.169629">
|
|
<ele>9.090646</ele>
|
|
<time>2026-07-12T09:46:38.000Z</time>
|
|
</trkpt>
|
|
<trkpt lat="55.840187" lon="8.169571">
|
|
<ele>9.125479</ele>
|
|
<time>2026-07-12T09:46:39.000Z</time>
|
|
</trkpt>
|
|
<trkpt lat="55.840183" lon="8.169517">
|
|
<ele>9.157947</ele>
|
|
<time>2026-07-12T09:46:40.000Z</time>
|
|
</trkpt>
|
|
<trkpt lat="55.840179" lon="8.169466">
|
|
<ele>9.188643</ele>
|
|
<time>2026-07-12T09:46:41.000Z</time>
|
|
</trkpt>
|
|
<trkpt lat="55.840176" lon="8.169416">
|
|
<ele>9.218618</ele>
|
|
<time>2026-07-12T09:46:42.000Z</time>
|
|
</trkpt>
|
|
<trkpt lat="55.840172" lon="8.169370">
|
|
<ele>9.246365</ele>
|
|
<time>2026-07-12T09:46:43.000Z</time>
|
|
</trkpt>
|
|
<trkpt lat="55.840164" lon="8.169324">
|
|
<ele>9.275071</ele>
|
|
<time>2026-07-12T09:46:44.000Z</time>
|
|
</trkpt>
|
|
<trkpt lat="55.840157" lon="8.169278">
|
|
<ele>9.303480</ele>
|
|
<time>2026-07-12T09:46:45.000Z</time>
|
|
</trkpt>
|
|
<trkpt lat="55.840157" lon="8.169233">
|
|
<ele>9.330305</ele>
|
|
<time>2026-07-12T09:46:46.000Z</time>
|
|
</trkpt>
|
|
<trkpt lat="55.840157" lon="8.169190">
|
|
<ele>9.355937</ele>
|
|
<time>2026-07-12T09:46:47.000Z</time>
|
|
</trkpt>
|
|
<trkpt lat="55.840153" lon="8.169153">
|
|
<ele>9.378397</ele>
|
|
<time>2026-07-12T09:46:48.000Z</time>
|
|
</trkpt>
|
|
<trkpt lat="55.840157" lon="8.169123">
|
|
<ele>9.396778</ele>
|
|
<time>2026-07-12T09:46:49.000Z</time>
|
|
</trkpt>
|
|
<trkpt lat="55.840157" lon="8.169106">
|
|
<ele>9.406911</ele>
|
|
<time>2026-07-12T09:46:50.000Z</time>
|
|
</trkpt>
|
|
<trkpt lat="55.840130" lon="8.169028">
|
|
<ele>9.461532</ele>
|
|
<time>2026-07-12T09:47:01.000Z</time>
|
|
</trkpt>
|
|
<trkpt lat="55.840122" lon="8.168991">
|
|
<ele>9.485166</ele>
|
|
<time>2026-07-12T09:47:02.000Z</time>
|
|
</trkpt>
|
|
<trkpt lat="55.840111" lon="8.168947">
|
|
<ele>9.513877</ele>
|
|
<time>2026-07-12T09:47:03.000Z</time>
|
|
</trkpt>
|
|
<trkpt lat="55.840103" lon="8.168903">
|
|
<ele>9.541446</ele>
|
|
<time>2026-07-12T09:47:04.000Z</time>
|
|
</trkpt>
|
|
<trkpt lat="55.840099" lon="8.168855">
|
|
<ele>9.570372</ele>
|
|
<time>2026-07-12T09:47:05.000Z</time>
|
|
</trkpt>
|
|
<trkpt lat="55.840096" lon="8.168807">
|
|
<ele>9.599161</ele>
|
|
<time>2026-07-12T09:47:06.000Z</time>
|
|
</trkpt>
|
|
<trkpt lat="55.840092" lon="8.168759">
|
|
<ele>9.628087</ele>
|
|
<time>2026-07-12T09:47:07.000Z</time>
|
|
</trkpt>
|
|
<trkpt lat="55.840092" lon="8.168714">
|
|
<ele>9.654912</ele>
|
|
<time>2026-07-12T09:47:08.000Z</time>
|
|
</trkpt>
|
|
<trkpt lat="55.840092" lon="8.168667">
|
|
<ele>9.682928</ele>
|
|
<time>2026-07-12T09:47:09.000Z</time>
|
|
</trkpt>
|
|
<trkpt lat="55.840092" lon="8.168618">
|
|
<ele>9.712137</ele>
|
|
<time>2026-07-12T09:47:10.000Z</time>
|
|
</trkpt>
|
|
<trkpt lat="55.840096" lon="8.168570">
|
|
<ele>9.741063</ele>
|
|
<time>2026-07-12T09:47:11.000Z</time>
|
|
</trkpt>
|
|
<trkpt lat="55.840096" lon="8.168523">
|
|
<ele>9.769080</ele>
|
|
<time>2026-07-12T09:47:12.000Z</time>
|
|
</trkpt>
|
|
<trkpt lat="55.840096" lon="8.168471">
|
|
<ele>9.800077</ele>
|
|
<time>2026-07-12T09:47:13.000Z</time>
|
|
</trkpt>
|
|
<trkpt lat="55.840099" lon="8.168420">
|
|
<ele>9.781440</ele>
|
|
<time>2026-07-12T09:47:14.000Z</time>
|
|
</trkpt>
|
|
<trkpt lat="55.840107" lon="8.168368">
|
|
<ele>9.750050</ele>
|
|
<time>2026-07-12T09:47:15.000Z</time>
|
|
</trkpt>
|
|
<trkpt lat="55.840118" lon="8.168321">
|
|
<ele>9.720405</ele>
|
|
<time>2026-07-12T09:47:16.000Z</time>
|
|
</trkpt>
|
|
<trkpt lat="55.840130" lon="8.168281">
|
|
<ele>9.694002</ele>
|
|
<time>2026-07-12T09:47:17.000Z</time>
|
|
</trkpt>
|
|
<trkpt lat="55.840145" lon="8.168250">
|
|
<ele>9.670178</ele>
|
|
<time>2026-07-12T09:47:18.000Z</time>
|
|
</trkpt>
|
|
<trkpt lat="55.840160" lon="8.168224">
|
|
<ele>9.648475</ele>
|
|
<time>2026-07-12T09:47:19.000Z</time>
|
|
</trkpt>
|
|
<trkpt lat="55.840179" lon="8.168197">
|
|
<ele>9.623272</ele>
|
|
<time>2026-07-12T09:47:20.000Z</time>
|
|
</trkpt>
|
|
<trkpt lat="55.840206" lon="8.168164">
|
|
<ele>9.589319</ele>
|
|
<time>2026-07-12T09:47:21.000Z</time>
|
|
</trkpt>
|
|
<trkpt lat="55.840237" lon="8.168135">
|
|
<ele>9.553012</ele>
|
|
<time>2026-07-12T09:47:22.000Z</time>
|
|
</trkpt>
|
|
<trkpt lat="55.840271" lon="8.168110">
|
|
<ele>9.514873</ele>
|
|
<time>2026-07-12T09:47:23.000Z</time>
|
|
</trkpt>
|
|
<trkpt lat="55.840305" lon="8.168090">
|
|
<ele>9.477747</ele>
|
|
<time>2026-07-12T09:47:24.000Z</time>
|
|
</trkpt>
|
|
<trkpt lat="55.840347" lon="8.168071">
|
|
<ele>9.432817</ele>
|
|
<time>2026-07-12T09:47:25.000Z</time>
|
|
</trkpt>
|
|
<trkpt lat="55.840393" lon="8.168052">
|
|
<ele>9.383856</ele>
|
|
<time>2026-07-12T09:47:26.000Z</time>
|
|
</trkpt>
|
|
<trkpt lat="55.840443" lon="8.168035">
|
|
<ele>9.331077</ele>
|
|
<time>2026-07-12T09:47:27.000Z</time>
|
|
</trkpt>
|
|
<trkpt lat="55.840485" lon="8.168018">
|
|
<ele>9.286419</ele>
|
|
<time>2026-07-12T09:47:28.000Z</time>
|
|
</trkpt>
|
|
<trkpt lat="55.840527" lon="8.167999">
|
|
<ele>9.241489</ele>
|
|
<time>2026-07-12T09:47:29.000Z</time>
|
|
</trkpt>
|
|
<trkpt lat="55.840569" lon="8.167980">
|
|
<ele>9.196559</ele>
|
|
<time>2026-07-12T09:47:30.000Z</time>
|
|
</trkpt>
|
|
<trkpt lat="55.840607" lon="8.167960">
|
|
<ele>9.155474</ele>
|
|
<time>2026-07-12T09:47:31.000Z</time>
|
|
</trkpt>
|
|
<trkpt lat="55.840649" lon="8.167940">
|
|
<ele>9.110397</ele>
|
|
<time>2026-07-12T09:47:32.000Z</time>
|
|
</trkpt>
|
|
<trkpt lat="55.840691" lon="8.167920">
|
|
<ele>9.065320</ele>
|
|
<time>2026-07-12T09:47:33.000Z</time>
|
|
</trkpt>
|
|
<trkpt lat="55.840733" lon="8.167900">
|
|
<ele>9.020243</ele>
|
|
<time>2026-07-12T09:47:34.000Z</time>
|
|
</trkpt>
|
|
<trkpt lat="55.840771" lon="8.167880">
|
|
<ele>8.979158</ele>
|
|
<time>2026-07-12T09:47:35.000Z</time>
|
|
</trkpt>
|
|
<trkpt lat="55.840813" lon="8.167860">
|
|
<ele>8.934081</ele>
|
|
<time>2026-07-12T09:47:36.000Z</time>
|
|
</trkpt>
|
|
<trkpt lat="55.840855" lon="8.167845">
|
|
<ele>8.889666</ele>
|
|
<time>2026-07-12T09:47:37.000Z</time>
|
|
</trkpt>
|
|
<trkpt lat="55.840897" lon="8.167833">
|
|
<ele>8.845562</ele>
|
|
<time>2026-07-12T09:47:38.000Z</time>
|
|
</trkpt>
|
|
<trkpt lat="55.840939" lon="8.167825">
|
|
<ele>8.801766</ele>
|
|
<time>2026-07-12T09:47:39.000Z</time>
|
|
</trkpt>
|
|
<trkpt lat="55.840981" lon="8.167816">
|
|
<ele>8.757905</ele>
|
|
<time>2026-07-12T09:47:40.000Z</time>
|
|
</trkpt>
|
|
<trkpt lat="55.841019" lon="8.167809">
|
|
<ele>8.718294</ele>
|
|
<time>2026-07-12T09:47:41.000Z</time>
|
|
</trkpt>
|
|
<trkpt lat="55.841061" lon="8.167805">
|
|
<ele>8.674685</ele>
|
|
<time>2026-07-12T09:47:42.000Z</time>
|
|
</trkpt>
|
|
<trkpt lat="55.841095" lon="8.167799">
|
|
<ele>8.639259</ele>
|
|
<time>2026-07-12T09:47:43.000Z</time>
|
|
</trkpt>
|
|
<trkpt lat="55.841129" lon="8.167790">
|
|
<ele>8.603619</ele>
|
|
<time>2026-07-12T09:47:44.000Z</time>
|
|
</trkpt>
|
|
<trkpt lat="55.841167" lon="8.167784">
|
|
<ele>8.564065</ele>
|
|
<time>2026-07-12T09:47:45.000Z</time>
|
|
</trkpt>
|
|
<trkpt lat="55.841206" lon="8.167774">
|
|
<ele>8.523211</ele>
|
|
<time>2026-07-12T09:47:46.000Z</time>
|
|
</trkpt>
|
|
<trkpt lat="55.841248" lon="8.167766">
|
|
<ele>8.479415</ele>
|
|
<time>2026-07-12T09:47:47.000Z</time>
|
|
</trkpt>
|
|
<trkpt lat="55.841290" lon="8.167751">
|
|
<ele>8.435001</ele>
|
|
<time>2026-07-12T09:47:48.000Z</time>
|
|
</trkpt>
|
|
<trkpt lat="55.841328" lon="8.167727">
|
|
<ele>8.393197</ele>
|
|
<time>2026-07-12T09:47:49.000Z</time>
|
|
</trkpt>
|
|
<trkpt lat="55.841366" lon="8.167692">
|
|
<ele>8.348840</ele>
|
|
<time>2026-07-12T09:47:50.000Z</time>
|
|
</trkpt>
|
|
<trkpt lat="55.841408" lon="8.167648">
|
|
<ele>8.298317</ele>
|
|
<time>2026-07-12T09:47:51.000Z</time>
|
|
</trkpt>
|
|
<trkpt lat="55.841446" lon="8.167597">
|
|
<ele>8.248982</ele>
|
|
<time>2026-07-12T09:47:52.000Z</time>
|
|
</trkpt>
|
|
<trkpt lat="55.841484" lon="8.167542">
|
|
<ele>8.198212</ele>
|
|
<time>2026-07-12T09:47:53.000Z</time>
|
|
</trkpt>
|
|
<trkpt lat="55.841522" lon="8.167483">
|
|
<ele>8.145942</ele>
|
|
<time>2026-07-12T09:47:54.000Z</time>
|
|
</trkpt>
|
|
<trkpt lat="55.841568" lon="8.167428">
|
|
<ele>8.088496</ele>
|
|
<time>2026-07-12T09:47:55.000Z</time>
|
|
</trkpt>
|
|
<trkpt lat="55.841614" lon="8.167384">
|
|
<ele>8.034358</ele>
|
|
<time>2026-07-12T09:47:56.000Z</time>
|
|
</trkpt>
|
|
<trkpt lat="55.841675" lon="8.167357">
|
|
<ele>7.969186</ele>
|
|
<time>2026-07-12T09:47:57.000Z</time>
|
|
</trkpt>
|
|
<trkpt lat="55.841732" lon="8.167350">
|
|
<ele>7.919528</ele>
|
|
<time>2026-07-12T09:47:58.000Z</time>
|
|
</trkpt>
|
|
<trkpt lat="55.841789" lon="8.167353">
|
|
<ele>7.878740</ele>
|
|
<time>2026-07-12T09:47:59.000Z</time>
|
|
</trkpt>
|
|
<trkpt lat="55.841843" lon="8.167360">
|
|
<ele>7.840014</ele>
|
|
<time>2026-07-12T09:48:00.000Z</time>
|
|
</trkpt>
|
|
<trkpt lat="55.841885" lon="8.167370">
|
|
<ele>7.809706</ele>
|
|
<time>2026-07-12T09:48:01.000Z</time>
|
|
</trkpt>
|
|
<trkpt lat="55.841927" lon="8.167376">
|
|
<ele>7.779569</ele>
|
|
<time>2026-07-12T09:48:02.000Z</time>
|
|
</trkpt>
|
|
<trkpt lat="55.841969" lon="8.167379">
|
|
<ele>7.749504</ele>
|
|
<time>2026-07-12T09:48:03.000Z</time>
|
|
</trkpt>
|
|
<trkpt lat="55.842014" lon="8.167375">
|
|
<ele>7.717277</ele>
|
|
<time>2026-07-12T09:48:04.000Z</time>
|
|
</trkpt>
|
|
<trkpt lat="55.842064" lon="8.167355">
|
|
<ele>7.680624</ele>
|
|
<time>2026-07-12T09:48:05.000Z</time>
|
|
</trkpt>
|
|
<trkpt lat="55.842106" lon="8.167319">
|
|
<ele>7.647285</ele>
|
|
<time>2026-07-12T09:48:06.000Z</time>
|
|
</trkpt>
|
|
<trkpt lat="55.842140" lon="8.167270">
|
|
<ele>7.616002</ele>
|
|
<time>2026-07-12T09:48:07.000Z</time>
|
|
</trkpt>
|
|
<trkpt lat="55.842182" lon="8.167210">
|
|
<ele>7.577491</ele>
|
|
<time>2026-07-12T09:48:08.000Z</time>
|
|
</trkpt>
|
|
<trkpt lat="55.842228" lon="8.167148">
|
|
<ele>7.536230</ele>
|
|
<time>2026-07-12T09:48:09.000Z</time>
|
|
</trkpt>
|
|
<trkpt lat="55.842270" lon="8.167108">
|
|
<ele>7.502164</ele>
|
|
<time>2026-07-12T09:48:10.000Z</time>
|
|
</trkpt>
|
|
<trkpt lat="55.842312" lon="8.167076">
|
|
<ele>7.469490</ele>
|
|
<time>2026-07-12T09:48:11.000Z</time>
|
|
</trkpt>
|
|
<trkpt lat="55.842369" lon="8.167038">
|
|
<ele>7.425958</ele>
|
|
<time>2026-07-12T09:48:12.000Z</time>
|
|
</trkpt>
|
|
<trkpt lat="55.842419" lon="8.167013">
|
|
<ele>7.388812</ele>
|
|
<time>2026-07-12T09:48:13.000Z</time>
|
|
</trkpt>
|
|
<trkpt lat="55.842468" lon="8.166996">
|
|
<ele>7.353106</ele>
|
|
<time>2026-07-12T09:48:14.000Z</time>
|
|
</trkpt>
|
|
<trkpt lat="55.842510" lon="8.166991">
|
|
<ele>7.322998</ele>
|
|
<time>2026-07-12T09:48:15.000Z</time>
|
|
</trkpt>
|
|
<trkpt lat="55.842556" lon="8.166999">
|
|
<ele>7.289940</ele>
|
|
<time>2026-07-12T09:48:16.000Z</time>
|
|
</trkpt>
|
|
<trkpt lat="55.842602" lon="8.167013">
|
|
<ele>7.256561</ele>
|
|
<time>2026-07-12T09:48:17.000Z</time>
|
|
</trkpt>
|
|
<trkpt lat="55.842644" lon="8.167029">
|
|
<ele>7.225841</ele>
|
|
<time>2026-07-12T09:48:18.000Z</time>
|
|
</trkpt>
|
|
<trkpt lat="55.842690" lon="8.167044">
|
|
<ele>7.192392</ele>
|
|
<time>2026-07-12T09:48:19.000Z</time>
|
|
</trkpt>
|
|
<trkpt lat="55.842743" lon="8.167052">
|
|
<ele>7.154348</ele>
|
|
<time>2026-07-12T09:48:20.000Z</time>
|
|
</trkpt>
|
|
<trkpt lat="55.842792" lon="8.167055">
|
|
<ele>7.119279</ele>
|
|
<time>2026-07-12T09:48:21.000Z</time>
|
|
</trkpt>
|
|
<trkpt lat="55.842842" lon="8.167056">
|
|
<ele>7.083514</ele>
|
|
<time>2026-07-12T09:48:22.000Z</time>
|
|
</trkpt>
|
|
<trkpt lat="55.842888" lon="8.167060">
|
|
<ele>7.050573</ele>
|
|
<time>2026-07-12T09:48:23.000Z</time>
|
|
</trkpt>
|
|
<trkpt lat="55.842934" lon="8.167063">
|
|
<ele>7.017649</ele>
|
|
<time>2026-07-12T09:48:24.000Z</time>
|
|
</trkpt>
|
|
<trkpt lat="55.842983" lon="8.167066">
|
|
<ele>6.982581</ele>
|
|
<time>2026-07-12T09:48:25.000Z</time>
|
|
</trkpt>
|
|
<trkpt lat="55.843029" lon="8.167066">
|
|
<ele>6.949679</ele>
|
|
<time>2026-07-12T09:48:26.000Z</time>
|
|
</trkpt>
|
|
<trkpt lat="55.843075" lon="8.167064">
|
|
<ele>6.916768</ele>
|
|
<time>2026-07-12T09:48:27.000Z</time>
|
|
</trkpt>
|
|
<trkpt lat="55.843121" lon="8.167060">
|
|
<ele>6.883827</ele>
|
|
<time>2026-07-12T09:48:28.000Z</time>
|
|
</trkpt>
|
|
<trkpt lat="55.843166" lon="8.167056">
|
|
<ele>6.851600</ele>
|
|
<time>2026-07-12T09:48:29.000Z</time>
|
|
</trkpt>
|
|
<trkpt lat="55.843212" lon="8.167054">
|
|
<ele>6.818688</ele>
|
|
<time>2026-07-12T09:48:30.000Z</time>
|
|
</trkpt>
|
|
<trkpt lat="55.843258" lon="8.167052">
|
|
<ele>6.785777</ele>
|
|
<time>2026-07-12T09:48:31.000Z</time>
|
|
</trkpt>
|
|
<trkpt lat="55.843311" lon="8.167052">
|
|
<ele>6.747868</ele>
|
|
<time>2026-07-12T09:48:32.000Z</time>
|
|
</trkpt>
|
|
<trkpt lat="55.843365" lon="8.167052">
|
|
<ele>6.709244</ele>
|
|
<time>2026-07-12T09:48:33.000Z</time>
|
|
</trkpt>
|
|
<trkpt lat="55.843414" lon="8.167051">
|
|
<ele>6.674194</ele>
|
|
<time>2026-07-12T09:48:34.000Z</time>
|
|
</trkpt>
|
|
<trkpt lat="55.843460" lon="8.167051">
|
|
<ele>6.655001</ele>
|
|
<time>2026-07-12T09:48:35.000Z</time>
|
|
</trkpt>
|
|
<trkpt lat="55.843510" lon="8.167048">
|
|
<ele>6.656790</ele>
|
|
<time>2026-07-12T09:48:36.000Z</time>
|
|
</trkpt>
|
|
<trkpt lat="55.843559" lon="8.167046">
|
|
<ele>6.658544</ele>
|
|
<time>2026-07-12T09:48:37.000Z</time>
|
|
</trkpt>
|
|
<trkpt lat="55.843609" lon="8.167041">
|
|
<ele>6.660336</ele>
|
|
<time>2026-07-12T09:48:38.000Z</time>
|
|
</trkpt>
|
|
<trkpt lat="55.843655" lon="8.167033">
|
|
<ele>6.661989</ele>
|
|
<time>2026-07-12T09:48:39.000Z</time>
|
|
</trkpt>
|
|
<trkpt lat="55.843697" lon="8.167025">
|
|
<ele>6.663500</ele>
|
|
<time>2026-07-12T09:48:40.000Z</time>
|
|
</trkpt>
|
|
<trkpt lat="55.843735" lon="8.167016">
|
|
<ele>6.664872</ele>
|
|
<time>2026-07-12T09:48:41.000Z</time>
|
|
</trkpt>
|
|
<trkpt lat="55.843796" lon="8.166997">
|
|
<ele>6.667087</ele>
|
|
<time>2026-07-12T09:48:42.000Z</time>
|
|
</trkpt>
|
|
<trkpt lat="55.843842" lon="8.166982">
|
|
<ele>6.668761</ele>
|
|
<time>2026-07-12T09:48:43.000Z</time>
|
|
</trkpt>
|
|
<trkpt lat="55.843891" lon="8.166966">
|
|
<ele>6.670543</ele>
|
|
<time>2026-07-12T09:48:44.000Z</time>
|
|
</trkpt>
|
|
<trkpt lat="55.843937" lon="8.166954">
|
|
<ele>6.672206</ele>
|
|
<time>2026-07-12T09:48:45.000Z</time>
|
|
</trkpt>
|
|
<trkpt lat="55.843986" lon="8.166942">
|
|
<ele>6.673976</ele>
|
|
<time>2026-07-12T09:48:46.000Z</time>
|
|
</trkpt>
|
|
<trkpt lat="55.844040" lon="8.166931">
|
|
<ele>6.675920</ele>
|
|
<time>2026-07-12T09:48:47.000Z</time>
|
|
</trkpt>
|
|
<trkpt lat="55.844089" lon="8.166920">
|
|
<ele>6.677687</ele>
|
|
<time>2026-07-12T09:48:48.000Z</time>
|
|
</trkpt>
|
|
<trkpt lat="55.844143" lon="8.166907">
|
|
<ele>6.679637</ele>
|
|
<time>2026-07-12T09:48:49.000Z</time>
|
|
</trkpt>
|
|
<trkpt lat="55.844193" lon="8.166896">
|
|
<ele>6.681439</ele>
|
|
<time>2026-07-12T09:48:50.000Z</time>
|
|
</trkpt>
|
|
<trkpt lat="55.844238" lon="8.166884">
|
|
<ele>6.683067</ele>
|
|
<time>2026-07-12T09:48:51.000Z</time>
|
|
</trkpt>
|
|
<trkpt lat="55.844284" lon="8.166873">
|
|
<ele>6.684728</ele>
|
|
<time>2026-07-12T09:48:52.000Z</time>
|
|
</trkpt>
|
|
<trkpt lat="55.844330" lon="8.166860">
|
|
<ele>6.686394</ele>
|
|
<time>2026-07-12T09:48:53.000Z</time>
|
|
</trkpt>
|
|
<trkpt lat="55.844379" lon="8.166846">
|
|
<ele>6.688169</ele>
|
|
<time>2026-07-12T09:48:54.000Z</time>
|
|
</trkpt>
|
|
<trkpt lat="55.844425" lon="8.166834">
|
|
<ele>6.689833</ele>
|
|
<time>2026-07-12T09:48:55.000Z</time>
|
|
</trkpt>
|
|
<trkpt lat="55.844467" lon="8.166827">
|
|
<ele>6.691342</ele>
|
|
<time>2026-07-12T09:48:56.000Z</time>
|
|
</trkpt>
|
|
<trkpt lat="55.844513" lon="8.166826">
|
|
<ele>6.692988</ele>
|
|
<time>2026-07-12T09:48:57.000Z</time>
|
|
</trkpt>
|
|
<trkpt lat="55.844551" lon="8.166825">
|
|
<ele>6.694347</ele>
|
|
<time>2026-07-12T09:48:58.000Z</time>
|
|
</trkpt>
|
|
<trkpt lat="55.844585" lon="8.166821">
|
|
<ele>6.695566</ele>
|
|
<time>2026-07-12T09:48:59.000Z</time>
|
|
</trkpt>
|
|
<trkpt lat="55.844620" lon="8.166822">
|
|
<ele>6.696819</ele>
|
|
<time>2026-07-12T09:49:00.000Z</time>
|
|
</trkpt>
|
|
<trkpt lat="55.844643" lon="8.166835">
|
|
<ele>6.697682</ele>
|
|
<time>2026-07-12T09:49:01.000Z</time>
|
|
</trkpt>
|
|
<trkpt lat="55.844662" lon="8.166862">
|
|
<ele>6.698552</ele>
|
|
<time>2026-07-12T09:49:02.000Z</time>
|
|
</trkpt>
|
|
<trkpt lat="55.844681" lon="8.166899">
|
|
<ele>6.699559</ele>
|
|
<time>2026-07-12T09:49:03.000Z</time>
|
|
</trkpt>
|
|
<trkpt lat="55.844692" lon="8.166944">
|
|
<ele>6.700545</ele>
|
|
<time>2026-07-12T09:49:04.000Z</time>
|
|
</trkpt>
|
|
<trkpt lat="55.844704" lon="8.167001">
|
|
<ele>6.701767</ele>
|
|
<time>2026-07-12T09:49:05.000Z</time>
|
|
</trkpt>
|
|
<trkpt lat="55.844715" lon="8.167060">
|
|
<ele>6.703016</ele>
|
|
<time>2026-07-12T09:49:06.000Z</time>
|
|
</trkpt>
|
|
<trkpt lat="55.844727" lon="8.167117">
|
|
<ele>6.704239</ele>
|
|
<time>2026-07-12T09:49:07.000Z</time>
|
|
</trkpt>
|
|
<trkpt lat="55.844742" lon="8.167178">
|
|
<ele>6.705577</ele>
|
|
<time>2026-07-12T09:49:08.000Z</time>
|
|
</trkpt>
|
|
<trkpt lat="55.844753" lon="8.167251">
|
|
<ele>6.707095</ele>
|
|
<time>2026-07-12T09:49:09.000Z</time>
|
|
</trkpt>
|
|
<trkpt lat="55.844769" lon="8.167317">
|
|
<ele>6.708539</ele>
|
|
<time>2026-07-12T09:49:10.000Z</time>
|
|
</trkpt>
|
|
<trkpt lat="55.844788" lon="8.167382">
|
|
<ele>6.710011</ele>
|
|
<time>2026-07-12T09:49:11.000Z</time>
|
|
</trkpt>
|
|
<trkpt lat="55.844803" lon="8.167447">
|
|
<ele>6.711422</ele>
|
|
<time>2026-07-12T09:49:12.000Z</time>
|
|
</trkpt>
|
|
<trkpt lat="55.844822" lon="8.167516">
|
|
<ele>6.712966</ele>
|
|
<time>2026-07-12T09:49:13.000Z</time>
|
|
</trkpt>
|
|
<trkpt lat="55.844837" lon="8.167595">
|
|
<ele>6.714641</ele>
|
|
<time>2026-07-12T09:49:14.000Z</time>
|
|
</trkpt>
|
|
<trkpt lat="55.844849" lon="8.167675">
|
|
<ele>6.716305</ele>
|
|
<time>2026-07-12T09:49:15.000Z</time>
|
|
</trkpt>
|
|
<trkpt lat="55.844856" lon="8.167751">
|
|
<ele>6.717852</ele>
|
|
<time>2026-07-12T09:49:16.000Z</time>
|
|
</trkpt>
|
|
<trkpt lat="55.844864" lon="8.167824">
|
|
<ele>6.723993</ele>
|
|
<time>2026-07-12T09:49:17.000Z</time>
|
|
</trkpt>
|
|
<trkpt lat="55.844879" lon="8.167902">
|
|
<ele>6.737527</ele>
|
|
<time>2026-07-12T09:49:18.000Z</time>
|
|
</trkpt>
|
|
<trkpt lat="55.844894" lon="8.167981">
|
|
<ele>6.751216</ele>
|
|
<time>2026-07-12T09:49:19.000Z</time>
|
|
</trkpt>
|
|
<trkpt lat="55.844906" lon="8.168053">
|
|
<ele>6.763544</ele>
|
|
<time>2026-07-12T09:49:20.000Z</time>
|
|
</trkpt>
|
|
<trkpt lat="55.844917" lon="8.168122">
|
|
<ele>6.775318</ele>
|
|
<time>2026-07-12T09:49:21.000Z</time>
|
|
</trkpt>
|
|
<trkpt lat="55.844929" lon="8.168189">
|
|
<ele>6.786862</ele>
|
|
<time>2026-07-12T09:49:22.000Z</time>
|
|
</trkpt>
|
|
<trkpt lat="55.844940" lon="8.168254">
|
|
<ele>6.798006</ele>
|
|
<time>2026-07-12T09:49:23.000Z</time>
|
|
</trkpt>
|
|
<trkpt lat="55.844952" lon="8.168315">
|
|
<ele>6.808616</ele>
|
|
<time>2026-07-12T09:49:24.000Z</time>
|
|
</trkpt>
|
|
<trkpt lat="55.844963" lon="8.168370">
|
|
<ele>6.818200</ele>
|
|
<time>2026-07-12T09:49:25.000Z</time>
|
|
</trkpt>
|
|
<trkpt lat="55.844967" lon="8.168421">
|
|
<ele>6.826653</ele>
|
|
<time>2026-07-12T09:49:26.000Z</time>
|
|
</trkpt>
|
|
<trkpt lat="55.844975" lon="8.168487">
|
|
<ele>6.837736</ele>
|
|
<time>2026-07-12T09:49:27.000Z</time>
|
|
</trkpt>
|
|
<trkpt lat="55.844982" lon="8.168538">
|
|
<ele>6.846354</ele>
|
|
<time>2026-07-12T09:49:28.000Z</time>
|
|
</trkpt>
|
|
<trkpt lat="55.844994" lon="8.168601">
|
|
<ele>6.857274</ele>
|
|
<time>2026-07-12T09:49:29.000Z</time>
|
|
</trkpt>
|
|
<trkpt lat="55.845005" lon="8.168654">
|
|
<ele>6.866550</ele>
|
|
<time>2026-07-12T09:49:30.000Z</time>
|
|
</trkpt>
|
|
<trkpt lat="55.845013" lon="8.168713">
|
|
<ele>6.876513</ele>
|
|
<time>2026-07-12T09:49:31.000Z</time>
|
|
</trkpt>
|
|
<trkpt lat="55.845020" lon="8.168769">
|
|
<ele>6.885930</ele>
|
|
<time>2026-07-12T09:49:32.000Z</time>
|
|
</trkpt>
|
|
<trkpt lat="55.845028" lon="8.168828">
|
|
<ele>6.895893</ele>
|
|
<time>2026-07-12T09:49:33.000Z</time>
|
|
</trkpt>
|
|
<trkpt lat="55.845036" lon="8.168886">
|
|
<ele>6.905697</ele>
|
|
<time>2026-07-12T09:49:34.000Z</time>
|
|
</trkpt>
|
|
<trkpt lat="55.845039" lon="8.168949">
|
|
<ele>6.916075</ele>
|
|
<time>2026-07-12T09:49:35.000Z</time>
|
|
</trkpt>
|
|
<trkpt lat="55.845043" lon="8.169013">
|
|
<ele>6.926646</ele>
|
|
<time>2026-07-12T09:49:36.000Z</time>
|
|
</trkpt>
|
|
<trkpt lat="55.845047" lon="8.169079">
|
|
<ele>6.937542</ele>
|
|
<time>2026-07-12T09:49:37.000Z</time>
|
|
</trkpt>
|
|
<trkpt lat="55.845051" lon="8.169148">
|
|
<ele>6.948929</ele>
|
|
<time>2026-07-12T09:49:38.000Z</time>
|
|
</trkpt>
|
|
<trkpt lat="55.845058" lon="8.169220">
|
|
<ele>6.960923</ele>
|
|
<time>2026-07-12T09:49:39.000Z</time>
|
|
</trkpt>
|
|
<trkpt lat="55.845074" lon="8.169288">
|
|
<ele>6.973026</ele>
|
|
<time>2026-07-12T09:49:40.000Z</time>
|
|
</trkpt>
|
|
<trkpt lat="55.845093" lon="8.169353">
|
|
<ele>6.985055</ele>
|
|
<time>2026-07-12T09:49:41.000Z</time>
|
|
</trkpt>
|
|
<trkpt lat="55.845116" lon="8.169421">
|
|
<ele>6.998086</ele>
|
|
<time>2026-07-12T09:49:42.000Z</time>
|
|
</trkpt>
|
|
<trkpt lat="55.845139" lon="8.169487">
|
|
<ele>7.010837</ele>
|
|
<time>2026-07-12T09:49:43.000Z</time>
|
|
</trkpt>
|
|
<trkpt lat="55.845165" lon="8.169546">
|
|
<ele>7.023149</ele>
|
|
<time>2026-07-12T09:49:44.000Z</time>
|
|
</trkpt>
|
|
<trkpt lat="55.845196" lon="8.169599">
|
|
<ele>7.035712</ele>
|
|
<time>2026-07-12T09:49:45.000Z</time>
|
|
</trkpt>
|
|
<trkpt lat="55.845230" lon="8.169645">
|
|
<ele>7.048195</ele>
|
|
<time>2026-07-12T09:49:46.000Z</time>
|
|
</trkpt>
|
|
<trkpt lat="55.845261" lon="8.169687">
|
|
<ele>7.059583</ele>
|
|
<time>2026-07-12T09:49:47.000Z</time>
|
|
</trkpt>
|
|
<trkpt lat="55.845291" lon="8.169726">
|
|
<ele>7.070441</ele>
|
|
<time>2026-07-12T09:49:48.000Z</time>
|
|
</trkpt>
|
|
<trkpt lat="55.845329" lon="8.169771">
|
|
<ele>7.083783</ele>
|
|
<time>2026-07-12T09:49:49.000Z</time>
|
|
</trkpt>
|
|
<trkpt lat="55.845364" lon="8.169807">
|
|
<ele>7.095600</ele>
|
|
<time>2026-07-12T09:49:50.000Z</time>
|
|
</trkpt>
|
|
<trkpt lat="55.845398" lon="8.169841">
|
|
<ele>7.107000</ele>
|
|
<time>2026-07-12T09:49:51.000Z</time>
|
|
</trkpt>
|
|
<trkpt lat="55.845429" lon="8.169871">
|
|
<ele>7.117315</ele>
|
|
<time>2026-07-12T09:49:52.000Z</time>
|
|
</trkpt>
|
|
<trkpt lat="55.845467" lon="8.169901">
|
|
<ele>7.129467</ele>
|
|
<time>2026-07-12T09:49:53.000Z</time>
|
|
</trkpt>
|
|
<trkpt lat="55.845501" lon="8.169923">
|
|
<ele>7.140044</ele>
|
|
<time>2026-07-12T09:49:54.000Z</time>
|
|
</trkpt>
|
|
<trkpt lat="55.845535" lon="8.169944">
|
|
<ele>7.150565</ele>
|
|
<time>2026-07-12T09:49:55.000Z</time>
|
|
</trkpt>
|
|
<trkpt lat="55.845570" lon="8.169967">
|
|
<ele>7.161472</ele>
|
|
<time>2026-07-12T09:49:56.000Z</time>
|
|
</trkpt>
|
|
<trkpt lat="55.845604" lon="8.169991">
|
|
<ele>7.172165</ele>
|
|
<time>2026-07-12T09:49:57.000Z</time>
|
|
</trkpt>
|
|
<trkpt lat="55.845642" lon="8.170015">
|
|
<ele>7.183953</ele>
|
|
<time>2026-07-12T09:49:58.000Z</time>
|
|
</trkpt>
|
|
<trkpt lat="55.845688" lon="8.170045">
|
|
<ele>7.198275</ele>
|
|
<time>2026-07-12T09:49:59.000Z</time>
|
|
</trkpt>
|
|
<trkpt lat="55.845737" lon="8.170074">
|
|
<ele>7.213371</ele>
|
|
<time>2026-07-12T09:50:00.000Z</time>
|
|
</trkpt>
|
|
<trkpt lat="55.845787" lon="8.170102">
|
|
<ele>7.228696</ele>
|
|
<time>2026-07-12T09:50:01.000Z</time>
|
|
</trkpt>
|
|
<trkpt lat="55.845840" lon="8.170123">
|
|
<ele>7.244570</ele>
|
|
<time>2026-07-12T09:50:02.000Z</time>
|
|
</trkpt>
|
|
<trkpt lat="55.845882" lon="8.170137">
|
|
<ele>7.218361</ele>
|
|
<time>2026-07-12T09:50:03.000Z</time>
|
|
</trkpt>
|
|
<trkpt lat="55.845921" lon="8.170145">
|
|
<ele>7.194281</ele>
|
|
<time>2026-07-12T09:50:04.000Z</time>
|
|
</trkpt>
|
|
<trkpt lat="55.845955" lon="8.170145">
|
|
<ele>7.173425</ele>
|
|
<time>2026-07-12T09:50:05.000Z</time>
|
|
</trkpt>
|
|
<trkpt lat="55.845985" lon="8.170139">
|
|
<ele>7.154908</ele>
|
|
<time>2026-07-12T09:50:06.000Z</time>
|
|
</trkpt>
|
|
<trkpt lat="55.846012" lon="8.170131">
|
|
<ele>7.138119</ele>
|
|
<time>2026-07-12T09:50:07.000Z</time>
|
|
</trkpt>
|
|
<trkpt lat="55.846046" lon="8.170121">
|
|
<ele>7.116981</ele>
|
|
<time>2026-07-12T09:50:08.000Z</time>
|
|
</trkpt>
|
|
<trkpt lat="55.846073" lon="8.170115">
|
|
<ele>7.100291</ele>
|
|
<time>2026-07-12T09:50:09.000Z</time>
|
|
</trkpt>
|
|
<trkpt lat="55.846100" lon="8.170106">
|
|
<ele>7.083442</ele>
|
|
<time>2026-07-12T09:50:10.000Z</time>
|
|
</trkpt>
|
|
<trkpt lat="55.846123" lon="8.170094">
|
|
<ele>7.068741</ele>
|
|
<time>2026-07-12T09:50:11.000Z</time>
|
|
</trkpt>
|
|
<trkpt lat="55.846153" lon="8.170081">
|
|
<ele>7.049802</ele>
|
|
<time>2026-07-12T09:50:12.000Z</time>
|
|
</trkpt>
|
|
<trkpt lat="55.846180" lon="8.170072">
|
|
<ele>7.032953</ele>
|
|
<time>2026-07-12T09:50:13.000Z</time>
|
|
</trkpt>
|
|
<trkpt lat="55.846210" lon="8.170062">
|
|
<ele>7.014232</ele>
|
|
<time>2026-07-12T09:50:14.000Z</time>
|
|
</trkpt>
|
|
<trkpt lat="55.846237" lon="8.170052">
|
|
<ele>6.997316</ele>
|
|
<time>2026-07-12T09:50:15.000Z</time>
|
|
</trkpt>
|
|
<trkpt lat="55.846264" lon="8.170042">
|
|
<ele>6.980400</ele>
|
|
<time>2026-07-12T09:50:16.000Z</time>
|
|
</trkpt>
|
|
<trkpt lat="55.846298" lon="8.170032">
|
|
<ele>6.959262</ele>
|
|
<time>2026-07-12T09:50:17.000Z</time>
|
|
</trkpt>
|
|
<trkpt lat="55.846329" lon="8.170026">
|
|
<ele>6.940135</ele>
|
|
<time>2026-07-12T09:50:18.000Z</time>
|
|
</trkpt>
|
|
<trkpt lat="55.846363" lon="8.170018">
|
|
<ele>6.919098</ele>
|
|
<time>2026-07-12T09:50:19.000Z</time>
|
|
</trkpt>
|
|
<trkpt lat="55.846401" lon="8.170009">
|
|
<ele>6.895584</ele>
|
|
<time>2026-07-12T09:50:20.000Z</time>
|
|
</trkpt>
|
|
<trkpt lat="55.846443" lon="8.169996">
|
|
<ele>6.869435</ele>
|
|
<time>2026-07-12T09:50:21.000Z</time>
|
|
</trkpt>
|
|
<trkpt lat="55.846485" lon="8.169985">
|
|
<ele>6.843396</ele>
|
|
<time>2026-07-12T09:50:22.000Z</time>
|
|
</trkpt>
|
|
<trkpt lat="55.846531" lon="8.169975">
|
|
<ele>6.814970</ele>
|
|
<time>2026-07-12T09:50:23.000Z</time>
|
|
</trkpt>
|
|
<trkpt lat="55.846573" lon="8.169964">
|
|
<ele>6.788931</ele>
|
|
<time>2026-07-12T09:50:24.000Z</time>
|
|
</trkpt>
|
|
<trkpt lat="55.846615" lon="8.169951">
|
|
<ele>6.762782</ele>
|
|
<time>2026-07-12T09:50:25.000Z</time>
|
|
</trkpt>
|
|
<trkpt lat="55.846657" lon="8.169939">
|
|
<ele>6.736690</ele>
|
|
<time>2026-07-12T09:50:26.000Z</time>
|
|
</trkpt>
|
|
<trkpt lat="55.846699" lon="8.169925">
|
|
<ele>6.710480</ele>
|
|
<time>2026-07-12T09:50:27.000Z</time>
|
|
</trkpt>
|
|
<trkpt lat="55.846737" lon="8.169912">
|
|
<ele>6.686745</ele>
|
|
<time>2026-07-12T09:50:28.000Z</time>
|
|
</trkpt>
|
|
<trkpt lat="55.846779" lon="8.169901">
|
|
<ele>6.660706</ele>
|
|
<time>2026-07-12T09:50:29.000Z</time>
|
|
</trkpt>
|
|
<trkpt lat="55.846821" lon="8.169892">
|
|
<ele>6.634757</ele>
|
|
<time>2026-07-12T09:50:30.000Z</time>
|
|
</trkpt>
|
|
<trkpt lat="55.846863" lon="8.169883">
|
|
<ele>6.608809</ele>
|
|
<time>2026-07-12T09:50:31.000Z</time>
|
|
</trkpt>
|
|
<trkpt lat="55.846909" lon="8.169872">
|
|
<ele>6.580340</ele>
|
|
<time>2026-07-12T09:50:32.000Z</time>
|
|
</trkpt>
|
|
<trkpt lat="55.846951" lon="8.169859">
|
|
<ele>6.554191</ele>
|
|
<time>2026-07-12T09:50:33.000Z</time>
|
|
</trkpt>
|
|
<trkpt lat="55.846992" lon="8.169847">
|
|
<ele>6.528705</ele>
|
|
<time>2026-07-12T09:50:34.000Z</time>
|
|
</trkpt>
|
|
<trkpt lat="55.847031" lon="8.169835">
|
|
<ele>6.504428</ele>
|
|
<time>2026-07-12T09:50:35.000Z</time>
|
|
</trkpt>
|
|
<trkpt lat="55.847073" lon="8.169826">
|
|
<ele>6.478480</ele>
|
|
<time>2026-07-12T09:50:36.000Z</time>
|
|
</trkpt>
|
|
<trkpt lat="55.847115" lon="8.169819">
|
|
<ele>6.452605</ele>
|
|
<time>2026-07-12T09:50:37.000Z</time>
|
|
</trkpt>
|
|
<trkpt lat="55.847160" lon="8.169812">
|
|
<ele>6.424897</ele>
|
|
<time>2026-07-12T09:50:38.000Z</time>
|
|
</trkpt>
|
|
<trkpt lat="55.847202" lon="8.169806">
|
|
<ele>6.399051</ele>
|
|
<time>2026-07-12T09:50:39.000Z</time>
|
|
</trkpt>
|
|
<trkpt lat="55.847244" lon="8.169798">
|
|
<ele>6.373142</ele>
|
|
<time>2026-07-12T09:50:40.000Z</time>
|
|
</trkpt>
|
|
<trkpt lat="55.847286" lon="8.169787">
|
|
<ele>6.347102</ele>
|
|
<time>2026-07-12T09:50:41.000Z</time>
|
|
</trkpt>
|
|
<trkpt lat="55.847328" lon="8.169776">
|
|
<ele>6.321063</ele>
|
|
<time>2026-07-12T09:50:42.000Z</time>
|
|
</trkpt>
|
|
<trkpt lat="55.847370" lon="8.169764">
|
|
<ele>6.294971</ele>
|
|
<time>2026-07-12T09:50:43.000Z</time>
|
|
</trkpt>
|
|
<trkpt lat="55.847408" lon="8.169753">
|
|
<ele>6.271356</ele>
|
|
<time>2026-07-12T09:50:44.000Z</time>
|
|
</trkpt>
|
|
<trkpt lat="55.847446" lon="8.169743">
|
|
<ele>6.247794</ele>
|
|
<time>2026-07-12T09:50:45.000Z</time>
|
|
</trkpt>
|
|
<trkpt lat="55.847481" lon="8.169734">
|
|
<ele>6.226103</ele>
|
|
<time>2026-07-12T09:50:46.000Z</time>
|
|
</trkpt>
|
|
<trkpt lat="55.847511" lon="8.169729">
|
|
<ele>6.207621</ele>
|
|
<time>2026-07-12T09:50:47.000Z</time>
|
|
</trkpt>
|
|
<trkpt lat="55.847542" lon="8.169723">
|
|
<ele>6.188493</ele>
|
|
<time>2026-07-12T09:50:48.000Z</time>
|
|
</trkpt>
|
|
<trkpt lat="55.847568" lon="8.169714">
|
|
<ele>6.172247</ele>
|
|
<time>2026-07-12T09:50:49.000Z</time>
|
|
</trkpt>
|
|
<trkpt lat="55.847599" lon="8.169704">
|
|
<ele>6.152922</ele>
|
|
<time>2026-07-12T09:50:50.000Z</time>
|
|
</trkpt>
|
|
<trkpt lat="55.847633" lon="8.169694">
|
|
<ele>6.142198</ele>
|
|
<time>2026-07-12T09:50:51.000Z</time>
|
|
</trkpt>
|
|
<trkpt lat="55.847671" lon="8.169683">
|
|
<ele>6.144449</ele>
|
|
<time>2026-07-12T09:50:52.000Z</time>
|
|
</trkpt>
|
|
<trkpt lat="55.847713" lon="8.169671">
|
|
<ele>6.146936</ele>
|
|
<time>2026-07-12T09:50:53.000Z</time>
|
|
</trkpt>
|
|
<trkpt lat="55.847752" lon="8.169660">
|
|
<ele>6.149245</ele>
|
|
<time>2026-07-12T09:50:54.000Z</time>
|
|
</trkpt>
|
|
<trkpt lat="55.847794" lon="8.169649">
|
|
<ele>6.151727</ele>
|
|
<time>2026-07-12T09:50:55.000Z</time>
|
|
</trkpt>
|
|
<trkpt lat="55.847836" lon="8.169638">
|
|
<ele>6.154209</ele>
|
|
<time>2026-07-12T09:50:56.000Z</time>
|
|
</trkpt>
|
|
<trkpt lat="55.847878" lon="8.169627">
|
|
<ele>6.156691</ele>
|
|
<time>2026-07-12T09:50:57.000Z</time>
|
|
</trkpt>
|
|
<trkpt lat="55.847916" lon="8.169617">
|
|
<ele>6.158937</ele>
|
|
<time>2026-07-12T09:50:58.000Z</time>
|
|
</trkpt>
|
|
<trkpt lat="55.847958" lon="8.169608">
|
|
<ele>6.161411</ele>
|
|
<time>2026-07-12T09:50:59.000Z</time>
|
|
</trkpt>
|
|
<trkpt lat="55.847996" lon="8.169598">
|
|
<ele>6.163657</ele>
|
|
<time>2026-07-12T09:51:00.000Z</time>
|
|
</trkpt>
|
|
<trkpt lat="55.848030" lon="8.169587">
|
|
<ele>6.165677</ele>
|
|
<time>2026-07-12T09:51:01.000Z</time>
|
|
</trkpt>
|
|
<trkpt lat="55.848068" lon="8.169578">
|
|
<ele>6.167919</ele>
|
|
<time>2026-07-12T09:51:02.000Z</time>
|
|
</trkpt>
|
|
<trkpt lat="55.848106" lon="8.169571">
|
|
<ele>6.170152</ele>
|
|
<time>2026-07-12T09:51:03.000Z</time>
|
|
</trkpt>
|
|
<trkpt lat="55.848145" lon="8.169561">
|
|
<ele>6.172456</ele>
|
|
<time>2026-07-12T09:51:04.000Z</time>
|
|
</trkpt>
|
|
<trkpt lat="55.848183" lon="8.169551">
|
|
<ele>6.174702</ele>
|
|
<time>2026-07-12T09:51:05.000Z</time>
|
|
</trkpt>
|
|
<trkpt lat="55.848217" lon="8.169540">
|
|
<ele>6.176723</ele>
|
|
<time>2026-07-12T09:51:06.000Z</time>
|
|
</trkpt>
|
|
<trkpt lat="55.848251" lon="8.169530">
|
|
<ele>6.178738</ele>
|
|
<time>2026-07-12T09:51:07.000Z</time>
|
|
</trkpt>
|
|
<trkpt lat="55.848282" lon="8.169523">
|
|
<ele>6.180565</ele>
|
|
<time>2026-07-12T09:51:08.000Z</time>
|
|
</trkpt>
|
|
<trkpt lat="55.848316" lon="8.169520">
|
|
<ele>6.182555</ele>
|
|
<time>2026-07-12T09:51:09.000Z</time>
|
|
</trkpt>
|
|
<trkpt lat="55.848351" lon="8.169515">
|
|
<ele>6.184608</ele>
|
|
<time>2026-07-12T09:51:10.000Z</time>
|
|
</trkpt>
|
|
<trkpt lat="55.848389" lon="8.169506">
|
|
<ele>6.186850</ele>
|
|
<time>2026-07-12T09:51:11.000Z</time>
|
|
</trkpt>
|
|
<trkpt lat="55.848427" lon="8.169498">
|
|
<ele>6.189087</ele>
|
|
<time>2026-07-12T09:51:12.000Z</time>
|
|
</trkpt>
|
|
<trkpt lat="55.848469" lon="8.169490">
|
|
<ele>6.191557</ele>
|
|
<time>2026-07-12T09:51:13.000Z</time>
|
|
</trkpt>
|
|
<trkpt lat="55.848507" lon="8.169479">
|
|
<ele>6.193808</ele>
|
|
<time>2026-07-12T09:51:14.000Z</time>
|
|
</trkpt>
|
|
<trkpt lat="55.848545" lon="8.169466">
|
|
<ele>6.196070</ele>
|
|
<time>2026-07-12T09:51:15.000Z</time>
|
|
</trkpt>
|
|
<trkpt lat="55.848583" lon="8.169450">
|
|
<ele>6.198353</ele>
|
|
<time>2026-07-12T09:51:16.000Z</time>
|
|
</trkpt>
|
|
<trkpt lat="55.848621" lon="8.169436">
|
|
<ele>6.200622</ele>
|
|
<time>2026-07-12T09:51:17.000Z</time>
|
|
</trkpt>
|
|
<trkpt lat="55.848656" lon="8.169424">
|
|
<ele>6.202706</ele>
|
|
<time>2026-07-12T09:51:18.000Z</time>
|
|
</trkpt>
|
|
<trkpt lat="55.848694" lon="8.169415">
|
|
<ele>6.204948</ele>
|
|
<time>2026-07-12T09:51:19.000Z</time>
|
|
</trkpt>
|
|
<trkpt lat="55.848728" lon="8.169405">
|
|
<ele>6.206962</ele>
|
|
<time>2026-07-12T09:51:20.000Z</time>
|
|
</trkpt>
|
|
<trkpt lat="55.848762" lon="8.169393">
|
|
<ele>6.208989</ele>
|
|
<time>2026-07-12T09:51:21.000Z</time>
|
|
</trkpt>
|
|
<trkpt lat="55.848793" lon="8.169371">
|
|
<ele>6.210940</ele>
|
|
<time>2026-07-12T09:51:22.000Z</time>
|
|
</trkpt>
|
|
<trkpt lat="55.848820" lon="8.169334">
|
|
<ele>6.212932</ele>
|
|
<time>2026-07-12T09:51:23.000Z</time>
|
|
</trkpt>
|
|
<trkpt lat="55.848835" lon="8.169286">
|
|
<ele>6.214735</ele>
|
|
<time>2026-07-12T09:51:24.000Z</time>
|
|
</trkpt>
|
|
<trkpt lat="55.848846" lon="8.169233">
|
|
<ele>6.216590</ele>
|
|
<time>2026-07-12T09:51:25.000Z</time>
|
|
</trkpt>
|
|
<trkpt lat="55.848854" lon="8.169180">
|
|
<ele>6.218391</ele>
|
|
<time>2026-07-12T09:51:26.000Z</time>
|
|
</trkpt>
|
|
<trkpt lat="55.848858" lon="8.169122">
|
|
<ele>6.220310</ele>
|
|
<time>2026-07-12T09:51:27.000Z</time>
|
|
</trkpt>
|
|
<trkpt lat="55.848858" lon="8.169062">
|
|
<ele>6.222279</ele>
|
|
<time>2026-07-12T09:51:28.000Z</time>
|
|
</trkpt>
|
|
<trkpt lat="55.848854" lon="8.169002">
|
|
<ele>6.224262</ele>
|
|
<time>2026-07-12T09:51:29.000Z</time>
|
|
</trkpt>
|
|
<trkpt lat="55.848850" lon="8.168941">
|
|
<ele>6.226278</ele>
|
|
<time>2026-07-12T09:51:30.000Z</time>
|
|
</trkpt>
|
|
<trkpt lat="55.848846" lon="8.168880">
|
|
<ele>6.228294</ele>
|
|
<time>2026-07-12T09:51:31.000Z</time>
|
|
</trkpt>
|
|
<trkpt lat="55.848843" lon="8.168813">
|
|
<ele>6.230500</ele>
|
|
<time>2026-07-12T09:51:32.000Z</time>
|
|
</trkpt>
|
|
<trkpt lat="55.848839" lon="8.168742">
|
|
<ele>6.232842</ele>
|
|
<time>2026-07-12T09:51:33.000Z</time>
|
|
</trkpt>
|
|
<trkpt lat="55.848835" lon="8.168674">
|
|
<ele>6.235087</ele>
|
|
<time>2026-07-12T09:51:34.000Z</time>
|
|
</trkpt>
|
|
<trkpt lat="55.848827" lon="8.168605">
|
|
<ele>6.237399</ele>
|
|
<time>2026-07-12T09:51:35.000Z</time>
|
|
</trkpt>
|
|
<trkpt lat="55.848820" lon="8.168536">
|
|
<ele>6.239701</ele>
|
|
<time>2026-07-12T09:51:36.000Z</time>
|
|
</trkpt>
|
|
<trkpt lat="55.848816" lon="8.168467">
|
|
<ele>6.241978</ele>
|
|
<time>2026-07-12T09:51:37.000Z</time>
|
|
</trkpt>
|
|
<trkpt lat="55.848808" lon="8.168398">
|
|
<ele>6.244290</ele>
|
|
<time>2026-07-12T09:51:38.000Z</time>
|
|
</trkpt>
|
|
<trkpt lat="55.848801" lon="8.168327">
|
|
<ele>6.246573</ele>
|
|
<time>2026-07-12T09:51:39.000Z</time>
|
|
</trkpt>
|
|
<trkpt lat="55.848797" lon="8.168258">
|
|
<ele>6.247895</ele>
|
|
<time>2026-07-12T09:51:40.000Z</time>
|
|
</trkpt>
|
|
<trkpt lat="55.848797" lon="8.168189">
|
|
<ele>6.249209</ele>
|
|
<time>2026-07-12T09:51:41.000Z</time>
|
|
</trkpt>
|
|
<trkpt lat="55.848793" lon="8.168121">
|
|
<ele>6.250512</ele>
|
|
<time>2026-07-12T09:51:42.000Z</time>
|
|
</trkpt>
|
|
<trkpt lat="55.848789" lon="8.168053">
|
|
<ele>6.251815</ele>
|
|
<time>2026-07-12T09:51:43.000Z</time>
|
|
</trkpt>
|
|
<trkpt lat="55.848785" lon="8.167982">
|
|
<ele>6.253174</ele>
|
|
<time>2026-07-12T09:51:44.000Z</time>
|
|
</trkpt>
|
|
<trkpt lat="55.848782" lon="8.167913">
|
|
<ele>6.254492</ele>
|
|
<time>2026-07-12T09:51:45.000Z</time>
|
|
</trkpt>
|
|
<trkpt lat="55.848782" lon="8.167847">
|
|
<ele>6.255750</ele>
|
|
<time>2026-07-12T09:51:46.000Z</time>
|
|
</trkpt>
|
|
<trkpt lat="55.848774" lon="8.167780">
|
|
<ele>6.257055</ele>
|
|
<time>2026-07-12T09:51:47.000Z</time>
|
|
</trkpt>
|
|
<trkpt lat="55.848770" lon="8.167710">
|
|
<ele>6.258395</ele>
|
|
<time>2026-07-12T09:51:48.000Z</time>
|
|
</trkpt>
|
|
<trkpt lat="55.848766" lon="8.167641">
|
|
<ele>6.259717</ele>
|
|
<time>2026-07-12T09:51:49.000Z</time>
|
|
</trkpt>
|
|
<trkpt lat="55.848762" lon="8.167574">
|
|
<ele>6.261000</ele>
|
|
<time>2026-07-12T09:51:50.000Z</time>
|
|
</trkpt>
|
|
<trkpt lat="55.848759" lon="8.167508">
|
|
<ele>6.262262</ele>
|
|
<time>2026-07-12T09:51:51.000Z</time>
|
|
</trkpt>
|
|
<trkpt lat="55.848755" lon="8.167439">
|
|
<ele>6.263583</ele>
|
|
<time>2026-07-12T09:51:52.000Z</time>
|
|
</trkpt>
|
|
<trkpt lat="55.848747" lon="8.167370">
|
|
<ele>6.264926</ele>
|
|
<time>2026-07-12T09:51:53.000Z</time>
|
|
</trkpt>
|
|
<trkpt lat="55.848743" lon="8.167299">
|
|
<ele>6.266285</ele>
|
|
<time>2026-07-12T09:51:54.000Z</time>
|
|
</trkpt>
|
|
<trkpt lat="55.848740" lon="8.167225">
|
|
<ele>6.267698</ele>
|
|
<time>2026-07-12T09:51:55.000Z</time>
|
|
</trkpt>
|
|
<trkpt lat="55.848732" lon="8.167151">
|
|
<ele>6.269134</ele>
|
|
<time>2026-07-12T09:51:56.000Z</time>
|
|
</trkpt>
|
|
<trkpt lat="55.848724" lon="8.167079">
|
|
<ele>6.270532</ele>
|
|
<time>2026-07-12T09:51:57.000Z</time>
|
|
</trkpt>
|
|
<trkpt lat="55.848721" lon="8.167005">
|
|
<ele>6.271946</ele>
|
|
<time>2026-07-12T09:51:58.000Z</time>
|
|
</trkpt>
|
|
<trkpt lat="55.848713" lon="8.166931">
|
|
<ele>6.273382</ele>
|
|
<time>2026-07-12T09:51:59.000Z</time>
|
|
</trkpt>
|
|
<trkpt lat="55.848705" lon="8.166856">
|
|
<ele>6.274836</ele>
|
|
<time>2026-07-12T09:52:00.000Z</time>
|
|
</trkpt>
|
|
<trkpt lat="55.848698" lon="8.166783">
|
|
<ele>6.276247</ele>
|
|
<time>2026-07-12T09:52:01.000Z</time>
|
|
</trkpt>
|
|
<trkpt lat="55.848694" lon="8.166711">
|
|
<ele>6.277625</ele>
|
|
<time>2026-07-12T09:52:02.000Z</time>
|
|
</trkpt>
|
|
<trkpt lat="55.848686" lon="8.166636">
|
|
<ele>6.279080</ele>
|
|
<time>2026-07-12T09:52:03.000Z</time>
|
|
</trkpt>
|
|
<trkpt lat="55.848679" lon="8.166564">
|
|
<ele>6.280472</ele>
|
|
<time>2026-07-12T09:52:04.000Z</time>
|
|
</trkpt>
|
|
<trkpt lat="55.848671" lon="8.166492">
|
|
<ele>6.281870</ele>
|
|
<time>2026-07-12T09:52:05.000Z</time>
|
|
</trkpt>
|
|
<trkpt lat="55.848667" lon="8.166423">
|
|
<ele>6.283191</ele>
|
|
<time>2026-07-12T09:52:06.000Z</time>
|
|
</trkpt>
|
|
<trkpt lat="55.848660" lon="8.166352">
|
|
<ele>6.284565</ele>
|
|
<time>2026-07-12T09:52:07.000Z</time>
|
|
</trkpt>
|
|
<trkpt lat="55.848652" lon="8.166284">
|
|
<ele>6.285888</ele>
|
|
<time>2026-07-12T09:52:08.000Z</time>
|
|
</trkpt>
|
|
<trkpt lat="55.848644" lon="8.166220">
|
|
<ele>6.287138</ele>
|
|
<time>2026-07-12T09:52:09.000Z</time>
|
|
</trkpt>
|
|
<trkpt lat="55.848640" lon="8.166157">
|
|
<ele>6.288345</ele>
|
|
<time>2026-07-12T09:52:10.000Z</time>
|
|
</trkpt>
|
|
<trkpt lat="55.848637" lon="8.166095">
|
|
<ele>6.289531</ele>
|
|
<time>2026-07-12T09:52:11.000Z</time>
|
|
</trkpt>
|
|
<trkpt lat="55.848644" lon="8.166032">
|
|
<ele>6.290754</ele>
|
|
<time>2026-07-12T09:52:12.000Z</time>
|
|
</trkpt>
|
|
<trkpt lat="55.848656" lon="8.165976">
|
|
<ele>6.291896</ele>
|
|
<time>2026-07-12T09:52:13.000Z</time>
|
|
</trkpt>
|
|
<trkpt lat="55.848671" lon="8.165931">
|
|
<ele>6.292893</ele>
|
|
<time>2026-07-12T09:52:14.000Z</time>
|
|
</trkpt>
|
|
<trkpt lat="55.848694" lon="8.165894">
|
|
<ele>6.293945</ele>
|
|
<time>2026-07-12T09:52:15.000Z</time>
|
|
</trkpt>
|
|
<trkpt lat="55.848724" lon="8.165866">
|
|
<ele>6.295095</ele>
|
|
<time>2026-07-12T09:52:16.000Z</time>
|
|
</trkpt>
|
|
<trkpt lat="55.848755" lon="8.165850">
|
|
<ele>6.296190</ele>
|
|
<time>2026-07-12T09:52:17.000Z</time>
|
|
</trkpt>
|
|
<trkpt lat="55.848785" lon="8.165841">
|
|
<ele>6.297222</ele>
|
|
<time>2026-07-12T09:52:18.000Z</time>
|
|
</trkpt>
|
|
<trkpt lat="55.848816" lon="8.165838">
|
|
<ele>6.298276</ele>
|
|
<time>2026-07-12T09:52:19.000Z</time>
|
|
</trkpt>
|
|
<trkpt lat="55.848850" lon="8.165839">
|
|
<ele>6.299430</ele>
|
|
<time>2026-07-12T09:52:20.000Z</time>
|
|
</trkpt>
|
|
<trkpt lat="55.848881" lon="8.165839">
|
|
<ele>6.300482</ele>
|
|
<time>2026-07-12T09:52:21.000Z</time>
|
|
</trkpt>
|
|
<trkpt lat="55.848911" lon="8.165835">
|
|
<ele>6.301503</ele>
|
|
<time>2026-07-12T09:52:22.000Z</time>
|
|
</trkpt>
|
|
<trkpt lat="55.848942" lon="8.165827">
|
|
<ele>6.302566</ele>
|
|
<time>2026-07-12T09:52:23.000Z</time>
|
|
</trkpt>
|
|
<trkpt lat="55.848972" lon="8.165815">
|
|
<ele>6.303609</ele>
|
|
<time>2026-07-12T09:52:24.000Z</time>
|
|
</trkpt>
|
|
<trkpt lat="55.849007" lon="8.165807">
|
|
<ele>6.304807</ele>
|
|
<time>2026-07-12T09:52:25.000Z</time>
|
|
</trkpt>
|
|
<trkpt lat="55.849052" lon="8.165799">
|
|
<ele>6.306341</ele>
|
|
<time>2026-07-12T09:52:26.000Z</time>
|
|
</trkpt>
|
|
<trkpt lat="55.849091" lon="8.165791">
|
|
<ele>6.307326</ele>
|
|
<time>2026-07-12T09:52:27.000Z</time>
|
|
</trkpt>
|
|
<trkpt lat="55.849129" lon="8.165780">
|
|
<ele>6.306054</ele>
|
|
<time>2026-07-12T09:52:28.000Z</time>
|
|
</trkpt>
|
|
<trkpt lat="55.849167" lon="8.165768">
|
|
<ele>6.304778</ele>
|
|
<time>2026-07-12T09:52:29.000Z</time>
|
|
</trkpt>
|
|
<trkpt lat="55.849209" lon="8.165756">
|
|
<ele>6.303372</ele>
|
|
<time>2026-07-12T09:52:30.000Z</time>
|
|
</trkpt>
|
|
<trkpt lat="55.849247" lon="8.165745">
|
|
<ele>6.302100</ele>
|
|
<time>2026-07-12T09:52:31.000Z</time>
|
|
</trkpt>
|
|
<trkpt lat="55.849289" lon="8.165735">
|
|
<ele>6.300700</ele>
|
|
<time>2026-07-12T09:52:32.000Z</time>
|
|
</trkpt>
|
|
<trkpt lat="55.849327" lon="8.165725">
|
|
<ele>6.299430</ele>
|
|
<time>2026-07-12T09:52:33.000Z</time>
|
|
</trkpt>
|
|
<trkpt lat="55.849365" lon="8.165714">
|
|
<ele>6.298158</ele>
|
|
<time>2026-07-12T09:52:34.000Z</time>
|
|
</trkpt>
|
|
<trkpt lat="55.849403" lon="8.165708">
|
|
<ele>6.296897</ele>
|
|
<time>2026-07-12T09:52:35.000Z</time>
|
|
</trkpt>
|
|
<trkpt lat="55.849438" lon="8.165698">
|
|
<ele>6.295725</ele>
|
|
<time>2026-07-12T09:52:36.000Z</time>
|
|
</trkpt>
|
|
<trkpt lat="55.849476" lon="8.165686">
|
|
<ele>6.294450</ele>
|
|
<time>2026-07-12T09:52:37.000Z</time>
|
|
</trkpt>
|
|
<trkpt lat="55.849514" lon="8.165674">
|
|
<ele>6.293174</ele>
|
|
<time>2026-07-12T09:52:38.000Z</time>
|
|
</trkpt>
|
|
<trkpt lat="55.849556" lon="8.165661">
|
|
<ele>6.291766</ele>
|
|
<time>2026-07-12T09:52:39.000Z</time>
|
|
</trkpt>
|
|
<trkpt lat="55.849590" lon="8.165643">
|
|
<ele>6.290593</ele>
|
|
<time>2026-07-12T09:52:40.000Z</time>
|
|
</trkpt>
|
|
<trkpt lat="55.849625" lon="8.165618">
|
|
<ele>6.289347</ele>
|
|
<time>2026-07-12T09:52:41.000Z</time>
|
|
</trkpt>
|
|
<trkpt lat="55.849655" lon="8.165589">
|
|
<ele>6.288219</ele>
|
|
<time>2026-07-12T09:52:42.000Z</time>
|
|
</trkpt>
|
|
<trkpt lat="55.849686" lon="8.165561">
|
|
<ele>6.287070</ele>
|
|
<time>2026-07-12T09:52:43.000Z</time>
|
|
</trkpt>
|
|
<trkpt lat="55.849720" lon="8.165533">
|
|
<ele>6.285832</ele>
|
|
<time>2026-07-12T09:52:44.000Z</time>
|
|
</trkpt>
|
|
<trkpt lat="55.849751" lon="8.165506">
|
|
<ele>6.284692</ele>
|
|
<time>2026-07-12T09:52:45.000Z</time>
|
|
</trkpt>
|
|
<trkpt lat="55.849785" lon="8.165478">
|
|
<ele>6.283454</ele>
|
|
<time>2026-07-12T09:52:46.000Z</time>
|
|
</trkpt>
|
|
<trkpt lat="55.849815" lon="8.165447">
|
|
<ele>6.282308</ele>
|
|
<time>2026-07-12T09:52:47.000Z</time>
|
|
</trkpt>
|
|
<trkpt lat="55.849850" lon="8.165417">
|
|
<ele>6.281024</ele>
|
|
<time>2026-07-12T09:52:48.000Z</time>
|
|
</trkpt>
|
|
<trkpt lat="55.849876" lon="8.165382">
|
|
<ele>6.279947</ele>
|
|
<time>2026-07-12T09:52:49.000Z</time>
|
|
</trkpt>
|
|
<trkpt lat="55.849903" lon="8.165345">
|
|
<ele>6.278821</ele>
|
|
<time>2026-07-12T09:52:50.000Z</time>
|
|
</trkpt>
|
|
<trkpt lat="55.849926" lon="8.165304">
|
|
<ele>6.277746</ele>
|
|
<time>2026-07-12T09:52:51.000Z</time>
|
|
</trkpt>
|
|
<trkpt lat="55.849953" lon="8.165262">
|
|
<ele>6.276561</ele>
|
|
<time>2026-07-12T09:52:52.000Z</time>
|
|
</trkpt>
|
|
<trkpt lat="55.849976" lon="8.165237">
|
|
<ele>6.275671</ele>
|
|
<time>2026-07-12T09:52:53.000Z</time>
|
|
</trkpt>
|
|
<trkpt lat="55.850006" lon="8.165223">
|
|
<ele>6.274646</ele>
|
|
<time>2026-07-12T09:52:54.000Z</time>
|
|
</trkpt>
|
|
<trkpt lat="55.850040" lon="8.165216">
|
|
<ele>6.273515</ele>
|
|
<time>2026-07-12T09:52:55.000Z</time>
|
|
</trkpt>
|
|
<trkpt lat="55.850079" lon="8.165212">
|
|
<ele>6.272224</ele>
|
|
<time>2026-07-12T09:52:56.000Z</time>
|
|
</trkpt>
|
|
<trkpt lat="55.850121" lon="8.165209">
|
|
<ele>6.270834</ele>
|
|
<time>2026-07-12T09:52:57.000Z</time>
|
|
</trkpt>
|
|
<trkpt lat="55.850163" lon="8.165206">
|
|
<ele>6.269445</ele>
|
|
<time>2026-07-12T09:52:58.000Z</time>
|
|
</trkpt>
|
|
<trkpt lat="55.850208" lon="8.165203">
|
|
<ele>6.267957</ele>
|
|
<time>2026-07-12T09:52:59.000Z</time>
|
|
</trkpt>
|
|
<trkpt lat="55.850250" lon="8.165197">
|
|
<ele>6.266564</ele>
|
|
<time>2026-07-12T09:53:00.000Z</time>
|
|
</trkpt>
|
|
<trkpt lat="55.850296" lon="8.165190">
|
|
<ele>6.265039</ele>
|
|
<time>2026-07-12T09:53:01.000Z</time>
|
|
</trkpt>
|
|
<trkpt lat="55.850342" lon="8.165182">
|
|
<ele>6.263511</ele>
|
|
<time>2026-07-12T09:53:02.000Z</time>
|
|
</trkpt>
|
|
<trkpt lat="55.850395" lon="8.165175">
|
|
<ele>6.261755</ele>
|
|
<time>2026-07-12T09:53:03.000Z</time>
|
|
</trkpt>
|
|
<trkpt lat="55.850445" lon="8.165167">
|
|
<ele>6.260096</ele>
|
|
<time>2026-07-12T09:53:04.000Z</time>
|
|
</trkpt>
|
|
<trkpt lat="55.850487" lon="8.165157">
|
|
<ele>6.258695</ele>
|
|
<time>2026-07-12T09:53:05.000Z</time>
|
|
</trkpt>
|
|
<trkpt lat="55.850529" lon="8.165149">
|
|
<ele>6.257299</ele>
|
|
<time>2026-07-12T09:53:06.000Z</time>
|
|
</trkpt>
|
|
<trkpt lat="55.850571" lon="8.165141">
|
|
<ele>6.255903</ele>
|
|
<time>2026-07-12T09:53:07.000Z</time>
|
|
</trkpt>
|
|
<trkpt lat="55.850609" lon="8.165131">
|
|
<ele>6.254634</ele>
|
|
<time>2026-07-12T09:53:08.000Z</time>
|
|
</trkpt>
|
|
<trkpt lat="55.850651" lon="8.165120">
|
|
<ele>6.253231</ele>
|
|
<time>2026-07-12T09:53:09.000Z</time>
|
|
</trkpt>
|
|
<trkpt lat="55.850693" lon="8.165113">
|
|
<ele>6.251837</ele>
|
|
<time>2026-07-12T09:53:10.000Z</time>
|
|
</trkpt>
|
|
<trkpt lat="55.850735" lon="8.165111">
|
|
<ele>6.250448</ele>
|
|
<time>2026-07-12T09:53:11.000Z</time>
|
|
</trkpt>
|
|
<trkpt lat="55.850781" lon="8.165106">
|
|
<ele>6.248925</ele>
|
|
<time>2026-07-12T09:53:12.000Z</time>
|
|
</trkpt>
|
|
<trkpt lat="55.850822" lon="8.165097">
|
|
<ele>6.247522</ele>
|
|
<time>2026-07-12T09:53:13.000Z</time>
|
|
</trkpt>
|
|
<trkpt lat="55.850864" lon="8.165088">
|
|
<ele>6.246019</ele>
|
|
<time>2026-07-12T09:53:14.000Z</time>
|
|
</trkpt>
|
|
<trkpt lat="55.850914" lon="8.165078">
|
|
<ele>6.244231</ele>
|
|
<time>2026-07-12T09:53:15.000Z</time>
|
|
</trkpt>
|
|
<trkpt lat="55.850956" lon="8.165071">
|
|
<ele>6.242731</ele>
|
|
<time>2026-07-12T09:53:16.000Z</time>
|
|
</trkpt>
|
|
<trkpt lat="55.850994" lon="8.165063">
|
|
<ele>6.241371</ele>
|
|
<time>2026-07-12T09:53:17.000Z</time>
|
|
</trkpt>
|
|
<trkpt lat="55.851040" lon="8.165051">
|
|
<ele>6.239719</ele>
|
|
<time>2026-07-12T09:53:18.000Z</time>
|
|
</trkpt>
|
|
<trkpt lat="55.851086" lon="8.165040">
|
|
<ele>6.238069</ele>
|
|
<time>2026-07-12T09:53:19.000Z</time>
|
|
</trkpt>
|
|
<trkpt lat="55.851128" lon="8.165031">
|
|
<ele>6.236566</ele>
|
|
<time>2026-07-12T09:53:20.000Z</time>
|
|
</trkpt>
|
|
<trkpt lat="55.851173" lon="8.165024">
|
|
<ele>6.234960</ele>
|
|
<time>2026-07-12T09:53:21.000Z</time>
|
|
</trkpt>
|
|
<trkpt lat="55.851219" lon="8.165019">
|
|
<ele>6.233322</ele>
|
|
<time>2026-07-12T09:53:22.000Z</time>
|
|
</trkpt>
|
|
<trkpt lat="55.851265" lon="8.165016">
|
|
<ele>6.231686</ele>
|
|
<time>2026-07-12T09:53:23.000Z</time>
|
|
</trkpt>
|
|
<trkpt lat="55.851311" lon="8.165014">
|
|
<ele>6.230051</ele>
|
|
<time>2026-07-12T09:53:24.000Z</time>
|
|
</trkpt>
|
|
<trkpt lat="55.851357" lon="8.165013">
|
|
<ele>6.228416</ele>
|
|
<time>2026-07-12T09:53:25.000Z</time>
|
|
</trkpt>
|
|
<trkpt lat="55.851402" lon="8.165012">
|
|
<ele>6.226816</ele>
|
|
<time>2026-07-12T09:53:26.000Z</time>
|
|
</trkpt>
|
|
<trkpt lat="55.851444" lon="8.165010">
|
|
<ele>6.225323</ele>
|
|
<time>2026-07-12T09:53:27.000Z</time>
|
|
</trkpt>
|
|
<trkpt lat="55.851486" lon="8.165004">
|
|
<ele>6.223825</ele>
|
|
<time>2026-07-12T09:53:28.000Z</time>
|
|
</trkpt>
|
|
<trkpt lat="55.851532" lon="8.164996">
|
|
<ele>6.222183</ele>
|
|
<time>2026-07-12T09:53:29.000Z</time>
|
|
</trkpt>
|
|
<trkpt lat="55.851574" lon="8.164988">
|
|
<ele>6.220681</ele>
|
|
<time>2026-07-12T09:53:30.000Z</time>
|
|
</trkpt>
|
|
<trkpt lat="55.851612" lon="8.164984">
|
|
<ele>6.219328</ele>
|
|
<time>2026-07-12T09:53:31.000Z</time>
|
|
</trkpt>
|
|
<trkpt lat="55.851650" lon="8.164980">
|
|
<ele>6.217975</ele>
|
|
<time>2026-07-12T09:53:32.000Z</time>
|
|
</trkpt>
|
|
<trkpt lat="55.851685" lon="8.164974">
|
|
<ele>6.216726</ele>
|
|
<time>2026-07-12T09:53:33.000Z</time>
|
|
</trkpt>
|
|
<trkpt lat="55.851723" lon="8.164967">
|
|
<ele>6.215368</ele>
|
|
<time>2026-07-12T09:53:34.000Z</time>
|
|
</trkpt>
|
|
<trkpt lat="55.851765" lon="8.164956">
|
|
<ele>6.213859</ele>
|
|
<time>2026-07-12T09:53:35.000Z</time>
|
|
</trkpt>
|
|
<trkpt lat="55.851807" lon="8.164944">
|
|
<ele>6.212347</ele>
|
|
<time>2026-07-12T09:53:36.000Z</time>
|
|
</trkpt>
|
|
<trkpt lat="55.851845" lon="8.164929">
|
|
<ele>6.210964</ele>
|
|
<time>2026-07-12T09:53:37.000Z</time>
|
|
</trkpt>
|
|
<trkpt lat="55.851879" lon="8.164915">
|
|
<ele>6.209724</ele>
|
|
<time>2026-07-12T09:53:38.000Z</time>
|
|
</trkpt>
|
|
<trkpt lat="55.851913" lon="8.164904">
|
|
<ele>6.208495</ele>
|
|
<time>2026-07-12T09:53:39.000Z</time>
|
|
</trkpt>
|
|
<trkpt lat="55.851948" lon="8.164893">
|
|
<ele>6.207232</ele>
|
|
<time>2026-07-12T09:53:40.000Z</time>
|
|
</trkpt>
|
|
<trkpt lat="55.851982" lon="8.164886">
|
|
<ele>6.206016</ele>
|
|
<time>2026-07-12T09:53:41.000Z</time>
|
|
</trkpt>
|
|
<trkpt lat="55.852016" lon="8.164879">
|
|
<ele>6.204799</ele>
|
|
<time>2026-07-12T09:53:42.000Z</time>
|
|
</trkpt>
|
|
<trkpt lat="55.852043" lon="8.164874">
|
|
<ele>6.203835</ele>
|
|
<time>2026-07-12T09:53:43.000Z</time>
|
|
</trkpt>
|
|
<trkpt lat="55.852074" lon="8.164875">
|
|
<ele>6.202733</ele>
|
|
<time>2026-07-12T09:53:44.000Z</time>
|
|
</trkpt>
|
|
<trkpt lat="55.852108" lon="8.164883">
|
|
<ele>6.201514</ele>
|
|
<time>2026-07-12T09:53:45.000Z</time>
|
|
</trkpt>
|
|
<trkpt lat="55.852146" lon="8.164894">
|
|
<ele>6.200145</ele>
|
|
<time>2026-07-12T09:53:46.000Z</time>
|
|
</trkpt>
|
|
<trkpt lat="55.852184" lon="8.164908">
|
|
<ele>6.198766</ele>
|
|
<time>2026-07-12T09:53:47.000Z</time>
|
|
</trkpt>
|
|
<trkpt lat="55.852230" lon="8.164924">
|
|
<ele>6.197100</ele>
|
|
<time>2026-07-12T09:53:48.000Z</time>
|
|
</trkpt>
|
|
<trkpt lat="55.852280" lon="8.164943">
|
|
<ele>6.195283</ele>
|
|
<time>2026-07-12T09:53:49.000Z</time>
|
|
</trkpt>
|
|
<trkpt lat="55.852329" lon="8.164967">
|
|
<ele>6.193477</ele>
|
|
<time>2026-07-12T09:53:50.000Z</time>
|
|
</trkpt>
|
|
<trkpt lat="55.852371" lon="8.164991">
|
|
<ele>6.191909</ele>
|
|
<time>2026-07-12T09:53:51.000Z</time>
|
|
</trkpt>
|
|
<trkpt lat="55.852413" lon="8.165015">
|
|
<ele>6.190342</ele>
|
|
<time>2026-07-12T09:53:52.000Z</time>
|
|
</trkpt>
|
|
<trkpt lat="55.852448" lon="8.165037">
|
|
<ele>6.189023</ele>
|
|
<time>2026-07-12T09:53:53.000Z</time>
|
|
</trkpt>
|
|
<trkpt lat="55.852482" lon="8.165061">
|
|
<ele>6.187723</ele>
|
|
<time>2026-07-12T09:53:54.000Z</time>
|
|
</trkpt>
|
|
<trkpt lat="55.852516" lon="8.165087">
|
|
<ele>6.186408</ele>
|
|
<time>2026-07-12T09:53:55.000Z</time>
|
|
</trkpt>
|
|
<trkpt lat="55.852547" lon="8.165112">
|
|
<ele>6.185198</ele>
|
|
<time>2026-07-12T09:53:56.000Z</time>
|
|
</trkpt>
|
|
<trkpt lat="55.852577" lon="8.165135">
|
|
<ele>6.183206</ele>
|
|
<time>2026-07-12T09:53:57.000Z</time>
|
|
</trkpt>
|
|
<trkpt lat="55.852612" lon="8.165158">
|
|
<ele>6.169411</ele>
|
|
<time>2026-07-12T09:53:58.000Z</time>
|
|
</trkpt>
|
|
<trkpt lat="55.852650" lon="8.165183">
|
|
<ele>6.154432</ele>
|
|
<time>2026-07-12T09:53:59.000Z</time>
|
|
</trkpt>
|
|
<trkpt lat="55.852688" lon="8.165207">
|
|
<ele>6.139523</ele>
|
|
<time>2026-07-12T09:54:00.000Z</time>
|
|
</trkpt>
|
|
<trkpt lat="55.852726" lon="8.165224">
|
|
<ele>6.125035</ele>
|
|
<time>2026-07-12T09:54:01.000Z</time>
|
|
</trkpt>
|
|
<trkpt lat="55.852760" lon="8.165234">
|
|
<ele>6.112292</ele>
|
|
<time>2026-07-12T09:54:02.000Z</time>
|
|
</trkpt>
|
|
<trkpt lat="55.852795" lon="8.165232">
|
|
<ele>6.099343</ele>
|
|
<time>2026-07-12T09:54:03.000Z</time>
|
|
</trkpt>
|
|
<trkpt lat="55.852833" lon="8.165218">
|
|
<ele>6.084994</ele>
|
|
<time>2026-07-12T09:54:04.000Z</time>
|
|
</trkpt>
|
|
<trkpt lat="55.852867" lon="8.165200">
|
|
<ele>6.071878</ele>
|
|
<time>2026-07-12T09:54:05.000Z</time>
|
|
</trkpt>
|
|
<trkpt lat="55.852901" lon="8.165175">
|
|
<ele>6.058277</ele>
|
|
<time>2026-07-12T09:54:06.000Z</time>
|
|
</trkpt>
|
|
<trkpt lat="55.852936" lon="8.165141">
|
|
<ele>6.043535</ele>
|
|
<time>2026-07-12T09:54:07.000Z</time>
|
|
</trkpt>
|
|
<trkpt lat="55.852966" lon="8.165107">
|
|
<ele>6.030387</ele>
|
|
<time>2026-07-12T09:54:08.000Z</time>
|
|
</trkpt>
|
|
<trkpt lat="55.852997" lon="8.165076">
|
|
<ele>6.017241</ele>
|
|
<time>2026-07-12T09:54:09.000Z</time>
|
|
</trkpt>
|
|
<trkpt lat="55.853031" lon="8.165048">
|
|
<ele>6.003391</ele>
|
|
<time>2026-07-12T09:54:10.000Z</time>
|
|
</trkpt>
|
|
<trkpt lat="55.853069" lon="8.165011">
|
|
<ele>5.987377</ele>
|
|
<time>2026-07-12T09:54:11.000Z</time>
|
|
</trkpt>
|
|
<trkpt lat="55.853107" lon="8.164982">
|
|
<ele>5.972090</ele>
|
|
<time>2026-07-12T09:54:12.000Z</time>
|
|
</trkpt>
|
|
<trkpt lat="55.853146" lon="8.164953">
|
|
<ele>5.956463</ele>
|
|
<time>2026-07-12T09:54:13.000Z</time>
|
|
</trkpt>
|
|
<trkpt lat="55.853188" lon="8.164927">
|
|
<ele>5.940021</ele>
|
|
<time>2026-07-12T09:54:14.000Z</time>
|
|
</trkpt>
|
|
<trkpt lat="55.853226" lon="8.164902">
|
|
<ele>5.925042</ele>
|
|
<time>2026-07-12T09:54:15.000Z</time>
|
|
</trkpt>
|
|
<trkpt lat="55.853268" lon="8.164879">
|
|
<ele>5.908794</ele>
|
|
<time>2026-07-12T09:54:16.000Z</time>
|
|
</trkpt>
|
|
<trkpt lat="55.853306" lon="8.164857">
|
|
<ele>5.894019</ele>
|
|
<time>2026-07-12T09:54:17.000Z</time>
|
|
</trkpt>
|
|
<trkpt lat="55.853348" lon="8.164835">
|
|
<ele>5.877830</ele>
|
|
<time>2026-07-12T09:54:18.000Z</time>
|
|
</trkpt>
|
|
<trkpt lat="55.853386" lon="8.164814">
|
|
<ele>5.863118</ele>
|
|
<time>2026-07-12T09:54:19.000Z</time>
|
|
</trkpt>
|
|
<trkpt lat="55.853424" lon="8.164794">
|
|
<ele>5.848466</ele>
|
|
<time>2026-07-12T09:54:20.000Z</time>
|
|
</trkpt>
|
|
<trkpt lat="55.853466" lon="8.164774">
|
|
<ele>5.832390</ele>
|
|
<time>2026-07-12T09:54:21.000Z</time>
|
|
</trkpt>
|
|
<trkpt lat="55.853512" lon="8.164757">
|
|
<ele>5.815018</ele>
|
|
<time>2026-07-12T09:54:22.000Z</time>
|
|
</trkpt>
|
|
<trkpt lat="55.853554" lon="8.164741">
|
|
<ele>5.799136</ele>
|
|
<time>2026-07-12T09:54:23.000Z</time>
|
|
</trkpt>
|
|
<trkpt lat="55.853596" lon="8.164723">
|
|
<ele>5.783162</ele>
|
|
<time>2026-07-12T09:54:24.000Z</time>
|
|
</trkpt>
|
|
<trkpt lat="55.853634" lon="8.164707">
|
|
<ele>5.768723</ele>
|
|
<time>2026-07-12T09:54:25.000Z</time>
|
|
</trkpt>
|
|
<trkpt lat="55.853676" lon="8.164691">
|
|
<ele>5.752841</ele>
|
|
<time>2026-07-12T09:54:26.000Z</time>
|
|
</trkpt>
|
|
<trkpt lat="55.853718" lon="8.164675">
|
|
<ele>5.736959</ele>
|
|
<time>2026-07-12T09:54:27.000Z</time>
|
|
</trkpt>
|
|
<trkpt lat="55.853756" lon="8.164664">
|
|
<ele>5.722723</ele>
|
|
<time>2026-07-12T09:54:28.000Z</time>
|
|
</trkpt>
|
|
<trkpt lat="55.853798" lon="8.164657">
|
|
<ele>5.707124</ele>
|
|
<time>2026-07-12T09:54:29.000Z</time>
|
|
</trkpt>
|
|
<trkpt lat="55.853840" lon="8.164648">
|
|
<ele>5.691482</ele>
|
|
<time>2026-07-12T09:54:30.000Z</time>
|
|
</trkpt>
|
|
<trkpt lat="55.853882" lon="8.164639">
|
|
<ele>5.675839</ele>
|
|
<time>2026-07-12T09:54:31.000Z</time>
|
|
</trkpt>
|
|
<trkpt lat="55.853928" lon="8.164631">
|
|
<ele>5.658748</ele>
|
|
<time>2026-07-12T09:54:32.000Z</time>
|
|
</trkpt>
|
|
<trkpt lat="55.853977" lon="8.164619">
|
|
<ele>5.640458</ele>
|
|
<time>2026-07-12T09:54:33.000Z</time>
|
|
</trkpt>
|
|
<trkpt lat="55.854019" lon="8.164607">
|
|
<ele>5.624729</ele>
|
|
<time>2026-07-12T09:54:34.000Z</time>
|
|
</trkpt>
|
|
<trkpt lat="55.854065" lon="8.164594">
|
|
<ele>5.607506</ele>
|
|
<time>2026-07-12T09:54:35.000Z</time>
|
|
</trkpt>
|
|
<trkpt lat="55.854103" lon="8.164581">
|
|
<ele>5.593198</ele>
|
|
<time>2026-07-12T09:54:36.000Z</time>
|
|
</trkpt>
|
|
<trkpt lat="55.854145" lon="8.164569">
|
|
<ele>5.577468</ele>
|
|
<time>2026-07-12T09:54:37.000Z</time>
|
|
</trkpt>
|
|
<trkpt lat="55.854191" lon="8.164552">
|
|
<ele>5.560096</ele>
|
|
<time>2026-07-12T09:54:38.000Z</time>
|
|
</trkpt>
|
|
<trkpt lat="55.854233" lon="8.164536">
|
|
<ele>5.544214</ele>
|
|
<time>2026-07-12T09:54:39.000Z</time>
|
|
</trkpt>
|
|
<trkpt lat="55.854271" lon="8.164521">
|
|
<ele>5.529822</ele>
|
|
<time>2026-07-12T09:54:40.000Z</time>
|
|
</trkpt>
|
|
<trkpt lat="55.854309" lon="8.164509">
|
|
<ele>5.517326</ele>
|
|
<time>2026-07-12T09:54:41.000Z</time>
|
|
</trkpt>
|
|
<trkpt lat="55.854347" lon="8.164497">
|
|
<ele>5.510359</ele>
|
|
<time>2026-07-12T09:54:42.000Z</time>
|
|
</trkpt>
|
|
<trkpt lat="55.854389" lon="8.164489">
|
|
<ele>5.502734</ele>
|
|
<time>2026-07-12T09:54:43.000Z</time>
|
|
</trkpt>
|
|
<trkpt lat="55.854427" lon="8.164485">
|
|
<ele>5.495862</ele>
|
|
<time>2026-07-12T09:54:44.000Z</time>
|
|
</trkpt>
|
|
<trkpt lat="55.854465" lon="8.164487">
|
|
<ele>5.489000</ele>
|
|
<time>2026-07-12T09:54:45.000Z</time>
|
|
</trkpt>
|
|
<trkpt lat="55.854504" lon="8.164495">
|
|
<ele>5.481913</ele>
|
|
<time>2026-07-12T09:54:46.000Z</time>
|
|
</trkpt>
|
|
<trkpt lat="55.854542" lon="8.164513">
|
|
<ele>5.474815</ele>
|
|
<time>2026-07-12T09:54:47.000Z</time>
|
|
</trkpt>
|
|
<trkpt lat="55.854576" lon="8.164537">
|
|
<ele>5.468213</ele>
|
|
<time>2026-07-12T09:54:48.000Z</time>
|
|
</trkpt>
|
|
<trkpt lat="55.854614" lon="8.164564">
|
|
<ele>5.460828</ele>
|
|
<time>2026-07-12T09:54:49.000Z</time>
|
|
</trkpt>
|
|
<trkpt lat="55.854652" lon="8.164595">
|
|
<ele>5.453284</ele>
|
|
<time>2026-07-12T09:54:50.000Z</time>
|
|
</trkpt>
|
|
<trkpt lat="55.854691" lon="8.164626">
|
|
<ele>5.445574</ele>
|
|
<time>2026-07-12T09:54:51.000Z</time>
|
|
</trkpt>
|
|
<trkpt lat="55.854729" lon="8.164658">
|
|
<ele>5.437987</ele>
|
|
<time>2026-07-12T09:54:52.000Z</time>
|
|
</trkpt>
|
|
<trkpt lat="55.854771" lon="8.164691">
|
|
<ele>5.429701</ele>
|
|
<time>2026-07-12T09:54:53.000Z</time>
|
|
</trkpt>
|
|
<trkpt lat="55.854813" lon="8.164728">
|
|
<ele>5.421243</ele>
|
|
<time>2026-07-12T09:54:54.000Z</time>
|
|
</trkpt>
|
|
<trkpt lat="55.854851" lon="8.164767">
|
|
<ele>5.413326</ele>
|
|
<time>2026-07-12T09:54:55.000Z</time>
|
|
</trkpt>
|
|
<trkpt lat="55.854893" lon="8.164807">
|
|
<ele>5.404729</ele>
|
|
<time>2026-07-12T09:54:56.000Z</time>
|
|
</trkpt>
|
|
<trkpt lat="55.854935" lon="8.164845">
|
|
<ele>5.396226</ele>
|
|
<time>2026-07-12T09:54:57.000Z</time>
|
|
</trkpt>
|
|
<trkpt lat="55.854977" lon="8.164880">
|
|
<ele>5.387856</ele>
|
|
<time>2026-07-12T09:54:58.000Z</time>
|
|
</trkpt>
|
|
<trkpt lat="55.855015" lon="8.164910">
|
|
<ele>5.380353</ele>
|
|
<time>2026-07-12T09:54:59.000Z</time>
|
|
</trkpt>
|
|
<trkpt lat="55.855057" lon="8.164933">
|
|
<ele>5.372421</ele>
|
|
<time>2026-07-12T09:55:00.000Z</time>
|
|
</trkpt>
|
|
<trkpt lat="55.855103" lon="8.164946">
|
|
<ele>5.364013</ele>
|
|
<time>2026-07-12T09:55:01.000Z</time>
|
|
</trkpt>
|
|
<trkpt lat="55.855148" lon="8.164947">
|
|
<ele>5.355889</ele>
|
|
<time>2026-07-12T09:55:02.000Z</time>
|
|
</trkpt>
|
|
<trkpt lat="55.855198" lon="8.164944">
|
|
<ele>5.346858</ele>
|
|
<time>2026-07-12T09:55:03.000Z</time>
|
|
</trkpt>
|
|
<trkpt lat="55.855244" lon="8.164938">
|
|
<ele>5.338532</ele>
|
|
<time>2026-07-12T09:55:04.000Z</time>
|
|
</trkpt>
|
|
<trkpt lat="55.855286" lon="8.164933">
|
|
<ele>5.330934</ele>
|
|
<time>2026-07-12T09:55:05.000Z</time>
|
|
</trkpt>
|
|
<trkpt lat="55.855335" lon="8.164927">
|
|
<ele>5.322067</ele>
|
|
<time>2026-07-12T09:55:06.000Z</time>
|
|
</trkpt>
|
|
<trkpt lat="55.855385" lon="8.164920">
|
|
<ele>5.313014</ele>
|
|
<time>2026-07-12T09:55:07.000Z</time>
|
|
</trkpt>
|
|
<trkpt lat="55.855431" lon="8.164907">
|
|
<ele>5.304606</ele>
|
|
<time>2026-07-12T09:55:08.000Z</time>
|
|
</trkpt>
|
|
<trkpt lat="55.855476" lon="8.164888">
|
|
<ele>5.296258</ele>
|
|
<time>2026-07-12T09:55:09.000Z</time>
|
|
</trkpt>
|
|
<trkpt lat="55.855518" lon="8.164864">
|
|
<ele>5.288296</ele>
|
|
<time>2026-07-12T09:55:10.000Z</time>
|
|
</trkpt>
|
|
<trkpt lat="55.855560" lon="8.164835">
|
|
<ele>5.280164</ele>
|
|
<time>2026-07-12T09:55:11.000Z</time>
|
|
</trkpt>
|
|
<trkpt lat="55.855606" lon="8.164806">
|
|
<ele>5.271356</ele>
|
|
<time>2026-07-12T09:55:12.000Z</time>
|
|
</trkpt>
|
|
<trkpt lat="55.855648" lon="8.164778">
|
|
<ele>5.263261</ele>
|
|
<time>2026-07-12T09:55:13.000Z</time>
|
|
</trkpt>
|
|
<trkpt lat="55.855694" lon="8.164749">
|
|
<ele>5.254453</ele>
|
|
<time>2026-07-12T09:55:14.000Z</time>
|
|
</trkpt>
|
|
<trkpt lat="55.855736" lon="8.164722">
|
|
<ele>5.246392</ele>
|
|
<time>2026-07-12T09:55:15.000Z</time>
|
|
</trkpt>
|
|
<trkpt lat="55.855778" lon="8.164695">
|
|
<ele>5.238332</ele>
|
|
<time>2026-07-12T09:55:16.000Z</time>
|
|
</trkpt>
|
|
<trkpt lat="55.855820" lon="8.164668">
|
|
<ele>5.230272</ele>
|
|
<time>2026-07-12T09:55:17.000Z</time>
|
|
</trkpt>
|
|
<trkpt lat="55.855865" lon="8.164639">
|
|
<ele>5.221634</ele>
|
|
<time>2026-07-12T09:55:18.000Z</time>
|
|
</trkpt>
|
|
<trkpt lat="55.855907" lon="8.164611">
|
|
<ele>5.213538</ele>
|
|
<time>2026-07-12T09:55:19.000Z</time>
|
|
</trkpt>
|
|
<trkpt lat="55.855946" lon="8.164584">
|
|
<ele>5.205985</ele>
|
|
<time>2026-07-12T09:55:20.000Z</time>
|
|
</trkpt>
|
|
<trkpt lat="55.855991" lon="8.164557">
|
|
<ele>5.197414</ele>
|
|
<time>2026-07-12T09:55:21.000Z</time>
|
|
</trkpt>
|
|
<trkpt lat="55.856037" lon="8.164534">
|
|
<ele>5.193735</ele>
|
|
<time>2026-07-12T09:55:22.000Z</time>
|
|
</trkpt>
|
|
<trkpt lat="55.856083" lon="8.164511">
|
|
<ele>5.192806</ele>
|
|
<time>2026-07-12T09:55:23.000Z</time>
|
|
</trkpt>
|
|
<trkpt lat="55.856133" lon="8.164492">
|
|
<ele>5.191813</ele>
|
|
<time>2026-07-12T09:55:24.000Z</time>
|
|
</trkpt>
|
|
<trkpt lat="55.856178" lon="8.164473">
|
|
<ele>5.190914</ele>
|
|
<time>2026-07-12T09:55:25.000Z</time>
|
|
</trkpt>
|
|
<trkpt lat="55.856220" lon="8.164453">
|
|
<ele>5.190069</ele>
|
|
<time>2026-07-12T09:55:26.000Z</time>
|
|
</trkpt>
|
|
<trkpt lat="55.856262" lon="8.164434">
|
|
<ele>5.189227</ele>
|
|
<time>2026-07-12T09:55:27.000Z</time>
|
|
</trkpt>
|
|
<trkpt lat="55.856304" lon="8.164417">
|
|
<ele>5.188390</ele>
|
|
<time>2026-07-12T09:55:28.000Z</time>
|
|
</trkpt>
|
|
<trkpt lat="55.856350" lon="8.164402">
|
|
<ele>5.187482</ele>
|
|
<time>2026-07-12T09:55:29.000Z</time>
|
|
</trkpt>
|
|
<trkpt lat="55.856392" lon="8.164386">
|
|
<ele>5.186647</ele>
|
|
<time>2026-07-12T09:55:30.000Z</time>
|
|
</trkpt>
|
|
<trkpt lat="55.856434" lon="8.164371">
|
|
<ele>5.185815</ele>
|
|
<time>2026-07-12T09:55:31.000Z</time>
|
|
</trkpt>
|
|
<trkpt lat="55.856476" lon="8.164354">
|
|
<ele>5.184978</ele>
|
|
<time>2026-07-12T09:55:32.000Z</time>
|
|
</trkpt>
|
|
<trkpt lat="55.856518" lon="8.164336">
|
|
<ele>5.184138</ele>
|
|
<time>2026-07-12T09:55:33.000Z</time>
|
|
</trkpt>
|
|
<trkpt lat="55.856564" lon="8.164319">
|
|
<ele>5.183225</ele>
|
|
<time>2026-07-12T09:55:34.000Z</time>
|
|
</trkpt>
|
|
<trkpt lat="55.856606" lon="8.164302">
|
|
<ele>5.182389</ele>
|
|
<time>2026-07-12T09:55:35.000Z</time>
|
|
</trkpt>
|
|
<trkpt lat="55.856648" lon="8.164280">
|
|
<ele>5.181538</ele>
|
|
<time>2026-07-12T09:55:36.000Z</time>
|
|
</trkpt>
|
|
<trkpt lat="55.856686" lon="8.164254">
|
|
<ele>5.180747</ele>
|
|
<time>2026-07-12T09:55:37.000Z</time>
|
|
</trkpt>
|
|
<trkpt lat="55.856728" lon="8.164225">
|
|
<ele>5.179872</ele>
|
|
<time>2026-07-12T09:55:38.000Z</time>
|
|
</trkpt>
|
|
<trkpt lat="55.856770" lon="8.164197">
|
|
<ele>5.179000</ele>
|
|
<time>2026-07-12T09:55:39.000Z</time>
|
|
</trkpt>
|
|
<trkpt lat="55.856812" lon="8.164169">
|
|
<ele>5.178129</ele>
|
|
<time>2026-07-12T09:55:40.000Z</time>
|
|
</trkpt>
|
|
<trkpt lat="55.856853" lon="8.164143">
|
|
<ele>5.177283</ele>
|
|
<time>2026-07-12T09:55:41.000Z</time>
|
|
</trkpt>
|
|
<trkpt lat="55.856892" lon="8.164117">
|
|
<ele>5.176474</ele>
|
|
<time>2026-07-12T09:55:42.000Z</time>
|
|
</trkpt>
|
|
<trkpt lat="55.856934" lon="8.164094">
|
|
<ele>5.175620</ele>
|
|
<time>2026-07-12T09:55:43.000Z</time>
|
|
</trkpt>
|
|
<trkpt lat="55.856972" lon="8.164073">
|
|
<ele>5.174847</ele>
|
|
<time>2026-07-12T09:55:44.000Z</time>
|
|
</trkpt>
|
|
<trkpt lat="55.857014" lon="8.164055">
|
|
<ele>5.174008</ele>
|
|
<time>2026-07-12T09:55:45.000Z</time>
|
|
</trkpt>
|
|
<trkpt lat="55.857052" lon="8.164039">
|
|
<ele>5.173249</ele>
|
|
<time>2026-07-12T09:55:46.000Z</time>
|
|
</trkpt>
|
|
<trkpt lat="55.857094" lon="8.164021">
|
|
<ele>5.172409</ele>
|
|
<time>2026-07-12T09:55:47.000Z</time>
|
|
</trkpt>
|
|
<trkpt lat="55.857136" lon="8.164004">
|
|
<ele>5.171572</ele>
|
|
<time>2026-07-12T09:55:48.000Z</time>
|
|
</trkpt>
|
|
<trkpt lat="55.857174" lon="8.163986">
|
|
<ele>5.170808</ele>
|
|
<time>2026-07-12T09:55:49.000Z</time>
|
|
</trkpt>
|
|
<trkpt lat="55.857216" lon="8.163969">
|
|
<ele>5.169971</ele>
|
|
<time>2026-07-12T09:55:50.000Z</time>
|
|
</trkpt>
|
|
<trkpt lat="55.857254" lon="8.163954">
|
|
<ele>5.169215</ele>
|
|
<time>2026-07-12T09:55:51.000Z</time>
|
|
</trkpt>
|
|
<trkpt lat="55.857296" lon="8.163940">
|
|
<ele>5.168385</ele>
|
|
<time>2026-07-12T09:55:52.000Z</time>
|
|
</trkpt>
|
|
<trkpt lat="55.857338" lon="8.163926">
|
|
<ele>5.167555</ele>
|
|
<time>2026-07-12T09:55:53.000Z</time>
|
|
</trkpt>
|
|
<trkpt lat="55.857372" lon="8.163910">
|
|
<ele>5.166871</ele>
|
|
<time>2026-07-12T09:55:54.000Z</time>
|
|
</trkpt>
|
|
<trkpt lat="55.857410" lon="8.163891">
|
|
<ele>5.166104</ele>
|
|
<time>2026-07-12T09:55:55.000Z</time>
|
|
</trkpt>
|
|
<trkpt lat="55.857449" lon="8.163871">
|
|
<ele>5.165316</ele>
|
|
<time>2026-07-12T09:55:56.000Z</time>
|
|
</trkpt>
|
|
<trkpt lat="55.857487" lon="8.163854">
|
|
<ele>5.164554</ele>
|
|
<time>2026-07-12T09:55:57.000Z</time>
|
|
</trkpt>
|
|
<trkpt lat="55.857521" lon="8.163836">
|
|
<ele>5.163865</ele>
|
|
<time>2026-07-12T09:55:58.000Z</time>
|
|
</trkpt>
|
|
<trkpt lat="55.857555" lon="8.163818">
|
|
<ele>5.163176</ele>
|
|
<time>2026-07-12T09:55:59.000Z</time>
|
|
</trkpt>
|
|
<trkpt lat="55.857590" lon="8.163800">
|
|
<ele>5.162468</ele>
|
|
<time>2026-07-12T09:56:00.000Z</time>
|
|
</trkpt>
|
|
<trkpt lat="55.857620" lon="8.163785">
|
|
<ele>5.161863</ele>
|
|
<time>2026-07-12T09:56:01.000Z</time>
|
|
</trkpt>
|
|
<trkpt lat="55.857655" lon="8.163771">
|
|
<ele>5.161165</ele>
|
|
<time>2026-07-12T09:56:02.000Z</time>
|
|
</trkpt>
|
|
<trkpt lat="55.857693" lon="8.163756">
|
|
<ele>5.160409</ele>
|
|
<time>2026-07-12T09:56:03.000Z</time>
|
|
</trkpt>
|
|
<trkpt lat="55.857731" lon="8.163746">
|
|
<ele>5.159663</ele>
|
|
<time>2026-07-12T09:56:04.000Z</time>
|
|
</trkpt>
|
|
<trkpt lat="55.857769" lon="8.163739">
|
|
<ele>5.166326</ele>
|
|
<time>2026-07-12T09:56:05.000Z</time>
|
|
</trkpt>
|
|
<trkpt lat="55.857811" lon="8.163737">
|
|
<ele>5.178660</ele>
|
|
<time>2026-07-12T09:56:06.000Z</time>
|
|
</trkpt>
|
|
<trkpt lat="55.857853" lon="8.163741">
|
|
<ele>5.191008</ele>
|
|
<time>2026-07-12T09:56:07.000Z</time>
|
|
</trkpt>
|
|
<trkpt lat="55.857899" lon="8.163751">
|
|
<ele>5.204612</ele>
|
|
<time>2026-07-12T09:56:08.000Z</time>
|
|
</trkpt>
|
|
<trkpt lat="55.857941" lon="8.163763">
|
|
<ele>5.217099</ele>
|
|
<time>2026-07-12T09:56:09.000Z</time>
|
|
</trkpt>
|
|
<trkpt lat="55.857983" lon="8.163779">
|
|
<ele>5.229707</ele>
|
|
<time>2026-07-12T09:56:10.000Z</time>
|
|
</trkpt>
|
|
<trkpt lat="55.858028" lon="8.163802">
|
|
<ele>5.243450</ele>
|
|
<time>2026-07-12T09:56:11.000Z</time>
|
|
</trkpt>
|
|
<trkpt lat="55.858070" lon="8.163829">
|
|
<ele>5.256558</ele>
|
|
<time>2026-07-12T09:56:12.000Z</time>
|
|
</trkpt>
|
|
<trkpt lat="55.858112" lon="8.163859">
|
|
<ele>5.269842</ele>
|
|
<time>2026-07-12T09:56:13.000Z</time>
|
|
</trkpt>
|
|
<trkpt lat="55.858154" lon="8.163892">
|
|
<ele>5.283317</ele>
|
|
<time>2026-07-12T09:56:14.000Z</time>
|
|
</trkpt>
|
|
<trkpt lat="55.858196" lon="8.163928">
|
|
<ele>5.296999</ele>
|
|
<time>2026-07-12T09:56:15.000Z</time>
|
|
</trkpt>
|
|
<trkpt lat="55.858238" lon="8.163973">
|
|
<ele>5.311387</ele>
|
|
<time>2026-07-12T09:56:16.000Z</time>
|
|
</trkpt>
|
|
<trkpt lat="55.858280" lon="8.164021">
|
|
<ele>5.326035</ele>
|
|
<time>2026-07-12T09:56:17.000Z</time>
|
|
</trkpt>
|
|
<trkpt lat="55.858318" lon="8.164076">
|
|
<ele>5.340407</ele>
|
|
<time>2026-07-12T09:56:18.000Z</time>
|
|
</trkpt>
|
|
<trkpt lat="55.858356" lon="8.164146">
|
|
<ele>5.356452</ele>
|
|
<time>2026-07-12T09:56:19.000Z</time>
|
|
</trkpt>
|
|
<trkpt lat="55.858391" lon="8.164218">
|
|
<ele>5.372146</ele>
|
|
<time>2026-07-12T09:56:20.000Z</time>
|
|
</trkpt>
|
|
<trkpt lat="55.858418" lon="8.164298">
|
|
<ele>5.387527</ele>
|
|
<time>2026-07-12T09:56:21.000Z</time>
|
|
</trkpt>
|
|
<trkpt lat="55.858444" lon="8.164383">
|
|
<ele>5.403476</ele>
|
|
<time>2026-07-12T09:56:22.000Z</time>
|
|
</trkpt>
|
|
<trkpt lat="55.858463" lon="8.164471">
|
|
<ele>5.419011</ele>
|
|
<time>2026-07-12T09:56:23.000Z</time>
|
|
</trkpt>
|
|
<trkpt lat="55.858479" lon="8.164560">
|
|
<ele>5.434409</ele>
|
|
<time>2026-07-12T09:56:24.000Z</time>
|
|
</trkpt>
|
|
<trkpt lat="55.858486" lon="8.164652">
|
|
<ele>5.449705</ele>
|
|
<time>2026-07-12T09:56:25.000Z</time>
|
|
</trkpt>
|
|
<trkpt lat="55.858490" lon="8.164744">
|
|
<ele>5.464909</ele>
|
|
<time>2026-07-12T09:56:26.000Z</time>
|
|
</trkpt>
|
|
<trkpt lat="55.858494" lon="8.164837">
|
|
<ele>5.480276</ele>
|
|
<time>2026-07-12T09:56:27.000Z</time>
|
|
</trkpt>
|
|
<trkpt lat="55.858501" lon="8.164929">
|
|
<ele>5.495573</ele>
|
|
<time>2026-07-12T09:56:28.000Z</time>
|
|
</trkpt>
|
|
<trkpt lat="55.858517" lon="8.165015">
|
|
<ele>5.510500</ele>
|
|
<time>2026-07-12T09:56:29.000Z</time>
|
|
</trkpt>
|
|
<trkpt lat="55.858532" lon="8.165094">
|
|
<ele>5.524241</ele>
|
|
<time>2026-07-12T09:56:30.000Z</time>
|
|
</trkpt>
|
|
<trkpt lat="55.858551" lon="8.165167">
|
|
<ele>5.537499</ele>
|
|
<time>2026-07-12T09:56:31.000Z</time>
|
|
</trkpt>
|
|
<trkpt lat="55.858566" lon="8.165230">
|
|
<ele>5.548774</ele>
|
|
<time>2026-07-12T09:56:32.000Z</time>
|
|
</trkpt>
|
|
<trkpt lat="55.858582" lon="8.165283">
|
|
<ele>5.558690</ele>
|
|
<time>2026-07-12T09:56:33.000Z</time>
|
|
</trkpt>
|
|
<trkpt lat="55.858593" lon="8.165329">
|
|
<ele>5.566928</ele>
|
|
<time>2026-07-12T09:56:34.000Z</time>
|
|
</trkpt>
|
|
<trkpt lat="55.858601" lon="8.165368">
|
|
<ele>5.573769</ele>
|
|
<time>2026-07-12T09:56:35.000Z</time>
|
|
</trkpt>
|
|
<trkpt lat="55.858608" lon="8.165403">
|
|
<ele>5.579891</ele>
|
|
<time>2026-07-12T09:56:36.000Z</time>
|
|
</trkpt>
|
|
<trkpt lat="55.858616" lon="8.165437">
|
|
<ele>5.585965</ele>
|
|
<time>2026-07-12T09:56:37.000Z</time>
|
|
</trkpt>
|
|
<trkpt lat="55.858620" lon="8.165469">
|
|
<ele>5.591367</ele>
|
|
<time>2026-07-12T09:56:38.000Z</time>
|
|
</trkpt>
|
|
<trkpt lat="55.858627" lon="8.165503">
|
|
<ele>5.597333</ele>
|
|
<time>2026-07-12T09:56:39.000Z</time>
|
|
</trkpt>
|
|
<trkpt lat="55.858631" lon="8.165545">
|
|
<ele>5.604352</ele>
|
|
<time>2026-07-12T09:56:40.000Z</time>
|
|
</trkpt>
|
|
<trkpt lat="55.858635" lon="8.165591">
|
|
<ele>5.612022</ele>
|
|
<time>2026-07-12T09:56:41.000Z</time>
|
|
</trkpt>
|
|
<trkpt lat="55.858639" lon="8.165643">
|
|
<ele>5.620669</ele>
|
|
<time>2026-07-12T09:56:42.000Z</time>
|
|
</trkpt>
|
|
<trkpt lat="55.858635" lon="8.165689">
|
|
<ele>5.628339</ele>
|
|
<time>2026-07-12T09:56:43.000Z</time>
|
|
</trkpt>
|
|
<trkpt lat="55.858631" lon="8.165730">
|
|
<ele>5.635195</ele>
|
|
<time>2026-07-12T09:56:44.000Z</time>
|
|
</trkpt>
|
|
<trkpt lat="55.858616" lon="8.165791">
|
|
<ele>5.646168</ele>
|
|
<time>2026-07-12T09:56:45.000Z</time>
|
|
</trkpt>
|
|
<trkpt lat="55.858604" lon="8.165842">
|
|
<ele>5.655279</ele>
|
|
<time>2026-07-12T09:56:46.000Z</time>
|
|
</trkpt>
|
|
<trkpt lat="55.858589" lon="8.165910">
|
|
<ele>5.667317</ele>
|
|
<time>2026-07-12T09:56:47.000Z</time>
|
|
</trkpt>
|
|
<trkpt lat="55.858578" lon="8.165977">
|
|
<ele>5.678818</ele>
|
|
<time>2026-07-12T09:56:48.000Z</time>
|
|
</trkpt>
|
|
<trkpt lat="55.858570" lon="8.166049">
|
|
<ele>5.679108</ele>
|
|
<time>2026-07-12T09:56:49.000Z</time>
|
|
</trkpt>
|
|
<trkpt lat="55.858570" lon="8.166124">
|
|
<ele>5.649947</ele>
|
|
<time>2026-07-12T09:56:50.000Z</time>
|
|
</trkpt>
|
|
<trkpt lat="55.858589" lon="8.166206">
|
|
<ele>5.615453</ele>
|
|
<time>2026-07-12T09:56:51.000Z</time>
|
|
</trkpt>
|
|
<trkpt lat="55.858627" lon="8.166288">
|
|
<ele>5.574106</ele>
|
|
<time>2026-07-12T09:56:52.000Z</time>
|
|
</trkpt>
|
|
<trkpt lat="55.858669" lon="8.166365">
|
|
<ele>5.532356</ele>
|
|
<time>2026-07-12T09:56:53.000Z</time>
|
|
</trkpt>
|
|
<trkpt lat="55.858707" lon="8.166432">
|
|
<ele>5.495320</ele>
|
|
<time>2026-07-12T09:56:54.000Z</time>
|
|
</trkpt>
|
|
<trkpt lat="55.858746" lon="8.166492">
|
|
<ele>5.459623</ele>
|
|
<time>2026-07-12T09:56:55.000Z</time>
|
|
</trkpt>
|
|
<trkpt lat="55.858768" lon="8.166550">
|
|
<ele>5.432404</ele>
|
|
<time>2026-07-12T09:56:56.000Z</time>
|
|
</trkpt>
|
|
<trkpt lat="55.858788" lon="8.166611">
|
|
<ele>5.404935</ele>
|
|
<time>2026-07-12T09:56:57.000Z</time>
|
|
</trkpt>
|
|
<trkpt lat="55.858803" lon="8.166680">
|
|
<ele>5.376164</ele>
|
|
<time>2026-07-12T09:56:58.000Z</time>
|
|
</trkpt>
|
|
<trkpt lat="55.858818" lon="8.166759">
|
|
<ele>5.343737</ele>
|
|
<time>2026-07-12T09:56:59.000Z</time>
|
|
</trkpt>
|
|
<trkpt lat="55.858829" lon="8.166841">
|
|
<ele>5.310956</ele>
|
|
<time>2026-07-12T09:57:00.000Z</time>
|
|
</trkpt>
|
|
<trkpt lat="55.858841" lon="8.166932">
|
|
<ele>5.274610</ele>
|
|
<time>2026-07-12T09:57:01.000Z</time>
|
|
</trkpt>
|
|
<trkpt lat="55.858845" lon="8.167027">
|
|
<ele>5.237568</ele>
|
|
<time>2026-07-12T09:57:02.000Z</time>
|
|
</trkpt>
|
|
<trkpt lat="55.858849" lon="8.167126">
|
|
<ele>5.198976</ele>
|
|
<time>2026-07-12T09:57:03.000Z</time>
|
|
</trkpt>
|
|
<trkpt lat="55.858856" lon="8.167227">
|
|
<ele>5.159407</ele>
|
|
<time>2026-07-12T09:57:04.000Z</time>
|
|
</trkpt>
|
|
<trkpt lat="55.858856" lon="8.167333">
|
|
<ele>5.118192</ele>
|
|
<time>2026-07-12T09:57:05.000Z</time>
|
|
</trkpt>
|
|
<trkpt lat="55.858860" lon="8.167436">
|
|
<ele>5.078048</ele>
|
|
<time>2026-07-12T09:57:06.000Z</time>
|
|
</trkpt>
|
|
<trkpt lat="55.858864" lon="8.167536">
|
|
<ele>5.039067</ele>
|
|
<time>2026-07-12T09:57:07.000Z</time>
|
|
</trkpt>
|
|
<trkpt lat="55.858879" lon="8.167635">
|
|
<ele>4.999196</ele>
|
|
<time>2026-07-12T09:57:08.000Z</time>
|
|
</trkpt>
|
|
<trkpt lat="55.858894" lon="8.167733">
|
|
<ele>4.959700</ele>
|
|
<time>2026-07-12T09:57:09.000Z</time>
|
|
</trkpt>
|
|
<trkpt lat="55.858910" lon="8.167829">
|
|
<ele>4.920763</ele>
|
|
<time>2026-07-12T09:57:10.000Z</time>
|
|
</trkpt>
|
|
<trkpt lat="55.858925" lon="8.167932">
|
|
<ele>4.879388</ele>
|
|
<time>2026-07-12T09:57:11.000Z</time>
|
|
</trkpt>
|
|
<trkpt lat="55.858936" lon="8.168038">
|
|
<ele>4.837475</ele>
|
|
<time>2026-07-12T09:57:12.000Z</time>
|
|
</trkpt>
|
|
<trkpt lat="55.858952" lon="8.168138">
|
|
<ele>4.797044</ele>
|
|
<time>2026-07-12T09:57:13.000Z</time>
|
|
</trkpt>
|
|
<trkpt lat="55.858967" lon="8.168234">
|
|
<ele>4.758298</ele>
|
|
<time>2026-07-12T09:57:14.000Z</time>
|
|
</trkpt>
|
|
<trkpt lat="55.858986" lon="8.168328">
|
|
<ele>4.719451</ele>
|
|
<time>2026-07-12T09:57:15.000Z</time>
|
|
</trkpt>
|
|
<trkpt lat="55.859009" lon="8.168425">
|
|
<ele>4.678508</ele>
|
|
<time>2026-07-12T09:57:16.000Z</time>
|
|
</trkpt>
|
|
<trkpt lat="55.859039" lon="8.168518">
|
|
<ele>4.636800</ele>
|
|
<time>2026-07-12T09:57:17.000Z</time>
|
|
</trkpt>
|
|
<trkpt lat="55.859074" lon="8.168602">
|
|
<ele>4.596123</ele>
|
|
<time>2026-07-12T09:57:18.000Z</time>
|
|
</trkpt>
|
|
<trkpt lat="55.859112" lon="8.168675">
|
|
<ele>4.557410</ele>
|
|
<time>2026-07-12T09:57:19.000Z</time>
|
|
</trkpt>
|
|
<trkpt lat="55.859154" lon="8.168742">
|
|
<ele>4.518355</ele>
|
|
<time>2026-07-12T09:57:20.000Z</time>
|
|
</trkpt>
|
|
<trkpt lat="55.859192" lon="8.168810">
|
|
<ele>4.481044</ele>
|
|
<time>2026-07-12T09:57:21.000Z</time>
|
|
</trkpt>
|
|
<trkpt lat="55.859230" lon="8.168879">
|
|
<ele>4.443456</ele>
|
|
<time>2026-07-12T09:57:22.000Z</time>
|
|
</trkpt>
|
|
<trkpt lat="55.859264" lon="8.168948">
|
|
<ele>4.439958</ele>
|
|
<time>2026-07-12T09:57:23.000Z</time>
|
|
</trkpt>
|
|
<trkpt lat="55.859299" lon="8.169021">
|
|
<ele>4.438453</ele>
|
|
<time>2026-07-12T09:57:24.000Z</time>
|
|
</trkpt>
|
|
<trkpt lat="55.859333" lon="8.169096">
|
|
<ele>4.436942</ele>
|
|
<time>2026-07-12T09:57:25.000Z</time>
|
|
</trkpt>
|
|
<trkpt lat="55.859364" lon="8.169172">
|
|
<ele>4.435469</ele>
|
|
<time>2026-07-12T09:57:26.000Z</time>
|
|
</trkpt>
|
|
<trkpt lat="55.859398" lon="8.169250">
|
|
<ele>4.433921</ele>
|
|
<time>2026-07-12T09:57:27.000Z</time>
|
|
</trkpt>
|
|
<trkpt lat="55.859428" lon="8.169328">
|
|
<ele>4.432438</ele>
|
|
<time>2026-07-12T09:57:28.000Z</time>
|
|
</trkpt>
|
|
<trkpt lat="55.859459" lon="8.169409">
|
|
<ele>4.430902</ele>
|
|
<time>2026-07-12T09:57:29.000Z</time>
|
|
</trkpt>
|
|
<trkpt lat="55.859489" lon="8.169490">
|
|
<ele>4.429380</ele>
|
|
<time>2026-07-12T09:57:30.000Z</time>
|
|
</trkpt>
|
|
<trkpt lat="55.859516" lon="8.169570">
|
|
<ele>4.427917</ele>
|
|
<time>2026-07-12T09:57:31.000Z</time>
|
|
</trkpt>
|
|
<trkpt lat="55.859539" lon="8.169652">
|
|
<ele>4.426480</ele>
|
|
<time>2026-07-12T09:57:32.000Z</time>
|
|
</trkpt>
|
|
<trkpt lat="55.859566" lon="8.169736">
|
|
<ele>4.424962</ele>
|
|
<time>2026-07-12T09:57:33.000Z</time>
|
|
</trkpt>
|
|
<trkpt lat="55.859589" lon="8.169818">
|
|
<ele>4.423525</ele>
|
|
<time>2026-07-12T09:57:34.000Z</time>
|
|
</trkpt>
|
|
<trkpt lat="55.859615" lon="8.169903">
|
|
<ele>4.422008</ele>
|
|
<time>2026-07-12T09:57:35.000Z</time>
|
|
</trkpt>
|
|
<trkpt lat="55.859638" lon="8.169984">
|
|
<ele>4.420585</ele>
|
|
<time>2026-07-12T09:57:36.000Z</time>
|
|
</trkpt>
|
|
<trkpt lat="55.859661" lon="8.170063">
|
|
<ele>4.419190</ele>
|
|
<time>2026-07-12T09:57:37.000Z</time>
|
|
</trkpt>
|
|
<trkpt lat="55.859688" lon="8.170136">
|
|
<ele>4.417819</ele>
|
|
<time>2026-07-12T09:57:38.000Z</time>
|
|
</trkpt>
|
|
<trkpt lat="55.859715" lon="8.170203">
|
|
<ele>4.416526</ele>
|
|
<time>2026-07-12T09:57:39.000Z</time>
|
|
</trkpt>
|
|
<trkpt lat="55.859741" lon="8.170265">
|
|
<ele>4.415313</ele>
|
|
<time>2026-07-12T09:57:40.000Z</time>
|
|
</trkpt>
|
|
<trkpt lat="55.859768" lon="8.170319">
|
|
<ele>4.414179</ele>
|
|
<time>2026-07-12T09:57:41.000Z</time>
|
|
</trkpt>
|
|
<trkpt lat="55.859795" lon="8.170357">
|
|
<ele>4.413218</ele>
|
|
<time>2026-07-12T09:57:42.000Z</time>
|
|
</trkpt>
|
|
<trkpt lat="55.859818" lon="8.170382">
|
|
<ele>4.412466</ele>
|
|
<time>2026-07-12T09:57:43.000Z</time>
|
|
</trkpt>
|
|
<trkpt lat="55.859840" lon="8.170396">
|
|
<ele>4.411813</ele>
|
|
<time>2026-07-12T09:57:44.000Z</time>
|
|
</trkpt>
|
|
<trkpt lat="55.859859" lon="8.170403">
|
|
<ele>4.411271</ele>
|
|
<time>2026-07-12T09:57:45.000Z</time>
|
|
</trkpt>
|
|
<trkpt lat="55.859879" lon="8.170417">
|
|
<ele>4.410671</ele>
|
|
<time>2026-07-12T09:57:46.000Z</time>
|
|
</trkpt>
|
|
<trkpt lat="55.859894" lon="8.170440">
|
|
<ele>4.410118</ele>
|
|
<time>2026-07-12T09:57:47.000Z</time>
|
|
</trkpt>
|
|
<trkpt lat="55.859905" lon="8.170472">
|
|
<ele>4.409530</ele>
|
|
<time>2026-07-12T09:57:48.000Z</time>
|
|
</trkpt>
|
|
<trkpt lat="55.859913" lon="8.170515">
|
|
<ele>4.408820</ele>
|
|
<time>2026-07-12T09:57:49.000Z</time>
|
|
</trkpt>
|
|
<trkpt lat="55.859913" lon="8.170563">
|
|
<ele>4.408068</ele>
|
|
<time>2026-07-12T09:57:50.000Z</time>
|
|
</trkpt>
|
|
<trkpt lat="55.859913" lon="8.170618">
|
|
<ele>4.407205</ele>
|
|
<time>2026-07-12T09:57:51.000Z</time>
|
|
</trkpt>
|
|
<trkpt lat="55.859917" lon="8.170679">
|
|
<ele>4.406243</ele>
|
|
<time>2026-07-12T09:57:52.000Z</time>
|
|
</trkpt>
|
|
<trkpt lat="55.859920" lon="8.170745">
|
|
<ele>4.405205</ele>
|
|
<time>2026-07-12T09:57:53.000Z</time>
|
|
</trkpt>
|
|
<trkpt lat="55.859928" lon="8.170817">
|
|
<ele>4.404054</ele>
|
|
<time>2026-07-12T09:57:54.000Z</time>
|
|
</trkpt>
|
|
<trkpt lat="55.859936" lon="8.170891">
|
|
<ele>4.402873</ele>
|
|
<time>2026-07-12T09:57:55.000Z</time>
|
|
</trkpt>
|
|
<trkpt lat="55.859943" lon="8.170968">
|
|
<ele>4.401650</ele>
|
|
<time>2026-07-12T09:57:56.000Z</time>
|
|
</trkpt>
|
|
<trkpt lat="55.859951" lon="8.171045">
|
|
<ele>4.400422</ele>
|
|
<time>2026-07-12T09:57:57.000Z</time>
|
|
</trkpt>
|
|
<trkpt lat="55.859962" lon="8.171126">
|
|
<ele>4.399116</ele>
|
|
<time>2026-07-12T09:57:58.000Z</time>
|
|
</trkpt>
|
|
<trkpt lat="55.859974" lon="8.171211">
|
|
<ele>4.397742</ele>
|
|
<time>2026-07-12T09:57:59.000Z</time>
|
|
</trkpt>
|
|
<trkpt lat="55.859981" lon="8.171295">
|
|
<ele>4.396411</ele>
|
|
<time>2026-07-12T09:58:00.000Z</time>
|
|
</trkpt>
|
|
<trkpt lat="55.859993" lon="8.171381">
|
|
<ele>4.395022</ele>
|
|
<time>2026-07-12T09:58:01.000Z</time>
|
|
</trkpt>
|
|
<trkpt lat="55.860001" lon="8.171465">
|
|
<ele>4.393686</ele>
|
|
<time>2026-07-12T09:58:02.000Z</time>
|
|
</trkpt>
|
|
<trkpt lat="55.860012" lon="8.171544">
|
|
<ele>4.392410</ele>
|
|
<time>2026-07-12T09:58:03.000Z</time>
|
|
</trkpt>
|
|
<trkpt lat="55.860020" lon="8.171617">
|
|
<ele>4.391244</ele>
|
|
<time>2026-07-12T09:58:04.000Z</time>
|
|
</trkpt>
|
|
<trkpt lat="55.860023" lon="8.171690">
|
|
<ele>4.392385</ele>
|
|
<time>2026-07-12T09:58:05.000Z</time>
|
|
</trkpt>
|
|
<trkpt lat="55.860035" lon="8.171803">
|
|
<ele>4.394813</ele>
|
|
<time>2026-07-12T09:58:06.000Z</time>
|
|
</trkpt>
|
|
<trkpt lat="55.860039" lon="8.171886">
|
|
<ele>4.396571</ele>
|
|
<time>2026-07-12T09:58:07.000Z</time>
|
|
</trkpt>
|
|
<trkpt lat="55.860043" lon="8.171977">
|
|
<ele>4.398498</ele>
|
|
<time>2026-07-12T09:58:08.000Z</time>
|
|
</trkpt>
|
|
<trkpt lat="55.860054" lon="8.172075">
|
|
<ele>4.400608</ele>
|
|
<time>2026-07-12T09:58:09.000Z</time>
|
|
</trkpt>
|
|
<trkpt lat="55.860065" lon="8.172168">
|
|
<ele>4.402614</ele>
|
|
<time>2026-07-12T09:58:10.000Z</time>
|
|
</trkpt>
|
|
<trkpt lat="55.860073" lon="8.172260">
|
|
<ele>4.404579</ele>
|
|
<time>2026-07-12T09:58:11.000Z</time>
|
|
</trkpt>
|
|
<trkpt lat="55.860081" lon="8.172353">
|
|
<ele>4.406566</ele>
|
|
<time>2026-07-12T09:58:12.000Z</time>
|
|
</trkpt>
|
|
<trkpt lat="55.860085" lon="8.172447">
|
|
<ele>4.408556</ele>
|
|
<time>2026-07-12T09:58:13.000Z</time>
|
|
</trkpt>
|
|
<trkpt lat="55.860088" lon="8.172545">
|
|
<ele>4.410627</ele>
|
|
<time>2026-07-12T09:58:14.000Z</time>
|
|
</trkpt>
|
|
<trkpt lat="55.860092" lon="8.172642">
|
|
<ele>4.412680</ele>
|
|
<time>2026-07-12T09:58:15.000Z</time>
|
|
</trkpt>
|
|
<trkpt lat="55.860096" lon="8.172742">
|
|
<ele>4.414797</ele>
|
|
<time>2026-07-12T09:58:16.000Z</time>
|
|
</trkpt>
|
|
<trkpt lat="55.860104" lon="8.172835">
|
|
<ele>4.416783</ele>
|
|
<time>2026-07-12T09:58:17.000Z</time>
|
|
</trkpt>
|
|
<trkpt lat="55.860111" lon="8.172932">
|
|
<ele>4.418847</ele>
|
|
<time>2026-07-12T09:58:18.000Z</time>
|
|
</trkpt>
|
|
<trkpt lat="55.860119" lon="8.173039">
|
|
<ele>4.421126</ele>
|
|
<time>2026-07-12T09:58:19.000Z</time>
|
|
</trkpt>
|
|
<trkpt lat="55.860127" lon="8.173130">
|
|
<ele>4.423070</ele>
|
|
<time>2026-07-12T09:58:20.000Z</time>
|
|
</trkpt>
|
|
<trkpt lat="55.860138" lon="8.173223">
|
|
<ele>4.425077</ele>
|
|
<time>2026-07-12T09:58:21.000Z</time>
|
|
</trkpt>
|
|
<trkpt lat="55.860149" lon="8.173320">
|
|
<ele>4.427166</ele>
|
|
<time>2026-07-12T09:58:22.000Z</time>
|
|
</trkpt>
|
|
<trkpt lat="55.860153" lon="8.173407">
|
|
<ele>4.429008</ele>
|
|
<time>2026-07-12T09:58:23.000Z</time>
|
|
</trkpt>
|
|
<trkpt lat="55.860153" lon="8.173489">
|
|
<ele>4.430739</ele>
|
|
<time>2026-07-12T09:58:24.000Z</time>
|
|
</trkpt>
|
|
<trkpt lat="55.860157" lon="8.173567">
|
|
<ele>4.432393</ele>
|
|
<time>2026-07-12T09:58:25.000Z</time>
|
|
</trkpt>
|
|
<trkpt lat="55.860161" lon="8.173644">
|
|
<ele>4.434025</ele>
|
|
<time>2026-07-12T09:58:26.000Z</time>
|
|
</trkpt>
|
|
<trkpt lat="55.860168" lon="8.173722">
|
|
<ele>4.435693</ele>
|
|
<time>2026-07-12T09:58:27.000Z</time>
|
|
</trkpt>
|
|
<trkpt lat="55.860172" lon="8.173793">
|
|
<ele>4.437199</ele>
|
|
<time>2026-07-12T09:58:28.000Z</time>
|
|
</trkpt>
|
|
<trkpt lat="55.860176" lon="8.173854">
|
|
<ele>4.438495</ele>
|
|
<time>2026-07-12T09:58:29.000Z</time>
|
|
</trkpt>
|
|
<trkpt lat="55.860176" lon="8.173913">
|
|
<ele>4.439741</ele>
|
|
<time>2026-07-12T09:58:30.000Z</time>
|
|
</trkpt>
|
|
<trkpt lat="55.860176" lon="8.173976">
|
|
<ele>4.441071</ele>
|
|
<time>2026-07-12T09:58:31.000Z</time>
|
|
</trkpt>
|
|
<trkpt lat="55.860176" lon="8.174047">
|
|
<ele>4.442570</ele>
|
|
<time>2026-07-12T09:58:32.000Z</time>
|
|
</trkpt>
|
|
<trkpt lat="55.860188" lon="8.174120">
|
|
<ele>4.444175</ele>
|
|
<time>2026-07-12T09:58:33.000Z</time>
|
|
</trkpt>
|
|
<trkpt lat="55.860199" lon="8.174191">
|
|
<ele>4.445730</ele>
|
|
<time>2026-07-12T09:58:34.000Z</time>
|
|
</trkpt>
|
|
<trkpt lat="55.860210" lon="8.174265">
|
|
<ele>4.447346</ele>
|
|
<time>2026-07-12T09:58:35.000Z</time>
|
|
</trkpt>
|
|
<trkpt lat="55.860222" lon="8.174341">
|
|
<ele>4.449013</ele>
|
|
<time>2026-07-12T09:58:36.000Z</time>
|
|
</trkpt>
|
|
<trkpt lat="55.860222" lon="8.174410">
|
|
<ele>4.450469</ele>
|
|
<time>2026-07-12T09:58:37.000Z</time>
|
|
</trkpt>
|
|
<trkpt lat="55.860222" lon="8.174479">
|
|
<ele>4.451926</ele>
|
|
<time>2026-07-12T09:58:38.000Z</time>
|
|
</trkpt>
|
|
<trkpt lat="55.860226" lon="8.174552">
|
|
<ele>4.453474</ele>
|
|
<time>2026-07-12T09:58:39.000Z</time>
|
|
</trkpt>
|
|
<trkpt lat="55.860222" lon="8.174627">
|
|
<ele>4.455065</ele>
|
|
<time>2026-07-12T09:58:40.000Z</time>
|
|
</trkpt>
|
|
<trkpt lat="55.860226" lon="8.174699">
|
|
<ele>4.456592</ele>
|
|
<time>2026-07-12T09:58:41.000Z</time>
|
|
</trkpt>
|
|
<trkpt lat="55.860230" lon="8.174770">
|
|
<ele>4.458098</ele>
|
|
<time>2026-07-12T09:58:42.000Z</time>
|
|
</trkpt>
|
|
<trkpt lat="55.860230" lon="8.174844">
|
|
<ele>4.453423</ele>
|
|
<time>2026-07-12T09:58:43.000Z</time>
|
|
</trkpt>
|
|
<trkpt lat="55.860233" lon="8.174914">
|
|
<ele>4.445008</ele>
|
|
<time>2026-07-12T09:58:44.000Z</time>
|
|
</trkpt>
|
|
<trkpt lat="55.860241" lon="8.174991">
|
|
<ele>4.435623</ele>
|
|
<time>2026-07-12T09:58:45.000Z</time>
|
|
</trkpt>
|
|
<trkpt lat="55.860252" lon="8.175062">
|
|
<ele>4.426795</ele>
|
|
<time>2026-07-12T09:58:46.000Z</time>
|
|
</trkpt>
|
|
<trkpt lat="55.860268" lon="8.175121">
|
|
<ele>4.418941</ele>
|
|
<time>2026-07-12T09:58:47.000Z</time>
|
|
</trkpt>
|
|
<trkpt lat="55.860298" lon="8.175194">
|
|
<ele>4.408097</ele>
|
|
<time>2026-07-12T09:58:48.000Z</time>
|
|
</trkpt>
|
|
<trkpt lat="55.860329" lon="8.175227">
|
|
<ele>4.400385</ele>
|
|
<time>2026-07-12T09:58:49.000Z</time>
|
|
</trkpt>
|
|
<trkpt lat="55.860359" lon="8.175243">
|
|
<ele>4.393697</ele>
|
|
<time>2026-07-12T09:58:50.000Z</time>
|
|
</trkpt>
|
|
<trkpt lat="55.860394" lon="8.175248">
|
|
<ele>4.386199</ele>
|
|
<time>2026-07-12T09:58:51.000Z</time>
|
|
</trkpt>
|
|
<trkpt lat="55.860432" lon="8.175247">
|
|
<ele>4.378083</ele>
|
|
<time>2026-07-12T09:58:52.000Z</time>
|
|
</trkpt>
|
|
<trkpt lat="55.860466" lon="8.175244">
|
|
<ele>4.370813</ele>
|
|
<time>2026-07-12T09:58:53.000Z</time>
|
|
</trkpt>
|
|
<trkpt lat="55.860504" lon="8.175239">
|
|
<ele>4.362675</ele>
|
|
<time>2026-07-12T09:58:54.000Z</time>
|
|
</trkpt>
|
|
<trkpt lat="55.860546" lon="8.175231">
|
|
<ele>4.353654</ele>
|
|
<time>2026-07-12T09:58:55.000Z</time>
|
|
</trkpt>
|
|
<trkpt lat="55.860596" lon="8.175225">
|
|
<ele>4.342952</ele>
|
|
<time>2026-07-12T09:58:56.000Z</time>
|
|
</trkpt>
|
|
<trkpt lat="55.860653" lon="8.175221">
|
|
<ele>4.330770</ele>
|
|
<time>2026-07-12T09:58:57.000Z</time>
|
|
</trkpt>
|
|
<trkpt lat="55.860703" lon="8.175218">
|
|
<ele>4.320086</ele>
|
|
<time>2026-07-12T09:58:58.000Z</time>
|
|
</trkpt>
|
|
<trkpt lat="55.860748" lon="8.175213">
|
|
<ele>4.310457</ele>
|
|
<time>2026-07-12T09:58:59.000Z</time>
|
|
</trkpt>
|
|
<trkpt lat="55.860802" lon="8.175204">
|
|
<ele>4.298874</ele>
|
|
<time>2026-07-12T09:59:00.000Z</time>
|
|
</trkpt>
|
|
<trkpt lat="55.860851" lon="8.175196">
|
|
<ele>4.288366</ele>
|
|
<time>2026-07-12T09:59:01.000Z</time>
|
|
</trkpt>
|
|
<trkpt lat="55.860905" lon="8.175183">
|
|
<ele>4.276728</ele>
|
|
<time>2026-07-12T09:59:02.000Z</time>
|
|
</trkpt>
|
|
<trkpt lat="55.860950" lon="8.175174">
|
|
<ele>4.267058</ele>
|
|
<time>2026-07-12T09:59:03.000Z</time>
|
|
</trkpt>
|
|
<trkpt lat="55.860992" lon="8.175167">
|
|
<ele>4.258049</ele>
|
|
<time>2026-07-12T09:59:04.000Z</time>
|
|
</trkpt>
|
|
<trkpt lat="55.861038" lon="8.175158">
|
|
<ele>4.248166</ele>
|
|
<time>2026-07-12T09:59:05.000Z</time>
|
|
</trkpt>
|
|
<trkpt lat="55.861084" lon="8.175145">
|
|
<ele>4.238220</ele>
|
|
<time>2026-07-12T09:59:06.000Z</time>
|
|
</trkpt>
|
|
<trkpt lat="55.861141" lon="8.175128">
|
|
<ele>4.225877</ele>
|
|
<time>2026-07-12T09:59:07.000Z</time>
|
|
</trkpt>
|
|
<trkpt lat="55.861202" lon="8.175110">
|
|
<ele>4.212673</ele>
|
|
<time>2026-07-12T09:59:08.000Z</time>
|
|
</trkpt>
|
|
<trkpt lat="55.861263" lon="8.175090">
|
|
<ele>4.199427</ele>
|
|
<time>2026-07-12T09:59:09.000Z</time>
|
|
</trkpt>
|
|
<trkpt lat="55.861324" lon="8.175069">
|
|
<ele>4.186158</ele>
|
|
<time>2026-07-12T09:59:10.000Z</time>
|
|
</trkpt>
|
|
<trkpt lat="55.861385" lon="8.175048">
|
|
<ele>4.172890</ele>
|
|
<time>2026-07-12T09:59:11.000Z</time>
|
|
</trkpt>
|
|
<trkpt lat="55.861446" lon="8.175024">
|
|
<ele>4.159549</ele>
|
|
<time>2026-07-12T09:59:12.000Z</time>
|
|
</trkpt>
|
|
<trkpt lat="55.861504" lon="8.175000">
|
|
<ele>4.146833</ele>
|
|
<time>2026-07-12T09:59:13.000Z</time>
|
|
</trkpt>
|
|
<trkpt lat="55.861561" lon="8.174977">
|
|
<ele>4.134352</ele>
|
|
<time>2026-07-12T09:59:14.000Z</time>
|
|
</trkpt>
|
|
<trkpt lat="55.861614" lon="8.174954">
|
|
<ele>4.122702</ele>
|
|
<time>2026-07-12T09:59:15.000Z</time>
|
|
</trkpt>
|
|
<trkpt lat="55.861664" lon="8.174933">
|
|
<ele>4.111732</ele>
|
|
<time>2026-07-12T09:59:16.000Z</time>
|
|
</trkpt>
|
|
<trkpt lat="55.861713" lon="8.174914">
|
|
<ele>4.101022</ele>
|
|
<time>2026-07-12T09:59:17.000Z</time>
|
|
</trkpt>
|
|
<trkpt lat="55.861763" lon="8.174893">
|
|
<ele>4.090051</ele>
|
|
<time>2026-07-12T09:59:18.000Z</time>
|
|
</trkpt>
|
|
<trkpt lat="55.861813" lon="8.174872">
|
|
<ele>4.079081</ele>
|
|
<time>2026-07-12T09:59:19.000Z</time>
|
|
</trkpt>
|
|
<trkpt lat="55.861862" lon="8.174855">
|
|
<ele>4.073201</ele>
|
|
<time>2026-07-12T09:59:20.000Z</time>
|
|
</trkpt>
|
|
<trkpt lat="55.861904" lon="8.174839">
|
|
<ele>4.071119</ele>
|
|
<time>2026-07-12T09:59:21.000Z</time>
|
|
</trkpt>
|
|
<trkpt lat="55.861942" lon="8.174822">
|
|
<ele>4.069220</ele>
|
|
<time>2026-07-12T09:59:22.000Z</time>
|
|
</trkpt>
|
|
<trkpt lat="55.861980" lon="8.174801">
|
|
<ele>4.067292</ele>
|
|
<time>2026-07-12T09:59:23.000Z</time>
|
|
</trkpt>
|
|
<trkpt lat="55.862022" lon="8.174780">
|
|
<ele>4.065178</ele>
|
|
<time>2026-07-12T09:59:24.000Z</time>
|
|
</trkpt>
|
|
<trkpt lat="55.862064" lon="8.174759">
|
|
<ele>4.063063</ele>
|
|
<time>2026-07-12T09:59:25.000Z</time>
|
|
</trkpt>
|
|
<trkpt lat="55.862114" lon="8.174739">
|
|
<ele>4.060580</ele>
|
|
<time>2026-07-12T09:59:26.000Z</time>
|
|
</trkpt>
|
|
<trkpt lat="55.862164" lon="8.174725">
|
|
<ele>4.058126</ele>
|
|
<time>2026-07-12T09:59:27.000Z</time>
|
|
</trkpt>
|
|
<trkpt lat="55.862213" lon="8.174713">
|
|
<ele>4.055729</ele>
|
|
<time>2026-07-12T09:59:28.000Z</time>
|
|
</trkpt>
|
|
<trkpt lat="55.862270" lon="8.174703">
|
|
<ele>4.052953</ele>
|
|
<time>2026-07-12T09:59:29.000Z</time>
|
|
</trkpt>
|
|
<trkpt lat="55.862324" lon="8.174692">
|
|
<ele>4.050319</ele>
|
|
<time>2026-07-12T09:59:30.000Z</time>
|
|
</trkpt>
|
|
<trkpt lat="55.862373" lon="8.174680">
|
|
<ele>4.047921</ele>
|
|
<time>2026-07-12T09:59:31.000Z</time>
|
|
</trkpt>
|
|
<trkpt lat="55.862419" lon="8.174663">
|
|
<ele>4.045644</ele>
|
|
<time>2026-07-12T09:59:32.000Z</time>
|
|
</trkpt>
|
|
<trkpt lat="55.862465" lon="8.174641">
|
|
<ele>4.043336</ele>
|
|
<time>2026-07-12T09:59:33.000Z</time>
|
|
</trkpt>
|
|
<trkpt lat="55.862518" lon="8.174619">
|
|
<ele>4.040698</ele>
|
|
<time>2026-07-12T09:59:34.000Z</time>
|
|
</trkpt>
|
|
<trkpt lat="55.862568" lon="8.174603">
|
|
<ele>4.038236</ele>
|
|
<time>2026-07-12T09:59:35.000Z</time>
|
|
</trkpt>
|
|
<trkpt lat="55.862621" lon="8.174595">
|
|
<ele>4.035658</ele>
|
|
<time>2026-07-12T09:59:36.000Z</time>
|
|
</trkpt>
|
|
<trkpt lat="55.862671" lon="8.174589">
|
|
<ele>4.033229</ele>
|
|
<time>2026-07-12T09:59:37.000Z</time>
|
|
</trkpt>
|
|
<trkpt lat="55.862724" lon="8.174583">
|
|
<ele>4.030655</ele>
|
|
<time>2026-07-12T09:59:38.000Z</time>
|
|
</trkpt>
|
|
<trkpt lat="55.862778" lon="8.174576">
|
|
<ele>4.028030</ele>
|
|
<time>2026-07-12T09:59:39.000Z</time>
|
|
</trkpt>
|
|
<trkpt lat="55.862831" lon="8.174565">
|
|
<ele>4.025444</ele>
|
|
<time>2026-07-12T09:59:40.000Z</time>
|
|
</trkpt>
|
|
<trkpt lat="55.862881" lon="8.174550">
|
|
<ele>4.022987</ele>
|
|
<time>2026-07-12T09:59:41.000Z</time>
|
|
</trkpt>
|
|
<trkpt lat="55.862934" lon="8.174528">
|
|
<ele>4.020349</ele>
|
|
<time>2026-07-12T09:59:42.000Z</time>
|
|
</trkpt>
|
|
<trkpt lat="55.862987" lon="8.174503">
|
|
<ele>4.017692</ele>
|
|
<time>2026-07-12T09:59:43.000Z</time>
|
|
</trkpt>
|
|
<trkpt lat="55.863037" lon="8.174480">
|
|
<ele>4.015189</ele>
|
|
<time>2026-07-12T09:59:44.000Z</time>
|
|
</trkpt>
|
|
<trkpt lat="55.863091" lon="8.174460">
|
|
<ele>4.012515</ele>
|
|
<time>2026-07-12T09:59:45.000Z</time>
|
|
</trkpt>
|
|
<trkpt lat="55.863144" lon="8.174448">
|
|
<ele>4.009926</ele>
|
|
<time>2026-07-12T09:59:46.000Z</time>
|
|
</trkpt>
|
|
<trkpt lat="55.863197" lon="8.174441">
|
|
<ele>4.007350</ele>
|
|
<time>2026-07-12T09:59:47.000Z</time>
|
|
</trkpt>
|
|
<trkpt lat="55.863251" lon="8.174437">
|
|
<ele>4.004730</ele>
|
|
<time>2026-07-12T09:59:48.000Z</time>
|
|
</trkpt>
|
|
<trkpt lat="55.863300" lon="8.174431">
|
|
<ele>4.002350</ele>
|
|
<time>2026-07-12T09:59:49.000Z</time>
|
|
</trkpt>
|
|
<trkpt lat="55.863354" lon="8.174425">
|
|
<ele>3.999727</ele>
|
|
<time>2026-07-12T09:59:50.000Z</time>
|
|
</trkpt>
|
|
<trkpt lat="55.863411" lon="8.174417">
|
|
<ele>3.996956</ele>
|
|
<time>2026-07-12T09:59:51.000Z</time>
|
|
</trkpt>
|
|
<trkpt lat="55.863464" lon="8.174410">
|
|
<ele>3.994380</ele>
|
|
<time>2026-07-12T09:59:52.000Z</time>
|
|
</trkpt>
|
|
<trkpt lat="55.863518" lon="8.174400">
|
|
<ele>3.991749</ele>
|
|
<time>2026-07-12T09:59:53.000Z</time>
|
|
</trkpt>
|
|
<trkpt lat="55.863567" lon="8.174390">
|
|
<ele>3.989358</ele>
|
|
<time>2026-07-12T09:59:54.000Z</time>
|
|
</trkpt>
|
|
<trkpt lat="55.863621" lon="8.174382">
|
|
<ele>3.989103</ele>
|
|
<time>2026-07-12T09:59:55.000Z</time>
|
|
</trkpt>
|
|
<trkpt lat="55.863678" lon="8.174375">
|
|
<ele>3.995795</ele>
|
|
<time>2026-07-12T09:59:56.000Z</time>
|
|
</trkpt>
|
|
<trkpt lat="55.863731" lon="8.174367">
|
|
<ele>4.002026</ele>
|
|
<time>2026-07-12T09:59:57.000Z</time>
|
|
</trkpt>
|
|
<trkpt lat="55.863785" lon="8.174360">
|
|
<ele>4.008368</ele>
|
|
<time>2026-07-12T09:59:58.000Z</time>
|
|
</trkpt>
|
|
<trkpt lat="55.863834" lon="8.174352">
|
|
<ele>4.014131</ele>
|
|
<time>2026-07-12T09:59:59.000Z</time>
|
|
</trkpt>
|
|
<trkpt lat="55.863888" lon="8.174341">
|
|
<ele>4.020498</ele>
|
|
<time>2026-07-12T10:00:00.000Z</time>
|
|
</trkpt>
|
|
<trkpt lat="55.863945" lon="8.174330">
|
|
<ele>4.027213</ele>
|
|
<time>2026-07-12T10:00:01.000Z</time>
|
|
</trkpt>
|
|
<trkpt lat="55.863998" lon="8.174321">
|
|
<ele>4.033450</ele>
|
|
<time>2026-07-12T10:00:02.000Z</time>
|
|
</trkpt>
|
|
<trkpt lat="55.864052" lon="8.174311">
|
|
<ele>4.039809</ele>
|
|
<time>2026-07-12T10:00:03.000Z</time>
|
|
</trkpt>
|
|
<trkpt lat="55.864098" lon="8.174299">
|
|
<ele>4.045254</ele>
|
|
<time>2026-07-12T10:00:04.000Z</time>
|
|
</trkpt>
|
|
<trkpt lat="55.864147" lon="8.174285">
|
|
<ele>4.051067</ele>
|
|
<time>2026-07-12T10:00:05.000Z</time>
|
|
</trkpt>
|
|
<trkpt lat="55.864204" lon="8.174265">
|
|
<ele>4.057872</ele>
|
|
<time>2026-07-12T10:00:06.000Z</time>
|
|
</trkpt>
|
|
<trkpt lat="55.864258" lon="8.174250">
|
|
<ele>4.064274</ele>
|
|
<time>2026-07-12T10:00:07.000Z</time>
|
|
</trkpt>
|
|
<trkpt lat="55.864311" lon="8.174237">
|
|
<ele>4.070540</ele>
|
|
<time>2026-07-12T10:00:08.000Z</time>
|
|
</trkpt>
|
|
<trkpt lat="55.864361" lon="8.174227">
|
|
<ele>4.076434</ele>
|
|
<time>2026-07-12T10:00:09.000Z</time>
|
|
</trkpt>
|
|
<trkpt lat="55.864410" lon="8.174215">
|
|
<ele>4.082227</ele>
|
|
<time>2026-07-12T10:00:10.000Z</time>
|
|
</trkpt>
|
|
<trkpt lat="55.864460" lon="8.174200">
|
|
<ele>4.088166</ele>
|
|
<time>2026-07-12T10:00:11.000Z</time>
|
|
</trkpt>
|
|
<trkpt lat="55.864510" lon="8.174185">
|
|
<ele>4.094105</ele>
|
|
<time>2026-07-12T10:00:12.000Z</time>
|
|
</trkpt>
|
|
<trkpt lat="55.864555" lon="8.174173">
|
|
<ele>4.099435</ele>
|
|
<time>2026-07-12T10:00:13.000Z</time>
|
|
</trkpt>
|
|
<trkpt lat="55.864601" lon="8.174165">
|
|
<ele>4.104849</ele>
|
|
<time>2026-07-12T10:00:14.000Z</time>
|
|
</trkpt>
|
|
<trkpt lat="55.864651" lon="8.174155">
|
|
<ele>4.110742</ele>
|
|
<time>2026-07-12T10:00:15.000Z</time>
|
|
</trkpt>
|
|
<trkpt lat="55.864693" lon="8.174145">
|
|
<ele>4.115706</ele>
|
|
<time>2026-07-12T10:00:16.000Z</time>
|
|
</trkpt>
|
|
<trkpt lat="55.864742" lon="8.174132">
|
|
<ele>4.121509</ele>
|
|
<time>2026-07-12T10:00:17.000Z</time>
|
|
</trkpt>
|
|
<trkpt lat="55.864792" lon="8.174119">
|
|
<ele>4.127427</ele>
|
|
<time>2026-07-12T10:00:18.000Z</time>
|
|
</trkpt>
|
|
<trkpt lat="55.864838" lon="8.174107">
|
|
<ele>4.132873</ele>
|
|
<time>2026-07-12T10:00:19.000Z</time>
|
|
</trkpt>
|
|
<trkpt lat="55.864887" lon="8.174099">
|
|
<ele>4.138636</ele>
|
|
<time>2026-07-12T10:00:20.000Z</time>
|
|
</trkpt>
|
|
<trkpt lat="55.864933" lon="8.174091">
|
|
<ele>4.144050</ele>
|
|
<time>2026-07-12T10:00:21.000Z</time>
|
|
</trkpt>
|
|
<trkpt lat="55.864979" lon="8.174082">
|
|
<ele>4.149471</ele>
|
|
<time>2026-07-12T10:00:22.000Z</time>
|
|
</trkpt>
|
|
<trkpt lat="55.865021" lon="8.174070">
|
|
<ele>4.154453</ele>
|
|
<time>2026-07-12T10:00:23.000Z</time>
|
|
</trkpt>
|
|
<trkpt lat="55.865063" lon="8.174059">
|
|
<ele>4.159426</ele>
|
|
<time>2026-07-12T10:00:24.000Z</time>
|
|
</trkpt>
|
|
<trkpt lat="55.865108" lon="8.174048">
|
|
<ele>4.164746</ele>
|
|
<time>2026-07-12T10:00:25.000Z</time>
|
|
</trkpt>
|
|
<trkpt lat="55.865154" lon="8.174037">
|
|
<ele>4.170182</ele>
|
|
<time>2026-07-12T10:00:26.000Z</time>
|
|
</trkpt>
|
|
<trkpt lat="55.865200" lon="8.174024">
|
|
<ele>4.175638</ele>
|
|
<time>2026-07-12T10:00:27.000Z</time>
|
|
</trkpt>
|
|
<trkpt lat="55.865242" lon="8.174011">
|
|
<ele>4.180631</ele>
|
|
<time>2026-07-12T10:00:28.000Z</time>
|
|
</trkpt>
|
|
<trkpt lat="55.865280" lon="8.174000">
|
|
<ele>4.185141</ele>
|
|
<time>2026-07-12T10:00:29.000Z</time>
|
|
</trkpt>
|
|
<trkpt lat="55.865318" lon="8.173986">
|
|
<ele>4.189686</ele>
|
|
<time>2026-07-12T10:00:30.000Z</time>
|
|
</trkpt>
|
|
<trkpt lat="55.865349" lon="8.173976">
|
|
<ele>4.193376</ele>
|
|
<time>2026-07-12T10:00:31.000Z</time>
|
|
</trkpt>
|
|
<trkpt lat="55.865387" lon="8.173968">
|
|
<ele>4.197858</ele>
|
|
<time>2026-07-12T10:00:32.000Z</time>
|
|
</trkpt>
|
|
<trkpt lat="55.865417" lon="8.173967">
|
|
<ele>4.202593</ele>
|
|
<time>2026-07-12T10:00:33.000Z</time>
|
|
</trkpt>
|
|
<trkpt lat="55.865448" lon="8.173970">
|
|
<ele>4.207588</ele>
|
|
<time>2026-07-12T10:00:34.000Z</time>
|
|
</trkpt>
|
|
<trkpt lat="55.865467" lon="8.173973">
|
|
<ele>4.210657</ele>
|
|
<time>2026-07-12T10:00:35.000Z</time>
|
|
</trkpt>
|
|
<trkpt lat="55.865486" lon="8.173977">
|
|
<ele>4.213735</ele>
|
|
<time>2026-07-12T10:00:36.000Z</time>
|
|
</trkpt>
|
|
<trkpt lat="55.865509" lon="8.173980">
|
|
<ele>4.217446</ele>
|
|
<time>2026-07-12T10:00:37.000Z</time>
|
|
</trkpt>
|
|
<trkpt lat="55.865532" lon="8.173983">
|
|
<ele>4.221156</ele>
|
|
<time>2026-07-12T10:00:38.000Z</time>
|
|
</trkpt>
|
|
<trkpt lat="55.865551" lon="8.173983">
|
|
<ele>4.224213</ele>
|
|
<time>2026-07-12T10:00:39.000Z</time>
|
|
</trkpt>
|
|
<trkpt lat="55.865566" lon="8.173981">
|
|
<ele>4.226634</ele>
|
|
<time>2026-07-12T10:00:40.000Z</time>
|
|
</trkpt>
|
|
<trkpt lat="55.865585" lon="8.173976">
|
|
<ele>4.229724</ele>
|
|
<time>2026-07-12T10:00:41.000Z</time>
|
|
</trkpt>
|
|
<trkpt lat="55.865604" lon="8.173969">
|
|
<ele>4.232845</ele>
|
|
<time>2026-07-12T10:00:42.000Z</time>
|
|
</trkpt>
|
|
<trkpt lat="55.865620" lon="8.173966">
|
|
<ele>4.235434</ele>
|
|
<time>2026-07-12T10:00:43.000Z</time>
|
|
</trkpt>
|
|
<trkpt lat="55.865643" lon="8.173967">
|
|
<ele>4.239136</ele>
|
|
<time>2026-07-12T10:00:44.000Z</time>
|
|
</trkpt>
|
|
<trkpt lat="55.865665" lon="8.173966">
|
|
<ele>4.242677</ele>
|
|
<time>2026-07-12T10:00:45.000Z</time>
|
|
</trkpt>
|
|
<trkpt lat="55.865688" lon="8.173962">
|
|
<ele>4.246395</ele>
|
|
<time>2026-07-12T10:00:46.000Z</time>
|
|
</trkpt>
|
|
<trkpt lat="55.865704" lon="8.173950">
|
|
<ele>4.249188</ele>
|
|
<time>2026-07-12T10:00:47.000Z</time>
|
|
</trkpt>
|
|
<trkpt lat="55.865715" lon="8.173933">
|
|
<ele>4.251531</ele>
|
|
<time>2026-07-12T10:00:48.000Z</time>
|
|
</trkpt>
|
|
<trkpt lat="55.865723" lon="8.173908">
|
|
<ele>4.254129</ele>
|
|
<time>2026-07-12T10:00:49.000Z</time>
|
|
</trkpt>
|
|
<trkpt lat="55.865726" lon="8.173879">
|
|
<ele>4.256791</ele>
|
|
<time>2026-07-12T10:00:50.000Z</time>
|
|
</trkpt>
|
|
<trkpt lat="55.865723" lon="8.173848">
|
|
<ele>4.259632</ele>
|
|
<time>2026-07-12T10:00:51.000Z</time>
|
|
</trkpt>
|
|
<trkpt lat="55.865719" lon="8.173812">
|
|
<ele>4.262945</ele>
|
|
<time>2026-07-12T10:00:52.000Z</time>
|
|
</trkpt>
|
|
<trkpt lat="55.865719" lon="8.173771">
|
|
<ele>4.266647</ele>
|
|
<time>2026-07-12T10:00:53.000Z</time>
|
|
</trkpt>
|
|
<trkpt lat="55.865715" lon="8.173733">
|
|
<ele>4.270137</ele>
|
|
<time>2026-07-12T10:00:54.000Z</time>
|
|
</trkpt>
|
|
<trkpt lat="55.865711" lon="8.173694">
|
|
<ele>4.273717</ele>
|
|
<time>2026-07-12T10:00:55.000Z</time>
|
|
</trkpt>
|
|
<trkpt lat="55.865704" lon="8.173635">
|
|
<ele>4.279162</ele>
|
|
<time>2026-07-12T10:00:56.000Z</time>
|
|
</trkpt>
|
|
<trkpt lat="55.865704" lon="8.173584">
|
|
<ele>4.283766</ele>
|
|
<time>2026-07-12T10:00:57.000Z</time>
|
|
</trkpt>
|
|
<trkpt lat="55.865707" lon="8.173511">
|
|
<ele>4.290375</ele>
|
|
<time>2026-07-12T10:00:58.000Z</time>
|
|
</trkpt>
|
|
<trkpt lat="55.865707" lon="8.173438">
|
|
<ele>4.296965</ele>
|
|
<time>2026-07-12T10:00:59.000Z</time>
|
|
</trkpt>
|
|
<trkpt lat="55.865704" lon="8.173359">
|
|
<ele>4.304114</ele>
|
|
<time>2026-07-12T10:01:00.000Z</time>
|
|
</trkpt>
|
|
<trkpt lat="55.865696" lon="8.173285">
|
|
<ele>4.310918</ele>
|
|
<time>2026-07-12T10:01:01.000Z</time>
|
|
</trkpt>
|
|
<trkpt lat="55.865688" lon="8.173210">
|
|
<ele>4.317811</ele>
|
|
<time>2026-07-12T10:01:02.000Z</time>
|
|
</trkpt>
|
|
<trkpt lat="55.865685" lon="8.173133">
|
|
<ele>4.324780</ele>
|
|
<time>2026-07-12T10:01:03.000Z</time>
|
|
</trkpt>
|
|
<trkpt lat="55.865685" lon="8.173061">
|
|
<ele>4.331280</ele>
|
|
<time>2026-07-12T10:01:04.000Z</time>
|
|
</trkpt>
|
|
<trkpt lat="55.865692" lon="8.172991">
|
|
<ele>4.337700</ele>
|
|
<time>2026-07-12T10:01:05.000Z</time>
|
|
</trkpt>
|
|
<trkpt lat="55.865700" lon="8.172911">
|
|
<ele>4.345036</ele>
|
|
<time>2026-07-12T10:01:06.000Z</time>
|
|
</trkpt>
|
|
<trkpt lat="55.865700" lon="8.172844">
|
|
<ele>4.351086</ele>
|
|
<time>2026-07-12T10:01:07.000Z</time>
|
|
</trkpt>
|
|
<trkpt lat="55.865704" lon="8.172784">
|
|
<ele>4.356541</ele>
|
|
<time>2026-07-12T10:01:08.000Z</time>
|
|
</trkpt>
|
|
<trkpt lat="55.865719" lon="8.172732">
|
|
<ele>4.361820</ele>
|
|
<time>2026-07-12T10:01:09.000Z</time>
|
|
</trkpt>
|
|
<trkpt lat="55.865742" lon="8.172694">
|
|
<ele>4.366866</ele>
|
|
<time>2026-07-12T10:01:10.000Z</time>
|
|
</trkpt>
|
|
<trkpt lat="55.865768" lon="8.172667">
|
|
<ele>4.371708</ele>
|
|
<time>2026-07-12T10:01:11.000Z</time>
|
|
</trkpt>
|
|
<trkpt lat="55.865799" lon="8.172648">
|
|
<ele>4.376982</ele>
|
|
<time>2026-07-12T10:01:12.000Z</time>
|
|
</trkpt>
|
|
<trkpt lat="55.865829" lon="8.172647">
|
|
<ele>4.381810</ele>
|
|
<time>2026-07-12T10:01:13.000Z</time>
|
|
</trkpt>
|
|
<trkpt lat="55.865868" lon="8.172655">
|
|
<ele>4.388127</ele>
|
|
<time>2026-07-12T10:01:14.000Z</time>
|
|
</trkpt>
|
|
<trkpt lat="55.865902" lon="8.172665">
|
|
<ele>4.393671</ele>
|
|
<time>2026-07-12T10:01:15.000Z</time>
|
|
</trkpt>
|
|
<trkpt lat="55.865940" lon="8.172673">
|
|
<ele>4.399828</ele>
|
|
<time>2026-07-12T10:01:16.000Z</time>
|
|
</trkpt>
|
|
<trkpt lat="55.865978" lon="8.172683">
|
|
<ele>4.406008</ele>
|
|
<time>2026-07-12T10:01:17.000Z</time>
|
|
</trkpt>
|
|
<trkpt lat="55.866020" lon="8.172697">
|
|
<ele>4.412883</ele>
|
|
<time>2026-07-12T10:01:18.000Z</time>
|
|
</trkpt>
|
|
<trkpt lat="55.866066" lon="8.172713">
|
|
<ele>4.420424</ele>
|
|
<time>2026-07-12T10:01:19.000Z</time>
|
|
</trkpt>
|
|
<trkpt lat="55.866108" lon="8.172728">
|
|
<ele>4.427316</ele>
|
|
<time>2026-07-12T10:01:20.000Z</time>
|
|
</trkpt>
|
|
<trkpt lat="55.866150" lon="8.172740">
|
|
<ele>4.434160</ele>
|
|
<time>2026-07-12T10:01:21.000Z</time>
|
|
</trkpt>
|
|
<trkpt lat="55.866196" lon="8.172754">
|
|
<ele>4.441669</ele>
|
|
<time>2026-07-12T10:01:22.000Z</time>
|
|
</trkpt>
|
|
<trkpt lat="55.866238" lon="8.172769">
|
|
<ele>4.448561</ele>
|
|
<time>2026-07-12T10:01:23.000Z</time>
|
|
</trkpt>
|
|
<trkpt lat="55.866283" lon="8.172786">
|
|
<ele>4.455962</ele>
|
|
<time>2026-07-12T10:01:24.000Z</time>
|
|
</trkpt>
|
|
<trkpt lat="55.866325" lon="8.172805">
|
|
<ele>4.462934</ele>
|
|
<time>2026-07-12T10:01:25.000Z</time>
|
|
</trkpt>
|
|
<trkpt lat="55.866367" lon="8.172825">
|
|
<ele>4.469929</ele>
|
|
<time>2026-07-12T10:01:26.000Z</time>
|
|
</trkpt>
|
|
<trkpt lat="55.866409" lon="8.172842">
|
|
<ele>4.476859</ele>
|
|
<time>2026-07-12T10:01:27.000Z</time>
|
|
</trkpt>
|
|
<trkpt lat="55.866451" lon="8.172854">
|
|
<ele>4.483703</ele>
|
|
<time>2026-07-12T10:01:28.000Z</time>
|
|
</trkpt>
|
|
<trkpt lat="55.866489" lon="8.172864">
|
|
<ele>4.483743</ele>
|
|
<time>2026-07-12T10:01:29.000Z</time>
|
|
</trkpt>
|
|
<trkpt lat="55.866531" lon="8.172874">
|
|
<ele>4.472947</ele>
|
|
<time>2026-07-12T10:01:30.000Z</time>
|
|
</trkpt>
|
|
<trkpt lat="55.866577" lon="8.172888">
|
|
<ele>4.461058</ele>
|
|
<time>2026-07-12T10:01:31.000Z</time>
|
|
</trkpt>
|
|
<trkpt lat="55.866623" lon="8.172906">
|
|
<ele>4.449060</ele>
|
|
<time>2026-07-12T10:01:32.000Z</time>
|
|
</trkpt>
|
|
<trkpt lat="55.866676" lon="8.172924">
|
|
<ele>4.435314</ele>
|
|
<time>2026-07-12T10:01:33.000Z</time>
|
|
</trkpt>
|
|
<trkpt lat="55.866722" lon="8.172940">
|
|
<ele>4.423373</ele>
|
|
<time>2026-07-12T10:01:34.000Z</time>
|
|
</trkpt>
|
|
<trkpt lat="55.866768" lon="8.172957">
|
|
<ele>4.411405</ele>
|
|
<time>2026-07-12T10:01:35.000Z</time>
|
|
</trkpt>
|
|
<trkpt lat="55.866817" lon="8.172976">
|
|
<ele>4.398629</ele>
|
|
<time>2026-07-12T10:01:36.000Z</time>
|
|
</trkpt>
|
|
<trkpt lat="55.866867" lon="8.172995">
|
|
<ele>4.385604</ele>
|
|
<time>2026-07-12T10:01:37.000Z</time>
|
|
</trkpt>
|
|
<trkpt lat="55.866917" lon="8.173014">
|
|
<ele>4.372579</ele>
|
|
<time>2026-07-12T10:01:38.000Z</time>
|
|
</trkpt>
|
|
<trkpt lat="55.866966" lon="8.173029">
|
|
<ele>4.359913</ele>
|
|
<time>2026-07-12T10:01:39.000Z</time>
|
|
</trkpt>
|
|
<trkpt lat="55.867012" lon="8.173039">
|
|
<ele>4.348106</ele>
|
|
<time>2026-07-12T10:01:40.000Z</time>
|
|
</trkpt>
|
|
<trkpt lat="55.867054" lon="8.173050">
|
|
<ele>4.337291</ele>
|
|
<time>2026-07-12T10:01:41.000Z</time>
|
|
</trkpt>
|
|
<trkpt lat="55.867092" lon="8.173060">
|
|
<ele>4.327505</ele>
|
|
<time>2026-07-12T10:01:42.000Z</time>
|
|
</trkpt>
|
|
<trkpt lat="55.867130" lon="8.173072">
|
|
<ele>4.317673</ele>
|
|
<time>2026-07-12T10:01:43.000Z</time>
|
|
</trkpt>
|
|
<trkpt lat="55.867172" lon="8.173086">
|
|
<ele>4.306787</ele>
|
|
<time>2026-07-12T10:01:44.000Z</time>
|
|
</trkpt>
|
|
<trkpt lat="55.867210" lon="8.173101">
|
|
<ele>4.296871</ele>
|
|
<time>2026-07-12T10:01:45.000Z</time>
|
|
</trkpt>
|
|
<trkpt lat="55.867249" lon="8.173118">
|
|
<ele>4.286642</ele>
|
|
<time>2026-07-12T10:01:46.000Z</time>
|
|
</trkpt>
|
|
<trkpt lat="55.867287" lon="8.173132">
|
|
<ele>4.276756</ele>
|
|
<time>2026-07-12T10:01:47.000Z</time>
|
|
</trkpt>
|
|
<trkpt lat="55.867321" lon="8.173146">
|
|
<ele>4.267866</ele>
|
|
<time>2026-07-12T10:01:48.000Z</time>
|
|
</trkpt>
|
|
<trkpt lat="55.867359" lon="8.173164">
|
|
<ele>4.257849</ele>
|
|
<time>2026-07-12T10:01:49.000Z</time>
|
|
</trkpt>
|
|
<trkpt lat="55.867394" lon="8.173183">
|
|
<ele>4.248527</ele>
|
|
<time>2026-07-12T10:01:50.000Z</time>
|
|
</trkpt>
|
|
<trkpt lat="55.867424" lon="8.173202">
|
|
<ele>4.240416</ele>
|
|
<time>2026-07-12T10:01:51.000Z</time>
|
|
</trkpt>
|
|
<trkpt lat="55.867451" lon="8.173218">
|
|
<ele>4.233167</ele>
|
|
<time>2026-07-12T10:01:52.000Z</time>
|
|
</trkpt>
|
|
<trkpt lat="55.867474" lon="8.173231">
|
|
<ele>4.227020</ele>
|
|
<time>2026-07-12T10:01:53.000Z</time>
|
|
</trkpt>
|
|
<trkpt lat="55.867496" lon="8.173243">
|
|
<ele>4.221158</ele>
|
|
<time>2026-07-12T10:01:54.000Z</time>
|
|
</trkpt>
|
|
<trkpt lat="55.867516" lon="8.173250">
|
|
<ele>4.215965</ele>
|
|
<time>2026-07-12T10:01:55.000Z</time>
|
|
</trkpt>
|
|
<trkpt lat="55.867538" lon="8.173250">
|
|
<ele>4.210360</ele>
|
|
<time>2026-07-12T10:01:56.000Z</time>
|
|
</trkpt>
|
|
<trkpt lat="55.867561" lon="8.173238">
|
|
<ele>4.204255</ele>
|
|
<time>2026-07-12T10:01:57.000Z</time>
|
|
</trkpt>
|
|
<trkpt lat="55.867584" lon="8.173214">
|
|
<ele>4.197465</ele>
|
|
<time>2026-07-12T10:01:58.000Z</time>
|
|
</trkpt>
|
|
<trkpt lat="55.867603" lon="8.173183">
|
|
<ele>4.190902</ele>
|
|
<time>2026-07-12T10:01:59.000Z</time>
|
|
</trkpt>
|
|
<trkpt lat="55.867619" lon="8.173141">
|
|
<ele>4.183645</ele>
|
|
<time>2026-07-12T10:02:00.000Z</time>
|
|
</trkpt>
|
|
<trkpt lat="55.867630" lon="8.173083">
|
|
<ele>4.174893</ele>
|
|
<time>2026-07-12T10:02:01.000Z</time>
|
|
</trkpt>
|
|
<trkpt lat="55.867638" lon="8.173024">
|
|
<ele>4.166216</ele>
|
|
<time>2026-07-12T10:02:02.000Z</time>
|
|
</trkpt>
|
|
<trkpt lat="55.867649" lon="8.172964">
|
|
<ele>4.157192</ele>
|
|
<time>2026-07-12T10:02:03.000Z</time>
|
|
</trkpt>
|
|
<trkpt lat="55.867657" lon="8.172905">
|
|
<ele>4.148515</ele>
|
|
<time>2026-07-12T10:02:04.000Z</time>
|
|
</trkpt>
|
|
<trkpt lat="55.867664" lon="8.172848">
|
|
<ele>4.140174</ele>
|
|
<time>2026-07-12T10:02:05.000Z</time>
|
|
</trkpt>
|
|
<trkpt lat="55.867672" lon="8.172788">
|
|
<ele>4.131358</ele>
|
|
<time>2026-07-12T10:02:06.000Z</time>
|
|
</trkpt>
|
|
<trkpt lat="55.867680" lon="8.172724">
|
|
<ele>4.121985</ele>
|
|
<time>2026-07-12T10:02:07.000Z</time>
|
|
</trkpt>
|
|
<trkpt lat="55.867687" lon="8.172657">
|
|
<ele>4.112242</ele>
|
|
<time>2026-07-12T10:02:08.000Z</time>
|
|
</trkpt>
|
|
<trkpt lat="55.867695" lon="8.172590">
|
|
<ele>4.102450</ele>
|
|
<time>2026-07-12T10:02:09.000Z</time>
|
|
</trkpt>
|
|
<trkpt lat="55.867702" lon="8.172523">
|
|
<ele>4.092708</ele>
|
|
<time>2026-07-12T10:02:10.000Z</time>
|
|
</trkpt>
|
|
<trkpt lat="55.867710" lon="8.172450">
|
|
<ele>4.082075</ele>
|
|
<time>2026-07-12T10:02:11.000Z</time>
|
|
</trkpt>
|
|
<trkpt lat="55.867722" lon="8.172375">
|
|
<ele>4.070926</ele>
|
|
<time>2026-07-12T10:02:12.000Z</time>
|
|
</trkpt>
|
|
<trkpt lat="55.867729" lon="8.172296">
|
|
<ele>4.059493</ele>
|
|
<time>2026-07-12T10:02:13.000Z</time>
|
|
</trkpt>
|
|
<trkpt lat="55.867737" lon="8.172217">
|
|
<ele>4.048017</ele>
|
|
<time>2026-07-12T10:02:14.000Z</time>
|
|
</trkpt>
|
|
<trkpt lat="55.867752" lon="8.172136">
|
|
<ele>4.035824</ele>
|
|
<time>2026-07-12T10:02:15.000Z</time>
|
|
</trkpt>
|
|
<trkpt lat="55.867767" lon="8.172053">
|
|
<ele>4.025864</ele>
|
|
<time>2026-07-12T10:02:16.000Z</time>
|
|
</trkpt>
|
|
<trkpt lat="55.867783" lon="8.171969">
|
|
<ele>4.018558</ele>
|
|
<time>2026-07-12T10:02:17.000Z</time>
|
|
</trkpt>
|
|
<trkpt lat="55.867798" lon="8.171884">
|
|
<ele>4.011221</ele>
|
|
<time>2026-07-12T10:02:18.000Z</time>
|
|
</trkpt>
|
|
<trkpt lat="55.867805" lon="8.171797">
|
|
<ele>4.003983</ele>
|
|
<time>2026-07-12T10:02:19.000Z</time>
|
|
</trkpt>
|
|
<trkpt lat="55.867817" lon="8.171710">
|
|
<ele>3.996605</ele>
|
|
<time>2026-07-12T10:02:20.000Z</time>
|
|
</trkpt>
|
|
<trkpt lat="55.867828" lon="8.171621">
|
|
<ele>3.989100</ele>
|
|
<time>2026-07-12T10:02:21.000Z</time>
|
|
</trkpt>
|
|
<trkpt lat="55.867840" lon="8.171534">
|
|
<ele>3.981722</ele>
|
|
<time>2026-07-12T10:02:22.000Z</time>
|
|
</trkpt>
|
|
<trkpt lat="55.867847" lon="8.171453">
|
|
<ele>3.974973</ele>
|
|
<time>2026-07-12T10:02:23.000Z</time>
|
|
</trkpt>
|
|
<trkpt lat="55.867859" lon="8.171375">
|
|
<ele>3.968313</ele>
|
|
<time>2026-07-12T10:02:24.000Z</time>
|
|
</trkpt>
|
|
<trkpt lat="55.867870" lon="8.171285">
|
|
<ele>3.960727</ele>
|
|
<time>2026-07-12T10:02:25.000Z</time>
|
|
</trkpt>
|
|
<trkpt lat="55.867886" lon="8.171190">
|
|
<ele>3.952559</ele>
|
|
<time>2026-07-12T10:02:26.000Z</time>
|
|
</trkpt>
|
|
<trkpt lat="55.867905" lon="8.171102">
|
|
<ele>3.944794</ele>
|
|
<time>2026-07-12T10:02:27.000Z</time>
|
|
</trkpt>
|
|
<trkpt lat="55.867920" lon="8.171012">
|
|
<ele>3.937063</ele>
|
|
<time>2026-07-12T10:02:28.000Z</time>
|
|
</trkpt>
|
|
<trkpt lat="55.867935" lon="8.170931">
|
|
<ele>3.930039</ele>
|
|
<time>2026-07-12T10:02:29.000Z</time>
|
|
</trkpt>
|
|
<trkpt lat="55.867950" lon="8.170844">
|
|
<ele>3.922543</ele>
|
|
<time>2026-07-12T10:02:30.000Z</time>
|
|
</trkpt>
|
|
<trkpt lat="55.867970" lon="8.170748">
|
|
<ele>3.914110</ele>
|
|
<time>2026-07-12T10:02:31.000Z</time>
|
|
</trkpt>
|
|
<trkpt lat="55.867989" lon="8.170648">
|
|
<ele>3.905416</ele>
|
|
<time>2026-07-12T10:02:32.000Z</time>
|
|
</trkpt>
|
|
<trkpt lat="55.868000" lon="8.170564">
|
|
<ele>3.898313</ele>
|
|
<time>2026-07-12T10:02:33.000Z</time>
|
|
</trkpt>
|
|
<trkpt lat="55.868015" lon="8.170477">
|
|
<ele>3.890818</ele>
|
|
<time>2026-07-12T10:02:34.000Z</time>
|
|
</trkpt>
|
|
<trkpt lat="55.868027" lon="8.170392">
|
|
<ele>3.883600</ele>
|
|
<time>2026-07-12T10:02:35.000Z</time>
|
|
</trkpt>
|
|
<trkpt lat="55.868042" lon="8.170311">
|
|
<ele>3.876575</ele>
|
|
<time>2026-07-12T10:02:36.000Z</time>
|
|
</trkpt>
|
|
<trkpt lat="55.868053" lon="8.170210">
|
|
<ele>3.868103</ele>
|
|
<time>2026-07-12T10:02:37.000Z</time>
|
|
</trkpt>
|
|
<trkpt lat="55.868065" lon="8.170117">
|
|
<ele>3.860244</ele>
|
|
<time>2026-07-12T10:02:38.000Z</time>
|
|
</trkpt>
|
|
<trkpt lat="55.868073" lon="8.170055">
|
|
<ele>3.855005</ele>
|
|
<time>2026-07-12T10:02:39.000Z</time>
|
|
</trkpt>
|
|
<trkpt lat="55.868092" lon="8.169942">
|
|
<ele>3.845291</ele>
|
|
<time>2026-07-12T10:02:40.000Z</time>
|
|
</trkpt>
|
|
<trkpt lat="55.868103" lon="8.169854">
|
|
<ele>3.837867</ele>
|
|
<time>2026-07-12T10:02:41.000Z</time>
|
|
</trkpt>
|
|
<trkpt lat="55.868118" lon="8.169756">
|
|
<ele>3.829501</ele>
|
|
<time>2026-07-12T10:02:42.000Z</time>
|
|
</trkpt>
|
|
<trkpt lat="55.868130" lon="8.169655">
|
|
<ele>3.821000</ele>
|
|
<time>2026-07-12T10:02:43.000Z</time>
|
|
</trkpt>
|
|
<trkpt lat="55.868145" lon="8.169544">
|
|
<ele>3.811597</ele>
|
|
<time>2026-07-12T10:02:44.000Z</time>
|
|
</trkpt>
|
|
<trkpt lat="55.868160" lon="8.169457">
|
|
<ele>3.804102</ele>
|
|
<time>2026-07-12T10:02:45.000Z</time>
|
|
</trkpt>
|
|
<trkpt lat="55.868175" lon="8.169358">
|
|
<ele>3.795658</ele>
|
|
<time>2026-07-12T10:02:46.000Z</time>
|
|
</trkpt>
|
|
<trkpt lat="55.868187" lon="8.169272">
|
|
<ele>3.788360</ele>
|
|
<time>2026-07-12T10:02:47.000Z</time>
|
|
</trkpt>
|
|
<trkpt lat="55.868198" lon="8.169180">
|
|
<ele>3.780614</ele>
|
|
<time>2026-07-12T10:02:48.000Z</time>
|
|
</trkpt>
|
|
<trkpt lat="55.868210" lon="8.169096">
|
|
<ele>3.773476</ele>
|
|
<time>2026-07-12T10:02:49.000Z</time>
|
|
</trkpt>
|
|
<trkpt lat="55.868225" lon="8.168985">
|
|
<ele>3.764884</ele>
|
|
<time>2026-07-12T10:02:50.000Z</time>
|
|
</trkpt>
|
|
<trkpt lat="55.868233" lon="8.168900">
|
|
<ele>3.762519</ele>
|
|
<time>2026-07-12T10:02:51.000Z</time>
|
|
</trkpt>
|
|
<trkpt lat="55.868248" lon="8.168799">
|
|
<ele>3.759653</ele>
|
|
<time>2026-07-12T10:02:52.000Z</time>
|
|
</trkpt>
|
|
<trkpt lat="55.868263" lon="8.168707">
|
|
<ele>3.757024</ele>
|
|
<time>2026-07-12T10:02:53.000Z</time>
|
|
</trkpt>
|
|
<trkpt lat="55.868275" lon="8.168645">
|
|
<ele>3.755225</ele>
|
|
<time>2026-07-12T10:02:54.000Z</time>
|
|
</trkpt>
|
|
<trkpt lat="55.868290" lon="8.168567">
|
|
<ele>3.752962</ele>
|
|
<time>2026-07-12T10:02:55.000Z</time>
|
|
</trkpt>
|
|
<trkpt lat="55.868305" lon="8.168462">
|
|
<ele>3.749990</ele>
|
|
<time>2026-07-12T10:02:56.000Z</time>
|
|
</trkpt>
|
|
<trkpt lat="55.868317" lon="8.168366">
|
|
<ele>3.747291</ele>
|
|
<time>2026-07-12T10:02:57.000Z</time>
|
|
</trkpt>
|
|
<trkpt lat="55.868328" lon="8.168293">
|
|
<ele>3.745217</ele>
|
|
<time>2026-07-12T10:02:58.000Z</time>
|
|
</trkpt>
|
|
<trkpt lat="55.868340" lon="8.168213">
|
|
<ele>3.742945</ele>
|
|
<time>2026-07-12T10:02:59.000Z</time>
|
|
</trkpt>
|
|
<trkpt lat="55.868347" lon="8.168134">
|
|
<ele>3.740751</ele>
|
|
<time>2026-07-12T10:03:00.000Z</time>
|
|
</trkpt>
|
|
<trkpt lat="55.868355" lon="8.168054">
|
|
<ele>3.738521</ele>
|
|
<time>2026-07-12T10:03:01.000Z</time>
|
|
</trkpt>
|
|
<trkpt lat="55.868359" lon="8.167963">
|
|
<ele>3.736017</ele>
|
|
<time>2026-07-12T10:03:02.000Z</time>
|
|
</trkpt>
|
|
<trkpt lat="55.868362" lon="8.167886">
|
|
<ele>3.733899</ele>
|
|
<time>2026-07-12T10:03:03.000Z</time>
|
|
</trkpt>
|
|
<trkpt lat="55.868366" lon="8.167804">
|
|
<ele>3.731641</ele>
|
|
<time>2026-07-12T10:03:04.000Z</time>
|
|
</trkpt>
|
|
<trkpt lat="55.868374" lon="8.167733">
|
|
<ele>3.729654</ele>
|
|
<time>2026-07-12T10:03:05.000Z</time>
|
|
</trkpt>
|
|
<trkpt lat="55.868382" lon="8.167653">
|
|
<ele>3.727425</ele>
|
|
<time>2026-07-12T10:03:06.000Z</time>
|
|
</trkpt>
|
|
<trkpt lat="55.868385" lon="8.167573">
|
|
<ele>3.725225</ele>
|
|
<time>2026-07-12T10:03:07.000Z</time>
|
|
</trkpt>
|
|
<trkpt lat="55.868393" lon="8.167498">
|
|
<ele>3.723130</ele>
|
|
<time>2026-07-12T10:03:08.000Z</time>
|
|
</trkpt>
|
|
<trkpt lat="55.868397" lon="8.167412">
|
|
<ele>3.720763</ele>
|
|
<time>2026-07-12T10:03:09.000Z</time>
|
|
</trkpt>
|
|
<trkpt lat="55.868401" lon="8.167340">
|
|
<ele>3.718778</ele>
|
|
<time>2026-07-12T10:03:10.000Z</time>
|
|
</trkpt>
|
|
<trkpt lat="55.868408" lon="8.167263">
|
|
<ele>3.716638</ele>
|
|
<time>2026-07-12T10:03:11.000Z</time>
|
|
</trkpt>
|
|
<trkpt lat="55.868408" lon="8.167185">
|
|
<ele>3.714498</ele>
|
|
<time>2026-07-12T10:03:12.000Z</time>
|
|
</trkpt>
|
|
<trkpt lat="55.868408" lon="8.167096">
|
|
<ele>3.712056</ele>
|
|
<time>2026-07-12T10:03:13.000Z</time>
|
|
</trkpt>
|
|
<trkpt lat="55.868408" lon="8.167027">
|
|
<ele>3.710163</ele>
|
|
<time>2026-07-12T10:03:14.000Z</time>
|
|
</trkpt>
|
|
<trkpt lat="55.868408" lon="8.166941">
|
|
<ele>3.707803</ele>
|
|
<time>2026-07-12T10:03:15.000Z</time>
|
|
</trkpt>
|
|
<trkpt lat="55.868408" lon="8.166861">
|
|
<ele>3.705608</ele>
|
|
<time>2026-07-12T10:03:16.000Z</time>
|
|
</trkpt>
|
|
<trkpt lat="55.868412" lon="8.166780">
|
|
<ele>3.703377</ele>
|
|
<time>2026-07-12T10:03:17.000Z</time>
|
|
</trkpt>
|
|
<trkpt lat="55.868412" lon="8.166707">
|
|
<ele>3.701374</ele>
|
|
<time>2026-07-12T10:03:18.000Z</time>
|
|
</trkpt>
|
|
<trkpt lat="55.868412" lon="8.166614">
|
|
<ele>3.698823</ele>
|
|
<time>2026-07-12T10:03:19.000Z</time>
|
|
</trkpt>
|
|
<trkpt lat="55.868412" lon="8.166546">
|
|
<ele>3.696957</ele>
|
|
<time>2026-07-12T10:03:20.000Z</time>
|
|
</trkpt>
|
|
<trkpt lat="55.868412" lon="8.166466">
|
|
<ele>3.694762</ele>
|
|
<time>2026-07-12T10:03:21.000Z</time>
|
|
</trkpt>
|
|
<trkpt lat="55.868408" lon="8.166396">
|
|
<ele>3.692832</ele>
|
|
<time>2026-07-12T10:03:22.000Z</time>
|
|
</trkpt>
|
|
<trkpt lat="55.868404" lon="8.166324">
|
|
<ele>3.690847</ele>
|
|
<time>2026-07-12T10:03:23.000Z</time>
|
|
</trkpt>
|
|
<trkpt lat="55.868404" lon="8.166261">
|
|
<ele>3.689118</ele>
|
|
<time>2026-07-12T10:03:24.000Z</time>
|
|
</trkpt>
|
|
<trkpt lat="55.868412" lon="8.166195">
|
|
<ele>3.687266</ele>
|
|
<time>2026-07-12T10:03:25.000Z</time>
|
|
</trkpt>
|
|
<trkpt lat="55.868427" lon="8.166138">
|
|
<ele>3.685538</ele>
|
|
<time>2026-07-12T10:03:26.000Z</time>
|
|
</trkpt>
|
|
<trkpt lat="55.868454" lon="8.166090">
|
|
<ele>3.683673</ele>
|
|
<time>2026-07-12T10:03:27.000Z</time>
|
|
</trkpt>
|
|
<trkpt lat="55.868473" lon="8.166067">
|
|
<ele>3.682550</ele>
|
|
<time>2026-07-12T10:03:28.000Z</time>
|
|
</trkpt>
|
|
<trkpt lat="55.868515" lon="8.166042">
|
|
<ele>3.680385</ele>
|
|
<time>2026-07-12T10:03:29.000Z</time>
|
|
</trkpt>
|
|
<trkpt lat="55.868561" lon="8.166029">
|
|
<ele>3.678108</ele>
|
|
<time>2026-07-12T10:03:30.000Z</time>
|
|
</trkpt>
|
|
<trkpt lat="55.868607" lon="8.166018">
|
|
<ele>3.677515</ele>
|
|
<time>2026-07-12T10:03:31.000Z</time>
|
|
</trkpt>
|
|
<trkpt lat="55.868652" lon="8.166004">
|
|
<ele>3.677777</ele>
|
|
<time>2026-07-12T10:03:32.000Z</time>
|
|
</trkpt>
|
|
<trkpt lat="55.868694" lon="8.165986">
|
|
<ele>3.678025</ele>
|
|
<time>2026-07-12T10:03:33.000Z</time>
|
|
</trkpt>
|
|
<trkpt lat="55.868732" lon="8.165972">
|
|
<ele>3.678248</ele>
|
|
<time>2026-07-12T10:03:34.000Z</time>
|
|
</trkpt>
|
|
<trkpt lat="55.868786" lon="8.165946">
|
|
<ele>3.678569</ele>
|
|
<time>2026-07-12T10:03:35.000Z</time>
|
|
</trkpt>
|
|
<trkpt lat="55.868820" lon="8.165928">
|
|
<ele>3.678773</ele>
|
|
<time>2026-07-12T10:03:36.000Z</time>
|
|
</trkpt>
|
|
<trkpt lat="55.868851" lon="8.165912">
|
|
<ele>3.678958</ele>
|
|
<time>2026-07-12T10:03:37.000Z</time>
|
|
</trkpt>
|
|
<trkpt lat="55.868881" lon="8.165897">
|
|
<ele>3.679137</ele>
|
|
<time>2026-07-12T10:03:38.000Z</time>
|
|
</trkpt>
|
|
<trkpt lat="55.868916" lon="8.165884">
|
|
<ele>3.679342</ele>
|
|
<time>2026-07-12T10:03:39.000Z</time>
|
|
</trkpt>
|
|
<trkpt lat="55.868958" lon="8.165867">
|
|
<ele>3.679589</ele>
|
|
<time>2026-07-12T10:03:40.000Z</time>
|
|
</trkpt>
|
|
<trkpt lat="55.868996" lon="8.165848">
|
|
<ele>3.679816</ele>
|
|
<time>2026-07-12T10:03:41.000Z</time>
|
|
</trkpt>
|
|
<trkpt lat="55.869038" lon="8.165827">
|
|
<ele>3.680066</ele>
|
|
<time>2026-07-12T10:03:42.000Z</time>
|
|
</trkpt>
|
|
<trkpt lat="55.869076" lon="8.165806">
|
|
<ele>3.680294</ele>
|
|
<time>2026-07-12T10:03:43.000Z</time>
|
|
</trkpt>
|
|
<trkpt lat="55.869118" lon="8.165784">
|
|
<ele>3.680546</ele>
|
|
<time>2026-07-12T10:03:44.000Z</time>
|
|
</trkpt>
|
|
<trkpt lat="55.869152" lon="8.165765">
|
|
<ele>3.680750</ele>
|
|
<time>2026-07-12T10:03:45.000Z</time>
|
|
</trkpt>
|
|
<trkpt lat="55.869194" lon="8.165744">
|
|
<ele>3.681001</ele>
|
|
<time>2026-07-12T10:03:46.000Z</time>
|
|
</trkpt>
|
|
<trkpt lat="55.869236" lon="8.165723">
|
|
<ele>3.681251</ele>
|
|
<time>2026-07-12T10:03:47.000Z</time>
|
|
</trkpt>
|
|
<trkpt lat="55.869278" lon="8.165704">
|
|
<ele>3.681500</ele>
|
|
<time>2026-07-12T10:03:48.000Z</time>
|
|
</trkpt>
|
|
<trkpt lat="55.869308" lon="8.165689">
|
|
<ele>3.681679</ele>
|
|
<time>2026-07-12T10:03:49.000Z</time>
|
|
</trkpt>
|
|
<trkpt lat="55.869354" lon="8.165670">
|
|
<ele>3.681950</ele>
|
|
<time>2026-07-12T10:03:50.000Z</time>
|
|
</trkpt>
|
|
<trkpt lat="55.869396" lon="8.165650">
|
|
<ele>3.682199</ele>
|
|
<time>2026-07-12T10:03:51.000Z</time>
|
|
</trkpt>
|
|
<trkpt lat="55.869434" lon="8.165632">
|
|
<ele>3.682425</ele>
|
|
<time>2026-07-12T10:03:52.000Z</time>
|
|
</trkpt>
|
|
<trkpt lat="55.869480" lon="8.165607">
|
|
<ele>3.682701</ele>
|
|
<time>2026-07-12T10:03:53.000Z</time>
|
|
</trkpt>
|
|
<trkpt lat="55.869518" lon="8.165586">
|
|
<ele>3.682929</ele>
|
|
<time>2026-07-12T10:03:54.000Z</time>
|
|
</trkpt>
|
|
<trkpt lat="55.869556" lon="8.165565">
|
|
<ele>3.683158</ele>
|
|
<time>2026-07-12T10:03:55.000Z</time>
|
|
</trkpt>
|
|
<trkpt lat="55.869591" lon="8.165549">
|
|
<ele>3.683365</ele>
|
|
<time>2026-07-12T10:03:56.000Z</time>
|
|
</trkpt>
|
|
<trkpt lat="55.869633" lon="8.165530">
|
|
<ele>3.683614</ele>
|
|
<time>2026-07-12T10:03:57.000Z</time>
|
|
</trkpt>
|
|
<trkpt lat="55.869675" lon="8.165515">
|
|
<ele>3.683860</ele>
|
|
<time>2026-07-12T10:03:58.000Z</time>
|
|
</trkpt>
|
|
<trkpt lat="55.869717" lon="8.165503">
|
|
<ele>3.684104</ele>
|
|
<time>2026-07-12T10:03:59.000Z</time>
|
|
</trkpt>
|
|
<trkpt lat="55.869762" lon="8.165499">
|
|
<ele>3.684362</ele>
|
|
<time>2026-07-12T10:04:00.000Z</time>
|
|
</trkpt>
|
|
<trkpt lat="55.869812" lon="8.165503">
|
|
<ele>3.684650</ele>
|
|
<time>2026-07-12T10:04:01.000Z</time>
|
|
</trkpt>
|
|
<trkpt lat="55.869865" lon="8.165511">
|
|
<ele>3.684955</ele>
|
|
<time>2026-07-12T10:04:02.000Z</time>
|
|
</trkpt>
|
|
<trkpt lat="55.869904" lon="8.165522">
|
|
<ele>3.685182</ele>
|
|
<time>2026-07-12T10:04:03.000Z</time>
|
|
</trkpt>
|
|
<trkpt lat="55.869949" lon="8.165539">
|
|
<ele>3.685446</ele>
|
|
<time>2026-07-12T10:04:04.000Z</time>
|
|
</trkpt>
|
|
<trkpt lat="55.869991" lon="8.165565">
|
|
<ele>3.685701</ele>
|
|
<time>2026-07-12T10:04:05.000Z</time>
|
|
</trkpt>
|
|
<trkpt lat="55.870029" lon="8.165592">
|
|
<ele>3.685936</ele>
|
|
<time>2026-07-12T10:04:06.000Z</time>
|
|
</trkpt>
|
|
<trkpt lat="55.870064" lon="8.165619">
|
|
<ele>3.686154</ele>
|
|
<time>2026-07-12T10:04:07.000Z</time>
|
|
</trkpt>
|
|
<trkpt lat="55.870102" lon="8.165642">
|
|
<ele>3.686385</ele>
|
|
<time>2026-07-12T10:04:08.000Z</time>
|
|
</trkpt>
|
|
<trkpt lat="55.870144" lon="8.165658">
|
|
<ele>3.686631</ele>
|
|
<time>2026-07-12T10:04:09.000Z</time>
|
|
</trkpt>
|
|
<trkpt lat="55.870190" lon="8.165674">
|
|
<ele>3.686900</ele>
|
|
<time>2026-07-12T10:04:10.000Z</time>
|
|
</trkpt>
|
|
<trkpt lat="55.870235" lon="8.165694">
|
|
<ele>3.687167</ele>
|
|
<time>2026-07-12T10:04:11.000Z</time>
|
|
</trkpt>
|
|
<trkpt lat="55.870277" lon="8.165713">
|
|
<ele>3.687415</ele>
|
|
<time>2026-07-12T10:04:12.000Z</time>
|
|
</trkpt>
|
|
<trkpt lat="55.870316" lon="8.165740">
|
|
<ele>3.687655</ele>
|
|
<time>2026-07-12T10:04:13.000Z</time>
|
|
</trkpt>
|
|
<trkpt lat="55.870365" lon="8.165773">
|
|
<ele>3.686134</ele>
|
|
<time>2026-07-12T10:04:14.000Z</time>
|
|
</trkpt>
|
|
<trkpt lat="55.870403" lon="8.165813">
|
|
<ele>3.684813</ele>
|
|
<time>2026-07-12T10:04:15.000Z</time>
|
|
</trkpt>
|
|
<trkpt lat="55.870441" lon="8.165861">
|
|
<ele>3.683419</ele>
|
|
<time>2026-07-12T10:04:16.000Z</time>
|
|
</trkpt>
|
|
<trkpt lat="55.870476" lon="8.165917">
|
|
<ele>3.682011</ele>
|
|
<time>2026-07-12T10:04:17.000Z</time>
|
|
</trkpt>
|
|
<trkpt lat="55.870510" lon="8.165979">
|
|
<ele>3.680555</ele>
|
|
<time>2026-07-12T10:04:18.000Z</time>
|
|
</trkpt>
|
|
<trkpt lat="55.870537" lon="8.166031">
|
|
<ele>3.679365</ele>
|
|
<time>2026-07-12T10:04:19.000Z</time>
|
|
</trkpt>
|
|
<trkpt lat="55.870563" lon="8.166088">
|
|
<ele>3.678132</ele>
|
|
<time>2026-07-12T10:04:20.000Z</time>
|
|
</trkpt>
|
|
<trkpt lat="55.870586" lon="8.166160">
|
|
<ele>3.676740</ele>
|
|
<time>2026-07-12T10:04:21.000Z</time>
|
|
</trkpt>
|
|
<trkpt lat="55.870609" lon="8.166225">
|
|
<ele>3.675450</ele>
|
|
<time>2026-07-12T10:04:22.000Z</time>
|
|
</trkpt>
|
|
<trkpt lat="55.870628" lon="8.166302">
|
|
<ele>3.674037</ele>
|
|
<time>2026-07-12T10:04:23.000Z</time>
|
|
</trkpt>
|
|
<trkpt lat="55.870644" lon="8.166381">
|
|
<ele>3.672627</ele>
|
|
<time>2026-07-12T10:04:24.000Z</time>
|
|
</trkpt>
|
|
<trkpt lat="55.870655" lon="8.166458">
|
|
<ele>3.671292</ele>
|
|
<time>2026-07-12T10:04:25.000Z</time>
|
|
</trkpt>
|
|
<trkpt lat="55.870670" lon="8.166547">
|
|
<ele>3.669731</ele>
|
|
<time>2026-07-12T10:04:26.000Z</time>
|
|
</trkpt>
|
|
<trkpt lat="55.870689" lon="8.166668">
|
|
<ele>3.667621</ele>
|
|
<time>2026-07-12T10:04:27.000Z</time>
|
|
</trkpt>
|
|
<trkpt lat="55.870705" lon="8.166770">
|
|
<ele>3.665843</ele>
|
|
<time>2026-07-12T10:04:28.000Z</time>
|
|
</trkpt>
|
|
<trkpt lat="55.870720" lon="8.166838">
|
|
<ele>3.664616</ele>
|
|
<time>2026-07-12T10:04:29.000Z</time>
|
|
</trkpt>
|
|
<trkpt lat="55.870735" lon="8.166892">
|
|
<ele>3.663604</ele>
|
|
<time>2026-07-12T10:04:30.000Z</time>
|
|
</trkpt>
|
|
<trkpt lat="55.870762" lon="8.166972">
|
|
<ele>3.662036</ele>
|
|
<time>2026-07-12T10:04:31.000Z</time>
|
|
</trkpt>
|
|
<trkpt lat="55.870789" lon="8.167042">
|
|
<ele>3.660609</ele>
|
|
<time>2026-07-12T10:04:32.000Z</time>
|
|
</trkpt>
|
|
<trkpt lat="55.870823" lon="8.167121">
|
|
<ele>3.658937</ele>
|
|
<time>2026-07-12T10:04:33.000Z</time>
|
|
</trkpt>
|
|
<trkpt lat="55.870873" lon="8.167197">
|
|
<ele>3.656970</ele>
|
|
<time>2026-07-12T10:04:34.000Z</time>
|
|
</trkpt>
|
|
<trkpt lat="55.870918" lon="8.167256">
|
|
<ele>3.655298</ele>
|
|
<time>2026-07-12T10:04:35.000Z</time>
|
|
</trkpt>
|
|
<trkpt lat="55.870964" lon="8.167293">
|
|
<ele>3.653787</ele>
|
|
<time>2026-07-12T10:04:36.000Z</time>
|
|
</trkpt>
|
|
<trkpt lat="55.871010" lon="8.167326">
|
|
<ele>3.652303</ele>
|
|
<time>2026-07-12T10:04:37.000Z</time>
|
|
</trkpt>
|
|
<trkpt lat="55.871056" lon="8.167359">
|
|
<ele>3.650819</ele>
|
|
<time>2026-07-12T10:04:38.000Z</time>
|
|
</trkpt>
|
|
<trkpt lat="55.871101" lon="8.167398">
|
|
<ele>3.649321</ele>
|
|
<time>2026-07-12T10:04:39.000Z</time>
|
|
</trkpt>
|
|
<trkpt lat="55.871147" lon="8.167439">
|
|
<ele>3.647782</ele>
|
|
<time>2026-07-12T10:04:40.000Z</time>
|
|
</trkpt>
|
|
<trkpt lat="55.871193" lon="8.167483">
|
|
<ele>3.646219</ele>
|
|
<time>2026-07-12T10:04:41.000Z</time>
|
|
</trkpt>
|
|
<trkpt lat="55.871242" lon="8.167526">
|
|
<ele>3.644584</ele>
|
|
<time>2026-07-12T10:04:42.000Z</time>
|
|
</trkpt>
|
|
<trkpt lat="55.871288" lon="8.167565">
|
|
<ele>3.643060</ele>
|
|
<time>2026-07-12T10:04:43.000Z</time>
|
|
</trkpt>
|
|
<trkpt lat="55.871334" lon="8.167604">
|
|
<ele>3.641535</ele>
|
|
<time>2026-07-12T10:04:44.000Z</time>
|
|
</trkpt>
|
|
<trkpt lat="55.871380" lon="8.167640">
|
|
<ele>3.640031</ele>
|
|
<time>2026-07-12T10:04:45.000Z</time>
|
|
</trkpt>
|
|
<trkpt lat="55.871426" lon="8.167676">
|
|
<ele>3.638527</ele>
|
|
<time>2026-07-12T10:04:46.000Z</time>
|
|
</trkpt>
|
|
<trkpt lat="55.871471" lon="8.167713">
|
|
<ele>3.637044</ele>
|
|
<time>2026-07-12T10:04:47.000Z</time>
|
|
</trkpt>
|
|
<trkpt lat="55.871517" lon="8.167750">
|
|
<ele>3.635533</ele>
|
|
<time>2026-07-12T10:04:48.000Z</time>
|
|
</trkpt>
|
|
<trkpt lat="55.871563" lon="8.167791">
|
|
<ele>3.633994</ele>
|
|
<time>2026-07-12T10:04:49.000Z</time>
|
|
</trkpt>
|
|
<trkpt lat="55.871613" lon="8.167832">
|
|
<ele>3.658401</ele>
|
|
<time>2026-07-12T10:04:50.000Z</time>
|
|
</trkpt>
|
|
<trkpt lat="55.871658" lon="8.167871">
|
|
<ele>3.683293</ele>
|
|
<time>2026-07-12T10:04:51.000Z</time>
|
|
</trkpt>
|
|
<trkpt lat="55.871704" lon="8.167911">
|
|
<ele>3.708753</ele>
|
|
<time>2026-07-12T10:04:52.000Z</time>
|
|
</trkpt>
|
|
<trkpt lat="55.871750" lon="8.167950">
|
|
<ele>3.734093</ele>
|
|
<time>2026-07-12T10:04:53.000Z</time>
|
|
</trkpt>
|
|
<trkpt lat="55.871799" lon="8.167987">
|
|
<ele>3.760565</ele>
|
|
<time>2026-07-12T10:04:54.000Z</time>
|
|
</trkpt>
|
|
<trkpt lat="55.871845" lon="8.168027">
|
|
<ele>3.786026</ele>
|
|
<time>2026-07-12T10:04:55.000Z</time>
|
|
</trkpt>
|
|
<trkpt lat="55.871887" lon="8.168064">
|
|
<ele>3.809331</ele>
|
|
<time>2026-07-12T10:04:56.000Z</time>
|
|
</trkpt>
|
|
<trkpt lat="55.871929" lon="8.168104">
|
|
<ele>3.833019</ele>
|
|
<time>2026-07-12T10:04:57.000Z</time>
|
|
</trkpt>
|
|
<trkpt lat="55.871975" lon="8.168150">
|
|
<ele>3.859257</ele>
|
|
<time>2026-07-12T10:04:58.000Z</time>
|
|
</trkpt>
|
|
<trkpt lat="55.872017" lon="8.168200">
|
|
<ele>3.884382</ele>
|
|
<time>2026-07-12T10:04:59.000Z</time>
|
|
</trkpt>
|
|
<trkpt lat="55.872055" lon="8.168252">
|
|
<ele>3.908213</ele>
|
|
<time>2026-07-12T10:05:00.000Z</time>
|
|
</trkpt>
|
|
<trkpt lat="55.872097" lon="8.168307">
|
|
<ele>3.934139</ele>
|
|
<time>2026-07-12T10:05:01.000Z</time>
|
|
</trkpt>
|
|
<trkpt lat="55.872135" lon="8.168365">
|
|
<ele>3.959026</ele>
|
|
<time>2026-07-12T10:05:02.000Z</time>
|
|
</trkpt>
|
|
<trkpt lat="55.872173" lon="8.168426">
|
|
<ele>3.984465</ele>
|
|
<time>2026-07-12T10:05:03.000Z</time>
|
|
</trkpt>
|
|
<trkpt lat="55.872208" lon="8.168485">
|
|
<ele>4.008429</ele>
|
|
<time>2026-07-12T10:05:04.000Z</time>
|
|
</trkpt>
|
|
<trkpt lat="55.872246" lon="8.168545">
|
|
<ele>4.033682</ele>
|
|
<time>2026-07-12T10:05:05.000Z</time>
|
|
</trkpt>
|
|
<trkpt lat="55.872284" lon="8.168607">
|
|
<ele>4.059309</ele>
|
|
<time>2026-07-12T10:05:06.000Z</time>
|
|
</trkpt>
|
|
<trkpt lat="55.872318" lon="8.168667">
|
|
<ele>4.083110</ele>
|
|
<time>2026-07-12T10:05:07.000Z</time>
|
|
</trkpt>
|
|
<trkpt lat="55.872356" lon="8.168723">
|
|
<ele>4.107637</ele>
|
|
<time>2026-07-12T10:05:08.000Z</time>
|
|
</trkpt>
|
|
<trkpt lat="55.872391" lon="8.168777">
|
|
<ele>4.130664</ele>
|
|
<time>2026-07-12T10:05:09.000Z</time>
|
|
</trkpt>
|
|
<trkpt lat="55.872425" lon="8.168832">
|
|
<ele>4.153505</ele>
|
|
<time>2026-07-12T10:05:10.000Z</time>
|
|
</trkpt>
|
|
<trkpt lat="55.872459" lon="8.168888">
|
|
<ele>4.176533</ele>
|
|
<time>2026-07-12T10:05:11.000Z</time>
|
|
</trkpt>
|
|
<trkpt lat="55.872498" lon="8.168943">
|
|
<ele>4.201272</ele>
|
|
<time>2026-07-12T10:05:12.000Z</time>
|
|
</trkpt>
|
|
<trkpt lat="55.872528" lon="8.168995">
|
|
<ele>4.222088</ele>
|
|
<time>2026-07-12T10:05:13.000Z</time>
|
|
</trkpt>
|
|
<trkpt lat="55.872559" lon="8.169047">
|
|
<ele>4.243264</ele>
|
|
<time>2026-07-12T10:05:14.000Z</time>
|
|
</trkpt>
|
|
<trkpt lat="55.872593" lon="8.169101">
|
|
<ele>4.265918</ele>
|
|
<time>2026-07-12T10:05:15.000Z</time>
|
|
</trkpt>
|
|
<trkpt lat="55.872620" lon="8.169150">
|
|
<ele>4.285086</ele>
|
|
<time>2026-07-12T10:05:16.000Z</time>
|
|
</trkpt>
|
|
<trkpt lat="55.872650" lon="8.169199">
|
|
<ele>4.305327</ele>
|
|
<time>2026-07-12T10:05:17.000Z</time>
|
|
</trkpt>
|
|
<trkpt lat="55.872681" lon="8.169250">
|
|
<ele>4.326313</ele>
|
|
<time>2026-07-12T10:05:18.000Z</time>
|
|
</trkpt>
|
|
<trkpt lat="55.872715" lon="8.169301">
|
|
<ele>4.348418</ele>
|
|
<time>2026-07-12T10:05:19.000Z</time>
|
|
</trkpt>
|
|
<trkpt lat="55.872749" lon="8.169353">
|
|
<ele>4.370704</ele>
|
|
<time>2026-07-12T10:05:20.000Z</time>
|
|
</trkpt>
|
|
<trkpt lat="55.872784" lon="8.169399">
|
|
<ele>4.392336</ele>
|
|
<time>2026-07-12T10:05:21.000Z</time>
|
|
</trkpt>
|
|
<trkpt lat="55.872822" lon="8.169439">
|
|
<ele>4.414289</ele>
|
|
<time>2026-07-12T10:05:22.000Z</time>
|
|
</trkpt>
|
|
<trkpt lat="55.872860" lon="8.169471">
|
|
<ele>4.435196</ele>
|
|
<time>2026-07-12T10:05:23.000Z</time>
|
|
</trkpt>
|
|
<trkpt lat="55.872902" lon="8.169495">
|
|
<ele>4.457136</ele>
|
|
<time>2026-07-12T10:05:24.000Z</time>
|
|
</trkpt>
|
|
<trkpt lat="55.872940" lon="8.169513">
|
|
<ele>4.476695</ele>
|
|
<time>2026-07-12T10:05:25.000Z</time>
|
|
</trkpt>
|
|
<trkpt lat="55.872974" lon="8.169527">
|
|
<ele>4.494054</ele>
|
|
<time>2026-07-12T10:05:26.000Z</time>
|
|
</trkpt>
|
|
<trkpt lat="55.873009" lon="8.169540">
|
|
<ele>4.511839</ele>
|
|
<time>2026-07-12T10:05:27.000Z</time>
|
|
</trkpt>
|
|
<trkpt lat="55.873039" lon="8.169554">
|
|
<ele>4.527265</ele>
|
|
<time>2026-07-12T10:05:28.000Z</time>
|
|
</trkpt>
|
|
<trkpt lat="55.873074" lon="8.169567">
|
|
<ele>4.534930</ele>
|
|
<time>2026-07-12T10:05:29.000Z</time>
|
|
</trkpt>
|
|
<trkpt lat="55.873104" lon="8.169580">
|
|
<ele>4.540864</ele>
|
|
<time>2026-07-12T10:05:30.000Z</time>
|
|
</trkpt>
|
|
<trkpt lat="55.873138" lon="8.169596">
|
|
<ele>4.547623</ele>
|
|
<time>2026-07-12T10:05:31.000Z</time>
|
|
</trkpt>
|
|
<trkpt lat="55.873173" lon="8.169611">
|
|
<ele>4.554542</ele>
|
|
<time>2026-07-12T10:05:32.000Z</time>
|
|
</trkpt>
|
|
<trkpt lat="55.873211" lon="8.169625">
|
|
<ele>4.562000</ele>
|
|
<time>2026-07-12T10:05:33.000Z</time>
|
|
</trkpt>
|
|
<trkpt lat="55.873249" lon="8.169643">
|
|
<ele>4.569557</ele>
|
|
<time>2026-07-12T10:05:34.000Z</time>
|
|
</trkpt>
|
|
<trkpt lat="55.873287" lon="8.169672">
|
|
<ele>4.577502</ele>
|
|
<time>2026-07-12T10:05:35.000Z</time>
|
|
</trkpt>
|
|
<trkpt lat="55.873329" lon="8.169718">
|
|
<ele>4.586976</ele>
|
|
<time>2026-07-12T10:05:36.000Z</time>
|
|
</trkpt>
|
|
<trkpt lat="55.873367" lon="8.169782">
|
|
<ele>4.597025</ele>
|
|
<time>2026-07-12T10:05:37.000Z</time>
|
|
</trkpt>
|
|
<trkpt lat="55.873398" lon="8.169853">
|
|
<ele>4.606726</ele>
|
|
<time>2026-07-12T10:05:38.000Z</time>
|
|
</trkpt>
|
|
<trkpt lat="55.873417" lon="8.169932">
|
|
<ele>4.615994</ele>
|
|
<time>2026-07-12T10:05:39.000Z</time>
|
|
</trkpt>
|
|
<trkpt lat="55.873432" lon="8.170027">
|
|
<ele>4.626636</ele>
|
|
<time>2026-07-12T10:05:40.000Z</time>
|
|
</trkpt>
|
|
<trkpt lat="55.873451" lon="8.170107">
|
|
<ele>4.636003</ele>
|
|
<time>2026-07-12T10:05:41.000Z</time>
|
|
</trkpt>
|
|
<trkpt lat="55.873478" lon="8.170176">
|
|
<ele>4.645075</ele>
|
|
<time>2026-07-12T10:05:42.000Z</time>
|
|
</trkpt>
|
|
<trkpt lat="55.873505" lon="8.170233">
|
|
<ele>4.653119</ele>
|
|
<time>2026-07-12T10:05:43.000Z</time>
|
|
</trkpt>
|
|
<trkpt lat="55.873531" lon="8.170284">
|
|
<ele>4.660549</ele>
|
|
<time>2026-07-12T10:05:44.000Z</time>
|
|
</trkpt>
|
|
<trkpt lat="55.873558" lon="8.170334">
|
|
<ele>4.668033</ele>
|
|
<time>2026-07-12T10:05:45.000Z</time>
|
|
</trkpt>
|
|
<trkpt lat="55.873577" lon="8.170385">
|
|
<ele>4.674634</ele>
|
|
<time>2026-07-12T10:05:46.000Z</time>
|
|
</trkpt>
|
|
<trkpt lat="55.873592" lon="8.170444">
|
|
<ele>4.681619</ele>
|
|
<time>2026-07-12T10:05:47.000Z</time>
|
|
</trkpt>
|
|
<trkpt lat="55.873611" lon="8.170509">
|
|
<ele>4.689522</ele>
|
|
<time>2026-07-12T10:05:48.000Z</time>
|
|
</trkpt>
|
|
<trkpt lat="55.873638" lon="8.170578">
|
|
<ele>4.698593</ele>
|
|
<time>2026-07-12T10:05:49.000Z</time>
|
|
</trkpt>
|
|
<trkpt lat="55.873672" lon="8.170642">
|
|
<ele>4.708097</ele>
|
|
<time>2026-07-12T10:05:50.000Z</time>
|
|
</trkpt>
|
|
<trkpt lat="55.873714" lon="8.170689">
|
|
<ele>4.717629</ele>
|
|
<time>2026-07-12T10:05:51.000Z</time>
|
|
</trkpt>
|
|
<trkpt lat="55.873756" lon="8.170721">
|
|
<ele>4.726408</ele>
|
|
<time>2026-07-12T10:05:52.000Z</time>
|
|
</trkpt>
|
|
<trkpt lat="55.873802" lon="8.170746">
|
|
<ele>4.735651</ele>
|
|
<time>2026-07-12T10:05:53.000Z</time>
|
|
</trkpt>
|
|
<trkpt lat="55.873844" lon="8.170765">
|
|
<ele>4.743979</ele>
|
|
<time>2026-07-12T10:05:54.000Z</time>
|
|
</trkpt>
|
|
<trkpt lat="55.873886" lon="8.170781">
|
|
<ele>4.752234</ele>
|
|
<time>2026-07-12T10:05:55.000Z</time>
|
|
</trkpt>
|
|
<trkpt lat="55.873928" lon="8.170797">
|
|
<ele>4.760489</ele>
|
|
<time>2026-07-12T10:05:56.000Z</time>
|
|
</trkpt>
|
|
<trkpt lat="55.873970" lon="8.170810">
|
|
<ele>4.768682</ele>
|
|
<time>2026-07-12T10:05:57.000Z</time>
|
|
</trkpt>
|
|
<trkpt lat="55.874008" lon="8.170820">
|
|
<ele>4.776065</ele>
|
|
<time>2026-07-12T10:05:58.000Z</time>
|
|
</trkpt>
|
|
<trkpt lat="55.874046" lon="8.170832">
|
|
<ele>4.783482</ele>
|
|
<time>2026-07-12T10:05:59.000Z</time>
|
|
</trkpt>
|
|
<trkpt lat="55.874084" lon="8.170850">
|
|
<ele>4.791039</ele>
|
|
<time>2026-07-12T10:06:00.000Z</time>
|
|
</trkpt>
|
|
<trkpt lat="55.874126" lon="8.170874">
|
|
<ele>4.799516</ele>
|
|
<time>2026-07-12T10:06:01.000Z</time>
|
|
</trkpt>
|
|
<trkpt lat="55.874184" lon="8.170906">
|
|
<ele>4.811186</ele>
|
|
<time>2026-07-12T10:06:02.000Z</time>
|
|
</trkpt>
|
|
<trkpt lat="55.874233" lon="8.170933">
|
|
<ele>4.821043</ele>
|
|
<time>2026-07-12T10:06:03.000Z</time>
|
|
</trkpt>
|
|
<trkpt lat="55.874287" lon="8.170955">
|
|
<ele>4.831690</ele>
|
|
<time>2026-07-12T10:06:04.000Z</time>
|
|
</trkpt>
|
|
<trkpt lat="55.874336" lon="8.170970">
|
|
<ele>4.841246</ele>
|
|
<time>2026-07-12T10:06:05.000Z</time>
|
|
</trkpt>
|
|
<trkpt lat="55.874390" lon="8.170981">
|
|
<ele>4.851692</ele>
|
|
<time>2026-07-12T10:06:06.000Z</time>
|
|
</trkpt>
|
|
<trkpt lat="55.874447" lon="8.170994">
|
|
<ele>4.862737</ele>
|
|
<time>2026-07-12T10:06:07.000Z</time>
|
|
</trkpt>
|
|
<trkpt lat="55.874504" lon="8.171008">
|
|
<ele>4.873796</ele>
|
|
<time>2026-07-12T10:06:08.000Z</time>
|
|
</trkpt>
|
|
<trkpt lat="55.874557" lon="8.171017">
|
|
<ele>4.830653</ele>
|
|
<time>2026-07-12T10:06:09.000Z</time>
|
|
</trkpt>
|
|
<trkpt lat="55.874603" lon="8.171019">
|
|
<ele>4.791175</ele>
|
|
<time>2026-07-12T10:06:10.000Z</time>
|
|
</trkpt>
|
|
<trkpt lat="55.874653" lon="8.171015">
|
|
<ele>4.748233</ele>
|
|
<time>2026-07-12T10:06:11.000Z</time>
|
|
</trkpt>
|
|
<trkpt lat="55.874699" lon="8.171012">
|
|
<ele>4.708739</ele>
|
|
<time>2026-07-12T10:06:12.000Z</time>
|
|
</trkpt>
|
|
<trkpt lat="55.874741" lon="8.171012">
|
|
<ele>4.672704</ele>
|
|
<time>2026-07-12T10:06:13.000Z</time>
|
|
</trkpt>
|
|
<trkpt lat="55.874783" lon="8.171014">
|
|
<ele>4.636656</ele>
|
|
<time>2026-07-12T10:06:14.000Z</time>
|
|
</trkpt>
|
|
<trkpt lat="55.874828" lon="8.171015">
|
|
<ele>4.598044</ele>
|
|
<time>2026-07-12T10:06:15.000Z</time>
|
|
</trkpt>
|
|
<trkpt lat="55.874878" lon="8.171008">
|
|
<ele>4.555014</ele>
|
|
<time>2026-07-12T10:06:16.000Z</time>
|
|
</trkpt>
|
|
<trkpt lat="55.874928" lon="8.171000">
|
|
<ele>4.511942</ele>
|
|
<time>2026-07-12T10:06:17.000Z</time>
|
|
</trkpt>
|
|
<trkpt lat="55.874981" lon="8.170988">
|
|
<ele>4.466104</ele>
|
|
<time>2026-07-12T10:06:18.000Z</time>
|
|
</trkpt>
|
|
<trkpt lat="55.875034" lon="8.170978">
|
|
<ele>4.420377</ele>
|
|
<time>2026-07-12T10:06:19.000Z</time>
|
|
</trkpt>
|
|
<trkpt lat="55.875088" lon="8.170971">
|
|
<ele>4.373924</ele>
|
|
<time>2026-07-12T10:06:20.000Z</time>
|
|
</trkpt>
|
|
<trkpt lat="55.875145" lon="8.170964">
|
|
<ele>4.324904</ele>
|
|
<time>2026-07-12T10:06:21.000Z</time>
|
|
</trkpt>
|
|
<trkpt lat="55.875198" lon="8.170958">
|
|
<ele>4.279340</ele>
|
|
<time>2026-07-12T10:06:22.000Z</time>
|
|
</trkpt>
|
|
<trkpt lat="55.875252" lon="8.170952">
|
|
<ele>4.232919</ele>
|
|
<time>2026-07-12T10:06:23.000Z</time>
|
|
</trkpt>
|
|
<trkpt lat="55.875305" lon="8.170942">
|
|
<ele>4.187192</ele>
|
|
<time>2026-07-12T10:06:24.000Z</time>
|
|
</trkpt>
|
|
<trkpt lat="55.875355" lon="8.170934">
|
|
<ele>4.144121</ele>
|
|
<time>2026-07-12T10:06:25.000Z</time>
|
|
</trkpt>
|
|
<trkpt lat="55.875401" lon="8.170924">
|
|
<ele>4.104362</ele>
|
|
<time>2026-07-12T10:06:26.000Z</time>
|
|
</trkpt>
|
|
<trkpt lat="55.875439" lon="8.170915">
|
|
<ele>4.071472</ele>
|
|
<time>2026-07-12T10:06:27.000Z</time>
|
|
</trkpt>
|
|
<trkpt lat="55.875492" lon="8.170908">
|
|
<ele>4.025875</ele>
|
|
<time>2026-07-12T10:06:28.000Z</time>
|
|
</trkpt>
|
|
<trkpt lat="55.875549" lon="8.170904">
|
|
<ele>3.976932</ele>
|
|
<time>2026-07-12T10:06:29.000Z</time>
|
|
</trkpt>
|
|
<trkpt lat="55.875607" lon="8.170902">
|
|
<ele>3.927160</ele>
|
|
<time>2026-07-12T10:06:30.000Z</time>
|
|
</trkpt>
|
|
<trkpt lat="55.875668" lon="8.170899">
|
|
<ele>3.874804</ele>
|
|
<time>2026-07-12T10:06:31.000Z</time>
|
|
</trkpt>
|
|
<trkpt lat="55.875729" lon="8.170897">
|
|
<ele>3.822458</ele>
|
|
<time>2026-07-12T10:06:32.000Z</time>
|
|
</trkpt>
|
|
<trkpt lat="55.875786" lon="8.170889">
|
|
<ele>3.773402</ele>
|
|
<time>2026-07-12T10:06:33.000Z</time>
|
|
</trkpt>
|
|
<trkpt lat="55.875843" lon="8.170873">
|
|
<ele>3.723895</ele>
|
|
<time>2026-07-12T10:06:34.000Z</time>
|
|
</trkpt>
|
|
<trkpt lat="55.875904" lon="8.170850">
|
|
<ele>3.670401</ele>
|
|
<time>2026-07-12T10:06:35.000Z</time>
|
|
</trkpt>
|
|
<trkpt lat="55.875957" lon="8.170821">
|
|
<ele>3.622834</ele>
|
|
<time>2026-07-12T10:06:36.000Z</time>
|
|
</trkpt>
|
|
<trkpt lat="55.876007" lon="8.170785">
|
|
<ele>3.576568</ele>
|
|
<time>2026-07-12T10:06:37.000Z</time>
|
|
</trkpt>
|
|
<trkpt lat="55.876057" lon="8.170747">
|
|
<ele>3.529933</ele>
|
|
<time>2026-07-12T10:06:38.000Z</time>
|
|
</trkpt>
|
|
<trkpt lat="55.876102" lon="8.170709">
|
|
<ele>3.487211</ele>
|
|
<time>2026-07-12T10:06:39.000Z</time>
|
|
</trkpt>
|
|
<trkpt lat="55.876144" lon="8.170669">
|
|
<ele>3.446355</ele>
|
|
<time>2026-07-12T10:06:40.000Z</time>
|
|
</trkpt>
|
|
<trkpt lat="55.876186" lon="8.170627">
|
|
<ele>3.405037</ele>
|
|
<time>2026-07-12T10:06:41.000Z</time>
|
|
</trkpt>
|
|
<trkpt lat="55.876228" lon="8.170586">
|
|
<ele>3.363953</ele>
|
|
<time>2026-07-12T10:06:42.000Z</time>
|
|
</trkpt>
|
|
<trkpt lat="55.876266" lon="8.170544">
|
|
<ele>3.329891</ele>
|
|
<time>2026-07-12T10:06:43.000Z</time>
|
|
</trkpt>
|
|
<trkpt lat="55.876308" lon="8.170497">
|
|
<ele>3.320748</ele>
|
|
<time>2026-07-12T10:06:44.000Z</time>
|
|
</trkpt>
|
|
<trkpt lat="55.876354" lon="8.170446">
|
|
<ele>3.310760</ele>
|
|
<time>2026-07-12T10:06:45.000Z</time>
|
|
</trkpt>
|
|
<trkpt lat="55.876396" lon="8.170398">
|
|
<ele>3.301562</ele>
|
|
<time>2026-07-12T10:06:46.000Z</time>
|
|
</trkpt>
|
|
<trkpt lat="55.876442" lon="8.170355">
|
|
<ele>3.291986</ele>
|
|
<time>2026-07-12T10:06:47.000Z</time>
|
|
</trkpt>
|
|
<trkpt lat="55.876484" lon="8.170318">
|
|
<ele>3.283348</ele>
|
|
<time>2026-07-12T10:06:48.000Z</time>
|
|
</trkpt>
|
|
<trkpt lat="55.876522" lon="8.170288">
|
|
<ele>3.275686</ele>
|
|
<time>2026-07-12T10:06:49.000Z</time>
|
|
</trkpt>
|
|
<trkpt lat="55.876564" lon="8.170272">
|
|
<ele>3.267767</ele>
|
|
<time>2026-07-12T10:06:50.000Z</time>
|
|
</trkpt>
|
|
<trkpt lat="55.876610" lon="8.170268">
|
|
<ele>3.259276</ele>
|
|
<time>2026-07-12T10:06:51.000Z</time>
|
|
</trkpt>
|
|
<trkpt lat="55.876652" lon="8.170269">
|
|
<ele>3.251532</ele>
|
|
<time>2026-07-12T10:06:52.000Z</time>
|
|
</trkpt>
|
|
<trkpt lat="55.876694" lon="8.170270">
|
|
<ele>3.243788</ele>
|
|
<time>2026-07-12T10:06:53.000Z</time>
|
|
</trkpt>
|
|
<trkpt lat="55.876732" lon="8.170269">
|
|
<ele>3.236781</ele>
|
|
<time>2026-07-12T10:06:54.000Z</time>
|
|
</trkpt>
|
|
<trkpt lat="55.876778" lon="8.170262">
|
|
<ele>3.228269</ele>
|
|
<time>2026-07-12T10:06:55.000Z</time>
|
|
</trkpt>
|
|
<trkpt lat="55.876823" lon="8.170247">
|
|
<ele>3.219829</ele>
|
|
<time>2026-07-12T10:06:56.000Z</time>
|
|
</trkpt>
|
|
<trkpt lat="55.876869" lon="8.170221">
|
|
<ele>3.210932</ele>
|
|
<time>2026-07-12T10:06:57.000Z</time>
|
|
</trkpt>
|
|
<trkpt lat="55.876915" lon="8.170190">
|
|
<ele>3.201865</ele>
|
|
<time>2026-07-12T10:06:58.000Z</time>
|
|
</trkpt>
|
|
<trkpt lat="55.876961" lon="8.170152">
|
|
<ele>3.192517</ele>
|
|
<time>2026-07-12T10:06:59.000Z</time>
|
|
</trkpt>
|
|
<trkpt lat="55.876999" lon="8.170116">
|
|
<ele>3.184583</ele>
|
|
<time>2026-07-12T10:07:00.000Z</time>
|
|
</trkpt>
|
|
<trkpt lat="55.877033" lon="8.170085">
|
|
<ele>3.177543</ele>
|
|
<time>2026-07-12T10:07:01.000Z</time>
|
|
</trkpt>
|
|
<trkpt lat="55.877064" lon="8.170057">
|
|
<ele>3.171135</ele>
|
|
<time>2026-07-12T10:07:02.000Z</time>
|
|
</trkpt>
|
|
<trkpt lat="55.877094" lon="8.170033">
|
|
<ele>3.165073</ele>
|
|
<time>2026-07-12T10:07:03.000Z</time>
|
|
</trkpt>
|
|
<trkpt lat="55.877132" lon="8.170006">
|
|
<ele>3.157531</ele>
|
|
<time>2026-07-12T10:07:04.000Z</time>
|
|
</trkpt>
|
|
<trkpt lat="55.877171" lon="8.169973">
|
|
<ele>3.149571</ele>
|
|
<time>2026-07-12T10:07:05.000Z</time>
|
|
</trkpt>
|
|
<trkpt lat="55.877216" lon="8.169934">
|
|
<ele>3.140346</ele>
|
|
<time>2026-07-12T10:07:06.000Z</time>
|
|
</trkpt>
|
|
<trkpt lat="55.877266" lon="8.169888">
|
|
<ele>3.129972</ele>
|
|
<time>2026-07-12T10:07:07.000Z</time>
|
|
</trkpt>
|
|
<trkpt lat="55.877319" lon="8.169837">
|
|
<ele>3.118868</ele>
|
|
<time>2026-07-12T10:07:08.000Z</time>
|
|
</trkpt>
|
|
<trkpt lat="55.877373" lon="8.169784">
|
|
<ele>3.107503</ele>
|
|
<time>2026-07-12T10:07:09.000Z</time>
|
|
</trkpt>
|
|
<trkpt lat="55.877426" lon="8.169730">
|
|
<ele>3.096248</ele>
|
|
<time>2026-07-12T10:07:10.000Z</time>
|
|
</trkpt>
|
|
<trkpt lat="55.877483" lon="8.169680">
|
|
<ele>3.084535</ele>
|
|
<time>2026-07-12T10:07:11.000Z</time>
|
|
</trkpt>
|
|
<trkpt lat="55.877529" lon="8.169635">
|
|
<ele>3.074861</ele>
|
|
<time>2026-07-12T10:07:12.000Z</time>
|
|
</trkpt>
|
|
<trkpt lat="55.877575" lon="8.169593">
|
|
<ele>3.065333</ele>
|
|
<time>2026-07-12T10:07:13.000Z</time>
|
|
</trkpt>
|
|
<trkpt lat="55.877613" lon="8.169555">
|
|
<ele>3.057300</ele>
|
|
<time>2026-07-12T10:07:14.000Z</time>
|
|
</trkpt>
|
|
<trkpt lat="55.877651" lon="8.169519">
|
|
<ele>3.049366</ele>
|
|
<time>2026-07-12T10:07:15.000Z</time>
|
|
</trkpt>
|
|
<trkpt lat="55.877708" lon="8.169459">
|
|
<ele>3.037161</ele>
|
|
<time>2026-07-12T10:07:16.000Z</time>
|
|
</trkpt>
|
|
<trkpt lat="55.877762" lon="8.169410">
|
|
<ele>3.025990</ele>
|
|
<time>2026-07-12T10:07:17.000Z</time>
|
|
</trkpt>
|
|
<trkpt lat="55.877815" lon="8.169361">
|
|
<ele>3.014982</ele>
|
|
<time>2026-07-12T10:07:18.000Z</time>
|
|
</trkpt>
|
|
<trkpt lat="55.877865" lon="8.169313">
|
|
<ele>3.004512</ele>
|
|
<time>2026-07-12T10:07:19.000Z</time>
|
|
</trkpt>
|
|
<trkpt lat="55.877911" lon="8.169268">
|
|
<ele>2.993262</ele>
|
|
<time>2026-07-12T10:07:20.000Z</time>
|
|
</trkpt>
|
|
<trkpt lat="55.877960" lon="8.169219">
|
|
<ele>2.979367</ele>
|
|
<time>2026-07-12T10:07:21.000Z</time>
|
|
</trkpt>
|
|
<trkpt lat="55.878014" lon="8.169170">
|
|
<ele>2.964381</ele>
|
|
<time>2026-07-12T10:07:22.000Z</time>
|
|
</trkpt>
|
|
<trkpt lat="55.878067" lon="8.169123">
|
|
<ele>2.949740</ele>
|
|
<time>2026-07-12T10:07:23.000Z</time>
|
|
</trkpt>
|
|
<trkpt lat="55.878120" lon="8.169085">
|
|
<ele>2.935612</ele>
|
|
<time>2026-07-12T10:07:24.000Z</time>
|
|
</trkpt>
|
|
<trkpt lat="55.878174" lon="8.169045">
|
|
<ele>2.921149</ele>
|
|
<time>2026-07-12T10:07:25.000Z</time>
|
|
</trkpt>
|
|
<trkpt lat="55.878227" lon="8.169008">
|
|
<ele>2.907072</ele>
|
|
<time>2026-07-12T10:07:26.000Z</time>
|
|
</trkpt>
|
|
<trkpt lat="55.878273" lon="8.168974">
|
|
<ele>2.894756</ele>
|
|
<time>2026-07-12T10:07:27.000Z</time>
|
|
</trkpt>
|
|
<trkpt lat="55.878326" lon="8.168939">
|
|
<ele>2.880777</ele>
|
|
<time>2026-07-12T10:07:28.000Z</time>
|
|
</trkpt>
|
|
<trkpt lat="55.878376" lon="8.168907">
|
|
<ele>2.867638</ele>
|
|
<time>2026-07-12T10:07:29.000Z</time>
|
|
</trkpt>
|
|
<trkpt lat="55.878426" lon="8.168877">
|
|
<ele>2.854590</ele>
|
|
<time>2026-07-12T10:07:30.000Z</time>
|
|
</trkpt>
|
|
<trkpt lat="55.878475" lon="8.168847">
|
|
<ele>2.841777</ele>
|
|
<time>2026-07-12T10:07:31.000Z</time>
|
|
</trkpt>
|
|
<trkpt lat="55.878532" lon="8.168816">
|
|
<ele>2.827038</ele>
|
|
<time>2026-07-12T10:07:32.000Z</time>
|
|
</trkpt>
|
|
<trkpt lat="55.878582" lon="8.168786">
|
|
<ele>2.813990</ele>
|
|
<time>2026-07-12T10:07:33.000Z</time>
|
|
</trkpt>
|
|
<trkpt lat="55.878639" lon="8.168753">
|
|
<ele>2.799168</ele>
|
|
<time>2026-07-12T10:07:34.000Z</time>
|
|
</trkpt>
|
|
<trkpt lat="55.878689" lon="8.168721">
|
|
<ele>2.786029</ele>
|
|
<time>2026-07-12T10:07:35.000Z</time>
|
|
</trkpt>
|
|
<trkpt lat="55.878735" lon="8.168691">
|
|
<ele>2.773914</ele>
|
|
<time>2026-07-12T10:07:36.000Z</time>
|
|
</trkpt>
|
|
<trkpt lat="55.878780" lon="8.168662">
|
|
<ele>2.762080</ele>
|
|
<time>2026-07-12T10:07:37.000Z</time>
|
|
</trkpt>
|
|
<trkpt lat="55.878826" lon="8.168633">
|
|
<ele>2.750013</ele>
|
|
<time>2026-07-12T10:07:38.000Z</time>
|
|
</trkpt>
|
|
<trkpt lat="55.878872" lon="8.168606">
|
|
<ele>2.738035</ele>
|
|
<time>2026-07-12T10:07:39.000Z</time>
|
|
</trkpt>
|
|
<trkpt lat="55.878918" lon="8.168580">
|
|
<ele>2.726100</ele>
|
|
<time>2026-07-12T10:07:40.000Z</time>
|
|
</trkpt>
|
|
<trkpt lat="55.878963" lon="8.168556">
|
|
<ele>2.714483</ele>
|
|
<time>2026-07-12T10:07:41.000Z</time>
|
|
</trkpt>
|
|
<trkpt lat="55.879005" lon="8.168530">
|
|
<ele>2.703487</ele>
|
|
<time>2026-07-12T10:07:42.000Z</time>
|
|
</trkpt>
|
|
<trkpt lat="55.879047" lon="8.168505">
|
|
<ele>2.692536</ele>
|
|
<time>2026-07-12T10:07:43.000Z</time>
|
|
</trkpt>
|
|
<trkpt lat="55.879089" lon="8.168478">
|
|
<ele>2.681493</ele>
|
|
<time>2026-07-12T10:07:44.000Z</time>
|
|
</trkpt>
|
|
<trkpt lat="55.879135" lon="8.168450">
|
|
<ele>2.669472</ele>
|
|
<time>2026-07-12T10:07:45.000Z</time>
|
|
</trkpt>
|
|
<trkpt lat="55.879181" lon="8.168420">
|
|
<ele>2.657357</ele>
|
|
<time>2026-07-12T10:07:46.000Z</time>
|
|
</trkpt>
|
|
<trkpt lat="55.879227" lon="8.168388">
|
|
<ele>2.645145</ele>
|
|
<time>2026-07-12T10:07:47.000Z</time>
|
|
</trkpt>
|
|
<trkpt lat="55.879272" lon="8.168362">
|
|
<ele>2.633445</ele>
|
|
<time>2026-07-12T10:07:48.000Z</time>
|
|
</trkpt>
|
|
<trkpt lat="55.879318" lon="8.168344">
|
|
<ele>2.621798</ele>
|
|
<time>2026-07-12T10:07:49.000Z</time>
|
|
</trkpt>
|
|
<trkpt lat="55.879364" lon="8.168335">
|
|
<ele>2.610353</ele>
|
|
<time>2026-07-12T10:07:50.000Z</time>
|
|
</trkpt>
|
|
<trkpt lat="55.879410" lon="8.168333">
|
|
<ele>2.598972</ele>
|
|
<time>2026-07-12T10:07:51.000Z</time>
|
|
</trkpt>
|
|
<trkpt lat="55.879456" lon="8.168335">
|
|
<ele>2.587592</ele>
|
|
<time>2026-07-12T10:07:52.000Z</time>
|
|
</trkpt>
|
|
<trkpt lat="55.879494" lon="8.168338">
|
|
<ele>2.578185</ele>
|
|
<time>2026-07-12T10:07:53.000Z</time>
|
|
</trkpt>
|
|
<trkpt lat="55.879532" lon="8.168342">
|
|
<ele>2.568770</ele>
|
|
<time>2026-07-12T10:07:54.000Z</time>
|
|
</trkpt>
|
|
<trkpt lat="55.879581" lon="8.168348">
|
|
<ele>2.556623</ele>
|
|
<time>2026-07-12T10:07:55.000Z</time>
|
|
</trkpt>
|
|
<trkpt lat="55.879623" lon="8.168354">
|
|
<ele>2.550210</ele>
|
|
<time>2026-07-12T10:07:56.000Z</time>
|
|
</trkpt>
|
|
<trkpt lat="55.879665" lon="8.168359">
|
|
<ele>2.544765</ele>
|
|
<time>2026-07-12T10:07:57.000Z</time>
|
|
</trkpt>
|
|
<trkpt lat="55.879711" lon="8.168365">
|
|
<ele>2.538799</ele>
|
|
<time>2026-07-12T10:07:58.000Z</time>
|
|
</trkpt>
|
|
<trkpt lat="55.879757" lon="8.168372">
|
|
<ele>2.532827</ele>
|
|
<time>2026-07-12T10:07:59.000Z</time>
|
|
</trkpt>
|
|
<trkpt lat="55.879795" lon="8.168381">
|
|
<ele>2.527868</ele>
|
|
<time>2026-07-12T10:08:00.000Z</time>
|
|
</trkpt>
|
|
<trkpt lat="55.879837" lon="8.168389">
|
|
<ele>2.522404</ele>
|
|
<time>2026-07-12T10:08:01.000Z</time>
|
|
</trkpt>
|
|
<trkpt lat="55.879875" lon="8.168397">
|
|
<ele>2.517454</ele>
|
|
<time>2026-07-12T10:08:02.000Z</time>
|
|
</trkpt>
|
|
<trkpt lat="55.879917" lon="8.168403">
|
|
<ele>2.512003</ele>
|
|
<time>2026-07-12T10:08:03.000Z</time>
|
|
</trkpt>
|
|
<trkpt lat="55.879959" lon="8.168411">
|
|
<ele>2.506540</ele>
|
|
<time>2026-07-12T10:08:04.000Z</time>
|
|
</trkpt>
|
|
<trkpt lat="55.880001" lon="8.168418">
|
|
<ele>2.501083</ele>
|
|
<time>2026-07-12T10:08:05.000Z</time>
|
|
</trkpt>
|
|
<trkpt lat="55.880035" lon="8.168425">
|
|
<ele>2.496655</ele>
|
|
<time>2026-07-12T10:08:06.000Z</time>
|
|
</trkpt>
|
|
<trkpt lat="55.880074" lon="8.168430">
|
|
<ele>2.491597</ele>
|
|
<time>2026-07-12T10:08:07.000Z</time>
|
|
</trkpt>
|
|
<trkpt lat="55.880108" lon="8.168437">
|
|
<ele>2.487170</ele>
|
|
<time>2026-07-12T10:08:08.000Z</time>
|
|
</trkpt>
|
|
<trkpt lat="55.880146" lon="8.168445">
|
|
<ele>2.482220</ele>
|
|
<time>2026-07-12T10:08:09.000Z</time>
|
|
</trkpt>
|
|
<trkpt lat="55.880184" lon="8.168449">
|
|
<ele>2.477296</ele>
|
|
<time>2026-07-12T10:08:10.000Z</time>
|
|
</trkpt>
|
|
<trkpt lat="55.880222" lon="8.168454">
|
|
<ele>2.472367</ele>
|
|
<time>2026-07-12T10:08:11.000Z</time>
|
|
</trkpt>
|
|
<trkpt lat="55.880268" lon="8.168462">
|
|
<ele>2.466388</ele>
|
|
<time>2026-07-12T10:08:12.000Z</time>
|
|
</trkpt>
|
|
<trkpt lat="55.880310" lon="8.168468">
|
|
<ele>2.460938</ele>
|
|
<time>2026-07-12T10:08:13.000Z</time>
|
|
</trkpt>
|
|
<trkpt lat="55.880348" lon="8.168473">
|
|
<ele>2.456009</ele>
|
|
<time>2026-07-12T10:08:14.000Z</time>
|
|
</trkpt>
|
|
<trkpt lat="55.880390" lon="8.168476">
|
|
<ele>2.450571</ele>
|
|
<time>2026-07-12T10:08:15.000Z</time>
|
|
</trkpt>
|
|
<trkpt lat="55.880432" lon="8.168480">
|
|
<ele>2.445131</ele>
|
|
<time>2026-07-12T10:08:16.000Z</time>
|
|
</trkpt>
|
|
<trkpt lat="55.880466" lon="8.168485">
|
|
<ele>2.440717</ele>
|
|
<time>2026-07-12T10:08:17.000Z</time>
|
|
</trkpt>
|
|
<trkpt lat="55.880497" lon="8.168489">
|
|
<ele>2.436697</ele>
|
|
<time>2026-07-12T10:08:18.000Z</time>
|
|
</trkpt>
|
|
<trkpt lat="55.880527" lon="8.168492">
|
|
<ele>2.432810</ele>
|
|
<time>2026-07-12T10:08:19.000Z</time>
|
|
</trkpt>
|
|
<trkpt lat="55.880550" lon="8.168493">
|
|
<ele>2.429834</ele>
|
|
<time>2026-07-12T10:08:20.000Z</time>
|
|
</trkpt>
|
|
<trkpt lat="55.880566" lon="8.168495">
|
|
<ele>2.427759</ele>
|
|
<time>2026-07-12T10:08:21.000Z</time>
|
|
</trkpt>
|
|
<trkpt lat="55.880577" lon="8.168501">
|
|
<ele>2.426271</ele>
|
|
<time>2026-07-12T10:08:22.000Z</time>
|
|
</trkpt>
|
|
<trkpt lat="55.880634" lon="8.168420">
|
|
<ele>2.416842</ele>
|
|
<time>2026-07-12T10:08:36.000Z</time>
|
|
</trkpt>
|
|
<trkpt lat="55.880650" lon="8.168386">
|
|
<ele>2.413622</ele>
|
|
<time>2026-07-12T10:08:37.000Z</time>
|
|
</trkpt>
|
|
<trkpt lat="55.880669" lon="8.168344">
|
|
<ele>2.409706</ele>
|
|
<time>2026-07-12T10:08:38.000Z</time>
|
|
</trkpt>
|
|
<trkpt lat="55.880688" lon="8.168310">
|
|
<ele>2.406224</ele>
|
|
<time>2026-07-12T10:08:39.000Z</time>
|
|
</trkpt>
|
|
<trkpt lat="55.880714" lon="8.168272">
|
|
<ele>2.401875</ele>
|
|
<time>2026-07-12T10:08:40.000Z</time>
|
|
</trkpt>
|
|
<trkpt lat="55.880741" lon="8.168228">
|
|
<ele>2.397143</ele>
|
|
<time>2026-07-12T10:08:41.000Z</time>
|
|
</trkpt>
|
|
<trkpt lat="55.880768" lon="8.168188">
|
|
<ele>2.392602</ele>
|
|
<time>2026-07-12T10:08:42.000Z</time>
|
|
</trkpt>
|
|
<trkpt lat="55.880795" lon="8.168149">
|
|
<ele>2.388107</ele>
|
|
<time>2026-07-12T10:08:43.000Z</time>
|
|
</trkpt>
|
|
<trkpt lat="55.880821" lon="8.168119">
|
|
<ele>2.384100</ele>
|
|
<time>2026-07-12T10:08:44.000Z</time>
|
|
</trkpt>
|
|
<trkpt lat="55.880856" lon="8.168105">
|
|
<ele>2.379460</ele>
|
|
<time>2026-07-12T10:08:45.000Z</time>
|
|
</trkpt>
|
|
<trkpt lat="55.880886" lon="8.168115">
|
|
<ele>2.375512</ele>
|
|
<time>2026-07-12T10:08:46.000Z</time>
|
|
</trkpt>
|
|
<trkpt lat="55.880909" lon="8.168143">
|
|
<ele>2.371909</ele>
|
|
<time>2026-07-12T10:08:47.000Z</time>
|
|
</trkpt>
|
|
<trkpt lat="55.880936" lon="8.168184">
|
|
<ele>2.367322</ele>
|
|
<time>2026-07-12T10:08:48.000Z</time>
|
|
</trkpt>
|
|
<trkpt lat="55.880959" lon="8.168239">
|
|
<ele>2.362344</ele>
|
|
<time>2026-07-12T10:08:49.000Z</time>
|
|
</trkpt>
|
|
<trkpt lat="55.880978" lon="8.168293">
|
|
<ele>2.357719</ele>
|
|
<time>2026-07-12T10:08:50.000Z</time>
|
|
</trkpt>
|
|
<trkpt lat="55.881008" lon="8.168365">
|
|
<ele>2.351211</ele>
|
|
<time>2026-07-12T10:08:51.000Z</time>
|
|
</trkpt>
|
|
<trkpt lat="55.881027" lon="8.168422">
|
|
<ele>2.346400</ele>
|
|
<time>2026-07-12T10:08:52.000Z</time>
|
|
</trkpt>
|
|
<trkpt lat="55.881046" lon="8.168479">
|
|
<ele>2.341589</ele>
|
|
<time>2026-07-12T10:08:53.000Z</time>
|
|
</trkpt>
|
|
<trkpt lat="55.881062" lon="8.168537">
|
|
<ele>2.336899</ele>
|
|
<time>2026-07-12T10:08:54.000Z</time>
|
|
</trkpt>
|
|
<trkpt lat="55.881077" lon="8.168594">
|
|
<ele>2.332330</ele>
|
|
<time>2026-07-12T10:08:55.000Z</time>
|
|
</trkpt>
|
|
<trkpt lat="55.881092" lon="8.168650">
|
|
<ele>2.327828</ele>
|
|
<time>2026-07-12T10:08:56.000Z</time>
|
|
</trkpt>
|
|
<trkpt lat="55.881107" lon="8.168703">
|
|
<ele>2.323520</ele>
|
|
<time>2026-07-12T10:08:57.000Z</time>
|
|
</trkpt>
|
|
<trkpt lat="55.881126" lon="8.168753">
|
|
<ele>2.316219</ele>
|
|
<time>2026-07-12T10:08:58.000Z</time>
|
|
</trkpt>
|
|
<trkpt lat="55.881149" lon="8.168801">
|
|
<ele>2.306859</ele>
|
|
<time>2026-07-12T10:08:59.000Z</time>
|
|
</trkpt>
|
|
<trkpt lat="55.881180" lon="8.168842">
|
|
<ele>2.296657</ele>
|
|
<time>2026-07-12T10:09:00.000Z</time>
|
|
</trkpt>
|
|
<trkpt lat="55.881210" lon="8.168872">
|
|
<ele>2.287565</ele>
|
|
<time>2026-07-12T10:09:01.000Z</time>
|
|
</trkpt>
|
|
<trkpt lat="55.881245" lon="8.168892">
|
|
<ele>2.277851</ele>
|
|
<time>2026-07-12T10:09:02.000Z</time>
|
|
</trkpt>
|
|
<trkpt lat="55.881279" lon="8.168902">
|
|
<ele>2.268743</ele>
|
|
<time>2026-07-12T10:09:03.000Z</time>
|
|
</trkpt>
|
|
<trkpt lat="55.881313" lon="8.168907">
|
|
<ele>2.259726</ele>
|
|
<time>2026-07-12T10:09:04.000Z</time>
|
|
</trkpt>
|
|
<trkpt lat="55.881344" lon="8.168909">
|
|
<ele>2.251527</ele>
|
|
<time>2026-07-12T10:09:05.000Z</time>
|
|
</trkpt>
|
|
<trkpt lat="55.881386" lon="8.168912">
|
|
<ele>2.240417</ele>
|
|
<time>2026-07-12T10:09:06.000Z</time>
|
|
</trkpt>
|
|
<trkpt lat="55.881424" lon="8.168914">
|
|
<ele>2.230368</ele>
|
|
<time>2026-07-12T10:09:07.000Z</time>
|
|
</trkpt>
|
|
<trkpt lat="55.881466" lon="8.168918">
|
|
<ele>2.219251</ele>
|
|
<time>2026-07-12T10:09:08.000Z</time>
|
|
</trkpt>
|
|
<trkpt lat="55.881508" lon="8.168924">
|
|
<ele>2.208115</ele>
|
|
<time>2026-07-12T10:09:09.000Z</time>
|
|
</trkpt>
|
|
<trkpt lat="55.881546" lon="8.168932">
|
|
<ele>2.198001</ele>
|
|
<time>2026-07-12T10:09:10.000Z</time>
|
|
</trkpt>
|
|
<trkpt lat="55.881588" lon="8.168943">
|
|
<ele>2.186781</ele>
|
|
<time>2026-07-12T10:09:11.000Z</time>
|
|
</trkpt>
|
|
<trkpt lat="55.881622" lon="8.168956">
|
|
<ele>2.177590</ele>
|
|
<time>2026-07-12T10:09:12.000Z</time>
|
|
</trkpt>
|
|
<trkpt lat="55.881664" lon="8.168965">
|
|
<ele>2.166409</ele>
|
|
<time>2026-07-12T10:09:13.000Z</time>
|
|
</trkpt>
|
|
<trkpt lat="55.881699" lon="8.168970">
|
|
<ele>2.157128</ele>
|
|
<time>2026-07-12T10:09:14.000Z</time>
|
|
</trkpt>
|
|
<trkpt lat="55.881721" lon="8.168970">
|
|
<ele>2.151313</ele>
|
|
<time>2026-07-12T10:09:15.000Z</time>
|
|
</trkpt>
|
|
<trkpt lat="55.881752" lon="8.168971">
|
|
<ele>2.143118</ele>
|
|
<time>2026-07-12T10:09:16.000Z</time>
|
|
</trkpt>
|
|
<trkpt lat="55.881821" lon="8.168980">
|
|
<ele>2.124832</ele>
|
|
<time>2026-07-12T10:09:17.000Z</time>
|
|
</trkpt>
|
|
<trkpt lat="55.881889" lon="8.168985">
|
|
<ele>2.106843</ele>
|
|
<time>2026-07-12T10:09:18.000Z</time>
|
|
</trkpt>
|
|
<trkpt lat="55.881935" lon="8.168988">
|
|
<ele>2.094677</ele>
|
|
<time>2026-07-12T10:09:19.000Z</time>
|
|
</trkpt>
|
|
<trkpt lat="55.881981" lon="8.168990">
|
|
<ele>2.082515</ele>
|
|
<time>2026-07-12T10:09:20.000Z</time>
|
|
</trkpt>
|
|
<trkpt lat="55.882027" lon="8.168991">
|
|
<ele>2.070356</ele>
|
|
<time>2026-07-12T10:09:21.000Z</time>
|
|
</trkpt>
|
|
<trkpt lat="55.882072" lon="8.168996">
|
|
<ele>2.058438</ele>
|
|
<time>2026-07-12T10:09:22.000Z</time>
|
|
</trkpt>
|
|
<trkpt lat="55.882118" lon="8.169001">
|
|
<ele>2.046257</ele>
|
|
<time>2026-07-12T10:09:23.000Z</time>
|
|
</trkpt>
|
|
<trkpt lat="55.882164" lon="8.169002">
|
|
<ele>2.034098</ele>
|
|
<time>2026-07-12T10:09:24.000Z</time>
|
|
</trkpt>
|
|
<trkpt lat="55.882210" lon="8.169001">
|
|
<ele>2.021939</ele>
|
|
<time>2026-07-12T10:09:25.000Z</time>
|
|
</trkpt>
|
|
<trkpt lat="55.882256" lon="8.168996">
|
|
<ele>2.009758</ele>
|
|
<time>2026-07-12T10:09:26.000Z</time>
|
|
</trkpt>
|
|
<trkpt lat="55.882297" lon="8.168990">
|
|
<ele>1.998885</ele>
|
|
<time>2026-07-12T10:09:27.000Z</time>
|
|
</trkpt>
|
|
<trkpt lat="55.882339" lon="8.168983">
|
|
<ele>1.987735</ele>
|
|
<time>2026-07-12T10:09:28.000Z</time>
|
|
</trkpt>
|
|
<trkpt lat="55.882381" lon="8.168976">
|
|
<ele>1.976586</ele>
|
|
<time>2026-07-12T10:09:29.000Z</time>
|
|
</trkpt>
|
|
<trkpt lat="55.882416" lon="8.168967">
|
|
<ele>1.967239</ele>
|
|
<time>2026-07-12T10:09:30.000Z</time>
|
|
</trkpt>
|
|
<trkpt lat="55.882454" lon="8.168959">
|
|
<ele>1.957125</ele>
|
|
<time>2026-07-12T10:09:31.000Z</time>
|
|
</trkpt>
|
|
<trkpt lat="55.882488" lon="8.168950">
|
|
<ele>1.948040</ele>
|
|
<time>2026-07-12T10:09:32.000Z</time>
|
|
</trkpt>
|
|
<trkpt lat="55.882526" lon="8.168942">
|
|
<ele>1.937926</ele>
|
|
<time>2026-07-12T10:09:33.000Z</time>
|
|
</trkpt>
|
|
<trkpt lat="55.882565" lon="8.168936">
|
|
<ele>1.927580</ele>
|
|
<time>2026-07-12T10:09:34.000Z</time>
|
|
</trkpt>
|
|
<trkpt lat="55.882607" lon="8.168926">
|
|
<ele>1.916380</ele>
|
|
<time>2026-07-12T10:09:35.000Z</time>
|
|
</trkpt>
|
|
<trkpt lat="55.882649" lon="8.168914">
|
|
<ele>1.905137</ele>
|
|
<time>2026-07-12T10:09:36.000Z</time>
|
|
</trkpt>
|
|
<trkpt lat="55.882690" lon="8.168905">
|
|
<ele>1.894219</ele>
|
|
<time>2026-07-12T10:09:37.000Z</time>
|
|
</trkpt>
|
|
<trkpt lat="55.882736" lon="8.168900">
|
|
<ele>1.882038</ele>
|
|
<time>2026-07-12T10:09:38.000Z</time>
|
|
</trkpt>
|
|
<trkpt lat="55.882782" lon="8.168893">
|
|
<ele>1.869835</ele>
|
|
<time>2026-07-12T10:09:39.000Z</time>
|
|
</trkpt>
|
|
<trkpt lat="55.882828" lon="8.168882">
|
|
<ele>1.857568</ele>
|
|
<time>2026-07-12T10:09:40.000Z</time>
|
|
</trkpt>
|
|
<trkpt lat="55.882870" lon="8.168871">
|
|
<ele>1.846643</ele>
|
|
<time>2026-07-12T10:09:41.000Z</time>
|
|
</trkpt>
|
|
<trkpt lat="55.882915" lon="8.168860">
|
|
<ele>1.853864</ele>
|
|
<time>2026-07-12T10:09:42.000Z</time>
|
|
</trkpt>
|
|
<trkpt lat="55.882957" lon="8.168851">
|
|
<ele>1.860589</ele>
|
|
<time>2026-07-12T10:09:43.000Z</time>
|
|
</trkpt>
|
|
<trkpt lat="55.882999" lon="8.168842">
|
|
<ele>1.867314</ele>
|
|
<time>2026-07-12T10:09:44.000Z</time>
|
|
</trkpt>
|
|
<trkpt lat="55.883041" lon="8.168832">
|
|
<ele>1.874051</ele>
|
|
<time>2026-07-12T10:09:45.000Z</time>
|
|
</trkpt>
|
|
<trkpt lat="55.883087" lon="8.168821">
|
|
<ele>1.881429</ele>
|
|
<time>2026-07-12T10:09:46.000Z</time>
|
|
</trkpt>
|
|
<trkpt lat="55.883129" lon="8.168810">
|
|
<ele>1.888178</ele>
|
|
<time>2026-07-12T10:09:47.000Z</time>
|
|
</trkpt>
|
|
<trkpt lat="55.883171" lon="8.168801">
|
|
<ele>1.894903</ele>
|
|
<time>2026-07-12T10:09:48.000Z</time>
|
|
</trkpt>
|
|
<trkpt lat="55.883217" lon="8.168792">
|
|
<ele>1.902260</ele>
|
|
<time>2026-07-12T10:09:49.000Z</time>
|
|
</trkpt>
|
|
<trkpt lat="55.883255" lon="8.168777">
|
|
<ele>1.908448</ele>
|
|
<time>2026-07-12T10:09:50.000Z</time>
|
|
</trkpt>
|
|
<trkpt lat="55.883289" lon="8.168756">
|
|
<ele>1.914168</ele>
|
|
<time>2026-07-12T10:09:51.000Z</time>
|
|
</trkpt>
|
|
<trkpt lat="55.883320" lon="8.168736">
|
|
<ele>1.919410</ele>
|
|
<time>2026-07-12T10:09:52.000Z</time>
|
|
</trkpt>
|
|
<trkpt lat="55.883377" lon="8.168731">
|
|
<ele>1.928482</ele>
|
|
<time>2026-07-12T10:09:53.000Z</time>
|
|
</trkpt>
|
|
<trkpt lat="55.883430" lon="8.168730">
|
|
<ele>1.936909</ele>
|
|
<time>2026-07-12T10:09:54.000Z</time>
|
|
</trkpt>
|
|
<trkpt lat="55.883472" lon="8.168724">
|
|
<ele>1.943607</ele>
|
|
<time>2026-07-12T10:09:55.000Z</time>
|
|
</trkpt>
|
|
<trkpt lat="55.883514" lon="8.168716">
|
|
<ele>1.950323</ele>
|
|
<time>2026-07-12T10:09:56.000Z</time>
|
|
</trkpt>
|
|
<trkpt lat="55.883560" lon="8.168708">
|
|
<ele>1.957670</ele>
|
|
<time>2026-07-12T10:09:57.000Z</time>
|
|
</trkpt>
|
|
<trkpt lat="55.883606" lon="8.168698">
|
|
<ele>1.965038</ele>
|
|
<time>2026-07-12T10:09:58.000Z</time>
|
|
</trkpt>
|
|
<trkpt lat="55.883652" lon="8.168691">
|
|
<ele>1.972377</ele>
|
|
<time>2026-07-12T10:09:59.000Z</time>
|
|
</trkpt>
|
|
<trkpt lat="55.883694" lon="8.168684">
|
|
<ele>1.979083</ele>
|
|
<time>2026-07-12T10:10:00.000Z</time>
|
|
</trkpt>
|
|
<trkpt lat="55.883732" lon="8.168678">
|
|
<ele>1.985148</ele>
|
|
<time>2026-07-12T10:10:01.000Z</time>
|
|
</trkpt>
|
|
<trkpt lat="55.883778" lon="8.168673">
|
|
<ele>1.992475</ele>
|
|
<time>2026-07-12T10:10:02.000Z</time>
|
|
</trkpt>
|
|
<trkpt lat="55.883812" lon="8.168664">
|
|
<ele>1.997940</ele>
|
|
<time>2026-07-12T10:10:03.000Z</time>
|
|
</trkpt>
|
|
<trkpt lat="55.883850" lon="8.168655">
|
|
<ele>2.004034</ele>
|
|
<time>2026-07-12T10:10:04.000Z</time>
|
|
</trkpt>
|
|
<trkpt lat="55.883888" lon="8.168644">
|
|
<ele>2.010154</ele>
|
|
<time>2026-07-12T10:10:05.000Z</time>
|
|
</trkpt>
|
|
<trkpt lat="55.883926" lon="8.168633">
|
|
<ele>2.016275</ele>
|
|
<time>2026-07-12T10:10:06.000Z</time>
|
|
</trkpt>
|
|
<trkpt lat="55.883972" lon="8.168622">
|
|
<ele>2.023653</ele>
|
|
<time>2026-07-12T10:10:07.000Z</time>
|
|
</trkpt>
|
|
<trkpt lat="55.884018" lon="8.168611">
|
|
<ele>2.031032</ele>
|
|
<time>2026-07-12T10:10:08.000Z</time>
|
|
</trkpt>
|
|
<trkpt lat="55.884068" lon="8.168599">
|
|
<ele>2.039052</ele>
|
|
<time>2026-07-12T10:10:09.000Z</time>
|
|
</trkpt>
|
|
<trkpt lat="55.884117" lon="8.168587">
|
|
<ele>2.046916</ele>
|
|
<time>2026-07-12T10:10:10.000Z</time>
|
|
</trkpt>
|
|
<trkpt lat="55.884167" lon="8.168574">
|
|
<ele>2.054949</ele>
|
|
<time>2026-07-12T10:10:11.000Z</time>
|
|
</trkpt>
|
|
<trkpt lat="55.884220" lon="8.168563">
|
|
<ele>2.063432</ele>
|
|
<time>2026-07-12T10:10:12.000Z</time>
|
|
</trkpt>
|
|
<trkpt lat="55.884270" lon="8.168550">
|
|
<ele>2.071465</ele>
|
|
<time>2026-07-12T10:10:13.000Z</time>
|
|
</trkpt>
|
|
<trkpt lat="55.884316" lon="8.168537">
|
|
<ele>2.078869</ele>
|
|
<time>2026-07-12T10:10:14.000Z</time>
|
|
</trkpt>
|
|
<trkpt lat="55.884361" lon="8.168525">
|
|
<ele>2.086103</ele>
|
|
<time>2026-07-12T10:10:15.000Z</time>
|
|
</trkpt>
|
|
<trkpt lat="55.884411" lon="8.168512">
|
|
<ele>2.094136</ele>
|
|
<time>2026-07-12T10:10:16.000Z</time>
|
|
</trkpt>
|
|
<trkpt lat="55.884460" lon="8.168503">
|
|
<ele>2.101967</ele>
|
|
<time>2026-07-12T10:10:17.000Z</time>
|
|
</trkpt>
|
|
<trkpt lat="55.884510" lon="8.168493">
|
|
<ele>2.109966</ele>
|
|
<time>2026-07-12T10:10:18.000Z</time>
|
|
</trkpt>
|
|
<trkpt lat="55.884560" lon="8.168484">
|
|
<ele>2.117955</ele>
|
|
<time>2026-07-12T10:10:19.000Z</time>
|
|
</trkpt>
|
|
<trkpt lat="55.884605" lon="8.168473">
|
|
<ele>2.125176</ele>
|
|
<time>2026-07-12T10:10:20.000Z</time>
|
|
</trkpt>
|
|
<trkpt lat="55.884655" lon="8.168462">
|
|
<ele>2.132431</ele>
|
|
<time>2026-07-12T10:10:21.000Z</time>
|
|
</trkpt>
|
|
<trkpt lat="55.884705" lon="8.168451">
|
|
<ele>2.131865</ele>
|
|
<time>2026-07-12T10:10:22.000Z</time>
|
|
</trkpt>
|
|
<trkpt lat="55.884747" lon="8.168440">
|
|
<ele>2.131388</ele>
|
|
<time>2026-07-12T10:10:23.000Z</time>
|
|
</trkpt>
|
|
<trkpt lat="55.884792" lon="8.168429">
|
|
<ele>2.130878</ele>
|
|
<time>2026-07-12T10:10:24.000Z</time>
|
|
</trkpt>
|
|
<trkpt lat="55.884834" lon="8.168419">
|
|
<ele>2.130402</ele>
|
|
<time>2026-07-12T10:10:25.000Z</time>
|
|
</trkpt>
|
|
<trkpt lat="55.884884" lon="8.168406">
|
|
<ele>2.129835</ele>
|
|
<time>2026-07-12T10:10:26.000Z</time>
|
|
</trkpt>
|
|
<trkpt lat="55.884922" lon="8.168396">
|
|
<ele>2.129403</ele>
|
|
<time>2026-07-12T10:10:27.000Z</time>
|
|
</trkpt>
|
|
<trkpt lat="55.884964" lon="8.168387">
|
|
<ele>2.128928</ele>
|
|
<time>2026-07-12T10:10:28.000Z</time>
|
|
</trkpt>
|
|
<trkpt lat="55.885002" lon="8.168377">
|
|
<ele>2.128497</ele>
|
|
<time>2026-07-12T10:10:29.000Z</time>
|
|
</trkpt>
|
|
<trkpt lat="55.885052" lon="8.168364">
|
|
<ele>2.127929</ele>
|
|
<time>2026-07-12T10:10:30.000Z</time>
|
|
</trkpt>
|
|
<trkpt lat="55.885078" lon="8.168356">
|
|
<ele>2.127633</ele>
|
|
<time>2026-07-12T10:10:31.000Z</time>
|
|
</trkpt>
|
|
<trkpt lat="55.885109" lon="8.168346">
|
|
<ele>2.127279</ele>
|
|
<time>2026-07-12T10:10:32.000Z</time>
|
|
</trkpt>
|
|
<trkpt lat="55.885181" lon="8.168321">
|
|
<ele>2.126455</ele>
|
|
<time>2026-07-12T10:10:33.000Z</time>
|
|
</trkpt>
|
|
<trkpt lat="55.885231" lon="8.168311">
|
|
<ele>2.125890</ele>
|
|
<time>2026-07-12T10:10:34.000Z</time>
|
|
</trkpt>
|
|
<trkpt lat="55.885277" lon="8.168304">
|
|
<ele>2.125372</ele>
|
|
<time>2026-07-12T10:10:35.000Z</time>
|
|
</trkpt>
|
|
<trkpt lat="55.885319" lon="8.168295">
|
|
<ele>2.124896</ele>
|
|
<time>2026-07-12T10:10:36.000Z</time>
|
|
</trkpt>
|
|
<trkpt lat="55.885372" lon="8.168284">
|
|
<ele>2.124297</ele>
|
|
<time>2026-07-12T10:10:37.000Z</time>
|
|
</trkpt>
|
|
<trkpt lat="55.885414" lon="8.168278">
|
|
<ele>2.123824</ele>
|
|
<time>2026-07-12T10:10:38.000Z</time>
|
|
</trkpt>
|
|
<trkpt lat="55.885452" lon="8.168268">
|
|
<ele>2.123392</ele>
|
|
<time>2026-07-12T10:10:39.000Z</time>
|
|
</trkpt>
|
|
<trkpt lat="55.885490" lon="8.168256">
|
|
<ele>2.122959</ele>
|
|
<time>2026-07-12T10:10:40.000Z</time>
|
|
</trkpt>
|
|
<trkpt lat="55.885536" lon="8.168246">
|
|
<ele>2.122439</ele>
|
|
<time>2026-07-12T10:10:41.000Z</time>
|
|
</trkpt>
|
|
<trkpt lat="55.885574" lon="8.168235">
|
|
<ele>2.122006</ele>
|
|
<time>2026-07-12T10:10:42.000Z</time>
|
|
</trkpt>
|
|
<trkpt lat="55.885635" lon="8.168220">
|
|
<ele>2.121315</ele>
|
|
<time>2026-07-12T10:10:43.000Z</time>
|
|
</trkpt>
|
|
<trkpt lat="55.885700" lon="8.168206">
|
|
<ele>2.120579</ele>
|
|
<time>2026-07-12T10:10:44.000Z</time>
|
|
</trkpt>
|
|
<trkpt lat="55.885746" lon="8.168210">
|
|
<ele>2.120062</ele>
|
|
<time>2026-07-12T10:10:45.000Z</time>
|
|
</trkpt>
|
|
<trkpt lat="55.885788" lon="8.168223">
|
|
<ele>2.119583</ele>
|
|
<time>2026-07-12T10:10:46.000Z</time>
|
|
</trkpt>
|
|
<trkpt lat="55.885826" lon="8.168241">
|
|
<ele>2.119142</ele>
|
|
<time>2026-07-12T10:10:47.000Z</time>
|
|
</trkpt>
|
|
<trkpt lat="55.885860" lon="8.168262">
|
|
<ele>2.118738</ele>
|
|
<time>2026-07-12T10:10:48.000Z</time>
|
|
</trkpt>
|
|
<trkpt lat="55.885895" lon="8.168281">
|
|
<ele>2.118327</ele>
|
|
<time>2026-07-12T10:10:49.000Z</time>
|
|
</trkpt>
|
|
<trkpt lat="55.885925" lon="8.168300">
|
|
<ele>2.117969</ele>
|
|
<time>2026-07-12T10:10:50.000Z</time>
|
|
</trkpt>
|
|
<trkpt lat="55.885960" lon="8.168320">
|
|
<ele>2.117556</ele>
|
|
<time>2026-07-12T10:10:51.000Z</time>
|
|
</trkpt>
|
|
<trkpt lat="55.885994" lon="8.168339">
|
|
<ele>2.117156</ele>
|
|
<time>2026-07-12T10:10:52.000Z</time>
|
|
</trkpt>
|
|
<trkpt lat="55.886028" lon="8.168356">
|
|
<ele>2.116760</ele>
|
|
<time>2026-07-12T10:10:53.000Z</time>
|
|
</trkpt>
|
|
<trkpt lat="55.886055" lon="8.168368">
|
|
<ele>2.116447</ele>
|
|
<time>2026-07-12T10:10:54.000Z</time>
|
|
</trkpt>
|
|
<trkpt lat="55.886086" lon="8.168380">
|
|
<ele>2.116091</ele>
|
|
<time>2026-07-12T10:10:55.000Z</time>
|
|
</trkpt>
|
|
<trkpt lat="55.886116" lon="8.168395">
|
|
<ele>2.115741</ele>
|
|
<time>2026-07-12T10:10:56.000Z</time>
|
|
</trkpt>
|
|
<trkpt lat="55.886143" lon="8.168413">
|
|
<ele>2.115417</ele>
|
|
<time>2026-07-12T10:10:57.000Z</time>
|
|
</trkpt>
|
|
<trkpt lat="55.886169" lon="8.168438">
|
|
<ele>2.115085</ele>
|
|
<time>2026-07-12T10:10:58.000Z</time>
|
|
</trkpt>
|
|
<trkpt lat="55.886196" lon="8.168470">
|
|
<ele>2.114721</ele>
|
|
<time>2026-07-12T10:10:59.000Z</time>
|
|
</trkpt>
|
|
<trkpt lat="55.886223" lon="8.168506">
|
|
<ele>2.114342</ele>
|
|
<time>2026-07-12T10:11:00.000Z</time>
|
|
</trkpt>
|
|
<trkpt lat="55.886257" lon="8.168539">
|
|
<ele>2.113908</ele>
|
|
<time>2026-07-12T10:11:01.000Z</time>
|
|
</trkpt>
|
|
<trkpt lat="55.886295" lon="8.168569">
|
|
<ele>2.113441</ele>
|
|
<time>2026-07-12T10:11:02.000Z</time>
|
|
</trkpt>
|
|
<trkpt lat="55.886341" lon="8.168592">
|
|
<ele>2.112904</ele>
|
|
<time>2026-07-12T10:11:03.000Z</time>
|
|
</trkpt>
|
|
<trkpt lat="55.886383" lon="8.168612">
|
|
<ele>2.112416</ele>
|
|
<time>2026-07-12T10:11:04.000Z</time>
|
|
</trkpt>
|
|
<trkpt lat="55.886429" lon="8.168633">
|
|
<ele>2.107781</ele>
|
|
<time>2026-07-12T10:11:05.000Z</time>
|
|
</trkpt>
|
|
<trkpt lat="55.886471" lon="8.168658">
|
|
<ele>2.102141</ele>
|
|
<time>2026-07-12T10:11:06.000Z</time>
|
|
</trkpt>
|
|
<trkpt lat="55.886513" lon="8.168685">
|
|
<ele>2.096453</ele>
|
|
<time>2026-07-12T10:11:07.000Z</time>
|
|
</trkpt>
|
|
<trkpt lat="55.886555" lon="8.168710">
|
|
<ele>2.090813</ele>
|
|
<time>2026-07-12T10:11:08.000Z</time>
|
|
</trkpt>
|
|
<trkpt lat="55.886593" lon="8.168734">
|
|
<ele>2.085677</ele>
|
|
<time>2026-07-12T10:11:09.000Z</time>
|
|
</trkpt>
|
|
<trkpt lat="55.886627" lon="8.168764">
|
|
<ele>2.080845</ele>
|
|
<time>2026-07-12T10:11:10.000Z</time>
|
|
</trkpt>
|
|
<trkpt lat="55.886658" lon="8.168807">
|
|
<ele>2.075841</ele>
|
|
<time>2026-07-12T10:11:11.000Z</time>
|
|
</trkpt>
|
|
<trkpt lat="55.886673" lon="8.168862">
|
|
<ele>2.071472</ele>
|
|
<time>2026-07-12T10:11:12.000Z</time>
|
|
</trkpt>
|
|
<trkpt lat="55.886677" lon="8.168922">
|
|
<ele>2.067155</ele>
|
|
<time>2026-07-12T10:11:13.000Z</time>
|
|
</trkpt>
|
|
<trkpt lat="55.886673" lon="8.168988">
|
|
<ele>2.062412</ele>
|
|
<time>2026-07-12T10:11:14.000Z</time>
|
|
</trkpt>
|
|
<trkpt lat="55.886669" lon="8.169059">
|
|
<ele>2.057314</ele>
|
|
<time>2026-07-12T10:11:15.000Z</time>
|
|
</trkpt>
|
|
<trkpt lat="55.886665" lon="8.169131">
|
|
<ele>2.052145</ele>
|
|
<time>2026-07-12T10:11:16.000Z</time>
|
|
</trkpt>
|
|
<trkpt lat="55.886662" lon="8.169207">
|
|
<ele>2.046702</ele>
|
|
<time>2026-07-12T10:11:17.000Z</time>
|
|
</trkpt>
|
|
<trkpt lat="55.886662" lon="8.169288">
|
|
<ele>2.040915</ele>
|
|
<time>2026-07-12T10:11:18.000Z</time>
|
|
</trkpt>
|
|
<trkpt lat="55.886662" lon="8.169371">
|
|
<ele>2.034985</ele>
|
|
<time>2026-07-12T10:11:19.000Z</time>
|
|
</trkpt>
|
|
<trkpt lat="55.886662" lon="8.169456">
|
|
<ele>2.028912</ele>
|
|
<time>2026-07-12T10:11:20.000Z</time>
|
|
</trkpt>
|
|
<trkpt lat="55.886662" lon="8.169541">
|
|
<ele>2.022840</ele>
|
|
<time>2026-07-12T10:11:21.000Z</time>
|
|
</trkpt>
|
|
<trkpt lat="55.886665" lon="8.169630">
|
|
<ele>2.016470</ele>
|
|
<time>2026-07-12T10:11:22.000Z</time>
|
|
</trkpt>
|
|
<trkpt lat="55.886669" lon="8.169721">
|
|
<ele>2.009948</ele>
|
|
<time>2026-07-12T10:11:23.000Z</time>
|
|
</trkpt>
|
|
<trkpt lat="55.886673" lon="8.169815">
|
|
<ele>2.003213</ele>
|
|
<time>2026-07-12T10:11:24.000Z</time>
|
|
</trkpt>
|
|
<trkpt lat="55.886673" lon="8.169913">
|
|
<ele>1.996212</ele>
|
|
<time>2026-07-12T10:11:25.000Z</time>
|
|
</trkpt>
|
|
<trkpt lat="55.886669" lon="8.170013">
|
|
<ele>1.989049</ele>
|
|
<time>2026-07-12T10:11:26.000Z</time>
|
|
</trkpt>
|
|
<trkpt lat="55.886669" lon="8.170116">
|
|
<ele>1.981691</ele>
|
|
<time>2026-07-12T10:11:27.000Z</time>
|
|
</trkpt>
|
|
<trkpt lat="55.886673" lon="8.170218">
|
|
<ele>1.974386</ele>
|
|
<time>2026-07-12T10:11:28.000Z</time>
|
|
</trkpt>
|
|
<trkpt lat="55.886673" lon="8.170321">
|
|
<ele>1.967027</ele>
|
|
<time>2026-07-12T10:11:29.000Z</time>
|
|
</trkpt>
|
|
<trkpt lat="55.886673" lon="8.170424">
|
|
<ele>1.959668</ele>
|
|
<time>2026-07-12T10:11:30.000Z</time>
|
|
</trkpt>
|
|
<trkpt lat="55.886677" lon="8.170526">
|
|
<ele>1.952363</ele>
|
|
<time>2026-07-12T10:11:31.000Z</time>
|
|
</trkpt>
|
|
<trkpt lat="55.886677" lon="8.170630">
|
|
<ele>1.944933</ele>
|
|
<time>2026-07-12T10:11:32.000Z</time>
|
|
</trkpt>
|
|
<trkpt lat="55.886681" lon="8.170734">
|
|
<ele>1.937485</ele>
|
|
<time>2026-07-12T10:11:33.000Z</time>
|
|
</trkpt>
|
|
<trkpt lat="55.886681" lon="8.170838">
|
|
<ele>1.930055</ele>
|
|
<time>2026-07-12T10:11:34.000Z</time>
|
|
</trkpt>
|
|
<trkpt lat="55.886684" lon="8.170941">
|
|
<ele>1.922687</ele>
|
|
<time>2026-07-12T10:11:35.000Z</time>
|
|
</trkpt>
|
|
<trkpt lat="55.886688" lon="8.171044">
|
|
<ele>1.915310</ele>
|
|
<time>2026-07-12T10:11:36.000Z</time>
|
|
</trkpt>
|
|
<trkpt lat="55.886688" lon="8.171145">
|
|
<ele>1.908094</ele>
|
|
<time>2026-07-12T10:11:37.000Z</time>
|
|
</trkpt>
|
|
<trkpt lat="55.886688" lon="8.171246">
|
|
<ele>1.900879</ele>
|
|
<time>2026-07-12T10:11:38.000Z</time>
|
|
</trkpt>
|
|
<trkpt lat="55.886692" lon="8.171346">
|
|
<ele>1.893716</ele>
|
|
<time>2026-07-12T10:11:39.000Z</time>
|
|
</trkpt>
|
|
<trkpt lat="55.886692" lon="8.171446">
|
|
<ele>1.886572</ele>
|
|
<time>2026-07-12T10:11:40.000Z</time>
|
|
</trkpt>
|
|
<trkpt lat="55.886700" lon="8.171543">
|
|
<ele>1.884737</ele>
|
|
<time>2026-07-12T10:11:41.000Z</time>
|
|
</trkpt>
|
|
<trkpt lat="55.886704" lon="8.171638">
|
|
<ele>1.887745</ele>
|
|
<time>2026-07-12T10:11:42.000Z</time>
|
|
</trkpt>
|
|
<trkpt lat="55.886704" lon="8.171734">
|
|
<ele>1.890777</ele>
|
|
<time>2026-07-12T10:11:43.000Z</time>
|
|
</trkpt>
|
|
<trkpt lat="55.886707" lon="8.171829">
|
|
<ele>1.893782</ele>
|
|
<time>2026-07-12T10:11:44.000Z</time>
|
|
</trkpt>
|
|
<trkpt lat="55.886711" lon="8.171924">
|
|
<ele>1.896790</ele>
|
|
<time>2026-07-12T10:11:45.000Z</time>
|
|
</trkpt>
|
|
<trkpt lat="55.886711" lon="8.172013">
|
|
<ele>1.899601</ele>
|
|
<time>2026-07-12T10:11:46.000Z</time>
|
|
</trkpt>
|
|
<trkpt lat="55.886715" lon="8.172089">
|
|
<ele>1.902011</ele>
|
|
<time>2026-07-12T10:11:47.000Z</time>
|
|
</trkpt>
|
|
<trkpt lat="55.886723" lon="8.172142">
|
|
<ele>1.903745</ele>
|
|
<time>2026-07-12T10:11:48.000Z</time>
|
|
</trkpt>
|
|
<trkpt lat="55.886734" lon="8.172166">
|
|
<ele>1.904724</ele>
|
|
<time>2026-07-12T10:11:49.000Z</time>
|
|
</trkpt>
|
|
<trkpt lat="55.886745" lon="8.172162">
|
|
<ele>1.905356</ele>
|
|
<time>2026-07-12T10:11:50.000Z</time>
|
|
</trkpt>
|
|
<trkpt lat="55.886753" lon="8.172140">
|
|
<ele>1.906184</ele>
|
|
<time>2026-07-12T10:11:51.000Z</time>
|
|
</trkpt>
|
|
<trkpt lat="55.886753" lon="8.172111">
|
|
<ele>1.907100</ele>
|
|
<time>2026-07-12T10:11:52.000Z</time>
|
|
</trkpt>
|
|
<trkpt lat="55.886745" lon="8.172075">
|
|
<ele>1.908322</ele>
|
|
<time>2026-07-12T10:11:53.000Z</time>
|
|
</trkpt>
|
|
<trkpt lat="55.886738" lon="8.172035">
|
|
<ele>1.909646</ele>
|
|
<time>2026-07-12T10:11:54.000Z</time>
|
|
</trkpt>
|
|
<trkpt lat="55.886730" lon="8.171988">
|
|
<ele>1.911197</ele>
|
|
<time>2026-07-12T10:11:55.000Z</time>
|
|
</trkpt>
|
|
<trkpt lat="55.886723" lon="8.171934">
|
|
<ele>1.912947</ele>
|
|
<time>2026-07-12T10:11:56.000Z</time>
|
|
</trkpt>
|
|
<trkpt lat="55.886726" lon="8.171879">
|
|
<ele>1.914692</ele>
|
|
<time>2026-07-12T10:11:57.000Z</time>
|
|
</trkpt>
|
|
<trkpt lat="55.886742" lon="8.171827">
|
|
<ele>1.916565</ele>
|
|
<time>2026-07-12T10:11:58.000Z</time>
|
|
</trkpt>
|
|
<trkpt lat="55.886765" lon="8.171788">
|
|
<ele>1.918353</ele>
|
|
<time>2026-07-12T10:11:59.000Z</time>
|
|
</trkpt>
|
|
<trkpt lat="55.886795" lon="8.171767">
|
|
<ele>1.920167</ele>
|
|
<time>2026-07-12T10:12:00.000Z</time>
|
|
</trkpt>
|
|
<trkpt lat="55.886833" lon="8.171765">
|
|
<ele>1.922308</ele>
|
|
<time>2026-07-12T10:12:01.000Z</time>
|
|
</trkpt>
|
|
<trkpt lat="55.886879" lon="8.171783">
|
|
<ele>1.924960</ele>
|
|
<time>2026-07-12T10:12:02.000Z</time>
|
|
</trkpt>
|
|
<trkpt lat="55.886925" lon="8.171814">
|
|
<ele>1.927729</ele>
|
|
<time>2026-07-12T10:12:03.000Z</time>
|
|
</trkpt>
|
|
<trkpt lat="55.886971" lon="8.171849">
|
|
<ele>1.930545</ele>
|
|
<time>2026-07-12T10:12:04.000Z</time>
|
|
</trkpt>
|
|
<trkpt lat="55.887012" lon="8.171882">
|
|
<ele>1.933078</ele>
|
|
<time>2026-07-12T10:12:05.000Z</time>
|
|
</trkpt>
|
|
<trkpt lat="55.887058" lon="8.171915">
|
|
<ele>1.935870</ele>
|
|
<time>2026-07-12T10:12:06.000Z</time>
|
|
</trkpt>
|
|
<trkpt lat="55.887104" lon="8.171953">
|
|
<ele>1.938725</ele>
|
|
<time>2026-07-12T10:12:07.000Z</time>
|
|
</trkpt>
|
|
<trkpt lat="55.887150" lon="8.171992">
|
|
<ele>1.941593</ele>
|
|
<time>2026-07-12T10:12:08.000Z</time>
|
|
</trkpt>
|
|
<trkpt lat="55.887196" lon="8.172030">
|
|
<ele>1.944448</ele>
|
|
<time>2026-07-12T10:12:09.000Z</time>
|
|
</trkpt>
|
|
<trkpt lat="55.887245" lon="8.172067">
|
|
<ele>1.947444</ele>
|
|
<time>2026-07-12T10:12:10.000Z</time>
|
|
</trkpt>
|
|
<trkpt lat="55.887295" lon="8.172106">
|
|
<ele>1.950517</ele>
|
|
<time>2026-07-12T10:12:11.000Z</time>
|
|
</trkpt>
|
|
<trkpt lat="55.887341" lon="8.172149">
|
|
<ele>1.953442</ele>
|
|
<time>2026-07-12T10:12:12.000Z</time>
|
|
</trkpt>
|
|
<trkpt lat="55.887390" lon="8.172193">
|
|
<ele>1.956531</ele>
|
|
<time>2026-07-12T10:12:13.000Z</time>
|
|
</trkpt>
|
|
<trkpt lat="55.887436" lon="8.172238">
|
|
<ele>1.959485</ele>
|
|
<time>2026-07-12T10:12:14.000Z</time>
|
|
</trkpt>
|
|
<trkpt lat="55.887482" lon="8.172280">
|
|
<ele>1.962395</ele>
|
|
<time>2026-07-12T10:12:15.000Z</time>
|
|
</trkpt>
|
|
<trkpt lat="55.887531" lon="8.172320">
|
|
<ele>1.965430</ele>
|
|
<time>2026-07-12T10:12:16.000Z</time>
|
|
</trkpt>
|
|
<trkpt lat="55.887577" lon="8.172359">
|
|
<ele>1.968298</ele>
|
|
<time>2026-07-12T10:12:17.000Z</time>
|
|
</trkpt>
|
|
<trkpt lat="55.887627" lon="8.172393">
|
|
<ele>1.971311</ele>
|
|
<time>2026-07-12T10:12:18.000Z</time>
|
|
</trkpt>
|
|
<trkpt lat="55.887676" lon="8.172424">
|
|
<ele>1.974239</ele>
|
|
<time>2026-07-12T10:12:19.000Z</time>
|
|
</trkpt>
|
|
<trkpt lat="55.887726" lon="8.172449">
|
|
<ele>1.977163</ele>
|
|
<time>2026-07-12T10:12:20.000Z</time>
|
|
</trkpt>
|
|
<trkpt lat="55.887775" lon="8.172467">
|
|
<ele>1.979980</ele>
|
|
<time>2026-07-12T10:12:21.000Z</time>
|
|
</trkpt>
|
|
<trkpt lat="55.887829" lon="8.172479">
|
|
<ele>1.983044</ele>
|
|
<time>2026-07-12T10:12:22.000Z</time>
|
|
</trkpt>
|
|
<trkpt lat="55.887882" lon="8.172484">
|
|
<ele>1.985926</ele>
|
|
<time>2026-07-12T10:12:23.000Z</time>
|
|
</trkpt>
|
|
<trkpt lat="55.887936" lon="8.172482">
|
|
<ele>1.988765</ele>
|
|
<time>2026-07-12T10:12:24.000Z</time>
|
|
</trkpt>
|
|
<trkpt lat="55.887985" lon="8.172469">
|
|
<ele>1.991369</ele>
|
|
<time>2026-07-12T10:12:25.000Z</time>
|
|
</trkpt>
|
|
<trkpt lat="55.888035" lon="8.172446">
|
|
<ele>1.994083</ele>
|
|
<time>2026-07-12T10:12:26.000Z</time>
|
|
</trkpt>
|
|
<trkpt lat="55.888084" lon="8.172416">
|
|
<ele>1.996806</ele>
|
|
<time>2026-07-12T10:12:27.000Z</time>
|
|
</trkpt>
|
|
<trkpt lat="55.888134" lon="8.172379">
|
|
<ele>1.999652</ele>
|
|
<time>2026-07-12T10:12:28.000Z</time>
|
|
</trkpt>
|
|
<trkpt lat="55.888180" lon="8.172338">
|
|
<ele>2.002355</ele>
|
|
<time>2026-07-12T10:12:29.000Z</time>
|
|
</trkpt>
|
|
<trkpt lat="55.888229" lon="8.172292">
|
|
<ele>2.005266</ele>
|
|
<time>2026-07-12T10:12:30.000Z</time>
|
|
</trkpt>
|
|
<trkpt lat="55.888279" lon="8.172241">
|
|
<ele>2.008293</ele>
|
|
<time>2026-07-12T10:12:31.000Z</time>
|
|
</trkpt>
|
|
<trkpt lat="55.888329" lon="8.172187">
|
|
<ele>2.011366</ele>
|
|
<time>2026-07-12T10:12:32.000Z</time>
|
|
</trkpt>
|
|
<trkpt lat="55.888370" lon="8.172132">
|
|
<ele>2.014062</ele>
|
|
<time>2026-07-12T10:12:33.000Z</time>
|
|
</trkpt>
|
|
<trkpt lat="55.888416" lon="8.172078">
|
|
<ele>2.016957</ele>
|
|
<time>2026-07-12T10:12:34.000Z</time>
|
|
</trkpt>
|
|
<trkpt lat="55.888458" lon="8.172025">
|
|
<ele>2.019662</ele>
|
|
<time>2026-07-12T10:12:35.000Z</time>
|
|
</trkpt>
|
|
<trkpt lat="55.888500" lon="8.171971">
|
|
<ele>2.022383</ele>
|
|
<time>2026-07-12T10:12:36.000Z</time>
|
|
</trkpt>
|
|
<trkpt lat="55.888542" lon="8.171918">
|
|
<ele>2.025088</ele>
|
|
<time>2026-07-12T10:12:37.000Z</time>
|
|
</trkpt>
|
|
<trkpt lat="55.888584" lon="8.171866">
|
|
<ele>2.027775</ele>
|
|
<time>2026-07-12T10:12:38.000Z</time>
|
|
</trkpt>
|
|
<trkpt lat="55.888622" lon="8.171813">
|
|
<ele>2.030311</ele>
|
|
<time>2026-07-12T10:12:39.000Z</time>
|
|
</trkpt>
|
|
<trkpt lat="55.888660" lon="8.171762">
|
|
<ele>2.032811</ele>
|
|
<time>2026-07-12T10:12:40.000Z</time>
|
|
</trkpt>
|
|
<trkpt lat="55.888702" lon="8.171713">
|
|
<ele>2.035449</ele>
|
|
<time>2026-07-12T10:12:41.000Z</time>
|
|
</trkpt>
|
|
<trkpt lat="55.888737" lon="8.171664">
|
|
<ele>2.037788</ele>
|
|
<time>2026-07-12T10:12:42.000Z</time>
|
|
</trkpt>
|
|
<trkpt lat="55.888775" lon="8.171617">
|
|
<ele>2.040219</ele>
|
|
<time>2026-07-12T10:12:43.000Z</time>
|
|
</trkpt>
|
|
<trkpt lat="55.888813" lon="8.171576">
|
|
<ele>2.042553</ele>
|
|
<time>2026-07-12T10:12:44.000Z</time>
|
|
</trkpt>
|
|
<trkpt lat="55.888851" lon="8.171543">
|
|
<ele>2.044775</ele>
|
|
<time>2026-07-12T10:12:45.000Z</time>
|
|
</trkpt>
|
|
<trkpt lat="55.888893" lon="8.171520">
|
|
<ele>2.047084</ele>
|
|
<time>2026-07-12T10:12:46.000Z</time>
|
|
</trkpt>
|
|
<trkpt lat="55.888931" lon="8.171502">
|
|
<ele>2.049151</ele>
|
|
<time>2026-07-12T10:12:47.000Z</time>
|
|
</trkpt>
|
|
<trkpt lat="55.888969" lon="8.171485">
|
|
<ele>2.051210</ele>
|
|
<time>2026-07-12T10:12:48.000Z</time>
|
|
</trkpt>
|
|
<trkpt lat="55.889011" lon="8.171466">
|
|
<ele>2.053487</ele>
|
|
<time>2026-07-12T10:12:49.000Z</time>
|
|
</trkpt>
|
|
<trkpt lat="55.889050" lon="8.171447">
|
|
<ele>2.055612</ele>
|
|
<time>2026-07-12T10:12:50.000Z</time>
|
|
</trkpt>
|
|
<trkpt lat="55.889088" lon="8.171427">
|
|
<ele>2.057695</ele>
|
|
<time>2026-07-12T10:12:51.000Z</time>
|
|
</trkpt>
|
|
<trkpt lat="55.889130" lon="8.171410">
|
|
<ele>2.059959</ele>
|
|
<time>2026-07-12T10:12:52.000Z</time>
|
|
</trkpt>
|
|
<trkpt lat="55.889172" lon="8.171397">
|
|
<ele>2.062199</ele>
|
|
<time>2026-07-12T10:12:53.000Z</time>
|
|
</trkpt>
|
|
<trkpt lat="55.889217" lon="8.171385">
|
|
<ele>2.064591</ele>
|
|
<time>2026-07-12T10:12:54.000Z</time>
|
|
</trkpt>
|
|
<trkpt lat="55.889263" lon="8.171370">
|
|
<ele>2.067049</ele>
|
|
<time>2026-07-12T10:12:55.000Z</time>
|
|
</trkpt>
|
|
<trkpt lat="55.889305" lon="8.171353">
|
|
<ele>2.069313</ele>
|
|
<time>2026-07-12T10:12:56.000Z</time>
|
|
</trkpt>
|
|
<trkpt lat="55.889347" lon="8.171334">
|
|
<ele>2.071590</ele>
|
|
<time>2026-07-12T10:12:57.000Z</time>
|
|
</trkpt>
|
|
<trkpt lat="55.889389" lon="8.171312">
|
|
<ele>2.073891</ele>
|
|
<time>2026-07-12T10:12:58.000Z</time>
|
|
</trkpt>
|
|
<trkpt lat="55.889431" lon="8.171286">
|
|
<ele>2.076228</ele>
|
|
<time>2026-07-12T10:12:59.000Z</time>
|
|
</trkpt>
|
|
<trkpt lat="55.889473" lon="8.171259">
|
|
<ele>2.078574</ele>
|
|
<time>2026-07-12T10:13:00.000Z</time>
|
|
</trkpt>
|
|
<trkpt lat="55.889511" lon="8.171233">
|
|
<ele>2.077273</ele>
|
|
<time>2026-07-12T10:13:01.000Z</time>
|
|
</trkpt>
|
|
<trkpt lat="55.889549" lon="8.171207">
|
|
<ele>2.075188</ele>
|
|
<time>2026-07-12T10:13:02.000Z</time>
|
|
</trkpt>
|
|
<trkpt lat="55.889587" lon="8.171183">
|
|
<ele>2.073123</ele>
|
|
<time>2026-07-12T10:13:03.000Z</time>
|
|
</trkpt>
|
|
<trkpt lat="55.889626" lon="8.171157">
|
|
<ele>2.070990</ele>
|
|
<time>2026-07-12T10:13:04.000Z</time>
|
|
</trkpt>
|
|
<trkpt lat="55.889668" lon="8.171128">
|
|
<ele>2.068682</ele>
|
|
<time>2026-07-12T10:13:05.000Z</time>
|
|
</trkpt>
|
|
<trkpt lat="55.889713" lon="8.171099">
|
|
<ele>2.066231</ele>
|
|
<time>2026-07-12T10:13:06.000Z</time>
|
|
</trkpt>
|
|
<trkpt lat="55.889755" lon="8.171068">
|
|
<ele>2.063902</ele>
|
|
<time>2026-07-12T10:13:07.000Z</time>
|
|
</trkpt>
|
|
<trkpt lat="55.889797" lon="8.171037">
|
|
<ele>2.061573</ele>
|
|
<time>2026-07-12T10:13:08.000Z</time>
|
|
</trkpt>
|
|
<trkpt lat="55.889839" lon="8.171008">
|
|
<ele>2.059265</ele>
|
|
<time>2026-07-12T10:13:09.000Z</time>
|
|
</trkpt>
|
|
<trkpt lat="55.889877" lon="8.170980">
|
|
<ele>2.057159</ele>
|
|
<time>2026-07-12T10:13:10.000Z</time>
|
|
</trkpt>
|
|
<trkpt lat="55.889923" lon="8.170950">
|
|
<ele>2.054649</ele>
|
|
<time>2026-07-12T10:13:11.000Z</time>
|
|
</trkpt>
|
|
<trkpt lat="55.889969" lon="8.170921">
|
|
<ele>2.052150</ele>
|
|
<time>2026-07-12T10:13:12.000Z</time>
|
|
</trkpt>
|
|
<trkpt lat="55.890015" lon="8.170895">
|
|
<ele>2.049677</ele>
|
|
<time>2026-07-12T10:13:13.000Z</time>
|
|
</trkpt>
|
|
<trkpt lat="55.890064" lon="8.170868">
|
|
<ele>2.047050</ele>
|
|
<time>2026-07-12T10:13:14.000Z</time>
|
|
</trkpt>
|
|
<trkpt lat="55.890114" lon="8.170839">
|
|
<ele>2.044356</ele>
|
|
<time>2026-07-12T10:13:15.000Z</time>
|
|
</trkpt>
|
|
<trkpt lat="55.890160" lon="8.170807">
|
|
<ele>2.041826</ele>
|
|
<time>2026-07-12T10:13:16.000Z</time>
|
|
</trkpt>
|
|
<trkpt lat="55.890205" lon="8.170775">
|
|
<ele>2.039344</ele>
|
|
<time>2026-07-12T10:13:17.000Z</time>
|
|
</trkpt>
|
|
<trkpt lat="55.890247" lon="8.170745">
|
|
<ele>2.037026</ele>
|
|
<time>2026-07-12T10:13:18.000Z</time>
|
|
</trkpt>
|
|
<trkpt lat="55.890293" lon="8.170715">
|
|
<ele>2.034517</ele>
|
|
<time>2026-07-12T10:13:19.000Z</time>
|
|
</trkpt>
|
|
<trkpt lat="55.890339" lon="8.170685">
|
|
<ele>2.032007</ele>
|
|
<time>2026-07-12T10:13:20.000Z</time>
|
|
</trkpt>
|
|
<trkpt lat="55.890381" lon="8.170655">
|
|
<ele>2.029689</ele>
|
|
<time>2026-07-12T10:13:21.000Z</time>
|
|
</trkpt>
|
|
<trkpt lat="55.890427" lon="8.170625">
|
|
<ele>2.027180</ele>
|
|
<time>2026-07-12T10:13:22.000Z</time>
|
|
</trkpt>
|
|
<trkpt lat="55.890472" lon="8.170593">
|
|
<ele>2.024698</ele>
|
|
<time>2026-07-12T10:13:23.000Z</time>
|
|
</trkpt>
|
|
<trkpt lat="55.890514" lon="8.170562">
|
|
<ele>2.022369</ele>
|
|
<time>2026-07-12T10:13:24.000Z</time>
|
|
</trkpt>
|
|
<trkpt lat="55.890560" lon="8.170527">
|
|
<ele>2.019807</ele>
|
|
<time>2026-07-12T10:13:25.000Z</time>
|
|
</trkpt>
|
|
<trkpt lat="55.890610" lon="8.170493">
|
|
<ele>2.017065</ele>
|
|
<time>2026-07-12T10:13:26.000Z</time>
|
|
</trkpt>
|
|
<trkpt lat="55.890659" lon="8.170458">
|
|
<ele>2.014361</ele>
|
|
<time>2026-07-12T10:13:27.000Z</time>
|
|
</trkpt>
|
|
<trkpt lat="55.890713" lon="8.170420">
|
|
<ele>2.011386</ele>
|
|
<time>2026-07-12T10:13:28.000Z</time>
|
|
</trkpt>
|
|
<trkpt lat="55.890770" lon="8.170381">
|
|
<ele>2.008259</ele>
|
|
<time>2026-07-12T10:13:29.000Z</time>
|
|
</trkpt>
|
|
<trkpt lat="55.890827" lon="8.170340">
|
|
<ele>2.005110</ele>
|
|
<time>2026-07-12T10:13:30.000Z</time>
|
|
</trkpt>
|
|
<trkpt lat="55.890884" lon="8.170297">
|
|
<ele>2.001939</ele>
|
|
<time>2026-07-12T10:13:31.000Z</time>
|
|
</trkpt>
|
|
<trkpt lat="55.890942" lon="8.170251">
|
|
<ele>1.998687</ele>
|
|
<time>2026-07-12T10:13:32.000Z</time>
|
|
</trkpt>
|
|
<trkpt lat="55.890999" lon="8.170200">
|
|
<ele>1.995419</ele>
|
|
<time>2026-07-12T10:13:33.000Z</time>
|
|
</trkpt>
|
|
<trkpt lat="55.891048" lon="8.170141">
|
|
<ele>1.992390</ele>
|
|
<time>2026-07-12T10:13:34.000Z</time>
|
|
</trkpt>
|
|
<trkpt lat="55.891094" lon="8.170075">
|
|
<ele>1.989365</ele>
|
|
<time>2026-07-12T10:13:35.000Z</time>
|
|
</trkpt>
|
|
<trkpt lat="55.891140" lon="8.170004">
|
|
<ele>1.985832</ele>
|
|
<time>2026-07-12T10:13:36.000Z</time>
|
|
</trkpt>
|
|
<trkpt lat="55.891186" lon="8.169932">
|
|
<ele>1.980414</ele>
|
|
<time>2026-07-12T10:13:37.000Z</time>
|
|
</trkpt>
|
|
<trkpt lat="55.891232" lon="8.169863">
|
|
<ele>1.975093</ele>
|
|
<time>2026-07-12T10:13:38.000Z</time>
|
|
</trkpt>
|
|
<trkpt lat="55.891277" lon="8.169798">
|
|
<ele>1.969967</ele>
|
|
<time>2026-07-12T10:13:39.000Z</time>
|
|
</trkpt>
|
|
<trkpt lat="55.891323" lon="8.169739">
|
|
<ele>1.964951</ele>
|
|
<time>2026-07-12T10:13:40.000Z</time>
|
|
</trkpt>
|
|
<trkpt lat="55.891373" lon="8.169684">
|
|
<ele>1.959751</ele>
|
|
<time>2026-07-12T10:13:41.000Z</time>
|
|
</trkpt>
|
|
<trkpt lat="55.891426" lon="8.169634">
|
|
<ele>1.954443</ele>
|
|
<time>2026-07-12T10:13:42.000Z</time>
|
|
</trkpt>
|
|
<trkpt lat="55.891476" lon="8.169586">
|
|
<ele>1.949417</ele>
|
|
<time>2026-07-12T10:13:43.000Z</time>
|
|
</trkpt>
|
|
<trkpt lat="55.891521" lon="8.169546">
|
|
<ele>1.944966</ele>
|
|
<time>2026-07-12T10:13:44.000Z</time>
|
|
</trkpt>
|
|
<trkpt lat="55.891575" lon="8.169516">
|
|
<ele>1.939959</ele>
|
|
<time>2026-07-12T10:13:45.000Z</time>
|
|
</trkpt>
|
|
<trkpt lat="55.891621" lon="8.169496">
|
|
<ele>1.935768</ele>
|
|
<time>2026-07-12T10:13:46.000Z</time>
|
|
</trkpt>
|
|
<trkpt lat="55.891666" lon="8.169479">
|
|
<ele>1.931696</ele>
|
|
<time>2026-07-12T10:13:47.000Z</time>
|
|
</trkpt>
|
|
<trkpt lat="55.891716" lon="8.169467">
|
|
<ele>1.927230</ele>
|
|
<time>2026-07-12T10:13:48.000Z</time>
|
|
</trkpt>
|
|
<trkpt lat="55.891762" lon="8.169456">
|
|
<ele>1.923122</ele>
|
|
<time>2026-07-12T10:13:49.000Z</time>
|
|
</trkpt>
|
|
<trkpt lat="55.891808" lon="8.169444">
|
|
<ele>1.919007</ele>
|
|
<time>2026-07-12T10:13:50.000Z</time>
|
|
</trkpt>
|
|
<trkpt lat="55.891857" lon="8.169425">
|
|
<ele>1.914568</ele>
|
|
<time>2026-07-12T10:13:51.000Z</time>
|
|
</trkpt>
|
|
<trkpt lat="55.891907" lon="8.169395">
|
|
<ele>1.909898</ele>
|
|
<time>2026-07-12T10:13:52.000Z</time>
|
|
</trkpt>
|
|
<trkpt lat="55.891949" lon="8.169350">
|
|
<ele>1.905561</ele>
|
|
<time>2026-07-12T10:13:53.000Z</time>
|
|
</trkpt>
|
|
<trkpt lat="55.891994" lon="8.169291">
|
|
<ele>1.900617</ele>
|
|
<time>2026-07-12T10:13:54.000Z</time>
|
|
</trkpt>
|
|
<trkpt lat="55.892033" lon="8.169225">
|
|
<ele>1.895857</ele>
|
|
<time>2026-07-12T10:13:55.000Z</time>
|
|
</trkpt>
|
|
<trkpt lat="55.892075" lon="8.169160">
|
|
<ele>1.890935</ele>
|
|
<time>2026-07-12T10:13:56.000Z</time>
|
|
</trkpt>
|
|
<trkpt lat="55.892120" lon="8.169106">
|
|
<ele>1.886133</ele>
|
|
<time>2026-07-12T10:13:57.000Z</time>
|
|
</trkpt>
|
|
<trkpt lat="55.892174" lon="8.169069">
|
|
<ele>1.881013</ele>
|
|
<time>2026-07-12T10:13:58.000Z</time>
|
|
</trkpt>
|
|
<trkpt lat="55.892223" lon="8.169054">
|
|
<ele>1.876612</ele>
|
|
<time>2026-07-12T10:13:59.000Z</time>
|
|
</trkpt>
|
|
<trkpt lat="55.892277" lon="8.169057">
|
|
<ele>1.871829</ele>
|
|
<time>2026-07-12T10:14:00.000Z</time>
|
|
</trkpt>
|
|
<trkpt lat="55.892326" lon="8.169070">
|
|
<ele>1.867444</ele>
|
|
<time>2026-07-12T10:14:01.000Z</time>
|
|
</trkpt>
|
|
<trkpt lat="55.892372" lon="8.169084">
|
|
<ele>1.863313</ele>
|
|
<time>2026-07-12T10:14:02.000Z</time>
|
|
</trkpt>
|
|
<trkpt lat="55.892422" lon="8.169097">
|
|
<ele>1.858840</ele>
|
|
<time>2026-07-12T10:14:03.000Z</time>
|
|
</trkpt>
|
|
<trkpt lat="55.892471" lon="8.169110">
|
|
<ele>1.854455</ele>
|
|
<time>2026-07-12T10:14:04.000Z</time>
|
|
</trkpt>
|
|
<trkpt lat="55.892521" lon="8.169117">
|
|
<ele>1.850016</ele>
|
|
<time>2026-07-12T10:14:05.000Z</time>
|
|
</trkpt>
|
|
<trkpt lat="55.892567" lon="8.169113">
|
|
<ele>1.845939</ele>
|
|
<time>2026-07-12T10:14:06.000Z</time>
|
|
</trkpt>
|
|
<trkpt lat="55.892609" lon="8.169095">
|
|
<ele>1.842115</ele>
|
|
<time>2026-07-12T10:14:07.000Z</time>
|
|
</trkpt>
|
|
<trkpt lat="55.892643" lon="8.169061">
|
|
<ele>1.838665</ele>
|
|
<time>2026-07-12T10:14:08.000Z</time>
|
|
</trkpt>
|
|
<trkpt lat="55.892681" lon="8.169017">
|
|
<ele>1.834654</ele>
|
|
<time>2026-07-12T10:14:09.000Z</time>
|
|
</trkpt>
|
|
<trkpt lat="55.892715" lon="8.168965">
|
|
<ele>1.830689</ele>
|
|
<time>2026-07-12T10:14:10.000Z</time>
|
|
</trkpt>
|
|
<trkpt lat="55.892750" lon="8.168909">
|
|
<ele>1.831826</ele>
|
|
<time>2026-07-12T10:14:11.000Z</time>
|
|
</trkpt>
|
|
<trkpt lat="55.892780" lon="8.168853">
|
|
<ele>1.846890</ele>
|
|
<time>2026-07-12T10:14:12.000Z</time>
|
|
</trkpt>
|
|
<trkpt lat="55.892815" lon="8.168798">
|
|
<ele>1.863070</ele>
|
|
<time>2026-07-12T10:14:13.000Z</time>
|
|
</trkpt>
|
|
<trkpt lat="55.892853" lon="8.168752">
|
|
<ele>1.879000</ele>
|
|
<time>2026-07-12T10:14:14.000Z</time>
|
|
</trkpt>
|
|
<trkpt lat="55.892895" lon="8.168713">
|
|
<ele>1.895424</ele>
|
|
<time>2026-07-12T10:14:15.000Z</time>
|
|
</trkpt>
|
|
<trkpt lat="55.892940" lon="8.168675">
|
|
<ele>1.912693</ele>
|
|
<time>2026-07-12T10:14:16.000Z</time>
|
|
</trkpt>
|
|
<trkpt lat="55.892982" lon="8.168639">
|
|
<ele>1.928856</ele>
|
|
<time>2026-07-12T10:14:17.000Z</time>
|
|
</trkpt>
|
|
<trkpt lat="55.893028" lon="8.168602">
|
|
<ele>1.946359</ele>
|
|
<time>2026-07-12T10:14:18.000Z</time>
|
|
</trkpt>
|
|
<trkpt lat="55.893070" lon="8.168561">
|
|
<ele>1.962966</ele>
|
|
<time>2026-07-12T10:14:19.000Z</time>
|
|
</trkpt>
|
|
<trkpt lat="55.893116" lon="8.168521">
|
|
<ele>1.980716</ele>
|
|
<time>2026-07-12T10:14:20.000Z</time>
|
|
</trkpt>
|
|
<trkpt lat="55.893162" lon="8.168487">
|
|
<ele>1.997987</ele>
|
|
<time>2026-07-12T10:14:21.000Z</time>
|
|
</trkpt>
|
|
<trkpt lat="55.893208" lon="8.168462">
|
|
<ele>2.014667</ele>
|
|
<time>2026-07-12T10:14:22.000Z</time>
|
|
</trkpt>
|
|
<trkpt lat="55.893253" lon="8.168451">
|
|
<ele>2.030421</ele>
|
|
<time>2026-07-12T10:14:23.000Z</time>
|
|
</trkpt>
|
|
<trkpt lat="55.893295" lon="8.168450">
|
|
<ele>2.044990</ele>
|
|
<time>2026-07-12T10:14:24.000Z</time>
|
|
</trkpt>
|
|
<trkpt lat="55.893337" lon="8.168455">
|
|
<ele>2.059590</ele>
|
|
<time>2026-07-12T10:14:25.000Z</time>
|
|
</trkpt>
|
|
<trkpt lat="55.893379" lon="8.168459">
|
|
<ele>2.074178</ele>
|
|
<time>2026-07-12T10:14:26.000Z</time>
|
|
</trkpt>
|
|
<trkpt lat="55.893421" lon="8.168458">
|
|
<ele>2.088747</ele>
|
|
<time>2026-07-12T10:14:27.000Z</time>
|
|
</trkpt>
|
|
<trkpt lat="55.893467" lon="8.168448">
|
|
<ele>2.104820</ele>
|
|
<time>2026-07-12T10:14:28.000Z</time>
|
|
</trkpt>
|
|
<trkpt lat="55.893509" lon="8.168425">
|
|
<ele>2.120059</ele>
|
|
<time>2026-07-12T10:14:29.000Z</time>
|
|
</trkpt>
|
|
<trkpt lat="55.893543" lon="8.168386">
|
|
<ele>2.134080</ele>
|
|
<time>2026-07-12T10:14:30.000Z</time>
|
|
</trkpt>
|
|
<trkpt lat="55.893578" lon="8.168341">
|
|
<ele>2.149046</ele>
|
|
<time>2026-07-12T10:14:31.000Z</time>
|
|
</trkpt>
|
|
<trkpt lat="55.893612" lon="8.168291">
|
|
<ele>2.164331</ele>
|
|
<time>2026-07-12T10:14:32.000Z</time>
|
|
</trkpt>
|
|
<trkpt lat="55.893642" lon="8.168240">
|
|
<ele>2.178707</ele>
|
|
<time>2026-07-12T10:14:33.000Z</time>
|
|
</trkpt>
|
|
<trkpt lat="55.893673" lon="8.168187">
|
|
<ele>2.193602</ele>
|
|
<time>2026-07-12T10:14:34.000Z</time>
|
|
</trkpt>
|
|
<trkpt lat="55.893703" lon="8.168137">
|
|
<ele>2.207844</ele>
|
|
<time>2026-07-12T10:14:35.000Z</time>
|
|
</trkpt>
|
|
<trkpt lat="55.893734" lon="8.168084">
|
|
<ele>2.222739</ele>
|
|
<time>2026-07-12T10:14:36.000Z</time>
|
|
</trkpt>
|
|
<trkpt lat="55.893768" lon="8.168030">
|
|
<ele>2.238530</ele>
|
|
<time>2026-07-12T10:14:37.000Z</time>
|
|
</trkpt>
|
|
<trkpt lat="55.893799" lon="8.167976">
|
|
<ele>2.253560</ele>
|
|
<time>2026-07-12T10:14:38.000Z</time>
|
|
</trkpt>
|
|
<trkpt lat="55.893829" lon="8.167923">
|
|
<ele>2.268207</ele>
|
|
<time>2026-07-12T10:14:39.000Z</time>
|
|
</trkpt>
|
|
<trkpt lat="55.893864" lon="8.167871">
|
|
<ele>2.284007</ele>
|
|
<time>2026-07-12T10:14:40.000Z</time>
|
|
</trkpt>
|
|
<trkpt lat="55.893894" lon="8.167818">
|
|
<ele>2.298654</ele>
|
|
<time>2026-07-12T10:14:41.000Z</time>
|
|
</trkpt>
|
|
<trkpt lat="55.893929" lon="8.167765">
|
|
<ele>2.314579</ele>
|
|
<time>2026-07-12T10:14:42.000Z</time>
|
|
</trkpt>
|
|
<trkpt lat="55.893959" lon="8.167709">
|
|
<ele>2.329642</ele>
|
|
<time>2026-07-12T10:14:43.000Z</time>
|
|
</trkpt>
|
|
<trkpt lat="55.893993" lon="8.167657">
|
|
<ele>2.345178</ele>
|
|
<time>2026-07-12T10:14:44.000Z</time>
|
|
</trkpt>
|
|
<trkpt lat="55.894028" lon="8.167604">
|
|
<ele>2.361103</ele>
|
|
<time>2026-07-12T10:14:45.000Z</time>
|
|
</trkpt>
|
|
<trkpt lat="55.894058" lon="8.167554">
|
|
<ele>2.375345</ele>
|
|
<time>2026-07-12T10:14:46.000Z</time>
|
|
</trkpt>
|
|
<trkpt lat="55.894093" lon="8.167505">
|
|
<ele>2.390778</ele>
|
|
<time>2026-07-12T10:14:47.000Z</time>
|
|
</trkpt>
|
|
<trkpt lat="55.894127" lon="8.167458">
|
|
<ele>2.405699</ele>
|
|
<time>2026-07-12T10:14:48.000Z</time>
|
|
</trkpt>
|
|
<trkpt lat="55.894161" lon="8.167410">
|
|
<ele>2.420740</ele>
|
|
<time>2026-07-12T10:14:49.000Z</time>
|
|
</trkpt>
|
|
<trkpt lat="55.894196" lon="8.167360">
|
|
<ele>2.436294</ele>
|
|
<time>2026-07-12T10:14:50.000Z</time>
|
|
</trkpt>
|
|
<trkpt lat="55.894230" lon="8.167309">
|
|
<ele>2.451255</ele>
|
|
<time>2026-07-12T10:14:51.000Z</time>
|
|
</trkpt>
|
|
<trkpt lat="55.894260" lon="8.167257">
|
|
<ele>2.439267</ele>
|
|
<time>2026-07-12T10:14:52.000Z</time>
|
|
</trkpt>
|
|
<trkpt lat="55.894295" lon="8.167208">
|
|
<ele>2.426517</ele>
|
|
<time>2026-07-12T10:14:53.000Z</time>
|
|
</trkpt>
|
|
<trkpt lat="55.894325" lon="8.167160">
|
|
<ele>2.414968</ele>
|
|
<time>2026-07-12T10:14:54.000Z</time>
|
|
</trkpt>
|
|
<trkpt lat="55.894356" lon="8.167113">
|
|
<ele>2.403309</ele>
|
|
<time>2026-07-12T10:14:55.000Z</time>
|
|
</trkpt>
|
|
<trkpt lat="55.894386" lon="8.167066">
|
|
<ele>2.391866</ele>
|
|
<time>2026-07-12T10:14:56.000Z</time>
|
|
</trkpt>
|
|
<trkpt lat="55.894417" lon="8.167018">
|
|
<ele>2.380102</ele>
|
|
<time>2026-07-12T10:14:57.000Z</time>
|
|
</trkpt>
|
|
<trkpt lat="55.894451" lon="8.166967">
|
|
<ele>2.367372</ele>
|
|
<time>2026-07-12T10:14:58.000Z</time>
|
|
</trkpt>
|
|
<trkpt lat="55.894485" lon="8.166915">
|
|
<ele>2.354537</ele>
|
|
<time>2026-07-12T10:14:59.000Z</time>
|
|
</trkpt>
|
|
<trkpt lat="55.894520" lon="8.166860">
|
|
<ele>2.341170</ele>
|
|
<time>2026-07-12T10:15:00.000Z</time>
|
|
</trkpt>
|
|
<trkpt lat="55.894554" lon="8.166804">
|
|
<ele>2.327908</ele>
|
|
<time>2026-07-12T10:15:01.000Z</time>
|
|
</trkpt>
|
|
<trkpt lat="55.894585" lon="8.166748">
|
|
<ele>2.315264</ele>
|
|
<time>2026-07-12T10:15:02.000Z</time>
|
|
</trkpt>
|
|
<trkpt lat="55.894615" lon="8.166693">
|
|
<ele>2.302936</ele>
|
|
<time>2026-07-12T10:15:03.000Z</time>
|
|
</trkpt>
|
|
<trkpt lat="55.894649" lon="8.166636">
|
|
<ele>2.289564</ele>
|
|
<time>2026-07-12T10:15:04.000Z</time>
|
|
</trkpt>
|
|
<trkpt lat="55.894680" lon="8.166582">
|
|
<ele>2.277147</ele>
|
|
<time>2026-07-12T10:15:05.000Z</time>
|
|
</trkpt>
|
|
<trkpt lat="55.894711" lon="8.166530">
|
|
<ele>2.264952</ele>
|
|
<time>2026-07-12T10:15:06.000Z</time>
|
|
</trkpt>
|
|
<trkpt lat="55.894741" lon="8.166480">
|
|
<ele>2.253186</ele>
|
|
<time>2026-07-12T10:15:07.000Z</time>
|
|
</trkpt>
|
|
<trkpt lat="55.894772" lon="8.166435">
|
|
<ele>2.241733</ele>
|
|
<time>2026-07-12T10:15:08.000Z</time>
|
|
</trkpt>
|
|
<trkpt lat="55.894802" lon="8.166392">
|
|
<ele>2.230704</ele>
|
|
<time>2026-07-12T10:15:09.000Z</time>
|
|
</trkpt>
|
|
<trkpt lat="55.894833" lon="8.166350">
|
|
<ele>2.219549</ele>
|
|
<time>2026-07-12T10:15:10.000Z</time>
|
|
</trkpt>
|
|
<trkpt lat="55.894863" lon="8.166310">
|
|
<ele>2.208815</ele>
|
|
<time>2026-07-12T10:15:11.000Z</time>
|
|
</trkpt>
|
|
<trkpt lat="55.894890" lon="8.166272">
|
|
<ele>2.198959</ele>
|
|
<time>2026-07-12T10:15:12.000Z</time>
|
|
</trkpt>
|
|
<trkpt lat="55.894917" lon="8.166235">
|
|
<ele>2.189202</ele>
|
|
<time>2026-07-12T10:15:13.000Z</time>
|
|
</trkpt>
|
|
<trkpt lat="55.894936" lon="8.166194">
|
|
<ele>2.180656</ele>
|
|
<time>2026-07-12T10:15:14.000Z</time>
|
|
</trkpt>
|
|
<trkpt lat="55.894951" lon="8.166149">
|
|
<ele>2.172245</ele>
|
|
<time>2026-07-12T10:15:15.000Z</time>
|
|
</trkpt>
|
|
<trkpt lat="55.894970" lon="8.166101">
|
|
<ele>2.162804</ele>
|
|
<time>2026-07-12T10:15:16.000Z</time>
|
|
</trkpt>
|
|
<trkpt lat="55.894985" lon="8.166043">
|
|
<ele>2.152542</ele>
|
|
<time>2026-07-12T10:15:17.000Z</time>
|
|
</trkpt>
|
|
<trkpt lat="55.894997" lon="8.165980">
|
|
<ele>2.141852</ele>
|
|
<time>2026-07-12T10:15:18.000Z</time>
|
|
</trkpt>
|
|
<trkpt lat="55.895012" lon="8.165912">
|
|
<ele>2.130111</ele>
|
|
<time>2026-07-12T10:15:19.000Z</time>
|
|
</trkpt>
|
|
<trkpt lat="55.895031" lon="8.165840">
|
|
<ele>2.117325</ele>
|
|
<time>2026-07-12T10:15:20.000Z</time>
|
|
</trkpt>
|
|
<trkpt lat="55.895046" lon="8.165769">
|
|
<ele>2.105135</ele>
|
|
<time>2026-07-12T10:15:21.000Z</time>
|
|
</trkpt>
|
|
<trkpt lat="55.895065" lon="8.165698">
|
|
<ele>2.092495</ele>
|
|
<time>2026-07-12T10:15:22.000Z</time>
|
|
</trkpt>
|
|
<trkpt lat="55.895088" lon="8.165631">
|
|
<ele>2.079872</ele>
|
|
<time>2026-07-12T10:15:23.000Z</time>
|
|
</trkpt>
|
|
<trkpt lat="55.895111" lon="8.165567">
|
|
<ele>2.067659</ele>
|
|
<time>2026-07-12T10:15:24.000Z</time>
|
|
</trkpt>
|
|
<trkpt lat="55.895134" lon="8.165505">
|
|
<ele>2.055714</ele>
|
|
<time>2026-07-12T10:15:25.000Z</time>
|
|
</trkpt>
|
|
<trkpt lat="55.895157" lon="8.165442">
|
|
<ele>2.043635</ele>
|
|
<time>2026-07-12T10:15:26.000Z</time>
|
|
</trkpt>
|
|
<trkpt lat="55.895184" lon="8.165383">
|
|
<ele>2.031399</ele>
|
|
<time>2026-07-12T10:15:27.000Z</time>
|
|
</trkpt>
|
|
<trkpt lat="55.895210" lon="8.165325">
|
|
<ele>2.019468</ele>
|
|
<time>2026-07-12T10:15:28.000Z</time>
|
|
</trkpt>
|
|
<trkpt lat="55.895233" lon="8.165266">
|
|
<ele>2.007923</ele>
|
|
<time>2026-07-12T10:15:29.000Z</time>
|
|
</trkpt>
|
|
<trkpt lat="55.895264" lon="8.165210">
|
|
<ele>1.995279</ele>
|
|
<time>2026-07-12T10:15:30.000Z</time>
|
|
</trkpt>
|
|
<trkpt lat="55.895294" lon="8.165155">
|
|
<ele>1.982951</ele>
|
|
<time>2026-07-12T10:15:31.000Z</time>
|
|
</trkpt>
|
|
<trkpt lat="55.895325" lon="8.165106">
|
|
<ele>1.971081</ele>
|
|
<time>2026-07-12T10:15:32.000Z</time>
|
|
</trkpt>
|
|
<trkpt lat="55.895355" lon="8.165059">
|
|
<ele>1.959639</ele>
|
|
<time>2026-07-12T10:15:33.000Z</time>
|
|
</trkpt>
|
|
<trkpt lat="55.895386" lon="8.165012">
|
|
<ele>1.947980</ele>
|
|
<time>2026-07-12T10:15:34.000Z</time>
|
|
</trkpt>
|
|
<trkpt lat="55.895416" lon="8.164965">
|
|
<ele>1.936537</ele>
|
|
<time>2026-07-12T10:15:35.000Z</time>
|
|
</trkpt>
|
|
<trkpt lat="55.895447" lon="8.164918">
|
|
<ele>1.923734</ele>
|
|
<time>2026-07-12T10:15:36.000Z</time>
|
|
</trkpt>
|
|
<trkpt lat="55.895477" lon="8.164874">
|
|
<ele>1.911464</ele>
|
|
<time>2026-07-12T10:15:37.000Z</time>
|
|
</trkpt>
|
|
<trkpt lat="55.895512" lon="8.164834">
|
|
<ele>1.898333</ele>
|
|
<time>2026-07-12T10:15:38.000Z</time>
|
|
</trkpt>
|
|
<trkpt lat="55.895542" lon="8.164798">
|
|
<ele>1.886911</ele>
|
|
<time>2026-07-12T10:15:39.000Z</time>
|
|
</trkpt>
|
|
<trkpt lat="55.895577" lon="8.164764">
|
|
<ele>1.874321</ele>
|
|
<time>2026-07-12T10:15:40.000Z</time>
|
|
</trkpt>
|
|
<trkpt lat="55.895607" lon="8.164733">
|
|
<ele>1.863368</ele>
|
|
<time>2026-07-12T10:15:41.000Z</time>
|
|
</trkpt>
|
|
<trkpt lat="55.895638" lon="8.164702">
|
|
<ele>1.852141</ele>
|
|
<time>2026-07-12T10:15:42.000Z</time>
|
|
</trkpt>
|
|
<trkpt lat="55.895672" lon="8.164678">
|
|
<ele>1.840591</ele>
|
|
<time>2026-07-12T10:15:43.000Z</time>
|
|
</trkpt>
|
|
<trkpt lat="55.895706" lon="8.164654">
|
|
<ele>1.829040</ele>
|
|
<time>2026-07-12T10:15:44.000Z</time>
|
|
</trkpt>
|
|
<trkpt lat="55.895737" lon="8.164628">
|
|
<ele>1.818218</ele>
|
|
<time>2026-07-12T10:15:45.000Z</time>
|
|
</trkpt>
|
|
<trkpt lat="55.895771" lon="8.164603">
|
|
<ele>1.806601</ele>
|
|
<time>2026-07-12T10:15:46.000Z</time>
|
|
</trkpt>
|
|
<trkpt lat="55.895802" lon="8.164579">
|
|
<ele>1.795926</ele>
|
|
<time>2026-07-12T10:15:47.000Z</time>
|
|
</trkpt>
|
|
<trkpt lat="55.895836" lon="8.164556">
|
|
<ele>1.784439</ele>
|
|
<time>2026-07-12T10:15:48.000Z</time>
|
|
</trkpt>
|
|
<trkpt lat="55.895870" lon="8.164531">
|
|
<ele>1.772821</ele>
|
|
<time>2026-07-12T10:15:49.000Z</time>
|
|
</trkpt>
|
|
<trkpt lat="55.895901" lon="8.164505">
|
|
<ele>1.762000</ele>
|
|
<time>2026-07-12T10:15:50.000Z</time>
|
|
</trkpt>
|
|
<trkpt lat="55.895935" lon="8.164478">
|
|
<ele>1.750243</ele>
|
|
<time>2026-07-12T10:15:51.000Z</time>
|
|
</trkpt>
|
|
<trkpt lat="55.895969" lon="8.164448">
|
|
<ele>1.738261</ele>
|
|
<time>2026-07-12T10:15:52.000Z</time>
|
|
</trkpt>
|
|
<trkpt lat="55.896000" lon="8.164410">
|
|
<ele>1.726378</ele>
|
|
<time>2026-07-12T10:15:53.000Z</time>
|
|
</trkpt>
|
|
<trkpt lat="55.896027" lon="8.164363">
|
|
<ele>1.714460</ele>
|
|
<time>2026-07-12T10:15:54.000Z</time>
|
|
</trkpt>
|
|
<trkpt lat="55.896053" lon="8.164309">
|
|
<ele>1.701853</ele>
|
|
<time>2026-07-12T10:15:55.000Z</time>
|
|
</trkpt>
|
|
<trkpt lat="55.896072" lon="8.164249">
|
|
<ele>1.689648</ele>
|
|
<time>2026-07-12T10:15:56.000Z</time>
|
|
</trkpt>
|
|
<trkpt lat="55.896091" lon="8.164185">
|
|
<ele>1.676822</ele>
|
|
<time>2026-07-12T10:15:57.000Z</time>
|
|
</trkpt>
|
|
<trkpt lat="55.896107" lon="8.164119">
|
|
<ele>1.664086</ele>
|
|
<time>2026-07-12T10:15:58.000Z</time>
|
|
</trkpt>
|
|
<trkpt lat="55.896122" lon="8.164049">
|
|
<ele>1.650813</ele>
|
|
<time>2026-07-12T10:15:59.000Z</time>
|
|
</trkpt>
|
|
<trkpt lat="55.896133" lon="8.163978">
|
|
<ele>1.637767</ele>
|
|
<time>2026-07-12T10:16:00.000Z</time>
|
|
</trkpt>
|
|
<trkpt lat="55.896145" lon="8.163906">
|
|
<ele>1.624463</ele>
|
|
<time>2026-07-12T10:16:01.000Z</time>
|
|
</trkpt>
|
|
<trkpt lat="55.896153" lon="8.163835">
|
|
<ele>1.611636</ele>
|
|
<time>2026-07-12T10:16:02.000Z</time>
|
|
</trkpt>
|
|
<trkpt lat="55.896164" lon="8.163764">
|
|
<ele>1.598589</ele>
|
|
<time>2026-07-12T10:16:03.000Z</time>
|
|
</trkpt>
|
|
<trkpt lat="55.896172" lon="8.163692">
|
|
<ele>1.585589</ele>
|
|
<time>2026-07-12T10:16:04.000Z</time>
|
|
</trkpt>
|
|
<trkpt lat="55.896183" lon="8.163617">
|
|
<ele>1.571858</ele>
|
|
<time>2026-07-12T10:16:05.000Z</time>
|
|
</trkpt>
|
|
<trkpt lat="55.896198" lon="8.163543">
|
|
<ele>1.557921</ele>
|
|
<time>2026-07-12T10:16:06.000Z</time>
|
|
</trkpt>
|
|
<trkpt lat="55.896214" lon="8.163466">
|
|
<ele>1.543377</ele>
|
|
<time>2026-07-12T10:16:07.000Z</time>
|
|
</trkpt>
|
|
<trkpt lat="55.896225" lon="8.163389">
|
|
<ele>1.529303</ele>
|
|
<time>2026-07-12T10:16:08.000Z</time>
|
|
</trkpt>
|
|
<trkpt lat="55.896236" lon="8.163310">
|
|
<ele>1.514886</ele>
|
|
<time>2026-07-12T10:16:09.000Z</time>
|
|
</trkpt>
|
|
<trkpt lat="55.896252" lon="8.163233">
|
|
<ele>1.500341</ele>
|
|
<time>2026-07-12T10:16:10.000Z</time>
|
|
</trkpt>
|
|
<trkpt lat="55.896267" lon="8.163156">
|
|
<ele>1.485903</ele>
|
|
<time>2026-07-12T10:16:11.000Z</time>
|
|
</trkpt>
|
|
<trkpt lat="55.896286" lon="8.163080">
|
|
<ele>1.471165</ele>
|
|
<time>2026-07-12T10:16:12.000Z</time>
|
|
</trkpt>
|
|
<trkpt lat="55.896301" lon="8.163005">
|
|
<ele>1.457061</ele>
|
|
<time>2026-07-12T10:16:13.000Z</time>
|
|
</trkpt>
|
|
<trkpt lat="55.896320" lon="8.162930">
|
|
<ele>1.442485</ele>
|
|
<time>2026-07-12T10:16:14.000Z</time>
|
|
</trkpt>
|
|
<trkpt lat="55.896339" lon="8.162857">
|
|
<ele>1.428230</ele>
|
|
<time>2026-07-12T10:16:15.000Z</time>
|
|
</trkpt>
|
|
<trkpt lat="55.896358" lon="8.162782">
|
|
<ele>1.413653</ele>
|
|
<time>2026-07-12T10:16:16.000Z</time>
|
|
</trkpt>
|
|
<trkpt lat="55.896378" lon="8.162705">
|
|
<ele>1.398623</ele>
|
|
<time>2026-07-12T10:16:17.000Z</time>
|
|
</trkpt>
|
|
<trkpt lat="55.896393" lon="8.162628">
|
|
<ele>1.384185</ele>
|
|
<time>2026-07-12T10:16:18.000Z</time>
|
|
</trkpt>
|
|
<trkpt lat="55.896412" lon="8.162551">
|
|
<ele>1.369285</ele>
|
|
<time>2026-07-12T10:16:19.000Z</time>
|
|
</trkpt>
|
|
<trkpt lat="55.896427" lon="8.162474">
|
|
<ele>1.380063</ele>
|
|
<time>2026-07-12T10:16:20.000Z</time>
|
|
</trkpt>
|
|
<trkpt lat="55.896442" lon="8.162396">
|
|
<ele>1.393708</ele>
|
|
<time>2026-07-12T10:16:21.000Z</time>
|
|
</trkpt>
|
|
<trkpt lat="55.896454" lon="8.162320">
|
|
<ele>1.406772</ele>
|
|
<time>2026-07-12T10:16:22.000Z</time>
|
|
</trkpt>
|
|
<trkpt lat="55.896469" lon="8.162245">
|
|
<ele>1.419948</ele>
|
|
<time>2026-07-12T10:16:23.000Z</time>
|
|
</trkpt>
|
|
<trkpt lat="55.896481" lon="8.162171">
|
|
<ele>1.432694</ele>
|
|
<time>2026-07-12T10:16:24.000Z</time>
|
|
</trkpt>
|
|
<trkpt lat="55.896496" lon="8.162097">
|
|
<ele>1.445714</ele>
|
|
<time>2026-07-12T10:16:25.000Z</time>
|
|
</trkpt>
|
|
<trkpt lat="55.896507" lon="8.162021">
|
|
<ele>1.458702</ele>
|
|
<time>2026-07-12T10:16:26.000Z</time>
|
|
</trkpt>
|
|
<trkpt lat="55.896519" lon="8.161944">
|
|
<ele>1.471926</ele>
|
|
<time>2026-07-12T10:16:27.000Z</time>
|
|
</trkpt>
|
|
<trkpt lat="55.896530" lon="8.161868">
|
|
<ele>1.484913</ele>
|
|
<time>2026-07-12T10:16:28.000Z</time>
|
|
</trkpt>
|
|
<trkpt lat="55.896545" lon="8.161793">
|
|
<ele>1.498089</ele>
|
|
<time>2026-07-12T10:16:29.000Z</time>
|
|
</trkpt>
|
|
<trkpt lat="55.896557" lon="8.161716">
|
|
<ele>1.511313</ele>
|
|
<time>2026-07-12T10:16:30.000Z</time>
|
|
</trkpt>
|
|
<trkpt lat="55.896568" lon="8.161641">
|
|
<ele>1.524140</ele>
|
|
<time>2026-07-12T10:16:31.000Z</time>
|
|
</trkpt>
|
|
<trkpt lat="55.896584" lon="8.161564">
|
|
<ele>1.537728</ele>
|
|
<time>2026-07-12T10:16:32.000Z</time>
|
|
</trkpt>
|
|
<trkpt lat="55.896599" lon="8.161484">
|
|
<ele>1.551686</ele>
|
|
<time>2026-07-12T10:16:33.000Z</time>
|
|
</trkpt>
|
|
<trkpt lat="55.896610" lon="8.161407">
|
|
<ele>1.564834</ele>
|
|
<time>2026-07-12T10:16:34.000Z</time>
|
|
</trkpt>
|
|
<trkpt lat="55.896626" lon="8.161332">
|
|
<ele>1.578111</ele>
|
|
<time>2026-07-12T10:16:35.000Z</time>
|
|
</trkpt>
|
|
<trkpt lat="55.896641" lon="8.161256">
|
|
<ele>1.591443</ele>
|
|
<time>2026-07-12T10:16:36.000Z</time>
|
|
</trkpt>
|
|
<trkpt lat="55.896652" lon="8.161180">
|
|
<ele>1.604431</ele>
|
|
<time>2026-07-12T10:16:37.000Z</time>
|
|
</trkpt>
|
|
<trkpt lat="55.896664" lon="8.161103">
|
|
<ele>1.617654</ele>
|
|
<time>2026-07-12T10:16:38.000Z</time>
|
|
</trkpt>
|
|
<trkpt lat="55.896671" lon="8.161027">
|
|
<ele>1.630398</ele>
|
|
<time>2026-07-12T10:16:39.000Z</time>
|
|
</trkpt>
|
|
<trkpt lat="55.896679" lon="8.160950">
|
|
<ele>1.643356</ele>
|
|
<time>2026-07-12T10:16:40.000Z</time>
|
|
</trkpt>
|
|
<trkpt lat="55.896690" lon="8.160875">
|
|
<ele>1.656183</ele>
|
|
<time>2026-07-12T10:16:41.000Z</time>
|
|
</trkpt>
|
|
<trkpt lat="55.896702" lon="8.160802">
|
|
<ele>1.668771</ele>
|
|
<time>2026-07-12T10:16:42.000Z</time>
|
|
</trkpt>
|
|
<trkpt lat="55.896713" lon="8.160728">
|
|
<ele>1.681438</ele>
|
|
<time>2026-07-12T10:16:43.000Z</time>
|
|
</trkpt>
|
|
<trkpt lat="55.896725" lon="8.160654">
|
|
<ele>1.694184</ele>
|
|
<time>2026-07-12T10:16:44.000Z</time>
|
|
</trkpt>
|
|
<trkpt lat="55.896736" lon="8.160580">
|
|
<ele>1.706852</ele>
|
|
<time>2026-07-12T10:16:45.000Z</time>
|
|
</trkpt>
|
|
<trkpt lat="55.896748" lon="8.160504">
|
|
<ele>1.719916</ele>
|
|
<time>2026-07-12T10:16:46.000Z</time>
|
|
</trkpt>
|
|
<trkpt lat="55.896759" lon="8.160430">
|
|
<ele>1.732583</ele>
|
|
<time>2026-07-12T10:16:47.000Z</time>
|
|
</trkpt>
|
|
<trkpt lat="55.896774" lon="8.160357">
|
|
<ele>1.745448</ele>
|
|
<time>2026-07-12T10:16:48.000Z</time>
|
|
</trkpt>
|
|
<trkpt lat="55.896786" lon="8.160284">
|
|
<ele>1.758035</ele>
|
|
<time>2026-07-12T10:16:49.000Z</time>
|
|
</trkpt>
|
|
<trkpt lat="55.896797" lon="8.160212">
|
|
<ele>1.770383</ele>
|
|
<time>2026-07-12T10:16:50.000Z</time>
|
|
</trkpt>
|
|
<trkpt lat="55.896812" lon="8.160141">
|
|
<ele>1.782937</ele>
|
|
<time>2026-07-12T10:16:51.000Z</time>
|
|
</trkpt>
|
|
<trkpt lat="55.896828" lon="8.160071">
|
|
<ele>1.795445</ele>
|
|
<time>2026-07-12T10:16:52.000Z</time>
|
|
</trkpt>
|
|
<trkpt lat="55.896843" lon="8.160004">
|
|
<ele>1.807382</ele>
|
|
<time>2026-07-12T10:16:53.000Z</time>
|
|
</trkpt>
|
|
<trkpt lat="55.896858" lon="8.159943">
|
|
<ele>1.818404</ele>
|
|
<time>2026-07-12T10:16:54.000Z</time>
|
|
</trkpt>
|
|
<trkpt lat="55.896877" lon="8.159891">
|
|
<ele>1.828674</ele>
|
|
<time>2026-07-12T10:16:55.000Z</time>
|
|
</trkpt>
|
|
<trkpt lat="55.896893" lon="8.159852">
|
|
<ele>1.836670</ele>
|
|
<time>2026-07-12T10:16:56.000Z</time>
|
|
</trkpt>
|
|
<trkpt lat="55.896904" lon="8.159822">
|
|
<ele>1.842601</ele>
|
|
<time>2026-07-12T10:16:57.000Z</time>
|
|
</trkpt>
|
|
<trkpt lat="55.896912" lon="8.159796">
|
|
<ele>1.847508</ele>
|
|
<time>2026-07-12T10:16:58.000Z</time>
|
|
</trkpt>
|
|
<trkpt lat="55.896915" lon="8.159769">
|
|
<ele>1.852063</ele>
|
|
<time>2026-07-12T10:16:59.000Z</time>
|
|
</trkpt>
|
|
<trkpt lat="55.896919" lon="8.159746">
|
|
<ele>1.856047</ele>
|
|
<time>2026-07-12T10:17:00.000Z</time>
|
|
</trkpt>
|
|
<trkpt lat="55.896912" lon="8.159726">
|
|
<ele>1.859948</ele>
|
|
<time>2026-07-12T10:17:01.000Z</time>
|
|
</trkpt>
|
|
<trkpt lat="55.896904" lon="8.159713">
|
|
<ele>1.863142</ele>
|
|
<time>2026-07-12T10:17:02.000Z</time>
|
|
</trkpt>
|
|
<trkpt lat="55.896889" lon="8.159712">
|
|
<ele>1.867572</ele>
|
|
<time>2026-07-12T10:17:03.000Z</time>
|
|
</trkpt>
|
|
<trkpt lat="55.896877" lon="8.159729">
|
|
<ele>1.872094</ele>
|
|
<time>2026-07-12T10:17:04.000Z</time>
|
|
</trkpt>
|
|
<trkpt lat="55.896870" lon="8.159762">
|
|
<ele>1.877932</ele>
|
|
<time>2026-07-12T10:17:05.000Z</time>
|
|
</trkpt>
|
|
<trkpt lat="55.896866" lon="8.159803">
|
|
<ele>1.884818</ele>
|
|
<time>2026-07-12T10:17:06.000Z</time>
|
|
</trkpt>
|
|
<trkpt lat="55.896866" lon="8.159848">
|
|
<ele>1.892264</ele>
|
|
<time>2026-07-12T10:17:07.000Z</time>
|
|
</trkpt>
|
|
<trkpt lat="55.896870" lon="8.159894">
|
|
<ele>1.900965</ele>
|
|
<time>2026-07-12T10:17:08.000Z</time>
|
|
</trkpt>
|
|
<trkpt lat="55.896873" lon="8.159938">
|
|
<ele>1.914004</ele>
|
|
<time>2026-07-12T10:17:09.000Z</time>
|
|
</trkpt>
|
|
<trkpt lat="55.896877" lon="8.159978">
|
|
<ele>1.925957</ele>
|
|
<time>2026-07-12T10:17:10.000Z</time>
|
|
</trkpt>
|
|
<trkpt lat="55.896881" lon="8.160014">
|
|
<ele>1.936753</ele>
|
|
<time>2026-07-12T10:17:11.000Z</time>
|
|
</trkpt>
|
|
<trkpt lat="55.896893" lon="8.160047">
|
|
<ele>1.948323</ele>
|
|
<time>2026-07-12T10:17:12.000Z</time>
|
|
</trkpt>
|
|
<trkpt lat="55.896908" lon="8.160070">
|
|
<ele>1.958702</ele>
|
|
<time>2026-07-12T10:17:13.000Z</time>
|
|
</trkpt>
|
|
<trkpt lat="55.896927" lon="8.160085">
|
|
<ele>1.969603</ele>
|
|
<time>2026-07-12T10:17:14.000Z</time>
|
|
</trkpt>
|
|
<trkpt lat="55.896950" lon="8.160093">
|
|
<ele>1.981898</ele>
|
|
<time>2026-07-12T10:17:15.000Z</time>
|
|
</trkpt>
|
|
<trkpt lat="55.896976" lon="8.160097">
|
|
<ele>1.995590</ele>
|
|
<time>2026-07-12T10:17:16.000Z</time>
|
|
</trkpt>
|
|
<trkpt lat="55.897003" lon="8.160098">
|
|
<ele>2.009759</ele>
|
|
<time>2026-07-12T10:17:17.000Z</time>
|
|
</trkpt>
|
|
<trkpt lat="55.897034" lon="8.160098">
|
|
<ele>2.026023</ele>
|
|
<time>2026-07-12T10:17:18.000Z</time>
|
|
</trkpt>
|
|
<trkpt lat="55.897068" lon="8.160097">
|
|
<ele>2.043864</ele>
|
|
<time>2026-07-12T10:17:19.000Z</time>
|
|
</trkpt>
|
|
<trkpt lat="55.897099" lon="8.160097">
|
|
<ele>2.060129</ele>
|
|
<time>2026-07-12T10:17:20.000Z</time>
|
|
</trkpt>
|
|
<trkpt lat="55.897133" lon="8.160100">
|
|
<ele>2.077989</ele>
|
|
<time>2026-07-12T10:17:21.000Z</time>
|
|
</trkpt>
|
|
<trkpt lat="55.897167" lon="8.160102">
|
|
<ele>2.095838</ele>
|
|
<time>2026-07-12T10:17:22.000Z</time>
|
|
</trkpt>
|
|
<trkpt lat="55.897205" lon="8.160100">
|
|
<ele>2.115784</ele>
|
|
<time>2026-07-12T10:17:23.000Z</time>
|
|
</trkpt>
|
|
<trkpt lat="55.897243" lon="8.160092">
|
|
<ele>2.135859</ele>
|
|
<time>2026-07-12T10:17:24.000Z</time>
|
|
</trkpt>
|
|
<trkpt lat="55.897285" lon="8.160082">
|
|
<ele>2.158091</ele>
|
|
<time>2026-07-12T10:17:25.000Z</time>
|
|
</trkpt>
|
|
<trkpt lat="55.897324" lon="8.160074">
|
|
<ele>2.178687</ele>
|
|
<time>2026-07-12T10:17:26.000Z</time>
|
|
</trkpt>
|
|
<trkpt lat="55.897366" lon="8.160068">
|
|
<ele>2.200794</ele>
|
|
<time>2026-07-12T10:17:27.000Z</time>
|
|
</trkpt>
|
|
<trkpt lat="55.897408" lon="8.160062">
|
|
<ele>2.222900</ele>
|
|
<time>2026-07-12T10:17:28.000Z</time>
|
|
</trkpt>
|
|
<trkpt lat="55.897453" lon="8.160056">
|
|
<ele>2.246576</ele>
|
|
<time>2026-07-12T10:17:29.000Z</time>
|
|
</trkpt>
|
|
<trkpt lat="55.897495" lon="8.160049">
|
|
<ele>2.268708</ele>
|
|
<time>2026-07-12T10:17:30.000Z</time>
|
|
</trkpt>
|
|
<trkpt lat="55.897537" lon="8.160040">
|
|
<ele>2.290902</ele>
|
|
<time>2026-07-12T10:17:31.000Z</time>
|
|
</trkpt>
|
|
<trkpt lat="55.897579" lon="8.160029">
|
|
<ele>2.313175</ele>
|
|
<time>2026-07-12T10:17:32.000Z</time>
|
|
</trkpt>
|
|
<trkpt lat="55.897617" lon="8.160018">
|
|
<ele>2.333373</ele>
|
|
<time>2026-07-12T10:17:33.000Z</time>
|
|
</trkpt>
|
|
<trkpt lat="55.897659" lon="8.160006">
|
|
<ele>2.355689</ele>
|
|
<time>2026-07-12T10:17:34.000Z</time>
|
|
</trkpt>
|
|
<trkpt lat="55.897701" lon="8.159994">
|
|
<ele>2.378006</ele>
|
|
<time>2026-07-12T10:17:35.000Z</time>
|
|
</trkpt>
|
|
<trkpt lat="55.897743" lon="8.159986">
|
|
<ele>2.400168</ele>
|
|
<time>2026-07-12T10:17:36.000Z</time>
|
|
</trkpt>
|
|
<trkpt lat="55.897785" lon="8.159979">
|
|
<ele>2.422299</ele>
|
|
<time>2026-07-12T10:17:37.000Z</time>
|
|
</trkpt>
|
|
<trkpt lat="55.897823" lon="8.159971">
|
|
<ele>2.442375</ele>
|
|
<time>2026-07-12T10:17:38.000Z</time>
|
|
</trkpt>
|
|
<trkpt lat="55.897861" lon="8.159963">
|
|
<ele>2.462451</ele>
|
|
<time>2026-07-12T10:17:39.000Z</time>
|
|
</trkpt>
|
|
<trkpt lat="55.897896" lon="8.159954">
|
|
<ele>2.481004</ele>
|
|
<time>2026-07-12T10:17:40.000Z</time>
|
|
</trkpt>
|
|
<trkpt lat="55.897930" lon="8.159946">
|
|
<ele>2.498997</ele>
|
|
<time>2026-07-12T10:17:41.000Z</time>
|
|
</trkpt>
|
|
<trkpt lat="55.897965" lon="8.159940">
|
|
<ele>2.517445</ele>
|
|
<time>2026-07-12T10:17:42.000Z</time>
|
|
</trkpt>
|
|
<trkpt lat="55.897991" lon="8.159935">
|
|
<ele>2.531165</ele>
|
|
<time>2026-07-12T10:17:43.000Z</time>
|
|
</trkpt>
|
|
<trkpt lat="55.898022" lon="8.159932">
|
|
<ele>2.547454</ele>
|
|
<time>2026-07-12T10:17:44.000Z</time>
|
|
</trkpt>
|
|
<trkpt lat="55.898052" lon="8.159927">
|
|
<ele>2.563262</ele>
|
|
<time>2026-07-12T10:17:45.000Z</time>
|
|
</trkpt>
|
|
<trkpt lat="55.898079" lon="8.159921">
|
|
<ele>2.577538</ele>
|
|
<time>2026-07-12T10:17:46.000Z</time>
|
|
</trkpt>
|
|
<trkpt lat="55.898106" lon="8.159915">
|
|
<ele>2.591813</ele>
|
|
<time>2026-07-12T10:17:47.000Z</time>
|
|
</trkpt>
|
|
<trkpt lat="55.898132" lon="8.159912">
|
|
<ele>2.605483</ele>
|
|
<time>2026-07-12T10:17:48.000Z</time>
|
|
</trkpt>
|
|
<trkpt lat="55.898159" lon="8.159912">
|
|
<ele>2.619649</ele>
|
|
<time>2026-07-12T10:17:49.000Z</time>
|
|
</trkpt>
|
|
<trkpt lat="55.898190" lon="8.159913">
|
|
<ele>2.635916</ele>
|
|
<time>2026-07-12T10:17:50.000Z</time>
|
|
</trkpt>
|
|
<trkpt lat="55.898216" lon="8.159914">
|
|
<ele>2.649560</ele>
|
|
<time>2026-07-12T10:17:51.000Z</time>
|
|
</trkpt>
|
|
<trkpt lat="55.898243" lon="8.159917">
|
|
<ele>2.663754</ele>
|
|
<time>2026-07-12T10:17:52.000Z</time>
|
|
</trkpt>
|
|
<trkpt lat="55.898273" lon="8.159924">
|
|
<ele>2.679628</ele>
|
|
<time>2026-07-12T10:17:53.000Z</time>
|
|
</trkpt>
|
|
<trkpt lat="55.898300" lon="8.159941">
|
|
<ele>2.694651</ele>
|
|
<time>2026-07-12T10:17:54.000Z</time>
|
|
</trkpt>
|
|
<trkpt lat="55.898327" lon="8.159974">
|
|
<ele>2.711823</ele>
|
|
<time>2026-07-12T10:17:55.000Z</time>
|
|
</trkpt>
|
|
<trkpt lat="55.898354" lon="8.160030">
|
|
<ele>2.733550</ele>
|
|
<time>2026-07-12T10:17:56.000Z</time>
|
|
</trkpt>
|
|
<trkpt lat="55.898373" lon="8.160097">
|
|
<ele>2.755636</ele>
|
|
<time>2026-07-12T10:17:57.000Z</time>
|
|
</trkpt>
|
|
<trkpt lat="55.898396" lon="8.160156">
|
|
<ele>2.776774</ele>
|
|
<time>2026-07-12T10:17:58.000Z</time>
|
|
</trkpt>
|
|
<trkpt lat="55.898422" lon="8.160198">
|
|
<ele>2.795179</ele>
|
|
<time>2026-07-12T10:17:59.000Z</time>
|
|
</trkpt>
|
|
<trkpt lat="55.898457" lon="8.160215">
|
|
<ele>2.814211</ele>
|
|
<time>2026-07-12T10:18:00.000Z</time>
|
|
</trkpt>
|
|
<trkpt lat="55.898495" lon="8.160211">
|
|
<ele>2.834183</ele>
|
|
<time>2026-07-12T10:18:01.000Z</time>
|
|
</trkpt>
|
|
<trkpt lat="55.898537" lon="8.160190">
|
|
<ele>2.828598</ele>
|
|
<time>2026-07-12T10:18:02.000Z</time>
|
|
</trkpt>
|
|
<trkpt lat="55.898579" lon="8.160154">
|
|
<ele>2.805703</ele>
|
|
<time>2026-07-12T10:18:03.000Z</time>
|
|
</trkpt>
|
|
<trkpt lat="55.898621" lon="8.160108">
|
|
<ele>2.781488</ele>
|
|
<time>2026-07-12T10:18:04.000Z</time>
|
|
</trkpt>
|
|
<trkpt lat="55.898663" lon="8.160057">
|
|
<ele>2.756523</ele>
|
|
<time>2026-07-12T10:18:05.000Z</time>
|
|
</trkpt>
|
|
<trkpt lat="55.898701" lon="8.160011">
|
|
<ele>2.733959</ele>
|
|
<time>2026-07-12T10:18:06.000Z</time>
|
|
</trkpt>
|
|
<trkpt lat="55.898743" lon="8.159971">
|
|
<ele>2.710565</ele>
|
|
<time>2026-07-12T10:18:07.000Z</time>
|
|
</trkpt>
|
|
<trkpt lat="55.898785" lon="8.159933">
|
|
<ele>2.687426</ele>
|
|
<time>2026-07-12T10:18:08.000Z</time>
|
|
</trkpt>
|
|
<trkpt lat="55.898830" lon="8.159898">
|
|
<ele>2.663306</ele>
|
|
<time>2026-07-12T10:18:09.000Z</time>
|
|
</trkpt>
|
|
<trkpt lat="55.898872" lon="8.159863">
|
|
<ele>2.640529</ele>
|
|
<time>2026-07-12T10:18:10.000Z</time>
|
|
</trkpt>
|
|
<trkpt lat="55.898910" lon="8.159830">
|
|
<ele>2.619763</ele>
|
|
<time>2026-07-12T10:18:11.000Z</time>
|
|
</trkpt>
|
|
<trkpt lat="55.898956" lon="8.159800">
|
|
<ele>2.595698</ele>
|
|
<time>2026-07-12T10:18:12.000Z</time>
|
|
</trkpt>
|
|
<trkpt lat="55.898998" lon="8.159773">
|
|
<ele>2.573763</ele>
|
|
<time>2026-07-12T10:18:13.000Z</time>
|
|
</trkpt>
|
|
<trkpt lat="55.899040" lon="8.159749">
|
|
<ele>2.552094</ele>
|
|
<time>2026-07-12T10:18:14.000Z</time>
|
|
</trkpt>
|
|
<trkpt lat="55.899082" lon="8.159726">
|
|
<ele>2.530507</ele>
|
|
<time>2026-07-12T10:18:15.000Z</time>
|
|
</trkpt>
|
|
<trkpt lat="55.899124" lon="8.159701">
|
|
<ele>2.508753</ele>
|
|
<time>2026-07-12T10:18:16.000Z</time>
|
|
</trkpt>
|
|
<trkpt lat="55.899170" lon="8.159677">
|
|
<ele>2.485204</ele>
|
|
<time>2026-07-12T10:18:17.000Z</time>
|
|
</trkpt>
|
|
<trkpt lat="55.899212" lon="8.159651">
|
|
<ele>2.463361</ele>
|
|
<time>2026-07-12T10:18:18.000Z</time>
|
|
</trkpt>
|
|
<trkpt lat="55.899258" lon="8.159625">
|
|
<ele>2.439652</ele>
|
|
<time>2026-07-12T10:18:19.000Z</time>
|
|
</trkpt>
|
|
<trkpt lat="55.899300" lon="8.159599">
|
|
<ele>2.417809</ele>
|
|
<time>2026-07-12T10:18:20.000Z</time>
|
|
</trkpt>
|
|
<trkpt lat="55.899342" lon="8.159575">
|
|
<ele>2.396140</ele>
|
|
<time>2026-07-12T10:18:21.000Z</time>
|
|
</trkpt>
|
|
<trkpt lat="55.899384" lon="8.159552">
|
|
<ele>2.374553</ele>
|
|
<time>2026-07-12T10:18:22.000Z</time>
|
|
</trkpt>
|
|
<trkpt lat="55.899425" lon="8.159526">
|
|
<ele>2.353173</ele>
|
|
<time>2026-07-12T10:18:23.000Z</time>
|
|
</trkpt>
|
|
<trkpt lat="55.899467" lon="8.159502">
|
|
<ele>2.331504</ele>
|
|
<time>2026-07-12T10:18:24.000Z</time>
|
|
</trkpt>
|
|
<trkpt lat="55.899506" lon="8.159480">
|
|
<ele>2.311407</ele>
|
|
<time>2026-07-12T10:18:25.000Z</time>
|
|
</trkpt>
|
|
<trkpt lat="55.899548" lon="8.159458">
|
|
<ele>2.289900</ele>
|
|
<time>2026-07-12T10:18:26.000Z</time>
|
|
</trkpt>
|
|
<trkpt lat="55.899586" lon="8.159438">
|
|
<ele>2.270433</ele>
|
|
<time>2026-07-12T10:18:27.000Z</time>
|
|
</trkpt>
|
|
<trkpt lat="55.899628" lon="8.159420">
|
|
<ele>2.249210</ele>
|
|
<time>2026-07-12T10:18:28.000Z</time>
|
|
</trkpt>
|
|
<trkpt lat="55.899666" lon="8.159402">
|
|
<ele>2.229892</ele>
|
|
<time>2026-07-12T10:18:29.000Z</time>
|
|
</trkpt>
|
|
<trkpt lat="55.899708" lon="8.159388">
|
|
<ele>2.208899</ele>
|
|
<time>2026-07-12T10:18:30.000Z</time>
|
|
</trkpt>
|
|
<trkpt lat="55.899746" lon="8.159379">
|
|
<ele>2.190065</ele>
|
|
<time>2026-07-12T10:18:31.000Z</time>
|
|
</trkpt>
|
|
<trkpt lat="55.899792" lon="8.159375">
|
|
<ele>2.167437</ele>
|
|
<time>2026-07-12T10:18:32.000Z</time>
|
|
</trkpt>
|
|
<trkpt lat="55.899834" lon="8.159376">
|
|
<ele>2.146799</ele>
|
|
<time>2026-07-12T10:18:33.000Z</time>
|
|
</trkpt>
|
|
<trkpt lat="55.899876" lon="8.159379">
|
|
<ele>2.126147</ele>
|
|
<time>2026-07-12T10:18:34.000Z</time>
|
|
</trkpt>
|
|
<trkpt lat="55.899921" lon="8.159381">
|
|
<ele>2.104030</ele>
|
|
<time>2026-07-12T10:18:35.000Z</time>
|
|
</trkpt>
|
|
<trkpt lat="55.899971" lon="8.159383">
|
|
<ele>2.079457</ele>
|
|
<time>2026-07-12T10:18:36.000Z</time>
|
|
</trkpt>
|
|
<trkpt lat="55.900017" lon="8.159388">
|
|
<ele>2.056814</ele>
|
|
<time>2026-07-12T10:18:37.000Z</time>
|
|
</trkpt>
|
|
<trkpt lat="55.900070" lon="8.159392">
|
|
<ele>2.030750</ele>
|
|
<time>2026-07-12T10:18:38.000Z</time>
|
|
</trkpt>
|
|
<trkpt lat="55.900120" lon="8.159397">
|
|
<ele>2.006145</ele>
|
|
<time>2026-07-12T10:18:39.000Z</time>
|
|
</trkpt>
|
|
<trkpt lat="55.900169" lon="8.159400">
|
|
<ele>1.982056</ele>
|
|
<time>2026-07-12T10:18:40.000Z</time>
|
|
</trkpt>
|
|
<trkpt lat="55.900219" lon="8.159404">
|
|
<ele>1.959488</ele>
|
|
<time>2026-07-12T10:18:41.000Z</time>
|
|
</trkpt>
|
|
<trkpt lat="55.900272" lon="8.159409">
|
|
<ele>1.978367</ele>
|
|
<time>2026-07-12T10:18:42.000Z</time>
|
|
</trkpt>
|
|
<trkpt lat="55.900322" lon="8.159410">
|
|
<ele>1.996153</ele>
|
|
<time>2026-07-12T10:18:43.000Z</time>
|
|
</trkpt>
|
|
<trkpt lat="55.900372" lon="8.159410">
|
|
<ele>2.013939</ele>
|
|
<time>2026-07-12T10:18:44.000Z</time>
|
|
</trkpt>
|
|
<trkpt lat="55.900417" lon="8.159412">
|
|
<ele>2.029951</ele>
|
|
<time>2026-07-12T10:18:45.000Z</time>
|
|
</trkpt>
|
|
<trkpt lat="55.900463" lon="8.159414">
|
|
<ele>2.046318</ele>
|
|
<time>2026-07-12T10:18:46.000Z</time>
|
|
</trkpt>
|
|
<trkpt lat="55.900505" lon="8.159415">
|
|
<ele>2.061259</ele>
|
|
<time>2026-07-12T10:18:47.000Z</time>
|
|
</trkpt>
|
|
<trkpt lat="55.900547" lon="8.159419">
|
|
<ele>2.076220</ele>
|
|
<time>2026-07-12T10:18:48.000Z</time>
|
|
</trkpt>
|
|
<trkpt lat="55.900589" lon="8.159427">
|
|
<ele>2.091245</ele>
|
|
<time>2026-07-12T10:18:49.000Z</time>
|
|
</trkpt>
|
|
<trkpt lat="55.900635" lon="8.159435">
|
|
<ele>2.107685</ele>
|
|
<time>2026-07-12T10:18:50.000Z</time>
|
|
</trkpt>
|
|
<trkpt lat="55.900684" lon="8.159443">
|
|
<ele>2.125188</ele>
|
|
<time>2026-07-12T10:18:51.000Z</time>
|
|
</trkpt>
|
|
<trkpt lat="55.900726" lon="8.159451">
|
|
<ele>2.140212</ele>
|
|
<time>2026-07-12T10:18:52.000Z</time>
|
|
</trkpt>
|
|
<trkpt lat="55.900764" lon="8.159459">
|
|
<ele>2.153823</ele>
|
|
<time>2026-07-12T10:18:53.000Z</time>
|
|
</trkpt>
|
|
<trkpt lat="55.900803" lon="8.159465">
|
|
<ele>2.167747</ele>
|
|
<time>2026-07-12T10:18:54.000Z</time>
|
|
</trkpt>
|
|
<trkpt lat="55.900841" lon="8.159458">
|
|
<ele>2.181336</ele>
|
|
<time>2026-07-12T10:18:55.000Z</time>
|
|
</trkpt>
|
|
<trkpt lat="55.900887" lon="8.159431">
|
|
<ele>2.198562</ele>
|
|
<time>2026-07-12T10:18:56.000Z</time>
|
|
</trkpt>
|
|
<trkpt lat="55.900932" lon="8.159388">
|
|
<ele>2.216721</ele>
|
|
<time>2026-07-12T10:18:57.000Z</time>
|
|
</trkpt>
|
|
<trkpt lat="55.900974" lon="8.159339">
|
|
<ele>2.234572</ele>
|
|
<time>2026-07-12T10:18:58.000Z</time>
|
|
</trkpt>
|
|
<trkpt lat="55.901009" lon="8.159292">
|
|
<ele>2.250156</ele>
|
|
<time>2026-07-12T10:18:59.000Z</time>
|
|
</trkpt>
|
|
<trkpt lat="55.901043" lon="8.159254">
|
|
<ele>2.264428</ele>
|
|
<time>2026-07-12T10:19:00.000Z</time>
|
|
</trkpt>
|
|
<trkpt lat="55.901073" lon="8.159225">
|
|
<ele>2.276565</ele>
|
|
<time>2026-07-12T10:19:01.000Z</time>
|
|
</trkpt>
|
|
<trkpt lat="55.901108" lon="8.159203">
|
|
<ele>2.289765</ele>
|
|
<time>2026-07-12T10:19:02.000Z</time>
|
|
</trkpt>
|
|
<trkpt lat="55.901138" lon="8.159183">
|
|
<ele>2.301158</ele>
|
|
<time>2026-07-12T10:19:03.000Z</time>
|
|
</trkpt>
|
|
<trkpt lat="55.901169" lon="8.159160">
|
|
<ele>2.313100</ele>
|
|
<time>2026-07-12T10:19:04.000Z</time>
|
|
</trkpt>
|
|
<trkpt lat="55.901207" lon="8.159129">
|
|
<ele>2.327964</ele>
|
|
<time>2026-07-12T10:19:05.000Z</time>
|
|
</trkpt>
|
|
<trkpt lat="55.901241" lon="8.159089">
|
|
<ele>2.342452</ele>
|
|
<time>2026-07-12T10:19:06.000Z</time>
|
|
</trkpt>
|
|
<trkpt lat="55.901279" lon="8.159039">
|
|
<ele>2.359248</ele>
|
|
<time>2026-07-12T10:19:07.000Z</time>
|
|
</trkpt>
|
|
<trkpt lat="55.901314" lon="8.158978">
|
|
<ele>2.376654</ele>
|
|
<time>2026-07-12T10:19:08.000Z</time>
|
|
</trkpt>
|
|
<trkpt lat="55.901344" lon="8.158912">
|
|
<ele>2.393598</ele>
|
|
<time>2026-07-12T10:19:09.000Z</time>
|
|
</trkpt>
|
|
<trkpt lat="55.901371" lon="8.158846">
|
|
<ele>2.409891</ele>
|
|
<time>2026-07-12T10:19:10.000Z</time>
|
|
</trkpt>
|
|
<trkpt lat="55.901394" lon="8.158786">
|
|
<ele>2.424386</ele>
|
|
<time>2026-07-12T10:19:11.000Z</time>
|
|
</trkpt>
|
|
<trkpt lat="55.901417" lon="8.158732">
|
|
<ele>2.437910</ele>
|
|
<time>2026-07-12T10:19:12.000Z</time>
|
|
</trkpt>
|
|
<trkpt lat="55.901447" lon="8.158689">
|
|
<ele>2.451599</ele>
|
|
<time>2026-07-12T10:19:13.000Z</time>
|
|
</trkpt>
|
|
<trkpt lat="55.901485" lon="8.158654">
|
|
<ele>2.466812</ele>
|
|
<time>2026-07-12T10:19:14.000Z</time>
|
|
</trkpt>
|
|
<trkpt lat="55.901527" lon="8.158626">
|
|
<ele>2.482761</ele>
|
|
<time>2026-07-12T10:19:15.000Z</time>
|
|
</trkpt>
|
|
<trkpt lat="55.901573" lon="8.158603">
|
|
<ele>2.499754</ele>
|
|
<time>2026-07-12T10:19:16.000Z</time>
|
|
</trkpt>
|
|
<trkpt lat="55.901615" lon="8.158581">
|
|
<ele>2.515325</ele>
|
|
<time>2026-07-12T10:19:17.000Z</time>
|
|
</trkpt>
|
|
<trkpt lat="55.901661" lon="8.158561">
|
|
<ele>2.532166</ele>
|
|
<time>2026-07-12T10:19:18.000Z</time>
|
|
</trkpt>
|
|
<trkpt lat="55.901707" lon="8.158544">
|
|
<ele>2.548877</ele>
|
|
<time>2026-07-12T10:19:19.000Z</time>
|
|
</trkpt>
|
|
<trkpt lat="55.901749" lon="8.158527">
|
|
<ele>2.564196</ele>
|
|
<time>2026-07-12T10:19:20.000Z</time>
|
|
</trkpt>
|
|
<trkpt lat="55.901794" lon="8.158510">
|
|
<ele>2.580558</ele>
|
|
<time>2026-07-12T10:19:21.000Z</time>
|
|
</trkpt>
|
|
<trkpt lat="55.901840" lon="8.158493">
|
|
<ele>2.597268</ele>
|
|
<time>2026-07-12T10:19:22.000Z</time>
|
|
</trkpt>
|
|
<trkpt lat="55.901882" lon="8.158475">
|
|
<ele>2.604043</ele>
|
|
<time>2026-07-12T10:19:23.000Z</time>
|
|
</trkpt>
|
|
<trkpt lat="55.901916" lon="8.158461">
|
|
<ele>2.608948</ele>
|
|
<time>2026-07-12T10:19:24.000Z</time>
|
|
</trkpt>
|
|
<trkpt lat="55.901943" lon="8.158450">
|
|
<ele>2.612841</ele>
|
|
<time>2026-07-12T10:19:25.000Z</time>
|
|
</trkpt>
|
|
<trkpt lat="55.901966" lon="8.158440">
|
|
<ele>2.616168</ele>
|
|
<time>2026-07-12T10:19:26.000Z</time>
|
|
</trkpt>
|
|
<trkpt lat="55.901989" lon="8.158429">
|
|
<ele>2.619515</ele>
|
|
<time>2026-07-12T10:19:27.000Z</time>
|
|
</trkpt>
|
|
<trkpt lat="55.902012" lon="8.158422">
|
|
<ele>2.622795</ele>
|
|
<time>2026-07-12T10:19:28.000Z</time>
|
|
</trkpt>
|
|
<trkpt lat="55.902035" lon="8.158420">
|
|
<ele>2.626032</ele>
|
|
<time>2026-07-12T10:19:29.000Z</time>
|
|
</trkpt>
|
|
<trkpt lat="55.902054" lon="8.158419">
|
|
<ele>2.628704</ele>
|
|
<time>2026-07-12T10:19:30.000Z</time>
|
|
</trkpt>
|
|
<trkpt lat="55.902069" lon="8.158420">
|
|
<ele>2.630814</ele>
|
|
<time>2026-07-12T10:19:31.000Z</time>
|
|
</trkpt>
|
|
<trkpt lat="55.902081" lon="8.158421">
|
|
<ele>2.632503</ele>
|
|
<time>2026-07-12T10:19:32.000Z</time>
|
|
</trkpt>
|
|
<trkpt lat="55.902161" lon="8.158392">
|
|
<ele>2.643978</ele>
|
|
<time>2026-07-12T10:22:46.000Z</time>
|
|
</trkpt>
|
|
<trkpt lat="55.902187" lon="8.158384">
|
|
<ele>2.647686</ele>
|
|
<time>2026-07-12T10:22:47.000Z</time>
|
|
</trkpt>
|
|
<trkpt lat="55.902218" lon="8.158368">
|
|
<ele>2.652223</ele>
|
|
<time>2026-07-12T10:22:48.000Z</time>
|
|
</trkpt>
|
|
<trkpt lat="55.902256" lon="8.158338">
|
|
<ele>2.658064</ele>
|
|
<time>2026-07-12T10:22:49.000Z</time>
|
|
</trkpt>
|
|
<trkpt lat="55.902287" lon="8.158286">
|
|
<ele>2.664046</ele>
|
|
<time>2026-07-12T10:22:50.000Z</time>
|
|
</trkpt>
|
|
<trkpt lat="55.902313" lon="8.158223">
|
|
<ele>2.670210</ele>
|
|
<time>2026-07-12T10:22:51.000Z</time>
|
|
</trkpt>
|
|
<trkpt lat="55.902340" lon="8.158156">
|
|
<ele>2.676712</ele>
|
|
<time>2026-07-12T10:22:52.000Z</time>
|
|
</trkpt>
|
|
<trkpt lat="55.902363" lon="8.158086">
|
|
<ele>2.683106</ele>
|
|
<time>2026-07-12T10:22:53.000Z</time>
|
|
</trkpt>
|
|
<trkpt lat="55.902390" lon="8.158016">
|
|
<ele>2.689802</ele>
|
|
<time>2026-07-12T10:22:54.000Z</time>
|
|
</trkpt>
|
|
<trkpt lat="55.902412" lon="8.157951">
|
|
<ele>2.695785</ele>
|
|
<time>2026-07-12T10:22:55.000Z</time>
|
|
</trkpt>
|
|
<trkpt lat="55.902439" lon="8.157891">
|
|
<ele>2.701848</ele>
|
|
<time>2026-07-12T10:22:56.000Z</time>
|
|
</trkpt>
|
|
<trkpt lat="55.902470" lon="8.157832">
|
|
<ele>2.708220</ele>
|
|
<time>2026-07-12T10:22:57.000Z</time>
|
|
</trkpt>
|
|
<trkpt lat="55.902500" lon="8.157776">
|
|
<ele>2.714324</ele>
|
|
<time>2026-07-12T10:22:58.000Z</time>
|
|
</trkpt>
|
|
<trkpt lat="55.902531" lon="8.157726">
|
|
<ele>2.720199</ele>
|
|
<time>2026-07-12T10:22:59.000Z</time>
|
|
</trkpt>
|
|
<trkpt lat="55.902565" lon="8.157687">
|
|
<ele>2.725881</ele>
|
|
<time>2026-07-12T10:23:00.000Z</time>
|
|
</trkpt>
|
|
<trkpt lat="55.902603" lon="8.157659">
|
|
<ele>2.731660</ele>
|
|
<time>2026-07-12T10:23:01.000Z</time>
|
|
</trkpt>
|
|
<trkpt lat="55.902638" lon="8.157637">
|
|
<ele>2.736876</ele>
|
|
<time>2026-07-12T10:23:02.000Z</time>
|
|
</trkpt>
|
|
<trkpt lat="55.902676" lon="8.157622">
|
|
<ele>2.742347</ele>
|
|
<time>2026-07-12T10:23:03.000Z</time>
|
|
</trkpt>
|
|
<trkpt lat="55.902718" lon="8.157611">
|
|
<ele>2.748314</ele>
|
|
<time>2026-07-12T10:23:04.000Z</time>
|
|
</trkpt>
|
|
<trkpt lat="55.902756" lon="8.157599">
|
|
<ele>2.753739</ele>
|
|
<time>2026-07-12T10:23:05.000Z</time>
|
|
</trkpt>
|
|
<trkpt lat="55.902794" lon="8.157591">
|
|
<ele>2.759117</ele>
|
|
<time>2026-07-12T10:23:06.000Z</time>
|
|
</trkpt>
|
|
<trkpt lat="55.902840" lon="8.157584">
|
|
<ele>2.765607</ele>
|
|
<time>2026-07-12T10:23:07.000Z</time>
|
|
</trkpt>
|
|
<trkpt lat="55.902882" lon="8.157577">
|
|
<ele>2.771536</ele>
|
|
<time>2026-07-12T10:23:08.000Z</time>
|
|
</trkpt>
|
|
<trkpt lat="55.902924" lon="8.157566">
|
|
<ele>2.777503</ele>
|
|
<time>2026-07-12T10:23:09.000Z</time>
|
|
</trkpt>
|
|
<trkpt lat="55.902966" lon="8.157555">
|
|
<ele>2.783470</ele>
|
|
<time>2026-07-12T10:23:10.000Z</time>
|
|
</trkpt>
|
|
<trkpt lat="55.903007" lon="8.157542">
|
|
<ele>2.789324</ele>
|
|
<time>2026-07-12T10:23:11.000Z</time>
|
|
</trkpt>
|
|
<trkpt lat="55.903049" lon="8.157531">
|
|
<ele>2.795291</ele>
|
|
<time>2026-07-12T10:23:12.000Z</time>
|
|
</trkpt>
|
|
<trkpt lat="55.903091" lon="8.157521">
|
|
<ele>2.801247</ele>
|
|
<time>2026-07-12T10:23:13.000Z</time>
|
|
</trkpt>
|
|
<trkpt lat="55.903133" lon="8.157510">
|
|
<ele>2.807214</ele>
|
|
<time>2026-07-12T10:23:14.000Z</time>
|
|
</trkpt>
|
|
<trkpt lat="55.903175" lon="8.157497">
|
|
<ele>2.813206</ele>
|
|
<time>2026-07-12T10:23:15.000Z</time>
|
|
</trkpt>
|
|
<trkpt lat="55.903217" lon="8.157487">
|
|
<ele>2.819162</ele>
|
|
<time>2026-07-12T10:23:16.000Z</time>
|
|
</trkpt>
|
|
<trkpt lat="55.903259" lon="8.157476">
|
|
<ele>2.825129</ele>
|
|
<time>2026-07-12T10:23:17.000Z</time>
|
|
</trkpt>
|
|
<trkpt lat="55.903305" lon="8.157468">
|
|
<ele>2.831626</ele>
|
|
<time>2026-07-12T10:23:18.000Z</time>
|
|
</trkpt>
|
|
<trkpt lat="55.903347" lon="8.157458">
|
|
<ele>2.837582</ele>
|
|
<time>2026-07-12T10:23:19.000Z</time>
|
|
</trkpt>
|
|
<trkpt lat="55.903389" lon="8.157450">
|
|
<ele>2.843519</ele>
|
|
<time>2026-07-12T10:23:20.000Z</time>
|
|
</trkpt>
|
|
<trkpt lat="55.903431" lon="8.157439">
|
|
<ele>2.849487</ele>
|
|
<time>2026-07-12T10:23:21.000Z</time>
|
|
</trkpt>
|
|
<trkpt lat="55.903473" lon="8.157430">
|
|
<ele>2.851807</ele>
|
|
<time>2026-07-12T10:23:22.000Z</time>
|
|
</trkpt>
|
|
<trkpt lat="55.903515" lon="8.157420">
|
|
<ele>2.852592</ele>
|
|
<time>2026-07-12T10:23:23.000Z</time>
|
|
</trkpt>
|
|
<trkpt lat="55.903561" lon="8.157411">
|
|
<ele>2.853448</ele>
|
|
<time>2026-07-12T10:23:24.000Z</time>
|
|
</trkpt>
|
|
<trkpt lat="55.903603" lon="8.157399">
|
|
<ele>2.854235</ele>
|
|
<time>2026-07-12T10:23:25.000Z</time>
|
|
</trkpt>
|
|
<trkpt lat="55.903648" lon="8.157390">
|
|
<ele>2.855073</ele>
|
|
<time>2026-07-12T10:23:26.000Z</time>
|
|
</trkpt>
|
|
<trkpt lat="55.903690" lon="8.157379">
|
|
<ele>2.855859</ele>
|
|
<time>2026-07-12T10:23:27.000Z</time>
|
|
</trkpt>
|
|
<trkpt lat="55.903736" lon="8.157368">
|
|
<ele>2.856718</ele>
|
|
<time>2026-07-12T10:23:28.000Z</time>
|
|
</trkpt>
|
|
<trkpt lat="55.903778" lon="8.157353">
|
|
<ele>2.857510</ele>
|
|
<time>2026-07-12T10:23:29.000Z</time>
|
|
</trkpt>
|
|
<trkpt lat="55.903816" lon="8.157341">
|
|
<ele>2.858224</ele>
|
|
<time>2026-07-12T10:23:30.000Z</time>
|
|
</trkpt>
|
|
<trkpt lat="55.903858" lon="8.157331">
|
|
<ele>2.859008</ele>
|
|
<time>2026-07-12T10:23:31.000Z</time>
|
|
</trkpt>
|
|
<trkpt lat="55.903900" lon="8.157322">
|
|
<ele>2.859791</ele>
|
|
<time>2026-07-12T10:23:32.000Z</time>
|
|
</trkpt>
|
|
<trkpt lat="55.903942" lon="8.157310">
|
|
<ele>2.860578</ele>
|
|
<time>2026-07-12T10:23:33.000Z</time>
|
|
</trkpt>
|
|
<trkpt lat="55.903984" lon="8.157293">
|
|
<ele>2.861375</ele>
|
|
<time>2026-07-12T10:23:34.000Z</time>
|
|
</trkpt>
|
|
<trkpt lat="55.904026" lon="8.157278">
|
|
<ele>2.862168</ele>
|
|
<time>2026-07-12T10:23:35.000Z</time>
|
|
</trkpt>
|
|
<trkpt lat="55.904072" lon="8.157267">
|
|
<ele>2.863027</ele>
|
|
<time>2026-07-12T10:23:36.000Z</time>
|
|
</trkpt>
|
|
<trkpt lat="55.904114" lon="8.157257">
|
|
<ele>2.863811</ele>
|
|
<time>2026-07-12T10:23:37.000Z</time>
|
|
</trkpt>
|
|
<trkpt lat="55.904156" lon="8.157246">
|
|
<ele>2.864597</ele>
|
|
<time>2026-07-12T10:23:38.000Z</time>
|
|
</trkpt>
|
|
<trkpt lat="55.904198" lon="8.157235">
|
|
<ele>2.865382</ele>
|
|
<time>2026-07-12T10:23:39.000Z</time>
|
|
</trkpt>
|
|
<trkpt lat="55.904240" lon="8.157224">
|
|
<ele>2.866168</ele>
|
|
<time>2026-07-12T10:23:40.000Z</time>
|
|
</trkpt>
|
|
<trkpt lat="55.904282" lon="8.157211">
|
|
<ele>2.866957</ele>
|
|
<time>2026-07-12T10:23:41.000Z</time>
|
|
</trkpt>
|
|
<trkpt lat="55.904324" lon="8.157199">
|
|
<ele>2.867744</ele>
|
|
<time>2026-07-12T10:23:42.000Z</time>
|
|
</trkpt>
|
|
<trkpt lat="55.904366" lon="8.157188">
|
|
<ele>2.868529</ele>
|
|
<time>2026-07-12T10:23:43.000Z</time>
|
|
</trkpt>
|
|
<trkpt lat="55.904411" lon="8.157179">
|
|
<ele>2.869367</ele>
|
|
<time>2026-07-12T10:23:44.000Z</time>
|
|
</trkpt>
|
|
<trkpt lat="55.904453" lon="8.157168">
|
|
<ele>2.870153</ele>
|
|
<time>2026-07-12T10:23:45.000Z</time>
|
|
</trkpt>
|
|
<trkpt lat="55.904491" lon="8.157159">
|
|
<ele>2.870862</ele>
|
|
<time>2026-07-12T10:23:46.000Z</time>
|
|
</trkpt>
|
|
<trkpt lat="55.904530" lon="8.157147">
|
|
<ele>2.871595</ele>
|
|
<time>2026-07-12T10:23:47.000Z</time>
|
|
</trkpt>
|
|
<trkpt lat="55.904568" lon="8.157138">
|
|
<ele>2.872304</ele>
|
|
<time>2026-07-12T10:23:48.000Z</time>
|
|
</trkpt>
|
|
<trkpt lat="55.904606" lon="8.157129">
|
|
<ele>2.873013</ele>
|
|
<time>2026-07-12T10:23:49.000Z</time>
|
|
</trkpt>
|
|
<trkpt lat="55.904644" lon="8.157122">
|
|
<ele>2.873720</ele>
|
|
<time>2026-07-12T10:23:50.000Z</time>
|
|
</trkpt>
|
|
<trkpt lat="55.904686" lon="8.157112">
|
|
<ele>2.874504</ele>
|
|
<time>2026-07-12T10:23:51.000Z</time>
|
|
</trkpt>
|
|
<trkpt lat="55.904724" lon="8.157103">
|
|
<ele>2.875214</ele>
|
|
<time>2026-07-12T10:23:52.000Z</time>
|
|
</trkpt>
|
|
<trkpt lat="55.904766" lon="8.157094">
|
|
<ele>2.875997</ele>
|
|
<time>2026-07-12T10:23:53.000Z</time>
|
|
</trkpt>
|
|
<trkpt lat="55.904808" lon="8.157083">
|
|
<ele>2.876782</ele>
|
|
<time>2026-07-12T10:23:54.000Z</time>
|
|
</trkpt>
|
|
<trkpt lat="55.904850" lon="8.157071">
|
|
<ele>2.877569</ele>
|
|
<time>2026-07-12T10:23:55.000Z</time>
|
|
</trkpt>
|
|
<trkpt lat="55.904892" lon="8.157061">
|
|
<ele>2.878353</ele>
|
|
<time>2026-07-12T10:23:56.000Z</time>
|
|
</trkpt>
|
|
<trkpt lat="55.904938" lon="8.157049">
|
|
<ele>2.879214</ele>
|
|
<time>2026-07-12T10:23:57.000Z</time>
|
|
</trkpt>
|
|
<trkpt lat="55.904980" lon="8.157038">
|
|
<ele>2.879999</ele>
|
|
<time>2026-07-12T10:23:58.000Z</time>
|
|
</trkpt>
|
|
<trkpt lat="55.905022" lon="8.157026">
|
|
<ele>2.880786</ele>
|
|
<time>2026-07-12T10:23:59.000Z</time>
|
|
</trkpt>
|
|
<trkpt lat="55.905064" lon="8.157015">
|
|
<ele>2.881572</ele>
|
|
<time>2026-07-12T10:24:00.000Z</time>
|
|
</trkpt>
|
|
<trkpt lat="55.905106" lon="8.157004">
|
|
<ele>2.882358</ele>
|
|
<time>2026-07-12T10:24:01.000Z</time>
|
|
</trkpt>
|
|
<trkpt lat="55.905148" lon="8.156994">
|
|
<ele>2.883142</ele>
|
|
<time>2026-07-12T10:24:02.000Z</time>
|
|
</trkpt>
|
|
<trkpt lat="55.905193" lon="8.156983">
|
|
<ele>2.883982</ele>
|
|
<time>2026-07-12T10:24:03.000Z</time>
|
|
</trkpt>
|
|
<trkpt lat="55.905239" lon="8.156974">
|
|
<ele>2.883804</ele>
|
|
<time>2026-07-12T10:24:04.000Z</time>
|
|
</trkpt>
|
|
<trkpt lat="55.905281" lon="8.156962">
|
|
<ele>2.881839</ele>
|
|
<time>2026-07-12T10:24:05.000Z</time>
|
|
</trkpt>
|
|
<trkpt lat="55.905323" lon="8.156952">
|
|
<ele>2.879882</ele>
|
|
<time>2026-07-12T10:24:06.000Z</time>
|
|
</trkpt>
|
|
<trkpt lat="55.905369" lon="8.156940">
|
|
<ele>2.877735</ele>
|
|
<time>2026-07-12T10:24:07.000Z</time>
|
|
</trkpt>
|
|
<trkpt lat="55.905415" lon="8.156924">
|
|
<ele>2.875570</ele>
|
|
<time>2026-07-12T10:24:08.000Z</time>
|
|
</trkpt>
|
|
<trkpt lat="55.905460" lon="8.156910">
|
|
<ele>2.873460</ele>
|
|
<time>2026-07-12T10:24:09.000Z</time>
|
|
</trkpt>
|
|
<trkpt lat="55.905502" lon="8.156898">
|
|
<ele>2.871495</ele>
|
|
<time>2026-07-12T10:24:10.000Z</time>
|
|
</trkpt>
|
|
<trkpt lat="55.905548" lon="8.156888">
|
|
<ele>2.869354</ele>
|
|
<time>2026-07-12T10:24:11.000Z</time>
|
|
</trkpt>
|
|
<trkpt lat="55.905594" lon="8.156878">
|
|
<ele>2.867213</ele>
|
|
<time>2026-07-12T10:24:12.000Z</time>
|
|
</trkpt>
|
|
<trkpt lat="55.905640" lon="8.156868">
|
|
<ele>2.865073</ele>
|
|
<time>2026-07-12T10:24:13.000Z</time>
|
|
</trkpt>
|
|
<trkpt lat="55.905682" lon="8.156858">
|
|
<ele>2.863116</ele>
|
|
<time>2026-07-12T10:24:14.000Z</time>
|
|
</trkpt>
|
|
<trkpt lat="55.905727" lon="8.156848">
|
|
<ele>2.861021</ele>
|
|
<time>2026-07-12T10:24:15.000Z</time>
|
|
</trkpt>
|
|
<trkpt lat="55.905773" lon="8.156836">
|
|
<ele>2.858873</ele>
|
|
<time>2026-07-12T10:24:16.000Z</time>
|
|
</trkpt>
|
|
<trkpt lat="55.905819" lon="8.156826">
|
|
<ele>2.856733</ele>
|
|
<time>2026-07-12T10:24:17.000Z</time>
|
|
</trkpt>
|
|
<trkpt lat="55.905861" lon="8.156816">
|
|
<ele>2.854775</ele>
|
|
<time>2026-07-12T10:24:18.000Z</time>
|
|
</trkpt>
|
|
<trkpt lat="55.905907" lon="8.156806">
|
|
<ele>2.852635</ele>
|
|
<time>2026-07-12T10:24:19.000Z</time>
|
|
</trkpt>
|
|
<trkpt lat="55.905949" lon="8.156795">
|
|
<ele>2.850674</ele>
|
|
<time>2026-07-12T10:24:20.000Z</time>
|
|
</trkpt>
|
|
<trkpt lat="55.905994" lon="8.156784">
|
|
<ele>2.848576</ele>
|
|
<time>2026-07-12T10:24:21.000Z</time>
|
|
</trkpt>
|
|
<trkpt lat="55.906040" lon="8.156776">
|
|
<ele>2.846441</ele>
|
|
<time>2026-07-12T10:24:22.000Z</time>
|
|
</trkpt>
|
|
<trkpt lat="55.906082" lon="8.156767">
|
|
<ele>2.844487</ele>
|
|
<time>2026-07-12T10:24:23.000Z</time>
|
|
</trkpt>
|
|
<trkpt lat="55.906128" lon="8.156756">
|
|
<ele>2.842343</ele>
|
|
<time>2026-07-12T10:24:24.000Z</time>
|
|
</trkpt>
|
|
<trkpt lat="55.906174" lon="8.156745">
|
|
<ele>2.840199</ele>
|
|
<time>2026-07-12T10:24:25.000Z</time>
|
|
</trkpt>
|
|
<trkpt lat="55.906220" lon="8.156734">
|
|
<ele>2.838055</ele>
|
|
<time>2026-07-12T10:24:26.000Z</time>
|
|
</trkpt>
|
|
<trkpt lat="55.906265" lon="8.156724">
|
|
<ele>2.835960</ele>
|
|
<time>2026-07-12T10:24:27.000Z</time>
|
|
</trkpt>
|
|
<trkpt lat="55.906311" lon="8.156713">
|
|
<ele>2.833816</ele>
|
|
<time>2026-07-12T10:24:28.000Z</time>
|
|
</trkpt>
|
|
<trkpt lat="55.906357" lon="8.156700">
|
|
<ele>2.831665</ele>
|
|
<time>2026-07-12T10:24:29.000Z</time>
|
|
</trkpt>
|
|
<trkpt lat="55.906399" lon="8.156686">
|
|
<ele>2.829691</ele>
|
|
<time>2026-07-12T10:24:30.000Z</time>
|
|
</trkpt>
|
|
<trkpt lat="55.906445" lon="8.156671">
|
|
<ele>2.827531</ele>
|
|
<time>2026-07-12T10:24:31.000Z</time>
|
|
</trkpt>
|
|
<trkpt lat="55.906486" lon="8.156656">
|
|
<ele>2.825598</ele>
|
|
<time>2026-07-12T10:24:32.000Z</time>
|
|
</trkpt>
|
|
<trkpt lat="55.906532" lon="8.156645">
|
|
<ele>2.823454</ele>
|
|
<time>2026-07-12T10:24:33.000Z</time>
|
|
</trkpt>
|
|
<trkpt lat="55.906574" lon="8.156635">
|
|
<ele>2.821496</ele>
|
|
<time>2026-07-12T10:24:34.000Z</time>
|
|
</trkpt>
|
|
<trkpt lat="55.906620" lon="8.156623">
|
|
<ele>2.819349</ele>
|
|
<time>2026-07-12T10:24:35.000Z</time>
|
|
</trkpt>
|
|
<trkpt lat="55.906670" lon="8.156611">
|
|
<ele>2.817018</ele>
|
|
<time>2026-07-12T10:24:36.000Z</time>
|
|
</trkpt>
|
|
<trkpt lat="55.906715" lon="8.156599">
|
|
<ele>2.814917</ele>
|
|
<time>2026-07-12T10:24:37.000Z</time>
|
|
</trkpt>
|
|
<trkpt lat="55.906761" lon="8.156587">
|
|
<ele>2.812769</ele>
|
|
<time>2026-07-12T10:24:38.000Z</time>
|
|
</trkpt>
|
|
<trkpt lat="55.906807" lon="8.156574">
|
|
<ele>2.810618</ele>
|
|
<time>2026-07-12T10:24:39.000Z</time>
|
|
</trkpt>
|
|
<trkpt lat="55.906853" lon="8.156561">
|
|
<ele>2.808466</ele>
|
|
<time>2026-07-12T10:24:40.000Z</time>
|
|
</trkpt>
|
|
<trkpt lat="55.906899" lon="8.156546">
|
|
<ele>2.806306</ele>
|
|
<time>2026-07-12T10:24:41.000Z</time>
|
|
</trkpt>
|
|
<trkpt lat="55.906944" lon="8.156531">
|
|
<ele>2.804192</ele>
|
|
<time>2026-07-12T10:24:42.000Z</time>
|
|
</trkpt>
|
|
<trkpt lat="55.906990" lon="8.156519">
|
|
<ele>2.802044</ele>
|
|
<time>2026-07-12T10:24:43.000Z</time>
|
|
</trkpt>
|
|
<trkpt lat="55.907040" lon="8.156508">
|
|
<ele>2.809302</ele>
|
|
<time>2026-07-12T10:24:44.000Z</time>
|
|
</trkpt>
|
|
<trkpt lat="55.907082" lon="8.156499">
|
|
<ele>2.818110</ele>
|
|
<time>2026-07-12T10:24:45.000Z</time>
|
|
</trkpt>
|
|
<trkpt lat="55.907124" lon="8.156487">
|
|
<ele>2.826967</ele>
|
|
<time>2026-07-12T10:24:46.000Z</time>
|
|
</trkpt>
|
|
<trkpt lat="55.907169" lon="8.156475">
|
|
<ele>2.836441</ele>
|
|
<time>2026-07-12T10:24:47.000Z</time>
|
|
</trkpt>
|
|
<trkpt lat="55.907211" lon="8.156463">
|
|
<ele>2.845298</ele>
|
|
<time>2026-07-12T10:24:48.000Z</time>
|
|
</trkpt>
|
|
<trkpt lat="55.907253" lon="8.156452">
|
|
<ele>2.854137</ele>
|
|
<time>2026-07-12T10:24:49.000Z</time>
|
|
</trkpt>
|
|
<trkpt lat="55.907295" lon="8.156441">
|
|
<ele>2.862976</ele>
|
|
<time>2026-07-12T10:24:50.000Z</time>
|
|
</trkpt>
|
|
<trkpt lat="55.907337" lon="8.156430">
|
|
<ele>2.871815</ele>
|
|
<time>2026-07-12T10:24:51.000Z</time>
|
|
</trkpt>
|
|
<trkpt lat="55.907383" lon="8.156421">
|
|
<ele>2.881450</ele>
|
|
<time>2026-07-12T10:24:52.000Z</time>
|
|
</trkpt>
|
|
<trkpt lat="55.907429" lon="8.156409">
|
|
<ele>2.891130</ele>
|
|
<time>2026-07-12T10:24:53.000Z</time>
|
|
</trkpt>
|
|
<trkpt lat="55.907471" lon="8.156399">
|
|
<ele>2.899953</ele>
|
|
<time>2026-07-12T10:24:54.000Z</time>
|
|
</trkpt>
|
|
<trkpt lat="55.907516" lon="8.156389">
|
|
<ele>2.909395</ele>
|
|
<time>2026-07-12T10:24:55.000Z</time>
|
|
</trkpt>
|
|
<trkpt lat="55.907558" lon="8.156381">
|
|
<ele>2.918190</ele>
|
|
<time>2026-07-12T10:24:56.000Z</time>
|
|
</trkpt>
|
|
<trkpt lat="55.907600" lon="8.156370">
|
|
<ele>2.927030</ele>
|
|
<time>2026-07-12T10:24:57.000Z</time>
|
|
</trkpt>
|
|
<trkpt lat="55.907639" lon="8.156361">
|
|
<ele>2.935218</ele>
|
|
<time>2026-07-12T10:24:58.000Z</time>
|
|
</trkpt>
|
|
<trkpt lat="55.907673" lon="8.156350">
|
|
<ele>2.942413</ele>
|
|
<time>2026-07-12T10:24:59.000Z</time>
|
|
</trkpt>
|
|
<trkpt lat="55.907707" lon="8.156342">
|
|
<ele>2.949554</ele>
|
|
<time>2026-07-12T10:25:00.000Z</time>
|
|
</trkpt>
|
|
<trkpt lat="55.907742" lon="8.156333">
|
|
<ele>2.956917</ele>
|
|
<time>2026-07-12T10:25:01.000Z</time>
|
|
</trkpt>
|
|
<trkpt lat="55.907780" lon="8.156324">
|
|
<ele>2.964898</ele>
|
|
<time>2026-07-12T10:25:02.000Z</time>
|
|
</trkpt>
|
|
<trkpt lat="55.907822" lon="8.156314">
|
|
<ele>2.973721</ele>
|
|
<time>2026-07-12T10:25:03.000Z</time>
|
|
</trkpt>
|
|
<trkpt lat="55.907864" lon="8.156303">
|
|
<ele>2.982560</ele>
|
|
<time>2026-07-12T10:25:04.000Z</time>
|
|
</trkpt>
|
|
<trkpt lat="55.907906" lon="8.156295">
|
|
<ele>2.991355</ele>
|
|
<time>2026-07-12T10:25:05.000Z</time>
|
|
</trkpt>
|
|
<trkpt lat="55.907948" lon="8.156286">
|
|
<ele>3.000163</ele>
|
|
<time>2026-07-12T10:25:06.000Z</time>
|
|
</trkpt>
|
|
<trkpt lat="55.907997" lon="8.156278">
|
|
<ele>3.010409</ele>
|
|
<time>2026-07-12T10:25:07.000Z</time>
|
|
</trkpt>
|
|
<trkpt lat="55.908039" lon="8.156268">
|
|
<ele>3.019232</ele>
|
|
<time>2026-07-12T10:25:08.000Z</time>
|
|
</trkpt>
|
|
<trkpt lat="55.908081" lon="8.156259">
|
|
<ele>3.028040</ele>
|
|
<time>2026-07-12T10:25:09.000Z</time>
|
|
</trkpt>
|
|
<trkpt lat="55.908123" lon="8.156247">
|
|
<ele>3.036897</ele>
|
|
<time>2026-07-12T10:25:10.000Z</time>
|
|
</trkpt>
|
|
<trkpt lat="55.908165" lon="8.156238">
|
|
<ele>3.045705</ele>
|
|
<time>2026-07-12T10:25:11.000Z</time>
|
|
</trkpt>
|
|
<trkpt lat="55.908207" lon="8.156230">
|
|
<ele>3.054500</ele>
|
|
<time>2026-07-12T10:25:12.000Z</time>
|
|
</trkpt>
|
|
<trkpt lat="55.908249" lon="8.156220">
|
|
<ele>3.063323</ele>
|
|
<time>2026-07-12T10:25:13.000Z</time>
|
|
</trkpt>
|
|
<trkpt lat="55.908291" lon="8.156207">
|
|
<ele>3.072199</ele>
|
|
<time>2026-07-12T10:25:14.000Z</time>
|
|
</trkpt>
|
|
<trkpt lat="55.908333" lon="8.156194">
|
|
<ele>3.081074</ele>
|
|
<time>2026-07-12T10:25:15.000Z</time>
|
|
</trkpt>
|
|
<trkpt lat="55.908379" lon="8.156179">
|
|
<ele>3.090811</ele>
|
|
<time>2026-07-12T10:25:16.000Z</time>
|
|
</trkpt>
|
|
<trkpt lat="55.908424" lon="8.156166">
|
|
<ele>3.100303</ele>
|
|
<time>2026-07-12T10:25:17.000Z</time>
|
|
</trkpt>
|
|
<trkpt lat="55.908466" lon="8.156156">
|
|
<ele>3.109126</ele>
|
|
<time>2026-07-12T10:25:18.000Z</time>
|
|
</trkpt>
|
|
<trkpt lat="55.908512" lon="8.156145">
|
|
<ele>3.118790</ele>
|
|
<time>2026-07-12T10:25:19.000Z</time>
|
|
</trkpt>
|
|
<trkpt lat="55.908554" lon="8.156135">
|
|
<ele>3.127613</ele>
|
|
<time>2026-07-12T10:25:20.000Z</time>
|
|
</trkpt>
|
|
<trkpt lat="55.908596" lon="8.156123">
|
|
<ele>3.136470</ele>
|
|
<time>2026-07-12T10:25:21.000Z</time>
|
|
</trkpt>
|
|
<trkpt lat="55.908646" lon="8.156112">
|
|
<ele>3.146959</ele>
|
|
<time>2026-07-12T10:25:22.000Z</time>
|
|
</trkpt>
|
|
<trkpt lat="55.908688" lon="8.156099">
|
|
<ele>3.155835</ele>
|
|
<time>2026-07-12T10:25:23.000Z</time>
|
|
</trkpt>
|
|
<trkpt lat="55.908733" lon="8.156088">
|
|
<ele>3.165293</ele>
|
|
<time>2026-07-12T10:25:24.000Z</time>
|
|
</trkpt>
|
|
<trkpt lat="55.908783" lon="8.156076">
|
|
<ele>3.175798</ele>
|
|
<time>2026-07-12T10:25:25.000Z</time>
|
|
</trkpt>
|
|
<trkpt lat="55.908829" lon="8.156062">
|
|
<ele>3.207288</ele>
|
|
<time>2026-07-12T10:25:26.000Z</time>
|
|
</trkpt>
|
|
<trkpt lat="55.908878" lon="8.156049">
|
|
<ele>3.241143</ele>
|
|
<time>2026-07-12T10:25:27.000Z</time>
|
|
</trkpt>
|
|
<trkpt lat="55.908924" lon="8.156034">
|
|
<ele>3.273099</ele>
|
|
<time>2026-07-12T10:25:28.000Z</time>
|
|
</trkpt>
|
|
<trkpt lat="55.908970" lon="8.156021">
|
|
<ele>3.304927</ele>
|
|
<time>2026-07-12T10:25:29.000Z</time>
|
|
</trkpt>
|
|
<trkpt lat="55.909019" lon="8.156012">
|
|
<ele>3.338591</ele>
|
|
<time>2026-07-12T10:25:30.000Z</time>
|
|
</trkpt>
|
|
<trkpt lat="55.909065" lon="8.156001">
|
|
<ele>3.370308</ele>
|
|
<time>2026-07-12T10:25:31.000Z</time>
|
|
</trkpt>
|
|
<trkpt lat="55.909111" lon="8.155988">
|
|
<ele>3.402136</ele>
|
|
<time>2026-07-12T10:25:32.000Z</time>
|
|
</trkpt>
|
|
<trkpt lat="55.909157" lon="8.155972">
|
|
<ele>3.434163</ele>
|
|
<time>2026-07-12T10:25:33.000Z</time>
|
|
</trkpt>
|
|
<trkpt lat="55.909203" lon="8.155959">
|
|
<ele>3.465991</ele>
|
|
<time>2026-07-12T10:25:34.000Z</time>
|
|
</trkpt>
|
|
<trkpt lat="55.909252" lon="8.155948">
|
|
<ele>3.499742</ele>
|
|
<time>2026-07-12T10:25:35.000Z</time>
|
|
</trkpt>
|
|
<trkpt lat="55.909298" lon="8.155936">
|
|
<ele>3.531512</ele>
|
|
<time>2026-07-12T10:25:36.000Z</time>
|
|
</trkpt>
|
|
<trkpt lat="55.909348" lon="8.155923">
|
|
<ele>3.566043</ele>
|
|
<time>2026-07-12T10:25:37.000Z</time>
|
|
</trkpt>
|
|
<trkpt lat="55.909389" lon="8.155912">
|
|
<ele>3.594377</ele>
|
|
<time>2026-07-12T10:25:38.000Z</time>
|
|
</trkpt>
|
|
<trkpt lat="55.909435" lon="8.155905">
|
|
<ele>3.625927</ele>
|
|
<time>2026-07-12T10:25:39.000Z</time>
|
|
</trkpt>
|
|
<trkpt lat="55.909477" lon="8.155895">
|
|
<ele>3.654884</ele>
|
|
<time>2026-07-12T10:25:40.000Z</time>
|
|
</trkpt>
|
|
<trkpt lat="55.909519" lon="8.155888">
|
|
<ele>3.683711</ele>
|
|
<time>2026-07-12T10:25:41.000Z</time>
|
|
</trkpt>
|
|
<trkpt lat="55.909561" lon="8.155888">
|
|
<ele>3.712414</ele>
|
|
<time>2026-07-12T10:25:42.000Z</time>
|
|
</trkpt>
|
|
<trkpt lat="55.909603" lon="8.155901">
|
|
<ele>3.741545</ele>
|
|
<time>2026-07-12T10:25:43.000Z</time>
|
|
</trkpt>
|
|
<trkpt lat="55.909645" lon="8.155930">
|
|
<ele>3.772322</ele>
|
|
<time>2026-07-12T10:25:44.000Z</time>
|
|
</trkpt>
|
|
<trkpt lat="55.909679" lon="8.155972">
|
|
<ele>3.800583</ele>
|
|
<time>2026-07-12T10:25:45.000Z</time>
|
|
</trkpt>
|
|
<trkpt lat="55.909718" lon="8.156022">
|
|
<ele>3.833403</ele>
|
|
<time>2026-07-12T10:25:46.000Z</time>
|
|
</trkpt>
|
|
<trkpt lat="55.909756" lon="8.156073">
|
|
<ele>3.865899</ele>
|
|
<time>2026-07-12T10:25:47.000Z</time>
|
|
</trkpt>
|
|
<trkpt lat="55.909794" lon="8.156117">
|
|
<ele>3.896858</ele>
|
|
<time>2026-07-12T10:25:48.000Z</time>
|
|
</trkpt>
|
|
<trkpt lat="55.909832" lon="8.156157">
|
|
<ele>3.927009</ele>
|
|
<time>2026-07-12T10:25:49.000Z</time>
|
|
</trkpt>
|
|
<trkpt lat="55.909874" lon="8.156189">
|
|
<ele>3.958219</ele>
|
|
<time>2026-07-12T10:25:50.000Z</time>
|
|
</trkpt>
|
|
<trkpt lat="55.909912" lon="8.156212">
|
|
<ele>3.985642</ele>
|
|
<time>2026-07-12T10:25:51.000Z</time>
|
|
</trkpt>
|
|
<trkpt lat="55.909954" lon="8.156231">
|
|
<ele>4.015253</ele>
|
|
<time>2026-07-12T10:25:52.000Z</time>
|
|
</trkpt>
|
|
<trkpt lat="55.910000" lon="8.156249">
|
|
<ele>4.047436</ele>
|
|
<time>2026-07-12T10:25:53.000Z</time>
|
|
</trkpt>
|
|
<trkpt lat="55.910046" lon="8.156264">
|
|
<ele>4.079393</ele>
|
|
<time>2026-07-12T10:25:54.000Z</time>
|
|
</trkpt>
|
|
<trkpt lat="55.910088" lon="8.156279">
|
|
<ele>4.108665</ele>
|
|
<time>2026-07-12T10:25:55.000Z</time>
|
|
</trkpt>
|
|
<trkpt lat="55.910130" lon="8.156295">
|
|
<ele>4.138014</ele>
|
|
<time>2026-07-12T10:25:56.000Z</time>
|
|
</trkpt>
|
|
<trkpt lat="55.910171" lon="8.156310">
|
|
<ele>4.166616</ele>
|
|
<time>2026-07-12T10:25:57.000Z</time>
|
|
</trkpt>
|
|
<trkpt lat="55.910206" lon="8.156322">
|
|
<ele>4.190972</ele>
|
|
<time>2026-07-12T10:25:58.000Z</time>
|
|
</trkpt>
|
|
<trkpt lat="55.910240" lon="8.156331">
|
|
<ele>4.214462</ele>
|
|
<time>2026-07-12T10:25:59.000Z</time>
|
|
</trkpt>
|
|
<trkpt lat="55.910271" lon="8.156342">
|
|
<ele>4.236062</ele>
|
|
<time>2026-07-12T10:26:00.000Z</time>
|
|
</trkpt>
|
|
<trkpt lat="55.910301" lon="8.156353">
|
|
<ele>4.256992</ele>
|
|
<time>2026-07-12T10:26:01.000Z</time>
|
|
</trkpt>
|
|
<trkpt lat="55.910328" lon="8.156364">
|
|
<ele>4.275919</ele>
|
|
<time>2026-07-12T10:26:02.000Z</time>
|
|
</trkpt>
|
|
<trkpt lat="55.910358" lon="8.156378">
|
|
<ele>4.297110</ele>
|
|
<time>2026-07-12T10:26:03.000Z</time>
|
|
</trkpt>
|
|
<trkpt lat="55.910393" lon="8.156396">
|
|
<ele>4.322003</ele>
|
|
<time>2026-07-12T10:26:04.000Z</time>
|
|
</trkpt>
|
|
<trkpt lat="55.910431" lon="8.156421">
|
|
<ele>4.349681</ele>
|
|
<time>2026-07-12T10:26:05.000Z</time>
|
|
</trkpt>
|
|
<trkpt lat="55.910465" lon="8.156453">
|
|
<ele>4.375951</ele>
|
|
<time>2026-07-12T10:26:06.000Z</time>
|
|
</trkpt>
|
|
<trkpt lat="55.910500" lon="8.156490">
|
|
<ele>4.403753</ele>
|
|
<time>2026-07-12T10:26:07.000Z</time>
|
|
</trkpt>
|
|
<trkpt lat="55.910534" lon="8.156528">
|
|
<ele>4.400018</ele>
|
|
<time>2026-07-12T10:26:08.000Z</time>
|
|
</trkpt>
|
|
<trkpt lat="55.910568" lon="8.156562">
|
|
<ele>4.394764</ele>
|
|
<time>2026-07-12T10:26:09.000Z</time>
|
|
</trkpt>
|
|
<trkpt lat="55.910599" lon="8.156598">
|
|
<ele>4.389777</ele>
|
|
<time>2026-07-12T10:26:10.000Z</time>
|
|
</trkpt>
|
|
<trkpt lat="55.910633" lon="8.156632">
|
|
<ele>4.384523</ele>
|
|
<time>2026-07-12T10:26:11.000Z</time>
|
|
</trkpt>
|
|
<trkpt lat="55.910664" lon="8.156666">
|
|
<ele>4.379617</ele>
|
|
<time>2026-07-12T10:26:12.000Z</time>
|
|
</trkpt>
|
|
<trkpt lat="55.910694" lon="8.156697">
|
|
<ele>4.374944</ele>
|
|
<time>2026-07-12T10:26:13.000Z</time>
|
|
</trkpt>
|
|
<trkpt lat="55.910725" lon="8.156726">
|
|
<ele>4.370225</ele>
|
|
<time>2026-07-12T10:26:14.000Z</time>
|
|
</trkpt>
|
|
<trkpt lat="55.910751" lon="8.156753">
|
|
<ele>4.366170</ele>
|
|
<time>2026-07-12T10:26:15.000Z</time>
|
|
</trkpt>
|
|
<trkpt lat="55.910774" lon="8.156777">
|
|
<ele>4.362578</ele>
|
|
<time>2026-07-12T10:26:16.000Z</time>
|
|
</trkpt>
|
|
<trkpt lat="55.910797" lon="8.156800">
|
|
<ele>4.359023</ele>
|
|
<time>2026-07-12T10:26:17.000Z</time>
|
|
</trkpt>
|
|
<trkpt lat="55.910816" lon="8.156821">
|
|
<ele>4.356010</ele>
|
|
<time>2026-07-12T10:26:18.000Z</time>
|
|
</trkpt>
|
|
<trkpt lat="55.910835" lon="8.156841">
|
|
<ele>4.353036</ele>
|
|
<time>2026-07-12T10:26:19.000Z</time>
|
|
</trkpt>
|
|
<trkpt lat="55.910854" lon="8.156861">
|
|
<ele>4.350062</ele>
|
|
<time>2026-07-12T10:26:20.000Z</time>
|
|
</trkpt>
|
|
<trkpt lat="55.910873" lon="8.156882">
|
|
<ele>4.347049</ele>
|
|
<time>2026-07-12T10:26:21.000Z</time>
|
|
</trkpt>
|
|
<trkpt lat="55.910893" lon="8.156905">
|
|
<ele>4.343842</ele>
|
|
<time>2026-07-12T10:26:22.000Z</time>
|
|
</trkpt>
|
|
<trkpt lat="55.910908" lon="8.156929">
|
|
<ele>4.341126</ele>
|
|
<time>2026-07-12T10:26:23.000Z</time>
|
|
</trkpt>
|
|
<trkpt lat="55.910919" lon="8.156956">
|
|
<ele>4.338604</ele>
|
|
<time>2026-07-12T10:26:24.000Z</time>
|
|
</trkpt>
|
|
<trkpt lat="55.910931" lon="8.156984">
|
|
<ele>4.335940</ele>
|
|
<time>2026-07-12T10:26:25.000Z</time>
|
|
</trkpt>
|
|
<trkpt lat="55.910942" lon="8.157015">
|
|
<ele>4.333168</ele>
|
|
<time>2026-07-12T10:26:26.000Z</time>
|
|
</trkpt>
|
|
<trkpt lat="55.910950" lon="8.157049">
|
|
<ele>4.330382</ele>
|
|
<time>2026-07-12T10:26:27.000Z</time>
|
|
</trkpt>
|
|
<trkpt lat="55.910954" lon="8.157086">
|
|
<ele>4.327535</ele>
|
|
<time>2026-07-12T10:26:28.000Z</time>
|
|
</trkpt>
|
|
<trkpt lat="55.910954" lon="8.157126">
|
|
<ele>4.324512</ele>
|
|
<time>2026-07-12T10:26:29.000Z</time>
|
|
</trkpt>
|
|
<trkpt lat="55.910957" lon="8.157170">
|
|
<ele>4.321163</ele>
|
|
<time>2026-07-12T10:26:30.000Z</time>
|
|
</trkpt>
|
|
<trkpt lat="55.910961" lon="8.157219">
|
|
<ele>4.317422</ele>
|
|
<time>2026-07-12T10:26:31.000Z</time>
|
|
</trkpt>
|
|
<trkpt lat="55.910961" lon="8.157271">
|
|
<ele>4.313493</ele>
|
|
<time>2026-07-12T10:26:32.000Z</time>
|
|
</trkpt>
|
|
<trkpt lat="55.910965" lon="8.157331">
|
|
<ele>4.308928</ele>
|
|
<time>2026-07-12T10:26:33.000Z</time>
|
|
</trkpt>
|
|
<trkpt lat="55.910965" lon="8.157394">
|
|
<ele>4.304167</ele>
|
|
<time>2026-07-12T10:26:34.000Z</time>
|
|
</trkpt>
|
|
<trkpt lat="55.910965" lon="8.157464">
|
|
<ele>4.298878</ele>
|
|
<time>2026-07-12T10:26:35.000Z</time>
|
|
</trkpt>
|
|
<trkpt lat="55.910969" lon="8.157538">
|
|
<ele>4.293261</ele>
|
|
<time>2026-07-12T10:26:36.000Z</time>
|
|
</trkpt>
|
|
<trkpt lat="55.910973" lon="8.157617">
|
|
<ele>4.287268</ele>
|
|
<time>2026-07-12T10:26:37.000Z</time>
|
|
</trkpt>
|
|
<trkpt lat="55.910980" lon="8.157696">
|
|
<ele>4.281225</ele>
|
|
<time>2026-07-12T10:26:38.000Z</time>
|
|
</trkpt>
|
|
<trkpt lat="55.910988" lon="8.157779">
|
|
<ele>4.274861</ele>
|
|
<time>2026-07-12T10:26:39.000Z</time>
|
|
</trkpt>
|
|
<trkpt lat="55.910992" lon="8.157868">
|
|
<ele>4.268115</ele>
|
|
<time>2026-07-12T10:26:40.000Z</time>
|
|
</trkpt>
|
|
<trkpt lat="55.910999" lon="8.157966">
|
|
<ele>4.260651</ele>
|
|
<time>2026-07-12T10:26:41.000Z</time>
|
|
</trkpt>
|
|
<trkpt lat="55.911003" lon="8.158071">
|
|
<ele>4.252699</ele>
|
|
<time>2026-07-12T10:26:42.000Z</time>
|
|
</trkpt>
|
|
<trkpt lat="55.911007" lon="8.158180">
|
|
<ele>4.244445</ele>
|
|
<time>2026-07-12T10:26:43.000Z</time>
|
|
</trkpt>
|
|
<trkpt lat="55.911011" lon="8.158289">
|
|
<ele>4.236192</ele>
|
|
<time>2026-07-12T10:26:44.000Z</time>
|
|
</trkpt>
|
|
<trkpt lat="55.911018" lon="8.158393">
|
|
<ele>4.228277</ele>
|
|
<time>2026-07-12T10:26:45.000Z</time>
|
|
</trkpt>
|
|
<trkpt lat="55.911034" lon="8.158485">
|
|
<ele>4.220999</ele>
|
|
<time>2026-07-12T10:26:46.000Z</time>
|
|
</trkpt>
|
|
<trkpt lat="55.911060" lon="8.158558">
|
|
<ele>4.214464</ele>
|
|
<time>2026-07-12T10:26:47.000Z</time>
|
|
</trkpt>
|
|
<trkpt lat="55.911095" lon="8.158603">
|
|
<ele>4.208648</ele>
|
|
<time>2026-07-12T10:26:48.000Z</time>
|
|
</trkpt>
|
|
<trkpt lat="55.911137" lon="8.158622">
|
|
<ele>4.202807</ele>
|
|
<time>2026-07-12T10:26:49.000Z</time>
|
|
</trkpt>
|
|
<trkpt lat="55.911182" lon="8.158612">
|
|
<ele>4.196694</ele>
|
|
<time>2026-07-12T10:26:50.000Z</time>
|
|
</trkpt>
|
|
<trkpt lat="55.911232" lon="8.158572">
|
|
<ele>4.189307</ele>
|
|
<time>2026-07-12T10:26:51.000Z</time>
|
|
</trkpt>
|
|
<trkpt lat="55.911282" lon="8.158522">
|
|
<ele>4.181580</ele>
|
|
<time>2026-07-12T10:26:52.000Z</time>
|
|
</trkpt>
|
|
<trkpt lat="55.911331" lon="8.158481">
|
|
<ele>4.174284</ele>
|
|
<time>2026-07-12T10:26:53.000Z</time>
|
|
</trkpt>
|
|
<trkpt lat="55.911385" lon="8.158463">
|
|
<ele>4.166878</ele>
|
|
<time>2026-07-12T10:26:54.000Z</time>
|
|
</trkpt>
|
|
<trkpt lat="55.911442" lon="8.158462">
|
|
<ele>4.144211</ele>
|
|
<time>2026-07-12T10:26:55.000Z</time>
|
|
</trkpt>
|
|
<trkpt lat="55.911499" lon="8.158469">
|
|
<ele>4.103388</ele>
|
|
<time>2026-07-12T10:26:56.000Z</time>
|
|
</trkpt>
|
|
<trkpt lat="55.911556" lon="8.158476">
|
|
<ele>4.062564</ele>
|
|
<time>2026-07-12T10:26:57.000Z</time>
|
|
</trkpt>
|
|
<trkpt lat="55.911610" lon="8.158484">
|
|
<ele>4.023847</ele>
|
|
<time>2026-07-12T10:26:58.000Z</time>
|
|
</trkpt>
|
|
<trkpt lat="55.911655" lon="8.158495">
|
|
<ele>3.991394</ele>
|
|
<time>2026-07-12T10:26:59.000Z</time>
|
|
</trkpt>
|
|
<trkpt lat="55.911697" lon="8.158510">
|
|
<ele>3.960789</ele>
|
|
<time>2026-07-12T10:27:00.000Z</time>
|
|
</trkpt>
|
|
<trkpt lat="55.911736" lon="8.158532">
|
|
<ele>3.931563</ele>
|
|
<time>2026-07-12T10:27:01.000Z</time>
|
|
</trkpt>
|
|
<trkpt lat="55.911781" lon="8.158564">
|
|
<ele>3.896950</ele>
|
|
<time>2026-07-12T10:27:02.000Z</time>
|
|
</trkpt>
|
|
<trkpt lat="55.911827" lon="8.158597">
|
|
<ele>3.861525</ele>
|
|
<time>2026-07-12T10:27:03.000Z</time>
|
|
</trkpt>
|
|
<trkpt lat="55.911873" lon="8.158631">
|
|
<ele>3.825949</ele>
|
|
<time>2026-07-12T10:27:04.000Z</time>
|
|
</trkpt>
|
|
<trkpt lat="55.911919" lon="8.158666">
|
|
<ele>3.790217</ele>
|
|
<time>2026-07-12T10:27:05.000Z</time>
|
|
</trkpt>
|
|
<trkpt lat="55.911961" lon="8.158703">
|
|
<ele>3.756749</ele>
|
|
<time>2026-07-12T10:27:06.000Z</time>
|
|
</trkpt>
|
|
<trkpt lat="55.912006" lon="8.158748">
|
|
<ele>3.719890</ele>
|
|
<time>2026-07-12T10:27:07.000Z</time>
|
|
</trkpt>
|
|
<trkpt lat="55.912052" lon="8.158801">
|
|
<ele>3.680765</ele>
|
|
<time>2026-07-12T10:27:08.000Z</time>
|
|
</trkpt>
|
|
<trkpt lat="55.912094" lon="8.158858">
|
|
<ele>3.643061</ele>
|
|
<time>2026-07-12T10:27:09.000Z</time>
|
|
</trkpt>
|
|
<trkpt lat="55.912136" lon="8.158920">
|
|
<ele>3.604112</ele>
|
|
<time>2026-07-12T10:27:10.000Z</time>
|
|
</trkpt>
|
|
<trkpt lat="55.912178" lon="8.158987">
|
|
<ele>3.563857</ele>
|
|
<time>2026-07-12T10:27:11.000Z</time>
|
|
</trkpt>
|
|
<trkpt lat="55.912216" lon="8.159057">
|
|
<ele>3.524831</ele>
|
|
<time>2026-07-12T10:27:12.000Z</time>
|
|
</trkpt>
|
|
<trkpt lat="55.912254" lon="8.159129">
|
|
<ele>3.485226</ele>
|
|
<time>2026-07-12T10:27:13.000Z</time>
|
|
</trkpt>
|
|
<trkpt lat="55.912289" lon="8.159199">
|
|
<ele>3.447660</ele>
|
|
<time>2026-07-12T10:27:14.000Z</time>
|
|
</trkpt>
|
|
<trkpt lat="55.912323" lon="8.159265">
|
|
<ele>3.411761</ele>
|
|
<time>2026-07-12T10:27:15.000Z</time>
|
|
</trkpt>
|
|
<trkpt lat="55.912357" lon="8.159330">
|
|
<ele>3.376156</ele>
|
|
<time>2026-07-12T10:27:16.000Z</time>
|
|
</trkpt>
|
|
<trkpt lat="55.912392" lon="8.159397">
|
|
<ele>3.339478</ele>
|
|
<time>2026-07-12T10:27:17.000Z</time>
|
|
</trkpt>
|
|
<trkpt lat="55.912422" lon="8.159467">
|
|
<ele>3.304190</ele>
|
|
<time>2026-07-12T10:27:18.000Z</time>
|
|
</trkpt>
|
|
<trkpt lat="55.912456" lon="8.159535">
|
|
<ele>3.267697</ele>
|
|
<time>2026-07-12T10:27:19.000Z</time>
|
|
</trkpt>
|
|
<trkpt lat="55.912483" lon="8.159604">
|
|
<ele>3.233997</ele>
|
|
<time>2026-07-12T10:27:20.000Z</time>
|
|
</trkpt>
|
|
<trkpt lat="55.912510" lon="8.159676">
|
|
<ele>3.199305</ele>
|
|
<time>2026-07-12T10:27:21.000Z</time>
|
|
</trkpt>
|
|
<trkpt lat="55.912537" lon="8.159747">
|
|
<ele>3.164946</ele>
|
|
<time>2026-07-12T10:27:22.000Z</time>
|
|
</trkpt>
|
|
<trkpt lat="55.912563" lon="8.159817">
|
|
<ele>3.131317</ele>
|
|
<time>2026-07-12T10:27:23.000Z</time>
|
|
</trkpt>
|
|
<trkpt lat="55.912601" lon="8.159876">
|
|
<ele>3.095325</ele>
|
|
<time>2026-07-12T10:27:24.000Z</time>
|
|
</trkpt>
|
|
<trkpt lat="55.912643" lon="8.159920">
|
|
<ele>3.060525</ele>
|
|
<time>2026-07-12T10:27:25.000Z</time>
|
|
</trkpt>
|
|
<trkpt lat="55.912689" lon="8.159950">
|
|
<ele>3.025530</ele>
|
|
<time>2026-07-12T10:27:26.000Z</time>
|
|
</trkpt>
|
|
<trkpt lat="55.912735" lon="8.159975">
|
|
<ele>2.991172</ele>
|
|
<time>2026-07-12T10:27:27.000Z</time>
|
|
</trkpt>
|
|
<trkpt lat="55.912785" lon="8.160001">
|
|
<ele>2.953960</ele>
|
|
<time>2026-07-12T10:27:28.000Z</time>
|
|
</trkpt>
|
|
<trkpt lat="55.912830" lon="8.160028">
|
|
<ele>2.920037</ele>
|
|
<time>2026-07-12T10:27:29.000Z</time>
|
|
</trkpt>
|
|
<trkpt lat="55.912880" lon="8.160054">
|
|
<ele>2.882825</ele>
|
|
<time>2026-07-12T10:27:30.000Z</time>
|
|
</trkpt>
|
|
<trkpt lat="55.912922" lon="8.160078">
|
|
<ele>2.863795</ele>
|
|
<time>2026-07-12T10:27:31.000Z</time>
|
|
</trkpt>
|
|
<trkpt lat="55.912964" lon="8.160098">
|
|
<ele>2.847529</ele>
|
|
<time>2026-07-12T10:27:32.000Z</time>
|
|
</trkpt>
|
|
<trkpt lat="55.913006" lon="8.160110">
|
|
<ele>2.831612</ele>
|
|
<time>2026-07-12T10:27:33.000Z</time>
|
|
</trkpt>
|
|
<trkpt lat="55.913044" lon="8.160118">
|
|
<ele>2.817294</ele>
|
|
<time>2026-07-12T10:27:34.000Z</time>
|
|
</trkpt>
|
|
<trkpt lat="55.913082" lon="8.160125">
|
|
<ele>2.802999</ele>
|
|
<time>2026-07-12T10:27:35.000Z</time>
|
|
</trkpt>
|
|
<trkpt lat="55.913128" lon="8.160133">
|
|
<ele>2.785704</ele>
|
|
<time>2026-07-12T10:27:36.000Z</time>
|
|
</trkpt>
|
|
<trkpt lat="55.913174" lon="8.160146">
|
|
<ele>2.768276</ele>
|
|
<time>2026-07-12T10:27:37.000Z</time>
|
|
</trkpt>
|
|
<trkpt lat="55.913227" lon="8.160161">
|
|
<ele>2.748195</ele>
|
|
<time>2026-07-12T10:27:38.000Z</time>
|
|
</trkpt>
|
|
<trkpt lat="55.913281" lon="8.160176">
|
|
<ele>2.727745</ele>
|
|
<time>2026-07-12T10:27:39.000Z</time>
|
|
</trkpt>
|
|
<trkpt lat="55.913338" lon="8.160189">
|
|
<ele>2.706242</ele>
|
|
<time>2026-07-12T10:27:40.000Z</time>
|
|
</trkpt>
|
|
<trkpt lat="55.913391" lon="8.160204">
|
|
<ele>2.686161</ele>
|
|
<time>2026-07-12T10:27:41.000Z</time>
|
|
</trkpt>
|
|
<trkpt lat="55.913445" lon="8.160225">
|
|
<ele>2.665480</ele>
|
|
<time>2026-07-12T10:27:42.000Z</time>
|
|
</trkpt>
|
|
<trkpt lat="55.913498" lon="8.160250">
|
|
<ele>2.644966</ele>
|
|
<time>2026-07-12T10:27:43.000Z</time>
|
|
</trkpt>
|
|
<trkpt lat="55.913551" lon="8.160279">
|
|
<ele>2.624222</ele>
|
|
<time>2026-07-12T10:27:44.000Z</time>
|
|
</trkpt>
|
|
<trkpt lat="55.913601" lon="8.160316">
|
|
<ele>2.603967</ele>
|
|
<time>2026-07-12T10:27:45.000Z</time>
|
|
</trkpt>
|
|
<trkpt lat="55.913650" lon="8.160361">
|
|
<ele>2.583344</ele>
|
|
<time>2026-07-12T10:27:46.000Z</time>
|
|
</trkpt>
|
|
<trkpt lat="55.913692" lon="8.160419">
|
|
<ele>2.563471</ele>
|
|
<time>2026-07-12T10:27:47.000Z</time>
|
|
</trkpt>
|
|
<trkpt lat="55.913727" lon="8.160485">
|
|
<ele>2.544415</ele>
|
|
<time>2026-07-12T10:27:48.000Z</time>
|
|
</trkpt>
|
|
<trkpt lat="55.913757" lon="8.160563">
|
|
<ele>2.524576</ele>
|
|
<time>2026-07-12T10:27:49.000Z</time>
|
|
</trkpt>
|
|
<trkpt lat="55.913784" lon="8.160648">
|
|
<ele>2.504086</ele>
|
|
<time>2026-07-12T10:27:50.000Z</time>
|
|
</trkpt>
|
|
<trkpt lat="55.913811" lon="8.160734">
|
|
<ele>2.483413</ele>
|
|
<time>2026-07-12T10:27:51.000Z</time>
|
|
</trkpt>
|
|
<trkpt lat="55.913837" lon="8.160822">
|
|
<ele>2.462550</ele>
|
|
<time>2026-07-12T10:27:52.000Z</time>
|
|
</trkpt>
|
|
<trkpt lat="55.913860" lon="8.160910">
|
|
<ele>2.442187</ele>
|
|
<time>2026-07-12T10:27:53.000Z</time>
|
|
</trkpt>
|
|
<trkpt lat="55.913879" lon="8.161001">
|
|
<ele>2.421821</ele>
|
|
<time>2026-07-12T10:27:54.000Z</time>
|
|
</trkpt>
|
|
<trkpt lat="55.913895" lon="8.161094">
|
|
<ele>2.401419</ele>
|
|
<time>2026-07-12T10:27:55.000Z</time>
|
|
</trkpt>
|
|
<trkpt lat="55.913906" lon="8.161186">
|
|
<ele>2.381691</ele>
|
|
<time>2026-07-12T10:27:56.000Z</time>
|
|
</trkpt>
|
|
<trkpt lat="55.913910" lon="8.161280">
|
|
<ele>2.361921</ele>
|
|
<time>2026-07-12T10:27:57.000Z</time>
|
|
</trkpt>
|
|
<trkpt lat="55.913914" lon="8.161376">
|
|
<ele>2.341733</ele>
|
|
<time>2026-07-12T10:27:58.000Z</time>
|
|
</trkpt>
|
|
<trkpt lat="55.913918" lon="8.161471">
|
|
<ele>2.321753</ele>
|
|
<time>2026-07-12T10:27:59.000Z</time>
|
|
</trkpt>
|
|
<trkpt lat="55.913921" lon="8.161567">
|
|
<ele>2.301589</ele>
|
|
<time>2026-07-12T10:28:00.000Z</time>
|
|
</trkpt>
|
|
<trkpt lat="55.913929" lon="8.161660">
|
|
<ele>2.281857</ele>
|
|
<time>2026-07-12T10:28:01.000Z</time>
|
|
</trkpt>
|
|
<trkpt lat="55.913944" lon="8.161748">
|
|
<ele>2.262567</ele>
|
|
<time>2026-07-12T10:28:02.000Z</time>
|
|
</trkpt>
|
|
<trkpt lat="55.913963" lon="8.161832">
|
|
<ele>2.243571</ele>
|
|
<time>2026-07-12T10:28:03.000Z</time>
|
|
</trkpt>
|
|
<trkpt lat="55.913990" lon="8.161905">
|
|
<ele>2.225228</ele>
|
|
<time>2026-07-12T10:28:04.000Z</time>
|
|
</trkpt>
|
|
<trkpt lat="55.914024" lon="8.161970">
|
|
<ele>2.206581</ele>
|
|
<time>2026-07-12T10:28:05.000Z</time>
|
|
</trkpt>
|
|
<trkpt lat="55.914063" lon="8.162032">
|
|
<ele>2.207710</ele>
|
|
<time>2026-07-12T10:28:06.000Z</time>
|
|
</trkpt>
|
|
<trkpt lat="55.914101" lon="8.162093">
|
|
<ele>2.211272</ele>
|
|
<time>2026-07-12T10:28:07.000Z</time>
|
|
</trkpt>
|
|
<trkpt lat="55.914139" lon="8.162157">
|
|
<ele>2.214914</ele>
|
|
<time>2026-07-12T10:28:08.000Z</time>
|
|
</trkpt>
|
|
<trkpt lat="55.914173" lon="8.162225">
|
|
<ele>2.218473</ele>
|
|
<time>2026-07-12T10:28:09.000Z</time>
|
|
</trkpt>
|
|
<trkpt lat="55.914207" lon="8.162296">
|
|
<ele>2.222120</ele>
|
|
<time>2026-07-12T10:28:10.000Z</time>
|
|
</trkpt>
|
|
<trkpt lat="55.914238" lon="8.162375">
|
|
<ele>2.225886</ele>
|
|
<time>2026-07-12T10:28:11.000Z</time>
|
|
</trkpt>
|
|
<trkpt lat="55.914265" lon="8.162457">
|
|
<ele>2.229601</ele>
|
|
<time>2026-07-12T10:28:12.000Z</time>
|
|
</trkpt>
|
|
<trkpt lat="55.914284" lon="8.162545">
|
|
<ele>2.233284</ele>
|
|
<time>2026-07-12T10:28:13.000Z</time>
|
|
</trkpt>
|
|
<trkpt lat="55.914303" lon="8.162635">
|
|
<ele>2.237040</ele>
|
|
<time>2026-07-12T10:28:14.000Z</time>
|
|
</trkpt>
|
|
<trkpt lat="55.914322" lon="8.162724">
|
|
<ele>2.240759</ele>
|
|
<time>2026-07-12T10:28:15.000Z</time>
|
|
</trkpt>
|
|
<trkpt lat="55.914337" lon="8.162812">
|
|
<ele>2.244352</ele>
|
|
<time>2026-07-12T10:28:16.000Z</time>
|
|
</trkpt>
|
|
<trkpt lat="55.914352" lon="8.162899">
|
|
<ele>2.247907</ele>
|
|
<time>2026-07-12T10:28:17.000Z</time>
|
|
</trkpt>
|
|
<trkpt lat="55.914371" lon="8.162984">
|
|
<ele>2.251481</ele>
|
|
<time>2026-07-12T10:28:18.000Z</time>
|
|
</trkpt>
|
|
<trkpt lat="55.914394" lon="8.163068">
|
|
<ele>2.255132</ele>
|
|
<time>2026-07-12T10:28:19.000Z</time>
|
|
</trkpt>
|
|
<trkpt lat="55.914421" lon="8.163146">
|
|
<ele>2.258712</ele>
|
|
<time>2026-07-12T10:28:20.000Z</time>
|
|
</trkpt>
|
|
<trkpt lat="55.914448" lon="8.163225">
|
|
<ele>2.262326</ele>
|
|
<time>2026-07-12T10:28:21.000Z</time>
|
|
</trkpt>
|
|
<trkpt lat="55.914478" lon="8.163301">
|
|
<ele>2.265956</ele>
|
|
<time>2026-07-12T10:28:22.000Z</time>
|
|
</trkpt>
|
|
<trkpt lat="55.914509" lon="8.163373">
|
|
<ele>2.269502</ele>
|
|
<time>2026-07-12T10:28:23.000Z</time>
|
|
</trkpt>
|
|
<trkpt lat="55.914547" lon="8.163439">
|
|
<ele>2.273198</ele>
|
|
<time>2026-07-12T10:28:24.000Z</time>
|
|
</trkpt>
|
|
<trkpt lat="55.914585" lon="8.163500">
|
|
<ele>2.276760</ele>
|
|
<time>2026-07-12T10:28:25.000Z</time>
|
|
</trkpt>
|
|
<trkpt lat="55.914627" lon="8.163557">
|
|
<ele>2.280437</ele>
|
|
<time>2026-07-12T10:28:26.000Z</time>
|
|
</trkpt>
|
|
<trkpt lat="55.914673" lon="8.163607">
|
|
<ele>2.284191</ele>
|
|
<time>2026-07-12T10:28:27.000Z</time>
|
|
</trkpt>
|
|
<trkpt lat="55.914719" lon="8.163648">
|
|
<ele>2.287774</ele>
|
|
<time>2026-07-12T10:28:28.000Z</time>
|
|
</trkpt>
|
|
<trkpt lat="55.914772" lon="8.163681">
|
|
<ele>2.291686</ele>
|
|
<time>2026-07-12T10:28:29.000Z</time>
|
|
</trkpt>
|
|
<trkpt lat="55.914822" lon="8.163708">
|
|
<ele>2.295326</ele>
|
|
<time>2026-07-12T10:28:30.000Z</time>
|
|
</trkpt>
|
|
<trkpt lat="55.914871" lon="8.163732">
|
|
<ele>2.298867</ele>
|
|
<time>2026-07-12T10:28:31.000Z</time>
|
|
</trkpt>
|
|
<trkpt lat="55.914925" lon="8.163753">
|
|
<ele>2.302718</ele>
|
|
<time>2026-07-12T10:28:32.000Z</time>
|
|
</trkpt>
|
|
<trkpt lat="55.914974" lon="8.163773">
|
|
<ele>2.306221</ele>
|
|
<time>2026-07-12T10:28:33.000Z</time>
|
|
</trkpt>
|
|
<trkpt lat="55.915020" lon="8.163792">
|
|
<ele>2.309512</ele>
|
|
<time>2026-07-12T10:28:34.000Z</time>
|
|
</trkpt>
|
|
<trkpt lat="55.915070" lon="8.163807">
|
|
<ele>2.313045</ele>
|
|
<time>2026-07-12T10:28:35.000Z</time>
|
|
</trkpt>
|
|
<trkpt lat="55.915115" lon="8.163818">
|
|
<ele>2.316210</ele>
|
|
<time>2026-07-12T10:28:36.000Z</time>
|
|
</trkpt>
|
|
<trkpt lat="55.915157" lon="8.163828">
|
|
<ele>2.319163</ele>
|
|
<time>2026-07-12T10:28:37.000Z</time>
|
|
</trkpt>
|
|
<trkpt lat="55.915199" lon="8.163840">
|
|
<ele>2.322127</ele>
|
|
<time>2026-07-12T10:28:38.000Z</time>
|
|
</trkpt>
|
|
<trkpt lat="55.915241" lon="8.163853">
|
|
<ele>2.325098</ele>
|
|
<time>2026-07-12T10:28:39.000Z</time>
|
|
</trkpt>
|
|
<trkpt lat="55.915279" lon="8.163860">
|
|
<ele>2.327760</ele>
|
|
<time>2026-07-12T10:28:40.000Z</time>
|
|
</trkpt>
|
|
<trkpt lat="55.915318" lon="8.163860">
|
|
<ele>2.328198</ele>
|
|
<time>2026-07-12T10:28:41.000Z</time>
|
|
</trkpt>
|
|
<trkpt lat="55.915359" lon="8.163849">
|
|
<ele>2.321276</ele>
|
|
<time>2026-07-12T10:28:42.000Z</time>
|
|
</trkpt>
|
|
<trkpt lat="55.915401" lon="8.163834">
|
|
<ele>2.314125</ele>
|
|
<time>2026-07-12T10:28:43.000Z</time>
|
|
</trkpt>
|
|
<trkpt lat="55.915447" lon="8.163816">
|
|
<ele>2.306263</ele>
|
|
<time>2026-07-12T10:28:44.000Z</time>
|
|
</trkpt>
|
|
<trkpt lat="55.915493" lon="8.163794">
|
|
<ele>2.298312</ele>
|
|
<time>2026-07-12T10:28:45.000Z</time>
|
|
</trkpt>
|
|
<trkpt lat="55.915539" lon="8.163774">
|
|
<ele>2.290407</ele>
|
|
<time>2026-07-12T10:28:46.000Z</time>
|
|
</trkpt>
|
|
<trkpt lat="55.915585" lon="8.163755">
|
|
<ele>2.282525</ele>
|
|
<time>2026-07-12T10:28:47.000Z</time>
|
|
</trkpt>
|
|
<trkpt lat="55.915634" lon="8.163737">
|
|
<ele>2.274172</ele>
|
|
<time>2026-07-12T10:28:48.000Z</time>
|
|
</trkpt>
|
|
<trkpt lat="55.915680" lon="8.163719">
|
|
<ele>2.266310</ele>
|
|
<time>2026-07-12T10:28:49.000Z</time>
|
|
</trkpt>
|
|
<trkpt lat="55.915730" lon="8.163698">
|
|
<ele>2.257734</ele>
|
|
<time>2026-07-12T10:28:50.000Z</time>
|
|
</trkpt>
|
|
<trkpt lat="55.915783" lon="8.163676">
|
|
<ele>2.248650</ele>
|
|
<time>2026-07-12T10:28:51.000Z</time>
|
|
</trkpt>
|
|
<trkpt lat="55.915833" lon="8.163659">
|
|
<ele>2.240152</ele>
|
|
<time>2026-07-12T10:28:52.000Z</time>
|
|
</trkpt>
|
|
<trkpt lat="55.915882" lon="8.163654">
|
|
<ele>2.231958</ele>
|
|
<time>2026-07-12T10:28:53.000Z</time>
|
|
</trkpt>
|
|
<trkpt lat="55.915932" lon="8.163665">
|
|
<ele>2.223547</ele>
|
|
<time>2026-07-12T10:28:54.000Z</time>
|
|
</trkpt>
|
|
<trkpt lat="55.915985" lon="8.163681">
|
|
<ele>2.214573</ele>
|
|
<time>2026-07-12T10:28:55.000Z</time>
|
|
</trkpt>
|
|
<trkpt lat="55.916038" lon="8.163692">
|
|
<ele>2.205665</ele>
|
|
<time>2026-07-12T10:28:56.000Z</time>
|
|
</trkpt>
|
|
<trkpt lat="55.916088" lon="8.163694">
|
|
<ele>2.197315</ele>
|
|
<time>2026-07-12T10:28:57.000Z</time>
|
|
</trkpt>
|
|
<trkpt lat="55.916142" lon="8.163685">
|
|
<ele>2.188261</ele>
|
|
<time>2026-07-12T10:28:58.000Z</time>
|
|
</trkpt>
|
|
<trkpt lat="55.916195" lon="8.163667">
|
|
<ele>2.179254</ele>
|
|
<time>2026-07-12T10:28:59.000Z</time>
|
|
</trkpt>
|
|
<trkpt lat="55.916248" lon="8.163640">
|
|
<ele>2.170052</ele>
|
|
<time>2026-07-12T10:29:00.000Z</time>
|
|
</trkpt>
|
|
<trkpt lat="55.916298" lon="8.163605">
|
|
<ele>2.161085</ele>
|
|
<time>2026-07-12T10:29:01.000Z</time>
|
|
</trkpt>
|
|
<trkpt lat="55.916348" lon="8.163565">
|
|
<ele>2.151937</ele>
|
|
<time>2026-07-12T10:29:02.000Z</time>
|
|
</trkpt>
|
|
<trkpt lat="55.916397" lon="8.163523">
|
|
<ele>2.142861</ele>
|
|
<time>2026-07-12T10:29:03.000Z</time>
|
|
</trkpt>
|
|
<trkpt lat="55.916443" lon="8.163476">
|
|
<ele>2.134012</ele>
|
|
<time>2026-07-12T10:29:04.000Z</time>
|
|
</trkpt>
|
|
<trkpt lat="55.916489" lon="8.163426">
|
|
<ele>2.125019</ele>
|
|
<time>2026-07-12T10:29:05.000Z</time>
|
|
</trkpt>
|
|
<trkpt lat="55.916531" lon="8.163371">
|
|
<ele>2.116322</ele>
|
|
<time>2026-07-12T10:29:06.000Z</time>
|
|
</trkpt>
|
|
<trkpt lat="55.916573" lon="8.163310">
|
|
<ele>2.107281</ele>
|
|
<time>2026-07-12T10:29:07.000Z</time>
|
|
</trkpt>
|
|
<trkpt lat="55.916607" lon="8.163250">
|
|
<ele>2.099298</ele>
|
|
<time>2026-07-12T10:29:08.000Z</time>
|
|
</trkpt>
|
|
<trkpt lat="55.916641" lon="8.163188">
|
|
<ele>2.091182</ele>
|
|
<time>2026-07-12T10:29:09.000Z</time>
|
|
</trkpt>
|
|
<trkpt lat="55.916668" lon="8.163121">
|
|
<ele>2.083461</ele>
|
|
<time>2026-07-12T10:29:10.000Z</time>
|
|
</trkpt>
|
|
<trkpt lat="55.916698" lon="8.163054">
|
|
<ele>2.075437</ele>
|
|
<time>2026-07-12T10:29:11.000Z</time>
|
|
</trkpt>
|
|
<trkpt lat="55.916725" lon="8.162988">
|
|
<ele>2.067792</ele>
|
|
<time>2026-07-12T10:29:12.000Z</time>
|
|
</trkpt>
|
|
<trkpt lat="55.916752" lon="8.162913">
|
|
<ele>2.059452</ele>
|
|
<time>2026-07-12T10:29:13.000Z</time>
|
|
</trkpt>
|
|
<trkpt lat="55.916771" lon="8.162828">
|
|
<ele>2.050890</ele>
|
|
<time>2026-07-12T10:29:14.000Z</time>
|
|
</trkpt>
|
|
<trkpt lat="55.916779" lon="8.162743">
|
|
<ele>2.042826</ele>
|
|
<time>2026-07-12T10:29:15.000Z</time>
|
|
</trkpt>
|
|
<trkpt lat="55.916782" lon="8.162656">
|
|
<ele>2.034671</ele>
|
|
<time>2026-07-12T10:29:16.000Z</time>
|
|
</trkpt>
|
|
<trkpt lat="55.916786" lon="8.162568">
|
|
<ele>2.028265</ele>
|
|
<time>2026-07-12T10:29:17.000Z</time>
|
|
</trkpt>
|
|
<trkpt lat="55.916786" lon="8.162478">
|
|
<ele>2.024863</ele>
|
|
<time>2026-07-12T10:29:18.000Z</time>
|
|
</trkpt>
|
|
<trkpt lat="55.916790" lon="8.162389">
|
|
<ele>2.021488</ele>
|
|
<time>2026-07-12T10:29:19.000Z</time>
|
|
</trkpt>
|
|
<trkpt lat="55.916798" lon="8.162300">
|
|
<ele>2.018081</ele>
|
|
<time>2026-07-12T10:29:20.000Z</time>
|
|
</trkpt>
|
|
<trkpt lat="55.916809" lon="8.162214">
|
|
<ele>2.014747</ele>
|
|
<time>2026-07-12T10:29:21.000Z</time>
|
|
</trkpt>
|
|
<trkpt lat="55.916824" lon="8.162133">
|
|
<ele>2.011523</ele>
|
|
<time>2026-07-12T10:29:22.000Z</time>
|
|
</trkpt>
|
|
<trkpt lat="55.916843" lon="8.162056">
|
|
<ele>2.008343</ele>
|
|
<time>2026-07-12T10:29:23.000Z</time>
|
|
</trkpt>
|
|
<trkpt lat="55.916866" lon="8.161982">
|
|
<ele>2.005144</ele>
|
|
<time>2026-07-12T10:29:24.000Z</time>
|
|
</trkpt>
|
|
<trkpt lat="55.916897" lon="8.161910">
|
|
<ele>2.001712</ele>
|
|
<time>2026-07-12T10:29:25.000Z</time>
|
|
</trkpt>
|
|
<trkpt lat="55.916924" lon="8.161839">
|
|
<ele>1.998469</ele>
|
|
<time>2026-07-12T10:29:26.000Z</time>
|
|
</trkpt>
|
|
<trkpt lat="55.916950" lon="8.161770">
|
|
<ele>1.995327</ele>
|
|
<time>2026-07-12T10:29:27.000Z</time>
|
|
</trkpt>
|
|
<trkpt lat="55.916981" lon="8.161698">
|
|
<ele>1.991895</ele>
|
|
<time>2026-07-12T10:29:28.000Z</time>
|
|
</trkpt>
|
|
<trkpt lat="55.917007" lon="8.161627">
|
|
<ele>1.988689</ele>
|
|
<time>2026-07-12T10:29:29.000Z</time>
|
|
</trkpt>
|
|
<trkpt lat="55.917034" lon="8.161555">
|
|
<ele>1.985415</ele>
|
|
<time>2026-07-12T10:29:30.000Z</time>
|
|
</trkpt>
|
|
<trkpt lat="55.917061" lon="8.161483">
|
|
<ele>1.982140</ele>
|
|
<time>2026-07-12T10:29:31.000Z</time>
|
|
</trkpt>
|
|
<trkpt lat="55.917088" lon="8.161412">
|
|
<ele>1.978897</ele>
|
|
<time>2026-07-12T10:29:32.000Z</time>
|
|
</trkpt>
|
|
<trkpt lat="55.917114" lon="8.161344">
|
|
<ele>1.975786</ele>
|
|
<time>2026-07-12T10:29:33.000Z</time>
|
|
</trkpt>
|
|
<trkpt lat="55.917137" lon="8.161273">
|
|
<ele>1.972686</ele>
|
|
<time>2026-07-12T10:29:34.000Z</time>
|
|
</trkpt>
|
|
<trkpt lat="55.917160" lon="8.161202">
|
|
<ele>1.969586</ele>
|
|
<time>2026-07-12T10:29:35.000Z</time>
|
|
</trkpt>
|
|
<trkpt lat="55.917183" lon="8.161131">
|
|
<ele>1.966487</ele>
|
|
<time>2026-07-12T10:29:36.000Z</time>
|
|
</trkpt>
|
|
<trkpt lat="55.917206" lon="8.161059">
|
|
<ele>1.963354</ele>
|
|
<time>2026-07-12T10:29:37.000Z</time>
|
|
</trkpt>
|
|
<trkpt lat="55.917229" lon="8.160990">
|
|
<ele>1.960320</ele>
|
|
<time>2026-07-12T10:29:38.000Z</time>
|
|
</trkpt>
|
|
<trkpt lat="55.917252" lon="8.160925">
|
|
<ele>1.957414</ele>
|
|
<time>2026-07-12T10:29:39.000Z</time>
|
|
</trkpt>
|
|
<trkpt lat="55.917278" lon="8.160867">
|
|
<ele>1.954607</ele>
|
|
<time>2026-07-12T10:29:40.000Z</time>
|
|
</trkpt>
|
|
<trkpt lat="55.917309" lon="8.160813">
|
|
<ele>1.951685</ele>
|
|
<time>2026-07-12T10:29:41.000Z</time>
|
|
</trkpt>
|
|
<trkpt lat="55.917343" lon="8.160759">
|
|
<ele>1.948615</ele>
|
|
<time>2026-07-12T10:29:42.000Z</time>
|
|
</trkpt>
|
|
<trkpt lat="55.917374" lon="8.160695">
|
|
<ele>1.945418</ele>
|
|
<time>2026-07-12T10:29:43.000Z</time>
|
|
</trkpt>
|
|
<trkpt lat="55.917400" lon="8.160624">
|
|
<ele>1.942212</ele>
|
|
<time>2026-07-12T10:29:44.000Z</time>
|
|
</trkpt>
|
|
<trkpt lat="55.917423" lon="8.160548">
|
|
<ele>1.938947</ele>
|
|
<time>2026-07-12T10:29:45.000Z</time>
|
|
</trkpt>
|
|
<trkpt lat="55.917446" lon="8.160470">
|
|
<ele>1.935616</ele>
|
|
<time>2026-07-12T10:29:46.000Z</time>
|
|
</trkpt>
|
|
<trkpt lat="55.917465" lon="8.160393">
|
|
<ele>1.932436</ele>
|
|
<time>2026-07-12T10:29:47.000Z</time>
|
|
</trkpt>
|
|
<trkpt lat="55.917488" lon="8.160320">
|
|
<ele>1.929271</ele>
|
|
<time>2026-07-12T10:29:48.000Z</time>
|
|
</trkpt>
|
|
<trkpt lat="55.917515" lon="8.160250">
|
|
<ele>1.926059</ele>
|
|
<time>2026-07-12T10:29:49.000Z</time>
|
|
</trkpt>
|
|
<trkpt lat="55.917545" lon="8.160180">
|
|
<ele>1.922728</ele>
|
|
<time>2026-07-12T10:29:50.000Z</time>
|
|
</trkpt>
|
|
<trkpt lat="55.917572" lon="8.160110">
|
|
<ele>1.919516</ele>
|
|
<time>2026-07-12T10:29:51.000Z</time>
|
|
</trkpt>
|
|
<trkpt lat="55.917603" lon="8.160039">
|
|
<ele>1.916114</ele>
|
|
<time>2026-07-12T10:29:52.000Z</time>
|
|
</trkpt>
|
|
<trkpt lat="55.917629" lon="8.159967">
|
|
<ele>1.912877</ele>
|
|
<time>2026-07-12T10:29:53.000Z</time>
|
|
</trkpt>
|
|
<trkpt lat="55.917656" lon="8.159896">
|
|
<ele>1.909634</ele>
|
|
<time>2026-07-12T10:29:54.000Z</time>
|
|
</trkpt>
|
|
<trkpt lat="55.917683" lon="8.159823">
|
|
<ele>1.912771</ele>
|
|
<time>2026-07-12T10:29:55.000Z</time>
|
|
</trkpt>
|
|
<trkpt lat="55.917709" lon="8.159750">
|
|
<ele>1.920705</ele>
|
|
<time>2026-07-12T10:29:56.000Z</time>
|
|
</trkpt>
|
|
<trkpt lat="55.917736" lon="8.159678">
|
|
<ele>1.928652</ele>
|
|
<time>2026-07-12T10:29:57.000Z</time>
|
|
</trkpt>
|
|
<trkpt lat="55.917759" lon="8.159608">
|
|
<ele>1.936095</ele>
|
|
<time>2026-07-12T10:29:58.000Z</time>
|
|
</trkpt>
|
|
<trkpt lat="55.917786" lon="8.159538">
|
|
<ele>1.943889</ele>
|
|
<time>2026-07-12T10:29:59.000Z</time>
|
|
</trkpt>
|
|
<trkpt lat="55.917808" lon="8.159468">
|
|
<ele>1.951251</ele>
|
|
<time>2026-07-12T10:30:00.000Z</time>
|
|
</trkpt>
|
|
<trkpt lat="55.917831" lon="8.159397">
|
|
<ele>1.958773</ele>
|
|
<time>2026-07-12T10:30:01.000Z</time>
|
|
</trkpt>
|
|
<trkpt lat="55.917858" lon="8.159328">
|
|
<ele>1.966492</ele>
|
|
<time>2026-07-12T10:30:02.000Z</time>
|
|
</trkpt>
|
|
<trkpt lat="55.917881" lon="8.159256">
|
|
<ele>1.974094</ele>
|
|
<time>2026-07-12T10:30:03.000Z</time>
|
|
</trkpt>
|
|
<trkpt lat="55.917904" lon="8.159184">
|
|
<ele>1.981696</ele>
|
|
<time>2026-07-12T10:30:04.000Z</time>
|
|
</trkpt>
|
|
<trkpt lat="55.917927" lon="8.159110">
|
|
<ele>1.989458</ele>
|
|
<time>2026-07-12T10:30:05.000Z</time>
|
|
</trkpt>
|
|
<trkpt lat="55.917950" lon="8.159033">
|
|
<ele>1.997461</ele>
|
|
<time>2026-07-12T10:30:06.000Z</time>
|
|
</trkpt>
|
|
<trkpt lat="55.917969" lon="8.158957">
|
|
<ele>2.005094</ele>
|
|
<time>2026-07-12T10:30:07.000Z</time>
|
|
</trkpt>
|
|
<trkpt lat="55.917992" lon="8.158882">
|
|
<ele>2.012936</ele>
|
|
<time>2026-07-12T10:30:08.000Z</time>
|
|
</trkpt>
|
|
<trkpt lat="55.918015" lon="8.158817">
|
|
<ele>2.019988</ele>
|
|
<time>2026-07-12T10:30:09.000Z</time>
|
|
</trkpt>
|
|
<trkpt lat="55.918037" lon="8.158751">
|
|
<ele>2.027031</ele>
|
|
<time>2026-07-12T10:30:10.000Z</time>
|
|
</trkpt>
|
|
<trkpt lat="55.918068" lon="8.158664">
|
|
<ele>2.036488</ele>
|
|
<time>2026-07-12T10:30:11.000Z</time>
|
|
</trkpt>
|
|
<trkpt lat="55.918095" lon="8.158592">
|
|
<ele>2.044434</ele>
|
|
<time>2026-07-12T10:30:12.000Z</time>
|
|
</trkpt>
|
|
<trkpt lat="55.918125" lon="8.158523">
|
|
<ele>2.052445</ele>
|
|
<time>2026-07-12T10:30:13.000Z</time>
|
|
</trkpt>
|
|
<trkpt lat="55.918156" lon="8.158455">
|
|
<ele>2.060485</ele>
|
|
<time>2026-07-12T10:30:14.000Z</time>
|
|
</trkpt>
|
|
<trkpt lat="55.918186" lon="8.158387">
|
|
<ele>2.068424</ele>
|
|
<time>2026-07-12T10:30:15.000Z</time>
|
|
</trkpt>
|
|
<trkpt lat="55.918217" lon="8.158319">
|
|
<ele>2.076464</ele>
|
|
<time>2026-07-12T10:30:16.000Z</time>
|
|
</trkpt>
|
|
<trkpt lat="55.918247" lon="8.158251">
|
|
<ele>2.084402</ele>
|
|
<time>2026-07-12T10:30:17.000Z</time>
|
|
</trkpt>
|
|
<trkpt lat="55.918278" lon="8.158184">
|
|
<ele>2.092372</ele>
|
|
<time>2026-07-12T10:30:18.000Z</time>
|
|
</trkpt>
|
|
<trkpt lat="55.918308" lon="8.158118">
|
|
<ele>2.100167</ele>
|
|
<time>2026-07-12T10:30:19.000Z</time>
|
|
</trkpt>
|
|
<trkpt lat="55.918339" lon="8.158053">
|
|
<ele>2.107996</ele>
|
|
<time>2026-07-12T10:30:20.000Z</time>
|
|
</trkpt>
|
|
<trkpt lat="55.918365" lon="8.157988">
|
|
<ele>2.115321</ele>
|
|
<time>2026-07-12T10:30:21.000Z</time>
|
|
</trkpt>
|
|
<trkpt lat="55.918392" lon="8.157919">
|
|
<ele>2.123040</ele>
|
|
<time>2026-07-12T10:30:22.000Z</time>
|
|
</trkpt>
|
|
<trkpt lat="55.918419" lon="8.157848">
|
|
<ele>2.130910</ele>
|
|
<time>2026-07-12T10:30:23.000Z</time>
|
|
</trkpt>
|
|
<trkpt lat="55.918446" lon="8.157779">
|
|
<ele>2.138629</ele>
|
|
<time>2026-07-12T10:30:24.000Z</time>
|
|
</trkpt>
|
|
<trkpt lat="55.918472" lon="8.157711">
|
|
<ele>2.146180</ele>
|
|
<time>2026-07-12T10:30:25.000Z</time>
|
|
</trkpt>
|
|
<trkpt lat="55.918503" lon="8.157646">
|
|
<ele>2.154009</ele>
|
|
<time>2026-07-12T10:30:26.000Z</time>
|
|
</trkpt>
|
|
<trkpt lat="55.918537" lon="8.157586">
|
|
<ele>2.161836</ele>
|
|
<time>2026-07-12T10:30:27.000Z</time>
|
|
</trkpt>
|
|
<trkpt lat="55.918575" lon="8.157532">
|
|
<ele>2.169787</ele>
|
|
<time>2026-07-12T10:30:28.000Z</time>
|
|
</trkpt>
|
|
<trkpt lat="55.918613" lon="8.157484">
|
|
<ele>2.177407</ele>
|
|
<time>2026-07-12T10:30:29.000Z</time>
|
|
</trkpt>
|
|
<trkpt lat="55.918655" lon="8.157447">
|
|
<ele>2.185074</ele>
|
|
<time>2026-07-12T10:30:30.000Z</time>
|
|
</trkpt>
|
|
<trkpt lat="55.918701" lon="8.157419">
|
|
<ele>2.193029</ele>
|
|
<time>2026-07-12T10:30:31.000Z</time>
|
|
</trkpt>
|
|
<trkpt lat="55.918747" lon="8.157400">
|
|
<ele>2.200758</ele>
|
|
<time>2026-07-12T10:30:32.000Z</time>
|
|
</trkpt>
|
|
<trkpt lat="55.918793" lon="8.157395">
|
|
<ele>2.211915</ele>
|
|
<time>2026-07-12T10:30:33.000Z</time>
|
|
</trkpt>
|
|
<trkpt lat="55.918835" lon="8.157411">
|
|
<ele>2.223411</ele>
|
|
<time>2026-07-12T10:30:34.000Z</time>
|
|
</trkpt>
|
|
<trkpt lat="55.918873" lon="8.157447">
|
|
<ele>2.234928</ele>
|
|
<time>2026-07-12T10:30:35.000Z</time>
|
|
</trkpt>
|
|
<trkpt lat="55.918903" lon="8.157504">
|
|
<ele>2.246658</ele>
|
|
<time>2026-07-12T10:30:36.000Z</time>
|
|
</trkpt>
|
|
<trkpt lat="55.918926" lon="8.157581">
|
|
<ele>2.259747</ele>
|
|
<time>2026-07-12T10:30:37.000Z</time>
|
|
</trkpt>
|
|
<trkpt lat="55.918938" lon="8.157671">
|
|
<ele>2.273624</ele>
|
|
<time>2026-07-12T10:30:38.000Z</time>
|
|
</trkpt>
|
|
<trkpt lat="55.918941" lon="8.157760">
|
|
<ele>2.286998</ele>
|
|
<time>2026-07-12T10:30:39.000Z</time>
|
|
</trkpt>
|
|
<trkpt lat="55.918938" lon="8.157850">
|
|
<ele>2.300522</ele>
|
|
<time>2026-07-12T10:30:40.000Z</time>
|
|
</trkpt>
|
|
<trkpt lat="55.918934" lon="8.157942">
|
|
<ele>2.314364</ele>
|
|
<time>2026-07-12T10:30:41.000Z</time>
|
|
</trkpt>
|
|
<trkpt lat="55.918930" lon="8.158033">
|
|
<ele>2.328056</ele>
|
|
<time>2026-07-12T10:30:42.000Z</time>
|
|
</trkpt>
|
|
<trkpt lat="55.918926" lon="8.158124">
|
|
<ele>2.341748</ele>
|
|
<time>2026-07-12T10:30:43.000Z</time>
|
|
</trkpt>
|
|
<trkpt lat="55.918930" lon="8.158211">
|
|
<ele>2.354842</ele>
|
|
<time>2026-07-12T10:30:44.000Z</time>
|
|
</trkpt>
|
|
<trkpt lat="55.918945" lon="8.158293">
|
|
<ele>2.367781</ele>
|
|
<time>2026-07-12T10:30:45.000Z</time>
|
|
</trkpt>
|
|
<trkpt lat="55.918972" lon="8.158365">
|
|
<ele>2.380776</ele>
|
|
<time>2026-07-12T10:30:46.000Z</time>
|
|
</trkpt>
|
|
<trkpt lat="55.919010" lon="8.158423">
|
|
<ele>2.394162</ele>
|
|
<time>2026-07-12T10:30:47.000Z</time>
|
|
</trkpt>
|
|
<trkpt lat="55.919048" lon="8.158472">
|
|
<ele>2.406711</ele>
|
|
<time>2026-07-12T10:30:48.000Z</time>
|
|
</trkpt>
|
|
<trkpt lat="55.919094" lon="8.158513">
|
|
<ele>2.420475</ele>
|
|
<time>2026-07-12T10:30:49.000Z</time>
|
|
</trkpt>
|
|
<trkpt lat="55.919140" lon="8.158551">
|
|
<ele>2.434044</ele>
|
|
<time>2026-07-12T10:30:50.000Z</time>
|
|
</trkpt>
|
|
<trkpt lat="55.919186" lon="8.158589">
|
|
<ele>2.447613</ele>
|
|
<time>2026-07-12T10:30:51.000Z</time>
|
|
</trkpt>
|
|
<trkpt lat="55.919231" lon="8.158625">
|
|
<ele>2.460814</ele>
|
|
<time>2026-07-12T10:30:52.000Z</time>
|
|
</trkpt>
|
|
<trkpt lat="55.919277" lon="8.158658">
|
|
<ele>2.474085</ele>
|
|
<time>2026-07-12T10:30:53.000Z</time>
|
|
</trkpt>
|
|
<trkpt lat="55.919319" lon="8.158692">
|
|
<ele>2.486431</ele>
|
|
<time>2026-07-12T10:30:54.000Z</time>
|
|
</trkpt>
|
|
<trkpt lat="55.919365" lon="8.158723">
|
|
<ele>2.499593</ele>
|
|
<time>2026-07-12T10:30:55.000Z</time>
|
|
</trkpt>
|
|
<trkpt lat="55.919411" lon="8.158745">
|
|
<ele>2.512341</ele>
|
|
<time>2026-07-12T10:30:56.000Z</time>
|
|
</trkpt>
|
|
<trkpt lat="55.919456" lon="8.158760">
|
|
<ele>2.524596</ele>
|
|
<time>2026-07-12T10:30:57.000Z</time>
|
|
</trkpt>
|
|
<trkpt lat="55.919502" lon="8.158767">
|
|
<ele>2.536954</ele>
|
|
<time>2026-07-12T10:30:58.000Z</time>
|
|
</trkpt>
|
|
<trkpt lat="55.919548" lon="8.158766">
|
|
<ele>2.549268</ele>
|
|
<time>2026-07-12T10:30:59.000Z</time>
|
|
</trkpt>
|
|
<trkpt lat="55.919598" lon="8.158754">
|
|
<ele>2.562773</ele>
|
|
<time>2026-07-12T10:31:00.000Z</time>
|
|
</trkpt>
|
|
<trkpt lat="55.919643" lon="8.158735">
|
|
<ele>2.575152</ele>
|
|
<time>2026-07-12T10:31:01.000Z</time>
|
|
</trkpt>
|
|
<trkpt lat="55.919685" lon="8.158710">
|
|
<ele>2.587003</ele>
|
|
<time>2026-07-12T10:31:02.000Z</time>
|
|
</trkpt>
|
|
<trkpt lat="55.919727" lon="8.158683">
|
|
<ele>2.598953</ele>
|
|
<time>2026-07-12T10:31:03.000Z</time>
|
|
</trkpt>
|
|
<trkpt lat="55.919766" lon="8.158653">
|
|
<ele>2.610322</ele>
|
|
<time>2026-07-12T10:31:04.000Z</time>
|
|
</trkpt>
|
|
<trkpt lat="55.919804" lon="8.158616">
|
|
<ele>2.621909</ele>
|
|
<time>2026-07-12T10:31:05.000Z</time>
|
|
</trkpt>
|
|
<trkpt lat="55.919842" lon="8.158566">
|
|
<ele>2.634548</ele>
|
|
<time>2026-07-12T10:31:06.000Z</time>
|
|
</trkpt>
|
|
<trkpt lat="55.919876" lon="8.158518">
|
|
<ele>2.646152</ele>
|
|
<time>2026-07-12T10:31:07.000Z</time>
|
|
</trkpt>
|
|
<trkpt lat="55.919903" lon="8.158464">
|
|
<ele>2.657008</ele>
|
|
<time>2026-07-12T10:31:08.000Z</time>
|
|
</trkpt>
|
|
<trkpt lat="55.919933" lon="8.158408">
|
|
<ele>2.668629</ele>
|
|
<time>2026-07-12T10:31:09.000Z</time>
|
|
</trkpt>
|
|
<trkpt lat="55.919964" lon="8.158348">
|
|
<ele>2.680871</ele>
|
|
<time>2026-07-12T10:31:10.000Z</time>
|
|
</trkpt>
|
|
<trkpt lat="55.919994" lon="8.158287">
|
|
<ele>2.680732</ele>
|
|
<time>2026-07-12T10:31:11.000Z</time>
|
|
</trkpt>
|
|
<trkpt lat="55.920029" lon="8.158223">
|
|
<ele>2.675709</ele>
|
|
<time>2026-07-12T10:31:12.000Z</time>
|
|
</trkpt>
|
|
<trkpt lat="55.920063" lon="8.158154">
|
|
<ele>2.670548</ele>
|
|
<time>2026-07-12T10:31:13.000Z</time>
|
|
</trkpt>
|
|
<trkpt lat="55.920090" lon="8.158085">
|
|
<ele>2.665821</ele>
|
|
<time>2026-07-12T10:31:14.000Z</time>
|
|
</trkpt>
|
|
<trkpt lat="55.920116" lon="8.158016">
|
|
<ele>2.661150</ele>
|
|
<time>2026-07-12T10:31:15.000Z</time>
|
|
</trkpt>
|
|
<trkpt lat="55.920147" lon="8.157951">
|
|
<ele>2.656356</ele>
|
|
<time>2026-07-12T10:31:16.000Z</time>
|
|
</trkpt>
|
|
<trkpt lat="55.920174" lon="8.157888">
|
|
<ele>2.651901</ele>
|
|
<time>2026-07-12T10:31:17.000Z</time>
|
|
</trkpt>
|
|
<trkpt lat="55.920204" lon="8.157823">
|
|
<ele>2.647171</ele>
|
|
<time>2026-07-12T10:31:18.000Z</time>
|
|
</trkpt>
|
|
<trkpt lat="55.920238" lon="8.157753">
|
|
<ele>2.641967</ele>
|
|
<time>2026-07-12T10:31:19.000Z</time>
|
|
</trkpt>
|
|
<trkpt lat="55.920273" lon="8.157680">
|
|
<ele>2.636571</ele>
|
|
<time>2026-07-12T10:31:20.000Z</time>
|
|
</trkpt>
|
|
<trkpt lat="55.920307" lon="8.157604">
|
|
<ele>2.631109</ele>
|
|
<time>2026-07-12T10:31:21.000Z</time>
|
|
</trkpt>
|
|
<trkpt lat="55.920342" lon="8.157526">
|
|
<ele>2.625496</ele>
|
|
<time>2026-07-12T10:31:22.000Z</time>
|
|
</trkpt>
|
|
<trkpt lat="55.920372" lon="8.157450">
|
|
<ele>2.620274</ele>
|
|
<time>2026-07-12T10:31:23.000Z</time>
|
|
</trkpt>
|
|
<trkpt lat="55.920406" lon="8.157375">
|
|
<ele>2.614855</ele>
|
|
<time>2026-07-12T10:31:24.000Z</time>
|
|
</trkpt>
|
|
<trkpt lat="55.920433" lon="8.157316">
|
|
<ele>2.610577</ele>
|
|
<time>2026-07-12T10:31:25.000Z</time>
|
|
</trkpt>
|
|
<trkpt lat="55.920460" lon="8.157267">
|
|
<ele>2.606717</ele>
|
|
<time>2026-07-12T10:31:26.000Z</time>
|
|
</trkpt>
|
|
<trkpt lat="55.920509" lon="8.157189">
|
|
<ele>2.600135</ele>
|
|
<time>2026-07-12T10:31:27.000Z</time>
|
|
</trkpt>
|
|
<trkpt lat="55.920547" lon="8.157132">
|
|
<ele>2.595159</ele>
|
|
<time>2026-07-12T10:31:28.000Z</time>
|
|
</trkpt>
|
|
<trkpt lat="55.920582" lon="8.157066">
|
|
<ele>2.590055</ele>
|
|
<time>2026-07-12T10:31:29.000Z</time>
|
|
</trkpt>
|
|
<trkpt lat="55.920612" lon="8.156997">
|
|
<ele>2.585149</ele>
|
|
<time>2026-07-12T10:31:30.000Z</time>
|
|
</trkpt>
|
|
<trkpt lat="55.920639" lon="8.156925">
|
|
<ele>2.580283</ele>
|
|
<time>2026-07-12T10:31:31.000Z</time>
|
|
</trkpt>
|
|
<trkpt lat="55.920662" lon="8.156851">
|
|
<ele>2.575530</ele>
|
|
<time>2026-07-12T10:31:32.000Z</time>
|
|
</trkpt>
|
|
<trkpt lat="55.920692" lon="8.156776">
|
|
<ele>2.570354</ele>
|
|
<time>2026-07-12T10:31:33.000Z</time>
|
|
</trkpt>
|
|
<trkpt lat="55.920723" lon="8.156704">
|
|
<ele>2.565254</ele>
|
|
<time>2026-07-12T10:31:34.000Z</time>
|
|
</trkpt>
|
|
<trkpt lat="55.920757" lon="8.156637">
|
|
<ele>2.560177</ele>
|
|
<time>2026-07-12T10:31:35.000Z</time>
|
|
</trkpt>
|
|
<trkpt lat="55.920795" lon="8.156571">
|
|
<ele>2.554862</ele>
|
|
<time>2026-07-12T10:31:36.000Z</time>
|
|
</trkpt>
|
|
<trkpt lat="55.920826" lon="8.156504">
|
|
<ele>2.549981</ele>
|
|
<time>2026-07-12T10:31:37.000Z</time>
|
|
</trkpt>
|
|
<trkpt lat="55.920849" lon="8.156430">
|
|
<ele>2.545228</ele>
|
|
<time>2026-07-12T10:31:38.000Z</time>
|
|
</trkpt>
|
|
<trkpt lat="55.920864" lon="8.156351">
|
|
<ele>2.540543</ele>
|
|
<time>2026-07-12T10:31:39.000Z</time>
|
|
</trkpt>
|
|
<trkpt lat="55.920876" lon="8.156268">
|
|
<ele>2.535728</ele>
|
|
<time>2026-07-12T10:31:40.000Z</time>
|
|
</trkpt>
|
|
<trkpt lat="55.920887" lon="8.156185">
|
|
<ele>2.530938</ele>
|
|
<time>2026-07-12T10:31:41.000Z</time>
|
|
</trkpt>
|
|
<trkpt lat="55.920902" lon="8.156099">
|
|
<ele>2.525879</ele>
|
|
<time>2026-07-12T10:31:42.000Z</time>
|
|
</trkpt>
|
|
<trkpt lat="55.920914" lon="8.156014">
|
|
<ele>2.520955</ele>
|
|
<time>2026-07-12T10:31:43.000Z</time>
|
|
</trkpt>
|
|
<trkpt lat="55.920929" lon="8.155930">
|
|
<ele>2.516003</ele>
|
|
<time>2026-07-12T10:31:44.000Z</time>
|
|
</trkpt>
|
|
<trkpt lat="55.920940" lon="8.155844">
|
|
<ele>2.511049</ele>
|
|
<time>2026-07-12T10:31:45.000Z</time>
|
|
</trkpt>
|
|
<trkpt lat="55.920952" lon="8.155764">
|
|
<ele>2.506397</ele>
|
|
<time>2026-07-12T10:31:46.000Z</time>
|
|
</trkpt>
|
|
<trkpt lat="55.920967" lon="8.155689">
|
|
<ele>2.507611</ele>
|
|
<time>2026-07-12T10:31:47.000Z</time>
|
|
</trkpt>
|
|
<trkpt lat="55.920979" lon="8.155617">
|
|
<ele>2.516244</ele>
|
|
<time>2026-07-12T10:31:48.000Z</time>
|
|
</trkpt>
|
|
<trkpt lat="55.920994" lon="8.155544">
|
|
<ele>2.525181</ele>
|
|
<time>2026-07-12T10:31:49.000Z</time>
|
|
</trkpt>
|
|
<trkpt lat="55.921009" lon="8.155467">
|
|
<ele>2.534551</ele>
|
|
<time>2026-07-12T10:31:50.000Z</time>
|
|
</trkpt>
|
|
<trkpt lat="55.921028" lon="8.155395">
|
|
<ele>2.543698</ele>
|
|
<time>2026-07-12T10:31:51.000Z</time>
|
|
</trkpt>
|
|
<trkpt lat="55.921047" lon="8.155322">
|
|
<ele>2.552949</ele>
|
|
<time>2026-07-12T10:31:52.000Z</time>
|
|
</trkpt>
|
|
<trkpt lat="55.921062" lon="8.155244">
|
|
<ele>2.562428</ele>
|
|
<time>2026-07-12T10:31:53.000Z</time>
|
|
</trkpt>
|
|
<trkpt lat="55.921078" lon="8.155168">
|
|
<ele>2.571759</ele>
|
|
<time>2026-07-12T10:31:54.000Z</time>
|
|
</trkpt>
|
|
<trkpt lat="55.921097" lon="8.155093">
|
|
<ele>2.581219</ele>
|
|
<time>2026-07-12T10:31:55.000Z</time>
|
|
</trkpt>
|
|
<trkpt lat="55.921120" lon="8.155014">
|
|
<ele>2.591452</ele>
|
|
<time>2026-07-12T10:31:56.000Z</time>
|
|
</trkpt>
|
|
<trkpt lat="55.921143" lon="8.154941">
|
|
<ele>2.601078</ele>
|
|
<time>2026-07-12T10:31:57.000Z</time>
|
|
</trkpt>
|
|
<trkpt lat="55.921173" lon="8.154867">
|
|
<ele>2.611576</ele>
|
|
<time>2026-07-12T10:31:58.000Z</time>
|
|
</trkpt>
|
|
<trkpt lat="55.921204" lon="8.154798">
|
|
<ele>2.621741</ele>
|
|
<time>2026-07-12T10:31:59.000Z</time>
|
|
</trkpt>
|
|
<trkpt lat="55.921234" lon="8.154728">
|
|
<ele>2.631870</ele>
|
|
<time>2026-07-12T10:32:00.000Z</time>
|
|
</trkpt>
|
|
<trkpt lat="55.921265" lon="8.154660">
|
|
<ele>2.641945</ele>
|
|
<time>2026-07-12T10:32:01.000Z</time>
|
|
</trkpt>
|
|
<trkpt lat="55.921299" lon="8.154594">
|
|
<ele>2.652250</ele>
|
|
<time>2026-07-12T10:32:02.000Z</time>
|
|
</trkpt>
|
|
<trkpt lat="55.921333" lon="8.154531">
|
|
<ele>2.662303</ele>
|
|
<time>2026-07-12T10:32:03.000Z</time>
|
|
</trkpt>
|
|
<trkpt lat="55.921364" lon="8.154466">
|
|
<ele>2.672114</ele>
|
|
<time>2026-07-12T10:32:04.000Z</time>
|
|
</trkpt>
|
|
<trkpt lat="55.921398" lon="8.154399">
|
|
<ele>2.682503</ele>
|
|
<time>2026-07-12T10:32:05.000Z</time>
|
|
</trkpt>
|
|
<trkpt lat="55.921432" lon="8.154334">
|
|
<ele>2.692723</ele>
|
|
<time>2026-07-12T10:32:06.000Z</time>
|
|
</trkpt>
|
|
<trkpt lat="55.921467" lon="8.154271">
|
|
<ele>2.702920</ele>
|
|
<time>2026-07-12T10:32:07.000Z</time>
|
|
</trkpt>
|
|
<trkpt lat="55.921501" lon="8.154205">
|
|
<ele>2.713224</ele>
|
|
<time>2026-07-12T10:32:08.000Z</time>
|
|
</trkpt>
|
|
<trkpt lat="55.921539" lon="8.154138">
|
|
<ele>2.724181</ele>
|
|
<time>2026-07-12T10:32:09.000Z</time>
|
|
</trkpt>
|
|
<trkpt lat="55.921574" lon="8.154066">
|
|
<ele>2.735137</ele>
|
|
<time>2026-07-12T10:32:10.000Z</time>
|
|
</trkpt>
|
|
<trkpt lat="55.921604" lon="8.153993">
|
|
<ele>2.745542</ele>
|
|
<time>2026-07-12T10:32:11.000Z</time>
|
|
</trkpt>
|
|
<trkpt lat="55.921635" lon="8.153920">
|
|
<ele>2.756069</ele>
|
|
<time>2026-07-12T10:32:12.000Z</time>
|
|
</trkpt>
|
|
<trkpt lat="55.921661" lon="8.153848">
|
|
<ele>2.765914</ele>
|
|
<time>2026-07-12T10:32:13.000Z</time>
|
|
</trkpt>
|
|
<trkpt lat="55.921692" lon="8.153776">
|
|
<ele>2.776350</ele>
|
|
<time>2026-07-12T10:32:14.000Z</time>
|
|
</trkpt>
|
|
<trkpt lat="55.921726" lon="8.153703">
|
|
<ele>2.787261</ele>
|
|
<time>2026-07-12T10:32:15.000Z</time>
|
|
</trkpt>
|
|
<trkpt lat="55.921757" lon="8.153630">
|
|
<ele>2.797788</ele>
|
|
<time>2026-07-12T10:32:16.000Z</time>
|
|
</trkpt>
|
|
<trkpt lat="55.921787" lon="8.153560">
|
|
<ele>2.807917</ele>
|
|
<time>2026-07-12T10:32:17.000Z</time>
|
|
</trkpt>
|
|
<trkpt lat="55.921814" lon="8.153489">
|
|
<ele>2.817779</ele>
|
|
<time>2026-07-12T10:32:18.000Z</time>
|
|
</trkpt>
|
|
<trkpt lat="55.921841" lon="8.153420">
|
|
<ele>2.827452</ele>
|
|
<time>2026-07-12T10:32:19.000Z</time>
|
|
</trkpt>
|
|
<trkpt lat="55.921867" lon="8.153347">
|
|
<ele>2.837394</ele>
|
|
<time>2026-07-12T10:32:20.000Z</time>
|
|
</trkpt>
|
|
<trkpt lat="55.921890" lon="8.153277">
|
|
<ele>2.846720</ele>
|
|
<time>2026-07-12T10:32:21.000Z</time>
|
|
</trkpt>
|
|
<trkpt lat="55.921909" lon="8.153208">
|
|
<ele>2.855557</ele>
|
|
<time>2026-07-12T10:32:22.000Z</time>
|
|
</trkpt>
|
|
<trkpt lat="55.921925" lon="8.153134">
|
|
<ele>2.864673</ele>
|
|
<time>2026-07-12T10:32:23.000Z</time>
|
|
</trkpt>
|
|
<trkpt lat="55.921944" lon="8.153055">
|
|
<ele>2.870822</ele>
|
|
<time>2026-07-12T10:32:24.000Z</time>
|
|
</trkpt>
|
|
<trkpt lat="55.921970" lon="8.152981">
|
|
<ele>2.860316</ele>
|
|
<time>2026-07-12T10:32:25.000Z</time>
|
|
</trkpt>
|
|
<trkpt lat="55.922001" lon="8.152910">
|
|
<ele>2.849489</ele>
|
|
<time>2026-07-12T10:32:26.000Z</time>
|
|
</trkpt>
|
|
<trkpt lat="55.922035" lon="8.152848">
|
|
<ele>2.839055</ele>
|
|
<time>2026-07-12T10:32:27.000Z</time>
|
|
</trkpt>
|
|
<trkpt lat="55.922073" lon="8.152807">
|
|
<ele>2.829523</ele>
|
|
<time>2026-07-12T10:32:28.000Z</time>
|
|
</trkpt>
|
|
<trkpt lat="55.922112" lon="8.152788">
|
|
<ele>2.820845</ele>
|
|
<time>2026-07-12T10:32:29.000Z</time>
|
|
</trkpt>
|
|
<trkpt lat="55.922150" lon="8.152780">
|
|
<ele>2.812631</ele>
|
|
<time>2026-07-12T10:32:30.000Z</time>
|
|
</trkpt>
|
|
<trkpt lat="55.922184" lon="8.152776">
|
|
<ele>2.805317</ele>
|
|
<time>2026-07-12T10:32:31.000Z</time>
|
|
</trkpt>
|
|
<trkpt lat="55.922211" lon="8.152776">
|
|
<ele>2.799521</ele>
|
|
<time>2026-07-12T10:32:32.000Z</time>
|
|
</trkpt>
|
|
<trkpt lat="55.922237" lon="8.152773">
|
|
<ele>2.793928</ele>
|
|
<time>2026-07-12T10:32:33.000Z</time>
|
|
</trkpt>
|
|
<trkpt lat="55.922264" lon="8.152764">
|
|
<ele>2.788032</ele>
|
|
<time>2026-07-12T10:32:34.000Z</time>
|
|
</trkpt>
|
|
<trkpt lat="55.922302" lon="8.152753">
|
|
<ele>2.779768</ele>
|
|
<time>2026-07-12T10:32:35.000Z</time>
|
|
</trkpt>
|
|
<trkpt lat="55.922337" lon="8.152733">
|
|
<ele>2.771879</ele>
|
|
<time>2026-07-12T10:32:36.000Z</time>
|
|
</trkpt>
|
|
<trkpt lat="55.922375" lon="8.152700">
|
|
<ele>2.762808</ele>
|
|
<time>2026-07-12T10:32:37.000Z</time>
|
|
</trkpt>
|
|
<trkpt lat="55.922413" lon="8.152656">
|
|
<ele>2.753084</ele>
|
|
<time>2026-07-12T10:32:38.000Z</time>
|
|
</trkpt>
|
|
<trkpt lat="55.922451" lon="8.152602">
|
|
<ele>2.742657</ele>
|
|
<time>2026-07-12T10:32:39.000Z</time>
|
|
</trkpt>
|
|
<trkpt lat="55.922485" lon="8.152548">
|
|
<ele>2.732887</ele>
|
|
<time>2026-07-12T10:32:40.000Z</time>
|
|
</trkpt>
|
|
<trkpt lat="55.922520" lon="8.152490">
|
|
<ele>2.722635</ele>
|
|
<time>2026-07-12T10:32:41.000Z</time>
|
|
</trkpt>
|
|
<trkpt lat="55.922554" lon="8.152423">
|
|
<ele>2.711762</ele>
|
|
<time>2026-07-12T10:32:42.000Z</time>
|
|
</trkpt>
|
|
<trkpt lat="55.922581" lon="8.152357">
|
|
<ele>2.701933</ele>
|
|
<time>2026-07-12T10:32:43.000Z</time>
|
|
</trkpt>
|
|
<trkpt lat="55.922604" lon="8.152292">
|
|
<ele>2.692687</ele>
|
|
<time>2026-07-12T10:32:44.000Z</time>
|
|
</trkpt>
|
|
<trkpt lat="55.922626" lon="8.152236">
|
|
<ele>2.684460</ele>
|
|
<time>2026-07-12T10:32:45.000Z</time>
|
|
</trkpt>
|
|
<trkpt lat="55.922653" lon="8.152182">
|
|
<ele>2.675755</ele>
|
|
<time>2026-07-12T10:32:46.000Z</time>
|
|
</trkpt>
|
|
<trkpt lat="55.922676" lon="8.152129">
|
|
<ele>2.667692</ele>
|
|
<time>2026-07-12T10:32:47.000Z</time>
|
|
</trkpt>
|
|
<trkpt lat="55.922707" lon="8.152084">
|
|
<ele>2.659115</ele>
|
|
<time>2026-07-12T10:32:48.000Z</time>
|
|
</trkpt>
|
|
<trkpt lat="55.922737" lon="8.152044">
|
|
<ele>2.651076</ele>
|
|
<time>2026-07-12T10:32:49.000Z</time>
|
|
</trkpt>
|
|
<trkpt lat="55.922768" lon="8.152008">
|
|
<ele>2.643137</ele>
|
|
<time>2026-07-12T10:32:50.000Z</time>
|
|
</trkpt>
|
|
<trkpt lat="55.922813" lon="8.151969">
|
|
<ele>2.632398</ele>
|
|
<time>2026-07-12T10:32:51.000Z</time>
|
|
</trkpt>
|
|
<trkpt lat="55.922855" lon="8.151946">
|
|
<ele>2.622968</ele>
|
|
<time>2026-07-12T10:32:52.000Z</time>
|
|
</trkpt>
|
|
<trkpt lat="55.922894" lon="8.151933">
|
|
<ele>2.614451</ele>
|
|
<time>2026-07-12T10:32:53.000Z</time>
|
|
</trkpt>
|
|
<trkpt lat="55.922935" lon="8.151927">
|
|
<ele>2.605620</ele>
|
|
<time>2026-07-12T10:32:54.000Z</time>
|
|
</trkpt>
|
|
<trkpt lat="55.922974" lon="8.151921">
|
|
<ele>2.597218</ele>
|
|
<time>2026-07-12T10:32:55.000Z</time>
|
|
</trkpt>
|
|
<trkpt lat="55.923012" lon="8.151911">
|
|
<ele>2.588972</ele>
|
|
<time>2026-07-12T10:32:56.000Z</time>
|
|
</trkpt>
|
|
<trkpt lat="55.923050" lon="8.151899">
|
|
<ele>2.580688</ele>
|
|
<time>2026-07-12T10:32:57.000Z</time>
|
|
</trkpt>
|
|
<trkpt lat="55.923092" lon="8.151890">
|
|
<ele>2.571608</ele>
|
|
<time>2026-07-12T10:32:58.000Z</time>
|
|
</trkpt>
|
|
<trkpt lat="55.923130" lon="8.151880">
|
|
<ele>2.563362</ele>
|
|
<time>2026-07-12T10:32:59.000Z</time>
|
|
</trkpt>
|
|
<trkpt lat="55.923172" lon="8.151871">
|
|
<ele>2.554282</ele>
|
|
<time>2026-07-12T10:33:00.000Z</time>
|
|
</trkpt>
|
|
<trkpt lat="55.923214" lon="8.151860">
|
|
<ele>2.545170</ele>
|
|
<time>2026-07-12T10:33:01.000Z</time>
|
|
</trkpt>
|
|
<trkpt lat="55.923260" lon="8.151847">
|
|
<ele>2.535172</ele>
|
|
<time>2026-07-12T10:33:02.000Z</time>
|
|
</trkpt>
|
|
<trkpt lat="55.923302" lon="8.151835">
|
|
<ele>2.526041</ele>
|
|
<time>2026-07-12T10:33:03.000Z</time>
|
|
</trkpt>
|
|
<trkpt lat="55.923344" lon="8.151826">
|
|
<ele>2.516961</ele>
|
|
<time>2026-07-12T10:33:04.000Z</time>
|
|
</trkpt>
|
|
<trkpt lat="55.923386" lon="8.151815">
|
|
<ele>2.507849</ele>
|
|
<time>2026-07-12T10:33:05.000Z</time>
|
|
</trkpt>
|
|
<trkpt lat="55.923428" lon="8.151803">
|
|
<ele>2.498718</ele>
|
|
<time>2026-07-12T10:33:06.000Z</time>
|
|
</trkpt>
|
|
<trkpt lat="55.923473" lon="8.151792">
|
|
<ele>2.488968</ele>
|
|
<time>2026-07-12T10:33:07.000Z</time>
|
|
</trkpt>
|
|
<trkpt lat="55.923515" lon="8.151781">
|
|
<ele>2.496918</ele>
|
|
<time>2026-07-12T10:33:08.000Z</time>
|
|
</trkpt>
|
|
<trkpt lat="55.923557" lon="8.151769">
|
|
<ele>2.510784</ele>
|
|
<time>2026-07-12T10:33:09.000Z</time>
|
|
</trkpt>
|
|
<trkpt lat="55.923599" lon="8.151754">
|
|
<ele>2.524747</ele>
|
|
<time>2026-07-12T10:33:10.000Z</time>
|
|
</trkpt>
|
|
<trkpt lat="55.923645" lon="8.151738">
|
|
<ele>2.540025</ele>
|
|
<time>2026-07-12T10:33:11.000Z</time>
|
|
</trkpt>
|
|
<trkpt lat="55.923691" lon="8.151723">
|
|
<ele>2.555269</ele>
|
|
<time>2026-07-12T10:33:12.000Z</time>
|
|
</trkpt>
|
|
<trkpt lat="55.923733" lon="8.151709">
|
|
<ele>2.569198</ele>
|
|
<time>2026-07-12T10:33:13.000Z</time>
|
|
</trkpt>
|
|
<trkpt lat="55.923771" lon="8.151693">
|
|
<ele>2.581925</ele>
|
|
<time>2026-07-12T10:33:14.000Z</time>
|
|
</trkpt>
|
|
<trkpt lat="55.923817" lon="8.151677">
|
|
<ele>2.597203</ele>
|
|
<time>2026-07-12T10:33:15.000Z</time>
|
|
</trkpt>
|
|
<trkpt lat="55.923855" lon="8.151663">
|
|
<ele>2.609852</ele>
|
|
<time>2026-07-12T10:33:16.000Z</time>
|
|
</trkpt>
|
|
<trkpt lat="55.923893" lon="8.151649">
|
|
<ele>2.622501</ele>
|
|
<time>2026-07-12T10:33:17.000Z</time>
|
|
</trkpt>
|
|
<trkpt lat="55.923920" lon="8.151636">
|
|
<ele>2.631618</ele>
|
|
<time>2026-07-12T10:33:18.000Z</time>
|
|
</trkpt>
|
|
<trkpt lat="55.923950" lon="8.151623">
|
|
<ele>2.641682</ele>
|
|
<time>2026-07-12T10:33:19.000Z</time>
|
|
</trkpt>
|
|
<trkpt lat="55.923973" lon="8.151610">
|
|
<ele>2.649546</ele>
|
|
<time>2026-07-12T10:33:20.000Z</time>
|
|
</trkpt>
|
|
<trkpt lat="55.924004" lon="8.151593">
|
|
<ele>2.660119</ele>
|
|
<time>2026-07-12T10:33:21.000Z</time>
|
|
</trkpt>
|
|
<trkpt lat="55.924027" lon="8.151582">
|
|
<ele>2.667881</ele>
|
|
<time>2026-07-12T10:33:22.000Z</time>
|
|
</trkpt>
|
|
<trkpt lat="55.924049" lon="8.151572">
|
|
<ele>2.675282</ele>
|
|
<time>2026-07-12T10:33:23.000Z</time>
|
|
</trkpt>
|
|
<trkpt lat="55.924072" lon="8.151562">
|
|
<ele>2.682999</ele>
|
|
<time>2026-07-12T10:33:24.000Z</time>
|
|
</trkpt>
|
|
<trkpt lat="55.924095" lon="8.151554">
|
|
<ele>2.690638</ele>
|
|
<time>2026-07-12T10:33:25.000Z</time>
|
|
</trkpt>
|
|
<trkpt lat="55.924118" lon="8.151551">
|
|
<ele>2.698156</ele>
|
|
<time>2026-07-12T10:33:26.000Z</time>
|
|
</trkpt>
|
|
<trkpt lat="55.924137" lon="8.151551">
|
|
<ele>2.704349</ele>
|
|
<time>2026-07-12T10:33:27.000Z</time>
|
|
</trkpt>
|
|
<trkpt lat="55.924152" lon="8.151554">
|
|
<ele>2.709270</ele>
|
|
<time>2026-07-12T10:33:28.000Z</time>
|
|
</trkpt>
|
|
<trkpt lat="55.924175" lon="8.151547">
|
|
<ele>2.716876</ele>
|
|
<time>2026-07-12T10:33:41.000Z</time>
|
|
</trkpt>
|
|
<trkpt lat="55.924183" lon="8.151549">
|
|
<ele>2.719509</ele>
|
|
<time>2026-07-12T10:33:42.000Z</time>
|
|
</trkpt>
|
|
<trkpt lat="55.924191" lon="8.151551">
|
|
<ele>2.722143</ele>
|
|
<time>2026-07-12T10:33:43.000Z</time>
|
|
</trkpt>
|
|
<trkpt lat="55.924198" lon="8.151552">
|
|
<ele>2.724432</ele>
|
|
<time>2026-07-12T10:33:44.000Z</time>
|
|
</trkpt>
|
|
<trkpt lat="55.924206" lon="8.151553">
|
|
<ele>2.727046</ele>
|
|
<time>2026-07-12T10:33:45.000Z</time>
|
|
</trkpt>
|
|
<trkpt lat="55.924213" lon="8.151553">
|
|
<ele>2.729328</ele>
|
|
<time>2026-07-12T10:33:46.000Z</time>
|
|
</trkpt>
|
|
<trkpt lat="55.924221" lon="8.151554">
|
|
<ele>2.731943</ele>
|
|
<time>2026-07-12T10:33:47.000Z</time>
|
|
</trkpt>
|
|
<trkpt lat="55.924229" lon="8.151555">
|
|
<ele>2.734557</ele>
|
|
<time>2026-07-12T10:33:48.000Z</time>
|
|
</trkpt>
|
|
<trkpt lat="55.924236" lon="8.151555">
|
|
<ele>2.736839</ele>
|
|
<time>2026-07-12T10:33:49.000Z</time>
|
|
</trkpt>
|
|
<trkpt lat="55.924244" lon="8.151555">
|
|
<ele>2.739447</ele>
|
|
<time>2026-07-12T10:33:50.000Z</time>
|
|
</trkpt>
|
|
<trkpt lat="55.924252" lon="8.151556">
|
|
<ele>2.742061</ele>
|
|
<time>2026-07-12T10:33:51.000Z</time>
|
|
</trkpt>
|
|
<trkpt lat="55.924259" lon="8.151558">
|
|
<ele>2.744372</ele>
|
|
<time>2026-07-12T10:33:52.000Z</time>
|
|
</trkpt>
|
|
<trkpt lat="55.924263" lon="8.151561">
|
|
<ele>2.745787</ele>
|
|
<time>2026-07-12T10:33:53.000Z</time>
|
|
</trkpt>
|
|
<trkpt lat="55.924267" lon="8.151563">
|
|
<ele>2.747141</ele>
|
|
<time>2026-07-12T10:33:54.000Z</time>
|
|
</trkpt>
|
|
<trkpt lat="55.924274" lon="8.151565">
|
|
<ele>2.749452</ele>
|
|
<time>2026-07-12T10:33:55.000Z</time>
|
|
</trkpt>
|
|
<trkpt lat="55.924282" lon="8.151568">
|
|
<ele>2.752117</ele>
|
|
<time>2026-07-12T10:33:56.000Z</time>
|
|
</trkpt>
|
|
<trkpt lat="55.924290" lon="8.151573">
|
|
<ele>2.754880</ele>
|
|
<time>2026-07-12T10:33:57.000Z</time>
|
|
</trkpt>
|
|
<trkpt lat="55.924293" lon="8.151577">
|
|
<ele>2.756101</ele>
|
|
<time>2026-07-12T10:33:58.000Z</time>
|
|
</trkpt>
|
|
<trkpt lat="55.924301" lon="8.151579">
|
|
<ele>2.758734</ele>
|
|
<time>2026-07-12T10:33:59.000Z</time>
|
|
</trkpt>
|
|
<trkpt lat="55.924309" lon="8.151582">
|
|
<ele>2.761399</ele>
|
|
<time>2026-07-12T10:34:00.000Z</time>
|
|
</trkpt>
|
|
<trkpt lat="55.924320" lon="8.151586">
|
|
<ele>2.765059</ele>
|
|
<time>2026-07-12T10:34:01.000Z</time>
|
|
</trkpt>
|
|
<trkpt lat="55.924328" lon="8.151586">
|
|
<ele>2.767667</ele>
|
|
<time>2026-07-12T10:34:02.000Z</time>
|
|
</trkpt>
|
|
<trkpt lat="55.924335" lon="8.151586">
|
|
<ele>2.769949</ele>
|
|
<time>2026-07-12T10:34:03.000Z</time>
|
|
</trkpt>
|
|
<trkpt lat="55.924343" lon="8.151586">
|
|
<ele>2.772557</ele>
|
|
<time>2026-07-12T10:34:04.000Z</time>
|
|
</trkpt>
|
|
<trkpt lat="55.924351" lon="8.151586">
|
|
<ele>2.775165</ele>
|
|
<time>2026-07-12T10:34:05.000Z</time>
|
|
</trkpt>
|
|
<trkpt lat="55.924358" lon="8.151586">
|
|
<ele>2.777447</ele>
|
|
<time>2026-07-12T10:34:06.000Z</time>
|
|
</trkpt>
|
|
<trkpt lat="55.924362" lon="8.151586">
|
|
<ele>2.778751</ele>
|
|
<time>2026-07-12T10:34:07.000Z</time>
|
|
</trkpt>
|
|
<trkpt lat="55.924366" lon="8.151586">
|
|
<ele>2.780054</ele>
|
|
<time>2026-07-12T10:34:08.000Z</time>
|
|
</trkpt>
|
|
<trkpt lat="55.924374" lon="8.151586">
|
|
<ele>2.782662</ele>
|
|
<time>2026-07-12T10:34:09.000Z</time>
|
|
</trkpt>
|
|
<trkpt lat="55.924381" lon="8.151586">
|
|
<ele>2.784944</ele>
|
|
<time>2026-07-12T10:34:10.000Z</time>
|
|
</trkpt>
|
|
<trkpt lat="55.924389" lon="8.151585">
|
|
<ele>2.787559</ele>
|
|
<time>2026-07-12T10:34:11.000Z</time>
|
|
</trkpt>
|
|
<trkpt lat="55.924397" lon="8.151585">
|
|
<ele>2.790167</ele>
|
|
<time>2026-07-12T10:34:12.000Z</time>
|
|
</trkpt>
|
|
<trkpt lat="55.924404" lon="8.151584">
|
|
<ele>2.792456</ele>
|
|
<time>2026-07-12T10:34:13.000Z</time>
|
|
</trkpt>
|
|
<trkpt lat="55.924416" lon="8.151582">
|
|
<ele>2.796385</ele>
|
|
<time>2026-07-12T10:34:14.000Z</time>
|
|
</trkpt>
|
|
<trkpt lat="55.924423" lon="8.151579">
|
|
<ele>2.798732</ele>
|
|
<time>2026-07-12T10:34:15.000Z</time>
|
|
</trkpt>
|
|
<trkpt lat="55.924431" lon="8.151578">
|
|
<ele>2.801346</ele>
|
|
<time>2026-07-12T10:34:16.000Z</time>
|
|
</trkpt>
|
|
<trkpt lat="55.924438" lon="8.151578">
|
|
<ele>2.803628</ele>
|
|
<time>2026-07-12T10:34:17.000Z</time>
|
|
</trkpt>
|
|
<trkpt lat="55.924446" lon="8.151578">
|
|
<ele>2.806236</ele>
|
|
<time>2026-07-12T10:34:18.000Z</time>
|
|
</trkpt>
|
|
<trkpt lat="55.924458" lon="8.151578">
|
|
<ele>2.810148</ele>
|
|
<time>2026-07-12T10:34:19.000Z</time>
|
|
</trkpt>
|
|
<trkpt lat="55.924469" lon="8.151575">
|
|
<ele>2.813775</ele>
|
|
<time>2026-07-12T10:34:20.000Z</time>
|
|
</trkpt>
|
|
<trkpt lat="55.924480" lon="8.151573">
|
|
<ele>2.817380</ele>
|
|
<time>2026-07-12T10:34:21.000Z</time>
|
|
</trkpt>
|
|
<trkpt lat="55.924492" lon="8.151575">
|
|
<ele>2.821309</ele>
|
|
<time>2026-07-12T10:34:22.000Z</time>
|
|
</trkpt>
|
|
<trkpt lat="55.924500" lon="8.151579">
|
|
<ele>2.824017</ele>
|
|
<time>2026-07-12T10:34:23.000Z</time>
|
|
</trkpt>
|
|
<trkpt lat="55.924511" lon="8.151585">
|
|
<ele>2.827767</ele>
|
|
<time>2026-07-12T10:34:24.000Z</time>
|
|
</trkpt>
|
|
<trkpt lat="55.924519" lon="8.151590">
|
|
<ele>2.830530</ele>
|
|
<time>2026-07-12T10:34:25.000Z</time>
|
|
</trkpt>
|
|
<trkpt lat="55.924526" lon="8.151595">
|
|
<ele>2.832988</ele>
|
|
<time>2026-07-12T10:34:26.000Z</time>
|
|
</trkpt>
|
|
<trkpt lat="55.924530" lon="8.151601">
|
|
<ele>2.834691</ele>
|
|
<time>2026-07-12T10:34:27.000Z</time>
|
|
</trkpt>
|
|
<trkpt lat="55.924538" lon="8.151607">
|
|
<ele>2.837520</ele>
|
|
<time>2026-07-12T10:34:28.000Z</time>
|
|
</trkpt>
|
|
<trkpt lat="55.924542" lon="8.151611">
|
|
<ele>2.839015</ele>
|
|
<time>2026-07-12T10:34:29.000Z</time>
|
|
</trkpt>
|
|
<trkpt lat="55.924549" lon="8.151615">
|
|
<ele>2.841411</ele>
|
|
<time>2026-07-12T10:34:30.000Z</time>
|
|
</trkpt>
|
|
<trkpt lat="55.924557" lon="8.151619">
|
|
<ele>2.844119</ele>
|
|
<time>2026-07-12T10:34:31.000Z</time>
|
|
</trkpt>
|
|
<trkpt lat="55.924564" lon="8.151622">
|
|
<ele>2.846466</ele>
|
|
<time>2026-07-12T10:34:32.000Z</time>
|
|
</trkpt>
|
|
<trkpt lat="55.924572" lon="8.151627">
|
|
<ele>2.849229</ele>
|
|
<time>2026-07-12T10:34:33.000Z</time>
|
|
</trkpt>
|
|
<trkpt lat="55.924580" lon="8.151632">
|
|
<ele>2.851993</ele>
|
|
<time>2026-07-12T10:34:34.000Z</time>
|
|
</trkpt>
|
|
<trkpt lat="55.924591" lon="8.151643">
|
|
<ele>2.856103</ele>
|
|
<time>2026-07-12T10:34:35.000Z</time>
|
|
</trkpt>
|
|
<trkpt lat="55.924599" lon="8.151653">
|
|
<ele>2.859287</ele>
|
|
<time>2026-07-12T10:34:36.000Z</time>
|
|
</trkpt>
|
|
<trkpt lat="55.924610" lon="8.151662">
|
|
<ele>2.863232</ele>
|
|
<time>2026-07-12T10:34:37.000Z</time>
|
|
</trkpt>
|
|
<trkpt lat="55.924622" lon="8.151669">
|
|
<ele>2.867347</ele>
|
|
<time>2026-07-12T10:34:38.000Z</time>
|
|
</trkpt>
|
|
<trkpt lat="55.924629" lon="8.151676">
|
|
<ele>2.869963</ele>
|
|
<time>2026-07-12T10:34:39.000Z</time>
|
|
</trkpt>
|
|
<trkpt lat="55.924641" lon="8.151686">
|
|
<ele>2.874280</ele>
|
|
<time>2026-07-12T10:34:40.000Z</time>
|
|
</trkpt>
|
|
<trkpt lat="55.924648" lon="8.151697">
|
|
<ele>2.877321</ele>
|
|
<time>2026-07-12T10:34:41.000Z</time>
|
|
</trkpt>
|
|
<trkpt lat="55.924656" lon="8.151709">
|
|
<ele>2.880727</ele>
|
|
<time>2026-07-12T10:34:42.000Z</time>
|
|
</trkpt>
|
|
<trkpt lat="55.924660" lon="8.151716">
|
|
<ele>2.882554</ele>
|
|
<time>2026-07-12T10:34:43.000Z</time>
|
|
</trkpt>
|
|
<trkpt lat="55.924667" lon="8.151719">
|
|
<ele>2.884900</ele>
|
|
<time>2026-07-12T10:34:44.000Z</time>
|
|
</trkpt>
|
|
<trkpt lat="55.924675" lon="8.151721">
|
|
<ele>2.887534</ele>
|
|
<time>2026-07-12T10:34:45.000Z</time>
|
|
</trkpt>
|
|
<trkpt lat="55.924683" lon="8.151722">
|
|
<ele>2.890148</ele>
|
|
<time>2026-07-12T10:34:46.000Z</time>
|
|
</trkpt>
|
|
<trkpt lat="55.924690" lon="8.151723">
|
|
<ele>2.892437</ele>
|
|
<time>2026-07-12T10:34:47.000Z</time>
|
|
</trkpt>
|
|
<trkpt lat="55.924694" lon="8.151727">
|
|
<ele>2.893932</ele>
|
|
<time>2026-07-12T10:34:48.000Z</time>
|
|
</trkpt>
|
|
<trkpt lat="55.924698" lon="8.151729">
|
|
<ele>2.895286</ele>
|
|
<time>2026-07-12T10:34:49.000Z</time>
|
|
</trkpt>
|
|
<trkpt lat="55.924702" lon="8.151730">
|
|
<ele>2.896603</ele>
|
|
<time>2026-07-12T10:34:50.000Z</time>
|
|
</trkpt>
|
|
<trkpt lat="55.924702" lon="8.151729">
|
|
<ele>2.896786</ele>
|
|
<time>2026-07-12T10:34:51.000Z</time>
|
|
</trkpt>
|
|
<trkpt lat="55.924721" lon="8.151691">
|
|
<ele>2.906088</ele>
|
|
<time>2026-07-12T10:35:20.000Z</time>
|
|
</trkpt>
|
|
<trkpt lat="55.924725" lon="8.151673">
|
|
<ele>2.909625</ele>
|
|
<time>2026-07-12T10:35:21.000Z</time>
|
|
</trkpt>
|
|
<trkpt lat="55.924721" lon="8.151654">
|
|
<ele>2.913332</ele>
|
|
<time>2026-07-12T10:35:22.000Z</time>
|
|
</trkpt>
|
|
<trkpt lat="55.924721" lon="8.151634">
|
|
<ele>2.916985</ele>
|
|
<time>2026-07-12T10:35:23.000Z</time>
|
|
</trkpt>
|
|
<trkpt lat="55.924717" lon="8.151616">
|
|
<ele>2.920522</ele>
|
|
<time>2026-07-12T10:35:24.000Z</time>
|
|
</trkpt>
|
|
<trkpt lat="55.924713" lon="8.151598">
|
|
<ele>2.924059</ele>
|
|
<time>2026-07-12T10:35:25.000Z</time>
|
|
</trkpt>
|
|
<trkpt lat="55.924709" lon="8.151580">
|
|
<ele>2.927596</ele>
|
|
<time>2026-07-12T10:35:26.000Z</time>
|
|
</trkpt>
|
|
<trkpt lat="55.924706" lon="8.151563">
|
|
<ele>2.930851</ele>
|
|
<time>2026-07-12T10:35:27.000Z</time>
|
|
</trkpt>
|
|
<trkpt lat="55.924706" lon="8.151546">
|
|
<ele>2.933956</ele>
|
|
<time>2026-07-12T10:35:28.000Z</time>
|
|
</trkpt>
|
|
<trkpt lat="55.924702" lon="8.151527">
|
|
<ele>2.937663</ele>
|
|
<time>2026-07-12T10:35:29.000Z</time>
|
|
</trkpt>
|
|
<trkpt lat="55.924694" lon="8.151508">
|
|
<ele>2.942004</ele>
|
|
<time>2026-07-12T10:35:30.000Z</time>
|
|
</trkpt>
|
|
<trkpt lat="55.924690" lon="8.151490">
|
|
<ele>2.945541</ele>
|
|
<time>2026-07-12T10:35:31.000Z</time>
|
|
</trkpt>
|
|
<trkpt lat="55.924686" lon="8.151470">
|
|
<ele>2.949420</ele>
|
|
<time>2026-07-12T10:35:32.000Z</time>
|
|
</trkpt>
|
|
<trkpt lat="55.924679" lon="8.151451">
|
|
<ele>2.953573</ele>
|
|
<time>2026-07-12T10:35:33.000Z</time>
|
|
</trkpt>
|
|
<trkpt lat="55.924675" lon="8.151432">
|
|
<ele>2.957280</ele>
|
|
<time>2026-07-12T10:35:34.000Z</time>
|
|
</trkpt>
|
|
<trkpt lat="55.924675" lon="8.151413">
|
|
<ele>2.960751</ele>
|
|
<time>2026-07-12T10:35:35.000Z</time>
|
|
</trkpt>
|
|
<trkpt lat="55.924671" lon="8.151397">
|
|
<ele>2.963951</ele>
|
|
<time>2026-07-12T10:35:36.000Z</time>
|
|
</trkpt>
|
|
<trkpt lat="55.924671" lon="8.151381">
|
|
<ele>2.966873</ele>
|
|
<time>2026-07-12T10:35:37.000Z</time>
|
|
</trkpt>
|
|
<trkpt lat="55.924667" lon="8.151364">
|
|
<ele>2.970241</ele>
|
|
<time>2026-07-12T10:35:38.000Z</time>
|
|
</trkpt>
|
|
<trkpt lat="55.924664" lon="8.151346">
|
|
<ele>2.973671</ele>
|
|
<time>2026-07-12T10:35:39.000Z</time>
|
|
</trkpt>
|
|
<trkpt lat="55.924664" lon="8.151325">
|
|
<ele>2.977507</ele>
|
|
<time>2026-07-12T10:35:40.000Z</time>
|
|
</trkpt>
|
|
<trkpt lat="55.924664" lon="8.151306">
|
|
<ele>2.980977</ele>
|
|
<time>2026-07-12T10:35:41.000Z</time>
|
|
</trkpt>
|
|
<trkpt lat="55.924664" lon="8.151287">
|
|
<ele>2.984447</ele>
|
|
<time>2026-07-12T10:35:42.000Z</time>
|
|
</trkpt>
|
|
<trkpt lat="55.924667" lon="8.151269">
|
|
<ele>2.987877</ele>
|
|
<time>2026-07-12T10:35:43.000Z</time>
|
|
</trkpt>
|
|
<trkpt lat="55.924675" lon="8.151252">
|
|
<ele>2.991932</ele>
|
|
<time>2026-07-12T10:35:44.000Z</time>
|
|
</trkpt>
|
|
<trkpt lat="55.924683" lon="8.151237">
|
|
<ele>2.995715</ele>
|
|
<time>2026-07-12T10:35:45.000Z</time>
|
|
</trkpt>
|
|
<trkpt lat="55.924690" lon="8.151226">
|
|
<ele>2.998755</ele>
|
|
<time>2026-07-12T10:35:46.000Z</time>
|
|
</trkpt>
|
|
<trkpt lat="55.924698" lon="8.151218">
|
|
<ele>3.001745</ele>
|
|
<time>2026-07-12T10:35:47.000Z</time>
|
|
</trkpt>
|
|
<trkpt lat="55.924702" lon="8.151215">
|
|
<ele>3.003159</ele>
|
|
<time>2026-07-12T10:35:48.000Z</time>
|
|
</trkpt>
|
|
<trkpt lat="55.924702" lon="8.151216">
|
|
<ele>3.003342</ele>
|
|
<time>2026-07-12T10:35:50.000Z</time>
|
|
</trkpt>
|
|
<trkpt lat="55.924702" lon="8.151218">
|
|
<ele>3.003707</ele>
|
|
<time>2026-07-12T10:35:51.000Z</time>
|
|
</trkpt>
|
|
<trkpt lat="55.924706" lon="8.151215">
|
|
<ele>3.005121</ele>
|
|
<time>2026-07-12T10:36:48.000Z</time>
|
|
</trkpt>
|
|
<trkpt lat="55.924713" lon="8.151207">
|
|
<ele>3.007831</ele>
|
|
<time>2026-07-12T10:36:49.000Z</time>
|
|
</trkpt>
|
|
<trkpt lat="55.924732" lon="8.151202">
|
|
<ele>3.014092</ele>
|
|
<time>2026-07-12T10:36:50.000Z</time>
|
|
</trkpt>
|
|
<trkpt lat="55.924751" lon="8.151200">
|
|
<ele>3.020297</ele>
|
|
<time>2026-07-12T10:36:51.000Z</time>
|
|
</trkpt>
|
|
<trkpt lat="55.924778" lon="8.151197">
|
|
<ele>3.029115</ele>
|
|
<time>2026-07-12T10:36:52.000Z</time>
|
|
</trkpt>
|
|
<trkpt lat="55.924805" lon="8.151196">
|
|
<ele>3.037919</ele>
|
|
<time>2026-07-12T10:36:53.000Z</time>
|
|
</trkpt>
|
|
<trkpt lat="55.924831" lon="8.151196">
|
|
<ele>3.046395</ele>
|
|
<time>2026-07-12T10:36:54.000Z</time>
|
|
</trkpt>
|
|
<trkpt lat="55.924858" lon="8.151197">
|
|
<ele>3.055199</ele>
|
|
<time>2026-07-12T10:36:55.000Z</time>
|
|
</trkpt>
|
|
<trkpt lat="55.924885" lon="8.151199">
|
|
<ele>3.064008</ele>
|
|
<time>2026-07-12T10:36:56.000Z</time>
|
|
</trkpt>
|
|
<trkpt lat="55.924915" lon="8.151197">
|
|
<ele>3.072859</ele>
|
|
<time>2026-07-12T10:36:57.000Z</time>
|
|
</trkpt>
|
|
<trkpt lat="55.924942" lon="8.151189">
|
|
<ele>3.071574</ele>
|
|
<time>2026-07-12T10:36:58.000Z</time>
|
|
</trkpt>
|
|
<trkpt lat="55.924969" lon="8.151178">
|
|
<ele>3.070273</ele>
|
|
<time>2026-07-12T10:36:59.000Z</time>
|
|
</trkpt>
|
|
<trkpt lat="55.924995" lon="8.151166">
|
|
<ele>3.069012</ele>
|
|
<time>2026-07-12T10:37:00.000Z</time>
|
|
</trkpt>
|
|
<trkpt lat="55.925018" lon="8.151155">
|
|
<ele>3.067893</ele>
|
|
<time>2026-07-12T10:37:01.000Z</time>
|
|
</trkpt>
|
|
<trkpt lat="55.925045" lon="8.151146">
|
|
<ele>3.066604</ele>
|
|
<time>2026-07-12T10:37:02.000Z</time>
|
|
</trkpt>
|
|
<trkpt lat="55.925068" lon="8.151138">
|
|
<ele>3.065503</ele>
|
|
<time>2026-07-12T10:37:03.000Z</time>
|
|
</trkpt>
|
|
<trkpt lat="55.925095" lon="8.151129">
|
|
<ele>3.064213</ele>
|
|
<time>2026-07-12T10:37:04.000Z</time>
|
|
</trkpt>
|
|
<trkpt lat="55.925121" lon="8.151120">
|
|
<ele>3.062969</ele>
|
|
<time>2026-07-12T10:37:05.000Z</time>
|
|
</trkpt>
|
|
<trkpt lat="55.925148" lon="8.151115">
|
|
<ele>3.061695</ele>
|
|
<time>2026-07-12T10:37:06.000Z</time>
|
|
</trkpt>
|
|
<trkpt lat="55.925175" lon="8.151111">
|
|
<ele>3.060422</ele>
|
|
<time>2026-07-12T10:37:07.000Z</time>
|
|
</trkpt>
|
|
<trkpt lat="55.925198" lon="8.151103">
|
|
<ele>3.059322</ele>
|
|
<time>2026-07-12T10:37:08.000Z</time>
|
|
</trkpt>
|
|
<trkpt lat="55.925217" lon="8.151096">
|
|
<ele>3.058411</ele>
|
|
<time>2026-07-12T10:37:09.000Z</time>
|
|
</trkpt>
|
|
<trkpt lat="55.925236" lon="8.151092">
|
|
<ele>3.057512</ele>
|
|
<time>2026-07-12T10:37:10.000Z</time>
|
|
</trkpt>
|
|
<trkpt lat="55.925259" lon="8.151090">
|
|
<ele>3.056431</ele>
|
|
<time>2026-07-12T10:37:11.000Z</time>
|
|
</trkpt>
|
|
<trkpt lat="55.925278" lon="8.151086">
|
|
<ele>3.055532</ele>
|
|
<time>2026-07-12T10:37:12.000Z</time>
|
|
</trkpt>
|
|
<trkpt lat="55.925301" lon="8.151080">
|
|
<ele>3.054441</ele>
|
|
<time>2026-07-12T10:37:13.000Z</time>
|
|
</trkpt>
|
|
<trkpt lat="55.925323" lon="8.151074">
|
|
<ele>3.053396</ele>
|
|
<time>2026-07-12T10:37:14.000Z</time>
|
|
</trkpt>
|
|
<trkpt lat="55.925346" lon="8.151071">
|
|
<ele>3.052313</ele>
|
|
<time>2026-07-12T10:37:15.000Z</time>
|
|
</trkpt>
|
|
<trkpt lat="55.925369" lon="8.151067">
|
|
<ele>3.051227</ele>
|
|
<time>2026-07-12T10:37:16.000Z</time>
|
|
</trkpt>
|
|
<trkpt lat="55.925392" lon="8.151063">
|
|
<ele>3.050142</ele>
|
|
<time>2026-07-12T10:37:17.000Z</time>
|
|
</trkpt>
|
|
<trkpt lat="55.925419" lon="8.151057">
|
|
<ele>3.048864</ele>
|
|
<time>2026-07-12T10:37:18.000Z</time>
|
|
</trkpt>
|
|
<trkpt lat="55.925449" lon="8.151050">
|
|
<ele>3.047443</ele>
|
|
<time>2026-07-12T10:37:19.000Z</time>
|
|
</trkpt>
|
|
<trkpt lat="55.925480" lon="8.151040">
|
|
<ele>3.045964</ele>
|
|
<time>2026-07-12T10:37:20.000Z</time>
|
|
</trkpt>
|
|
<trkpt lat="55.925510" lon="8.151032">
|
|
<ele>3.044539</ele>
|
|
<time>2026-07-12T10:37:21.000Z</time>
|
|
</trkpt>
|
|
<trkpt lat="55.925541" lon="8.151023">
|
|
<ele>3.043064</ele>
|
|
<time>2026-07-12T10:37:22.000Z</time>
|
|
</trkpt>
|
|
<trkpt lat="55.925571" lon="8.151011">
|
|
<ele>3.041621</ele>
|
|
<time>2026-07-12T10:37:23.000Z</time>
|
|
</trkpt>
|
|
<trkpt lat="55.925602" lon="8.151000">
|
|
<ele>3.040136</ele>
|
|
<time>2026-07-12T10:37:24.000Z</time>
|
|
</trkpt>
|
|
<trkpt lat="55.925633" lon="8.150989">
|
|
<ele>3.038652</ele>
|
|
<time>2026-07-12T10:37:25.000Z</time>
|
|
</trkpt>
|
|
<trkpt lat="55.925663" lon="8.150980">
|
|
<ele>3.037223</ele>
|
|
<time>2026-07-12T10:37:26.000Z</time>
|
|
</trkpt>
|
|
<trkpt lat="55.925697" lon="8.150974">
|
|
<ele>3.035619</ele>
|
|
<time>2026-07-12T10:37:27.000Z</time>
|
|
</trkpt>
|
|
<trkpt lat="55.925732" lon="8.150969">
|
|
<ele>3.033970</ele>
|
|
<time>2026-07-12T10:37:28.000Z</time>
|
|
</trkpt>
|
|
<trkpt lat="55.925762" lon="8.150962">
|
|
<ele>3.032549</ele>
|
|
<time>2026-07-12T10:37:29.000Z</time>
|
|
</trkpt>
|
|
<trkpt lat="55.925797" lon="8.150957">
|
|
<ele>3.030900</ele>
|
|
<time>2026-07-12T10:37:30.000Z</time>
|
|
</trkpt>
|
|
<trkpt lat="55.925831" lon="8.150953">
|
|
<ele>3.029300</ele>
|
|
<time>2026-07-12T10:37:31.000Z</time>
|
|
</trkpt>
|
|
<trkpt lat="55.925865" lon="8.150948">
|
|
<ele>3.027698</ele>
|
|
<time>2026-07-12T10:37:32.000Z</time>
|
|
</trkpt>
|
|
<trkpt lat="55.925899" lon="8.150943">
|
|
<ele>3.026096</ele>
|
|
<time>2026-07-12T10:37:33.000Z</time>
|
|
</trkpt>
|
|
<trkpt lat="55.925938" lon="8.150939">
|
|
<ele>3.024261</ele>
|
|
<time>2026-07-12T10:37:34.000Z</time>
|
|
</trkpt>
|
|
<trkpt lat="55.925972" lon="8.150938">
|
|
<ele>3.022664</ele>
|
|
<time>2026-07-12T10:37:35.000Z</time>
|
|
</trkpt>
|
|
<trkpt lat="55.926006" lon="8.150940">
|
|
<ele>3.021066</ele>
|
|
<time>2026-07-12T10:37:36.000Z</time>
|
|
</trkpt>
|
|
<trkpt lat="55.926041" lon="8.150945">
|
|
<ele>3.019418</ele>
|
|
<time>2026-07-12T10:37:37.000Z</time>
|
|
</trkpt>
|
|
<trkpt lat="55.926075" lon="8.150950">
|
|
<ele>3.017815</ele>
|
|
<time>2026-07-12T10:37:38.000Z</time>
|
|
</trkpt>
|
|
<trkpt lat="55.926109" lon="8.150956">
|
|
<ele>3.016211</ele>
|
|
<time>2026-07-12T10:37:39.000Z</time>
|
|
</trkpt>
|
|
<trkpt lat="55.926147" lon="8.150962">
|
|
<ele>3.014419</ele>
|
|
<time>2026-07-12T10:37:40.000Z</time>
|
|
</trkpt>
|
|
<trkpt lat="55.926182" lon="8.150968">
|
|
<ele>3.012768</ele>
|
|
<time>2026-07-12T10:37:41.000Z</time>
|
|
</trkpt>
|
|
<trkpt lat="55.926216" lon="8.150974">
|
|
<ele>3.011164</ele>
|
|
<time>2026-07-12T10:37:42.000Z</time>
|
|
</trkpt>
|
|
<trkpt lat="55.926254" lon="8.150980">
|
|
<ele>3.009372</ele>
|
|
<time>2026-07-12T10:37:43.000Z</time>
|
|
</trkpt>
|
|
<trkpt lat="55.926296" lon="8.150986">
|
|
<ele>3.007393</ele>
|
|
<time>2026-07-12T10:37:44.000Z</time>
|
|
</trkpt>
|
|
<trkpt lat="55.926334" lon="8.150991">
|
|
<ele>3.005604</ele>
|
|
<time>2026-07-12T10:37:45.000Z</time>
|
|
</trkpt>
|
|
<trkpt lat="55.926376" lon="8.150994">
|
|
<ele>3.003630</ele>
|
|
<time>2026-07-12T10:37:46.000Z</time>
|
|
</trkpt>
|
|
<trkpt lat="55.926422" lon="8.150999">
|
|
<ele>3.001466</ele>
|
|
<time>2026-07-12T10:37:47.000Z</time>
|
|
</trkpt>
|
|
<trkpt lat="55.926464" lon="8.151009">
|
|
<ele>2.999476</ele>
|
|
<time>2026-07-12T10:37:48.000Z</time>
|
|
</trkpt>
|
|
<trkpt lat="55.926510" lon="8.151021">
|
|
<ele>2.997292</ele>
|
|
<time>2026-07-12T10:37:49.000Z</time>
|
|
</trkpt>
|
|
<trkpt lat="55.926556" lon="8.151033">
|
|
<ele>2.995109</ele>
|
|
<time>2026-07-12T10:37:50.000Z</time>
|
|
</trkpt>
|
|
<trkpt lat="55.926601" lon="8.151045">
|
|
<ele>2.992972</ele>
|
|
<time>2026-07-12T10:37:51.000Z</time>
|
|
</trkpt>
|
|
<trkpt lat="55.926647" lon="8.151052">
|
|
<ele>2.990804</ele>
|
|
<time>2026-07-12T10:37:52.000Z</time>
|
|
</trkpt>
|
|
<trkpt lat="55.926689" lon="8.151057">
|
|
<ele>2.988828</ele>
|
|
<time>2026-07-12T10:37:53.000Z</time>
|
|
</trkpt>
|
|
<trkpt lat="55.926731" lon="8.151059">
|
|
<ele>2.988835</ele>
|
|
<time>2026-07-12T10:37:54.000Z</time>
|
|
</trkpt>
|
|
<trkpt lat="55.926773" lon="8.151061">
|
|
<ele>2.989225</ele>
|
|
<time>2026-07-12T10:37:55.000Z</time>
|
|
</trkpt>
|
|
<trkpt lat="55.926815" lon="8.151065">
|
|
<ele>2.989615</ele>
|
|
<time>2026-07-12T10:37:56.000Z</time>
|
|
</trkpt>
|
|
<trkpt lat="55.926857" lon="8.151070">
|
|
<ele>2.990006</ele>
|
|
<time>2026-07-12T10:37:57.000Z</time>
|
|
</trkpt>
|
|
<trkpt lat="55.926895" lon="8.151079">
|
|
<ele>2.990362</ele>
|
|
<time>2026-07-12T10:37:58.000Z</time>
|
|
</trkpt>
|
|
<trkpt lat="55.926937" lon="8.151090">
|
|
<ele>2.990756</ele>
|
|
<time>2026-07-12T10:37:59.000Z</time>
|
|
</trkpt>
|
|
<trkpt lat="55.926979" lon="8.151097">
|
|
<ele>2.991148</ele>
|
|
<time>2026-07-12T10:38:00.000Z</time>
|
|
</trkpt>
|
|
<trkpt lat="55.927021" lon="8.151100">
|
|
<ele>2.991538</ele>
|
|
<time>2026-07-12T10:38:01.000Z</time>
|
|
</trkpt>
|
|
<trkpt lat="55.927063" lon="8.151106">
|
|
<ele>2.991929</ele>
|
|
<time>2026-07-12T10:38:02.000Z</time>
|
|
</trkpt>
|
|
<trkpt lat="55.927109" lon="8.151110">
|
|
<ele>2.992357</ele>
|
|
<time>2026-07-12T10:38:03.000Z</time>
|
|
</trkpt>
|
|
<trkpt lat="55.927151" lon="8.151111">
|
|
<ele>2.992747</ele>
|
|
<time>2026-07-12T10:38:04.000Z</time>
|
|
</trkpt>
|
|
<trkpt lat="55.927193" lon="8.151114">
|
|
<ele>2.993137</ele>
|
|
<time>2026-07-12T10:38:05.000Z</time>
|
|
</trkpt>
|
|
<trkpt lat="55.927235" lon="8.151121">
|
|
<ele>2.993529</ele>
|
|
<time>2026-07-12T10:38:06.000Z</time>
|
|
</trkpt>
|
|
<trkpt lat="55.927277" lon="8.151129">
|
|
<ele>2.993921</ele>
|
|
<time>2026-07-12T10:38:07.000Z</time>
|
|
</trkpt>
|
|
<trkpt lat="55.927319" lon="8.151137">
|
|
<ele>2.994313</ele>
|
|
<time>2026-07-12T10:38:08.000Z</time>
|
|
</trkpt>
|
|
<trkpt lat="55.927361" lon="8.151146">
|
|
<ele>2.994706</ele>
|
|
<time>2026-07-12T10:38:09.000Z</time>
|
|
</trkpt>
|
|
<trkpt lat="55.927403" lon="8.151153">
|
|
<ele>2.995097</ele>
|
|
<time>2026-07-12T10:38:10.000Z</time>
|
|
</trkpt>
|
|
<trkpt lat="55.927444" lon="8.151155">
|
|
<ele>2.995478</ele>
|
|
<time>2026-07-12T10:38:11.000Z</time>
|
|
</trkpt>
|
|
<trkpt lat="55.927486" lon="8.151159">
|
|
<ele>2.995869</ele>
|
|
<time>2026-07-12T10:38:12.000Z</time>
|
|
</trkpt>
|
|
<trkpt lat="55.927528" lon="8.151166">
|
|
<ele>2.996260</ele>
|
|
<time>2026-07-12T10:38:13.000Z</time>
|
|
</trkpt>
|
|
<trkpt lat="55.927570" lon="8.151172">
|
|
<ele>2.996652</ele>
|
|
<time>2026-07-12T10:38:14.000Z</time>
|
|
</trkpt>
|
|
<trkpt lat="55.927612" lon="8.151176">
|
|
<ele>2.997042</ele>
|
|
<time>2026-07-12T10:38:15.000Z</time>
|
|
</trkpt>
|
|
<trkpt lat="55.927654" lon="8.151181">
|
|
<ele>2.997433</ele>
|
|
<time>2026-07-12T10:38:16.000Z</time>
|
|
</trkpt>
|
|
<trkpt lat="55.927692" lon="8.151188">
|
|
<ele>2.997788</ele>
|
|
<time>2026-07-12T10:38:17.000Z</time>
|
|
</trkpt>
|
|
<trkpt lat="55.927734" lon="8.151193">
|
|
<ele>2.998178</ele>
|
|
<time>2026-07-12T10:38:18.000Z</time>
|
|
</trkpt>
|
|
<trkpt lat="55.927772" lon="8.151201">
|
|
<ele>2.998534</ele>
|
|
<time>2026-07-12T10:38:19.000Z</time>
|
|
</trkpt>
|
|
<trkpt lat="55.927814" lon="8.151214">
|
|
<ele>2.998929</ele>
|
|
<time>2026-07-12T10:38:20.000Z</time>
|
|
</trkpt>
|
|
<trkpt lat="55.927853" lon="8.151226">
|
|
<ele>2.999297</ele>
|
|
<time>2026-07-12T10:38:21.000Z</time>
|
|
</trkpt>
|
|
<trkpt lat="55.927895" lon="8.151237">
|
|
<ele>2.999691</ele>
|
|
<time>2026-07-12T10:38:22.000Z</time>
|
|
</trkpt>
|
|
<trkpt lat="55.927937" lon="8.151244">
|
|
<ele>3.000083</ele>
|
|
<time>2026-07-12T10:38:23.000Z</time>
|
|
</trkpt>
|
|
<trkpt lat="55.927975" lon="8.151249">
|
|
<ele>3.000436</ele>
|
|
<time>2026-07-12T10:38:24.000Z</time>
|
|
</trkpt>
|
|
<trkpt lat="55.928017" lon="8.151248">
|
|
<ele>3.000826</ele>
|
|
<time>2026-07-12T10:38:25.000Z</time>
|
|
</trkpt>
|
|
<trkpt lat="55.928059" lon="8.151240">
|
|
<ele>3.001219</ele>
|
|
<time>2026-07-12T10:38:26.000Z</time>
|
|
</trkpt>
|
|
<trkpt lat="55.928097" lon="8.151228">
|
|
<ele>3.001577</ele>
|
|
<time>2026-07-12T10:38:27.000Z</time>
|
|
</trkpt>
|
|
<trkpt lat="55.928143" lon="8.151215">
|
|
<ele>3.002009</ele>
|
|
<time>2026-07-12T10:38:28.000Z</time>
|
|
</trkpt>
|
|
<trkpt lat="55.928188" lon="8.151203">
|
|
<ele>3.002432</ele>
|
|
<time>2026-07-12T10:38:29.000Z</time>
|
|
</trkpt>
|
|
<trkpt lat="55.928234" lon="8.151195">
|
|
<ele>3.002861</ele>
|
|
<time>2026-07-12T10:38:30.000Z</time>
|
|
</trkpt>
|
|
<trkpt lat="55.928280" lon="8.151181">
|
|
<ele>3.003294</ele>
|
|
<time>2026-07-12T10:38:31.000Z</time>
|
|
</trkpt>
|
|
<trkpt lat="55.928326" lon="8.151159">
|
|
<ele>3.003736</ele>
|
|
<time>2026-07-12T10:38:32.000Z</time>
|
|
</trkpt>
|
|
<trkpt lat="55.928368" lon="8.151133">
|
|
<ele>3.004149</ele>
|
|
<time>2026-07-12T10:38:33.000Z</time>
|
|
</trkpt>
|
|
<trkpt lat="55.928406" lon="8.151104">
|
|
<ele>3.004533</ele>
|
|
<time>2026-07-12T10:38:34.000Z</time>
|
|
</trkpt>
|
|
<trkpt lat="55.928448" lon="8.151073">
|
|
<ele>3.004955</ele>
|
|
<time>2026-07-12T10:38:35.000Z</time>
|
|
</trkpt>
|
|
<trkpt lat="55.928486" lon="8.151039">
|
|
<ele>3.013053</ele>
|
|
<time>2026-07-12T10:38:36.000Z</time>
|
|
</trkpt>
|
|
<trkpt lat="55.928520" lon="8.151010">
|
|
<ele>3.032392</ele>
|
|
<time>2026-07-12T10:38:37.000Z</time>
|
|
</trkpt>
|
|
<trkpt lat="55.928558" lon="8.150982">
|
|
<ele>3.053491</ele>
|
|
<time>2026-07-12T10:38:38.000Z</time>
|
|
</trkpt>
|
|
<trkpt lat="55.928597" lon="8.150954">
|
|
<ele>3.075064</ele>
|
|
<time>2026-07-12T10:38:39.000Z</time>
|
|
</trkpt>
|
|
<trkpt lat="55.928638" lon="8.150931">
|
|
<ele>3.097121</ele>
|
|
<time>2026-07-12T10:38:40.000Z</time>
|
|
</trkpt>
|
|
<trkpt lat="55.928680" lon="8.150915">
|
|
<ele>3.119161</ele>
|
|
<time>2026-07-12T10:38:41.000Z</time>
|
|
</trkpt>
|
|
<trkpt lat="55.928722" lon="8.150904">
|
|
<ele>3.140947</ele>
|
|
<time>2026-07-12T10:38:42.000Z</time>
|
|
</trkpt>
|
|
<trkpt lat="55.928768" lon="8.150894">
|
|
<ele>3.164729</ele>
|
|
<time>2026-07-12T10:38:43.000Z</time>
|
|
</trkpt>
|
|
<trkpt lat="55.928810" lon="8.150888">
|
|
<ele>3.186353</ele>
|
|
<time>2026-07-12T10:38:44.000Z</time>
|
|
</trkpt>
|
|
<trkpt lat="55.928852" lon="8.150879">
|
|
<ele>3.208063</ele>
|
|
<time>2026-07-12T10:38:45.000Z</time>
|
|
</trkpt>
|
|
<trkpt lat="55.928894" lon="8.150869">
|
|
<ele>3.229809</ele>
|
|
<time>2026-07-12T10:38:46.000Z</time>
|
|
</trkpt>
|
|
<trkpt lat="55.928940" lon="8.150862">
|
|
<ele>3.253503</ele>
|
|
<time>2026-07-12T10:38:47.000Z</time>
|
|
</trkpt>
|
|
<trkpt lat="55.928986" lon="8.150853">
|
|
<ele>3.277252</ele>
|
|
<time>2026-07-12T10:38:48.000Z</time>
|
|
</trkpt>
|
|
<trkpt lat="55.929028" lon="8.150842">
|
|
<ele>3.299038</ele>
|
|
<time>2026-07-12T10:38:49.000Z</time>
|
|
</trkpt>
|
|
<trkpt lat="55.929070" lon="8.150829">
|
|
<ele>3.320914</ele>
|
|
<time>2026-07-12T10:38:50.000Z</time>
|
|
</trkpt>
|
|
<trkpt lat="55.929111" lon="8.150821">
|
|
<ele>3.342082</ele>
|
|
<time>2026-07-12T10:38:51.000Z</time>
|
|
</trkpt>
|
|
<trkpt lat="55.929153" lon="8.150815">
|
|
<ele>3.363706</ele>
|
|
<time>2026-07-12T10:38:52.000Z</time>
|
|
</trkpt>
|
|
<trkpt lat="55.929195" lon="8.150809">
|
|
<ele>3.385329</ele>
|
|
<time>2026-07-12T10:38:53.000Z</time>
|
|
</trkpt>
|
|
<trkpt lat="55.929237" lon="8.150802">
|
|
<ele>3.406978</ele>
|
|
<time>2026-07-12T10:38:54.000Z</time>
|
|
</trkpt>
|
|
<trkpt lat="55.929279" lon="8.150794">
|
|
<ele>3.428656</ele>
|
|
<time>2026-07-12T10:38:55.000Z</time>
|
|
</trkpt>
|
|
<trkpt lat="55.929321" lon="8.150789">
|
|
<ele>3.450259</ele>
|
|
<time>2026-07-12T10:38:56.000Z</time>
|
|
</trkpt>
|
|
<trkpt lat="55.929359" lon="8.150787">
|
|
<ele>3.469769</ele>
|
|
<time>2026-07-12T10:38:57.000Z</time>
|
|
</trkpt>
|
|
<trkpt lat="55.929401" lon="8.150785">
|
|
<ele>3.491332</ele>
|
|
<time>2026-07-12T10:38:58.000Z</time>
|
|
</trkpt>
|
|
<trkpt lat="55.929440" lon="8.150778">
|
|
<ele>3.511448</ele>
|
|
<time>2026-07-12T10:38:59.000Z</time>
|
|
</trkpt>
|
|
<trkpt lat="55.929481" lon="8.150766">
|
|
<ele>3.532771</ele>
|
|
<time>2026-07-12T10:39:00.000Z</time>
|
|
</trkpt>
|
|
<trkpt lat="55.929523" lon="8.150751">
|
|
<ele>3.554753</ele>
|
|
<time>2026-07-12T10:39:01.000Z</time>
|
|
</trkpt>
|
|
<trkpt lat="55.929565" lon="8.150733">
|
|
<ele>3.576921</ele>
|
|
<time>2026-07-12T10:39:02.000Z</time>
|
|
</trkpt>
|
|
<trkpt lat="55.929607" lon="8.150713">
|
|
<ele>3.599230</ele>
|
|
<time>2026-07-12T10:39:03.000Z</time>
|
|
</trkpt>
|
|
<trkpt lat="55.929653" lon="8.150696">
|
|
<ele>3.623338</ele>
|
|
<time>2026-07-12T10:39:04.000Z</time>
|
|
</trkpt>
|
|
<trkpt lat="55.929695" lon="8.150682">
|
|
<ele>3.645266</ele>
|
|
<time>2026-07-12T10:39:05.000Z</time>
|
|
</trkpt>
|
|
<trkpt lat="55.929741" lon="8.150672">
|
|
<ele>3.669048</ele>
|
|
<time>2026-07-12T10:39:06.000Z</time>
|
|
</trkpt>
|
|
<trkpt lat="55.929787" lon="8.150664">
|
|
<ele>3.692768</ele>
|
|
<time>2026-07-12T10:39:07.000Z</time>
|
|
</trkpt>
|
|
<trkpt lat="55.929829" lon="8.150661">
|
|
<ele>3.714340</ele>
|
|
<time>2026-07-12T10:39:08.000Z</time>
|
|
</trkpt>
|
|
<trkpt lat="55.929871" lon="8.150664">
|
|
<ele>3.735912</ele>
|
|
<time>2026-07-12T10:39:09.000Z</time>
|
|
</trkpt>
|
|
<trkpt lat="55.929916" lon="8.150675">
|
|
<ele>3.759223</ele>
|
|
<time>2026-07-12T10:39:10.000Z</time>
|
|
</trkpt>
|
|
<trkpt lat="55.929962" lon="8.150693">
|
|
<ele>3.783391</ele>
|
|
<time>2026-07-12T10:39:11.000Z</time>
|
|
</trkpt>
|
|
<trkpt lat="55.930004" lon="8.150718">
|
|
<ele>3.806113</ele>
|
|
<time>2026-07-12T10:39:12.000Z</time>
|
|
</trkpt>
|
|
<trkpt lat="55.930050" lon="8.150744">
|
|
<ele>3.830876</ele>
|
|
<time>2026-07-12T10:39:13.000Z</time>
|
|
</trkpt>
|
|
<trkpt lat="55.930092" lon="8.150768">
|
|
<ele>3.853509</ele>
|
|
<time>2026-07-12T10:39:14.000Z</time>
|
|
</trkpt>
|
|
<trkpt lat="55.930134" lon="8.150793">
|
|
<ele>3.876230</ele>
|
|
<time>2026-07-12T10:39:15.000Z</time>
|
|
</trkpt>
|
|
<trkpt lat="55.930176" lon="8.150816">
|
|
<ele>3.898777</ele>
|
|
<time>2026-07-12T10:39:16.000Z</time>
|
|
</trkpt>
|
|
<trkpt lat="55.930214" lon="8.150839">
|
|
<ele>3.919370</ele>
|
|
<time>2026-07-12T10:39:17.000Z</time>
|
|
</trkpt>
|
|
<trkpt lat="55.930256" lon="8.150864">
|
|
<ele>3.920610</ele>
|
|
<time>2026-07-12T10:39:18.000Z</time>
|
|
</trkpt>
|
|
<trkpt lat="55.930298" lon="8.150888">
|
|
<ele>3.907996</ele>
|
|
<time>2026-07-12T10:39:19.000Z</time>
|
|
</trkpt>
|
|
<trkpt lat="55.930340" lon="8.150911">
|
|
<ele>3.895429</ele>
|
|
<time>2026-07-12T10:39:20.000Z</time>
|
|
</trkpt>
|
|
<trkpt lat="55.930378" lon="8.150933">
|
|
<ele>3.884002</ele>
|
|
<time>2026-07-12T10:39:21.000Z</time>
|
|
</trkpt>
|
|
<trkpt lat="55.930416" lon="8.150950">
|
|
<ele>3.872796</ele>
|
|
<time>2026-07-12T10:39:22.000Z</time>
|
|
</trkpt>
|
|
<trkpt lat="55.930454" lon="8.150963">
|
|
<ele>3.861729</ele>
|
|
<time>2026-07-12T10:39:23.000Z</time>
|
|
</trkpt>
|
|
<trkpt lat="55.930489" lon="8.150976">
|
|
<ele>3.851503</ele>
|
|
<time>2026-07-12T10:39:24.000Z</time>
|
|
</trkpt>
|
|
<trkpt lat="55.930519" lon="8.150988">
|
|
<ele>3.842708</ele>
|
|
<time>2026-07-12T10:39:25.000Z</time>
|
|
</trkpt>
|
|
<trkpt lat="55.930546" lon="8.150995">
|
|
<ele>3.834904</ele>
|
|
<time>2026-07-12T10:39:26.000Z</time>
|
|
</trkpt>
|
|
<trkpt lat="55.930573" lon="8.151001">
|
|
<ele>3.827121</ele>
|
|
<time>2026-07-12T10:39:27.000Z</time>
|
|
</trkpt>
|
|
<trkpt lat="55.930599" lon="8.151007">
|
|
<ele>3.819622</ele>
|
|
<time>2026-07-12T10:39:28.000Z</time>
|
|
</trkpt>
|
|
<trkpt lat="55.930626" lon="8.151009">
|
|
<ele>3.811892</ele>
|
|
<time>2026-07-12T10:39:29.000Z</time>
|
|
</trkpt>
|
|
<trkpt lat="55.930656" lon="8.151007">
|
|
<ele>3.803305</ele>
|
|
<time>2026-07-12T10:39:30.000Z</time>
|
|
</trkpt>
|
|
<trkpt lat="55.930691" lon="8.150997">
|
|
<ele>3.793166</ele>
|
|
<time>2026-07-12T10:39:31.000Z</time>
|
|
</trkpt>
|
|
<trkpt lat="55.930729" lon="8.150973">
|
|
<ele>3.781636</ele>
|
|
<time>2026-07-12T10:39:32.000Z</time>
|
|
</trkpt>
|
|
<trkpt lat="55.930767" lon="8.150940">
|
|
<ele>3.769548</ele>
|
|
<time>2026-07-12T10:39:33.000Z</time>
|
|
</trkpt>
|
|
<trkpt lat="55.930809" lon="8.150897">
|
|
<ele>3.755698</ele>
|
|
<time>2026-07-12T10:39:34.000Z</time>
|
|
</trkpt>
|
|
<trkpt lat="55.930855" lon="8.150846">
|
|
<ele>3.740209</ele>
|
|
<time>2026-07-12T10:39:35.000Z</time>
|
|
</trkpt>
|
|
<trkpt lat="55.930904" lon="8.150793">
|
|
<ele>3.723820</ele>
|
|
<time>2026-07-12T10:39:36.000Z</time>
|
|
</trkpt>
|
|
<trkpt lat="55.930958" lon="8.150739">
|
|
<ele>3.706115</ele>
|
|
<time>2026-07-12T10:39:37.000Z</time>
|
|
</trkpt>
|
|
<trkpt lat="55.931007" lon="8.150689">
|
|
<ele>3.689971</ele>
|
|
<time>2026-07-12T10:39:38.000Z</time>
|
|
</trkpt>
|
|
<trkpt lat="55.931053" lon="8.150645">
|
|
<ele>3.675043</ele>
|
|
<time>2026-07-12T10:39:39.000Z</time>
|
|
</trkpt>
|
|
<trkpt lat="55.931099" lon="8.150606">
|
|
<ele>3.660476</ele>
|
|
<time>2026-07-12T10:39:40.000Z</time>
|
|
</trkpt>
|
|
<trkpt lat="55.931145" lon="8.150570">
|
|
<ele>3.646109</ele>
|
|
<time>2026-07-12T10:39:41.000Z</time>
|
|
</trkpt>
|
|
<trkpt lat="55.931187" lon="8.150537">
|
|
<ele>3.632983</ele>
|
|
<time>2026-07-12T10:39:42.000Z</time>
|
|
</trkpt>
|
|
<trkpt lat="55.931229" lon="8.150511">
|
|
<ele>3.620267</ele>
|
|
<time>2026-07-12T10:39:43.000Z</time>
|
|
</trkpt>
|
|
<trkpt lat="55.931263" lon="8.150486">
|
|
<ele>3.609749</ele>
|
|
<time>2026-07-12T10:39:44.000Z</time>
|
|
</trkpt>
|
|
<trkpt lat="55.931297" lon="8.150460">
|
|
<ele>3.599168</ele>
|
|
<time>2026-07-12T10:39:45.000Z</time>
|
|
</trkpt>
|
|
<trkpt lat="55.931332" lon="8.150434">
|
|
<ele>3.588324</ele>
|
|
<time>2026-07-12T10:39:46.000Z</time>
|
|
</trkpt>
|
|
<trkpt lat="55.931366" lon="8.150407">
|
|
<ele>3.577680</ele>
|
|
<time>2026-07-12T10:39:47.000Z</time>
|
|
</trkpt>
|
|
<trkpt lat="55.931400" lon="8.150380">
|
|
<ele>3.567035</ele>
|
|
<time>2026-07-12T10:39:48.000Z</time>
|
|
</trkpt>
|
|
<trkpt lat="55.931435" lon="8.150354">
|
|
<ele>3.556192</ele>
|
|
<time>2026-07-12T10:39:49.000Z</time>
|
|
</trkpt>
|
|
<trkpt lat="55.931465" lon="8.150330">
|
|
<ele>3.546788</ele>
|
|
<time>2026-07-12T10:39:50.000Z</time>
|
|
</trkpt>
|
|
<trkpt lat="55.931499" lon="8.150303">
|
|
<ele>3.536143</ele>
|
|
<time>2026-07-12T10:39:51.000Z</time>
|
|
</trkpt>
|
|
<trkpt lat="55.931534" lon="8.150276">
|
|
<ele>3.525237</ele>
|
|
<time>2026-07-12T10:39:52.000Z</time>
|
|
</trkpt>
|
|
<trkpt lat="55.931568" lon="8.150247">
|
|
<ele>3.514458</ele>
|
|
<time>2026-07-12T10:39:53.000Z</time>
|
|
</trkpt>
|
|
<trkpt lat="55.931603" lon="8.150216">
|
|
<ele>3.503282</ele>
|
|
<time>2026-07-12T10:39:54.000Z</time>
|
|
</trkpt>
|
|
<trkpt lat="55.931637" lon="8.150187">
|
|
<ele>3.492503</ele>
|
|
<time>2026-07-12T10:39:55.000Z</time>
|
|
</trkpt>
|
|
<trkpt lat="55.931664" lon="8.150162">
|
|
<ele>3.483803</ele>
|
|
<time>2026-07-12T10:39:56.000Z</time>
|
|
</trkpt>
|
|
<trkpt lat="55.931690" lon="8.150141">
|
|
<ele>3.475640</ele>
|
|
<time>2026-07-12T10:39:57.000Z</time>
|
|
</trkpt>
|
|
<trkpt lat="55.931717" lon="8.150119">
|
|
<ele>3.467150</ele>
|
|
<time>2026-07-12T10:39:58.000Z</time>
|
|
</trkpt>
|
|
<trkpt lat="55.931747" lon="8.150093">
|
|
<ele>3.457611</ele>
|
|
<time>2026-07-12T10:39:59.000Z</time>
|
|
</trkpt>
|
|
<trkpt lat="55.931786" lon="8.150066">
|
|
<ele>3.445646</ele>
|
|
<time>2026-07-12T10:40:00.000Z</time>
|
|
</trkpt>
|
|
<trkpt lat="55.931824" lon="8.150042">
|
|
<ele>3.434116</ele>
|
|
<time>2026-07-12T10:40:01.000Z</time>
|
|
</trkpt>
|
|
<trkpt lat="55.931862" lon="8.150021">
|
|
<ele>3.422737</ele>
|
|
<time>2026-07-12T10:40:02.000Z</time>
|
|
</trkpt>
|
|
<trkpt lat="55.931896" lon="8.150003">
|
|
<ele>3.412500</ele>
|
|
<time>2026-07-12T10:40:03.000Z</time>
|
|
</trkpt>
|
|
<trkpt lat="55.931931" lon="8.149994">
|
|
<ele>3.401607</ele>
|
|
<time>2026-07-12T10:40:04.000Z</time>
|
|
</trkpt>
|
|
<trkpt lat="55.931969" lon="8.149989">
|
|
<ele>3.389869</ele>
|
|
<time>2026-07-12T10:40:05.000Z</time>
|
|
</trkpt>
|
|
<trkpt lat="55.932007" lon="8.149989">
|
|
<ele>3.378163</ele>
|
|
<time>2026-07-12T10:40:06.000Z</time>
|
|
</trkpt>
|
|
<trkpt lat="55.932045" lon="8.149992">
|
|
<ele>3.366446</ele>
|
|
<time>2026-07-12T10:40:07.000Z</time>
|
|
</trkpt>
|
|
<trkpt lat="55.932087" lon="8.149999">
|
|
<ele>3.353451</ele>
|
|
<time>2026-07-12T10:40:08.000Z</time>
|
|
</trkpt>
|
|
<trkpt lat="55.932129" lon="8.150008">
|
|
<ele>3.340420</ele>
|
|
<time>2026-07-12T10:40:09.000Z</time>
|
|
</trkpt>
|
|
<trkpt lat="55.932175" lon="8.150017">
|
|
<ele>3.326165</ele>
|
|
<time>2026-07-12T10:40:10.000Z</time>
|
|
</trkpt>
|
|
<trkpt lat="55.932224" lon="8.150023">
|
|
<ele>3.311035</ele>
|
|
<time>2026-07-12T10:40:11.000Z</time>
|
|
</trkpt>
|
|
<trkpt lat="55.932270" lon="8.150026">
|
|
<ele>3.296856</ele>
|
|
<time>2026-07-12T10:40:12.000Z</time>
|
|
</trkpt>
|
|
<trkpt lat="55.932320" lon="8.150026">
|
|
<ele>3.281453</ele>
|
|
<time>2026-07-12T10:40:13.000Z</time>
|
|
</trkpt>
|
|
<trkpt lat="55.932369" lon="8.150026">
|
|
<ele>3.266359</ele>
|
|
<time>2026-07-12T10:40:14.000Z</time>
|
|
</trkpt>
|
|
<trkpt lat="55.932415" lon="8.150026">
|
|
<ele>3.252189</ele>
|
|
<time>2026-07-12T10:40:15.000Z</time>
|
|
</trkpt>
|
|
<trkpt lat="55.932465" lon="8.150023">
|
|
<ele>3.236777</ele>
|
|
<time>2026-07-12T10:40:16.000Z</time>
|
|
</trkpt>
|
|
<trkpt lat="55.932514" lon="8.150021">
|
|
<ele>3.221679</ele>
|
|
<time>2026-07-12T10:40:17.000Z</time>
|
|
</trkpt>
|
|
<trkpt lat="55.932560" lon="8.150019">
|
|
<ele>3.207504</ele>
|
|
<time>2026-07-12T10:40:18.000Z</time>
|
|
</trkpt>
|
|
<trkpt lat="55.932602" lon="8.150021">
|
|
<ele>3.194562</ele>
|
|
<time>2026-07-12T10:40:19.000Z</time>
|
|
</trkpt>
|
|
<trkpt lat="55.932644" lon="8.150032">
|
|
<ele>3.181485</ele>
|
|
<time>2026-07-12T10:40:20.000Z</time>
|
|
</trkpt>
|
|
<trkpt lat="55.932686" lon="8.150058">
|
|
<ele>3.167791</ele>
|
|
<time>2026-07-12T10:40:21.000Z</time>
|
|
</trkpt>
|
|
<trkpt lat="55.932728" lon="8.150097">
|
|
<ele>3.153208</ele>
|
|
<time>2026-07-12T10:40:22.000Z</time>
|
|
</trkpt>
|
|
<trkpt lat="55.932770" lon="8.150145">
|
|
<ele>3.137845</ele>
|
|
<time>2026-07-12T10:40:23.000Z</time>
|
|
</trkpt>
|
|
<trkpt lat="55.932808" lon="8.150194">
|
|
<ele>3.123405</ele>
|
|
<time>2026-07-12T10:40:24.000Z</time>
|
|
</trkpt>
|
|
<trkpt lat="55.932850" lon="8.150239">
|
|
<ele>3.108316</ele>
|
|
<time>2026-07-12T10:40:25.000Z</time>
|
|
</trkpt>
|
|
<trkpt lat="55.932892" lon="8.150276">
|
|
<ele>3.093888</ele>
|
|
<time>2026-07-12T10:40:26.000Z</time>
|
|
</trkpt>
|
|
<trkpt lat="55.932938" lon="8.150303">
|
|
<ele>3.078971</ele>
|
|
<time>2026-07-12T10:40:27.000Z</time>
|
|
</trkpt>
|
|
<trkpt lat="55.932983" lon="8.150318">
|
|
<ele>3.064870</ele>
|
|
<time>2026-07-12T10:40:28.000Z</time>
|
|
</trkpt>
|
|
<trkpt lat="55.933025" lon="8.150324">
|
|
<ele>3.051890</ele>
|
|
<time>2026-07-12T10:40:29.000Z</time>
|
|
</trkpt>
|
|
<trkpt lat="55.933071" lon="8.150321">
|
|
<ele>3.037710</ele>
|
|
<time>2026-07-12T10:40:30.000Z</time>
|
|
</trkpt>
|
|
<trkpt lat="55.933117" lon="8.150312">
|
|
<ele>3.023455</ele>
|
|
<time>2026-07-12T10:40:31.000Z</time>
|
|
</trkpt>
|
|
<trkpt lat="55.933159" lon="8.150310">
|
|
<ele>3.010513</ele>
|
|
<time>2026-07-12T10:40:32.000Z</time>
|
|
</trkpt>
|
|
<trkpt lat="55.933205" lon="8.150313">
|
|
<ele>2.996333</ele>
|
|
<time>2026-07-12T10:40:33.000Z</time>
|
|
</trkpt>
|
|
<trkpt lat="55.933250" lon="8.150322">
|
|
<ele>2.982384</ele>
|
|
<time>2026-07-12T10:40:34.000Z</time>
|
|
</trkpt>
|
|
<trkpt lat="55.933296" lon="8.150331">
|
|
<ele>2.968129</ele>
|
|
<time>2026-07-12T10:40:35.000Z</time>
|
|
</trkpt>
|
|
<trkpt lat="55.933346" lon="8.150342">
|
|
<ele>2.952610</ele>
|
|
<time>2026-07-12T10:40:36.000Z</time>
|
|
</trkpt>
|
|
<trkpt lat="55.933392" lon="8.150355">
|
|
<ele>2.938263</ele>
|
|
<time>2026-07-12T10:40:37.000Z</time>
|
|
</trkpt>
|
|
<trkpt lat="55.933437" lon="8.150369">
|
|
<ele>2.924192</ele>
|
|
<time>2026-07-12T10:40:38.000Z</time>
|
|
</trkpt>
|
|
<trkpt lat="55.933483" lon="8.150387">
|
|
<ele>2.909685</ele>
|
|
<time>2026-07-12T10:40:39.000Z</time>
|
|
</trkpt>
|
|
<trkpt lat="55.933533" lon="8.150405">
|
|
<ele>2.893973</ele>
|
|
<time>2026-07-12T10:40:40.000Z</time>
|
|
</trkpt>
|
|
<trkpt lat="55.933582" lon="8.150414">
|
|
<ele>2.878799</ele>
|
|
<time>2026-07-12T10:40:41.000Z</time>
|
|
</trkpt>
|
|
<trkpt lat="55.933628" lon="8.150414">
|
|
<ele>2.864628</ele>
|
|
<time>2026-07-12T10:40:42.000Z</time>
|
|
</trkpt>
|
|
<trkpt lat="55.933674" lon="8.150404">
|
|
<ele>2.857127</ele>
|
|
<time>2026-07-12T10:40:43.000Z</time>
|
|
</trkpt>
|
|
<trkpt lat="55.933720" lon="8.150389">
|
|
<ele>2.853127</ele>
|
|
<time>2026-07-12T10:40:44.000Z</time>
|
|
</trkpt>
|
|
<trkpt lat="55.933762" lon="8.150364">
|
|
<ele>2.849339</ele>
|
|
<time>2026-07-12T10:40:45.000Z</time>
|
|
</trkpt>
|
|
<trkpt lat="55.933804" lon="8.150332">
|
|
<ele>2.845433</ele>
|
|
<time>2026-07-12T10:40:46.000Z</time>
|
|
</trkpt>
|
|
<trkpt lat="55.933838" lon="8.150302">
|
|
<ele>2.842188</ele>
|
|
<time>2026-07-12T10:40:47.000Z</time>
|
|
</trkpt>
|
|
<trkpt lat="55.933880" lon="8.150285">
|
|
<ele>2.838504</ele>
|
|
<time>2026-07-12T10:40:48.000Z</time>
|
|
</trkpt>
|
|
<trkpt lat="55.933922" lon="8.150290">
|
|
<ele>2.834903</ele>
|
|
<time>2026-07-12T10:40:49.000Z</time>
|
|
</trkpt>
|
|
<trkpt lat="55.933960" lon="8.150318">
|
|
<ele>2.831386</ele>
|
|
<time>2026-07-12T10:40:50.000Z</time>
|
|
</trkpt>
|
|
<trkpt lat="55.933994" lon="8.150358">
|
|
<ele>2.827902</ele>
|
|
<time>2026-07-12T10:40:51.000Z</time>
|
|
</trkpt>
|
|
<trkpt lat="55.934029" lon="8.150404">
|
|
<ele>2.824184</ele>
|
|
<time>2026-07-12T10:40:52.000Z</time>
|
|
</trkpt>
|
|
<trkpt lat="55.934063" lon="8.150447">
|
|
<ele>2.820620</ele>
|
|
<time>2026-07-12T10:40:53.000Z</time>
|
|
</trkpt>
|
|
<trkpt lat="55.934105" lon="8.150484">
|
|
<ele>2.816613</ele>
|
|
<time>2026-07-12T10:40:54.000Z</time>
|
|
</trkpt>
|
|
<trkpt lat="55.934147" lon="8.150514">
|
|
<ele>2.812743</ele>
|
|
<time>2026-07-12T10:40:55.000Z</time>
|
|
</trkpt>
|
|
<trkpt lat="55.934193" lon="8.150535">
|
|
<ele>2.808681</ele>
|
|
<time>2026-07-12T10:40:56.000Z</time>
|
|
</trkpt>
|
|
<trkpt lat="55.934242" lon="8.150547">
|
|
<ele>2.804450</ele>
|
|
<time>2026-07-12T10:40:57.000Z</time>
|
|
</trkpt>
|
|
<trkpt lat="55.934292" lon="8.150550">
|
|
<ele>2.800170</ele>
|
|
<time>2026-07-12T10:40:58.000Z</time>
|
|
</trkpt>
|
|
<trkpt lat="55.934341" lon="8.150541">
|
|
<ele>2.795956</ele>
|
|
<time>2026-07-12T10:40:59.000Z</time>
|
|
</trkpt>
|
|
<trkpt lat="55.934387" lon="8.150527">
|
|
<ele>2.791963</ele>
|
|
<time>2026-07-12T10:41:00.000Z</time>
|
|
</trkpt>
|
|
<trkpt lat="55.934437" lon="8.150510">
|
|
<ele>2.787609</ele>
|
|
<time>2026-07-12T10:41:01.000Z</time>
|
|
</trkpt>
|
|
<trkpt lat="55.934483" lon="8.150496">
|
|
<ele>2.783617</ele>
|
|
<time>2026-07-12T10:41:02.000Z</time>
|
|
</trkpt>
|
|
<trkpt lat="55.934528" lon="8.150490">
|
|
<ele>2.779757</ele>
|
|
<time>2026-07-12T10:41:03.000Z</time>
|
|
</trkpt>
|
|
<trkpt lat="55.934574" lon="8.150497">
|
|
<ele>2.775807</ele>
|
|
<time>2026-07-12T10:41:04.000Z</time>
|
|
</trkpt>
|
|
<trkpt lat="55.934620" lon="8.150517">
|
|
<ele>2.771757</ele>
|
|
<time>2026-07-12T10:41:05.000Z</time>
|
|
</trkpt>
|
|
<trkpt lat="55.934662" lon="8.150549">
|
|
<ele>2.767850</ele>
|
|
<time>2026-07-12T10:41:06.000Z</time>
|
|
</trkpt>
|
|
<trkpt lat="55.934704" lon="8.150587">
|
|
<ele>2.763822</ele>
|
|
<time>2026-07-12T10:41:07.000Z</time>
|
|
</trkpt>
|
|
<trkpt lat="55.934746" lon="8.150626">
|
|
<ele>2.759772</ele>
|
|
<time>2026-07-12T10:41:08.000Z</time>
|
|
</trkpt>
|
|
<trkpt lat="55.934784" lon="8.150665">
|
|
<ele>2.756022</ele>
|
|
<time>2026-07-12T10:41:09.000Z</time>
|
|
</trkpt>
|
|
<trkpt lat="55.934830" lon="8.150704">
|
|
<ele>2.751665</ele>
|
|
<time>2026-07-12T10:41:10.000Z</time>
|
|
</trkpt>
|
|
<trkpt lat="55.934872" lon="8.150741">
|
|
<ele>2.747659</ele>
|
|
<time>2026-07-12T10:41:11.000Z</time>
|
|
</trkpt>
|
|
<trkpt lat="55.934914" lon="8.150778">
|
|
<ele>2.743652</ele>
|
|
<time>2026-07-12T10:41:12.000Z</time>
|
|
</trkpt>
|
|
<trkpt lat="55.934959" lon="8.150818">
|
|
<ele>2.739351</ele>
|
|
<time>2026-07-12T10:41:13.000Z</time>
|
|
</trkpt>
|
|
<trkpt lat="55.935001" lon="8.150856">
|
|
<ele>2.735323</ele>
|
|
<time>2026-07-12T10:41:14.000Z</time>
|
|
</trkpt>
|
|
<trkpt lat="55.935047" lon="8.150893">
|
|
<ele>2.731007</ele>
|
|
<time>2026-07-12T10:41:15.000Z</time>
|
|
</trkpt>
|
|
<trkpt lat="55.935093" lon="8.150929">
|
|
<ele>2.726710</ele>
|
|
<time>2026-07-12T10:41:16.000Z</time>
|
|
</trkpt>
|
|
<trkpt lat="55.935139" lon="8.150963">
|
|
<ele>2.722451</ele>
|
|
<time>2026-07-12T10:41:17.000Z</time>
|
|
</trkpt>
|
|
<trkpt lat="55.935185" lon="8.150997">
|
|
<ele>2.718191</ele>
|
|
<time>2026-07-12T10:41:18.000Z</time>
|
|
</trkpt>
|
|
<trkpt lat="55.935230" lon="8.151032">
|
|
<ele>2.713992</ele>
|
|
<time>2026-07-12T10:41:19.000Z</time>
|
|
</trkpt>
|
|
<trkpt lat="55.935276" lon="8.151068">
|
|
<ele>2.709695</ele>
|
|
<time>2026-07-12T10:41:20.000Z</time>
|
|
</trkpt>
|
|
<trkpt lat="55.935322" lon="8.151104">
|
|
<ele>2.708786</ele>
|
|
<time>2026-07-12T10:41:21.000Z</time>
|
|
</trkpt>
|
|
<trkpt lat="55.935368" lon="8.151139">
|
|
<ele>2.736079</ele>
|
|
<time>2026-07-12T10:41:22.000Z</time>
|
|
</trkpt>
|
|
<trkpt lat="55.935410" lon="8.151176">
|
|
<ele>2.761643</ele>
|
|
<time>2026-07-12T10:41:23.000Z</time>
|
|
</trkpt>
|
|
<trkpt lat="55.935455" lon="8.151212">
|
|
<ele>2.788559</ele>
|
|
<time>2026-07-12T10:41:24.000Z</time>
|
|
</trkpt>
|
|
<trkpt lat="55.935501" lon="8.151245">
|
|
<ele>2.815618</ele>
|
|
<time>2026-07-12T10:41:25.000Z</time>
|
|
</trkpt>
|
|
<trkpt lat="55.935547" lon="8.151278">
|
|
<ele>2.842678</ele>
|
|
<time>2026-07-12T10:41:26.000Z</time>
|
|
</trkpt>
|
|
<trkpt lat="55.935589" lon="8.151309">
|
|
<ele>2.867484</ele>
|
|
<time>2026-07-12T10:41:27.000Z</time>
|
|
</trkpt>
|
|
<trkpt lat="55.935635" lon="8.151340">
|
|
<ele>2.894322</ele>
|
|
<time>2026-07-12T10:41:28.000Z</time>
|
|
</trkpt>
|
|
<trkpt lat="55.935680" lon="8.151369">
|
|
<ele>2.920435</ele>
|
|
<time>2026-07-12T10:41:29.000Z</time>
|
|
</trkpt>
|
|
<trkpt lat="55.935722" lon="8.151397">
|
|
<ele>2.944906</ele>
|
|
<time>2026-07-12T10:41:30.000Z</time>
|
|
</trkpt>
|
|
<trkpt lat="55.935768" lon="8.151421">
|
|
<ele>2.971065</ele>
|
|
<time>2026-07-12T10:41:31.000Z</time>
|
|
</trkpt>
|
|
<trkpt lat="55.935814" lon="8.151440">
|
|
<ele>2.996836</ele>
|
|
<time>2026-07-12T10:41:32.000Z</time>
|
|
</trkpt>
|
|
<trkpt lat="55.935856" lon="8.151455">
|
|
<ele>3.020215</ele>
|
|
<time>2026-07-12T10:41:33.000Z</time>
|
|
</trkpt>
|
|
<trkpt lat="55.935902" lon="8.151466">
|
|
<ele>3.045548</ele>
|
|
<time>2026-07-12T10:41:34.000Z</time>
|
|
</trkpt>
|
|
<trkpt lat="55.935944" lon="8.151474">
|
|
<ele>3.068602</ele>
|
|
<time>2026-07-12T10:41:35.000Z</time>
|
|
</trkpt>
|
|
<trkpt lat="55.935989" lon="8.151476">
|
|
<ele>3.093172</ele>
|
|
<time>2026-07-12T10:41:36.000Z</time>
|
|
</trkpt>
|
|
<trkpt lat="55.936035" lon="8.151472">
|
|
<ele>3.118310</ele>
|
|
<time>2026-07-12T10:41:37.000Z</time>
|
|
</trkpt>
|
|
<trkpt lat="55.936077" lon="8.151464">
|
|
<ele>3.141365</ele>
|
|
<time>2026-07-12T10:41:38.000Z</time>
|
|
</trkpt>
|
|
<trkpt lat="55.936119" lon="8.151454">
|
|
<ele>3.164493</ele>
|
|
<time>2026-07-12T10:41:39.000Z</time>
|
|
</trkpt>
|
|
<trkpt lat="55.936165" lon="8.151442">
|
|
<ele>3.189868</ele>
|
|
<time>2026-07-12T10:41:40.000Z</time>
|
|
</trkpt>
|
|
<trkpt lat="55.936211" lon="8.151427">
|
|
<ele>3.215391</ele>
|
|
<time>2026-07-12T10:41:41.000Z</time>
|
|
</trkpt>
|
|
<trkpt lat="55.936253" lon="8.151409">
|
|
<ele>3.238967</ele>
|
|
<time>2026-07-12T10:41:42.000Z</time>
|
|
</trkpt>
|
|
<trkpt lat="55.936291" lon="8.151385">
|
|
<ele>3.260968</ele>
|
|
<time>2026-07-12T10:41:43.000Z</time>
|
|
</trkpt>
|
|
<trkpt lat="55.936325" lon="8.151356">
|
|
<ele>3.281536</ele>
|
|
<time>2026-07-12T10:41:44.000Z</time>
|
|
</trkpt>
|
|
<trkpt lat="55.936359" lon="8.151321">
|
|
<ele>3.302958</ele>
|
|
<time>2026-07-12T10:41:45.000Z</time>
|
|
</trkpt>
|
|
<trkpt lat="55.936390" lon="8.151282">
|
|
<ele>3.323658</ele>
|
|
<time>2026-07-12T10:41:46.000Z</time>
|
|
</trkpt>
|
|
<trkpt lat="55.936420" lon="8.151238">
|
|
<ele>3.344849</ele>
|
|
<time>2026-07-12T10:41:47.000Z</time>
|
|
</trkpt>
|
|
<trkpt lat="55.936451" lon="8.151185">
|
|
<ele>3.368277</ele>
|
|
<time>2026-07-12T10:41:48.000Z</time>
|
|
</trkpt>
|
|
<trkpt lat="55.936478" lon="8.151131">
|
|
<ele>3.390407</ele>
|
|
<time>2026-07-12T10:41:49.000Z</time>
|
|
</trkpt>
|
|
<trkpt lat="55.936501" lon="8.151075">
|
|
<ele>3.411637</ele>
|
|
<time>2026-07-12T10:41:50.000Z</time>
|
|
</trkpt>
|
|
<trkpt lat="55.936520" lon="8.151020">
|
|
<ele>3.431393</ele>
|
|
<time>2026-07-12T10:41:51.000Z</time>
|
|
</trkpt>
|
|
<trkpt lat="55.936539" lon="8.150964">
|
|
<ele>3.451410</ele>
|
|
<time>2026-07-12T10:41:52.000Z</time>
|
|
</trkpt>
|
|
<trkpt lat="55.936558" lon="8.150905">
|
|
<ele>3.472217</ele>
|
|
<time>2026-07-12T10:41:53.000Z</time>
|
|
</trkpt>
|
|
<trkpt lat="55.936577" lon="8.150845">
|
|
<ele>3.493289</ele>
|
|
<time>2026-07-12T10:41:54.000Z</time>
|
|
</trkpt>
|
|
<trkpt lat="55.936600" lon="8.150786">
|
|
<ele>3.515265</ele>
|
|
<time>2026-07-12T10:41:55.000Z</time>
|
|
</trkpt>
|
|
<trkpt lat="55.936623" lon="8.150729">
|
|
<ele>3.536743</ele>
|
|
<time>2026-07-12T10:41:56.000Z</time>
|
|
</trkpt>
|
|
<trkpt lat="55.936649" lon="8.150670">
|
|
<ele>3.559694</ele>
|
|
<time>2026-07-12T10:41:57.000Z</time>
|
|
</trkpt>
|
|
<trkpt lat="55.936676" lon="8.150611">
|
|
<ele>3.582987</ele>
|
|
<time>2026-07-12T10:41:58.000Z</time>
|
|
</trkpt>
|
|
<trkpt lat="55.936703" lon="8.150553">
|
|
<ele>3.606043</ele>
|
|
<time>2026-07-12T10:41:59.000Z</time>
|
|
</trkpt>
|
|
<trkpt lat="55.936729" lon="8.150502">
|
|
<ele>3.627127</ele>
|
|
<time>2026-07-12T10:42:00.000Z</time>
|
|
</trkpt>
|
|
<trkpt lat="55.936756" lon="8.150455">
|
|
<ele>3.647710</ele>
|
|
<time>2026-07-12T10:42:01.000Z</time>
|
|
</trkpt>
|
|
<trkpt lat="55.936783" lon="8.150402">
|
|
<ele>3.669613</ele>
|
|
<time>2026-07-12T10:42:02.000Z</time>
|
|
</trkpt>
|
|
<trkpt lat="55.936810" lon="8.150358">
|
|
<ele>3.687742</ele>
|
|
<time>2026-07-12T10:42:03.000Z</time>
|
|
</trkpt>
|
|
<trkpt lat="55.936836" lon="8.150311">
|
|
<ele>3.689106</ele>
|
|
<time>2026-07-12T10:42:04.000Z</time>
|
|
</trkpt>
|
|
<trkpt lat="55.936863" lon="8.150262">
|
|
<ele>3.690526</ele>
|
|
<time>2026-07-12T10:42:05.000Z</time>
|
|
</trkpt>
|
|
<trkpt lat="55.936890" lon="8.150210">
|
|
<ele>3.691991</ele>
|
|
<time>2026-07-12T10:42:06.000Z</time>
|
|
</trkpt>
|
|
<trkpt lat="55.936920" lon="8.150161">
|
|
<ele>3.693490</ele>
|
|
<time>2026-07-12T10:42:07.000Z</time>
|
|
</trkpt>
|
|
<trkpt lat="55.936951" lon="8.150113">
|
|
<ele>3.695003</ele>
|
|
<time>2026-07-12T10:42:08.000Z</time>
|
|
</trkpt>
|
|
<trkpt lat="55.936981" lon="8.150065">
|
|
<ele>3.696489</ele>
|
|
<time>2026-07-12T10:42:09.000Z</time>
|
|
</trkpt>
|
|
<trkpt lat="55.937012" lon="8.150019">
|
|
<ele>3.697975</ele>
|
|
<time>2026-07-12T10:42:10.000Z</time>
|
|
</trkpt>
|
|
<trkpt lat="55.937038" lon="8.149975">
|
|
<ele>3.699296</ele>
|
|
<time>2026-07-12T10:42:11.000Z</time>
|
|
</trkpt>
|
|
<trkpt lat="55.937069" lon="8.149929">
|
|
<ele>3.700783</ele>
|
|
<time>2026-07-12T10:42:12.000Z</time>
|
|
</trkpt>
|
|
<trkpt lat="55.937099" lon="8.149880">
|
|
<ele>3.702282</ele>
|
|
<time>2026-07-12T10:42:13.000Z</time>
|
|
</trkpt>
|
|
<trkpt lat="55.937134" lon="8.149830">
|
|
<ele>3.703935</ele>
|
|
<time>2026-07-12T10:42:14.000Z</time>
|
|
</trkpt>
|
|
<trkpt lat="55.937168" lon="8.149779">
|
|
<ele>3.705572</ele>
|
|
<time>2026-07-12T10:42:15.000Z</time>
|
|
</trkpt>
|
|
<trkpt lat="55.937206" lon="8.149735">
|
|
<ele>3.707243</ele>
|
|
<time>2026-07-12T10:42:16.000Z</time>
|
|
</trkpt>
|
|
<trkpt lat="55.937244" lon="8.149699">
|
|
<ele>3.708829</ele>
|
|
<time>2026-07-12T10:42:17.000Z</time>
|
|
</trkpt>
|
|
<trkpt lat="55.937279" lon="8.149672">
|
|
<ele>3.710235</ele>
|
|
<time>2026-07-12T10:42:18.000Z</time>
|
|
</trkpt>
|
|
<trkpt lat="55.937313" lon="8.149655">
|
|
<ele>3.711537</ele>
|
|
<time>2026-07-12T10:42:19.000Z</time>
|
|
</trkpt>
|
|
<trkpt lat="55.937344" lon="8.149646">
|
|
<ele>3.712695</ele>
|
|
<time>2026-07-12T10:42:20.000Z</time>
|
|
</trkpt>
|
|
<trkpt lat="55.937378" lon="8.149643">
|
|
<ele>3.713950</ele>
|
|
<time>2026-07-12T10:42:21.000Z</time>
|
|
</trkpt>
|
|
<trkpt lat="55.937412" lon="8.149639">
|
|
<ele>3.715207</ele>
|
|
<time>2026-07-12T10:42:22.000Z</time>
|
|
</trkpt>
|
|
<trkpt lat="55.937450" lon="8.149631">
|
|
<ele>3.716618</ele>
|
|
<time>2026-07-12T10:42:23.000Z</time>
|
|
</trkpt>
|
|
<trkpt lat="55.937489" lon="8.149618">
|
|
<ele>3.718081</ele>
|
|
<time>2026-07-12T10:42:24.000Z</time>
|
|
</trkpt>
|
|
<trkpt lat="55.937531" lon="8.149604">
|
|
<ele>3.719656</ele>
|
|
<time>2026-07-12T10:42:25.000Z</time>
|
|
</trkpt>
|
|
<trkpt lat="55.937576" lon="8.149587">
|
|
<ele>3.721353</ele>
|
|
<time>2026-07-12T10:42:26.000Z</time>
|
|
</trkpt>
|
|
<trkpt lat="55.937618" lon="8.149571">
|
|
<ele>3.722936</ele>
|
|
<time>2026-07-12T10:42:27.000Z</time>
|
|
</trkpt>
|
|
<trkpt lat="55.937664" lon="8.149556">
|
|
<ele>3.724661</ele>
|
|
<time>2026-07-12T10:42:28.000Z</time>
|
|
</trkpt>
|
|
<trkpt lat="55.937706" lon="8.149545">
|
|
<ele>3.726226</ele>
|
|
<time>2026-07-12T10:42:29.000Z</time>
|
|
</trkpt>
|
|
<trkpt lat="55.937740" lon="8.149535">
|
|
<ele>3.727497</ele>
|
|
<time>2026-07-12T10:42:30.000Z</time>
|
|
</trkpt>
|
|
<trkpt lat="55.937775" lon="8.149528">
|
|
<ele>3.728795</ele>
|
|
<time>2026-07-12T10:42:31.000Z</time>
|
|
</trkpt>
|
|
<trkpt lat="55.937801" lon="8.149521">
|
|
<ele>3.729765</ele>
|
|
<time>2026-07-12T10:42:32.000Z</time>
|
|
</trkpt>
|
|
<trkpt lat="55.937824" lon="8.149518">
|
|
<ele>3.730615</ele>
|
|
<time>2026-07-12T10:42:33.000Z</time>
|
|
</trkpt>
|
|
<trkpt lat="55.937847" lon="8.149518">
|
|
<ele>3.731464</ele>
|
|
<time>2026-07-12T10:42:34.000Z</time>
|
|
</trkpt>
|
|
<trkpt lat="55.937874" lon="8.149517">
|
|
<ele>3.732459</ele>
|
|
<time>2026-07-12T10:42:35.000Z</time>
|
|
</trkpt>
|
|
<trkpt lat="55.937904" lon="8.149514">
|
|
<ele>3.733567</ele>
|
|
<time>2026-07-12T10:42:36.000Z</time>
|
|
</trkpt>
|
|
<trkpt lat="55.937935" lon="8.149511">
|
|
<ele>3.734712</ele>
|
|
<time>2026-07-12T10:42:37.000Z</time>
|
|
</trkpt>
|
|
<trkpt lat="55.937965" lon="8.149504">
|
|
<ele>3.735828</ele>
|
|
<time>2026-07-12T10:42:38.000Z</time>
|
|
</trkpt>
|
|
<trkpt lat="55.938000" lon="8.149487">
|
|
<ele>3.737166</ele>
|
|
<time>2026-07-12T10:42:39.000Z</time>
|
|
</trkpt>
|
|
<trkpt lat="55.938034" lon="8.149461">
|
|
<ele>3.738529</ele>
|
|
<time>2026-07-12T10:42:40.000Z</time>
|
|
</trkpt>
|
|
<trkpt lat="55.938061" lon="8.149425">
|
|
<ele>3.739772</ele>
|
|
<time>2026-07-12T10:42:41.000Z</time>
|
|
</trkpt>
|
|
<trkpt lat="55.938080" lon="8.149381">
|
|
<ele>3.740920</ele>
|
|
<time>2026-07-12T10:42:42.000Z</time>
|
|
</trkpt>
|
|
<trkpt lat="55.938099" lon="8.149326">
|
|
<ele>3.742254</ele>
|
|
<time>2026-07-12T10:42:43.000Z</time>
|
|
</trkpt>
|
|
<trkpt lat="55.938118" lon="8.149271">
|
|
<ele>3.743589</ele>
|
|
<time>2026-07-12T10:42:44.000Z</time>
|
|
</trkpt>
|
|
<trkpt lat="55.938152" lon="8.149216">
|
|
<ele>3.745281</ele>
|
|
<time>2026-07-12T10:42:45.000Z</time>
|
|
</trkpt>
|
|
<trkpt lat="55.938198" lon="8.149173">
|
|
<ele>3.747195</ele>
|
|
<time>2026-07-12T10:42:46.000Z</time>
|
|
</trkpt>
|
|
<trkpt lat="55.938251" lon="8.149144">
|
|
<ele>3.749240</ele>
|
|
<time>2026-07-12T10:42:47.000Z</time>
|
|
</trkpt>
|
|
<trkpt lat="55.938305" lon="8.149126">
|
|
<ele>3.751265</ele>
|
|
<time>2026-07-12T10:42:48.000Z</time>
|
|
</trkpt>
|
|
<trkpt lat="55.938362" lon="8.149114">
|
|
<ele>3.753382</ele>
|
|
<time>2026-07-12T10:42:49.000Z</time>
|
|
</trkpt>
|
|
<trkpt lat="55.938423" lon="8.149104">
|
|
<ele>3.740492</ele>
|
|
<time>2026-07-12T10:42:50.000Z</time>
|
|
</trkpt>
|
|
<trkpt lat="55.938484" lon="8.149096">
|
|
<ele>3.722699</ele>
|
|
<time>2026-07-12T10:42:51.000Z</time>
|
|
</trkpt>
|
|
<trkpt lat="55.938545" lon="8.149089">
|
|
<ele>3.704918</ele>
|
|
<time>2026-07-12T10:42:52.000Z</time>
|
|
</trkpt>
|
|
<trkpt lat="55.938606" lon="8.149084">
|
|
<ele>3.687155</ele>
|
|
<time>2026-07-12T10:42:53.000Z</time>
|
|
</trkpt>
|
|
<trkpt lat="55.938667" lon="8.149085">
|
|
<ele>3.669409</ele>
|
|
<time>2026-07-12T10:42:54.000Z</time>
|
|
</trkpt>
|
|
<trkpt lat="55.938725" lon="8.149088">
|
|
<ele>3.652530</ele>
|
|
<time>2026-07-12T10:42:55.000Z</time>
|
|
</trkpt>
|
|
<trkpt lat="55.938786" lon="8.149085">
|
|
<ele>3.634779</ele>
|
|
<time>2026-07-12T10:42:56.000Z</time>
|
|
</trkpt>
|
|
<trkpt lat="55.938843" lon="8.149081">
|
|
<ele>3.618185</ele>
|
|
<time>2026-07-12T10:42:57.000Z</time>
|
|
</trkpt>
|
|
<trkpt lat="55.938900" lon="8.149077">
|
|
<ele>3.601591</ele>
|
|
<time>2026-07-12T10:42:58.000Z</time>
|
|
</trkpt>
|
|
<trkpt lat="55.938953" lon="8.149077">
|
|
<ele>3.586174</ele>
|
|
<time>2026-07-12T10:42:59.000Z</time>
|
|
</trkpt>
|
|
<trkpt lat="55.939007" lon="8.149080">
|
|
<ele>3.570458</ele>
|
|
<time>2026-07-12T10:43:00.000Z</time>
|
|
</trkpt>
|
|
<trkpt lat="55.939056" lon="8.149083">
|
|
<ele>3.556196</ele>
|
|
<time>2026-07-12T10:43:01.000Z</time>
|
|
</trkpt>
|
|
<trkpt lat="55.939110" lon="8.149087">
|
|
<ele>3.540474</ele>
|
|
<time>2026-07-12T10:43:02.000Z</time>
|
|
</trkpt>
|
|
<trkpt lat="55.939163" lon="8.149096">
|
|
<ele>3.524987</ele>
|
|
<time>2026-07-12T10:43:03.000Z</time>
|
|
</trkpt>
|
|
<trkpt lat="55.939217" lon="8.149109">
|
|
<ele>3.509136</ele>
|
|
<time>2026-07-12T10:43:04.000Z</time>
|
|
</trkpt>
|
|
<trkpt lat="55.939270" lon="8.149124">
|
|
<ele>3.493526</ele>
|
|
<time>2026-07-12T10:43:05.000Z</time>
|
|
</trkpt>
|
|
<trkpt lat="55.939320" lon="8.149140">
|
|
<ele>3.478750</ele>
|
|
<time>2026-07-12T10:43:06.000Z</time>
|
|
</trkpt>
|
|
<trkpt lat="55.939365" lon="8.149158">
|
|
<ele>3.465335</ele>
|
|
<time>2026-07-12T10:43:07.000Z</time>
|
|
</trkpt>
|
|
<trkpt lat="55.939415" lon="8.149170">
|
|
<ele>3.450659</ele>
|
|
<time>2026-07-12T10:43:08.000Z</time>
|
|
</trkpt>
|
|
<trkpt lat="55.939461" lon="8.149177">
|
|
<ele>3.437230</ele>
|
|
<time>2026-07-12T10:43:09.000Z</time>
|
|
</trkpt>
|
|
<trkpt lat="55.939507" lon="8.149179">
|
|
<ele>3.423845</ele>
|
|
<time>2026-07-12T10:43:10.000Z</time>
|
|
</trkpt>
|
|
<trkpt lat="55.939556" lon="8.149177">
|
|
<ele>3.409587</ele>
|
|
<time>2026-07-12T10:43:11.000Z</time>
|
|
</trkpt>
|
|
<trkpt lat="55.939609" lon="8.149171">
|
|
<ele>3.394139</ele>
|
|
<time>2026-07-12T10:43:12.000Z</time>
|
|
</trkpt>
|
|
<trkpt lat="55.939663" lon="8.149163">
|
|
<ele>3.378376</ele>
|
|
<time>2026-07-12T10:43:13.000Z</time>
|
|
</trkpt>
|
|
<trkpt lat="55.939713" lon="8.149154">
|
|
<ele>3.363758</ele>
|
|
<time>2026-07-12T10:43:14.000Z</time>
|
|
</trkpt>
|
|
<trkpt lat="55.939762" lon="8.149141">
|
|
<ele>3.349347</ele>
|
|
<time>2026-07-12T10:43:15.000Z</time>
|
|
</trkpt>
|
|
<trkpt lat="55.939812" lon="8.149124">
|
|
<ele>3.334541</ele>
|
|
<time>2026-07-12T10:43:16.000Z</time>
|
|
</trkpt>
|
|
<trkpt lat="55.939861" lon="8.149105">
|
|
<ele>3.319955</ele>
|
|
<time>2026-07-12T10:43:17.000Z</time>
|
|
</trkpt>
|
|
<trkpt lat="55.939907" lon="8.149082">
|
|
<ele>3.306059</ele>
|
|
<time>2026-07-12T10:43:18.000Z</time>
|
|
</trkpt>
|
|
<trkpt lat="55.939953" lon="8.149060">
|
|
<ele>3.292206</ele>
|
|
<time>2026-07-12T10:43:19.000Z</time>
|
|
</trkpt>
|
|
<trkpt lat="55.940002" lon="8.149039">
|
|
<ele>3.277548</ele>
|
|
<time>2026-07-12T10:43:20.000Z</time>
|
|
</trkpt>
|
|
<trkpt lat="55.940052" lon="8.149021">
|
|
<ele>3.262710</ele>
|
|
<time>2026-07-12T10:43:21.000Z</time>
|
|
</trkpt>
|
|
<trkpt lat="55.940102" lon="8.149011">
|
|
<ele>3.248074</ele>
|
|
<time>2026-07-12T10:43:22.000Z</time>
|
|
</trkpt>
|
|
<trkpt lat="55.940151" lon="8.149007">
|
|
<ele>3.233806</ele>
|
|
<time>2026-07-12T10:43:23.000Z</time>
|
|
</trkpt>
|
|
<trkpt lat="55.940193" lon="8.149011">
|
|
<ele>3.218951</ele>
|
|
<time>2026-07-12T10:43:24.000Z</time>
|
|
</trkpt>
|
|
<trkpt lat="55.940235" lon="8.149022">
|
|
<ele>3.203066</ele>
|
|
<time>2026-07-12T10:43:25.000Z</time>
|
|
</trkpt>
|
|
<trkpt lat="55.940269" lon="8.149038">
|
|
<ele>3.189908</ele>
|
|
<time>2026-07-12T10:43:26.000Z</time>
|
|
</trkpt>
|
|
<trkpt lat="55.940308" lon="8.149059">
|
|
<ele>3.174665</ele>
|
|
<time>2026-07-12T10:43:27.000Z</time>
|
|
</trkpt>
|
|
<trkpt lat="55.940342" lon="8.149077">
|
|
<ele>3.161395</ele>
|
|
<time>2026-07-12T10:43:28.000Z</time>
|
|
</trkpt>
|
|
<trkpt lat="55.940376" lon="8.149092">
|
|
<ele>3.148289</ele>
|
|
<time>2026-07-12T10:43:29.000Z</time>
|
|
</trkpt>
|
|
<trkpt lat="55.940411" lon="8.149105">
|
|
<ele>3.134912</ele>
|
|
<time>2026-07-12T10:43:30.000Z</time>
|
|
</trkpt>
|
|
<trkpt lat="55.940445" lon="8.149119">
|
|
<ele>3.121855</ele>
|
|
<time>2026-07-12T10:43:31.000Z</time>
|
|
</trkpt>
|
|
<trkpt lat="55.940479" lon="8.149137">
|
|
<ele>3.108585</ele>
|
|
<time>2026-07-12T10:43:32.000Z</time>
|
|
</trkpt>
|
|
<trkpt lat="55.940517" lon="8.149152">
|
|
<ele>3.094022</ele>
|
|
<time>2026-07-12T10:43:33.000Z</time>
|
|
</trkpt>
|
|
<trkpt lat="55.940552" lon="8.149159">
|
|
<ele>3.080843</ele>
|
|
<time>2026-07-12T10:43:34.000Z</time>
|
|
</trkpt>
|
|
<trkpt lat="55.940590" lon="8.149158">
|
|
<ele>3.066621</ele>
|
|
<time>2026-07-12T10:43:35.000Z</time>
|
|
</trkpt>
|
|
<trkpt lat="55.940632" lon="8.149150">
|
|
<ele>3.050816</ele>
|
|
<time>2026-07-12T10:43:36.000Z</time>
|
|
</trkpt>
|
|
<trkpt lat="55.940678" lon="8.149135">
|
|
<ele>3.033317</ele>
|
|
<time>2026-07-12T10:43:37.000Z</time>
|
|
</trkpt>
|
|
<trkpt lat="55.940723" lon="8.149108">
|
|
<ele>3.015553</ele>
|
|
<time>2026-07-12T10:43:38.000Z</time>
|
|
</trkpt>
|
|
<trkpt lat="55.940773" lon="8.149074">
|
|
<ele>2.995532</ele>
|
|
<time>2026-07-12T10:43:39.000Z</time>
|
|
</trkpt>
|
|
<trkpt lat="55.940826" lon="8.149035">
|
|
<ele>2.974081</ele>
|
|
<time>2026-07-12T10:43:40.000Z</time>
|
|
</trkpt>
|
|
<trkpt lat="55.940880" lon="8.148989">
|
|
<ele>2.951692</ele>
|
|
<time>2026-07-12T10:43:41.000Z</time>
|
|
</trkpt>
|
|
<trkpt lat="55.940933" lon="8.148935">
|
|
<ele>2.928858</ele>
|
|
<time>2026-07-12T10:43:42.000Z</time>
|
|
</trkpt>
|
|
<trkpt lat="55.940983" lon="8.148878">
|
|
<ele>2.906659</ele>
|
|
<time>2026-07-12T10:43:43.000Z</time>
|
|
</trkpt>
|
|
<trkpt lat="55.941025" lon="8.148829">
|
|
<ele>2.887885</ele>
|
|
<time>2026-07-12T10:43:44.000Z</time>
|
|
</trkpt>
|
|
<trkpt lat="55.941067" lon="8.148783">
|
|
<ele>2.869448</ele>
|
|
<time>2026-07-12T10:43:45.000Z</time>
|
|
</trkpt>
|
|
<trkpt lat="55.941124" lon="8.148736">
|
|
<ele>2.845954</ele>
|
|
<time>2026-07-12T10:43:46.000Z</time>
|
|
</trkpt>
|
|
<trkpt lat="55.941170" lon="8.148705">
|
|
<ele>2.827555</ele>
|
|
<time>2026-07-12T10:43:47.000Z</time>
|
|
</trkpt>
|
|
<trkpt lat="55.941216" lon="8.148686">
|
|
<ele>2.809887</ele>
|
|
<time>2026-07-12T10:43:48.000Z</time>
|
|
</trkpt>
|
|
<trkpt lat="55.941261" lon="8.148677">
|
|
<ele>2.792943</ele>
|
|
<time>2026-07-12T10:43:49.000Z</time>
|
|
</trkpt>
|
|
<trkpt lat="55.941307" lon="8.148671">
|
|
<ele>2.775683</ele>
|
|
<time>2026-07-12T10:43:50.000Z</time>
|
|
</trkpt>
|
|
<trkpt lat="55.941353" lon="8.148666">
|
|
<ele>2.758438</ele>
|
|
<time>2026-07-12T10:43:51.000Z</time>
|
|
</trkpt>
|
|
<trkpt lat="55.941402" lon="8.148663">
|
|
<ele>2.740091</ele>
|
|
<time>2026-07-12T10:43:52.000Z</time>
|
|
</trkpt>
|
|
<trkpt lat="55.941448" lon="8.148661">
|
|
<ele>2.722873</ele>
|
|
<time>2026-07-12T10:43:53.000Z</time>
|
|
</trkpt>
|
|
<trkpt lat="55.941494" lon="8.148658">
|
|
<ele>2.705648</ele>
|
|
<time>2026-07-12T10:43:54.000Z</time>
|
|
</trkpt>
|
|
<trkpt lat="55.941540" lon="8.148655">
|
|
<ele>2.688423</ele>
|
|
<time>2026-07-12T10:43:55.000Z</time>
|
|
</trkpt>
|
|
<trkpt lat="55.941586" lon="8.148651">
|
|
<ele>2.671190</ele>
|
|
<time>2026-07-12T10:43:56.000Z</time>
|
|
</trkpt>
|
|
<trkpt lat="55.941628" lon="8.148645">
|
|
<ele>2.655423</ele>
|
|
<time>2026-07-12T10:43:57.000Z</time>
|
|
</trkpt>
|
|
<trkpt lat="55.941669" lon="8.148644">
|
|
<ele>2.640079</ele>
|
|
<time>2026-07-12T10:43:58.000Z</time>
|
|
</trkpt>
|
|
<trkpt lat="55.941711" lon="8.148644">
|
|
<ele>2.624362</ele>
|
|
<time>2026-07-12T10:43:59.000Z</time>
|
|
</trkpt>
|
|
<trkpt lat="55.941750" lon="8.148645">
|
|
<ele>2.609767</ele>
|
|
<time>2026-07-12T10:44:00.000Z</time>
|
|
</trkpt>
|
|
<trkpt lat="55.941788" lon="8.148650">
|
|
<ele>2.595509</ele>
|
|
<time>2026-07-12T10:44:01.000Z</time>
|
|
</trkpt>
|
|
<trkpt lat="55.941822" lon="8.148663">
|
|
<ele>2.582497</ele>
|
|
<time>2026-07-12T10:44:02.000Z</time>
|
|
</trkpt>
|
|
<trkpt lat="55.941856" lon="8.148680">
|
|
<ele>2.569285</ele>
|
|
<time>2026-07-12T10:44:03.000Z</time>
|
|
</trkpt>
|
|
<trkpt lat="55.941883" lon="8.148703">
|
|
<ele>2.558091</ele>
|
|
<time>2026-07-12T10:44:04.000Z</time>
|
|
</trkpt>
|
|
<trkpt lat="55.941914" lon="8.148727">
|
|
<ele>2.547662</ele>
|
|
<time>2026-07-12T10:44:05.000Z</time>
|
|
</trkpt>
|
|
<trkpt lat="55.941944" lon="8.148753">
|
|
<ele>2.537447</ele>
|
|
<time>2026-07-12T10:44:06.000Z</time>
|
|
</trkpt>
|
|
<trkpt lat="55.941978" lon="8.148779">
|
|
<ele>2.526117</ele>
|
|
<time>2026-07-12T10:44:07.000Z</time>
|
|
</trkpt>
|
|
<trkpt lat="55.942013" lon="8.148804">
|
|
<ele>2.514570</ele>
|
|
<time>2026-07-12T10:44:08.000Z</time>
|
|
</trkpt>
|
|
<trkpt lat="55.942051" lon="8.148829">
|
|
<ele>2.502165</ele>
|
|
<time>2026-07-12T10:44:09.000Z</time>
|
|
</trkpt>
|
|
<trkpt lat="55.942093" lon="8.148852">
|
|
<ele>2.488708</ele>
|
|
<time>2026-07-12T10:44:10.000Z</time>
|
|
</trkpt>
|
|
<trkpt lat="55.942135" lon="8.148880">
|
|
<ele>2.474975</ele>
|
|
<time>2026-07-12T10:44:11.000Z</time>
|
|
</trkpt>
|
|
<trkpt lat="55.942181" lon="8.148910">
|
|
<ele>2.459973</ele>
|
|
<time>2026-07-12T10:44:12.000Z</time>
|
|
</trkpt>
|
|
<trkpt lat="55.942223" lon="8.148948">
|
|
<ele>2.445550</ele>
|
|
<time>2026-07-12T10:44:13.000Z</time>
|
|
</trkpt>
|
|
<trkpt lat="55.942268" lon="8.148989">
|
|
<ele>2.430075</ele>
|
|
<time>2026-07-12T10:44:14.000Z</time>
|
|
</trkpt>
|
|
<trkpt lat="55.942314" lon="8.149027">
|
|
<ele>2.414549</ele>
|
|
<time>2026-07-12T10:44:15.000Z</time>
|
|
</trkpt>
|
|
<trkpt lat="55.942360" lon="8.149061">
|
|
<ele>2.399298</ele>
|
|
<time>2026-07-12T10:44:16.000Z</time>
|
|
</trkpt>
|
|
<trkpt lat="55.942410" lon="8.149094">
|
|
<ele>2.382969</ele>
|
|
<time>2026-07-12T10:44:17.000Z</time>
|
|
</trkpt>
|
|
<trkpt lat="55.942459" lon="8.149124">
|
|
<ele>2.367102</ele>
|
|
<time>2026-07-12T10:44:18.000Z</time>
|
|
</trkpt>
|
|
<trkpt lat="55.942509" lon="8.149153">
|
|
<ele>2.350998</ele>
|
|
<time>2026-07-12T10:44:19.000Z</time>
|
|
</trkpt>
|
|
<trkpt lat="55.942558" lon="8.149180">
|
|
<ele>2.335289</ele>
|
|
<time>2026-07-12T10:44:20.000Z</time>
|
|
</trkpt>
|
|
<trkpt lat="55.942612" lon="8.149206">
|
|
<ele>2.318157</ele>
|
|
<time>2026-07-12T10:44:21.000Z</time>
|
|
</trkpt>
|
|
<trkpt lat="55.942661" lon="8.149227">
|
|
<ele>2.302721</ele>
|
|
<time>2026-07-12T10:44:22.000Z</time>
|
|
</trkpt>
|
|
<trkpt lat="55.942707" lon="8.149242">
|
|
<ele>2.288397</ele>
|
|
<time>2026-07-12T10:44:23.000Z</time>
|
|
</trkpt>
|
|
<trkpt lat="55.942757" lon="8.149250">
|
|
<ele>2.273019</ele>
|
|
<time>2026-07-12T10:44:24.000Z</time>
|
|
</trkpt>
|
|
<trkpt lat="55.942810" lon="8.149252">
|
|
<ele>2.256780</ele>
|
|
<time>2026-07-12T10:44:25.000Z</time>
|
|
</trkpt>
|
|
<trkpt lat="55.942860" lon="8.149249">
|
|
<ele>2.241455</ele>
|
|
<time>2026-07-12T10:44:26.000Z</time>
|
|
</trkpt>
|
|
<trkpt lat="55.942909" lon="8.149242">
|
|
<ele>2.226398</ele>
|
|
<time>2026-07-12T10:44:27.000Z</time>
|
|
</trkpt>
|
|
<trkpt lat="55.942959" lon="8.149236">
|
|
<ele>2.211047</ele>
|
|
<time>2026-07-12T10:44:28.000Z</time>
|
|
</trkpt>
|
|
<trkpt lat="55.943012" lon="8.149227">
|
|
<ele>2.194738</ele>
|
|
<time>2026-07-12T10:44:29.000Z</time>
|
|
</trkpt>
|
|
<trkpt lat="55.943062" lon="8.149215">
|
|
<ele>2.179284</ele>
|
|
<time>2026-07-12T10:44:30.000Z</time>
|
|
</trkpt>
|
|
<trkpt lat="55.943115" lon="8.149202">
|
|
<ele>2.162897</ele>
|
|
<time>2026-07-12T10:44:31.000Z</time>
|
|
</trkpt>
|
|
<trkpt lat="55.943169" lon="8.149191">
|
|
<ele>2.146248</ele>
|
|
<time>2026-07-12T10:44:32.000Z</time>
|
|
</trkpt>
|
|
<trkpt lat="55.943218" lon="8.149179">
|
|
<ele>2.131097</ele>
|
|
<time>2026-07-12T10:44:33.000Z</time>
|
|
</trkpt>
|
|
<trkpt lat="55.943268" lon="8.149168">
|
|
<ele>2.115665</ele>
|
|
<time>2026-07-12T10:44:34.000Z</time>
|
|
</trkpt>
|
|
<trkpt lat="55.943321" lon="8.149155">
|
|
<ele>2.099278</ele>
|
|
<time>2026-07-12T10:44:35.000Z</time>
|
|
</trkpt>
|
|
<trkpt lat="55.943375" lon="8.149143">
|
|
<ele>2.082608</ele>
|
|
<time>2026-07-12T10:44:36.000Z</time>
|
|
</trkpt>
|
|
<trkpt lat="55.943424" lon="8.149133">
|
|
<ele>2.067501</ele>
|
|
<time>2026-07-12T10:44:37.000Z</time>
|
|
</trkpt>
|
|
<trkpt lat="55.943474" lon="8.149119">
|
|
<ele>2.051997</ele>
|
|
<time>2026-07-12T10:44:38.000Z</time>
|
|
</trkpt>
|
|
<trkpt lat="55.943523" lon="8.149104">
|
|
<ele>2.036768</ele>
|
|
<time>2026-07-12T10:44:39.000Z</time>
|
|
</trkpt>
|
|
<trkpt lat="55.943577" lon="8.149089">
|
|
<ele>2.020028</ele>
|
|
<time>2026-07-12T10:44:40.000Z</time>
|
|
</trkpt>
|
|
<trkpt lat="55.943626" lon="8.149075">
|
|
<ele>2.009258</ele>
|
|
<time>2026-07-12T10:44:41.000Z</time>
|
|
</trkpt>
|
|
<trkpt lat="55.943676" lon="8.149060">
|
|
<ele>2.030651</ele>
|
|
<time>2026-07-12T10:44:42.000Z</time>
|
|
</trkpt>
|
|
<trkpt lat="55.943729" lon="8.149043">
|
|
<ele>2.053372</ele>
|
|
<time>2026-07-12T10:44:43.000Z</time>
|
|
</trkpt>
|
|
<trkpt lat="55.943779" lon="8.149024">
|
|
<ele>2.074943</ele>
|
|
<time>2026-07-12T10:44:44.000Z</time>
|
|
</trkpt>
|
|
<trkpt lat="55.943829" lon="8.149002">
|
|
<ele>2.096671</ele>
|
|
<time>2026-07-12T10:44:45.000Z</time>
|
|
</trkpt>
|
|
<trkpt lat="55.943874" lon="8.148978">
|
|
<ele>2.116488</ele>
|
|
<time>2026-07-12T10:44:46.000Z</time>
|
|
</trkpt>
|
|
<trkpt lat="55.943924" lon="8.148955">
|
|
<ele>2.138275</ele>
|
|
<time>2026-07-12T10:44:47.000Z</time>
|
|
</trkpt>
|
|
<trkpt lat="55.943966" lon="8.148932">
|
|
<ele>2.156811</ele>
|
|
<time>2026-07-12T10:44:48.000Z</time>
|
|
</trkpt>
|
|
<trkpt lat="55.944012" lon="8.148909">
|
|
<ele>2.176968</ele>
|
|
<time>2026-07-12T10:44:49.000Z</time>
|
|
</trkpt>
|
|
<trkpt lat="55.944057" lon="8.148883">
|
|
<ele>2.196925</ele>
|
|
<time>2026-07-12T10:44:50.000Z</time>
|
|
</trkpt>
|
|
<trkpt lat="55.944103" lon="8.148855">
|
|
<ele>2.217431</ele>
|
|
<time>2026-07-12T10:44:51.000Z</time>
|
|
</trkpt>
|
|
<trkpt lat="55.944149" lon="8.148827">
|
|
<ele>2.237938</ele>
|
|
<time>2026-07-12T10:44:52.000Z</time>
|
|
</trkpt>
|
|
<trkpt lat="55.944195" lon="8.148801">
|
|
<ele>2.258297</ele>
|
|
<time>2026-07-12T10:44:53.000Z</time>
|
|
</trkpt>
|
|
<trkpt lat="55.944241" lon="8.148778">
|
|
<ele>2.278453</ele>
|
|
<time>2026-07-12T10:44:54.000Z</time>
|
|
</trkpt>
|
|
<trkpt lat="55.944290" lon="8.148759">
|
|
<ele>2.299611</ele>
|
|
<time>2026-07-12T10:44:55.000Z</time>
|
|
</trkpt>
|
|
<trkpt lat="55.944340" lon="8.148746">
|
|
<ele>2.320931</ele>
|
|
<time>2026-07-12T10:44:56.000Z</time>
|
|
</trkpt>
|
|
<trkpt lat="55.944389" lon="8.148740">
|
|
<ele>2.341656</ele>
|
|
<time>2026-07-12T10:44:57.000Z</time>
|
|
</trkpt>
|
|
<trkpt lat="55.944439" lon="8.148746">
|
|
<ele>2.362801</ele>
|
|
<time>2026-07-12T10:44:58.000Z</time>
|
|
</trkpt>
|
|
<trkpt lat="55.944489" lon="8.148766">
|
|
<ele>2.384421</ele>
|
|
<time>2026-07-12T10:44:59.000Z</time>
|
|
</trkpt>
|
|
<trkpt lat="55.944531" lon="8.148796">
|
|
<ele>2.403509</ele>
|
|
<time>2026-07-12T10:45:00.000Z</time>
|
|
</trkpt>
|
|
<trkpt lat="55.944572" lon="8.148833">
|
|
<ele>2.422892</ele>
|
|
<time>2026-07-12T10:45:01.000Z</time>
|
|
</trkpt>
|
|
<trkpt lat="55.944611" lon="8.148883">
|
|
<ele>2.443151</ele>
|
|
<time>2026-07-12T10:45:02.000Z</time>
|
|
</trkpt>
|
|
<trkpt lat="55.944645" lon="8.148936">
|
|
<ele>2.462194</ele>
|
|
<time>2026-07-12T10:45:03.000Z</time>
|
|
</trkpt>
|
|
<trkpt lat="55.944672" lon="8.148993">
|
|
<ele>2.479835</ele>
|
|
<time>2026-07-12T10:45:04.000Z</time>
|
|
</trkpt>
|
|
<trkpt lat="55.944695" lon="8.149057">
|
|
<ele>2.497804</ele>
|
|
<time>2026-07-12T10:45:05.000Z</time>
|
|
</trkpt>
|
|
<trkpt lat="55.944717" lon="8.149133">
|
|
<ele>2.518020</ele>
|
|
<time>2026-07-12T10:45:06.000Z</time>
|
|
</trkpt>
|
|
<trkpt lat="55.944740" lon="8.149205">
|
|
<ele>2.537606</ele>
|
|
<time>2026-07-12T10:45:07.000Z</time>
|
|
</trkpt>
|
|
<trkpt lat="55.944763" lon="8.149273">
|
|
<ele>2.556377</ele>
|
|
<time>2026-07-12T10:45:08.000Z</time>
|
|
</trkpt>
|
|
<trkpt lat="55.944786" lon="8.149338">
|
|
<ele>2.574545</ele>
|
|
<time>2026-07-12T10:45:09.000Z</time>
|
|
</trkpt>
|
|
<trkpt lat="55.944813" lon="8.149401">
|
|
<ele>2.593291</ele>
|
|
<time>2026-07-12T10:45:10.000Z</time>
|
|
</trkpt>
|
|
<trkpt lat="55.944839" lon="8.149465">
|
|
<ele>2.611974</ele>
|
|
<time>2026-07-12T10:45:11.000Z</time>
|
|
</trkpt>
|
|
<trkpt lat="55.944862" lon="8.149530">
|
|
<ele>2.630142</ele>
|
|
<time>2026-07-12T10:45:12.000Z</time>
|
|
</trkpt>
|
|
<trkpt lat="55.944881" lon="8.149600">
|
|
<ele>2.648523</ele>
|
|
<time>2026-07-12T10:45:13.000Z</time>
|
|
</trkpt>
|
|
<trkpt lat="55.944897" lon="8.149675">
|
|
<ele>2.667487</ele>
|
|
<time>2026-07-12T10:45:14.000Z</time>
|
|
</trkpt>
|
|
<trkpt lat="55.944908" lon="8.149758">
|
|
<ele>2.687641</ele>
|
|
<time>2026-07-12T10:45:15.000Z</time>
|
|
</trkpt>
|
|
<trkpt lat="55.944923" lon="8.149847">
|
|
<ele>2.709603</ele>
|
|
<time>2026-07-12T10:45:16.000Z</time>
|
|
</trkpt>
|
|
<trkpt lat="55.944935" lon="8.149933">
|
|
<ele>2.730545</ele>
|
|
<time>2026-07-12T10:45:17.000Z</time>
|
|
</trkpt>
|
|
<trkpt lat="55.944946" lon="8.150017">
|
|
<ele>2.750929</ele>
|
|
<time>2026-07-12T10:45:18.000Z</time>
|
|
</trkpt>
|
|
<trkpt lat="55.944958" lon="8.150098">
|
|
<ele>2.789838</ele>
|
|
<time>2026-07-12T10:45:19.000Z</time>
|
|
</trkpt>
|
|
<trkpt lat="55.944965" lon="8.150178">
|
|
<ele>2.880803</ele>
|
|
<time>2026-07-12T10:45:20.000Z</time>
|
|
</trkpt>
|
|
<trkpt lat="55.944973" lon="8.150256">
|
|
<ele>2.969888</ele>
|
|
<time>2026-07-12T10:45:21.000Z</time>
|
|
</trkpt>
|
|
<trkpt lat="55.944988" lon="8.150333">
|
|
<ele>3.061477</ele>
|
|
<time>2026-07-12T10:45:22.000Z</time>
|
|
</trkpt>
|
|
<trkpt lat="55.945003" lon="8.150412">
|
|
<ele>3.155190</ele>
|
|
<time>2026-07-12T10:45:23.000Z</time>
|
|
</trkpt>
|
|
<trkpt lat="55.945019" lon="8.150489">
|
|
<ele>3.247457</ele>
|
|
<time>2026-07-12T10:45:24.000Z</time>
|
|
</trkpt>
|
|
<trkpt lat="55.945038" lon="8.150569">
|
|
<ele>3.345080</ele>
|
|
<time>2026-07-12T10:45:25.000Z</time>
|
|
</trkpt>
|
|
<trkpt lat="55.945061" lon="8.150651">
|
|
<ele>3.448111</ele>
|
|
<time>2026-07-12T10:45:26.000Z</time>
|
|
</trkpt>
|
|
<trkpt lat="55.945087" lon="8.150730">
|
|
<ele>3.551054</ele>
|
|
<time>2026-07-12T10:45:27.000Z</time>
|
|
</trkpt>
|
|
<trkpt lat="55.945114" lon="8.150807">
|
|
<ele>3.653117</ele>
|
|
<time>2026-07-12T10:45:28.000Z</time>
|
|
</trkpt>
|
|
<trkpt lat="55.945137" lon="8.150887">
|
|
<ele>3.754144</ele>
|
|
<time>2026-07-12T10:45:29.000Z</time>
|
|
</trkpt>
|
|
<trkpt lat="55.945152" lon="8.150970">
|
|
<ele>3.852123</ele>
|
|
<time>2026-07-12T10:45:30.000Z</time>
|
|
</trkpt>
|
|
<trkpt lat="55.945164" lon="8.151052">
|
|
<ele>3.947337</ele>
|
|
<time>2026-07-12T10:45:31.000Z</time>
|
|
</trkpt>
|
|
<trkpt lat="55.945171" lon="8.151130">
|
|
<ele>4.036082</ele>
|
|
<time>2026-07-12T10:45:32.000Z</time>
|
|
</trkpt>
|
|
<trkpt lat="55.945171" lon="8.151206">
|
|
<ele>4.121462</ele>
|
|
<time>2026-07-12T10:45:33.000Z</time>
|
|
</trkpt>
|
|
<trkpt lat="55.945164" lon="8.151281">
|
|
<ele>4.206881</ele>
|
|
<time>2026-07-12T10:45:34.000Z</time>
|
|
</trkpt>
|
|
<trkpt lat="55.945152" lon="8.151353">
|
|
<ele>4.291274</ele>
|
|
<time>2026-07-12T10:45:35.000Z</time>
|
|
</trkpt>
|
|
<trkpt lat="55.945137" lon="8.151423">
|
|
<ele>4.375475</ele>
|
|
<time>2026-07-12T10:45:36.000Z</time>
|
|
</trkpt>
|
|
<trkpt lat="55.945122" lon="8.151489">
|
|
<ele>4.455494</ele>
|
|
<time>2026-07-12T10:45:37.000Z</time>
|
|
</trkpt>
|
|
<trkpt lat="55.945107" lon="8.151545">
|
|
<ele>4.525233</ele>
|
|
<time>2026-07-12T10:45:38.000Z</time>
|
|
</trkpt>
|
|
<trkpt lat="55.945095" lon="8.151597">
|
|
<ele>4.588417</ele>
|
|
<time>2026-07-12T10:45:39.000Z</time>
|
|
</trkpt>
|
|
<trkpt lat="55.945084" lon="8.151645">
|
|
<ele>4.646682</ele>
|
|
<time>2026-07-12T10:45:40.000Z</time>
|
|
</trkpt>
|
|
<trkpt lat="55.945072" lon="8.151688">
|
|
<ele>4.700655</ele>
|
|
<time>2026-07-12T10:45:41.000Z</time>
|
|
</trkpt>
|
|
<trkpt lat="55.945061" lon="8.151732">
|
|
<ele>4.754788</ele>
|
|
<time>2026-07-12T10:45:42.000Z</time>
|
|
</trkpt>
|
|
<trkpt lat="55.945049" lon="8.151779">
|
|
<ele>4.812818</ele>
|
|
<time>2026-07-12T10:45:43.000Z</time>
|
|
</trkpt>
|
|
<trkpt lat="55.945038" lon="8.151829">
|
|
<ele>4.873169</ele>
|
|
<time>2026-07-12T10:45:44.000Z</time>
|
|
</trkpt>
|
|
<trkpt lat="55.945026" lon="8.151878">
|
|
<ele>4.933250</ele>
|
|
<time>2026-07-12T10:45:45.000Z</time>
|
|
</trkpt>
|
|
<trkpt lat="55.945019" lon="8.151933">
|
|
<ele>4.996615</ele>
|
|
<time>2026-07-12T10:45:46.000Z</time>
|
|
</trkpt>
|
|
<trkpt lat="55.945007" lon="8.151989">
|
|
<ele>5.063975</ele>
|
|
<time>2026-07-12T10:45:47.000Z</time>
|
|
</trkpt>
|
|
<trkpt lat="55.945003" lon="8.152042">
|
|
<ele>5.124055</ele>
|
|
<time>2026-07-12T10:45:48.000Z</time>
|
|
</trkpt>
|
|
<trkpt lat="55.945000" lon="8.152100">
|
|
<ele>5.189491</ele>
|
|
<time>2026-07-12T10:45:49.000Z</time>
|
|
</trkpt>
|
|
<trkpt lat="55.944996" lon="8.152162">
|
|
<ele>5.259604</ele>
|
|
<time>2026-07-12T10:45:50.000Z</time>
|
|
</trkpt>
|
|
<trkpt lat="55.944992" lon="8.152223">
|
|
<ele>5.328602</ele>
|
|
<time>2026-07-12T10:45:51.000Z</time>
|
|
</trkpt>
|
|
<trkpt lat="55.944992" lon="8.152287">
|
|
<ele>5.400501</ele>
|
|
<time>2026-07-12T10:45:52.000Z</time>
|
|
</trkpt>
|
|
<trkpt lat="55.944992" lon="8.152353">
|
|
<ele>5.474647</ele>
|
|
<time>2026-07-12T10:45:53.000Z</time>
|
|
</trkpt>
|
|
<trkpt lat="55.944992" lon="8.152421">
|
|
<ele>5.551040</ele>
|
|
<time>2026-07-12T10:45:54.000Z</time>
|
|
</trkpt>
|
|
<trkpt lat="55.944996" lon="8.152494">
|
|
<ele>5.633442</ele>
|
|
<time>2026-07-12T10:45:55.000Z</time>
|
|
</trkpt>
|
|
<trkpt lat="55.945000" lon="8.152568">
|
|
<ele>5.716962</ele>
|
|
<time>2026-07-12T10:45:56.000Z</time>
|
|
</trkpt>
|
|
<trkpt lat="55.945000" lon="8.152644">
|
|
<ele>5.802342</ele>
|
|
<time>2026-07-12T10:45:57.000Z</time>
|
|
</trkpt>
|
|
<trkpt lat="55.944996" lon="8.152719">
|
|
<ele>5.886980</ele>
|
|
<time>2026-07-12T10:45:58.000Z</time>
|
|
</trkpt>
|
|
<trkpt lat="55.944984" lon="8.152792">
|
|
<ele>5.972451</ele>
|
|
<time>2026-07-12T10:45:59.000Z</time>
|
|
</trkpt>
|
|
<trkpt lat="55.944977" lon="8.152865">
|
|
<ele>6.055654</ele>
|
|
<time>2026-07-12T10:46:00.000Z</time>
|
|
</trkpt>
|
|
<trkpt lat="55.944969" lon="8.152937">
|
|
<ele>6.138118</ele>
|
|
<time>2026-07-12T10:46:01.000Z</time>
|
|
</trkpt>
|
|
<trkpt lat="55.944962" lon="8.153006">
|
|
<ele>6.216896</ele>
|
|
<time>2026-07-12T10:46:02.000Z</time>
|
|
</trkpt>
|
|
<trkpt lat="55.944954" lon="8.153073">
|
|
<ele>6.293858</ele>
|
|
<time>2026-07-12T10:46:03.000Z</time>
|
|
</trkpt>
|
|
<trkpt lat="55.944950" lon="8.153148">
|
|
<ele>6.369916</ele>
|
|
<time>2026-07-12T10:46:04.000Z</time>
|
|
</trkpt>
|
|
<trkpt lat="55.944942" lon="8.153226">
|
|
<ele>6.288968</ele>
|
|
<time>2026-07-12T10:46:05.000Z</time>
|
|
</trkpt>
|
|
<trkpt lat="55.944939" lon="8.153304">
|
|
<ele>6.209157</ele>
|
|
<time>2026-07-12T10:46:06.000Z</time>
|
|
</trkpt>
|
|
<trkpt lat="55.944935" lon="8.153386">
|
|
<ele>6.125134</ele>
|
|
<time>2026-07-12T10:46:07.000Z</time>
|
|
</trkpt>
|
|
<trkpt lat="55.944942" lon="8.153473">
|
|
<ele>6.035412</ele>
|
|
<time>2026-07-12T10:46:08.000Z</time>
|
|
</trkpt>
|
|
<trkpt lat="55.944950" lon="8.153561">
|
|
<ele>5.944404</ele>
|
|
<time>2026-07-12T10:46:09.000Z</time>
|
|
</trkpt>
|
|
<trkpt lat="55.944965" lon="8.153650">
|
|
<ele>5.849527</ele>
|
|
<time>2026-07-12T10:46:10.000Z</time>
|
|
</trkpt>
|
|
<trkpt lat="55.944981" lon="8.153747">
|
|
<ele>5.746302</ele>
|
|
<time>2026-07-12T10:46:11.000Z</time>
|
|
</trkpt>
|
|
<trkpt lat="55.944996" lon="8.153849">
|
|
<ele>5.638649</ele>
|
|
<time>2026-07-12T10:46:12.000Z</time>
|
|
</trkpt>
|
|
<trkpt lat="55.945011" lon="8.153953">
|
|
<ele>5.529020</ele>
|
|
<time>2026-07-12T10:46:13.000Z</time>
|
|
</trkpt>
|
|
<trkpt lat="55.945023" lon="8.154056">
|
|
<ele>5.421626</ele>
|
|
<time>2026-07-12T10:46:14.000Z</time>
|
|
</trkpt>
|
|
<trkpt lat="55.945038" lon="8.154157">
|
|
<ele>5.314960</ele>
|
|
<time>2026-07-12T10:46:15.000Z</time>
|
|
</trkpt>
|
|
<trkpt lat="55.945053" lon="8.154264">
|
|
<ele>5.202363</ele>
|
|
<time>2026-07-12T10:46:16.000Z</time>
|
|
</trkpt>
|
|
<trkpt lat="55.945072" lon="8.154365">
|
|
<ele>5.093600</ele>
|
|
<time>2026-07-12T10:46:17.000Z</time>
|
|
</trkpt>
|
|
<trkpt lat="55.945091" lon="8.154458">
|
|
<ele>4.992544</ele>
|
|
<time>2026-07-12T10:46:18.000Z</time>
|
|
</trkpt>
|
|
<trkpt lat="55.945110" lon="8.154551">
|
|
<ele>4.891489</ele>
|
|
<time>2026-07-12T10:46:19.000Z</time>
|
|
</trkpt>
|
|
<trkpt lat="55.945129" lon="8.154635">
|
|
<ele>4.799010</ele>
|
|
<time>2026-07-12T10:46:20.000Z</time>
|
|
</trkpt>
|
|
<trkpt lat="55.945149" lon="8.154711">
|
|
<ele>4.713290</ele>
|
|
<time>2026-07-12T10:46:21.000Z</time>
|
|
</trkpt>
|
|
<trkpt lat="55.945171" lon="8.154773">
|
|
<ele>4.638363</ele>
|
|
<time>2026-07-12T10:46:22.000Z</time>
|
|
</trkpt>
|
|
<trkpt lat="55.945198" lon="8.154811">
|
|
<ele>4.575696</ele>
|
|
<time>2026-07-12T10:46:23.000Z</time>
|
|
</trkpt>
|
|
<trkpt lat="55.945229" lon="8.154828">
|
|
<ele>4.516582</ele>
|
|
<time>2026-07-12T10:46:24.000Z</time>
|
|
</trkpt>
|
|
<trkpt lat="55.945259" lon="8.154838">
|
|
<ele>4.460950</ele>
|
|
<time>2026-07-12T10:46:25.000Z</time>
|
|
</trkpt>
|
|
<trkpt lat="55.945293" lon="8.154840">
|
|
<ele>4.398937</ele>
|
|
<time>2026-07-12T10:46:26.000Z</time>
|
|
</trkpt>
|
|
<trkpt lat="55.945332" lon="8.154832">
|
|
<ele>4.327377</ele>
|
|
<time>2026-07-12T10:46:27.000Z</time>
|
|
</trkpt>
|
|
<trkpt lat="55.945374" lon="8.154822">
|
|
<ele>4.250137</ele>
|
|
<time>2026-07-12T10:46:28.000Z</time>
|
|
</trkpt>
|
|
<trkpt lat="55.945415" lon="8.154814">
|
|
<ele>4.174953</ele>
|
|
<time>2026-07-12T10:46:29.000Z</time>
|
|
</trkpt>
|
|
<trkpt lat="55.945457" lon="8.154805">
|
|
<ele>4.097841</ele>
|
|
<time>2026-07-12T10:46:30.000Z</time>
|
|
</trkpt>
|
|
<trkpt lat="55.945503" lon="8.154797">
|
|
<ele>4.013591</ele>
|
|
<time>2026-07-12T10:46:31.000Z</time>
|
|
</trkpt>
|
|
<trkpt lat="55.945549" lon="8.154786">
|
|
<ele>3.928989</ele>
|
|
<time>2026-07-12T10:46:32.000Z</time>
|
|
</trkpt>
|
|
<trkpt lat="55.945591" lon="8.154774">
|
|
<ele>3.851453</ele>
|
|
<time>2026-07-12T10:46:33.000Z</time>
|
|
</trkpt>
|
|
<trkpt lat="55.945633" lon="8.154761">
|
|
<ele>3.773749</ele>
|
|
<time>2026-07-12T10:46:34.000Z</time>
|
|
</trkpt>
|
|
<trkpt lat="55.945671" lon="8.154750">
|
|
<ele>3.703574</ele>
|
|
<time>2026-07-12T10:46:35.000Z</time>
|
|
</trkpt>
|
|
<trkpt lat="55.945717" lon="8.154736">
|
|
<ele>3.618512</ele>
|
|
<time>2026-07-12T10:46:36.000Z</time>
|
|
</trkpt>
|
|
<trkpt lat="55.945763" lon="8.154722">
|
|
<ele>3.533449</ele>
|
|
<time>2026-07-12T10:46:37.000Z</time>
|
|
</trkpt>
|
|
<trkpt lat="55.945812" lon="8.154703">
|
|
<ele>3.442045</ele>
|
|
<time>2026-07-12T10:46:38.000Z</time>
|
|
</trkpt>
|
|
<trkpt lat="55.945854" lon="8.154682">
|
|
<ele>3.362538</ele>
|
|
<time>2026-07-12T10:46:39.000Z</time>
|
|
</trkpt>
|
|
<trkpt lat="55.945896" lon="8.154662">
|
|
<ele>3.283301</ele>
|
|
<time>2026-07-12T10:46:40.000Z</time>
|
|
</trkpt>
|
|
<trkpt lat="55.945938" lon="8.154641">
|
|
<ele>3.203794</ele>
|
|
<time>2026-07-12T10:46:41.000Z</time>
|
|
</trkpt>
|
|
<trkpt lat="55.945980" lon="8.154618">
|
|
<ele>3.123713</ele>
|
|
<time>2026-07-12T10:46:42.000Z</time>
|
|
</trkpt>
|
|
<trkpt lat="55.946022" lon="8.154590">
|
|
<ele>3.083280</ele>
|
|
<time>2026-07-12T10:46:43.000Z</time>
|
|
</trkpt>
|
|
<trkpt lat="55.946064" lon="8.154562">
|
|
<ele>3.064925</ele>
|
|
<time>2026-07-12T10:46:44.000Z</time>
|
|
</trkpt>
|
|
<trkpt lat="55.946102" lon="8.154532">
|
|
<ele>3.047914</ele>
|
|
<time>2026-07-12T10:46:45.000Z</time>
|
|
</trkpt>
|
|
<trkpt lat="55.946136" lon="8.154501">
|
|
<ele>3.032285</ele>
|
|
<time>2026-07-12T10:46:46.000Z</time>
|
|
</trkpt>
|
|
<trkpt lat="55.946175" lon="8.154471">
|
|
<ele>3.014899</ele>
|
|
<time>2026-07-12T10:46:47.000Z</time>
|
|
</trkpt>
|
|
<trkpt lat="55.946213" lon="8.154440">
|
|
<ele>2.997795</ele>
|
|
<time>2026-07-12T10:46:48.000Z</time>
|
|
</trkpt>
|
|
<trkpt lat="55.946251" lon="8.154409">
|
|
<ele>2.980690</ele>
|
|
<time>2026-07-12T10:46:49.000Z</time>
|
|
</trkpt>
|
|
<trkpt lat="55.946289" lon="8.154378">
|
|
<ele>2.963586</ele>
|
|
<time>2026-07-12T10:46:50.000Z</time>
|
|
</trkpt>
|
|
<trkpt lat="55.946323" lon="8.154345">
|
|
<ele>2.947742</ele>
|
|
<time>2026-07-12T10:46:51.000Z</time>
|
|
</trkpt>
|
|
<trkpt lat="55.946362" lon="8.154308">
|
|
<ele>2.929662</ele>
|
|
<time>2026-07-12T10:46:52.000Z</time>
|
|
</trkpt>
|
|
<trkpt lat="55.946400" lon="8.154271">
|
|
<ele>2.911941</ele>
|
|
<time>2026-07-12T10:46:53.000Z</time>
|
|
</trkpt>
|
|
<trkpt lat="55.946438" lon="8.154233">
|
|
<ele>2.894110</ele>
|
|
<time>2026-07-12T10:46:54.000Z</time>
|
|
</trkpt>
|
|
<trkpt lat="55.946472" lon="8.154193">
|
|
<ele>2.877441</ele>
|
|
<time>2026-07-12T10:46:55.000Z</time>
|
|
</trkpt>
|
|
<trkpt lat="55.946507" lon="8.154152">
|
|
<ele>2.860303</ele>
|
|
<time>2026-07-12T10:46:56.000Z</time>
|
|
</trkpt>
|
|
<trkpt lat="55.946537" lon="8.154108">
|
|
<ele>2.844409</ele>
|
|
<time>2026-07-12T10:46:57.000Z</time>
|
|
</trkpt>
|
|
<trkpt lat="55.946571" lon="8.154065">
|
|
<ele>2.827352</ele>
|
|
<time>2026-07-12T10:46:58.000Z</time>
|
|
</trkpt>
|
|
<trkpt lat="55.946602" lon="8.154023">
|
|
<ele>2.811420</ele>
|
|
<time>2026-07-12T10:46:59.000Z</time>
|
|
</trkpt>
|
|
<trkpt lat="55.946636" lon="8.153991">
|
|
<ele>2.795685</ele>
|
|
<time>2026-07-12T10:47:00.000Z</time>
|
|
</trkpt>
|
|
<trkpt lat="55.946670" lon="8.153965">
|
|
<ele>2.780542</ele>
|
|
<time>2026-07-12T10:47:01.000Z</time>
|
|
</trkpt>
|
|
<trkpt lat="55.946705" lon="8.153935">
|
|
<ele>2.764647</ele>
|
|
<time>2026-07-12T10:47:02.000Z</time>
|
|
</trkpt>
|
|
<trkpt lat="55.946735" lon="8.153897">
|
|
<ele>2.749589</ele>
|
|
<time>2026-07-12T10:47:03.000Z</time>
|
|
</trkpt>
|
|
<trkpt lat="55.946770" lon="8.153857">
|
|
<ele>2.732576</ele>
|
|
<time>2026-07-12T10:47:04.000Z</time>
|
|
</trkpt>
|
|
<trkpt lat="55.946804" lon="8.153816">
|
|
<ele>2.715779</ele>
|
|
<time>2026-07-12T10:47:05.000Z</time>
|
|
</trkpt>
|
|
<trkpt lat="55.946842" lon="8.153771">
|
|
<ele>2.697112</ele>
|
|
<time>2026-07-12T10:47:06.000Z</time>
|
|
</trkpt>
|
|
<trkpt lat="55.946877" lon="8.153728">
|
|
<ele>2.679718</ele>
|
|
<time>2026-07-12T10:47:07.000Z</time>
|
|
</trkpt>
|
|
<trkpt lat="55.946915" lon="8.153686">
|
|
<ele>2.661422</ele>
|
|
<time>2026-07-12T10:47:08.000Z</time>
|
|
</trkpt>
|
|
<trkpt lat="55.946953" lon="8.153646">
|
|
<ele>2.643362</ele>
|
|
<time>2026-07-12T10:47:09.000Z</time>
|
|
</trkpt>
|
|
<trkpt lat="55.946999" lon="8.153601">
|
|
<ele>2.621888</ele>
|
|
<time>2026-07-12T10:47:10.000Z</time>
|
|
</trkpt>
|
|
<trkpt lat="55.947041" lon="8.153556">
|
|
<ele>2.601835</ele>
|
|
<time>2026-07-12T10:47:11.000Z</time>
|
|
</trkpt>
|
|
<trkpt lat="55.947083" lon="8.153505">
|
|
<ele>2.581041</ele>
|
|
<time>2026-07-12T10:47:12.000Z</time>
|
|
</trkpt>
|
|
<trkpt lat="55.947128" lon="8.153458">
|
|
<ele>2.559698</ele>
|
|
<time>2026-07-12T10:47:13.000Z</time>
|
|
</trkpt>
|
|
<trkpt lat="55.947170" lon="8.153410">
|
|
<ele>2.539282</ele>
|
|
<time>2026-07-12T10:47:14.000Z</time>
|
|
</trkpt>
|
|
<trkpt lat="55.947212" lon="8.153363">
|
|
<ele>2.518990</ele>
|
|
<time>2026-07-12T10:47:15.000Z</time>
|
|
</trkpt>
|
|
<trkpt lat="55.947258" lon="8.153318">
|
|
<ele>2.497516</ele>
|
|
<time>2026-07-12T10:47:16.000Z</time>
|
|
</trkpt>
|
|
<trkpt lat="55.947304" lon="8.153273">
|
|
<ele>2.476042</ele>
|
|
<time>2026-07-12T10:47:17.000Z</time>
|
|
</trkpt>
|
|
<trkpt lat="55.947346" lon="8.153225">
|
|
<ele>2.455627</ele>
|
|
<time>2026-07-12T10:47:18.000Z</time>
|
|
</trkpt>
|
|
<trkpt lat="55.947392" lon="8.153175">
|
|
<ele>2.433579</ele>
|
|
<time>2026-07-12T10:47:19.000Z</time>
|
|
</trkpt>
|
|
<trkpt lat="55.947437" lon="8.153124">
|
|
<ele>2.411758</ele>
|
|
<time>2026-07-12T10:47:20.000Z</time>
|
|
</trkpt>
|
|
<trkpt lat="55.947483" lon="8.153071">
|
|
<ele>2.389346</ele>
|
|
<time>2026-07-12T10:47:21.000Z</time>
|
|
</trkpt>
|
|
<trkpt lat="55.947529" lon="8.153021">
|
|
<ele>2.367298</ele>
|
|
<time>2026-07-12T10:47:22.000Z</time>
|
|
</trkpt>
|
|
<trkpt lat="55.947571" lon="8.152973">
|
|
<ele>2.354801</ele>
|
|
<time>2026-07-12T10:47:23.000Z</time>
|
|
</trkpt>
|
|
<trkpt lat="55.947617" lon="8.152922">
|
|
<ele>2.347315</ele>
|
|
<time>2026-07-12T10:47:24.000Z</time>
|
|
</trkpt>
|
|
<trkpt lat="55.947662" lon="8.152869">
|
|
<ele>2.339862</ele>
|
|
<time>2026-07-12T10:47:25.000Z</time>
|
|
</trkpt>
|
|
<trkpt lat="55.947704" lon="8.152822">
|
|
<ele>2.333009</ele>
|
|
<time>2026-07-12T10:47:26.000Z</time>
|
|
</trkpt>
|
|
<trkpt lat="55.947746" lon="8.152774">
|
|
<ele>2.326115</ele>
|
|
<time>2026-07-12T10:47:27.000Z</time>
|
|
</trkpt>
|
|
<trkpt lat="55.947784" lon="8.152725">
|
|
<ele>2.319635</ele>
|
|
<time>2026-07-12T10:47:28.000Z</time>
|
|
</trkpt>
|
|
<trkpt lat="55.947823" lon="8.152678">
|
|
<ele>2.313130</ele>
|
|
<time>2026-07-12T10:47:29.000Z</time>
|
|
</trkpt>
|
|
<trkpt lat="55.947868" lon="8.152632">
|
|
<ele>2.305961</ele>
|
|
<time>2026-07-12T10:47:30.000Z</time>
|
|
</trkpt>
|
|
<trkpt lat="55.947910" lon="8.152584">
|
|
<ele>2.299066</ele>
|
|
<time>2026-07-12T10:47:31.000Z</time>
|
|
</trkpt>
|
|
<trkpt lat="55.947956" lon="8.152534">
|
|
<ele>2.291621</ele>
|
|
<time>2026-07-12T10:47:32.000Z</time>
|
|
</trkpt>
|
|
<trkpt lat="55.948006" lon="8.152483">
|
|
<ele>2.283660</ele>
|
|
<time>2026-07-12T10:47:33.000Z</time>
|
|
</trkpt>
|
|
<trkpt lat="55.948051" lon="8.152433">
|
|
<ele>2.276332</ele>
|
|
<time>2026-07-12T10:47:34.000Z</time>
|
|
</trkpt>
|
|
<trkpt lat="55.948097" lon="8.152385">
|
|
<ele>2.268966</ele>
|
|
<time>2026-07-12T10:47:35.000Z</time>
|
|
</trkpt>
|
|
<trkpt lat="55.948143" lon="8.152337">
|
|
<ele>2.261600</ele>
|
|
<time>2026-07-12T10:47:36.000Z</time>
|
|
</trkpt>
|
|
<trkpt lat="55.948189" lon="8.152288">
|
|
<ele>2.254195</ele>
|
|
<time>2026-07-12T10:47:37.000Z</time>
|
|
</trkpt>
|
|
<trkpt lat="55.948231" lon="8.152244">
|
|
<ele>2.247462</ele>
|
|
<time>2026-07-12T10:47:38.000Z</time>
|
|
</trkpt>
|
|
<trkpt lat="55.948273" lon="8.152201">
|
|
<ele>2.240769</ele>
|
|
<time>2026-07-12T10:47:39.000Z</time>
|
|
</trkpt>
|
|
<trkpt lat="55.948311" lon="8.152158">
|
|
<ele>2.234549</ele>
|
|
<time>2026-07-12T10:47:40.000Z</time>
|
|
</trkpt>
|
|
<trkpt lat="55.948353" lon="8.152113">
|
|
<ele>2.227777</ele>
|
|
<time>2026-07-12T10:47:41.000Z</time>
|
|
</trkpt>
|
|
<trkpt lat="55.948395" lon="8.152067">
|
|
<ele>2.220965</ele>
|
|
<time>2026-07-12T10:47:42.000Z</time>
|
|
</trkpt>
|
|
<trkpt lat="55.948437" lon="8.152019">
|
|
<ele>2.214071</ele>
|
|
<time>2026-07-12T10:47:43.000Z</time>
|
|
</trkpt>
|
|
<trkpt lat="55.948479" lon="8.151970">
|
|
<ele>2.207135</ele>
|
|
<time>2026-07-12T10:47:44.000Z</time>
|
|
</trkpt>
|
|
<trkpt lat="55.948521" lon="8.151923">
|
|
<ele>2.200282</ele>
|
|
<time>2026-07-12T10:47:45.000Z</time>
|
|
</trkpt>
|
|
<trkpt lat="55.948566" lon="8.151879">
|
|
<ele>2.193189</ele>
|
|
<time>2026-07-12T10:47:46.000Z</time>
|
|
</trkpt>
|
|
<trkpt lat="55.948612" lon="8.151836">
|
|
<ele>2.186010</ele>
|
|
<time>2026-07-12T10:47:47.000Z</time>
|
|
</trkpt>
|
|
<trkpt lat="55.948654" lon="8.151798">
|
|
<ele>2.179500</ele>
|
|
<time>2026-07-12T10:47:48.000Z</time>
|
|
</trkpt>
|
|
<trkpt lat="55.948696" lon="8.151757">
|
|
<ele>2.172883</ele>
|
|
<time>2026-07-12T10:47:49.000Z</time>
|
|
</trkpt>
|
|
<trkpt lat="55.948734" lon="8.151712">
|
|
<ele>2.166579</ele>
|
|
<time>2026-07-12T10:47:50.000Z</time>
|
|
</trkpt>
|
|
<trkpt lat="55.948772" lon="8.151669">
|
|
<ele>2.160359</ele>
|
|
<time>2026-07-12T10:47:51.000Z</time>
|
|
</trkpt>
|
|
<trkpt lat="55.948807" lon="8.151630">
|
|
<ele>2.154655</ele>
|
|
<time>2026-07-12T10:47:52.000Z</time>
|
|
</trkpt>
|
|
<trkpt lat="55.948841" lon="8.151599">
|
|
<ele>2.149377</ele>
|
|
<time>2026-07-12T10:47:53.000Z</time>
|
|
</trkpt>
|
|
<trkpt lat="55.948872" lon="8.151572">
|
|
<ele>2.144608</ele>
|
|
<time>2026-07-12T10:47:54.000Z</time>
|
|
</trkpt>
|
|
<trkpt lat="55.948898" lon="8.151545">
|
|
<ele>2.140450</ele>
|
|
<time>2026-07-12T10:47:55.000Z</time>
|
|
</trkpt>
|
|
<trkpt lat="55.948929" lon="8.151514">
|
|
<ele>2.135538</ele>
|
|
<time>2026-07-12T10:47:56.000Z</time>
|
|
</trkpt>
|
|
<trkpt lat="55.948952" lon="8.151484">
|
|
<ele>2.131600</ele>
|
|
<time>2026-07-12T10:47:57.000Z</time>
|
|
</trkpt>
|
|
<trkpt lat="55.948971" lon="8.151450">
|
|
<ele>2.127881</ele>
|
|
<time>2026-07-12T10:47:58.000Z</time>
|
|
</trkpt>
|
|
<trkpt lat="55.948986" lon="8.151413">
|
|
<ele>2.124345</ele>
|
|
<time>2026-07-12T10:47:59.000Z</time>
|
|
</trkpt>
|
|
<trkpt lat="55.949001" lon="8.151375">
|
|
<ele>2.120745</ele>
|
|
<time>2026-07-12T10:48:00.000Z</time>
|
|
</trkpt>
|
|
<trkpt lat="55.949013" lon="8.151339">
|
|
<ele>2.117502</ele>
|
|
<time>2026-07-12T10:48:01.000Z</time>
|
|
</trkpt>
|
|
<trkpt lat="55.949017" lon="8.151298">
|
|
<ele>2.114280</ele>
|
|
<time>2026-07-12T10:48:02.000Z</time>
|
|
</trkpt>
|
|
<trkpt lat="55.949020" lon="8.151254">
|
|
<ele>2.110848</ele>
|
|
<time>2026-07-12T10:48:03.000Z</time>
|
|
</trkpt>
|
|
<trkpt lat="55.949028" lon="8.151206">
|
|
<ele>2.122782</ele>
|
|
<time>2026-07-12T10:48:04.000Z</time>
|
|
</trkpt>
|
|
<trkpt lat="55.949032" lon="8.151155">
|
|
<ele>2.138591</ele>
|
|
<time>2026-07-12T10:48:05.000Z</time>
|
|
</trkpt>
|
|
<trkpt lat="55.949032" lon="8.151106">
|
|
<ele>2.153633</ele>
|
|
<time>2026-07-12T10:48:06.000Z</time>
|
|
</trkpt>
|
|
<trkpt lat="55.949032" lon="8.151056">
|
|
<ele>2.168983</ele>
|
|
<time>2026-07-12T10:48:07.000Z</time>
|
|
</trkpt>
|
|
<trkpt lat="55.949032" lon="8.151006">
|
|
<ele>2.184332</ele>
|
|
<time>2026-07-12T10:48:08.000Z</time>
|
|
</trkpt>
|
|
<trkpt lat="55.949024" lon="8.150957">
|
|
<ele>2.200001</ele>
|
|
<time>2026-07-12T10:48:09.000Z</time>
|
|
</trkpt>
|
|
<trkpt lat="55.949020" lon="8.150908">
|
|
<ele>2.215202</ele>
|
|
<time>2026-07-12T10:48:10.000Z</time>
|
|
</trkpt>
|
|
<trkpt lat="55.949013" lon="8.150862">
|
|
<ele>2.229835</ele>
|
|
<time>2026-07-12T10:48:11.000Z</time>
|
|
</trkpt>
|
|
<trkpt lat="55.949005" lon="8.150815">
|
|
<ele>2.244916</ele>
|
|
<time>2026-07-12T10:48:12.000Z</time>
|
|
</trkpt>
|
|
<trkpt lat="55.949005" lon="8.150770">
|
|
<ele>2.258730</ele>
|
|
<time>2026-07-12T10:48:13.000Z</time>
|
|
</trkpt>
|
|
<trkpt lat="55.949005" lon="8.150726">
|
|
<ele>2.272237</ele>
|
|
<time>2026-07-12T10:48:14.000Z</time>
|
|
</trkpt>
|
|
<trkpt lat="55.949001" lon="8.150686">
|
|
<ele>2.284711</ele>
|
|
<time>2026-07-12T10:48:15.000Z</time>
|
|
</trkpt>
|
|
<trkpt lat="55.949001" lon="8.150645">
|
|
<ele>2.297298</ele>
|
|
<time>2026-07-12T10:48:16.000Z</time>
|
|
</trkpt>
|
|
<trkpt lat="55.949001" lon="8.150600">
|
|
<ele>2.311112</ele>
|
|
<time>2026-07-12T10:48:17.000Z</time>
|
|
</trkpt>
|
|
<trkpt lat="55.949009" lon="8.150555">
|
|
<ele>2.325606</ele>
|
|
<time>2026-07-12T10:48:18.000Z</time>
|
|
</trkpt>
|
|
<trkpt lat="55.949020" lon="8.150511">
|
|
<ele>2.340399</ele>
|
|
<time>2026-07-12T10:48:19.000Z</time>
|
|
</trkpt>
|
|
<trkpt lat="55.949039" lon="8.150475">
|
|
<ele>2.355586</ele>
|
|
<time>2026-07-12T10:48:20.000Z</time>
|
|
</trkpt>
|
|
<trkpt lat="55.949062" lon="8.150452">
|
|
<ele>2.370038</ele>
|
|
<time>2026-07-12T10:48:21.000Z</time>
|
|
</trkpt>
|
|
<trkpt lat="55.949089" lon="8.150436">
|
|
<ele>2.385634</ele>
|
|
<time>2026-07-12T10:48:22.000Z</time>
|
|
</trkpt>
|
|
<trkpt lat="55.949116" lon="8.150427">
|
|
<ele>2.400693</ele>
|
|
<time>2026-07-12T10:48:23.000Z</time>
|
|
</trkpt>
|
|
<trkpt lat="55.949142" lon="8.150420">
|
|
<ele>2.415109</ele>
|
|
<time>2026-07-12T10:48:24.000Z</time>
|
|
</trkpt>
|
|
<trkpt lat="55.949165" lon="8.150415">
|
|
<ele>2.427812</ele>
|
|
<time>2026-07-12T10:48:25.000Z</time>
|
|
</trkpt>
|
|
<trkpt lat="55.949196" lon="8.150413">
|
|
<ele>2.444819</ele>
|
|
<time>2026-07-12T10:48:26.000Z</time>
|
|
</trkpt>
|
|
<trkpt lat="55.949223" lon="8.150409">
|
|
<ele>2.459673</ele>
|
|
<time>2026-07-12T10:48:27.000Z</time>
|
|
</trkpt>
|
|
<trkpt lat="55.949245" lon="8.150402">
|
|
<ele>2.471924</ele>
|
|
<time>2026-07-12T10:48:28.000Z</time>
|
|
</trkpt>
|
|
<trkpt lat="55.949265" lon="8.150396">
|
|
<ele>2.483043</ele>
|
|
<time>2026-07-12T10:48:29.000Z</time>
|
|
</trkpt>
|
|
<trkpt lat="55.949284" lon="8.150394">
|
|
<ele>2.493478</ele>
|
|
<time>2026-07-12T10:48:30.000Z</time>
|
|
</trkpt>
|
|
<trkpt lat="55.949303" lon="8.150401">
|
|
<ele>2.504114</ele>
|
|
<time>2026-07-12T10:48:31.000Z</time>
|
|
</trkpt>
|
|
<trkpt lat="55.949322" lon="8.150414">
|
|
<ele>2.515269</ele>
|
|
<time>2026-07-12T10:48:32.000Z</time>
|
|
</trkpt>
|
|
<trkpt lat="55.949341" lon="8.150431">
|
|
<ele>2.526920</ele>
|
|
<time>2026-07-12T10:48:33.000Z</time>
|
|
</trkpt>
|
|
<trkpt lat="55.949364" lon="8.150448">
|
|
<ele>2.540567</ele>
|
|
<time>2026-07-12T10:48:34.000Z</time>
|
|
</trkpt>
|
|
<trkpt lat="55.949383" lon="8.150467">
|
|
<ele>2.552506</ele>
|
|
<time>2026-07-12T10:48:35.000Z</time>
|
|
</trkpt>
|
|
<trkpt lat="55.949402" lon="8.150488">
|
|
<ele>2.564756</ele>
|
|
<time>2026-07-12T10:48:36.000Z</time>
|
|
</trkpt>
|
|
<trkpt lat="55.949421" lon="8.150507">
|
|
<ele>2.576695</ele>
|
|
<time>2026-07-12T10:48:37.000Z</time>
|
|
</trkpt>
|
|
<trkpt lat="55.949436" lon="8.150525">
|
|
<ele>2.586603</ele>
|
|
<time>2026-07-12T10:48:38.000Z</time>
|
|
</trkpt>
|
|
<trkpt lat="55.949451" lon="8.150540">
|
|
<ele>2.596028</ele>
|
|
<time>2026-07-12T10:48:39.000Z</time>
|
|
</trkpt>
|
|
<trkpt lat="55.949467" lon="8.150556">
|
|
<ele>2.606082</ele>
|
|
<time>2026-07-12T10:48:40.000Z</time>
|
|
</trkpt>
|
|
<trkpt lat="55.949486" lon="8.150570">
|
|
<ele>2.617351</ele>
|
|
<time>2026-07-12T10:48:41.000Z</time>
|
|
</trkpt>
|
|
<trkpt lat="55.949505" lon="8.150581">
|
|
<ele>2.628301</ele>
|
|
<time>2026-07-12T10:48:42.000Z</time>
|
|
</trkpt>
|
|
<trkpt lat="55.949524" lon="8.150592">
|
|
<ele>2.639252</ele>
|
|
<time>2026-07-12T10:48:43.000Z</time>
|
|
</trkpt>
|
|
<trkpt lat="55.949539" lon="8.150599">
|
|
<ele>2.647752</ele>
|
|
<time>2026-07-12T10:48:44.000Z</time>
|
|
</trkpt>
|
|
<trkpt lat="55.949558" lon="8.150605">
|
|
<ele>2.658330</ele>
|
|
<time>2026-07-12T10:48:45.000Z</time>
|
|
</trkpt>
|
|
<trkpt lat="55.949573" lon="8.150609">
|
|
<ele>2.666645</ele>
|
|
<time>2026-07-12T10:48:46.000Z</time>
|
|
</trkpt>
|
|
<trkpt lat="55.949593" lon="8.150605">
|
|
<ele>2.677679</ele>
|
|
<time>2026-07-12T10:48:47.000Z</time>
|
|
</trkpt>
|
|
<trkpt lat="55.949612" lon="8.150593">
|
|
<ele>2.688728</ele>
|
|
<time>2026-07-12T10:48:48.000Z</time>
|
|
</trkpt>
|
|
<trkpt lat="55.949623" lon="8.150574">
|
|
<ele>2.697118</ele>
|
|
<time>2026-07-12T10:48:49.000Z</time>
|
|
</trkpt>
|
|
<trkpt lat="55.949635" lon="8.150550">
|
|
<ele>2.706995</ele>
|
|
<time>2026-07-12T10:48:50.000Z</time>
|
|
</trkpt>
|
|
<trkpt lat="55.949642" lon="8.150530">
|
|
<ele>2.714236</ele>
|
|
<time>2026-07-12T10:48:51.000Z</time>
|
|
</trkpt>
|
|
<trkpt lat="55.949654" lon="8.150515">
|
|
<ele>2.722266</ele>
|
|
<time>2026-07-12T10:48:52.000Z</time>
|
|
</trkpt>
|
|
<trkpt lat="55.949669" lon="8.150501">
|
|
<ele>2.731545</ele>
|
|
<time>2026-07-12T10:48:53.000Z</time>
|
|
</trkpt>
|
|
<trkpt lat="55.949688" lon="8.150493">
|
|
<ele>2.742248</ele>
|
|
<time>2026-07-12T10:48:54.000Z</time>
|
|
</trkpt>
|
|
<trkpt lat="55.949707" lon="8.150490">
|
|
<ele>2.752705</ele>
|
|
<time>2026-07-12T10:48:55.000Z</time>
|
|
</trkpt>
|
|
<trkpt lat="55.949730" lon="8.150489">
|
|
<ele>2.765319</ele>
|
|
<time>2026-07-12T10:48:56.000Z</time>
|
|
</trkpt>
|
|
<trkpt lat="55.949757" lon="8.150488">
|
|
<ele>2.780125</ele>
|
|
<time>2026-07-12T10:48:57.000Z</time>
|
|
</trkpt>
|
|
<trkpt lat="55.949780" lon="8.150481">
|
|
<ele>2.792917</ele>
|
|
<time>2026-07-12T10:48:58.000Z</time>
|
|
</trkpt>
|
|
<trkpt lat="55.949799" lon="8.150467">
|
|
<ele>2.804185</ele>
|
|
<time>2026-07-12T10:48:59.000Z</time>
|
|
</trkpt>
|
|
<trkpt lat="55.949822" lon="8.150451">
|
|
<ele>2.817718</ele>
|
|
<time>2026-07-12T10:49:00.000Z</time>
|
|
</trkpt>
|
|
<trkpt lat="55.949841" lon="8.150434">
|
|
<ele>2.829369</ele>
|
|
<time>2026-07-12T10:49:01.000Z</time>
|
|
</trkpt>
|
|
<trkpt lat="55.949856" lon="8.150417">
|
|
<ele>2.839109</ele>
|
|
<time>2026-07-12T10:49:02.000Z</time>
|
|
</trkpt>
|
|
<trkpt lat="55.949867" lon="8.150404">
|
|
<ele>2.846341</ele>
|
|
<time>2026-07-12T10:49:03.000Z</time>
|
|
</trkpt>
|
|
<trkpt lat="55.949875" lon="8.150398">
|
|
<ele>2.851098</ele>
|
|
<time>2026-07-12T10:49:04.000Z</time>
|
|
</trkpt>
|
|
<trkpt lat="55.949875" lon="8.150400">
|
|
<ele>2.851712</ele>
|
|
<time>2026-07-12T10:49:05.000Z</time>
|
|
</trkpt>
|
|
<trkpt lat="55.949894" lon="8.150395">
|
|
<ele>2.862241</ele>
|
|
<time>2026-07-12T10:49:39.000Z</time>
|
|
</trkpt>
|
|
<trkpt lat="55.949902" lon="8.150398">
|
|
<ele>2.866723</ele>
|
|
<time>2026-07-12T10:49:40.000Z</time>
|
|
</trkpt>
|
|
<trkpt lat="55.949909" lon="8.150399">
|
|
<ele>2.870573</ele>
|
|
<time>2026-07-12T10:49:41.000Z</time>
|
|
</trkpt>
|
|
<trkpt lat="55.949917" lon="8.150397">
|
|
<ele>2.875002</ele>
|
|
<time>2026-07-12T10:49:42.000Z</time>
|
|
</trkpt>
|
|
<trkpt lat="55.949924" lon="8.150392">
|
|
<ele>2.879135</ele>
|
|
<time>2026-07-12T10:49:43.000Z</time>
|
|
</trkpt>
|
|
<trkpt lat="55.949928" lon="8.150390">
|
|
<ele>2.881412</ele>
|
|
<time>2026-07-12T10:49:44.000Z</time>
|
|
</trkpt>
|
|
<trkpt lat="55.949928" lon="8.150389">
|
|
<ele>2.881719</ele>
|
|
<time>2026-07-12T10:49:46.000Z</time>
|
|
</trkpt>
|
|
<trkpt lat="55.949932" lon="8.150382">
|
|
<ele>2.884790</ele>
|
|
<time>2026-07-12T10:51:12.000Z</time>
|
|
</trkpt>
|
|
<trkpt lat="55.949936" lon="8.150373">
|
|
<ele>2.888317</ele>
|
|
<time>2026-07-12T10:51:13.000Z</time>
|
|
</trkpt>
|
|
<trkpt lat="55.949951" lon="8.150352">
|
|
<ele>2.898767</ele>
|
|
<time>2026-07-12T10:51:14.000Z</time>
|
|
</trkpt>
|
|
<trkpt lat="55.949966" lon="8.150329">
|
|
<ele>2.909606</ele>
|
|
<time>2026-07-12T10:51:15.000Z</time>
|
|
</trkpt>
|
|
<trkpt lat="55.949989" lon="8.150306">
|
|
<ele>2.924058</ele>
|
|
<time>2026-07-12T10:51:16.000Z</time>
|
|
</trkpt>
|
|
<trkpt lat="55.950012" lon="8.150281">
|
|
<ele>2.938819</ele>
|
|
<time>2026-07-12T10:51:17.000Z</time>
|
|
</trkpt>
|
|
<trkpt lat="55.950035" lon="8.150253">
|
|
<ele>2.954080</ele>
|
|
<time>2026-07-12T10:51:18.000Z</time>
|
|
</trkpt>
|
|
<trkpt lat="55.950062" lon="8.150222">
|
|
<ele>2.971678</ele>
|
|
<time>2026-07-12T10:51:19.000Z</time>
|
|
</trkpt>
|
|
<trkpt lat="55.950085" lon="8.150190">
|
|
<ele>2.987663</ele>
|
|
<time>2026-07-12T10:51:20.000Z</time>
|
|
</trkpt>
|
|
<trkpt lat="55.950111" lon="8.150162">
|
|
<ele>3.004308</ele>
|
|
<time>2026-07-12T10:51:21.000Z</time>
|
|
</trkpt>
|
|
<trkpt lat="55.950142" lon="8.150133">
|
|
<ele>3.023494</ele>
|
|
<time>2026-07-12T10:51:22.000Z</time>
|
|
</trkpt>
|
|
<trkpt lat="55.950176" lon="8.150096">
|
|
<ele>3.045323</ele>
|
|
<time>2026-07-12T10:51:23.000Z</time>
|
|
</trkpt>
|
|
<trkpt lat="55.950203" lon="8.150063">
|
|
<ele>3.063260</ele>
|
|
<time>2026-07-12T10:51:24.000Z</time>
|
|
</trkpt>
|
|
<trkpt lat="55.950233" lon="8.150027">
|
|
<ele>3.083076</ele>
|
|
<time>2026-07-12T10:51:25.000Z</time>
|
|
</trkpt>
|
|
<trkpt lat="55.950268" lon="8.149994">
|
|
<ele>3.094595</ele>
|
|
<time>2026-07-12T10:51:26.000Z</time>
|
|
</trkpt>
|
|
<trkpt lat="55.950302" lon="8.149959">
|
|
<ele>3.090343</ele>
|
|
<time>2026-07-12T10:51:27.000Z</time>
|
|
</trkpt>
|
|
<trkpt lat="55.950333" lon="8.149921">
|
|
<ele>3.086269</ele>
|
|
<time>2026-07-12T10:51:28.000Z</time>
|
|
</trkpt>
|
|
<trkpt lat="55.950367" lon="8.149880">
|
|
<ele>3.081823</ele>
|
|
<time>2026-07-12T10:51:29.000Z</time>
|
|
</trkpt>
|
|
<trkpt lat="55.950398" lon="8.149841">
|
|
<ele>3.077715</ele>
|
|
<time>2026-07-12T10:51:30.000Z</time>
|
|
</trkpt>
|
|
<trkpt lat="55.950428" lon="8.149806">
|
|
<ele>3.073832</ele>
|
|
<time>2026-07-12T10:51:31.000Z</time>
|
|
</trkpt>
|
|
<trkpt lat="55.950459" lon="8.149769">
|
|
<ele>3.069791</ele>
|
|
<time>2026-07-12T10:51:32.000Z</time>
|
|
</trkpt>
|
|
<trkpt lat="55.950489" lon="8.149726">
|
|
<ele>3.065623</ele>
|
|
<time>2026-07-12T10:51:33.000Z</time>
|
|
</trkpt>
|
|
<trkpt lat="55.950516" lon="8.149683">
|
|
<ele>3.061703</ele>
|
|
<time>2026-07-12T10:51:34.000Z</time>
|
|
</trkpt>
|
|
<trkpt lat="55.950542" lon="8.149640">
|
|
<ele>3.057864</ele>
|
|
<time>2026-07-12T10:51:35.000Z</time>
|
|
</trkpt>
|
|
<trkpt lat="55.950573" lon="8.149602">
|
|
<ele>3.053789</ele>
|
|
<time>2026-07-12T10:51:36.000Z</time>
|
|
</trkpt>
|
|
<trkpt lat="55.950603" lon="8.149568">
|
|
<ele>3.049939</ele>
|
|
<time>2026-07-12T10:51:37.000Z</time>
|
|
</trkpt>
|
|
<trkpt lat="55.950634" lon="8.149536">
|
|
<ele>3.046060</ele>
|
|
<time>2026-07-12T10:51:38.000Z</time>
|
|
</trkpt>
|
|
<trkpt lat="55.950665" lon="8.149505">
|
|
<ele>3.042210</ele>
|
|
<time>2026-07-12T10:51:39.000Z</time>
|
|
</trkpt>
|
|
<trkpt lat="55.950699" lon="8.149473">
|
|
<ele>3.038045</ele>
|
|
<time>2026-07-12T10:51:40.000Z</time>
|
|
</trkpt>
|
|
<trkpt lat="55.950733" lon="8.149442">
|
|
<ele>3.033909</ele>
|
|
<time>2026-07-12T10:51:41.000Z</time>
|
|
</trkpt>
|
|
<trkpt lat="55.950767" lon="8.149409">
|
|
<ele>3.029716</ele>
|
|
<time>2026-07-12T10:51:42.000Z</time>
|
|
</trkpt>
|
|
<trkpt lat="55.950806" lon="8.149375">
|
|
<ele>3.025013</ele>
|
|
<time>2026-07-12T10:51:43.000Z</time>
|
|
</trkpt>
|
|
<trkpt lat="55.950840" lon="8.149339">
|
|
<ele>3.020730</ele>
|
|
<time>2026-07-12T10:51:44.000Z</time>
|
|
</trkpt>
|
|
<trkpt lat="55.950874" lon="8.149302">
|
|
<ele>3.016416</ele>
|
|
<time>2026-07-12T10:51:45.000Z</time>
|
|
</trkpt>
|
|
<trkpt lat="55.950909" lon="8.149264">
|
|
<ele>3.011978</ele>
|
|
<time>2026-07-12T10:51:46.000Z</time>
|
|
</trkpt>
|
|
<trkpt lat="55.950947" lon="8.149226">
|
|
<ele>3.007258</ele>
|
|
<time>2026-07-12T10:51:47.000Z</time>
|
|
</trkpt>
|
|
<trkpt lat="55.950981" lon="8.149192">
|
|
<ele>3.003036</ele>
|
|
<time>2026-07-12T10:51:48.000Z</time>
|
|
</trkpt>
|
|
<trkpt lat="55.951019" lon="8.149156">
|
|
<ele>2.998375</ele>
|
|
<time>2026-07-12T10:51:49.000Z</time>
|
|
</trkpt>
|
|
<trkpt lat="55.951054" lon="8.149117">
|
|
<ele>2.993905</ele>
|
|
<time>2026-07-12T10:51:50.000Z</time>
|
|
</trkpt>
|
|
<trkpt lat="55.951084" lon="8.149082">
|
|
<ele>2.990022</ele>
|
|
<time>2026-07-12T10:51:51.000Z</time>
|
|
</trkpt>
|
|
<trkpt lat="55.951115" lon="8.149046">
|
|
<ele>2.986015</ele>
|
|
<time>2026-07-12T10:51:52.000Z</time>
|
|
</trkpt>
|
|
<trkpt lat="55.951153" lon="8.149002">
|
|
<ele>2.981108</ele>
|
|
<time>2026-07-12T10:51:53.000Z</time>
|
|
</trkpt>
|
|
<trkpt lat="55.951183" lon="8.148963">
|
|
<ele>2.977087</ele>
|
|
<time>2026-07-12T10:51:54.000Z</time>
|
|
</trkpt>
|
|
<trkpt lat="55.951218" lon="8.148922">
|
|
<ele>2.972552</ele>
|
|
<time>2026-07-12T10:51:55.000Z</time>
|
|
</trkpt>
|
|
<trkpt lat="55.951252" lon="8.148883">
|
|
<ele>2.968173</ele>
|
|
<time>2026-07-12T10:51:56.000Z</time>
|
|
</trkpt>
|
|
<trkpt lat="55.951286" lon="8.148843">
|
|
<ele>2.963761</ele>
|
|
<time>2026-07-12T10:51:57.000Z</time>
|
|
</trkpt>
|
|
<trkpt lat="55.951324" lon="8.148799">
|
|
<ele>2.958854</ele>
|
|
<time>2026-07-12T10:51:58.000Z</time>
|
|
</trkpt>
|
|
<trkpt lat="55.951363" lon="8.148754">
|
|
<ele>2.953823</ele>
|
|
<time>2026-07-12T10:51:59.000Z</time>
|
|
</trkpt>
|
|
<trkpt lat="55.951401" lon="8.148709">
|
|
<ele>2.948882</ele>
|
|
<time>2026-07-12T10:52:00.000Z</time>
|
|
</trkpt>
|
|
<trkpt lat="55.951443" lon="8.148663">
|
|
<ele>2.943544</ele>
|
|
<time>2026-07-12T10:52:01.000Z</time>
|
|
</trkpt>
|
|
<trkpt lat="55.951485" lon="8.148617">
|
|
<ele>2.938205</ele>
|
|
<time>2026-07-12T10:52:02.000Z</time>
|
|
</trkpt>
|
|
<trkpt lat="55.951523" lon="8.148570">
|
|
<ele>2.933197</ele>
|
|
<time>2026-07-12T10:52:03.000Z</time>
|
|
</trkpt>
|
|
<trkpt lat="55.951565" lon="8.148524">
|
|
<ele>2.927858</ele>
|
|
<time>2026-07-12T10:52:04.000Z</time>
|
|
</trkpt>
|
|
<trkpt lat="55.951607" lon="8.148479">
|
|
<ele>2.922551</ele>
|
|
<time>2026-07-12T10:52:05.000Z</time>
|
|
</trkpt>
|
|
<trkpt lat="55.951649" lon="8.148434">
|
|
<ele>2.917244</ele>
|
|
<time>2026-07-12T10:52:06.000Z</time>
|
|
</trkpt>
|
|
<trkpt lat="55.951691" lon="8.148388">
|
|
<ele>2.911905</ele>
|
|
<time>2026-07-12T10:52:07.000Z</time>
|
|
</trkpt>
|
|
<trkpt lat="55.951733" lon="8.148342">
|
|
<ele>2.906566</ele>
|
|
<time>2026-07-12T10:52:08.000Z</time>
|
|
</trkpt>
|
|
<trkpt lat="55.951771" lon="8.148296">
|
|
<ele>2.901592</ele>
|
|
<time>2026-07-12T10:52:09.000Z</time>
|
|
</trkpt>
|
|
<trkpt lat="55.951813" lon="8.148252">
|
|
<ele>2.887465</ele>
|
|
<time>2026-07-12T10:52:10.000Z</time>
|
|
</trkpt>
|
|
<trkpt lat="55.951851" lon="8.148207">
|
|
<ele>2.873883</ele>
|
|
<time>2026-07-12T10:52:11.000Z</time>
|
|
</trkpt>
|
|
<trkpt lat="55.951893" lon="8.148161">
|
|
<ele>2.859206</ele>
|
|
<time>2026-07-12T10:52:12.000Z</time>
|
|
</trkpt>
|
|
<trkpt lat="55.951931" lon="8.148115">
|
|
<ele>2.845531</ele>
|
|
<time>2026-07-12T10:52:13.000Z</time>
|
|
</trkpt>
|
|
<trkpt lat="55.951969" lon="8.148066">
|
|
<ele>2.831568</ele>
|
|
<time>2026-07-12T10:52:14.000Z</time>
|
|
</trkpt>
|
|
<trkpt lat="55.952007" lon="8.148014">
|
|
<ele>2.817307</ele>
|
|
<time>2026-07-12T10:52:15.000Z</time>
|
|
</trkpt>
|
|
<trkpt lat="55.952045" lon="8.147966">
|
|
<ele>2.803442</ele>
|
|
<time>2026-07-12T10:52:16.000Z</time>
|
|
</trkpt>
|
|
<trkpt lat="55.952087" lon="8.147923">
|
|
<ele>2.789021</ele>
|
|
<time>2026-07-12T10:52:17.000Z</time>
|
|
</trkpt>
|
|
<trkpt lat="55.952129" lon="8.147879">
|
|
<ele>2.774515</ele>
|
|
<time>2026-07-12T10:52:18.000Z</time>
|
|
</trkpt>
|
|
<trkpt lat="55.952168" lon="8.147832">
|
|
<ele>2.760500</ele>
|
|
<time>2026-07-12T10:52:19.000Z</time>
|
|
</trkpt>
|
|
<trkpt lat="55.952210" lon="8.147781">
|
|
<ele>2.745370</ele>
|
|
<time>2026-07-12T10:52:20.000Z</time>
|
|
</trkpt>
|
|
<trkpt lat="55.952248" lon="8.147732">
|
|
<ele>2.731408</ele>
|
|
<time>2026-07-12T10:52:21.000Z</time>
|
|
</trkpt>
|
|
<trkpt lat="55.952286" lon="8.147683">
|
|
<ele>2.717446</ele>
|
|
<time>2026-07-12T10:52:22.000Z</time>
|
|
</trkpt>
|
|
<trkpt lat="55.952324" lon="8.147636">
|
|
<ele>2.703676</ele>
|
|
<time>2026-07-12T10:52:23.000Z</time>
|
|
</trkpt>
|
|
<trkpt lat="55.952362" lon="8.147595">
|
|
<ele>2.690451</ele>
|
|
<time>2026-07-12T10:52:24.000Z</time>
|
|
</trkpt>
|
|
<trkpt lat="55.952400" lon="8.147560">
|
|
<ele>2.677714</ele>
|
|
<time>2026-07-12T10:52:25.000Z</time>
|
|
</trkpt>
|
|
<trkpt lat="55.952438" lon="8.147525">
|
|
<ele>2.664977</ele>
|
|
<time>2026-07-12T10:52:26.000Z</time>
|
|
</trkpt>
|
|
<trkpt lat="55.952473" lon="8.147485">
|
|
<ele>2.652599</ele>
|
|
<time>2026-07-12T10:52:27.000Z</time>
|
|
</trkpt>
|
|
<trkpt lat="55.952511" lon="8.147440">
|
|
<ele>2.639017</ele>
|
|
<time>2026-07-12T10:52:28.000Z</time>
|
|
</trkpt>
|
|
<trkpt lat="55.952549" lon="8.147396">
|
|
<ele>2.625526</ele>
|
|
<time>2026-07-12T10:52:29.000Z</time>
|
|
</trkpt>
|
|
<trkpt lat="55.952587" lon="8.147353">
|
|
<ele>2.612125</ele>
|
|
<time>2026-07-12T10:52:30.000Z</time>
|
|
</trkpt>
|
|
<trkpt lat="55.952621" lon="8.147309">
|
|
<ele>2.599617</ele>
|
|
<time>2026-07-12T10:52:31.000Z</time>
|
|
</trkpt>
|
|
<trkpt lat="55.952660" lon="8.147265">
|
|
<ele>2.585875</ele>
|
|
<time>2026-07-12T10:52:32.000Z</time>
|
|
</trkpt>
|
|
<trkpt lat="55.952698" lon="8.147223">
|
|
<ele>2.572563</ele>
|
|
<time>2026-07-12T10:52:33.000Z</time>
|
|
</trkpt>
|
|
<trkpt lat="55.952736" lon="8.147180">
|
|
<ele>2.559162</ele>
|
|
<time>2026-07-12T10:52:34.000Z</time>
|
|
</trkpt>
|
|
<trkpt lat="55.952774" lon="8.147137">
|
|
<ele>2.545761</ele>
|
|
<time>2026-07-12T10:52:35.000Z</time>
|
|
</trkpt>
|
|
<trkpt lat="55.952816" lon="8.147095">
|
|
<ele>2.531422</ele>
|
|
<time>2026-07-12T10:52:36.000Z</time>
|
|
</trkpt>
|
|
<trkpt lat="55.952854" lon="8.147052">
|
|
<ele>2.518021</ele>
|
|
<time>2026-07-12T10:52:37.000Z</time>
|
|
</trkpt>
|
|
<trkpt lat="55.952896" lon="8.147009">
|
|
<ele>2.503599</ele>
|
|
<time>2026-07-12T10:52:38.000Z</time>
|
|
</trkpt>
|
|
<trkpt lat="55.952934" lon="8.146966">
|
|
<ele>2.490198</ele>
|
|
<time>2026-07-12T10:52:39.000Z</time>
|
|
</trkpt>
|
|
<trkpt lat="55.952976" lon="8.146922">
|
|
<ele>2.475693</ele>
|
|
<time>2026-07-12T10:52:40.000Z</time>
|
|
</trkpt>
|
|
<trkpt lat="55.953014" lon="8.146883">
|
|
<ele>2.462637</ele>
|
|
<time>2026-07-12T10:52:41.000Z</time>
|
|
</trkpt>
|
|
<trkpt lat="55.953053" lon="8.146843">
|
|
<ele>2.449240</ele>
|
|
<time>2026-07-12T10:52:42.000Z</time>
|
|
</trkpt>
|
|
<trkpt lat="55.953098" lon="8.146792">
|
|
<ele>2.433363</ele>
|
|
<time>2026-07-12T10:52:43.000Z</time>
|
|
</trkpt>
|
|
<trkpt lat="55.953136" lon="8.146749">
|
|
<ele>2.419962</ele>
|
|
<time>2026-07-12T10:52:44.000Z</time>
|
|
</trkpt>
|
|
<trkpt lat="55.953175" lon="8.146708">
|
|
<ele>2.406481</ele>
|
|
<time>2026-07-12T10:52:45.000Z</time>
|
|
</trkpt>
|
|
<trkpt lat="55.953217" lon="8.146668">
|
|
<ele>2.392302</ele>
|
|
<time>2026-07-12T10:52:46.000Z</time>
|
|
</trkpt>
|
|
<trkpt lat="55.953255" lon="8.146627">
|
|
<ele>2.379076</ele>
|
|
<time>2026-07-12T10:52:47.000Z</time>
|
|
</trkpt>
|
|
<trkpt lat="55.953293" lon="8.146584">
|
|
<ele>2.365676</ele>
|
|
<time>2026-07-12T10:52:48.000Z</time>
|
|
</trkpt>
|
|
<trkpt lat="55.953331" lon="8.146540">
|
|
<ele>2.371566</ele>
|
|
<time>2026-07-12T10:52:49.000Z</time>
|
|
</trkpt>
|
|
<trkpt lat="55.953373" lon="8.146491">
|
|
<ele>2.378281</ele>
|
|
<time>2026-07-12T10:52:50.000Z</time>
|
|
</trkpt>
|
|
<trkpt lat="55.953411" lon="8.146447">
|
|
<ele>2.384342</ele>
|
|
<time>2026-07-12T10:52:51.000Z</time>
|
|
</trkpt>
|
|
<trkpt lat="55.953449" lon="8.146403">
|
|
<ele>2.390404</ele>
|
|
<time>2026-07-12T10:52:52.000Z</time>
|
|
</trkpt>
|
|
<trkpt lat="55.953487" lon="8.146358">
|
|
<ele>2.396506</ele>
|
|
<time>2026-07-12T10:52:53.000Z</time>
|
|
</trkpt>
|
|
<trkpt lat="55.953526" lon="8.146312">
|
|
<ele>2.402762</ele>
|
|
<time>2026-07-12T10:52:54.000Z</time>
|
|
</trkpt>
|
|
<trkpt lat="55.953568" lon="8.146264">
|
|
<ele>2.409436</ele>
|
|
<time>2026-07-12T10:52:55.000Z</time>
|
|
</trkpt>
|
|
<trkpt lat="55.953602" lon="8.146216">
|
|
<ele>2.415237</ele>
|
|
<time>2026-07-12T10:52:56.000Z</time>
|
|
</trkpt>
|
|
<trkpt lat="55.953640" lon="8.146169">
|
|
<ele>2.421424</ele>
|
|
<time>2026-07-12T10:52:57.000Z</time>
|
|
</trkpt>
|
|
<trkpt lat="55.953678" lon="8.146124">
|
|
<ele>2.427526</ele>
|
|
<time>2026-07-12T10:52:58.000Z</time>
|
|
</trkpt>
|
|
<trkpt lat="55.953716" lon="8.146084">
|
|
<ele>2.433430</ele>
|
|
<time>2026-07-12T10:52:59.000Z</time>
|
|
</trkpt>
|
|
<trkpt lat="55.953758" lon="8.146044">
|
|
<ele>2.439801</ele>
|
|
<time>2026-07-12T10:53:00.000Z</time>
|
|
</trkpt>
|
|
<trkpt lat="55.953796" lon="8.146003">
|
|
<ele>2.445743</ele>
|
|
<time>2026-07-12T10:53:01.000Z</time>
|
|
</trkpt>
|
|
<trkpt lat="55.953835" lon="8.145961">
|
|
<ele>2.451839</ele>
|
|
<time>2026-07-12T10:53:02.000Z</time>
|
|
</trkpt>
|
|
<trkpt lat="55.953876" lon="8.145918">
|
|
<ele>2.458203</ele>
|
|
<time>2026-07-12T10:53:03.000Z</time>
|
|
</trkpt>
|
|
<trkpt lat="55.953915" lon="8.145876">
|
|
<ele>2.464298</ele>
|
|
<time>2026-07-12T10:53:04.000Z</time>
|
|
</trkpt>
|
|
<trkpt lat="55.953953" lon="8.145832">
|
|
<ele>2.470360</ele>
|
|
<time>2026-07-12T10:53:05.000Z</time>
|
|
</trkpt>
|
|
<trkpt lat="55.953991" lon="8.145790">
|
|
<ele>2.476341</ele>
|
|
<time>2026-07-12T10:53:06.000Z</time>
|
|
</trkpt>
|
|
<trkpt lat="55.954025" lon="8.145754">
|
|
<ele>2.481632</ele>
|
|
<time>2026-07-12T10:53:07.000Z</time>
|
|
</trkpt>
|
|
<trkpt lat="55.954060" lon="8.145717">
|
|
<ele>2.487075</ele>
|
|
<time>2026-07-12T10:53:08.000Z</time>
|
|
</trkpt>
|
|
<trkpt lat="55.954098" lon="8.145672">
|
|
<ele>2.493178</ele>
|
|
<time>2026-07-12T10:53:09.000Z</time>
|
|
</trkpt>
|
|
<trkpt lat="55.954132" lon="8.145634">
|
|
<ele>2.498547</ele>
|
|
<time>2026-07-12T10:53:10.000Z</time>
|
|
</trkpt>
|
|
<trkpt lat="55.954166" lon="8.145595">
|
|
<ele>2.503955</ele>
|
|
<time>2026-07-12T10:53:11.000Z</time>
|
|
</trkpt>
|
|
<trkpt lat="55.954201" lon="8.145559">
|
|
<ele>2.509361</ele>
|
|
<time>2026-07-12T10:53:12.000Z</time>
|
|
</trkpt>
|
|
<trkpt lat="55.954235" lon="8.145525">
|
|
<ele>2.514577</ele>
|
|
<time>2026-07-12T10:53:13.000Z</time>
|
|
</trkpt>
|
|
<trkpt lat="55.954266" lon="8.145493">
|
|
<ele>2.519369</ele>
|
|
<time>2026-07-12T10:53:14.000Z</time>
|
|
</trkpt>
|
|
<trkpt lat="55.954304" lon="8.145462">
|
|
<ele>2.524961</ele>
|
|
<time>2026-07-12T10:53:15.000Z</time>
|
|
</trkpt>
|
|
<trkpt lat="55.954342" lon="8.145433">
|
|
<ele>2.530492</ele>
|
|
<time>2026-07-12T10:53:16.000Z</time>
|
|
</trkpt>
|
|
<trkpt lat="55.954380" lon="8.145401">
|
|
<ele>2.536115</ele>
|
|
<time>2026-07-12T10:53:17.000Z</time>
|
|
</trkpt>
|
|
<trkpt lat="55.954422" lon="8.145370">
|
|
<ele>2.542198</ele>
|
|
<time>2026-07-12T10:53:18.000Z</time>
|
|
</trkpt>
|
|
<trkpt lat="55.954464" lon="8.145333">
|
|
<ele>2.548466</ele>
|
|
<time>2026-07-12T10:53:19.000Z</time>
|
|
</trkpt>
|
|
<trkpt lat="55.954506" lon="8.145294">
|
|
<ele>2.554802</ele>
|
|
<time>2026-07-12T10:53:20.000Z</time>
|
|
</trkpt>
|
|
<trkpt lat="55.954548" lon="8.145250">
|
|
<ele>2.561319</ele>
|
|
<time>2026-07-12T10:53:21.000Z</time>
|
|
</trkpt>
|
|
<trkpt lat="55.954590" lon="8.145209">
|
|
<ele>2.567726</ele>
|
|
<time>2026-07-12T10:53:22.000Z</time>
|
|
</trkpt>
|
|
<trkpt lat="55.954636" lon="8.145167">
|
|
<ele>2.574641</ele>
|
|
<time>2026-07-12T10:53:23.000Z</time>
|
|
</trkpt>
|
|
<trkpt lat="55.954678" lon="8.145126">
|
|
<ele>2.581047</ele>
|
|
<time>2026-07-12T10:53:24.000Z</time>
|
|
</trkpt>
|
|
<trkpt lat="55.954720" lon="8.145084">
|
|
<ele>2.587490</ele>
|
|
<time>2026-07-12T10:53:25.000Z</time>
|
|
</trkpt>
|
|
<trkpt lat="55.954765" lon="8.145043">
|
|
<ele>2.594252</ele>
|
|
<time>2026-07-12T10:53:26.000Z</time>
|
|
</trkpt>
|
|
<trkpt lat="55.954807" lon="8.145000">
|
|
<ele>2.600731</ele>
|
|
<time>2026-07-12T10:53:27.000Z</time>
|
|
</trkpt>
|
|
<trkpt lat="55.954849" lon="8.144959">
|
|
<ele>2.606069</ele>
|
|
<time>2026-07-12T10:53:28.000Z</time>
|
|
</trkpt>
|
|
<trkpt lat="55.954891" lon="8.144917">
|
|
<ele>2.604231</ele>
|
|
<time>2026-07-12T10:53:29.000Z</time>
|
|
</trkpt>
|
|
<trkpt lat="55.954933" lon="8.144876">
|
|
<ele>2.602403</ele>
|
|
<time>2026-07-12T10:53:30.000Z</time>
|
|
</trkpt>
|
|
<trkpt lat="55.954975" lon="8.144836">
|
|
<ele>2.600586</ele>
|
|
<time>2026-07-12T10:53:31.000Z</time>
|
|
</trkpt>
|
|
<trkpt lat="55.955017" lon="8.144799">
|
|
<ele>2.598798</ele>
|
|
<time>2026-07-12T10:53:32.000Z</time>
|
|
</trkpt>
|
|
<trkpt lat="55.955059" lon="8.144760">
|
|
<ele>2.596990</ele>
|
|
<time>2026-07-12T10:53:33.000Z</time>
|
|
</trkpt>
|
|
<trkpt lat="55.955097" lon="8.144719">
|
|
<ele>2.595295</ele>
|
|
<time>2026-07-12T10:53:34.000Z</time>
|
|
</trkpt>
|
|
<trkpt lat="55.955135" lon="8.144684">
|
|
<ele>2.593662</ele>
|
|
<time>2026-07-12T10:53:35.000Z</time>
|
|
</trkpt>
|
|
<trkpt lat="55.955177" lon="8.144649">
|
|
<ele>2.591893</ele>
|
|
<time>2026-07-12T10:53:36.000Z</time>
|
|
</trkpt>
|
|
<trkpt lat="55.955223" lon="8.144609">
|
|
<ele>2.589939</ele>
|
|
<time>2026-07-12T10:53:37.000Z</time>
|
|
</trkpt>
|
|
<trkpt lat="55.955265" lon="8.144574">
|
|
<ele>2.588169</ele>
|
|
<time>2026-07-12T10:53:38.000Z</time>
|
|
</trkpt>
|
|
<trkpt lat="55.955307" lon="8.144539">
|
|
<ele>2.586400</ele>
|
|
<time>2026-07-12T10:53:39.000Z</time>
|
|
</trkpt>
|
|
<trkpt lat="55.955349" lon="8.144504">
|
|
<ele>2.584630</ele>
|
|
<time>2026-07-12T10:53:40.000Z</time>
|
|
</trkpt>
|
|
<trkpt lat="55.955387" lon="8.144467">
|
|
<ele>2.582977</ele>
|
|
<time>2026-07-12T10:53:41.000Z</time>
|
|
</trkpt>
|
|
<trkpt lat="55.955429" lon="8.144428">
|
|
<ele>2.581170</ele>
|
|
<time>2026-07-12T10:53:42.000Z</time>
|
|
</trkpt>
|
|
<trkpt lat="55.955467" lon="8.144393">
|
|
<ele>2.579537</ele>
|
|
<time>2026-07-12T10:53:43.000Z</time>
|
|
</trkpt>
|
|
<trkpt lat="55.955509" lon="8.144358">
|
|
<ele>2.577767</ele>
|
|
<time>2026-07-12T10:53:44.000Z</time>
|
|
</trkpt>
|
|
<trkpt lat="55.955547" lon="8.144325">
|
|
<ele>2.576154</ele>
|
|
<time>2026-07-12T10:53:45.000Z</time>
|
|
</trkpt>
|
|
<trkpt lat="55.955589" lon="8.144295">
|
|
<ele>2.574427</ele>
|
|
<time>2026-07-12T10:53:46.000Z</time>
|
|
</trkpt>
|
|
<trkpt lat="55.955627" lon="8.144265">
|
|
<ele>2.572840</ele>
|
|
<time>2026-07-12T10:53:47.000Z</time>
|
|
</trkpt>
|
|
<trkpt lat="55.955669" lon="8.144234">
|
|
<ele>2.571105</ele>
|
|
<time>2026-07-12T10:53:48.000Z</time>
|
|
</trkpt>
|
|
<trkpt lat="55.955711" lon="8.144198">
|
|
<ele>2.569326</ele>
|
|
<time>2026-07-12T10:53:49.000Z</time>
|
|
</trkpt>
|
|
<trkpt lat="55.955750" lon="8.144164">
|
|
<ele>2.567669</ele>
|
|
<time>2026-07-12T10:53:50.000Z</time>
|
|
</trkpt>
|
|
<trkpt lat="55.955788" lon="8.144128">
|
|
<ele>2.566026</ele>
|
|
<time>2026-07-12T10:53:51.000Z</time>
|
|
</trkpt>
|
|
<trkpt lat="55.955830" lon="8.144093">
|
|
<ele>2.564257</ele>
|
|
<time>2026-07-12T10:53:52.000Z</time>
|
|
</trkpt>
|
|
<trkpt lat="55.955868" lon="8.144056">
|
|
<ele>2.562604</ele>
|
|
<time>2026-07-12T10:53:53.000Z</time>
|
|
</trkpt>
|
|
<trkpt lat="55.955902" lon="8.144021">
|
|
<ele>2.561106</ele>
|
|
<time>2026-07-12T10:53:54.000Z</time>
|
|
</trkpt>
|
|
<trkpt lat="55.955944" lon="8.143988">
|
|
<ele>2.559354</ele>
|
|
<time>2026-07-12T10:53:55.000Z</time>
|
|
</trkpt>
|
|
<trkpt lat="55.955986" lon="8.143954">
|
|
<ele>2.557593</ele>
|
|
<time>2026-07-12T10:53:56.000Z</time>
|
|
</trkpt>
|
|
<trkpt lat="55.956028" lon="8.143920">
|
|
<ele>2.555832</ele>
|
|
<time>2026-07-12T10:53:57.000Z</time>
|
|
</trkpt>
|
|
<trkpt lat="55.956070" lon="8.143885">
|
|
<ele>2.554062</ele>
|
|
<time>2026-07-12T10:53:58.000Z</time>
|
|
</trkpt>
|
|
<trkpt lat="55.956108" lon="8.143848">
|
|
<ele>2.552410</ele>
|
|
<time>2026-07-12T10:53:59.000Z</time>
|
|
</trkpt>
|
|
<trkpt lat="55.956146" lon="8.143814">
|
|
<ele>2.550787</ele>
|
|
<time>2026-07-12T10:54:00.000Z</time>
|
|
</trkpt>
|
|
<trkpt lat="55.956181" lon="8.143781">
|
|
<ele>2.549276</ele>
|
|
<time>2026-07-12T10:54:01.000Z</time>
|
|
</trkpt>
|
|
<trkpt lat="55.956230" lon="8.143735">
|
|
<ele>2.547162</ele>
|
|
<time>2026-07-12T10:54:02.000Z</time>
|
|
</trkpt>
|
|
<trkpt lat="55.956268" lon="8.143701">
|
|
<ele>2.545539</ele>
|
|
<time>2026-07-12T10:54:03.000Z</time>
|
|
</trkpt>
|
|
<trkpt lat="55.956306" lon="8.143664">
|
|
<ele>2.543886</ele>
|
|
<time>2026-07-12T10:54:04.000Z</time>
|
|
</trkpt>
|
|
<trkpt lat="55.956352" lon="8.143625">
|
|
<ele>2.541942</ele>
|
|
<time>2026-07-12T10:54:05.000Z</time>
|
|
</trkpt>
|
|
<trkpt lat="55.956394" lon="8.143587">
|
|
<ele>2.540144</ele>
|
|
<time>2026-07-12T10:54:06.000Z</time>
|
|
</trkpt>
|
|
<trkpt lat="55.956429" lon="8.143546">
|
|
<ele>2.538546</ele>
|
|
<time>2026-07-12T10:54:07.000Z</time>
|
|
</trkpt>
|
|
<trkpt lat="55.956467" lon="8.143509">
|
|
<ele>2.544926</ele>
|
|
<time>2026-07-12T10:54:08.000Z</time>
|
|
</trkpt>
|
|
<trkpt lat="55.956505" lon="8.143475">
|
|
<ele>2.561127</ele>
|
|
<time>2026-07-12T10:54:09.000Z</time>
|
|
</trkpt>
|
|
<trkpt lat="55.956547" lon="8.143441">
|
|
<ele>2.578704</ele>
|
|
<time>2026-07-12T10:54:10.000Z</time>
|
|
</trkpt>
|
|
<trkpt lat="55.956585" lon="8.143407">
|
|
<ele>2.594905</ele>
|
|
<time>2026-07-12T10:54:11.000Z</time>
|
|
</trkpt>
|
|
<trkpt lat="55.956627" lon="8.143373">
|
|
<ele>2.612483</ele>
|
|
<time>2026-07-12T10:54:12.000Z</time>
|
|
</trkpt>
|
|
<trkpt lat="55.956665" lon="8.143339">
|
|
<ele>2.628684</ele>
|
|
<time>2026-07-12T10:54:13.000Z</time>
|
|
</trkpt>
|
|
<trkpt lat="55.956703" lon="8.143306">
|
|
<ele>2.644791</ele>
|
|
<time>2026-07-12T10:54:14.000Z</time>
|
|
</trkpt>
|
|
<trkpt lat="55.956745" lon="8.143273">
|
|
<ele>2.662281</ele>
|
|
<time>2026-07-12T10:54:15.000Z</time>
|
|
</trkpt>
|
|
<trkpt lat="55.956783" lon="8.143239">
|
|
<ele>2.678482</ele>
|
|
<time>2026-07-12T10:54:16.000Z</time>
|
|
</trkpt>
|
|
<trkpt lat="55.956825" lon="8.143203">
|
|
<ele>2.696240</ele>
|
|
<time>2026-07-12T10:54:17.000Z</time>
|
|
</trkpt>
|
|
<trkpt lat="55.956867" lon="8.143166">
|
|
<ele>2.714091</ele>
|
|
<time>2026-07-12T10:54:18.000Z</time>
|
|
</trkpt>
|
|
<trkpt lat="55.956902" lon="8.143125">
|
|
<ele>2.730046</ele>
|
|
<time>2026-07-12T10:54:19.000Z</time>
|
|
</trkpt>
|
|
<trkpt lat="55.956940" lon="8.143082">
|
|
<ele>2.747194</ele>
|
|
<time>2026-07-12T10:54:20.000Z</time>
|
|
</trkpt>
|
|
<trkpt lat="55.956978" lon="8.143040">
|
|
<ele>2.764228</ele>
|
|
<time>2026-07-12T10:54:21.000Z</time>
|
|
</trkpt>
|
|
<trkpt lat="55.957016" lon="8.143001">
|
|
<ele>2.780934</ele>
|
|
<time>2026-07-12T10:54:22.000Z</time>
|
|
</trkpt>
|
|
<trkpt lat="55.957054" lon="8.142964">
|
|
<ele>2.797431</ele>
|
|
<time>2026-07-12T10:54:23.000Z</time>
|
|
</trkpt>
|
|
<trkpt lat="55.957096" lon="8.142931">
|
|
<ele>2.814922</ele>
|
|
<time>2026-07-12T10:54:24.000Z</time>
|
|
</trkpt>
|
|
<trkpt lat="55.957134" lon="8.142901">
|
|
<ele>2.830759</ele>
|
|
<time>2026-07-12T10:54:25.000Z</time>
|
|
</trkpt>
|
|
<trkpt lat="55.957172" lon="8.142872">
|
|
<ele>2.846511</ele>
|
|
<time>2026-07-12T10:54:26.000Z</time>
|
|
</trkpt>
|
|
<trkpt lat="55.957218" lon="8.142840">
|
|
<ele>2.865329</ele>
|
|
<time>2026-07-12T10:54:27.000Z</time>
|
|
</trkpt>
|
|
<trkpt lat="55.957256" lon="8.142805">
|
|
<ele>2.881626</ele>
|
|
<time>2026-07-12T10:54:28.000Z</time>
|
|
</trkpt>
|
|
<trkpt lat="55.957298" lon="8.142764">
|
|
<ele>2.899871</ele>
|
|
<time>2026-07-12T10:54:29.000Z</time>
|
|
</trkpt>
|
|
<trkpt lat="55.957340" lon="8.142728">
|
|
<ele>2.917629</ele>
|
|
<time>2026-07-12T10:54:30.000Z</time>
|
|
</trkpt>
|
|
<trkpt lat="55.957378" lon="8.142694">
|
|
<ele>2.933830</ele>
|
|
<time>2026-07-12T10:54:31.000Z</time>
|
|
</trkpt>
|
|
<trkpt lat="55.957417" lon="8.142659">
|
|
<ele>2.950467</ele>
|
|
<time>2026-07-12T10:54:32.000Z</time>
|
|
</trkpt>
|
|
<trkpt lat="55.957459" lon="8.142623">
|
|
<ele>2.968225</ele>
|
|
<time>2026-07-12T10:54:33.000Z</time>
|
|
</trkpt>
|
|
<trkpt lat="55.957497" lon="8.142589">
|
|
<ele>2.984426</ele>
|
|
<time>2026-07-12T10:54:34.000Z</time>
|
|
</trkpt>
|
|
<trkpt lat="55.957539" lon="8.142554">
|
|
<ele>3.002093</ele>
|
|
<time>2026-07-12T10:54:35.000Z</time>
|
|
</trkpt>
|
|
<trkpt lat="55.957577" lon="8.142520">
|
|
<ele>3.018294</ele>
|
|
<time>2026-07-12T10:54:36.000Z</time>
|
|
</trkpt>
|
|
<trkpt lat="55.957615" lon="8.142483">
|
|
<ele>3.034791</ele>
|
|
<time>2026-07-12T10:54:37.000Z</time>
|
|
</trkpt>
|
|
<trkpt lat="55.957653" lon="8.142447">
|
|
<ele>3.051188</ele>
|
|
<time>2026-07-12T10:54:38.000Z</time>
|
|
</trkpt>
|
|
<trkpt lat="55.957691" lon="8.142410">
|
|
<ele>3.067686</ele>
|
|
<time>2026-07-12T10:54:39.000Z</time>
|
|
</trkpt>
|
|
<trkpt lat="55.957729" lon="8.142375">
|
|
<ele>3.083983</ele>
|
|
<time>2026-07-12T10:54:40.000Z</time>
|
|
</trkpt>
|
|
<trkpt lat="55.957767" lon="8.142341">
|
|
<ele>3.100184</ele>
|
|
<time>2026-07-12T10:54:41.000Z</time>
|
|
</trkpt>
|
|
<trkpt lat="55.957806" lon="8.142307">
|
|
<ele>3.116727</ele>
|
|
<time>2026-07-12T10:54:42.000Z</time>
|
|
</trkpt>
|
|
<trkpt lat="55.957844" lon="8.142277">
|
|
<ele>3.132564</ele>
|
|
<time>2026-07-12T10:54:43.000Z</time>
|
|
</trkpt>
|
|
<trkpt lat="55.957882" lon="8.142250">
|
|
<ele>3.148153</ele>
|
|
<time>2026-07-12T10:54:44.000Z</time>
|
|
</trkpt>
|
|
<trkpt lat="55.957920" lon="8.142224">
|
|
<ele>3.163664</ele>
|
|
<time>2026-07-12T10:54:45.000Z</time>
|
|
</trkpt>
|
|
<trkpt lat="55.957954" lon="8.142197">
|
|
<ele>3.177848</ele>
|
|
<time>2026-07-12T10:54:46.000Z</time>
|
|
</trkpt>
|
|
<trkpt lat="55.957993" lon="8.142167">
|
|
<ele>3.194035</ele>
|
|
<time>2026-07-12T10:54:47.000Z</time>
|
|
</trkpt>
|
|
<trkpt lat="55.958027" lon="8.142137">
|
|
<ele>3.208490</ele>
|
|
<time>2026-07-12T10:54:48.000Z</time>
|
|
</trkpt>
|
|
<trkpt lat="55.958061" lon="8.142105">
|
|
<ele>3.223140</ele>
|
|
<time>2026-07-12T10:54:49.000Z</time>
|
|
</trkpt>
|
|
<trkpt lat="55.958096" lon="8.142072">
|
|
<ele>3.246205</ele>
|
|
<time>2026-07-12T10:54:50.000Z</time>
|
|
</trkpt>
|
|
<trkpt lat="55.958130" lon="8.142040">
|
|
<ele>3.268665</ele>
|
|
<time>2026-07-12T10:54:51.000Z</time>
|
|
</trkpt>
|
|
<trkpt lat="55.958160" lon="8.142009">
|
|
<ele>3.288920</ele>
|
|
<time>2026-07-12T10:54:52.000Z</time>
|
|
</trkpt>
|
|
<trkpt lat="55.958199" lon="8.141973">
|
|
<ele>3.314575</ele>
|
|
<time>2026-07-12T10:54:53.000Z</time>
|
|
</trkpt>
|
|
<trkpt lat="55.958229" lon="8.141941">
|
|
<ele>3.334996</ele>
|
|
<time>2026-07-12T10:54:54.000Z</time>
|
|
</trkpt>
|
|
<trkpt lat="55.958267" lon="8.141905">
|
|
<ele>3.360134</ele>
|
|
<time>2026-07-12T10:54:55.000Z</time>
|
|
</trkpt>
|
|
<trkpt lat="55.958302" lon="8.141875">
|
|
<ele>3.382822</ele>
|
|
<time>2026-07-12T10:54:56.000Z</time>
|
|
</trkpt>
|
|
<trkpt lat="55.958343" lon="8.141839">
|
|
<ele>3.409522</ele>
|
|
<time>2026-07-12T10:54:57.000Z</time>
|
|
</trkpt>
|
|
<trkpt lat="55.958382" lon="8.141809">
|
|
<ele>3.434338</ele>
|
|
<time>2026-07-12T10:54:58.000Z</time>
|
|
</trkpt>
|
|
<trkpt lat="55.958420" lon="8.141775">
|
|
<ele>3.459176</ele>
|
|
<time>2026-07-12T10:54:59.000Z</time>
|
|
</trkpt>
|
|
<trkpt lat="55.958454" lon="8.141741">
|
|
<ele>3.481948</ele>
|
|
<time>2026-07-12T10:55:00.000Z</time>
|
|
</trkpt>
|
|
<trkpt lat="55.958492" lon="8.141705">
|
|
<ele>3.507086</ele>
|
|
<time>2026-07-12T10:55:01.000Z</time>
|
|
</trkpt>
|
|
<trkpt lat="55.958527" lon="8.141671">
|
|
<ele>3.530370</ele>
|
|
<time>2026-07-12T10:55:02.000Z</time>
|
|
</trkpt>
|
|
<trkpt lat="55.958565" lon="8.141639">
|
|
<ele>3.554922</ele>
|
|
<time>2026-07-12T10:55:03.000Z</time>
|
|
</trkpt>
|
|
<trkpt lat="55.958603" lon="8.141606">
|
|
<ele>3.579616</ele>
|
|
<time>2026-07-12T10:55:04.000Z</time>
|
|
</trkpt>
|
|
<trkpt lat="55.958641" lon="8.141577">
|
|
<ele>3.603766</ele>
|
|
<time>2026-07-12T10:55:05.000Z</time>
|
|
</trkpt>
|
|
<trkpt lat="55.958683" lon="8.141551">
|
|
<ele>3.629744</ele>
|
|
<time>2026-07-12T10:55:06.000Z</time>
|
|
</trkpt>
|
|
<trkpt lat="55.958725" lon="8.141528">
|
|
<ele>3.655417</ele>
|
|
<time>2026-07-12T10:55:07.000Z</time>
|
|
</trkpt>
|
|
<trkpt lat="55.958767" lon="8.141508">
|
|
<ele>3.680821</ele>
|
|
<time>2026-07-12T10:55:08.000Z</time>
|
|
</trkpt>
|
|
<trkpt lat="55.958809" lon="8.141490">
|
|
<ele>3.706063</ele>
|
|
<time>2026-07-12T10:55:09.000Z</time>
|
|
</trkpt>
|
|
<trkpt lat="55.958851" lon="8.141475">
|
|
<ele>3.731095</ele>
|
|
<time>2026-07-12T10:55:10.000Z</time>
|
|
</trkpt>
|
|
<trkpt lat="55.958897" lon="8.141463">
|
|
<ele>3.758264</ele>
|
|
<time>2026-07-12T10:55:11.000Z</time>
|
|
</trkpt>
|
|
<trkpt lat="55.958939" lon="8.141456">
|
|
<ele>3.782916</ele>
|
|
<time>2026-07-12T10:55:12.000Z</time>
|
|
</trkpt>
|
|
<trkpt lat="55.958981" lon="8.141447">
|
|
<ele>3.807638</ele>
|
|
<time>2026-07-12T10:55:13.000Z</time>
|
|
</trkpt>
|
|
<trkpt lat="55.959019" lon="8.141439">
|
|
<ele>3.830000</ele>
|
|
<time>2026-07-12T10:55:14.000Z</time>
|
|
</trkpt>
|
|
<trkpt lat="55.959057" lon="8.141436">
|
|
<ele>3.852230</ele>
|
|
<time>2026-07-12T10:55:15.000Z</time>
|
|
</trkpt>
|
|
<trkpt lat="55.959095" lon="8.141432">
|
|
<ele>3.874477</ele>
|
|
<time>2026-07-12T10:55:16.000Z</time>
|
|
</trkpt>
|
|
<trkpt lat="55.959129" lon="8.141429">
|
|
<ele>3.894372</ele>
|
|
<time>2026-07-12T10:55:17.000Z</time>
|
|
</trkpt>
|
|
<trkpt lat="55.959164" lon="8.141426">
|
|
<ele>3.914850</ele>
|
|
<time>2026-07-12T10:55:18.000Z</time>
|
|
</trkpt>
|
|
<trkpt lat="55.959202" lon="8.141419">
|
|
<ele>3.937176</ele>
|
|
<time>2026-07-12T10:55:19.000Z</time>
|
|
</trkpt>
|
|
<trkpt lat="55.959236" lon="8.141411">
|
|
<ele>3.957219</ele>
|
|
<time>2026-07-12T10:55:20.000Z</time>
|
|
</trkpt>
|
|
<trkpt lat="55.959271" lon="8.141403">
|
|
<ele>3.977840</ele>
|
|
<time>2026-07-12T10:55:21.000Z</time>
|
|
</trkpt>
|
|
<trkpt lat="55.959305" lon="8.141394">
|
|
<ele>3.997928</ele>
|
|
<time>2026-07-12T10:55:22.000Z</time>
|
|
</trkpt>
|
|
<trkpt lat="55.959339" lon="8.141382">
|
|
<ele>4.018183</ele>
|
|
<time>2026-07-12T10:55:23.000Z</time>
|
|
</trkpt>
|
|
<trkpt lat="55.959373" lon="8.141369">
|
|
<ele>4.038503</ele>
|
|
<time>2026-07-12T10:55:24.000Z</time>
|
|
</trkpt>
|
|
<trkpt lat="55.959408" lon="8.141357">
|
|
<ele>4.059331</ele>
|
|
<time>2026-07-12T10:55:25.000Z</time>
|
|
</trkpt>
|
|
<trkpt lat="55.959442" lon="8.141343">
|
|
<ele>4.079723</ele>
|
|
<time>2026-07-12T10:55:26.000Z</time>
|
|
</trkpt>
|
|
<trkpt lat="55.959473" lon="8.141326">
|
|
<ele>4.098675</ele>
|
|
<time>2026-07-12T10:55:27.000Z</time>
|
|
</trkpt>
|
|
<trkpt lat="55.959507" lon="8.141308">
|
|
<ele>4.119400</ele>
|
|
<time>2026-07-12T10:55:28.000Z</time>
|
|
</trkpt>
|
|
<trkpt lat="55.959541" lon="8.141290">
|
|
<ele>4.140124</ele>
|
|
<time>2026-07-12T10:55:29.000Z</time>
|
|
</trkpt>
|
|
<trkpt lat="55.959572" lon="8.141273">
|
|
<ele>4.159076</ele>
|
|
<time>2026-07-12T10:55:30.000Z</time>
|
|
</trkpt>
|
|
<trkpt lat="55.959606" lon="8.141255">
|
|
<ele>4.179801</ele>
|
|
<time>2026-07-12T10:55:31.000Z</time>
|
|
</trkpt>
|
|
<trkpt lat="55.959644" lon="8.141239">
|
|
<ele>4.202618</ele>
|
|
<time>2026-07-12T10:55:32.000Z</time>
|
|
</trkpt>
|
|
<trkpt lat="55.959682" lon="8.141221">
|
|
<ele>4.225593</ele>
|
|
<time>2026-07-12T10:55:33.000Z</time>
|
|
</trkpt>
|
|
<trkpt lat="55.959717" lon="8.141204">
|
|
<ele>4.246791</ele>
|
|
<time>2026-07-12T10:55:34.000Z</time>
|
|
</trkpt>
|
|
<trkpt lat="55.959755" lon="8.141191">
|
|
<ele>4.269403</ele>
|
|
<time>2026-07-12T10:55:35.000Z</time>
|
|
</trkpt>
|
|
<trkpt lat="55.959793" lon="8.141183">
|
|
<ele>4.254332</ele>
|
|
<time>2026-07-12T10:55:36.000Z</time>
|
|
</trkpt>
|
|
<trkpt lat="55.959839" lon="8.141181">
|
|
<ele>4.223125</ele>
|
|
<time>2026-07-12T10:55:37.000Z</time>
|
|
</trkpt>
|
|
<trkpt lat="55.959885" lon="8.141186">
|
|
<ele>4.191871</ele>
|
|
<time>2026-07-12T10:55:38.000Z</time>
|
|
</trkpt>
|
|
<trkpt lat="55.959930" lon="8.141193">
|
|
<ele>4.161236</ele>
|
|
<time>2026-07-12T10:55:39.000Z</time>
|
|
</trkpt>
|
|
<trkpt lat="55.959980" lon="8.141203">
|
|
<ele>4.127114</ele>
|
|
<time>2026-07-12T10:55:40.000Z</time>
|
|
</trkpt>
|
|
<trkpt lat="55.960030" lon="8.141215">
|
|
<ele>4.092900</ele>
|
|
<time>2026-07-12T10:55:41.000Z</time>
|
|
</trkpt>
|
|
<trkpt lat="55.960083" lon="8.141229">
|
|
<ele>4.056564</ele>
|
|
<time>2026-07-12T10:55:42.000Z</time>
|
|
</trkpt>
|
|
<trkpt lat="55.960136" lon="8.141243">
|
|
<ele>4.020229</ele>
|
|
<time>2026-07-12T10:55:43.000Z</time>
|
|
</trkpt>
|
|
<trkpt lat="55.960190" lon="8.141257">
|
|
<ele>3.983223</ele>
|
|
<time>2026-07-12T10:55:44.000Z</time>
|
|
</trkpt>
|
|
<trkpt lat="55.960243" lon="8.141273">
|
|
<ele>3.946768</ele>
|
|
<time>2026-07-12T10:55:45.000Z</time>
|
|
</trkpt>
|
|
<trkpt lat="55.960293" lon="8.141292">
|
|
<ele>3.912100</ele>
|
|
<time>2026-07-12T10:55:46.000Z</time>
|
|
</trkpt>
|
|
<trkpt lat="55.960342" lon="8.141311">
|
|
<ele>3.878094</ele>
|
|
<time>2026-07-12T10:55:47.000Z</time>
|
|
</trkpt>
|
|
<trkpt lat="55.960392" lon="8.141328">
|
|
<ele>3.843575</ele>
|
|
<time>2026-07-12T10:55:48.000Z</time>
|
|
</trkpt>
|
|
<trkpt lat="55.960442" lon="8.141346">
|
|
<ele>3.808984</ele>
|
|
<time>2026-07-12T10:55:49.000Z</time>
|
|
</trkpt>
|
|
<trkpt lat="55.960491" lon="8.141366">
|
|
<ele>3.774896</ele>
|
|
<time>2026-07-12T10:55:50.000Z</time>
|
|
</trkpt>
|
|
<trkpt lat="55.960545" lon="8.141387">
|
|
<ele>3.737415</ele>
|
|
<time>2026-07-12T10:55:51.000Z</time>
|
|
</trkpt>
|
|
<trkpt lat="55.960594" lon="8.141412">
|
|
<ele>3.702855</ele>
|
|
<time>2026-07-12T10:55:52.000Z</time>
|
|
</trkpt>
|
|
<trkpt lat="55.960640" lon="8.141440">
|
|
<ele>3.669896</ele>
|
|
<time>2026-07-12T10:55:53.000Z</time>
|
|
</trkpt>
|
|
<trkpt lat="55.960693" lon="8.141469">
|
|
<ele>3.632304</ele>
|
|
<time>2026-07-12T10:55:54.000Z</time>
|
|
</trkpt>
|
|
<trkpt lat="55.960743" lon="8.141496">
|
|
<ele>3.596878</ele>
|
|
<time>2026-07-12T10:55:55.000Z</time>
|
|
</trkpt>
|
|
<trkpt lat="55.960793" lon="8.141521">
|
|
<ele>3.561665</ele>
|
|
<time>2026-07-12T10:55:56.000Z</time>
|
|
</trkpt>
|
|
<trkpt lat="55.960838" lon="8.141545">
|
|
<ele>3.529815</ele>
|
|
<time>2026-07-12T10:55:57.000Z</time>
|
|
</trkpt>
|
|
<trkpt lat="55.960888" lon="8.141567">
|
|
<ele>3.494892</ele>
|
|
<time>2026-07-12T10:55:58.000Z</time>
|
|
</trkpt>
|
|
<trkpt lat="55.960934" lon="8.141591">
|
|
<ele>3.462392</ele>
|
|
<time>2026-07-12T10:55:59.000Z</time>
|
|
</trkpt>
|
|
<trkpt lat="55.960979" lon="8.141614">
|
|
<ele>3.430648</ele>
|
|
<time>2026-07-12T10:56:00.000Z</time>
|
|
</trkpt>
|
|
<trkpt lat="55.961029" lon="8.141636">
|
|
<ele>3.395725</ele>
|
|
<time>2026-07-12T10:56:01.000Z</time>
|
|
</trkpt>
|
|
<trkpt lat="55.961075" lon="8.141655">
|
|
<ele>3.363705</ele>
|
|
<time>2026-07-12T10:56:02.000Z</time>
|
|
</trkpt>
|
|
<trkpt lat="55.961121" lon="8.141675">
|
|
<ele>3.331597</ele>
|
|
<time>2026-07-12T10:56:03.000Z</time>
|
|
</trkpt>
|
|
<trkpt lat="55.961170" lon="8.141696">
|
|
<ele>3.297422</ele>
|
|
<time>2026-07-12T10:56:04.000Z</time>
|
|
</trkpt>
|
|
<trkpt lat="55.961216" lon="8.141717">
|
|
<ele>3.265223</ele>
|
|
<time>2026-07-12T10:56:05.000Z</time>
|
|
</trkpt>
|
|
<trkpt lat="55.961262" lon="8.141739">
|
|
<ele>3.232927</ele>
|
|
<time>2026-07-12T10:56:06.000Z</time>
|
|
</trkpt>
|
|
<trkpt lat="55.961308" lon="8.141761">
|
|
<ele>3.200631</ele>
|
|
<time>2026-07-12T10:56:07.000Z</time>
|
|
</trkpt>
|
|
<trkpt lat="55.961357" lon="8.141784">
|
|
<ele>3.166271</ele>
|
|
<time>2026-07-12T10:56:08.000Z</time>
|
|
</trkpt>
|
|
<trkpt lat="55.961403" lon="8.141805">
|
|
<ele>3.134072</ele>
|
|
<time>2026-07-12T10:56:09.000Z</time>
|
|
</trkpt>
|
|
<trkpt lat="55.961452" lon="8.141824">
|
|
<ele>3.100066</ele>
|
|
<time>2026-07-12T10:56:10.000Z</time>
|
|
</trkpt>
|
|
<trkpt lat="55.961498" lon="8.141844">
|
|
<ele>3.067958</ele>
|
|
<time>2026-07-12T10:56:11.000Z</time>
|
|
</trkpt>
|
|
<trkpt lat="55.961548" lon="8.141866">
|
|
<ele>3.049029</ele>
|
|
<time>2026-07-12T10:56:12.000Z</time>
|
|
</trkpt>
|
|
<trkpt lat="55.961594" lon="8.141885">
|
|
<ele>3.040758</ele>
|
|
<time>2026-07-12T10:56:13.000Z</time>
|
|
</trkpt>
|
|
<trkpt lat="55.961639" lon="8.141905">
|
|
<ele>3.032635</ele>
|
|
<time>2026-07-12T10:56:14.000Z</time>
|
|
</trkpt>
|
|
<trkpt lat="55.961685" lon="8.141926">
|
|
<ele>3.024318</ele>
|
|
<time>2026-07-12T10:56:15.000Z</time>
|
|
</trkpt>
|
|
<trkpt lat="55.961731" lon="8.141948">
|
|
<ele>3.015975</ele>
|
|
<time>2026-07-12T10:56:16.000Z</time>
|
|
</trkpt>
|
|
<trkpt lat="55.961781" lon="8.141971">
|
|
<ele>3.006931</ele>
|
|
<time>2026-07-12T10:56:17.000Z</time>
|
|
</trkpt>
|
|
<trkpt lat="55.961826" lon="8.141990">
|
|
<ele>2.998830</ele>
|
|
<time>2026-07-12T10:56:18.000Z</time>
|
|
</trkpt>
|
|
<trkpt lat="55.961872" lon="8.142008">
|
|
<ele>2.990581</ele>
|
|
<time>2026-07-12T10:56:19.000Z</time>
|
|
</trkpt>
|
|
<trkpt lat="55.961918" lon="8.142029">
|
|
<ele>2.982264</ele>
|
|
<time>2026-07-12T10:56:20.000Z</time>
|
|
</trkpt>
|
|
<trkpt lat="55.961960" lon="8.142053">
|
|
<ele>2.974539</ele>
|
|
<time>2026-07-12T10:56:21.000Z</time>
|
|
</trkpt>
|
|
<trkpt lat="55.962006" lon="8.142074">
|
|
<ele>2.966222</ele>
|
|
<time>2026-07-12T10:56:22.000Z</time>
|
|
</trkpt>
|
|
<trkpt lat="55.962048" lon="8.142092">
|
|
<ele>2.958655</ele>
|
|
<time>2026-07-12T10:56:23.000Z</time>
|
|
</trkpt>
|
|
<trkpt lat="55.962093" lon="8.142111">
|
|
<ele>2.950555</ele>
|
|
<time>2026-07-12T10:56:24.000Z</time>
|
|
</trkpt>
|
|
<trkpt lat="55.962135" lon="8.142131">
|
|
<ele>2.942940</ele>
|
|
<time>2026-07-12T10:56:25.000Z</time>
|
|
</trkpt>
|
|
<trkpt lat="55.962177" lon="8.142152">
|
|
<ele>2.935300</ele>
|
|
<time>2026-07-12T10:56:26.000Z</time>
|
|
</trkpt>
|
|
<trkpt lat="55.962219" lon="8.142174">
|
|
<ele>2.927633</ele>
|
|
<time>2026-07-12T10:56:27.000Z</time>
|
|
</trkpt>
|
|
<trkpt lat="55.962261" lon="8.142193">
|
|
<ele>2.920043</ele>
|
|
<time>2026-07-12T10:56:28.000Z</time>
|
|
</trkpt>
|
|
<trkpt lat="55.962303" lon="8.142209">
|
|
<ele>2.912520</ele>
|
|
<time>2026-07-12T10:56:29.000Z</time>
|
|
</trkpt>
|
|
<trkpt lat="55.962349" lon="8.142232">
|
|
<ele>2.904152</ele>
|
|
<time>2026-07-12T10:56:30.000Z</time>
|
|
</trkpt>
|
|
<trkpt lat="55.962391" lon="8.142255">
|
|
<ele>2.896456</ele>
|
|
<time>2026-07-12T10:56:31.000Z</time>
|
|
</trkpt>
|
|
<trkpt lat="55.962437" lon="8.142275">
|
|
<ele>2.888163</ele>
|
|
<time>2026-07-12T10:56:32.000Z</time>
|
|
</trkpt>
|
|
<trkpt lat="55.962482" lon="8.142293">
|
|
<ele>2.880084</ele>
|
|
<time>2026-07-12T10:56:33.000Z</time>
|
|
</trkpt>
|
|
<trkpt lat="55.962532" lon="8.142312">
|
|
<ele>2.871129</ele>
|
|
<time>2026-07-12T10:56:34.000Z</time>
|
|
</trkpt>
|
|
<trkpt lat="55.962578" lon="8.142332">
|
|
<ele>2.862836</ele>
|
|
<time>2026-07-12T10:56:35.000Z</time>
|
|
</trkpt>
|
|
<trkpt lat="55.962624" lon="8.142354">
|
|
<ele>2.854494</ele>
|
|
<time>2026-07-12T10:56:36.000Z</time>
|
|
</trkpt>
|
|
<trkpt lat="55.962666" lon="8.142378">
|
|
<ele>2.846769</ele>
|
|
<time>2026-07-12T10:56:37.000Z</time>
|
|
</trkpt>
|
|
<trkpt lat="55.962711" lon="8.142400">
|
|
<ele>2.838596</ele>
|
|
<time>2026-07-12T10:56:38.000Z</time>
|
|
</trkpt>
|
|
<trkpt lat="55.962757" lon="8.142420">
|
|
<ele>2.830302</ele>
|
|
<time>2026-07-12T10:56:39.000Z</time>
|
|
</trkpt>
|
|
<trkpt lat="55.962799" lon="8.142442">
|
|
<ele>2.822635</ele>
|
|
<time>2026-07-12T10:56:40.000Z</time>
|
|
</trkpt>
|
|
<trkpt lat="55.962845" lon="8.142466">
|
|
<ele>2.814240</ele>
|
|
<time>2026-07-12T10:56:41.000Z</time>
|
|
</trkpt>
|
|
<trkpt lat="55.962891" lon="8.142489">
|
|
<ele>2.805872</ele>
|
|
<time>2026-07-12T10:56:42.000Z</time>
|
|
</trkpt>
|
|
<trkpt lat="55.962936" lon="8.142511">
|
|
<ele>2.797699</ele>
|
|
<time>2026-07-12T10:56:43.000Z</time>
|
|
</trkpt>
|
|
<trkpt lat="55.962978" lon="8.142532">
|
|
<ele>2.790059</ele>
|
|
<time>2026-07-12T10:56:44.000Z</time>
|
|
</trkpt>
|
|
<trkpt lat="55.963024" lon="8.142554">
|
|
<ele>2.781717</ele>
|
|
<time>2026-07-12T10:56:45.000Z</time>
|
|
</trkpt>
|
|
<trkpt lat="55.963070" lon="8.142576">
|
|
<ele>2.773375</ele>
|
|
<time>2026-07-12T10:56:46.000Z</time>
|
|
</trkpt>
|
|
<trkpt lat="55.963116" lon="8.142594">
|
|
<ele>2.765125</ele>
|
|
<time>2026-07-12T10:56:47.000Z</time>
|
|
</trkpt>
|
|
<trkpt lat="55.963161" lon="8.142610">
|
|
<ele>2.757087</ele>
|
|
<time>2026-07-12T10:56:48.000Z</time>
|
|
</trkpt>
|
|
<trkpt lat="55.963211" lon="8.142627">
|
|
<ele>2.748171</ele>
|
|
<time>2026-07-12T10:56:49.000Z</time>
|
|
</trkpt>
|
|
<trkpt lat="55.963261" lon="8.142648">
|
|
<ele>2.739060</ele>
|
|
<time>2026-07-12T10:56:50.000Z</time>
|
|
</trkpt>
|
|
<trkpt lat="55.963306" lon="8.142671">
|
|
<ele>2.728100</ele>
|
|
<time>2026-07-12T10:56:51.000Z</time>
|
|
</trkpt>
|
|
<trkpt lat="55.963356" lon="8.142693">
|
|
<ele>2.716042</ele>
|
|
<time>2026-07-12T10:56:52.000Z</time>
|
|
</trkpt>
|
|
<trkpt lat="55.963406" lon="8.142711">
|
|
<ele>2.704099</ele>
|
|
<time>2026-07-12T10:56:53.000Z</time>
|
|
</trkpt>
|
|
<trkpt lat="55.963459" lon="8.142729">
|
|
<ele>2.691467</ele>
|
|
<time>2026-07-12T10:56:54.000Z</time>
|
|
</trkpt>
|
|
<trkpt lat="55.963509" lon="8.142746">
|
|
<ele>2.679549</ele>
|
|
<time>2026-07-12T10:56:55.000Z</time>
|
|
</trkpt>
|
|
<trkpt lat="55.963558" lon="8.142764">
|
|
<ele>2.667835</ele>
|
|
<time>2026-07-12T10:56:56.000Z</time>
|
|
</trkpt>
|
|
<trkpt lat="55.963615" lon="8.142780">
|
|
<ele>2.654325</ele>
|
|
<time>2026-07-12T10:56:57.000Z</time>
|
|
</trkpt>
|
|
<trkpt lat="55.963665" lon="8.142794">
|
|
<ele>2.642474</ele>
|
|
<time>2026-07-12T10:56:58.000Z</time>
|
|
</trkpt>
|
|
<trkpt lat="55.963715" lon="8.142810">
|
|
<ele>2.630580</ele>
|
|
<time>2026-07-12T10:56:59.000Z</time>
|
|
</trkpt>
|
|
<trkpt lat="55.963772" lon="8.142834">
|
|
<ele>2.616867</ele>
|
|
<time>2026-07-12T10:57:00.000Z</time>
|
|
</trkpt>
|
|
<trkpt lat="55.963814" lon="8.142852">
|
|
<ele>2.606754</ele>
|
|
<time>2026-07-12T10:57:01.000Z</time>
|
|
</trkpt>
|
|
<trkpt lat="55.963863" lon="8.142871">
|
|
<ele>2.595013</ele>
|
|
<time>2026-07-12T10:57:02.000Z</time>
|
|
</trkpt>
|
|
<trkpt lat="55.963913" lon="8.142889">
|
|
<ele>2.583070</ele>
|
|
<time>2026-07-12T10:57:03.000Z</time>
|
|
</trkpt>
|
|
<trkpt lat="55.963947" lon="8.142902">
|
|
<ele>2.574928</ele>
|
|
<time>2026-07-12T10:57:04.000Z</time>
|
|
</trkpt>
|
|
<trkpt lat="55.963982" lon="8.142918">
|
|
<ele>2.566469</ele>
|
|
<time>2026-07-12T10:57:05.000Z</time>
|
|
</trkpt>
|
|
<trkpt lat="55.964012" lon="8.142929">
|
|
<ele>2.559298</ele>
|
|
<time>2026-07-12T10:57:06.000Z</time>
|
|
</trkpt>
|
|
<trkpt lat="55.964066" lon="8.142946">
|
|
<ele>2.546458</ele>
|
|
<time>2026-07-12T10:57:07.000Z</time>
|
|
</trkpt>
|
|
<trkpt lat="55.964146" lon="8.142976">
|
|
<ele>2.527318</ele>
|
|
<time>2026-07-12T10:57:08.000Z</time>
|
|
</trkpt>
|
|
<trkpt lat="55.964188" lon="8.142991">
|
|
<ele>2.517289</ele>
|
|
<time>2026-07-12T10:57:09.000Z</time>
|
|
</trkpt>
|
|
<trkpt lat="55.964233" lon="8.143006">
|
|
<ele>2.506570</ele>
|
|
<time>2026-07-12T10:57:10.000Z</time>
|
|
</trkpt>
|
|
<trkpt lat="55.964279" lon="8.143023">
|
|
<ele>2.495570</ele>
|
|
<time>2026-07-12T10:57:11.000Z</time>
|
|
</trkpt>
|
|
<trkpt lat="55.964329" lon="8.143041">
|
|
<ele>2.483627</ele>
|
|
<time>2026-07-12T10:57:12.000Z</time>
|
|
</trkpt>
|
|
<trkpt lat="55.964371" lon="8.143057">
|
|
<ele>2.473572</ele>
|
|
<time>2026-07-12T10:57:13.000Z</time>
|
|
</trkpt>
|
|
<trkpt lat="55.964420" lon="8.143072">
|
|
<ele>2.461931</ele>
|
|
<time>2026-07-12T10:57:14.000Z</time>
|
|
</trkpt>
|
|
<trkpt lat="55.964462" lon="8.143085">
|
|
<ele>2.451950</ele>
|
|
<time>2026-07-12T10:57:15.000Z</time>
|
|
</trkpt>
|
|
<trkpt lat="55.964504" lon="8.143093">
|
|
<ele>2.442060</ele>
|
|
<time>2026-07-12T10:57:16.000Z</time>
|
|
</trkpt>
|
|
<trkpt lat="55.964550" lon="8.143099">
|
|
<ele>2.431260</ele>
|
|
<time>2026-07-12T10:57:17.000Z</time>
|
|
</trkpt>
|
|
<trkpt lat="55.964592" lon="8.143105">
|
|
<ele>2.421394</ele>
|
|
<time>2026-07-12T10:57:18.000Z</time>
|
|
</trkpt>
|
|
<trkpt lat="55.964630" lon="8.143110">
|
|
<ele>2.412472</ele>
|
|
<time>2026-07-12T10:57:19.000Z</time>
|
|
</trkpt>
|
|
<trkpt lat="55.964676" lon="8.143112">
|
|
<ele>2.401697</ele>
|
|
<time>2026-07-12T10:57:20.000Z</time>
|
|
</trkpt>
|
|
<trkpt lat="55.964722" lon="8.143110">
|
|
<ele>2.390923</ele>
|
|
<time>2026-07-12T10:57:21.000Z</time>
|
|
</trkpt>
|
|
<trkpt lat="55.964764" lon="8.143106">
|
|
<ele>2.381074</ele>
|
|
<time>2026-07-12T10:57:22.000Z</time>
|
|
</trkpt>
|
|
<trkpt lat="55.964806" lon="8.143103">
|
|
<ele>2.371232</ele>
|
|
<time>2026-07-12T10:57:23.000Z</time>
|
|
</trkpt>
|
|
<trkpt lat="55.964844" lon="8.143096">
|
|
<ele>2.362287</ele>
|
|
<time>2026-07-12T10:57:24.000Z</time>
|
|
</trkpt>
|
|
<trkpt lat="55.964886" lon="8.143088">
|
|
<ele>2.352397</ele>
|
|
<time>2026-07-12T10:57:25.000Z</time>
|
|
</trkpt>
|
|
<trkpt lat="55.964931" lon="8.143077">
|
|
<ele>2.341761</ele>
|
|
<time>2026-07-12T10:57:26.000Z</time>
|
|
</trkpt>
|
|
<trkpt lat="55.964973" lon="8.143059">
|
|
<ele>2.331648</ele>
|
|
<time>2026-07-12T10:57:27.000Z</time>
|
|
</trkpt>
|
|
<trkpt lat="55.965015" lon="8.143035">
|
|
<ele>2.321323</ele>
|
|
<time>2026-07-12T10:57:28.000Z</time>
|
|
</trkpt>
|
|
<trkpt lat="55.965057" lon="8.143006">
|
|
<ele>2.324233</ele>
|
|
<time>2026-07-12T10:57:29.000Z</time>
|
|
</trkpt>
|
|
<trkpt lat="55.965099" lon="8.142976">
|
|
<ele>2.332472</ele>
|
|
<time>2026-07-12T10:57:30.000Z</time>
|
|
</trkpt>
|
|
<trkpt lat="55.965141" lon="8.142943">
|
|
<ele>2.340830</ele>
|
|
<time>2026-07-12T10:57:31.000Z</time>
|
|
</trkpt>
|
|
<trkpt lat="55.965183" lon="8.142913">
|
|
<ele>2.349069</ele>
|
|
<time>2026-07-12T10:57:32.000Z</time>
|
|
</trkpt>
|
|
<trkpt lat="55.965221" lon="8.142883">
|
|
<ele>2.356636</ele>
|
|
<time>2026-07-12T10:57:33.000Z</time>
|
|
</trkpt>
|
|
<trkpt lat="55.965267" lon="8.142852">
|
|
<ele>2.365591</ele>
|
|
<time>2026-07-12T10:57:34.000Z</time>
|
|
</trkpt>
|
|
<trkpt lat="55.965305" lon="8.142826">
|
|
<ele>2.373003</ele>
|
|
<time>2026-07-12T10:57:35.000Z</time>
|
|
</trkpt>
|
|
<trkpt lat="55.965347" lon="8.142805">
|
|
<ele>2.380947</ele>
|
|
<time>2026-07-12T10:57:36.000Z</time>
|
|
</trkpt>
|
|
<trkpt lat="55.965389" lon="8.142784">
|
|
<ele>2.388891</ele>
|
|
<time>2026-07-12T10:57:37.000Z</time>
|
|
</trkpt>
|
|
<trkpt lat="55.965431" lon="8.142760">
|
|
<ele>2.396923</ele>
|
|
<time>2026-07-12T10:57:38.000Z</time>
|
|
</trkpt>
|
|
<trkpt lat="55.965473" lon="8.142735">
|
|
<ele>2.404987</ele>
|
|
<time>2026-07-12T10:57:39.000Z</time>
|
|
</trkpt>
|
|
<trkpt lat="55.965519" lon="8.142708">
|
|
<ele>2.413806</ele>
|
|
<time>2026-07-12T10:57:40.000Z</time>
|
|
</trkpt>
|
|
<trkpt lat="55.965561" lon="8.142680">
|
|
<ele>2.421972</ele>
|
|
<time>2026-07-12T10:57:41.000Z</time>
|
|
</trkpt>
|
|
<trkpt lat="55.965603" lon="8.142652">
|
|
<ele>2.430137</ele>
|
|
<time>2026-07-12T10:57:42.000Z</time>
|
|
</trkpt>
|
|
<trkpt lat="55.965649" lon="8.142624">
|
|
<ele>2.438989</ele>
|
|
<time>2026-07-12T10:57:43.000Z</time>
|
|
</trkpt>
|
|
<trkpt lat="55.965691" lon="8.142595">
|
|
<ele>2.447191</ele>
|
|
<time>2026-07-12T10:57:44.000Z</time>
|
|
</trkpt>
|
|
<trkpt lat="55.965733" lon="8.142569">
|
|
<ele>2.455287</ele>
|
|
<time>2026-07-12T10:57:45.000Z</time>
|
|
</trkpt>
|
|
<trkpt lat="55.965775" lon="8.142544">
|
|
<ele>2.463351</ele>
|
|
<time>2026-07-12T10:57:46.000Z</time>
|
|
</trkpt>
|
|
<trkpt lat="55.965813" lon="8.142515">
|
|
<ele>2.470877</ele>
|
|
<time>2026-07-12T10:57:47.000Z</time>
|
|
</trkpt>
|
|
<trkpt lat="55.965858" lon="8.142479">
|
|
<ele>2.479858</ele>
|
|
<time>2026-07-12T10:57:48.000Z</time>
|
|
</trkpt>
|
|
<trkpt lat="55.965904" lon="8.142447">
|
|
<ele>2.488850</ele>
|
|
<time>2026-07-12T10:57:49.000Z</time>
|
|
</trkpt>
|
|
<trkpt lat="55.965950" lon="8.142418">
|
|
<ele>2.497735</ele>
|
|
<time>2026-07-12T10:57:50.000Z</time>
|
|
</trkpt>
|
|
<trkpt lat="55.965992" lon="8.142389">
|
|
<ele>2.505936</ele>
|
|
<time>2026-07-12T10:57:51.000Z</time>
|
|
</trkpt>
|
|
<trkpt lat="55.966034" lon="8.142364">
|
|
<ele>2.514000</ele>
|
|
<time>2026-07-12T10:57:52.000Z</time>
|
|
</trkpt>
|
|
<trkpt lat="55.966076" lon="8.142346">
|
|
<ele>2.521867</ele>
|
|
<time>2026-07-12T10:57:53.000Z</time>
|
|
</trkpt>
|
|
<trkpt lat="55.966122" lon="8.142331">
|
|
<ele>2.530385</ele>
|
|
<time>2026-07-12T10:57:54.000Z</time>
|
|
</trkpt>
|
|
<trkpt lat="55.966167" lon="8.142317">
|
|
<ele>2.538705</ele>
|
|
<time>2026-07-12T10:57:55.000Z</time>
|
|
</trkpt>
|
|
<trkpt lat="55.966213" lon="8.142304">
|
|
<ele>2.547188</ele>
|
|
<time>2026-07-12T10:57:56.000Z</time>
|
|
</trkpt>
|
|
<trkpt lat="55.966259" lon="8.142299">
|
|
<ele>2.555582</ele>
|
|
<time>2026-07-12T10:57:57.000Z</time>
|
|
</trkpt>
|
|
<trkpt lat="55.966309" lon="8.142302">
|
|
<ele>2.564695</ele>
|
|
<time>2026-07-12T10:57:58.000Z</time>
|
|
</trkpt>
|
|
<trkpt lat="55.966354" lon="8.142308">
|
|
<ele>2.572914</ele>
|
|
<time>2026-07-12T10:57:59.000Z</time>
|
|
</trkpt>
|
|
<trkpt lat="55.966404" lon="8.142318">
|
|
<ele>2.582078</ele>
|
|
<time>2026-07-12T10:58:00.000Z</time>
|
|
</trkpt>
|
|
<trkpt lat="55.966454" lon="8.142331">
|
|
<ele>2.591282</ele>
|
|
<time>2026-07-12T10:58:01.000Z</time>
|
|
</trkpt>
|
|
<trkpt lat="55.966499" lon="8.142341">
|
|
<ele>2.599542</ele>
|
|
<time>2026-07-12T10:58:02.000Z</time>
|
|
</trkpt>
|
|
<trkpt lat="55.966545" lon="8.142347">
|
|
<ele>2.607943</ele>
|
|
<time>2026-07-12T10:58:03.000Z</time>
|
|
</trkpt>
|
|
<trkpt lat="55.966591" lon="8.142352">
|
|
<ele>2.616337</ele>
|
|
<time>2026-07-12T10:58:04.000Z</time>
|
|
</trkpt>
|
|
<trkpt lat="55.966633" lon="8.142359">
|
|
<ele>2.624021</ele>
|
|
<time>2026-07-12T10:58:05.000Z</time>
|
|
</trkpt>
|
|
<trkpt lat="55.966675" lon="8.142368">
|
|
<ele>2.631726</ele>
|
|
<time>2026-07-12T10:58:06.000Z</time>
|
|
</trkpt>
|
|
<trkpt lat="55.966717" lon="8.142381">
|
|
<ele>2.639490</ele>
|
|
<time>2026-07-12T10:58:07.000Z</time>
|
|
</trkpt>
|
|
<trkpt lat="55.966763" lon="8.142394">
|
|
<ele>2.648204</ele>
|
|
<time>2026-07-12T10:58:08.000Z</time>
|
|
</trkpt>
|
|
<trkpt lat="55.966804" lon="8.142410">
|
|
<ele>2.656732</ele>
|
|
<time>2026-07-12T10:58:09.000Z</time>
|
|
</trkpt>
|
|
<trkpt lat="55.966850" lon="8.142429">
|
|
<ele>2.666325</ele>
|
|
<time>2026-07-12T10:58:10.000Z</time>
|
|
</trkpt>
|
|
<trkpt lat="55.966888" lon="8.142446">
|
|
<ele>2.674284</ele>
|
|
<time>2026-07-12T10:58:11.000Z</time>
|
|
</trkpt>
|
|
<trkpt lat="55.966923" lon="8.142458">
|
|
<ele>2.681526</ele>
|
|
<time>2026-07-12T10:58:12.000Z</time>
|
|
</trkpt>
|
|
<trkpt lat="55.966961" lon="8.142475">
|
|
<ele>2.689485</ele>
|
|
<time>2026-07-12T10:58:13.000Z</time>
|
|
</trkpt>
|
|
<trkpt lat="55.967007" lon="8.142493">
|
|
<ele>2.699053</ele>
|
|
<time>2026-07-12T10:58:14.000Z</time>
|
|
</trkpt>
|
|
<trkpt lat="55.967052" lon="8.142516">
|
|
<ele>2.708564</ele>
|
|
<time>2026-07-12T10:58:15.000Z</time>
|
|
</trkpt>
|
|
<trkpt lat="55.967087" lon="8.142533">
|
|
<ele>2.715933</ele>
|
|
<time>2026-07-12T10:58:16.000Z</time>
|
|
</trkpt>
|
|
<trkpt lat="55.967121" lon="8.142552">
|
|
<ele>2.723172</ele>
|
|
<time>2026-07-12T10:58:17.000Z</time>
|
|
</trkpt>
|
|
<trkpt lat="55.967155" lon="8.142574">
|
|
<ele>2.730519</ele>
|
|
<time>2026-07-12T10:58:18.000Z</time>
|
|
</trkpt>
|
|
<trkpt lat="55.967186" lon="8.142592">
|
|
<ele>2.737142</ele>
|
|
<time>2026-07-12T10:58:19.000Z</time>
|
|
</trkpt>
|
|
<trkpt lat="55.967220" lon="8.142612">
|
|
<ele>2.744416</ele>
|
|
<time>2026-07-12T10:58:20.000Z</time>
|
|
</trkpt>
|
|
<trkpt lat="55.967251" lon="8.142632">
|
|
<ele>2.751112</ele>
|
|
<time>2026-07-12T10:58:21.000Z</time>
|
|
</trkpt>
|
|
<trkpt lat="55.967285" lon="8.142652">
|
|
<ele>2.758386</ele>
|
|
<time>2026-07-12T10:58:22.000Z</time>
|
|
</trkpt>
|
|
<trkpt lat="55.967316" lon="8.142676">
|
|
<ele>2.765250</ele>
|
|
<time>2026-07-12T10:58:23.000Z</time>
|
|
</trkpt>
|
|
<trkpt lat="55.967342" lon="8.142698">
|
|
<ele>2.771096</ele>
|
|
<time>2026-07-12T10:58:24.000Z</time>
|
|
</trkpt>
|
|
<trkpt lat="55.967380" lon="8.142735">
|
|
<ele>2.779889</ele>
|
|
<time>2026-07-12T10:58:25.000Z</time>
|
|
</trkpt>
|
|
<trkpt lat="55.967419" lon="8.142768">
|
|
<ele>2.788657</ele>
|
|
<time>2026-07-12T10:58:26.000Z</time>
|
|
</trkpt>
|
|
<trkpt lat="55.967457" lon="8.142799">
|
|
<ele>2.797145</ele>
|
|
<time>2026-07-12T10:58:27.000Z</time>
|
|
</trkpt>
|
|
<trkpt lat="55.967495" lon="8.142831">
|
|
<ele>2.805681</ele>
|
|
<time>2026-07-12T10:58:28.000Z</time>
|
|
</trkpt>
|
|
<trkpt lat="55.967533" lon="8.142862">
|
|
<ele>2.814168</ele>
|
|
<time>2026-07-12T10:58:29.000Z</time>
|
|
</trkpt>
|
|
<trkpt lat="55.967571" lon="8.142895">
|
|
<ele>2.822753</ele>
|
|
<time>2026-07-12T10:58:30.000Z</time>
|
|
</trkpt>
|
|
<trkpt lat="55.967609" lon="8.142932">
|
|
<ele>2.831546</ele>
|
|
<time>2026-07-12T10:58:31.000Z</time>
|
|
</trkpt>
|
|
<trkpt lat="55.967648" lon="8.142968">
|
|
<ele>2.840466</ele>
|
|
<time>2026-07-12T10:58:32.000Z</time>
|
|
</trkpt>
|
|
<trkpt lat="55.967686" lon="8.143005">
|
|
<ele>2.849259</ele>
|
|
<time>2026-07-12T10:58:33.000Z</time>
|
|
</trkpt>
|
|
<trkpt lat="55.967724" lon="8.143040">
|
|
<ele>2.857946</ele>
|
|
<time>2026-07-12T10:58:34.000Z</time>
|
|
</trkpt>
|
|
<trkpt lat="55.967762" lon="8.143074">
|
|
<ele>2.866581</ele>
|
|
<time>2026-07-12T10:58:35.000Z</time>
|
|
</trkpt>
|
|
<trkpt lat="55.967800" lon="8.143103">
|
|
<ele>2.874977</ele>
|
|
<time>2026-07-12T10:58:36.000Z</time>
|
|
</trkpt>
|
|
<trkpt lat="55.967842" lon="8.143130">
|
|
<ele>2.884046</ele>
|
|
<time>2026-07-12T10:58:37.000Z</time>
|
|
</trkpt>
|
|
<trkpt lat="55.967888" lon="8.143159">
|
|
<ele>2.893958</ele>
|
|
<time>2026-07-12T10:58:38.000Z</time>
|
|
</trkpt>
|
|
<trkpt lat="55.967926" lon="8.143188">
|
|
<ele>2.902354</ele>
|
|
<time>2026-07-12T10:58:39.000Z</time>
|
|
</trkpt>
|
|
<trkpt lat="55.967964" lon="8.143221">
|
|
<ele>2.910938</ele>
|
|
<time>2026-07-12T10:58:40.000Z</time>
|
|
</trkpt>
|
|
<trkpt lat="55.968002" lon="8.143254">
|
|
<ele>2.919523</ele>
|
|
<time>2026-07-12T10:58:41.000Z</time>
|
|
</trkpt>
|
|
<trkpt lat="55.968040" lon="8.143285">
|
|
<ele>2.928011</ele>
|
|
<time>2026-07-12T10:58:42.000Z</time>
|
|
</trkpt>
|
|
<trkpt lat="55.968079" lon="8.143312">
|
|
<ele>2.936510</ele>
|
|
<time>2026-07-12T10:58:43.000Z</time>
|
|
</trkpt>
|
|
<trkpt lat="55.968113" lon="8.143335">
|
|
<ele>2.943896</ele>
|
|
<time>2026-07-12T10:58:44.000Z</time>
|
|
</trkpt>
|
|
<trkpt lat="55.968155" lon="8.143358">
|
|
<ele>2.952822</ele>
|
|
<time>2026-07-12T10:58:45.000Z</time>
|
|
</trkpt>
|
|
<trkpt lat="55.968189" lon="8.143380">
|
|
<ele>2.960170</ele>
|
|
<time>2026-07-12T10:58:46.000Z</time>
|
|
</trkpt>
|
|
<trkpt lat="55.968227" lon="8.143405">
|
|
<ele>2.968398</ele>
|
|
<time>2026-07-12T10:58:47.000Z</time>
|
|
</trkpt>
|
|
<trkpt lat="55.968266" lon="8.143435">
|
|
<ele>2.977025</ele>
|
|
<time>2026-07-12T10:58:48.000Z</time>
|
|
</trkpt>
|
|
<trkpt lat="55.968304" lon="8.143465">
|
|
<ele>2.985466</ele>
|
|
<time>2026-07-12T10:58:49.000Z</time>
|
|
</trkpt>
|
|
<trkpt lat="55.968346" lon="8.143497">
|
|
<ele>2.994744</ele>
|
|
<time>2026-07-12T10:58:50.000Z</time>
|
|
</trkpt>
|
|
<trkpt lat="55.968384" lon="8.143525">
|
|
<ele>3.003096</ele>
|
|
<time>2026-07-12T10:58:51.000Z</time>
|
|
</trkpt>
|
|
<trkpt lat="55.968418" lon="8.143557">
|
|
<ele>3.010904</ele>
|
|
<time>2026-07-12T10:58:52.000Z</time>
|
|
</trkpt>
|
|
<trkpt lat="55.968460" lon="8.143590">
|
|
<ele>3.038234</ele>
|
|
<time>2026-07-12T10:58:53.000Z</time>
|
|
</trkpt>
|
|
<trkpt lat="55.968494" lon="8.143619">
|
|
<ele>3.061566</ele>
|
|
<time>2026-07-12T10:58:54.000Z</time>
|
|
</trkpt>
|
|
<trkpt lat="55.968533" lon="8.143646">
|
|
<ele>3.087467</ele>
|
|
<time>2026-07-12T10:58:55.000Z</time>
|
|
</trkpt>
|
|
<trkpt lat="55.968567" lon="8.143675">
|
|
<ele>3.110798</ele>
|
|
<time>2026-07-12T10:58:56.000Z</time>
|
|
</trkpt>
|
|
<trkpt lat="55.968601" lon="8.143702">
|
|
<ele>3.133839</ele>
|
|
<time>2026-07-12T10:58:57.000Z</time>
|
|
</trkpt>
|
|
<trkpt lat="55.968639" lon="8.143727">
|
|
<ele>3.158916</ele>
|
|
<time>2026-07-12T10:58:58.000Z</time>
|
|
</trkpt>
|
|
<trkpt lat="55.968674" lon="8.143751">
|
|
<ele>3.182132</ele>
|
|
<time>2026-07-12T10:58:59.000Z</time>
|
|
</trkpt>
|
|
<trkpt lat="55.968708" lon="8.143773">
|
|
<ele>3.204526</ele>
|
|
<time>2026-07-12T10:59:00.000Z</time>
|
|
</trkpt>
|
|
<trkpt lat="55.968739" lon="8.143798">
|
|
<ele>3.225588</ele>
|
|
<time>2026-07-12T10:59:01.000Z</time>
|
|
</trkpt>
|
|
<trkpt lat="55.968769" lon="8.143828">
|
|
<ele>3.246878</ele>
|
|
<time>2026-07-12T10:59:02.000Z</time>
|
|
</trkpt>
|
|
<trkpt lat="55.968796" lon="8.143858">
|
|
<ele>3.266568</ele>
|
|
<time>2026-07-12T10:59:03.000Z</time>
|
|
</trkpt>
|
|
<trkpt lat="55.968823" lon="8.143888">
|
|
<ele>3.286257</ele>
|
|
<time>2026-07-12T10:59:04.000Z</time>
|
|
</trkpt>
|
|
<trkpt lat="55.968845" lon="8.143921">
|
|
<ele>3.304045</ele>
|
|
<time>2026-07-12T10:59:05.000Z</time>
|
|
</trkpt>
|
|
<trkpt lat="55.968864" lon="8.143951">
|
|
<ele>3.319747</ele>
|
|
<time>2026-07-12T10:59:06.000Z</time>
|
|
</trkpt>
|
|
<trkpt lat="55.968884" lon="8.143985">
|
|
<ele>3.336843</ele>
|
|
<time>2026-07-12T10:59:07.000Z</time>
|
|
</trkpt>
|
|
<trkpt lat="55.968906" lon="8.144006">
|
|
<ele>3.352289</ele>
|
|
<time>2026-07-12T10:59:08.000Z</time>
|
|
</trkpt>
|
|
<trkpt lat="55.968925" lon="8.144013">
|
|
<ele>3.364303</ele>
|
|
<time>2026-07-12T10:59:09.000Z</time>
|
|
</trkpt>
|
|
<trkpt lat="55.968945" lon="8.144003">
|
|
<ele>3.377164</ele>
|
|
<time>2026-07-12T10:59:10.000Z</time>
|
|
</trkpt>
|
|
<trkpt lat="55.968956" lon="8.143971">
|
|
<ele>3.390180</ele>
|
|
<time>2026-07-12T10:59:11.000Z</time>
|
|
</trkpt>
|
|
<trkpt lat="55.968960" lon="8.143932">
|
|
<ele>3.403921</ele>
|
|
<time>2026-07-12T10:59:12.000Z</time>
|
|
</trkpt>
|
|
<trkpt lat="55.968964" lon="8.143888">
|
|
<ele>3.419370</ele>
|
|
<time>2026-07-12T10:59:13.000Z</time>
|
|
</trkpt>
|
|
<trkpt lat="55.968967" lon="8.143840">
|
|
<ele>3.436109</ele>
|
|
<time>2026-07-12T10:59:14.000Z</time>
|
|
</trkpt>
|
|
<trkpt lat="55.968967" lon="8.143791">
|
|
<ele>3.453091</ele>
|
|
<time>2026-07-12T10:59:15.000Z</time>
|
|
</trkpt>
|
|
<trkpt lat="55.968964" lon="8.143743">
|
|
<ele>3.469830</ele>
|
|
<time>2026-07-12T10:59:16.000Z</time>
|
|
</trkpt>
|
|
<trkpt lat="55.968960" lon="8.143689">
|
|
<ele>3.488708</ele>
|
|
<time>2026-07-12T10:59:17.000Z</time>
|
|
</trkpt>
|
|
<trkpt lat="55.968956" lon="8.143631">
|
|
<ele>3.508962</ele>
|
|
<time>2026-07-12T10:59:18.000Z</time>
|
|
</trkpt>
|
|
<trkpt lat="55.968952" lon="8.143570">
|
|
<ele>3.530247</ele>
|
|
<time>2026-07-12T10:59:19.000Z</time>
|
|
</trkpt>
|
|
<trkpt lat="55.968952" lon="8.143506">
|
|
<ele>3.552428</ele>
|
|
<time>2026-07-12T10:59:20.000Z</time>
|
|
</trkpt>
|
|
<trkpt lat="55.968952" lon="8.143443">
|
|
<ele>3.574262</ele>
|
|
<time>2026-07-12T10:59:21.000Z</time>
|
|
</trkpt>
|
|
<trkpt lat="55.968948" lon="8.143382">
|
|
<ele>3.595548</ele>
|
|
<time>2026-07-12T10:59:22.000Z</time>
|
|
</trkpt>
|
|
<trkpt lat="55.968945" lon="8.143320">
|
|
<ele>3.617116</ele>
|
|
<time>2026-07-12T10:59:23.000Z</time>
|
|
</trkpt>
|
|
<trkpt lat="55.968937" lon="8.143254">
|
|
<ele>3.640520</ele>
|
|
<time>2026-07-12T10:59:24.000Z</time>
|
|
</trkpt>
|
|
<trkpt lat="55.968933" lon="8.143191">
|
|
<ele>3.662494</ele>
|
|
<time>2026-07-12T10:59:25.000Z</time>
|
|
</trkpt>
|
|
<trkpt lat="55.968929" lon="8.143132">
|
|
<ele>3.683092</ele>
|
|
<time>2026-07-12T10:59:26.000Z</time>
|
|
</trkpt>
|
|
<trkpt lat="55.968925" lon="8.143086">
|
|
<ele>3.699225</ele>
|
|
<time>2026-07-12T10:59:27.000Z</time>
|
|
</trkpt>
|
|
<trkpt lat="55.968922" lon="8.143057">
|
|
<ele>3.709446</ele>
|
|
<time>2026-07-12T10:59:28.000Z</time>
|
|
</trkpt>
|
|
<trkpt lat="55.968918" lon="8.143031">
|
|
<ele>3.718792</ele>
|
|
<time>2026-07-12T10:59:29.000Z</time>
|
|
</trkpt>
|
|
<trkpt lat="55.968914" lon="8.143001">
|
|
<ele>3.729480</ele>
|
|
<time>2026-07-12T10:59:30.000Z</time>
|
|
</trkpt>
|
|
<trkpt lat="55.968910" lon="8.142962">
|
|
<ele>3.743221</ele>
|
|
<time>2026-07-12T10:59:31.000Z</time>
|
|
</trkpt>
|
|
<trkpt lat="55.968906" lon="8.142918">
|
|
<ele>3.758670</ele>
|
|
<time>2026-07-12T10:59:32.000Z</time>
|
|
</trkpt>
|
|
<trkpt lat="55.968906" lon="8.142874">
|
|
<ele>3.773920</ele>
|
|
<time>2026-07-12T10:59:33.000Z</time>
|
|
</trkpt>
|
|
<trkpt lat="55.968903" lon="8.142828">
|
|
<ele>3.789970</ele>
|
|
<time>2026-07-12T10:59:34.000Z</time>
|
|
</trkpt>
|
|
<trkpt lat="55.968899" lon="8.142778">
|
|
<ele>3.807475</ele>
|
|
<time>2026-07-12T10:59:35.000Z</time>
|
|
</trkpt>
|
|
<trkpt lat="55.968895" lon="8.142733">
|
|
<ele>3.823266</ele>
|
|
<time>2026-07-12T10:59:36.000Z</time>
|
|
</trkpt>
|
|
<trkpt lat="55.968891" lon="8.142687">
|
|
<ele>3.839400</ele>
|
|
<time>2026-07-12T10:59:37.000Z</time>
|
|
</trkpt>
|
|
<trkpt lat="55.968887" lon="8.142640">
|
|
<ele>3.855876</ele>
|
|
<time>2026-07-12T10:59:38.000Z</time>
|
|
</trkpt>
|
|
<trkpt lat="55.968884" lon="8.142591">
|
|
<ele>3.872960</ele>
|
|
<time>2026-07-12T10:59:39.000Z</time>
|
|
</trkpt>
|
|
<trkpt lat="55.968876" lon="8.142541">
|
|
<ele>3.890983</ele>
|
|
<time>2026-07-12T10:59:40.000Z</time>
|
|
</trkpt>
|
|
<trkpt lat="55.968872" lon="8.142488">
|
|
<ele>3.909518</ele>
|
|
<time>2026-07-12T10:59:41.000Z</time>
|
|
</trkpt>
|
|
<trkpt lat="55.968868" lon="8.142433">
|
|
<ele>3.928740</ele>
|
|
<time>2026-07-12T10:59:42.000Z</time>
|
|
</trkpt>
|
|
<trkpt lat="55.968861" lon="8.142372">
|
|
<ele>3.950320</ele>
|
|
<time>2026-07-12T10:59:43.000Z</time>
|
|
</trkpt>
|
|
<trkpt lat="55.968857" lon="8.142305">
|
|
<ele>3.973673</ele>
|
|
<time>2026-07-12T10:59:44.000Z</time>
|
|
</trkpt>
|
|
<trkpt lat="55.968857" lon="8.142232">
|
|
<ele>3.998973</ele>
|
|
<time>2026-07-12T10:59:45.000Z</time>
|
|
</trkpt>
|
|
<trkpt lat="55.968864" lon="8.142153">
|
|
<ele>4.026693</ele>
|
|
<time>2026-07-12T10:59:46.000Z</time>
|
|
</trkpt>
|
|
<trkpt lat="55.968872" lon="8.142072">
|
|
<ele>4.055200</ele>
|
|
<time>2026-07-12T10:59:47.000Z</time>
|
|
</trkpt>
|
|
<trkpt lat="55.968887" lon="8.141991">
|
|
<ele>4.084769</ele>
|
|
<time>2026-07-12T10:59:48.000Z</time>
|
|
</trkpt>
|
|
<trkpt lat="55.968910" lon="8.141913">
|
|
<ele>4.115325</ele>
|
|
<time>2026-07-12T10:59:49.000Z</time>
|
|
</trkpt>
|
|
<trkpt lat="55.968929" lon="8.141835">
|
|
<ele>4.111746</ele>
|
|
<time>2026-07-12T10:59:50.000Z</time>
|
|
</trkpt>
|
|
<trkpt lat="55.968948" lon="8.141749">
|
|
<ele>4.089500</ele>
|
|
<time>2026-07-12T10:59:51.000Z</time>
|
|
</trkpt>
|
|
<trkpt lat="55.968967" lon="8.141674">
|
|
<ele>4.069692</ele>
|
|
<time>2026-07-12T10:59:52.000Z</time>
|
|
</trkpt>
|
|
<trkpt lat="55.968986" lon="8.141603">
|
|
<ele>4.050757</ele>
|
|
<time>2026-07-12T10:59:53.000Z</time>
|
|
</trkpt>
|
|
<trkpt lat="55.969006" lon="8.141537">
|
|
<ele>4.032698</ele>
|
|
<time>2026-07-12T10:59:54.000Z</time>
|
|
</trkpt>
|
|
<trkpt lat="55.969021" lon="8.141472">
|
|
<ele>4.015782</ele>
|
|
<time>2026-07-12T10:59:55.000Z</time>
|
|
</trkpt>
|
|
<trkpt lat="55.969032" lon="8.141405">
|
|
<ele>3.998982</ele>
|
|
<time>2026-07-12T10:59:56.000Z</time>
|
|
</trkpt>
|
|
<trkpt lat="55.969036" lon="8.141339">
|
|
<ele>3.983009</ele>
|
|
<time>2026-07-12T10:59:57.000Z</time>
|
|
</trkpt>
|
|
<trkpt lat="55.969032" lon="8.141271">
|
|
<ele>3.966558</ele>
|
|
<time>2026-07-12T10:59:58.000Z</time>
|
|
</trkpt>
|
|
<trkpt lat="55.969025" lon="8.141198">
|
|
<ele>3.948738</ele>
|
|
<time>2026-07-12T10:59:59.000Z</time>
|
|
</trkpt>
|
|
<trkpt lat="55.969013" lon="8.141121">
|
|
<ele>3.929506</ele>
|
|
<time>2026-07-12T11:00:00.000Z</time>
|
|
</trkpt>
|
|
<trkpt lat="55.969006" lon="8.141034">
|
|
<ele>3.908359</ele>
|
|
<time>2026-07-12T11:00:01.000Z</time>
|
|
</trkpt>
|
|
<trkpt lat="55.968990" lon="8.140942">
|
|
<ele>3.885179</ele>
|
|
<time>2026-07-12T11:00:02.000Z</time>
|
|
</trkpt>
|
|
<trkpt lat="55.968975" lon="8.140855">
|
|
<ele>3.863276</ele>
|
|
<time>2026-07-12T11:00:03.000Z</time>
|
|
</trkpt>
|
|
<trkpt lat="55.968964" lon="8.140765">
|
|
<ele>3.841111</ele>
|
|
<time>2026-07-12T11:00:04.000Z</time>
|
|
</trkpt>
|
|
<trkpt lat="55.968952" lon="8.140678">
|
|
<ele>3.819552</ele>
|
|
<time>2026-07-12T11:00:05.000Z</time>
|
|
</trkpt>
|
|
<trkpt lat="55.968948" lon="8.140596">
|
|
<ele>3.799748</ele>
|
|
<time>2026-07-12T11:00:06.000Z</time>
|
|
</trkpt>
|
|
<trkpt lat="55.968945" lon="8.140518">
|
|
<ele>3.780936</ele>
|
|
<time>2026-07-12T11:00:07.000Z</time>
|
|
</trkpt>
|
|
<trkpt lat="55.968960" lon="8.140446">
|
|
<ele>3.762451</ele>
|
|
<time>2026-07-12T11:00:08.000Z</time>
|
|
</trkpt>
|
|
<trkpt lat="55.968986" lon="8.140381">
|
|
<ele>3.743228</ele>
|
|
<time>2026-07-12T11:00:09.000Z</time>
|
|
</trkpt>
|
|
<trkpt lat="55.969017" lon="8.140318">
|
|
<ele>3.723044</ele>
|
|
<time>2026-07-12T11:00:10.000Z</time>
|
|
</trkpt>
|
|
<trkpt lat="55.969044" lon="8.140257">
|
|
<ele>3.704332</ele>
|
|
<time>2026-07-12T11:00:11.000Z</time>
|
|
</trkpt>
|
|
<trkpt lat="55.969067" lon="8.140193">
|
|
<ele>3.686031</ele>
|
|
<time>2026-07-12T11:00:12.000Z</time>
|
|
</trkpt>
|
|
<trkpt lat="55.969086" lon="8.140133">
|
|
<ele>3.669444</ele>
|
|
<time>2026-07-12T11:00:13.000Z</time>
|
|
</trkpt>
|
|
<trkpt lat="55.969097" lon="8.140069">
|
|
<ele>3.653336</ele>
|
|
<time>2026-07-12T11:00:14.000Z</time>
|
|
</trkpt>
|
|
<trkpt lat="55.969112" lon="8.139990">
|
|
<ele>3.633264</ele>
|
|
<time>2026-07-12T11:00:15.000Z</time>
|
|
</trkpt>
|
|
<trkpt lat="55.969120" lon="8.139919">
|
|
<ele>3.615838</ele>
|
|
<time>2026-07-12T11:00:16.000Z</time>
|
|
</trkpt>
|
|
<trkpt lat="55.969124" lon="8.139848">
|
|
<ele>3.598669</ele>
|
|
<time>2026-07-12T11:00:17.000Z</time>
|
|
</trkpt>
|
|
<trkpt lat="55.969124" lon="8.139783">
|
|
<ele>3.583030</ele>
|
|
<time>2026-07-12T11:00:18.000Z</time>
|
|
</trkpt>
|
|
<trkpt lat="55.969124" lon="8.139722">
|
|
<ele>3.568353</ele>
|
|
<time>2026-07-12T11:00:19.000Z</time>
|
|
</trkpt>
|
|
<trkpt lat="55.969128" lon="8.139634">
|
|
<ele>3.547111</ele>
|
|
<time>2026-07-12T11:00:20.000Z</time>
|
|
</trkpt>
|
|
<trkpt lat="55.969128" lon="8.139553">
|
|
<ele>3.527622</ele>
|
|
<time>2026-07-12T11:00:21.000Z</time>
|
|
</trkpt>
|
|
<trkpt lat="55.969131" lon="8.139479">
|
|
<ele>3.509770</ele>
|
|
<time>2026-07-12T11:00:22.000Z</time>
|
|
</trkpt>
|
|
<trkpt lat="55.969131" lon="8.139406">
|
|
<ele>3.492206</ele>
|
|
<time>2026-07-12T11:00:23.000Z</time>
|
|
</trkpt>
|
|
<trkpt lat="55.969131" lon="8.139341">
|
|
<ele>3.476567</ele>
|
|
<time>2026-07-12T11:00:24.000Z</time>
|
|
</trkpt>
|
|
<trkpt lat="55.969128" lon="8.139277">
|
|
<ele>3.461115</ele>
|
|
<time>2026-07-12T11:00:25.000Z</time>
|
|
</trkpt>
|
|
<trkpt lat="55.969128" lon="8.139213">
|
|
<ele>3.445716</ele>
|
|
<time>2026-07-12T11:00:26.000Z</time>
|
|
</trkpt>
|
|
<trkpt lat="55.969131" lon="8.139152">
|
|
<ele>3.430983</ele>
|
|
<time>2026-07-12T11:00:27.000Z</time>
|
|
</trkpt>
|
|
<trkpt lat="55.969139" lon="8.139092">
|
|
<ele>3.416143</ele>
|
|
<time>2026-07-12T11:00:28.000Z</time>
|
|
</trkpt>
|
|
<trkpt lat="55.969151" lon="8.139030">
|
|
<ele>3.400358</ele>
|
|
<time>2026-07-12T11:00:29.000Z</time>
|
|
</trkpt>
|
|
<trkpt lat="55.969162" lon="8.138969">
|
|
<ele>3.384938</ele>
|
|
<time>2026-07-12T11:00:30.000Z</time>
|
|
</trkpt>
|
|
<trkpt lat="55.969173" lon="8.138910">
|
|
<ele>3.369976</ele>
|
|
<time>2026-07-12T11:00:31.000Z</time>
|
|
</trkpt>
|
|
<trkpt lat="55.969189" lon="8.138852">
|
|
<ele>3.354418</ele>
|
|
<time>2026-07-12T11:00:32.000Z</time>
|
|
</trkpt>
|
|
<trkpt lat="55.969204" lon="8.138791">
|
|
<ele>3.358157</ele>
|
|
<time>2026-07-12T11:00:33.000Z</time>
|
|
</trkpt>
|
|
<trkpt lat="55.969219" lon="8.138726">
|
|
<ele>3.365787</ele>
|
|
<time>2026-07-12T11:00:34.000Z</time>
|
|
</trkpt>
|
|
<trkpt lat="55.969238" lon="8.138663">
|
|
<ele>3.373553</ele>
|
|
<time>2026-07-12T11:00:35.000Z</time>
|
|
</trkpt>
|
|
<trkpt lat="55.969257" lon="8.138600">
|
|
<ele>3.381319</ele>
|
|
<time>2026-07-12T11:00:36.000Z</time>
|
|
</trkpt>
|
|
<trkpt lat="55.969273" lon="8.138533">
|
|
<ele>3.389224</ele>
|
|
<time>2026-07-12T11:00:37.000Z</time>
|
|
</trkpt>
|
|
<trkpt lat="55.969288" lon="8.138466">
|
|
<ele>3.397055</ele>
|
|
<time>2026-07-12T11:00:38.000Z</time>
|
|
</trkpt>
|
|
<trkpt lat="55.969299" lon="8.138395">
|
|
<ele>3.405050</ele>
|
|
<time>2026-07-12T11:00:39.000Z</time>
|
|
</trkpt>
|
|
<trkpt lat="55.969311" lon="8.138327">
|
|
<ele>3.412787</ele>
|
|
<time>2026-07-12T11:00:40.000Z</time>
|
|
</trkpt>
|
|
<trkpt lat="55.969322" lon="8.138259">
|
|
<ele>3.420468</ele>
|
|
<time>2026-07-12T11:00:41.000Z</time>
|
|
</trkpt>
|
|
<trkpt lat="55.969338" lon="8.138189">
|
|
<ele>3.428674</ele>
|
|
<time>2026-07-12T11:00:42.000Z</time>
|
|
</trkpt>
|
|
<trkpt lat="55.969349" lon="8.138116">
|
|
<ele>3.436878</ele>
|
|
<time>2026-07-12T11:00:43.000Z</time>
|
|
</trkpt>
|
|
<trkpt lat="55.969364" lon="8.138048">
|
|
<ele>3.444809</ele>
|
|
<time>2026-07-12T11:00:44.000Z</time>
|
|
</trkpt>
|
|
<trkpt lat="55.969387" lon="8.137986">
|
|
<ele>3.452881</ele>
|
|
<time>2026-07-12T11:00:45.000Z</time>
|
|
</trkpt>
|
|
<trkpt lat="55.969414" lon="8.137930">
|
|
<ele>3.460903</ele>
|
|
<time>2026-07-12T11:00:46.000Z</time>
|
|
</trkpt>
|
|
<trkpt lat="55.969444" lon="8.137882">
|
|
<ele>3.468711</ele>
|
|
<time>2026-07-12T11:00:47.000Z</time>
|
|
</trkpt>
|
|
<trkpt lat="55.969482" lon="8.137855">
|
|
<ele>3.476641</ele>
|
|
<time>2026-07-12T11:00:48.000Z</time>
|
|
</trkpt>
|
|
<trkpt lat="55.969521" lon="8.137842">
|
|
<ele>3.484334</ele>
|
|
<time>2026-07-12T11:00:49.000Z</time>
|
|
</trkpt>
|
|
<trkpt lat="55.969563" lon="8.137836">
|
|
<ele>3.492504</ele>
|
|
<time>2026-07-12T11:00:50.000Z</time>
|
|
</trkpt>
|
|
<trkpt lat="55.969604" lon="8.137834">
|
|
<ele>3.500457</ele>
|
|
<time>2026-07-12T11:00:51.000Z</time>
|
|
</trkpt>
|
|
<trkpt lat="55.969643" lon="8.137831">
|
|
<ele>3.508026</ele>
|
|
<time>2026-07-12T11:00:52.000Z</time>
|
|
</trkpt>
|
|
<trkpt lat="55.969681" lon="8.137832">
|
|
<ele>3.515395</ele>
|
|
<time>2026-07-12T11:00:53.000Z</time>
|
|
</trkpt>
|
|
<trkpt lat="55.969723" lon="8.137837">
|
|
<ele>3.523558</ele>
|
|
<time>2026-07-12T11:00:54.000Z</time>
|
|
</trkpt>
|
|
<trkpt lat="55.969761" lon="8.137845">
|
|
<ele>3.530977</ele>
|
|
<time>2026-07-12T11:00:55.000Z</time>
|
|
</trkpt>
|
|
<trkpt lat="55.969803" lon="8.137856">
|
|
<ele>3.539208</ele>
|
|
<time>2026-07-12T11:00:56.000Z</time>
|
|
</trkpt>
|
|
<trkpt lat="55.969841" lon="8.137873">
|
|
<ele>3.546804</ele>
|
|
<time>2026-07-12T11:00:57.000Z</time>
|
|
</trkpt>
|
|
<trkpt lat="55.969879" lon="8.137895">
|
|
<ele>3.554550</ele>
|
|
<time>2026-07-12T11:00:58.000Z</time>
|
|
</trkpt>
|
|
<trkpt lat="55.969917" lon="8.137924">
|
|
<ele>3.562562</ele>
|
|
<time>2026-07-12T11:00:59.000Z</time>
|
|
</trkpt>
|
|
<trkpt lat="55.969952" lon="8.137960">
|
|
<ele>3.570393</ele>
|
|
<time>2026-07-12T11:01:00.000Z</time>
|
|
</trkpt>
|
|
<trkpt lat="55.969986" lon="8.138001">
|
|
<ele>3.578346</ele>
|
|
<time>2026-07-12T11:01:01.000Z</time>
|
|
</trkpt>
|
|
<trkpt lat="55.970024" lon="8.138041">
|
|
<ele>3.586898</ele>
|
|
<time>2026-07-12T11:01:02.000Z</time>
|
|
</trkpt>
|
|
<trkpt lat="55.970058" lon="8.138083">
|
|
<ele>3.594913</ele>
|
|
<time>2026-07-12T11:01:03.000Z</time>
|
|
</trkpt>
|
|
<trkpt lat="55.970089" lon="8.138132">
|
|
<ele>3.602939</ele>
|
|
<time>2026-07-12T11:01:04.000Z</time>
|
|
</trkpt>
|
|
<trkpt lat="55.970119" lon="8.138184">
|
|
<ele>3.611043</ele>
|
|
<time>2026-07-12T11:01:05.000Z</time>
|
|
</trkpt>
|
|
<trkpt lat="55.970150" lon="8.138234">
|
|
<ele>3.619141</ele>
|
|
<time>2026-07-12T11:01:06.000Z</time>
|
|
</trkpt>
|
|
<trkpt lat="55.970173" lon="8.138275">
|
|
<ele>3.625440</ele>
|
|
<time>2026-07-12T11:01:07.000Z</time>
|
|
</trkpt>
|
|
<trkpt lat="55.970192" lon="8.138308">
|
|
<ele>3.630578</ele>
|
|
<time>2026-07-12T11:01:08.000Z</time>
|
|
</trkpt>
|
|
<trkpt lat="55.970242" lon="8.138405">
|
|
<ele>3.644889</ele>
|
|
<time>2026-07-12T11:01:09.000Z</time>
|
|
</trkpt>
|
|
<trkpt lat="55.970272" lon="8.138457">
|
|
<ele>3.652993</ele>
|
|
<time>2026-07-12T11:01:10.000Z</time>
|
|
</trkpt>
|
|
<trkpt lat="55.970310" lon="8.138498">
|
|
<ele>3.661601</ele>
|
|
<time>2026-07-12T11:01:11.000Z</time>
|
|
</trkpt>
|
|
<trkpt lat="55.970348" lon="8.138528">
|
|
<ele>3.669656</ele>
|
|
<time>2026-07-12T11:01:12.000Z</time>
|
|
</trkpt>
|
|
<trkpt lat="55.970390" lon="8.138545">
|
|
<ele>3.678007</ele>
|
|
<time>2026-07-12T11:01:13.000Z</time>
|
|
</trkpt>
|
|
<trkpt lat="55.970436" lon="8.138552">
|
|
<ele>3.686959</ele>
|
|
<time>2026-07-12T11:01:14.000Z</time>
|
|
</trkpt>
|
|
<trkpt lat="55.970486" lon="8.138554">
|
|
<ele>3.696657</ele>
|
|
<time>2026-07-12T11:01:15.000Z</time>
|
|
</trkpt>
|
|
<trkpt lat="55.970531" lon="8.138547">
|
|
<ele>3.703958</ele>
|
|
<time>2026-07-12T11:01:16.000Z</time>
|
|
</trkpt>
|
|
<trkpt lat="55.970581" lon="8.138532">
|
|
<ele>3.710697</ele>
|
|
<time>2026-07-12T11:01:17.000Z</time>
|
|
</trkpt>
|
|
<trkpt lat="55.970631" lon="8.138508">
|
|
<ele>3.717578</ele>
|
|
<time>2026-07-12T11:01:18.000Z</time>
|
|
</trkpt>
|
|
<trkpt lat="55.970680" lon="8.138484">
|
|
<ele>3.724331</ele>
|
|
<time>2026-07-12T11:01:19.000Z</time>
|
|
</trkpt>
|
|
<trkpt lat="55.970730" lon="8.138465">
|
|
<ele>3.731125</ele>
|
|
<time>2026-07-12T11:01:20.000Z</time>
|
|
</trkpt>
|
|
<trkpt lat="55.970776" lon="8.138447">
|
|
<ele>3.737384</ele>
|
|
<time>2026-07-12T11:01:21.000Z</time>
|
|
</trkpt>
|
|
<trkpt lat="55.970818" lon="8.138429">
|
|
<ele>3.743125</ele>
|
|
<time>2026-07-12T11:01:22.000Z</time>
|
|
</trkpt>
|
|
<trkpt lat="55.970863" lon="8.138411">
|
|
<ele>3.749254</ele>
|
|
<time>2026-07-12T11:01:23.000Z</time>
|
|
</trkpt>
|
|
<trkpt lat="55.970909" lon="8.138392">
|
|
<ele>3.755529</ele>
|
|
<time>2026-07-12T11:01:24.000Z</time>
|
|
</trkpt>
|
|
<trkpt lat="55.970959" lon="8.138373">
|
|
<ele>3.762323</ele>
|
|
<time>2026-07-12T11:01:25.000Z</time>
|
|
</trkpt>
|
|
<trkpt lat="55.971004" lon="8.138354">
|
|
<ele>3.768469</ele>
|
|
<time>2026-07-12T11:01:26.000Z</time>
|
|
</trkpt>
|
|
<trkpt lat="55.971046" lon="8.138336">
|
|
<ele>3.774210</ele>
|
|
<time>2026-07-12T11:01:27.000Z</time>
|
|
</trkpt>
|
|
<trkpt lat="55.971092" lon="8.138318">
|
|
<ele>3.780468</ele>
|
|
<time>2026-07-12T11:01:28.000Z</time>
|
|
</trkpt>
|
|
<trkpt lat="55.971134" lon="8.138304">
|
|
<ele>3.786147</ele>
|
|
<time>2026-07-12T11:01:29.000Z</time>
|
|
</trkpt>
|
|
<trkpt lat="55.971172" lon="8.138294">
|
|
<ele>3.791252</ele>
|
|
<time>2026-07-12T11:01:30.000Z</time>
|
|
</trkpt>
|
|
<trkpt lat="55.971218" lon="8.138286">
|
|
<ele>3.797395</ele>
|
|
<time>2026-07-12T11:01:31.000Z</time>
|
|
</trkpt>
|
|
<trkpt lat="55.971256" lon="8.138280">
|
|
<ele>3.802465</ele>
|
|
<time>2026-07-12T11:01:32.000Z</time>
|
|
</trkpt>
|
|
<trkpt lat="55.971291" lon="8.138279">
|
|
<ele>3.807118</ele>
|
|
<time>2026-07-12T11:01:33.000Z</time>
|
|
</trkpt>
|
|
<trkpt lat="55.971329" lon="8.138279">
|
|
<ele>3.812169</ele>
|
|
<time>2026-07-12T11:01:34.000Z</time>
|
|
</trkpt>
|
|
<trkpt lat="55.971359" lon="8.138274">
|
|
<ele>3.816173</ele>
|
|
<time>2026-07-12T11:01:35.000Z</time>
|
|
</trkpt>
|
|
<trkpt lat="55.971390" lon="8.138265">
|
|
<ele>3.820348</ele>
|
|
<time>2026-07-12T11:01:36.000Z</time>
|
|
</trkpt>
|
|
<trkpt lat="55.971416" lon="8.138251">
|
|
<ele>3.823957</ele>
|
|
<time>2026-07-12T11:01:37.000Z</time>
|
|
</trkpt>
|
|
<trkpt lat="55.971451" lon="8.138238">
|
|
<ele>3.828708</ele>
|
|
<time>2026-07-12T11:01:38.000Z</time>
|
|
</trkpt>
|
|
<trkpt lat="55.971485" lon="8.138223">
|
|
<ele>3.833363</ele>
|
|
<time>2026-07-12T11:01:39.000Z</time>
|
|
</trkpt>
|
|
<trkpt lat="55.971523" lon="8.138207">
|
|
<ele>3.838552</ele>
|
|
<time>2026-07-12T11:01:40.000Z</time>
|
|
</trkpt>
|
|
<trkpt lat="55.971561" lon="8.138194">
|
|
<ele>3.843694</ele>
|
|
<time>2026-07-12T11:01:41.000Z</time>
|
|
</trkpt>
|
|
<trkpt lat="55.971596" lon="8.138183">
|
|
<ele>3.848418</ele>
|
|
<time>2026-07-12T11:01:42.000Z</time>
|
|
</trkpt>
|
|
<trkpt lat="55.971634" lon="8.138172">
|
|
<ele>3.853534</ele>
|
|
<time>2026-07-12T11:01:43.000Z</time>
|
|
</trkpt>
|
|
<trkpt lat="55.971676" lon="8.138164">
|
|
<ele>3.859148</ele>
|
|
<time>2026-07-12T11:01:44.000Z</time>
|
|
</trkpt>
|
|
<trkpt lat="55.971714" lon="8.138156">
|
|
<ele>3.864234</ele>
|
|
<time>2026-07-12T11:01:45.000Z</time>
|
|
</trkpt>
|
|
<trkpt lat="55.971745" lon="8.138149">
|
|
<ele>3.868387</ele>
|
|
<time>2026-07-12T11:01:46.000Z</time>
|
|
</trkpt>
|
|
<trkpt lat="55.971779" lon="8.138143">
|
|
<ele>3.872928</ele>
|
|
<time>2026-07-12T11:01:47.000Z</time>
|
|
</trkpt>
|
|
<trkpt lat="55.971809" lon="8.138136">
|
|
<ele>3.876949</ele>
|
|
<time>2026-07-12T11:01:48.000Z</time>
|
|
</trkpt>
|
|
<trkpt lat="55.971840" lon="8.138128">
|
|
<ele>3.881112</ele>
|
|
<time>2026-07-12T11:01:49.000Z</time>
|
|
</trkpt>
|
|
<trkpt lat="55.971867" lon="8.138118">
|
|
<ele>3.884777</ele>
|
|
<time>2026-07-12T11:01:50.000Z</time>
|
|
</trkpt>
|
|
<trkpt lat="55.971893" lon="8.138102">
|
|
<ele>3.888432</ele>
|
|
<time>2026-07-12T11:01:51.000Z</time>
|
|
</trkpt>
|
|
<trkpt lat="55.971912" lon="8.138082">
|
|
<ele>3.891363</ele>
|
|
<time>2026-07-12T11:01:52.000Z</time>
|
|
</trkpt>
|
|
<trkpt lat="55.971928" lon="8.138065">
|
|
<ele>3.893837</ele>
|
|
<time>2026-07-12T11:01:53.000Z</time>
|
|
</trkpt>
|
|
<trkpt lat="55.971966" lon="8.138013">
|
|
<ele>3.900199</ele>
|
|
<time>2026-07-12T11:01:54.000Z</time>
|
|
</trkpt>
|
|
<trkpt lat="55.971989" lon="8.137976">
|
|
<ele>3.904312</ele>
|
|
<time>2026-07-12T11:01:55.000Z</time>
|
|
</trkpt>
|
|
<trkpt lat="55.972015" lon="8.137942">
|
|
<ele>3.908594</ele>
|
|
<time>2026-07-12T11:01:56.000Z</time>
|
|
</trkpt>
|
|
<trkpt lat="55.972046" lon="8.137915">
|
|
<ele>3.913178</ele>
|
|
<time>2026-07-12T11:01:57.000Z</time>
|
|
</trkpt>
|
|
<trkpt lat="55.972084" lon="8.137898">
|
|
<ele>3.918384</ele>
|
|
<time>2026-07-12T11:01:58.000Z</time>
|
|
</trkpt>
|
|
<trkpt lat="55.972122" lon="8.137899">
|
|
<ele>3.923435</ele>
|
|
<time>2026-07-12T11:01:59.000Z</time>
|
|
</trkpt>
|
|
<trkpt lat="55.972160" lon="8.137920">
|
|
<ele>3.928722</ele>
|
|
<time>2026-07-12T11:02:00.000Z</time>
|
|
</trkpt>
|
|
<trkpt lat="55.972202" lon="8.137958">
|
|
<ele>3.934979</ele>
|
|
<time>2026-07-12T11:02:01.000Z</time>
|
|
</trkpt>
|
|
<trkpt lat="55.972240" lon="8.138002">
|
|
<ele>3.940452</ele>
|
|
<time>2026-07-12T11:02:02.000Z</time>
|
|
</trkpt>
|
|
<trkpt lat="55.972282" lon="8.138042">
|
|
<ele>3.943785</ele>
|
|
<time>2026-07-12T11:02:03.000Z</time>
|
|
</trkpt>
|
|
<trkpt lat="55.972328" lon="8.138072">
|
|
<ele>3.947215</ele>
|
|
<time>2026-07-12T11:02:04.000Z</time>
|
|
</trkpt>
|
|
<trkpt lat="55.972374" lon="8.138099">
|
|
<ele>3.950606</ele>
|
|
<time>2026-07-12T11:02:05.000Z</time>
|
|
</trkpt>
|
|
<trkpt lat="55.972412" lon="8.138127">
|
|
<ele>3.953484</ele>
|
|
<time>2026-07-12T11:02:06.000Z</time>
|
|
</trkpt>
|
|
<trkpt lat="55.972454" lon="8.138162">
|
|
<ele>3.956730</ele>
|
|
<time>2026-07-12T11:02:07.000Z</time>
|
|
</trkpt>
|
|
<trkpt lat="55.972496" lon="8.138204">
|
|
<ele>3.960100</ele>
|
|
<time>2026-07-12T11:02:08.000Z</time>
|
|
</trkpt>
|
|
<trkpt lat="55.972530" lon="8.138247">
|
|
<ele>3.963018</ele>
|
|
<time>2026-07-12T11:02:09.000Z</time>
|
|
</trkpt>
|
|
<trkpt lat="55.972561" lon="8.138288">
|
|
<ele>3.965719</ele>
|
|
<time>2026-07-12T11:02:10.000Z</time>
|
|
</trkpt>
|
|
<trkpt lat="55.972588" lon="8.138323">
|
|
<ele>3.968055</ele>
|
|
<time>2026-07-12T11:02:11.000Z</time>
|
|
</trkpt>
|
|
<trkpt lat="55.972618" lon="8.138358">
|
|
<ele>3.970564</ele>
|
|
<time>2026-07-12T11:02:12.000Z</time>
|
|
</trkpt>
|
|
<trkpt lat="55.972649" lon="8.138397">
|
|
<ele>3.973219</ele>
|
|
<time>2026-07-12T11:02:13.000Z</time>
|
|
</trkpt>
|
|
<trkpt lat="55.972679" lon="8.138438">
|
|
<ele>3.975864</ele>
|
|
<time>2026-07-12T11:02:14.000Z</time>
|
|
</trkpt>
|
|
<trkpt lat="55.972713" lon="8.138483">
|
|
<ele>3.978827</ele>
|
|
<time>2026-07-12T11:02:15.000Z</time>
|
|
</trkpt>
|
|
<trkpt lat="55.972748" lon="8.138528">
|
|
<ele>3.981847</ele>
|
|
<time>2026-07-12T11:02:16.000Z</time>
|
|
</trkpt>
|
|
<trkpt lat="55.972782" lon="8.138575">
|
|
<ele>3.984857</ele>
|
|
<time>2026-07-12T11:02:17.000Z</time>
|
|
</trkpt>
|
|
<trkpt lat="55.972824" lon="8.138623">
|
|
<ele>3.988348</ele>
|
|
<time>2026-07-12T11:02:18.000Z</time>
|
|
</trkpt>
|
|
<trkpt lat="55.972866" lon="8.138668">
|
|
<ele>3.991778</ele>
|
|
<time>2026-07-12T11:02:19.000Z</time>
|
|
</trkpt>
|
|
<trkpt lat="55.972912" lon="8.138710">
|
|
<ele>3.995396</ele>
|
|
<time>2026-07-12T11:02:20.000Z</time>
|
|
</trkpt>
|
|
<trkpt lat="55.972954" lon="8.138751">
|
|
<ele>3.998747</ele>
|
|
<time>2026-07-12T11:02:21.000Z</time>
|
|
</trkpt>
|
|
<trkpt lat="55.973000" lon="8.138792">
|
|
<ele>4.002347</ele>
|
|
<time>2026-07-12T11:02:22.000Z</time>
|
|
</trkpt>
|
|
<trkpt lat="55.973045" lon="8.138834">
|
|
<ele>4.005903</ele>
|
|
<time>2026-07-12T11:02:23.000Z</time>
|
|
</trkpt>
|
|
<trkpt lat="55.973087" lon="8.138876">
|
|
<ele>4.009274</ele>
|
|
<time>2026-07-12T11:02:24.000Z</time>
|
|
</trkpt>
|
|
<trkpt lat="55.973129" lon="8.138920">
|
|
<ele>4.012683</ele>
|
|
<time>2026-07-12T11:02:25.000Z</time>
|
|
</trkpt>
|
|
<trkpt lat="55.973171" lon="8.138964">
|
|
<ele>4.016093</ele>
|
|
<time>2026-07-12T11:02:26.000Z</time>
|
|
</trkpt>
|
|
<trkpt lat="55.973213" lon="8.139004">
|
|
<ele>4.019426</ele>
|
|
<time>2026-07-12T11:02:27.000Z</time>
|
|
</trkpt>
|
|
<trkpt lat="55.973255" lon="8.139033">
|
|
<ele>4.022579</ele>
|
|
<time>2026-07-12T11:02:28.000Z</time>
|
|
</trkpt>
|
|
<trkpt lat="55.973297" lon="8.139041">
|
|
<ele>4.025537</ele>
|
|
<time>2026-07-12T11:02:29.000Z</time>
|
|
</trkpt>
|
|
<trkpt lat="55.973339" lon="8.139031">
|
|
<ele>4.028505</ele>
|
|
<time>2026-07-12T11:02:30.000Z</time>
|
|
</trkpt>
|
|
<trkpt lat="55.973381" lon="8.139009">
|
|
<ele>4.031570</ele>
|
|
<time>2026-07-12T11:02:31.000Z</time>
|
|
</trkpt>
|
|
<trkpt lat="55.973423" lon="8.138985">
|
|
<ele>4.034658</ele>
|
|
<time>2026-07-12T11:02:32.000Z</time>
|
|
</trkpt>
|
|
<trkpt lat="55.973465" lon="8.138959">
|
|
<ele>4.037771</ele>
|
|
<time>2026-07-12T11:02:33.000Z</time>
|
|
</trkpt>
|
|
<trkpt lat="55.973507" lon="8.138937">
|
|
<ele>4.040836</ele>
|
|
<time>2026-07-12T11:02:34.000Z</time>
|
|
</trkpt>
|
|
<trkpt lat="55.973549" lon="8.138919">
|
|
<ele>4.043861</ele>
|
|
<time>2026-07-12T11:02:35.000Z</time>
|
|
</trkpt>
|
|
<trkpt lat="55.973591" lon="8.138903">
|
|
<ele>4.046868</ele>
|
|
<time>2026-07-12T11:02:36.000Z</time>
|
|
</trkpt>
|
|
<trkpt lat="55.973633" lon="8.138885">
|
|
<ele>4.049893</ele>
|
|
<time>2026-07-12T11:02:37.000Z</time>
|
|
</trkpt>
|
|
<trkpt lat="55.973671" lon="8.138865">
|
|
<ele>4.052668</ele>
|
|
<time>2026-07-12T11:02:38.000Z</time>
|
|
</trkpt>
|
|
<trkpt lat="55.973709" lon="8.138845">
|
|
<ele>4.055442</ele>
|
|
<time>2026-07-12T11:02:39.000Z</time>
|
|
</trkpt>
|
|
<trkpt lat="55.973751" lon="8.138829">
|
|
<ele>4.058449</ele>
|
|
<time>2026-07-12T11:02:40.000Z</time>
|
|
</trkpt>
|
|
<trkpt lat="55.973789" lon="8.138819">
|
|
<ele>4.061139</ele>
|
|
<time>2026-07-12T11:02:41.000Z</time>
|
|
</trkpt>
|
|
<trkpt lat="55.973827" lon="8.138813">
|
|
<ele>4.063811</ele>
|
|
<time>2026-07-12T11:02:42.000Z</time>
|
|
</trkpt>
|
|
<trkpt lat="55.973869" lon="8.138816">
|
|
<ele>4.059908</ele>
|
|
<time>2026-07-12T11:02:43.000Z</time>
|
|
</trkpt>
|
|
<trkpt lat="55.973904" lon="8.138826">
|
|
<ele>4.044384</ele>
|
|
<time>2026-07-12T11:02:44.000Z</time>
|
|
</trkpt>
|
|
<trkpt lat="55.973938" lon="8.138839">
|
|
<ele>4.029156</ele>
|
|
<time>2026-07-12T11:02:45.000Z</time>
|
|
</trkpt>
|
|
<trkpt lat="55.973976" lon="8.138852">
|
|
<ele>4.012211</ele>
|
|
<time>2026-07-12T11:02:46.000Z</time>
|
|
</trkpt>
|
|
<trkpt lat="55.974010" lon="8.138864">
|
|
<ele>3.997032</ele>
|
|
<time>2026-07-12T11:02:47.000Z</time>
|
|
</trkpt>
|
|
<trkpt lat="55.974049" lon="8.138872">
|
|
<ele>3.979839</ele>
|
|
<time>2026-07-12T11:02:48.000Z</time>
|
|
</trkpt>
|
|
<trkpt lat="55.974083" lon="8.138881">
|
|
<ele>3.964786</ele>
|
|
<time>2026-07-12T11:02:49.000Z</time>
|
|
</trkpt>
|
|
<trkpt lat="55.974117" lon="8.138889">
|
|
<ele>3.949766</ele>
|
|
<time>2026-07-12T11:02:50.000Z</time>
|
|
</trkpt>
|
|
<trkpt lat="55.974152" lon="8.138898">
|
|
<ele>3.934279</ele>
|
|
<time>2026-07-12T11:02:51.000Z</time>
|
|
</trkpt>
|
|
<trkpt lat="55.974182" lon="8.138903">
|
|
<ele>3.921083</ele>
|
|
<time>2026-07-12T11:02:52.000Z</time>
|
|
</trkpt>
|
|
<trkpt lat="55.974213" lon="8.138906">
|
|
<ele>3.907486</ele>
|
|
<time>2026-07-12T11:02:53.000Z</time>
|
|
</trkpt>
|
|
<trkpt lat="55.974239" lon="8.138906">
|
|
<ele>3.896098</ele>
|
|
<time>2026-07-12T11:02:54.000Z</time>
|
|
</trkpt>
|
|
<trkpt lat="55.974266" lon="8.138901">
|
|
<ele>3.884210</ele>
|
|
<time>2026-07-12T11:02:55.000Z</time>
|
|
</trkpt>
|
|
<trkpt lat="55.974293" lon="8.138894">
|
|
<ele>3.872261</ele>
|
|
<time>2026-07-12T11:02:56.000Z</time>
|
|
</trkpt>
|
|
<trkpt lat="55.974323" lon="8.138888">
|
|
<ele>3.859040</ele>
|
|
<time>2026-07-12T11:02:57.000Z</time>
|
|
</trkpt>
|
|
<trkpt lat="55.974358" lon="8.138884">
|
|
<ele>3.843679</ele>
|
|
<time>2026-07-12T11:02:58.000Z</time>
|
|
</trkpt>
|
|
<trkpt lat="55.974396" lon="8.138882">
|
|
<ele>3.827029</ele>
|
|
<time>2026-07-12T11:02:59.000Z</time>
|
|
</trkpt>
|
|
<trkpt lat="55.974438" lon="8.138885">
|
|
<ele>3.808619</ele>
|
|
<time>2026-07-12T11:03:00.000Z</time>
|
|
</trkpt>
|
|
<trkpt lat="55.974480" lon="8.138892">
|
|
<ele>3.790145</ele>
|
|
<time>2026-07-12T11:03:01.000Z</time>
|
|
</trkpt>
|
|
<trkpt lat="55.974522" lon="8.138900">
|
|
<ele>3.771646</ele>
|
|
<time>2026-07-12T11:03:02.000Z</time>
|
|
</trkpt>
|
|
<trkpt lat="55.974564" lon="8.138906">
|
|
<ele>3.753192</ele>
|
|
<time>2026-07-12T11:03:03.000Z</time>
|
|
</trkpt>
|
|
<trkpt lat="55.974606" lon="8.138908">
|
|
<ele>3.734790</ele>
|
|
<time>2026-07-12T11:03:04.000Z</time>
|
|
</trkpt>
|
|
<trkpt lat="55.974644" lon="8.138907">
|
|
<ele>3.718146</ele>
|
|
<time>2026-07-12T11:03:05.000Z</time>
|
|
</trkpt>
|
|
<trkpt lat="55.974690" lon="8.138900">
|
|
<ele>3.697926</ele>
|
|
<time>2026-07-12T11:03:06.000Z</time>
|
|
</trkpt>
|
|
<trkpt lat="55.974735" lon="8.138893">
|
|
<ele>3.678143</ele>
|
|
<time>2026-07-12T11:03:07.000Z</time>
|
|
</trkpt>
|
|
<trkpt lat="55.974781" lon="8.138890">
|
|
<ele>3.657982</ele>
|
|
<time>2026-07-12T11:03:08.000Z</time>
|
|
</trkpt>
|
|
<trkpt lat="55.974827" lon="8.138892">
|
|
<ele>3.637830</ele>
|
|
<time>2026-07-12T11:03:09.000Z</time>
|
|
</trkpt>
|
|
<trkpt lat="55.974880" lon="8.138893">
|
|
<ele>3.614616</ele>
|
|
<time>2026-07-12T11:03:10.000Z</time>
|
|
</trkpt>
|
|
<trkpt lat="55.974930" lon="8.138892">
|
|
<ele>3.592716</ele>
|
|
<time>2026-07-12T11:03:11.000Z</time>
|
|
</trkpt>
|
|
<trkpt lat="55.974983" lon="8.138891">
|
|
<ele>3.569502</ele>
|
|
<time>2026-07-12T11:03:12.000Z</time>
|
|
</trkpt>
|
|
<trkpt lat="55.975037" lon="8.138885">
|
|
<ele>3.545806</ele>
|
|
<time>2026-07-12T11:03:13.000Z</time>
|
|
</trkpt>
|
|
<trkpt lat="55.975090" lon="8.138868">
|
|
<ele>3.522222</ele>
|
|
<time>2026-07-12T11:03:14.000Z</time>
|
|
</trkpt>
|
|
<trkpt lat="55.975140" lon="8.138842">
|
|
<ele>3.499415</ele>
|
|
<time>2026-07-12T11:03:15.000Z</time>
|
|
</trkpt>
|
|
<trkpt lat="55.975185" lon="8.138811">
|
|
<ele>3.478293</ele>
|
|
<time>2026-07-12T11:03:16.000Z</time>
|
|
</trkpt>
|
|
<trkpt lat="55.975231" lon="8.138783">
|
|
<ele>3.457009</ele>
|
|
<time>2026-07-12T11:03:17.000Z</time>
|
|
</trkpt>
|
|
<trkpt lat="55.975281" lon="8.138761">
|
|
<ele>3.434457</ele>
|
|
<time>2026-07-12T11:03:18.000Z</time>
|
|
</trkpt>
|
|
<trkpt lat="55.975327" lon="8.138736">
|
|
<ele>3.413399</ele>
|
|
<time>2026-07-12T11:03:19.000Z</time>
|
|
</trkpt>
|
|
<trkpt lat="55.975372" lon="8.138711">
|
|
<ele>3.392760</ele>
|
|
<time>2026-07-12T11:03:20.000Z</time>
|
|
</trkpt>
|
|
<trkpt lat="55.975414" lon="8.138683">
|
|
<ele>3.373127</ele>
|
|
<time>2026-07-12T11:03:21.000Z</time>
|
|
</trkpt>
|
|
<trkpt lat="55.975452" lon="8.138652">
|
|
<ele>3.354832</ele>
|
|
<time>2026-07-12T11:03:22.000Z</time>
|
|
</trkpt>
|
|
<trkpt lat="55.975491" lon="8.138619">
|
|
<ele>3.335933</ele>
|
|
<time>2026-07-12T11:03:23.000Z</time>
|
|
</trkpt>
|
|
<trkpt lat="55.975529" lon="8.138583">
|
|
<ele>3.317096</ele>
|
|
<time>2026-07-12T11:03:24.000Z</time>
|
|
</trkpt>
|
|
<trkpt lat="55.975567" lon="8.138543">
|
|
<ele>3.297781</ele>
|
|
<time>2026-07-12T11:03:25.000Z</time>
|
|
</trkpt>
|
|
<trkpt lat="55.975601" lon="8.138505">
|
|
<ele>3.280218</ele>
|
|
<time>2026-07-12T11:03:26.000Z</time>
|
|
</trkpt>
|
|
<trkpt lat="55.975639" lon="8.138470">
|
|
<ele>3.288518</ele>
|
|
<time>2026-07-12T11:03:27.000Z</time>
|
|
</trkpt>
|
|
<trkpt lat="55.975674" lon="8.138437">
|
|
<ele>3.299473</ele>
|
|
<time>2026-07-12T11:03:28.000Z</time>
|
|
</trkpt>
|
|
<trkpt lat="55.975712" lon="8.138406">
|
|
<ele>3.311037</ele>
|
|
<time>2026-07-12T11:03:29.000Z</time>
|
|
</trkpt>
|
|
<trkpt lat="55.975746" lon="8.138377">
|
|
<ele>3.321466</ele>
|
|
<time>2026-07-12T11:03:30.000Z</time>
|
|
</trkpt>
|
|
<trkpt lat="55.975784" lon="8.138348">
|
|
<ele>3.332905</ele>
|
|
<time>2026-07-12T11:03:31.000Z</time>
|
|
</trkpt>
|
|
<trkpt lat="55.975822" lon="8.138316">
|
|
<ele>3.344534</ele>
|
|
<time>2026-07-12T11:03:32.000Z</time>
|
|
</trkpt>
|
|
<trkpt lat="55.975857" lon="8.138285">
|
|
<ele>3.355347</ele>
|
|
<time>2026-07-12T11:03:33.000Z</time>
|
|
</trkpt>
|
|
<trkpt lat="55.975895" lon="8.138254">
|
|
<ele>3.366911</ele>
|
|
<time>2026-07-12T11:03:34.000Z</time>
|
|
</trkpt>
|
|
<trkpt lat="55.975929" lon="8.138226">
|
|
<ele>3.377275</ele>
|
|
<time>2026-07-12T11:03:35.000Z</time>
|
|
</trkpt>
|
|
<trkpt lat="55.975967" lon="8.138199">
|
|
<ele>3.388595</ele>
|
|
<time>2026-07-12T11:03:36.000Z</time>
|
|
</trkpt>
|
|
<trkpt lat="55.976002" lon="8.138172">
|
|
<ele>3.399149</ele>
|
|
<time>2026-07-12T11:03:37.000Z</time>
|
|
</trkpt>
|
|
<trkpt lat="55.976044" lon="8.138149">
|
|
<ele>3.411309</ele>
|
|
<time>2026-07-12T11:03:38.000Z</time>
|
|
</trkpt>
|
|
<trkpt lat="55.976086" lon="8.138129">
|
|
<ele>3.423342</ele>
|
|
<time>2026-07-12T11:03:39.000Z</time>
|
|
</trkpt>
|
|
<trkpt lat="55.976124" lon="8.138113">
|
|
<ele>3.434149</ele>
|
|
<time>2026-07-12T11:03:40.000Z</time>
|
|
</trkpt>
|
|
<trkpt lat="55.976166" lon="8.138102">
|
|
<ele>3.445901</ele>
|
|
<time>2026-07-12T11:03:41.000Z</time>
|
|
</trkpt>
|
|
<trkpt lat="55.976204" lon="8.138095">
|
|
<ele>3.456476</ele>
|
|
<time>2026-07-12T11:03:42.000Z</time>
|
|
</trkpt>
|
|
<trkpt lat="55.976246" lon="8.138091">
|
|
<ele>3.468119</ele>
|
|
<time>2026-07-12T11:03:43.000Z</time>
|
|
</trkpt>
|
|
<trkpt lat="55.976284" lon="8.138094">
|
|
<ele>3.478649</ele>
|
|
<time>2026-07-12T11:03:44.000Z</time>
|
|
</trkpt>
|
|
<trkpt lat="55.976322" lon="8.138105">
|
|
<ele>3.489306</ele>
|
|
<time>2026-07-12T11:03:45.000Z</time>
|
|
</trkpt>
|
|
<trkpt lat="55.976364" lon="8.138119">
|
|
<ele>3.501134</ele>
|
|
<time>2026-07-12T11:03:46.000Z</time>
|
|
</trkpt>
|
|
<trkpt lat="55.976399" lon="8.138130">
|
|
<ele>3.510971</ele>
|
|
<time>2026-07-12T11:03:47.000Z</time>
|
|
</trkpt>
|
|
<trkpt lat="55.976433" lon="8.138137">
|
|
<ele>3.520446</ele>
|
|
<time>2026-07-12T11:03:48.000Z</time>
|
|
</trkpt>
|
|
<trkpt lat="55.976463" lon="8.138144">
|
|
<ele>3.528822</ele>
|
|
<time>2026-07-12T11:03:49.000Z</time>
|
|
</trkpt>
|
|
<trkpt lat="55.976490" lon="8.138153">
|
|
<ele>3.536425</ele>
|
|
<time>2026-07-12T11:03:50.000Z</time>
|
|
</trkpt>
|
|
<trkpt lat="55.976509" lon="8.138164">
|
|
<ele>3.541954</ele>
|
|
<time>2026-07-12T11:03:51.000Z</time>
|
|
</trkpt>
|
|
<trkpt lat="55.976532" lon="8.138176">
|
|
<ele>3.548587</ele>
|
|
<time>2026-07-12T11:03:52.000Z</time>
|
|
</trkpt>
|
|
<trkpt lat="55.976555" lon="8.138191">
|
|
<ele>3.555365</ele>
|
|
<time>2026-07-12T11:03:53.000Z</time>
|
|
</trkpt>
|
|
<trkpt lat="55.976578" lon="8.138205">
|
|
<ele>3.562091</ele>
|
|
<time>2026-07-12T11:03:54.000Z</time>
|
|
</trkpt>
|
|
<trkpt lat="55.976608" lon="8.138214">
|
|
<ele>3.570512</ele>
|
|
<time>2026-07-12T11:03:55.000Z</time>
|
|
</trkpt>
|
|
<trkpt lat="55.976635" lon="8.138222">
|
|
<ele>3.578089</ele>
|
|
<time>2026-07-12T11:03:56.000Z</time>
|
|
</trkpt>
|
|
<trkpt lat="55.976662" lon="8.138229">
|
|
<ele>3.585641</ele>
|
|
<time>2026-07-12T11:03:57.000Z</time>
|
|
</trkpt>
|
|
<trkpt lat="55.976692" lon="8.138237">
|
|
<ele>3.594038</ele>
|
|
<time>2026-07-12T11:03:58.000Z</time>
|
|
</trkpt>
|
|
<trkpt lat="55.976723" lon="8.138247">
|
|
<ele>3.602759</ele>
|
|
<time>2026-07-12T11:03:59.000Z</time>
|
|
</trkpt>
|
|
<trkpt lat="55.976753" lon="8.138262">
|
|
<ele>3.611383</ele>
|
|
<time>2026-07-12T11:04:00.000Z</time>
|
|
</trkpt>
|
|
<trkpt lat="55.976788" lon="8.138279">
|
|
<ele>3.621423</ele>
|
|
<time>2026-07-12T11:04:01.000Z</time>
|
|
</trkpt>
|
|
<trkpt lat="55.976822" lon="8.138296">
|
|
<ele>3.631197</ele>
|
|
<time>2026-07-12T11:04:02.000Z</time>
|
|
</trkpt>
|
|
<trkpt lat="55.976856" lon="8.138309">
|
|
<ele>3.640822</ele>
|
|
<time>2026-07-12T11:04:03.000Z</time>
|
|
</trkpt>
|
|
<trkpt lat="55.976887" lon="8.138319">
|
|
<ele>3.649543</ele>
|
|
<time>2026-07-12T11:04:04.000Z</time>
|
|
</trkpt>
|
|
<trkpt lat="55.976913" lon="8.138324">
|
|
<ele>3.656782</ele>
|
|
<time>2026-07-12T11:04:05.000Z</time>
|
|
</trkpt>
|
|
<trkpt lat="55.976933" lon="8.138316">
|
|
<ele>3.662456</ele>
|
|
<time>2026-07-12T11:04:06.000Z</time>
|
|
</trkpt>
|
|
<trkpt lat="55.976952" lon="8.138293">
|
|
<ele>3.668808</ele>
|
|
<time>2026-07-12T11:04:07.000Z</time>
|
|
</trkpt>
|
|
<trkpt lat="55.976963" lon="8.138257">
|
|
<ele>3.675162</ele>
|
|
<time>2026-07-12T11:04:08.000Z</time>
|
|
</trkpt>
|
|
<trkpt lat="55.976967" lon="8.138213">
|
|
<ele>3.682067</ele>
|
|
<time>2026-07-12T11:04:09.000Z</time>
|
|
</trkpt>
|
|
<trkpt lat="55.976971" lon="8.138168">
|
|
<ele>3.689124</ele>
|
|
<time>2026-07-12T11:04:10.000Z</time>
|
|
</trkpt>
|
|
<trkpt lat="55.976963" lon="8.138120">
|
|
<ele>3.696882</ele>
|
|
<time>2026-07-12T11:04:11.000Z</time>
|
|
</trkpt>
|
|
<trkpt lat="55.976955" lon="8.138067">
|
|
<ele>3.705385</ele>
|
|
<time>2026-07-12T11:04:12.000Z</time>
|
|
</trkpt>
|
|
<trkpt lat="55.976948" lon="8.138011">
|
|
<ele>3.714273</ele>
|
|
<time>2026-07-12T11:04:13.000Z</time>
|
|
</trkpt>
|
|
<trkpt lat="55.976944" lon="8.137951">
|
|
<ele>3.723633</ele>
|
|
<time>2026-07-12T11:04:14.000Z</time>
|
|
</trkpt>
|
|
<trkpt lat="55.976940" lon="8.137888">
|
|
<ele>3.733454</ele>
|
|
<time>2026-07-12T11:04:15.000Z</time>
|
|
</trkpt>
|
|
<trkpt lat="55.976936" lon="8.137827">
|
|
<ele>3.742967</ele>
|
|
<time>2026-07-12T11:04:16.000Z</time>
|
|
</trkpt>
|
|
<trkpt lat="55.976929" lon="8.137769">
|
|
<ele>3.752157</ele>
|
|
<time>2026-07-12T11:04:17.000Z</time>
|
|
</trkpt>
|
|
<trkpt lat="55.976925" lon="8.137709">
|
|
<ele>3.761517</ele>
|
|
<time>2026-07-12T11:04:18.000Z</time>
|
|
</trkpt>
|
|
<trkpt lat="55.976925" lon="8.137648">
|
|
<ele>3.770966</ele>
|
|
<time>2026-07-12T11:04:19.000Z</time>
|
|
</trkpt>
|
|
<trkpt lat="55.976917" lon="8.137589">
|
|
<ele>3.767491</ele>
|
|
<time>2026-07-12T11:04:20.000Z</time>
|
|
</trkpt>
|
|
<trkpt lat="55.976913" lon="8.137532">
|
|
<ele>3.750302</ele>
|
|
<time>2026-07-12T11:04:21.000Z</time>
|
|
</trkpt>
|
|
<trkpt lat="55.976906" lon="8.137476">
|
|
<ele>3.733132</ele>
|
|
<time>2026-07-12T11:04:22.000Z</time>
|
|
</trkpt>
|
|
<trkpt lat="55.976894" lon="8.137421">
|
|
<ele>3.715469</ele>
|
|
<time>2026-07-12T11:04:23.000Z</time>
|
|
</trkpt>
|
|
<trkpt lat="55.976887" lon="8.137365">
|
|
<ele>3.698299</ele>
|
|
<time>2026-07-12T11:04:24.000Z</time>
|
|
</trkpt>
|
|
<trkpt lat="55.976879" lon="8.137310">
|
|
<ele>3.681295</ele>
|
|
<time>2026-07-12T11:04:25.000Z</time>
|
|
</trkpt>
|
|
<trkpt lat="55.976875" lon="8.137257">
|
|
<ele>3.665293</ele>
|
|
<time>2026-07-12T11:04:26.000Z</time>
|
|
</trkpt>
|
|
<trkpt lat="55.976871" lon="8.137210">
|
|
<ele>3.651068</ele>
|
|
<time>2026-07-12T11:04:27.000Z</time>
|
|
</trkpt>
|
|
<trkpt lat="55.976875" lon="8.137172">
|
|
<ele>3.639499</ele>
|
|
<time>2026-07-12T11:04:28.000Z</time>
|
|
</trkpt>
|
|
<trkpt lat="55.976891" lon="8.137140">
|
|
<ele>3.626658</ele>
|
|
<time>2026-07-12T11:04:29.000Z</time>
|
|
</trkpt>
|
|
<trkpt lat="55.976906" lon="8.137115">
|
|
<ele>3.615689</ele>
|
|
<time>2026-07-12T11:04:30.000Z</time>
|
|
</trkpt>
|
|
<trkpt lat="55.976933" lon="8.137094">
|
|
<ele>3.599943</ele>
|
|
<time>2026-07-12T11:04:31.000Z</time>
|
|
</trkpt>
|
|
<trkpt lat="55.976967" lon="8.137076">
|
|
<ele>3.580980</ele>
|
|
<time>2026-07-12T11:04:32.000Z</time>
|
|
</trkpt>
|
|
<trkpt lat="55.977001" lon="8.137065">
|
|
<ele>3.562502</ele>
|
|
<time>2026-07-12T11:04:33.000Z</time>
|
|
</trkpt>
|
|
<trkpt lat="55.977039" lon="8.137058">
|
|
<ele>3.542073</ele>
|
|
<time>2026-07-12T11:04:34.000Z</time>
|
|
</trkpt>
|
|
<trkpt lat="55.977070" lon="8.137052">
|
|
<ele>3.525398</ele>
|
|
<time>2026-07-12T11:04:35.000Z</time>
|
|
</trkpt>
|
|
<trkpt lat="55.977097" lon="8.137041">
|
|
<ele>3.510589</ele>
|
|
<time>2026-07-12T11:04:36.000Z</time>
|
|
</trkpt>
|
|
<trkpt lat="55.977123" lon="8.137031">
|
|
<ele>3.496367</ele>
|
|
<time>2026-07-12T11:04:37.000Z</time>
|
|
</trkpt>
|
|
<trkpt lat="55.977150" lon="8.137021">
|
|
<ele>3.481621</ele>
|
|
<time>2026-07-12T11:04:38.000Z</time>
|
|
</trkpt>
|
|
<trkpt lat="55.977177" lon="8.137015">
|
|
<ele>3.467071</ele>
|
|
<time>2026-07-12T11:04:39.000Z</time>
|
|
</trkpt>
|
|
<trkpt lat="55.977203" lon="8.137014">
|
|
<ele>3.453164</ele>
|
|
<time>2026-07-12T11:04:40.000Z</time>
|
|
</trkpt>
|
|
<trkpt lat="55.977234" lon="8.137015">
|
|
<ele>3.436584</ele>
|
|
<time>2026-07-12T11:04:41.000Z</time>
|
|
</trkpt>
|
|
<trkpt lat="55.977264" lon="8.137014">
|
|
<ele>3.420538</ele>
|
|
<time>2026-07-12T11:04:42.000Z</time>
|
|
</trkpt>
|
|
<trkpt lat="55.977299" lon="8.137010">
|
|
<ele>3.401783</ele>
|
|
<time>2026-07-12T11:04:43.000Z</time>
|
|
</trkpt>
|
|
<trkpt lat="55.977329" lon="8.137002">
|
|
<ele>3.385562</ele>
|
|
<time>2026-07-12T11:04:44.000Z</time>
|
|
</trkpt>
|
|
<trkpt lat="55.977367" lon="8.136989">
|
|
<ele>3.364872</ele>
|
|
<time>2026-07-12T11:04:45.000Z</time>
|
|
</trkpt>
|
|
<trkpt lat="55.977406" lon="8.136971">
|
|
<ele>3.343332</ele>
|
|
<time>2026-07-12T11:04:46.000Z</time>
|
|
</trkpt>
|
|
<trkpt lat="55.977444" lon="8.136951">
|
|
<ele>3.322148</ele>
|
|
<time>2026-07-12T11:04:47.000Z</time>
|
|
</trkpt>
|
|
<trkpt lat="55.977482" lon="8.136932">
|
|
<ele>3.301046</ele>
|
|
<time>2026-07-12T11:04:48.000Z</time>
|
|
</trkpt>
|
|
<trkpt lat="55.977520" lon="8.136917">
|
|
<ele>3.280235</ele>
|
|
<time>2026-07-12T11:04:49.000Z</time>
|
|
</trkpt>
|
|
<trkpt lat="55.977554" lon="8.136904">
|
|
<ele>3.261642</ele>
|
|
<time>2026-07-12T11:04:50.000Z</time>
|
|
</trkpt>
|
|
<trkpt lat="55.977593" lon="8.136888">
|
|
<ele>3.240244</ele>
|
|
<time>2026-07-12T11:04:51.000Z</time>
|
|
</trkpt>
|
|
<trkpt lat="55.977634" lon="8.136872">
|
|
<ele>3.217801</ele>
|
|
<time>2026-07-12T11:04:52.000Z</time>
|
|
</trkpt>
|
|
<trkpt lat="55.977676" lon="8.136860">
|
|
<ele>3.195056</ele>
|
|
<time>2026-07-12T11:04:53.000Z</time>
|
|
</trkpt>
|
|
<trkpt lat="55.977715" lon="8.136851">
|
|
<ele>3.174027</ele>
|
|
<time>2026-07-12T11:04:54.000Z</time>
|
|
</trkpt>
|
|
<trkpt lat="55.977753" lon="8.136845">
|
|
<ele>3.153627</ele>
|
|
<time>2026-07-12T11:04:55.000Z</time>
|
|
</trkpt>
|
|
<trkpt lat="55.977791" lon="8.136838">
|
|
<ele>3.133198</ele>
|
|
<time>2026-07-12T11:04:56.000Z</time>
|
|
</trkpt>
|
|
<trkpt lat="55.977829" lon="8.136830">
|
|
<ele>3.112736</ele>
|
|
<time>2026-07-12T11:04:57.000Z</time>
|
|
</trkpt>
|
|
<trkpt lat="55.977863" lon="8.136823">
|
|
<ele>3.094434</ele>
|
|
<time>2026-07-12T11:04:58.000Z</time>
|
|
</trkpt>
|
|
<trkpt lat="55.977898" lon="8.136813">
|
|
<ele>3.075479</ele>
|
|
<time>2026-07-12T11:04:59.000Z</time>
|
|
</trkpt>
|
|
<trkpt lat="55.977936" lon="8.136805">
|
|
<ele>3.055017</ele>
|
|
<time>2026-07-12T11:05:00.000Z</time>
|
|
</trkpt>
|
|
<trkpt lat="55.977974" lon="8.136794">
|
|
<ele>3.034431</ele>
|
|
<time>2026-07-12T11:05:01.000Z</time>
|
|
</trkpt>
|
|
<trkpt lat="55.978012" lon="8.136781">
|
|
<ele>3.013741</ele>
|
|
<time>2026-07-12T11:05:02.000Z</time>
|
|
</trkpt>
|
|
<trkpt lat="55.978050" lon="8.136765">
|
|
<ele>2.992864</ele>
|
|
<time>2026-07-12T11:05:03.000Z</time>
|
|
</trkpt>
|
|
<trkpt lat="55.978092" lon="8.136746">
|
|
<ele>2.969695</ele>
|
|
<time>2026-07-12T11:05:04.000Z</time>
|
|
</trkpt>
|
|
<trkpt lat="55.978134" lon="8.136727">
|
|
<ele>2.946527</ele>
|
|
<time>2026-07-12T11:05:05.000Z</time>
|
|
</trkpt>
|
|
<trkpt lat="55.978172" lon="8.136707">
|
|
<ele>2.925343</ele>
|
|
<time>2026-07-12T11:05:06.000Z</time>
|
|
</trkpt>
|
|
<trkpt lat="55.978214" lon="8.136687">
|
|
<ele>2.902099</ele>
|
|
<time>2026-07-12T11:05:07.000Z</time>
|
|
</trkpt>
|
|
<trkpt lat="55.978256" lon="8.136669">
|
|
<ele>2.879002</ele>
|
|
<time>2026-07-12T11:05:08.000Z</time>
|
|
</trkpt>
|
|
<trkpt lat="55.978298" lon="8.136656">
|
|
<ele>2.856207</ele>
|
|
<time>2026-07-12T11:05:09.000Z</time>
|
|
</trkpt>
|
|
<trkpt lat="55.978340" lon="8.136648">
|
|
<ele>2.833620</ele>
|
|
<time>2026-07-12T11:05:10.000Z</time>
|
|
</trkpt>
|
|
<trkpt lat="55.978382" lon="8.136644">
|
|
<ele>2.812956</ele>
|
|
<time>2026-07-12T11:05:11.000Z</time>
|
|
</trkpt>
|
|
<trkpt lat="55.978424" lon="8.136644">
|
|
<ele>2.804222</ele>
|
|
<time>2026-07-12T11:05:12.000Z</time>
|
|
</trkpt>
|
|
<trkpt lat="55.978470" lon="8.136649">
|
|
<ele>2.794639</ele>
|
|
<time>2026-07-12T11:05:13.000Z</time>
|
|
</trkpt>
|
|
<trkpt lat="55.978512" lon="8.136656">
|
|
<ele>2.785868</ele>
|
|
<time>2026-07-12T11:05:14.000Z</time>
|
|
</trkpt>
|
|
<trkpt lat="55.978554" lon="8.136665">
|
|
<ele>2.777072</ele>
|
|
<time>2026-07-12T11:05:15.000Z</time>
|
|
</trkpt>
|
|
<trkpt lat="55.978596" lon="8.136683">
|
|
<ele>2.768090</ele>
|
|
<time>2026-07-12T11:05:16.000Z</time>
|
|
</trkpt>
|
|
<trkpt lat="55.978638" lon="8.136706">
|
|
<ele>2.758956</ele>
|
|
<time>2026-07-12T11:05:17.000Z</time>
|
|
</trkpt>
|
|
<trkpt lat="55.978676" lon="8.136730">
|
|
<ele>2.750575</ele>
|
|
<time>2026-07-12T11:05:18.000Z</time>
|
|
</trkpt>
|
|
<trkpt lat="55.978714" lon="8.136754">
|
|
<ele>2.742195</ele>
|
|
<time>2026-07-12T11:05:19.000Z</time>
|
|
</trkpt>
|
|
<trkpt lat="55.978748" lon="8.136772">
|
|
<ele>2.734821</ele>
|
|
<time>2026-07-12T11:05:20.000Z</time>
|
|
</trkpt>
|
|
<trkpt lat="55.978787" lon="8.136789">
|
|
<ele>2.726474</ele>
|
|
<time>2026-07-12T11:05:21.000Z</time>
|
|
</trkpt>
|
|
<trkpt lat="55.978836" lon="8.136809">
|
|
<ele>2.716022</ele>
|
|
<time>2026-07-12T11:05:22.000Z</time>
|
|
</trkpt>
|
|
<trkpt lat="55.978878" lon="8.136826">
|
|
<ele>2.707068</ele>
|
|
<time>2026-07-12T11:05:23.000Z</time>
|
|
</trkpt>
|
|
<trkpt lat="55.978920" lon="8.136840">
|
|
<ele>2.698183</ele>
|
|
<time>2026-07-12T11:05:24.000Z</time>
|
|
</trkpt>
|
|
<trkpt lat="55.978962" lon="8.136856">
|
|
<ele>2.689254</ele>
|
|
<time>2026-07-12T11:05:25.000Z</time>
|
|
</trkpt>
|
|
<trkpt lat="55.979004" lon="8.136873">
|
|
<ele>2.680299</ele>
|
|
<time>2026-07-12T11:05:26.000Z</time>
|
|
</trkpt>
|
|
<trkpt lat="55.979042" lon="8.136882">
|
|
<ele>2.672328</ele>
|
|
<time>2026-07-12T11:05:27.000Z</time>
|
|
</trkpt>
|
|
<trkpt lat="55.979080" lon="8.136883">
|
|
<ele>2.664425</ele>
|
|
<time>2026-07-12T11:05:28.000Z</time>
|
|
</trkpt>
|
|
<trkpt lat="55.979118" lon="8.136875">
|
|
<ele>2.656469</ele>
|
|
<time>2026-07-12T11:05:29.000Z</time>
|
|
</trkpt>
|
|
<trkpt lat="55.979153" lon="8.136866">
|
|
<ele>2.649116</ele>
|
|
<time>2026-07-12T11:05:30.000Z</time>
|
|
</trkpt>
|
|
<trkpt lat="55.979191" lon="8.136854">
|
|
<ele>2.641092</ele>
|
|
<time>2026-07-12T11:05:31.000Z</time>
|
|
</trkpt>
|
|
<trkpt lat="55.979229" lon="8.136843">
|
|
<ele>2.633087</ele>
|
|
<time>2026-07-12T11:05:32.000Z</time>
|
|
</trkpt>
|
|
<trkpt lat="55.979271" lon="8.136830">
|
|
<ele>2.624224</ele>
|
|
<time>2026-07-12T11:05:33.000Z</time>
|
|
</trkpt>
|
|
<trkpt lat="55.979309" lon="8.136817">
|
|
<ele>2.616178</ele>
|
|
<time>2026-07-12T11:05:34.000Z</time>
|
|
</trkpt>
|
|
<trkpt lat="55.979347" lon="8.136803">
|
|
<ele>2.608110</ele>
|
|
<time>2026-07-12T11:05:35.000Z</time>
|
|
</trkpt>
|
|
<trkpt lat="55.979385" lon="8.136788">
|
|
<ele>2.600018</ele>
|
|
<time>2026-07-12T11:05:36.000Z</time>
|
|
</trkpt>
|
|
<trkpt lat="55.979424" lon="8.136775">
|
|
<ele>2.591769</ele>
|
|
<time>2026-07-12T11:05:37.000Z</time>
|
|
</trkpt>
|
|
<trkpt lat="55.979454" lon="8.136764">
|
|
<ele>2.585400</ele>
|
|
<time>2026-07-12T11:05:38.000Z</time>
|
|
</trkpt>
|
|
<trkpt lat="55.979488" lon="8.136752">
|
|
<ele>2.578194</ele>
|
|
<time>2026-07-12T11:05:39.000Z</time>
|
|
</trkpt>
|
|
<trkpt lat="55.979534" lon="8.136740">
|
|
<ele>2.568527</ele>
|
|
<time>2026-07-12T11:05:40.000Z</time>
|
|
</trkpt>
|
|
<trkpt lat="55.979568" lon="8.136724">
|
|
<ele>2.561216</ele>
|
|
<time>2026-07-12T11:05:41.000Z</time>
|
|
</trkpt>
|
|
<trkpt lat="55.979610" lon="8.136706">
|
|
<ele>2.552235</ele>
|
|
<time>2026-07-12T11:05:42.000Z</time>
|
|
</trkpt>
|
|
<trkpt lat="55.979649" lon="8.136688">
|
|
<ele>2.543859</ele>
|
|
<time>2026-07-12T11:05:43.000Z</time>
|
|
</trkpt>
|
|
<trkpt lat="55.979691" lon="8.136674">
|
|
<ele>2.534975</ele>
|
|
<time>2026-07-12T11:05:44.000Z</time>
|
|
</trkpt>
|
|
<trkpt lat="55.979729" lon="8.136667">
|
|
<ele>2.527031</ele>
|
|
<time>2026-07-12T11:05:45.000Z</time>
|
|
</trkpt>
|
|
<trkpt lat="55.979771" lon="8.136665">
|
|
<ele>2.518295</ele>
|
|
<time>2026-07-12T11:05:46.000Z</time>
|
|
</trkpt>
|
|
<trkpt lat="55.979809" lon="8.136663">
|
|
<ele>2.510390</ele>
|
|
<time>2026-07-12T11:05:47.000Z</time>
|
|
</trkpt>
|
|
<trkpt lat="55.979847" lon="8.136656">
|
|
<ele>2.502446</ele>
|
|
<time>2026-07-12T11:05:48.000Z</time>
|
|
</trkpt>
|
|
<trkpt lat="55.979885" lon="8.136646">
|
|
<ele>2.494459</ele>
|
|
<time>2026-07-12T11:05:49.000Z</time>
|
|
</trkpt>
|
|
<trkpt lat="55.979927" lon="8.136634">
|
|
<ele>2.485615</ele>
|
|
<time>2026-07-12T11:05:50.000Z</time>
|
|
</trkpt>
|
|
<trkpt lat="55.979969" lon="8.136623">
|
|
<ele>2.476788</ele>
|
|
<time>2026-07-12T11:05:51.000Z</time>
|
|
</trkpt>
|
|
<trkpt lat="55.980011" lon="8.136616">
|
|
<ele>2.468016</ele>
|
|
<time>2026-07-12T11:05:52.000Z</time>
|
|
</trkpt>
|
|
<trkpt lat="55.980057" lon="8.136609">
|
|
<ele>2.458416</ele>
|
|
<time>2026-07-12T11:05:53.000Z</time>
|
|
</trkpt>
|
|
<trkpt lat="55.980099" lon="8.136602">
|
|
<ele>2.449645</ele>
|
|
<time>2026-07-12T11:05:54.000Z</time>
|
|
</trkpt>
|
|
<trkpt lat="55.980141" lon="8.136595">
|
|
<ele>2.440873</ele>
|
|
<time>2026-07-12T11:05:55.000Z</time>
|
|
</trkpt>
|
|
<trkpt lat="55.980183" lon="8.136586">
|
|
<ele>2.440925</ele>
|
|
<time>2026-07-12T11:05:56.000Z</time>
|
|
</trkpt>
|
|
<trkpt lat="55.980221" lon="8.136576">
|
|
<ele>2.441741</ele>
|
|
<time>2026-07-12T11:05:57.000Z</time>
|
|
</trkpt>
|
|
<trkpt lat="55.980263" lon="8.136564">
|
|
<ele>2.442644</ele>
|
|
<time>2026-07-12T11:05:58.000Z</time>
|
|
</trkpt>
|
|
<trkpt lat="55.980305" lon="8.136552">
|
|
<ele>2.443547</ele>
|
|
<time>2026-07-12T11:05:59.000Z</time>
|
|
</trkpt>
|
|
<trkpt lat="55.980343" lon="8.136539">
|
|
<ele>2.444369</ele>
|
|
<time>2026-07-12T11:06:00.000Z</time>
|
|
</trkpt>
|
|
<trkpt lat="55.980381" lon="8.136525">
|
|
<ele>2.445193</ele>
|
|
<time>2026-07-12T11:06:01.000Z</time>
|
|
</trkpt>
|
|
<trkpt lat="55.980419" lon="8.136513">
|
|
<ele>2.446013</ele>
|
|
<time>2026-07-12T11:06:02.000Z</time>
|
|
</trkpt>
|
|
<trkpt lat="55.980457" lon="8.136501">
|
|
<ele>2.446832</ele>
|
|
<time>2026-07-12T11:06:03.000Z</time>
|
|
</trkpt>
|
|
<trkpt lat="55.980495" lon="8.136489">
|
|
<ele>2.447652</ele>
|
|
<time>2026-07-12T11:06:04.000Z</time>
|
|
</trkpt>
|
|
<trkpt lat="55.980534" lon="8.136480">
|
|
<ele>2.448487</ele>
|
|
<time>2026-07-12T11:06:05.000Z</time>
|
|
</trkpt>
|
|
<trkpt lat="55.980568" lon="8.136475">
|
|
<ele>2.449212</ele>
|
|
<time>2026-07-12T11:06:06.000Z</time>
|
|
</trkpt>
|
|
<trkpt lat="55.980602" lon="8.136468">
|
|
<ele>2.449938</ele>
|
|
<time>2026-07-12T11:06:07.000Z</time>
|
|
</trkpt>
|
|
<trkpt lat="55.980640" lon="8.136458">
|
|
<ele>2.450754</ele>
|
|
<time>2026-07-12T11:06:08.000Z</time>
|
|
</trkpt>
|
|
<trkpt lat="55.980675" lon="8.136448">
|
|
<ele>2.451507</ele>
|
|
<time>2026-07-12T11:06:09.000Z</time>
|
|
</trkpt>
|
|
<trkpt lat="55.980713" lon="8.136435">
|
|
<ele>2.452329</ele>
|
|
<time>2026-07-12T11:06:10.000Z</time>
|
|
</trkpt>
|
|
<trkpt lat="55.980751" lon="8.136423">
|
|
<ele>2.453148</ele>
|
|
<time>2026-07-12T11:06:11.000Z</time>
|
|
</trkpt>
|
|
<trkpt lat="55.980789" lon="8.136416">
|
|
<ele>2.453960</ele>
|
|
<time>2026-07-12T11:06:12.000Z</time>
|
|
</trkpt>
|
|
<trkpt lat="55.980827" lon="8.136410">
|
|
<ele>2.454770</ele>
|
|
<time>2026-07-12T11:06:13.000Z</time>
|
|
</trkpt>
|
|
<trkpt lat="55.980869" lon="8.136405">
|
|
<ele>2.455664</ele>
|
|
<time>2026-07-12T11:06:14.000Z</time>
|
|
</trkpt>
|
|
<trkpt lat="55.980907" lon="8.136401">
|
|
<ele>2.456472</ele>
|
|
<time>2026-07-12T11:06:15.000Z</time>
|
|
</trkpt>
|
|
<trkpt lat="55.980949" lon="8.136394">
|
|
<ele>2.457368</ele>
|
|
<time>2026-07-12T11:06:16.000Z</time>
|
|
</trkpt>
|
|
<trkpt lat="55.980988" lon="8.136386">
|
|
<ele>2.458202</ele>
|
|
<time>2026-07-12T11:06:17.000Z</time>
|
|
</trkpt>
|
|
<trkpt lat="55.981030" lon="8.136378">
|
|
<ele>2.459099</ele>
|
|
<time>2026-07-12T11:06:18.000Z</time>
|
|
</trkpt>
|
|
<trkpt lat="55.981064" lon="8.136369">
|
|
<ele>2.459829</ele>
|
|
<time>2026-07-12T11:06:19.000Z</time>
|
|
</trkpt>
|
|
<trkpt lat="55.981098" lon="8.136359">
|
|
<ele>2.460561</ele>
|
|
<time>2026-07-12T11:06:20.000Z</time>
|
|
</trkpt>
|
|
<trkpt lat="55.981125" lon="8.136353">
|
|
<ele>2.461138</ele>
|
|
<time>2026-07-12T11:06:21.000Z</time>
|
|
</trkpt>
|
|
<trkpt lat="55.981144" lon="8.136346">
|
|
<ele>2.461551</ele>
|
|
<time>2026-07-12T11:06:22.000Z</time>
|
|
</trkpt>
|
|
<trkpt lat="55.981167" lon="8.136339">
|
|
<ele>2.462046</ele>
|
|
<time>2026-07-12T11:06:23.000Z</time>
|
|
</trkpt>
|
|
<trkpt lat="55.981186" lon="8.136333">
|
|
<ele>2.462456</ele>
|
|
<time>2026-07-12T11:06:24.000Z</time>
|
|
</trkpt>
|
|
<trkpt lat="55.981205" lon="8.136328">
|
|
<ele>2.462864</ele>
|
|
<time>2026-07-12T11:06:25.000Z</time>
|
|
</trkpt>
|
|
<trkpt lat="55.981224" lon="8.136324">
|
|
<ele>2.463270</ele>
|
|
<time>2026-07-12T11:06:26.000Z</time>
|
|
</trkpt>
|
|
<trkpt lat="55.981243" lon="8.136321">
|
|
<ele>2.463675</ele>
|
|
<time>2026-07-12T11:06:27.000Z</time>
|
|
</trkpt>
|
|
<trkpt lat="55.981266" lon="8.136318">
|
|
<ele>2.464165</ele>
|
|
<time>2026-07-12T11:06:28.000Z</time>
|
|
</trkpt>
|
|
<trkpt lat="55.981289" lon="8.136315">
|
|
<ele>2.464655</ele>
|
|
<time>2026-07-12T11:06:29.000Z</time>
|
|
</trkpt>
|
|
<trkpt lat="55.981312" lon="8.136313">
|
|
<ele>2.465144</ele>
|
|
<time>2026-07-12T11:06:30.000Z</time>
|
|
</trkpt>
|
|
<trkpt lat="55.981335" lon="8.136312">
|
|
<ele>2.465632</ele>
|
|
<time>2026-07-12T11:06:31.000Z</time>
|
|
</trkpt>
|
|
<trkpt lat="55.981365" lon="8.136310">
|
|
<ele>2.466270</ele>
|
|
<time>2026-07-12T11:06:32.000Z</time>
|
|
</trkpt>
|
|
<trkpt lat="55.981407" lon="8.136303">
|
|
<ele>2.467166</ele>
|
|
<time>2026-07-12T11:06:33.000Z</time>
|
|
</trkpt>
|
|
<trkpt lat="55.981449" lon="8.136293">
|
|
<ele>2.468066</ele>
|
|
<time>2026-07-12T11:06:34.000Z</time>
|
|
</trkpt>
|
|
<trkpt lat="55.981491" lon="8.136280">
|
|
<ele>2.468971</ele>
|
|
<time>2026-07-12T11:06:35.000Z</time>
|
|
</trkpt>
|
|
<trkpt lat="55.981552" lon="8.136260">
|
|
<ele>2.470288</ele>
|
|
<time>2026-07-12T11:06:36.000Z</time>
|
|
</trkpt>
|
|
<trkpt lat="55.981602" lon="8.136241">
|
|
<ele>2.471374</ele>
|
|
<time>2026-07-12T11:06:37.000Z</time>
|
|
</trkpt>
|
|
<trkpt lat="55.981655" lon="8.136219">
|
|
<ele>2.472529</ele>
|
|
<time>2026-07-12T11:06:38.000Z</time>
|
|
</trkpt>
|
|
<trkpt lat="55.981709" lon="8.136193">
|
|
<ele>2.473717</ele>
|
|
<time>2026-07-12T11:06:39.000Z</time>
|
|
</trkpt>
|
|
<trkpt lat="55.981751" lon="8.136168">
|
|
<ele>2.474657</ele>
|
|
<time>2026-07-12T11:06:40.000Z</time>
|
|
</trkpt>
|
|
<trkpt lat="55.981789" lon="8.136143">
|
|
<ele>2.475517</ele>
|
|
<time>2026-07-12T11:06:41.000Z</time>
|
|
</trkpt>
|
|
<trkpt lat="55.981823" lon="8.136121">
|
|
<ele>2.476285</ele>
|
|
<time>2026-07-12T11:06:42.000Z</time>
|
|
</trkpt>
|
|
<trkpt lat="55.981850" lon="8.136101">
|
|
<ele>2.476906</ele>
|
|
<time>2026-07-12T11:06:43.000Z</time>
|
|
</trkpt>
|
|
<trkpt lat="55.981876" lon="8.136080">
|
|
<ele>2.477512</ele>
|
|
<time>2026-07-12T11:06:44.000Z</time>
|
|
</trkpt>
|
|
<trkpt lat="55.981903" lon="8.136061">
|
|
<ele>2.478128</ele>
|
|
<time>2026-07-12T11:06:45.000Z</time>
|
|
</trkpt>
|
|
<trkpt lat="55.981926" lon="8.136046">
|
|
<ele>2.468262</ele>
|
|
<time>2026-07-12T11:06:46.000Z</time>
|
|
</trkpt>
|
|
<trkpt lat="55.981953" lon="8.136033">
|
|
<ele>2.450869</ele>
|
|
<time>2026-07-12T11:06:47.000Z</time>
|
|
</trkpt>
|
|
<trkpt lat="55.981979" lon="8.136020">
|
|
<ele>2.434076</ele>
|
|
<time>2026-07-12T11:06:48.000Z</time>
|
|
</trkpt>
|
|
<trkpt lat="55.982010" lon="8.136010">
|
|
<ele>2.414483</ele>
|
|
<time>2026-07-12T11:06:49.000Z</time>
|
|
</trkpt>
|
|
<trkpt lat="55.982040" lon="8.136003">
|
|
<ele>2.395664</ele>
|
|
<time>2026-07-12T11:06:50.000Z</time>
|
|
</trkpt>
|
|
<trkpt lat="55.982071" lon="8.135991">
|
|
<ele>2.375935</ele>
|
|
<time>2026-07-12T11:06:51.000Z</time>
|
|
</trkpt>
|
|
<trkpt lat="55.982105" lon="8.135974">
|
|
<ele>2.353975</ele>
|
|
<time>2026-07-12T11:06:52.000Z</time>
|
|
</trkpt>
|
|
<trkpt lat="55.982136" lon="8.135952">
|
|
<ele>2.333229</ele>
|
|
<time>2026-07-12T11:06:53.000Z</time>
|
|
</trkpt>
|
|
<trkpt lat="55.982170" lon="8.135927">
|
|
<ele>2.310361</ele>
|
|
<time>2026-07-12T11:06:54.000Z</time>
|
|
</trkpt>
|
|
<trkpt lat="55.982204" lon="8.135900">
|
|
<ele>2.287220</ele>
|
|
<time>2026-07-12T11:06:55.000Z</time>
|
|
</trkpt>
|
|
<trkpt lat="55.982239" lon="8.135873">
|
|
<ele>2.263509</ele>
|
|
<time>2026-07-12T11:06:56.000Z</time>
|
|
</trkpt>
|
|
<trkpt lat="55.982273" lon="8.135846">
|
|
<ele>2.240368</ele>
|
|
<time>2026-07-12T11:06:57.000Z</time>
|
|
</trkpt>
|
|
<trkpt lat="55.982307" lon="8.135816">
|
|
<ele>2.216783</ele>
|
|
<time>2026-07-12T11:06:58.000Z</time>
|
|
</trkpt>
|
|
<trkpt lat="55.982342" lon="8.135782">
|
|
<ele>2.192006</ele>
|
|
<time>2026-07-12T11:06:59.000Z</time>
|
|
</trkpt>
|
|
<trkpt lat="55.982372" lon="8.135749">
|
|
<ele>2.170096</ele>
|
|
<time>2026-07-12T11:07:00.000Z</time>
|
|
</trkpt>
|
|
<trkpt lat="55.982403" lon="8.135715">
|
|
<ele>2.147473</ele>
|
|
<time>2026-07-12T11:07:01.000Z</time>
|
|
</trkpt>
|
|
<trkpt lat="55.982441" lon="8.135678">
|
|
<ele>2.120558</ele>
|
|
<time>2026-07-12T11:07:02.000Z</time>
|
|
</trkpt>
|
|
<trkpt lat="55.982475" lon="8.135648">
|
|
<ele>2.096973</ele>
|
|
<time>2026-07-12T11:07:03.000Z</time>
|
|
</trkpt>
|
|
<trkpt lat="55.982510" lon="8.135621">
|
|
<ele>2.073262</ele>
|
|
<time>2026-07-12T11:07:04.000Z</time>
|
|
</trkpt>
|
|
<trkpt lat="55.982544" lon="8.135597">
|
|
<ele>2.050525</ele>
|
|
<time>2026-07-12T11:07:05.000Z</time>
|
|
</trkpt>
|
|
<trkpt lat="55.982574" lon="8.135571">
|
|
<ele>2.029787</ele>
|
|
<time>2026-07-12T11:07:06.000Z</time>
|
|
</trkpt>
|
|
<trkpt lat="55.982605" lon="8.135548">
|
|
<ele>2.008910</ele>
|
|
<time>2026-07-12T11:07:07.000Z</time>
|
|
</trkpt>
|
|
<trkpt lat="55.982635" lon="8.135527">
|
|
<ele>1.988870</ele>
|
|
<time>2026-07-12T11:07:08.000Z</time>
|
|
</trkpt>
|
|
<trkpt lat="55.982666" lon="8.135504">
|
|
<ele>1.967993</ele>
|
|
<time>2026-07-12T11:07:09.000Z</time>
|
|
</trkpt>
|
|
<trkpt lat="55.982700" lon="8.135481">
|
|
<ele>1.945381</ele>
|
|
<time>2026-07-12T11:07:10.000Z</time>
|
|
</trkpt>
|
|
<trkpt lat="55.982735" lon="8.135462">
|
|
<ele>1.922629</ele>
|
|
<time>2026-07-12T11:07:11.000Z</time>
|
|
</trkpt>
|
|
<trkpt lat="55.982777" lon="8.135446">
|
|
<ele>1.895918</ele>
|
|
<time>2026-07-12T11:07:12.000Z</time>
|
|
</trkpt>
|
|
<trkpt lat="55.982815" lon="8.135431">
|
|
<ele>1.871712</ele>
|
|
<time>2026-07-12T11:07:13.000Z</time>
|
|
</trkpt>
|
|
<trkpt lat="55.982849" lon="8.135418">
|
|
<ele>1.850086</ele>
|
|
<time>2026-07-12T11:07:14.000Z</time>
|
|
</trkpt>
|
|
<trkpt lat="55.982887" lon="8.135406">
|
|
<ele>1.826083</ele>
|
|
<time>2026-07-12T11:07:15.000Z</time>
|
|
</trkpt>
|
|
<trkpt lat="55.982925" lon="8.135397">
|
|
<ele>1.802241</ele>
|
|
<time>2026-07-12T11:07:16.000Z</time>
|
|
</trkpt>
|
|
<trkpt lat="55.982964" lon="8.135391">
|
|
<ele>1.777893</ele>
|
|
<time>2026-07-12T11:07:17.000Z</time>
|
|
</trkpt>
|
|
<trkpt lat="55.983002" lon="8.135386">
|
|
<ele>1.754193</ele>
|
|
<time>2026-07-12T11:07:18.000Z</time>
|
|
</trkpt>
|
|
<trkpt lat="55.983040" lon="8.135381">
|
|
<ele>1.730493</ele>
|
|
<time>2026-07-12T11:07:19.000Z</time>
|
|
</trkpt>
|
|
<trkpt lat="55.983074" lon="8.135373">
|
|
<ele>1.709162</ele>
|
|
<time>2026-07-12T11:07:20.000Z</time>
|
|
</trkpt>
|
|
<trkpt lat="55.983112" lon="8.135366">
|
|
<ele>1.685401</ele>
|
|
<time>2026-07-12T11:07:21.000Z</time>
|
|
</trkpt>
|
|
<trkpt lat="55.983150" lon="8.135360">
|
|
<ele>1.661673</ele>
|
|
<time>2026-07-12T11:07:22.000Z</time>
|
|
</trkpt>
|
|
<trkpt lat="55.983189" lon="8.135349">
|
|
<ele>1.637114</ele>
|
|
<time>2026-07-12T11:07:23.000Z</time>
|
|
</trkpt>
|
|
<trkpt lat="55.983227" lon="8.135341">
|
|
<ele>1.613315</ele>
|
|
<time>2026-07-12T11:07:24.000Z</time>
|
|
</trkpt>
|
|
<trkpt lat="55.983261" lon="8.135335">
|
|
<ele>1.592064</ele>
|
|
<time>2026-07-12T11:07:25.000Z</time>
|
|
</trkpt>
|
|
<trkpt lat="55.983299" lon="8.135329">
|
|
<ele>1.568336</ele>
|
|
<time>2026-07-12T11:07:26.000Z</time>
|
|
</trkpt>
|
|
<trkpt lat="55.983341" lon="8.135321">
|
|
<ele>1.542064</ele>
|
|
<time>2026-07-12T11:07:27.000Z</time>
|
|
</trkpt>
|
|
<trkpt lat="55.983376" lon="8.135311">
|
|
<ele>1.520017</ele>
|
|
<time>2026-07-12T11:07:28.000Z</time>
|
|
</trkpt>
|
|
<trkpt lat="55.983410" lon="8.135301">
|
|
<ele>1.498585</ele>
|
|
<time>2026-07-12T11:07:29.000Z</time>
|
|
</trkpt>
|
|
<trkpt lat="55.983456" lon="8.135286">
|
|
<ele>1.469500</ele>
|
|
<time>2026-07-12T11:07:30.000Z</time>
|
|
</trkpt>
|
|
<trkpt lat="55.983498" lon="8.135276">
|
|
<ele>1.443145</ele>
|
|
<time>2026-07-12T11:07:31.000Z</time>
|
|
</trkpt>
|
|
<trkpt lat="55.983540" lon="8.135264">
|
|
<ele>1.416689</ele>
|
|
<time>2026-07-12T11:07:32.000Z</time>
|
|
</trkpt>
|
|
<trkpt lat="55.983578" lon="8.135253">
|
|
<ele>1.392745</ele>
|
|
<time>2026-07-12T11:07:33.000Z</time>
|
|
</trkpt>
|
|
<trkpt lat="55.983620" lon="8.135241">
|
|
<ele>1.366290</ele>
|
|
<time>2026-07-12T11:07:34.000Z</time>
|
|
</trkpt>
|
|
<trkpt lat="55.983658" lon="8.135227">
|
|
<ele>1.367502</ele>
|
|
<time>2026-07-12T11:07:35.000Z</time>
|
|
</trkpt>
|
|
<trkpt lat="55.983704" lon="8.135213">
|
|
<ele>1.380791</ele>
|
|
<time>2026-07-12T11:07:36.000Z</time>
|
|
</trkpt>
|
|
<trkpt lat="55.983746" lon="8.135197">
|
|
<ele>1.393022</ele>
|
|
<time>2026-07-12T11:07:37.000Z</time>
|
|
</trkpt>
|
|
<trkpt lat="55.983784" lon="8.135180">
|
|
<ele>1.404178</ele>
|
|
<time>2026-07-12T11:07:38.000Z</time>
|
|
</trkpt>
|
|
<trkpt lat="55.983829" lon="8.135166">
|
|
<ele>1.417187</ele>
|
|
<time>2026-07-12T11:07:39.000Z</time>
|
|
</trkpt>
|
|
<trkpt lat="55.983871" lon="8.135158">
|
|
<ele>1.429216</ele>
|
|
<time>2026-07-12T11:07:40.000Z</time>
|
|
</trkpt>
|
|
<trkpt lat="55.983913" lon="8.135148">
|
|
<ele>1.441284</ele>
|
|
<time>2026-07-12T11:07:41.000Z</time>
|
|
</trkpt>
|
|
<trkpt lat="55.983952" lon="8.135139">
|
|
<ele>1.452483</ele>
|
|
<time>2026-07-12T11:07:42.000Z</time>
|
|
</trkpt>
|
|
<trkpt lat="55.983997" lon="8.135131">
|
|
<ele>1.465362</ele>
|
|
<time>2026-07-12T11:07:43.000Z</time>
|
|
</trkpt>
|
|
<trkpt lat="55.984039" lon="8.135130">
|
|
<ele>1.477325</ele>
|
|
<time>2026-07-12T11:07:44.000Z</time>
|
|
</trkpt>
|
|
<trkpt lat="55.984081" lon="8.135129">
|
|
<ele>1.489288</ele>
|
|
<time>2026-07-12T11:07:45.000Z</time>
|
|
</trkpt>
|
|
<trkpt lat="55.984123" lon="8.135127">
|
|
<ele>1.501254</ele>
|
|
<time>2026-07-12T11:07:46.000Z</time>
|
|
</trkpt>
|
|
<trkpt lat="55.984161" lon="8.135125">
|
|
<ele>1.512081</ele>
|
|
<time>2026-07-12T11:07:47.000Z</time>
|
|
</trkpt>
|
|
<trkpt lat="55.984207" lon="8.135118">
|
|
<ele>1.525230</ele>
|
|
<time>2026-07-12T11:07:48.000Z</time>
|
|
</trkpt>
|
|
<trkpt lat="55.984249" lon="8.135111">
|
|
<ele>1.537243</ele>
|
|
<time>2026-07-12T11:07:49.000Z</time>
|
|
</trkpt>
|
|
<trkpt lat="55.984283" lon="8.135105">
|
|
<ele>1.546974</ele>
|
|
<time>2026-07-12T11:07:50.000Z</time>
|
|
</trkpt>
|
|
<trkpt lat="55.984325" lon="8.135099">
|
|
<ele>1.558974</ele>
|
|
<time>2026-07-12T11:07:51.000Z</time>
|
|
</trkpt>
|
|
<trkpt lat="55.984375" lon="8.135095">
|
|
<ele>1.573228</ele>
|
|
<time>2026-07-12T11:07:52.000Z</time>
|
|
</trkpt>
|
|
<trkpt lat="55.984417" lon="8.135087">
|
|
<ele>1.585257</ele>
|
|
<time>2026-07-12T11:07:53.000Z</time>
|
|
</trkpt>
|
|
<trkpt lat="55.984459" lon="8.135076">
|
|
<ele>1.597347</ele>
|
|
<time>2026-07-12T11:07:54.000Z</time>
|
|
</trkpt>
|
|
<trkpt lat="55.984497" lon="8.135065">
|
|
<ele>1.608310</ele>
|
|
<time>2026-07-12T11:07:55.000Z</time>
|
|
</trkpt>
|
|
<trkpt lat="55.984539" lon="8.135056">
|
|
<ele>1.620358</ele>
|
|
<time>2026-07-12T11:07:56.000Z</time>
|
|
</trkpt>
|
|
<trkpt lat="55.984581" lon="8.135047">
|
|
<ele>1.632405</ele>
|
|
<time>2026-07-12T11:07:57.000Z</time>
|
|
</trkpt>
|
|
<trkpt lat="55.984623" lon="8.135036">
|
|
<ele>1.644495</ele>
|
|
<time>2026-07-12T11:07:58.000Z</time>
|
|
</trkpt>
|
|
<trkpt lat="55.984661" lon="8.135023">
|
|
<ele>1.655514</ele>
|
|
<time>2026-07-12T11:07:59.000Z</time>
|
|
</trkpt>
|
|
<trkpt lat="55.984699" lon="8.135015">
|
|
<ele>1.666411</ele>
|
|
<time>2026-07-12T11:08:00.000Z</time>
|
|
</trkpt>
|
|
<trkpt lat="55.984734" lon="8.135010">
|
|
<ele>1.676411</ele>
|
|
<time>2026-07-12T11:08:01.000Z</time>
|
|
</trkpt>
|
|
<trkpt lat="55.984768" lon="8.135006">
|
|
<ele>1.686115</ele>
|
|
<time>2026-07-12T11:08:02.000Z</time>
|
|
</trkpt>
|
|
<trkpt lat="55.984806" lon="8.135006">
|
|
<ele>1.696938</ele>
|
|
<time>2026-07-12T11:08:03.000Z</time>
|
|
</trkpt>
|
|
<trkpt lat="55.984840" lon="8.135005">
|
|
<ele>1.706622</ele>
|
|
<time>2026-07-12T11:08:04.000Z</time>
|
|
</trkpt>
|
|
<trkpt lat="55.984871" lon="8.134997">
|
|
<ele>1.715543</ele>
|
|
<time>2026-07-12T11:08:05.000Z</time>
|
|
</trkpt>
|
|
<trkpt lat="55.984901" lon="8.134985">
|
|
<ele>1.724298</ele>
|
|
<time>2026-07-12T11:08:06.000Z</time>
|
|
</trkpt>
|
|
<trkpt lat="55.984932" lon="8.134980">
|
|
<ele>1.733163</ele>
|
|
<time>2026-07-12T11:08:07.000Z</time>
|
|
</trkpt>
|
|
<trkpt lat="55.984959" lon="8.134991">
|
|
<ele>1.741050</ele>
|
|
<time>2026-07-12T11:08:08.000Z</time>
|
|
</trkpt>
|
|
<trkpt lat="55.984989" lon="8.135023">
|
|
<ele>1.750999</ele>
|
|
<time>2026-07-12T11:08:09.000Z</time>
|
|
</trkpt>
|
|
<trkpt lat="55.985008" lon="8.135069">
|
|
<ele>1.760109</ele>
|
|
<time>2026-07-12T11:08:10.000Z</time>
|
|
</trkpt>
|
|
<trkpt lat="55.985023" lon="8.135117">
|
|
<ele>1.768869</ele>
|
|
<time>2026-07-12T11:08:11.000Z</time>
|
|
</trkpt>
|
|
<trkpt lat="55.985035" lon="8.135171">
|
|
<ele>1.778127</ele>
|
|
<time>2026-07-12T11:08:12.000Z</time>
|
|
</trkpt>
|
|
<trkpt lat="55.985043" lon="8.135229">
|
|
<ele>1.787644</ele>
|
|
<time>2026-07-12T11:08:13.000Z</time>
|
|
</trkpt>
|
|
<trkpt lat="55.985046" lon="8.135292">
|
|
<ele>1.797718</ele>
|
|
<time>2026-07-12T11:08:14.000Z</time>
|
|
</trkpt>
|
|
<trkpt lat="55.985050" lon="8.135357">
|
|
<ele>1.808136</ele>
|
|
<time>2026-07-12T11:08:15.000Z</time>
|
|
</trkpt>
|
|
<trkpt lat="55.985054" lon="8.135422">
|
|
<ele>1.818554</ele>
|
|
<time>2026-07-12T11:08:16.000Z</time>
|
|
</trkpt>
|
|
<trkpt lat="55.985054" lon="8.135490">
|
|
<ele>1.829388</ele>
|
|
<time>2026-07-12T11:08:17.000Z</time>
|
|
</trkpt>
|
|
<trkpt lat="55.985058" lon="8.135557">
|
|
<ele>1.840123</ele>
|
|
<time>2026-07-12T11:08:18.000Z</time>
|
|
</trkpt>
|
|
<trkpt lat="55.985062" lon="8.135625">
|
|
<ele>1.851017</ele>
|
|
<time>2026-07-12T11:08:19.000Z</time>
|
|
</trkpt>
|
|
<trkpt lat="55.985062" lon="8.135694">
|
|
<ele>1.862010</ele>
|
|
<time>2026-07-12T11:08:20.000Z</time>
|
|
</trkpt>
|
|
<trkpt lat="55.985065" lon="8.135767">
|
|
<ele>1.873629</ele>
|
|
<time>2026-07-12T11:08:21.000Z</time>
|
|
</trkpt>
|
|
<trkpt lat="55.985065" lon="8.135838">
|
|
<ele>1.884678</ele>
|
|
<time>2026-07-12T11:08:22.000Z</time>
|
|
</trkpt>
|
|
<trkpt lat="55.985069" lon="8.135906">
|
|
<ele>1.895319</ele>
|
|
<time>2026-07-12T11:08:23.000Z</time>
|
|
</trkpt>
|
|
<trkpt lat="55.985073" lon="8.135966">
|
|
<ele>1.904722</ele>
|
|
<time>2026-07-12T11:08:24.000Z</time>
|
|
</trkpt>
|
|
<trkpt lat="55.985077" lon="8.136024">
|
|
<ele>1.913817</ele>
|
|
<time>2026-07-12T11:08:25.000Z</time>
|
|
</trkpt>
|
|
<trkpt lat="55.985077" lon="8.136097">
|
|
<ele>1.925177</ele>
|
|
<time>2026-07-12T11:08:26.000Z</time>
|
|
</trkpt>
|
|
<trkpt lat="55.985085" lon="8.136158">
|
|
<ele>1.934928</ele>
|
|
<time>2026-07-12T11:08:27.000Z</time>
|
|
</trkpt>
|
|
<trkpt lat="55.985092" lon="8.136219">
|
|
<ele>1.944618</ele>
|
|
<time>2026-07-12T11:08:28.000Z</time>
|
|
</trkpt>
|
|
<trkpt lat="55.985100" lon="8.136278">
|
|
<ele>1.954066</ele>
|
|
<time>2026-07-12T11:08:29.000Z</time>
|
|
</trkpt>
|
|
<trkpt lat="55.985104" lon="8.136333">
|
|
<ele>1.962698</ele>
|
|
<time>2026-07-12T11:08:30.000Z</time>
|
|
</trkpt>
|
|
<trkpt lat="55.985107" lon="8.136382">
|
|
<ele>1.970369</ele>
|
|
<time>2026-07-12T11:08:31.000Z</time>
|
|
</trkpt>
|
|
<trkpt lat="55.985111" lon="8.136426">
|
|
<ele>1.977306</ele>
|
|
<time>2026-07-12T11:08:32.000Z</time>
|
|
</trkpt>
|
|
<trkpt lat="55.985115" lon="8.136468">
|
|
<ele>1.983936</ele>
|
|
<time>2026-07-12T11:08:33.000Z</time>
|
|
</trkpt>
|
|
<trkpt lat="55.985119" lon="8.136508">
|
|
<ele>1.990260</ele>
|
|
<time>2026-07-12T11:08:34.000Z</time>
|
|
</trkpt>
|
|
<trkpt lat="55.985115" lon="8.136544">
|
|
<ele>1.995972</ele>
|
|
<time>2026-07-12T11:08:35.000Z</time>
|
|
</trkpt>
|
|
<trkpt lat="55.985107" lon="8.136578">
|
|
<ele>2.001712</ele>
|
|
<time>2026-07-12T11:08:36.000Z</time>
|
|
</trkpt>
|
|
<trkpt lat="55.985104" lon="8.136610">
|
|
<ele>2.006761</ele>
|
|
<time>2026-07-12T11:08:37.000Z</time>
|
|
</trkpt>
|
|
<trkpt lat="55.985100" lon="8.136640">
|
|
<ele>2.011561</ele>
|
|
<time>2026-07-12T11:08:38.000Z</time>
|
|
</trkpt>
|
|
<trkpt lat="55.985100" lon="8.136663">
|
|
<ele>2.015140</ele>
|
|
<time>2026-07-12T11:08:39.000Z</time>
|
|
</trkpt>
|
|
<trkpt lat="55.985100" lon="8.136683">
|
|
<ele>2.018253</ele>
|
|
<time>2026-07-12T11:08:40.000Z</time>
|
|
</trkpt>
|
|
<trkpt lat="55.985146" lon="8.136866">
|
|
<ele>2.049475</ele>
|
|
<time>2026-07-12T11:12:50.000Z</time>
|
|
</trkpt>
|
|
<trkpt lat="55.985161" lon="8.136878">
|
|
<ele>2.054047</ele>
|
|
<time>2026-07-12T11:12:51.000Z</time>
|
|
</trkpt>
|
|
<trkpt lat="55.985180" lon="8.136880">
|
|
<ele>2.059341</ele>
|
|
<time>2026-07-12T11:12:52.000Z</time>
|
|
</trkpt>
|
|
<trkpt lat="55.985203" lon="8.136871">
|
|
<ele>2.065891</ele>
|
|
<time>2026-07-12T11:12:53.000Z</time>
|
|
</trkpt>
|
|
<trkpt lat="55.985226" lon="8.136858">
|
|
<ele>2.072602</ele>
|
|
<time>2026-07-12T11:12:54.000Z</time>
|
|
</trkpt>
|
|
<trkpt lat="55.985252" lon="8.136842">
|
|
<ele>2.080252</ele>
|
|
<time>2026-07-12T11:12:55.000Z</time>
|
|
</trkpt>
|
|
<trkpt lat="55.985279" lon="8.136823">
|
|
<ele>2.088324</ele>
|
|
<time>2026-07-12T11:12:56.000Z</time>
|
|
</trkpt>
|
|
<trkpt lat="55.985310" lon="8.136804">
|
|
<ele>2.097441</ele>
|
|
<time>2026-07-12T11:12:57.000Z</time>
|
|
</trkpt>
|
|
<trkpt lat="55.985344" lon="8.136781">
|
|
<ele>2.107554</ele>
|
|
<time>2026-07-12T11:12:58.000Z</time>
|
|
</trkpt>
|
|
<trkpt lat="55.985378" lon="8.136759">
|
|
<ele>2.117613</ele>
|
|
<time>2026-07-12T11:12:59.000Z</time>
|
|
</trkpt>
|
|
<trkpt lat="55.985413" lon="8.136740">
|
|
<ele>2.127789</ele>
|
|
<time>2026-07-12T11:13:00.000Z</time>
|
|
</trkpt>
|
|
<trkpt lat="55.985451" lon="8.136718">
|
|
<ele>2.138901</ele>
|
|
<time>2026-07-12T11:13:01.000Z</time>
|
|
</trkpt>
|
|
<trkpt lat="55.985489" lon="8.136689">
|
|
<ele>2.150395</ele>
|
|
<time>2026-07-12T11:13:02.000Z</time>
|
|
</trkpt>
|
|
<trkpt lat="55.985531" lon="8.136663">
|
|
<ele>2.162760</ele>
|
|
<time>2026-07-12T11:13:03.000Z</time>
|
|
</trkpt>
|
|
<trkpt lat="55.985569" lon="8.136639">
|
|
<ele>2.173972</ele>
|
|
<time>2026-07-12T11:13:04.000Z</time>
|
|
</trkpt>
|
|
<trkpt lat="55.985603" lon="8.136617">
|
|
<ele>2.184031</ele>
|
|
<time>2026-07-12T11:13:05.000Z</time>
|
|
</trkpt>
|
|
<trkpt lat="55.985638" lon="8.136596">
|
|
<ele>2.194302</ele>
|
|
<time>2026-07-12T11:13:06.000Z</time>
|
|
</trkpt>
|
|
<trkpt lat="55.985676" lon="8.136576">
|
|
<ele>2.205322</ele>
|
|
<time>2026-07-12T11:13:07.000Z</time>
|
|
</trkpt>
|
|
<trkpt lat="55.985710" lon="8.136553">
|
|
<ele>2.215435</ele>
|
|
<time>2026-07-12T11:13:08.000Z</time>
|
|
</trkpt>
|
|
<trkpt lat="55.985744" lon="8.136529">
|
|
<ele>2.225604</ele>
|
|
<time>2026-07-12T11:13:09.000Z</time>
|
|
</trkpt>
|
|
<trkpt lat="55.985783" lon="8.136505">
|
|
<ele>2.237079</ele>
|
|
<time>2026-07-12T11:13:10.000Z</time>
|
|
</trkpt>
|
|
<trkpt lat="55.985821" lon="8.136483">
|
|
<ele>2.248191</ele>
|
|
<time>2026-07-12T11:13:11.000Z</time>
|
|
</trkpt>
|
|
<trkpt lat="55.985859" lon="8.136460">
|
|
<ele>2.259352</ele>
|
|
<time>2026-07-12T11:13:12.000Z</time>
|
|
</trkpt>
|
|
<trkpt lat="55.985901" lon="8.136437">
|
|
<ele>2.271572</ele>
|
|
<time>2026-07-12T11:13:13.000Z</time>
|
|
</trkpt>
|
|
<trkpt lat="55.985939" lon="8.136414">
|
|
<ele>2.282733</ele>
|
|
<time>2026-07-12T11:13:14.000Z</time>
|
|
</trkpt>
|
|
<trkpt lat="55.985977" lon="8.136389">
|
|
<ele>2.293997</ele>
|
|
<time>2026-07-12T11:13:15.000Z</time>
|
|
</trkpt>
|
|
<trkpt lat="55.986019" lon="8.136364">
|
|
<ele>2.306312</ele>
|
|
<time>2026-07-12T11:13:16.000Z</time>
|
|
</trkpt>
|
|
<trkpt lat="55.986061" lon="8.136340">
|
|
<ele>2.318579</ele>
|
|
<time>2026-07-12T11:13:17.000Z</time>
|
|
</trkpt>
|
|
<trkpt lat="55.986103" lon="8.136318">
|
|
<ele>2.330754</ele>
|
|
<time>2026-07-12T11:13:18.000Z</time>
|
|
</trkpt>
|
|
<trkpt lat="55.986141" lon="8.136293">
|
|
<ele>2.342019</ele>
|
|
<time>2026-07-12T11:13:19.000Z</time>
|
|
</trkpt>
|
|
<trkpt lat="55.986183" lon="8.136266">
|
|
<ele>2.354435</ele>
|
|
<time>2026-07-12T11:13:20.000Z</time>
|
|
</trkpt>
|
|
<trkpt lat="55.986225" lon="8.136235">
|
|
<ele>2.367076</ele>
|
|
<time>2026-07-12T11:13:21.000Z</time>
|
|
</trkpt>
|
|
<trkpt lat="55.986267" lon="8.136207">
|
|
<ele>2.405765</ele>
|
|
<time>2026-07-12T11:13:22.000Z</time>
|
|
</trkpt>
|
|
<trkpt lat="55.986309" lon="8.136180">
|
|
<ele>2.462336</ele>
|
|
<time>2026-07-12T11:13:23.000Z</time>
|
|
</trkpt>
|
|
<trkpt lat="55.986347" lon="8.136155">
|
|
<ele>2.513658</ele>
|
|
<time>2026-07-12T11:13:24.000Z</time>
|
|
</trkpt>
|
|
<trkpt lat="55.986389" lon="8.136131">
|
|
<ele>2.569544</ele>
|
|
<time>2026-07-12T11:13:25.000Z</time>
|
|
</trkpt>
|
|
<trkpt lat="55.986427" lon="8.136108">
|
|
<ele>2.620394</ele>
|
|
<time>2026-07-12T11:13:26.000Z</time>
|
|
</trkpt>
|
|
<trkpt lat="55.986469" lon="8.136084">
|
|
<ele>2.676280</ele>
|
|
<time>2026-07-12T11:13:27.000Z</time>
|
|
</trkpt>
|
|
<trkpt lat="55.986511" lon="8.136059">
|
|
<ele>2.732387</ele>
|
|
<time>2026-07-12T11:13:28.000Z</time>
|
|
</trkpt>
|
|
<trkpt lat="55.986553" lon="8.136034">
|
|
<ele>2.788494</ele>
|
|
<time>2026-07-12T11:13:29.000Z</time>
|
|
</trkpt>
|
|
<trkpt lat="55.986591" lon="8.136009">
|
|
<ele>2.839815</ele>
|
|
<time>2026-07-12T11:13:30.000Z</time>
|
|
</trkpt>
|
|
<trkpt lat="55.986629" lon="8.135985">
|
|
<ele>2.890896</ele>
|
|
<time>2026-07-12T11:13:31.000Z</time>
|
|
</trkpt>
|
|
<trkpt lat="55.986668" lon="8.135962">
|
|
<ele>2.942948</ele>
|
|
<time>2026-07-12T11:13:32.000Z</time>
|
|
</trkpt>
|
|
<trkpt lat="55.986706" lon="8.135939">
|
|
<ele>2.993797</ele>
|
|
<time>2026-07-12T11:13:33.000Z</time>
|
|
</trkpt>
|
|
<trkpt lat="55.986744" lon="8.135916">
|
|
<ele>3.044646</ele>
|
|
<time>2026-07-12T11:13:34.000Z</time>
|
|
</trkpt>
|
|
<trkpt lat="55.986786" lon="8.135893">
|
|
<ele>3.100321</ele>
|
|
<time>2026-07-12T11:13:35.000Z</time>
|
|
</trkpt>
|
|
<trkpt lat="55.986824" lon="8.135868">
|
|
<ele>3.151642</ele>
|
|
<time>2026-07-12T11:13:36.000Z</time>
|
|
</trkpt>
|
|
<trkpt lat="55.986862" lon="8.135842">
|
|
<ele>3.203213</ele>
|
|
<time>2026-07-12T11:13:37.000Z</time>
|
|
</trkpt>
|
|
<trkpt lat="55.986900" lon="8.135818">
|
|
<ele>3.254294</ele>
|
|
<time>2026-07-12T11:13:38.000Z</time>
|
|
</trkpt>
|
|
<trkpt lat="55.986938" lon="8.135792">
|
|
<ele>3.305864</ele>
|
|
<time>2026-07-12T11:13:39.000Z</time>
|
|
</trkpt>
|
|
<trkpt lat="55.986980" lon="8.135766">
|
|
<ele>3.362199</ele>
|
|
<time>2026-07-12T11:13:40.000Z</time>
|
|
</trkpt>
|
|
<trkpt lat="55.987019" lon="8.135742">
|
|
<ele>3.414477</ele>
|
|
<time>2026-07-12T11:13:41.000Z</time>
|
|
</trkpt>
|
|
<trkpt lat="55.987061" lon="8.135718">
|
|
<ele>3.470364</ele>
|
|
<time>2026-07-12T11:13:42.000Z</time>
|
|
</trkpt>
|
|
<trkpt lat="55.987099" lon="8.135695">
|
|
<ele>3.521213</ele>
|
|
<time>2026-07-12T11:13:43.000Z</time>
|
|
</trkpt>
|
|
<trkpt lat="55.987137" lon="8.135670">
|
|
<ele>3.572534</ele>
|
|
<time>2026-07-12T11:13:44.000Z</time>
|
|
</trkpt>
|
|
<trkpt lat="55.987175" lon="8.135641">
|
|
<ele>3.624903</ele>
|
|
<time>2026-07-12T11:13:45.000Z</time>
|
|
</trkpt>
|
|
<trkpt lat="55.987213" lon="8.135614">
|
|
<ele>3.676731</ele>
|
|
<time>2026-07-12T11:13:46.000Z</time>
|
|
</trkpt>
|
|
<trkpt lat="55.987251" lon="8.135591">
|
|
<ele>3.727580</ele>
|
|
<time>2026-07-12T11:13:47.000Z</time>
|
|
</trkpt>
|
|
<trkpt lat="55.987289" lon="8.135570">
|
|
<ele>3.777992</ele>
|
|
<time>2026-07-12T11:13:48.000Z</time>
|
|
</trkpt>
|
|
<trkpt lat="55.987328" lon="8.135548">
|
|
<ele>3.829826</ele>
|
|
<time>2026-07-12T11:13:49.000Z</time>
|
|
</trkpt>
|
|
<trkpt lat="55.987370" lon="8.135524">
|
|
<ele>3.885712</ele>
|
|
<time>2026-07-12T11:13:50.000Z</time>
|
|
</trkpt>
|
|
<trkpt lat="55.987408" lon="8.135498">
|
|
<ele>3.937283</ele>
|
|
<time>2026-07-12T11:13:51.000Z</time>
|
|
</trkpt>
|
|
<trkpt lat="55.987446" lon="8.135473">
|
|
<ele>3.988604</ele>
|
|
<time>2026-07-12T11:13:52.000Z</time>
|
|
</trkpt>
|
|
<trkpt lat="55.987484" lon="8.135447">
|
|
<ele>4.040175</ele>
|
|
<time>2026-07-12T11:13:53.000Z</time>
|
|
</trkpt>
|
|
<trkpt lat="55.987522" lon="8.135421">
|
|
<ele>4.091745</ele>
|
|
<time>2026-07-12T11:13:54.000Z</time>
|
|
</trkpt>
|
|
<trkpt lat="55.987564" lon="8.135392">
|
|
<ele>4.148811</ele>
|
|
<time>2026-07-12T11:13:55.000Z</time>
|
|
</trkpt>
|
|
<trkpt lat="55.987602" lon="8.135363">
|
|
<ele>4.201180</ele>
|
|
<time>2026-07-12T11:13:56.000Z</time>
|
|
</trkpt>
|
|
<trkpt lat="55.987640" lon="8.135335">
|
|
<ele>4.253274</ele>
|
|
<time>2026-07-12T11:13:57.000Z</time>
|
|
</trkpt>
|
|
<trkpt lat="55.987679" lon="8.135308">
|
|
<ele>4.306282</ele>
|
|
<time>2026-07-12T11:13:58.000Z</time>
|
|
</trkpt>
|
|
<trkpt lat="55.987717" lon="8.135283">
|
|
<ele>4.357603</ele>
|
|
<time>2026-07-12T11:13:59.000Z</time>
|
|
</trkpt>
|
|
<trkpt lat="55.987755" lon="8.135255">
|
|
<ele>4.409697</ele>
|
|
<time>2026-07-12T11:14:00.000Z</time>
|
|
</trkpt>
|
|
<trkpt lat="55.987793" lon="8.135223">
|
|
<ele>4.462937</ele>
|
|
<time>2026-07-12T11:14:01.000Z</time>
|
|
</trkpt>
|
|
<trkpt lat="55.987835" lon="8.135187">
|
|
<ele>4.521973</ele>
|
|
<time>2026-07-12T11:14:02.000Z</time>
|
|
</trkpt>
|
|
<trkpt lat="55.987877" lon="8.135148">
|
|
<ele>4.581958</ele>
|
|
<time>2026-07-12T11:14:03.000Z</time>
|
|
</trkpt>
|
|
<trkpt lat="55.987923" lon="8.135108">
|
|
<ele>4.646793</ele>
|
|
<time>2026-07-12T11:14:04.000Z</time>
|
|
</trkpt>
|
|
<trkpt lat="55.987972" lon="8.135069">
|
|
<ele>4.680218</ele>
|
|
<time>2026-07-12T11:14:05.000Z</time>
|
|
</trkpt>
|
|
<trkpt lat="55.988026" lon="8.135032">
|
|
<ele>4.713241</ele>
|
|
<time>2026-07-12T11:14:06.000Z</time>
|
|
</trkpt>
|
|
<trkpt lat="55.988075" lon="8.134998">
|
|
<ele>4.743256</ele>
|
|
<time>2026-07-12T11:14:07.000Z</time>
|
|
</trkpt>
|
|
<trkpt lat="55.988125" lon="8.134964">
|
|
<ele>4.773804</ele>
|
|
<time>2026-07-12T11:14:08.000Z</time>
|
|
</trkpt>
|
|
<trkpt lat="55.988174" lon="8.134923">
|
|
<ele>4.804698</ele>
|
|
<time>2026-07-12T11:14:09.000Z</time>
|
|
</trkpt>
|
|
<trkpt lat="55.988220" lon="8.134882">
|
|
<ele>4.834050</ele>
|
|
<time>2026-07-12T11:14:10.000Z</time>
|
|
</trkpt>
|
|
<trkpt lat="55.988262" lon="8.134841">
|
|
<ele>4.861376</ele>
|
|
<time>2026-07-12T11:14:11.000Z</time>
|
|
</trkpt>
|
|
<trkpt lat="55.988308" lon="8.134802">
|
|
<ele>4.890448</ele>
|
|
<time>2026-07-12T11:14:12.000Z</time>
|
|
</trkpt>
|
|
<trkpt lat="55.988350" lon="8.134764">
|
|
<ele>4.917328</ele>
|
|
<time>2026-07-12T11:14:13.000Z</time>
|
|
</trkpt>
|
|
<trkpt lat="55.988392" lon="8.134726">
|
|
<ele>4.944209</ele>
|
|
<time>2026-07-12T11:14:14.000Z</time>
|
|
</trkpt>
|
|
<trkpt lat="55.988434" lon="8.134685">
|
|
<ele>4.971535</ele>
|
|
<time>2026-07-12T11:14:15.000Z</time>
|
|
</trkpt>
|
|
<trkpt lat="55.988476" lon="8.134644">
|
|
<ele>4.998861</ele>
|
|
<time>2026-07-12T11:14:16.000Z</time>
|
|
</trkpt>
|
|
<trkpt lat="55.988518" lon="8.134607">
|
|
<ele>5.025599</ele>
|
|
<time>2026-07-12T11:14:17.000Z</time>
|
|
</trkpt>
|
|
<trkpt lat="55.988560" lon="8.134568">
|
|
<ele>5.052625</ele>
|
|
<time>2026-07-12T11:14:18.000Z</time>
|
|
</trkpt>
|
|
<trkpt lat="55.988602" lon="8.134527">
|
|
<ele>5.079951</ele>
|
|
<time>2026-07-12T11:14:19.000Z</time>
|
|
</trkpt>
|
|
<trkpt lat="55.988644" lon="8.134486">
|
|
<ele>5.107278</ele>
|
|
<time>2026-07-12T11:14:20.000Z</time>
|
|
</trkpt>
|
|
<trkpt lat="55.988686" lon="8.134448">
|
|
<ele>5.134158</ele>
|
|
<time>2026-07-12T11:14:21.000Z</time>
|
|
</trkpt>
|
|
<trkpt lat="55.988724" lon="8.134411">
|
|
<ele>5.158867</ele>
|
|
<time>2026-07-12T11:14:22.000Z</time>
|
|
</trkpt>
|
|
<trkpt lat="55.988766" lon="8.134373">
|
|
<ele>5.185747</ele>
|
|
<time>2026-07-12T11:14:23.000Z</time>
|
|
</trkpt>
|
|
<trkpt lat="55.988804" lon="8.134336">
|
|
<ele>5.210457</ele>
|
|
<time>2026-07-12T11:14:24.000Z</time>
|
|
</trkpt>
|
|
<trkpt lat="55.988846" lon="8.134299">
|
|
<ele>5.237194</ele>
|
|
<time>2026-07-12T11:14:25.000Z</time>
|
|
</trkpt>
|
|
<trkpt lat="55.988884" lon="8.134261">
|
|
<ele>5.262058</ele>
|
|
<time>2026-07-12T11:14:26.000Z</time>
|
|
</trkpt>
|
|
<trkpt lat="55.988922" lon="8.134224">
|
|
<ele>5.286767</ele>
|
|
<time>2026-07-12T11:14:27.000Z</time>
|
|
</trkpt>
|
|
<trkpt lat="55.988960" lon="8.134186">
|
|
<ele>5.311630</ele>
|
|
<time>2026-07-12T11:14:28.000Z</time>
|
|
</trkpt>
|
|
<trkpt lat="55.989002" lon="8.134147">
|
|
<ele>5.338656</ele>
|
|
<time>2026-07-12T11:14:29.000Z</time>
|
|
</trkpt>
|
|
<trkpt lat="55.989044" lon="8.134110">
|
|
<ele>5.365394</ele>
|
|
<time>2026-07-12T11:14:30.000Z</time>
|
|
</trkpt>
|
|
<trkpt lat="55.989082" lon="8.134074">
|
|
<ele>5.389952</ele>
|
|
<time>2026-07-12T11:14:31.000Z</time>
|
|
</trkpt>
|
|
<trkpt lat="55.989120" lon="8.134039">
|
|
<ele>5.414362</ele>
|
|
<time>2026-07-12T11:14:32.000Z</time>
|
|
</trkpt>
|
|
<trkpt lat="55.989162" lon="8.134004">
|
|
<ele>5.440823</ele>
|
|
<time>2026-07-12T11:14:33.000Z</time>
|
|
</trkpt>
|
|
<trkpt lat="55.989201" lon="8.133966">
|
|
<ele>5.466187</ele>
|
|
<time>2026-07-12T11:14:34.000Z</time>
|
|
</trkpt>
|
|
<trkpt lat="55.989243" lon="8.133926">
|
|
<ele>5.493361</ele>
|
|
<time>2026-07-12T11:14:35.000Z</time>
|
|
</trkpt>
|
|
<trkpt lat="55.989281" lon="8.133888">
|
|
<ele>5.518225</ele>
|
|
<time>2026-07-12T11:14:36.000Z</time>
|
|
</trkpt>
|
|
<trkpt lat="55.989319" lon="8.133851">
|
|
<ele>5.542934</ele>
|
|
<time>2026-07-12T11:14:37.000Z</time>
|
|
</trkpt>
|
|
<trkpt lat="55.989361" lon="8.133814">
|
|
<ele>5.569671</ele>
|
|
<time>2026-07-12T11:14:38.000Z</time>
|
|
</trkpt>
|
|
<trkpt lat="55.989399" lon="8.133778">
|
|
<ele>5.594229</ele>
|
|
<time>2026-07-12T11:14:39.000Z</time>
|
|
</trkpt>
|
|
<trkpt lat="55.989441" lon="8.133741">
|
|
<ele>5.620967</ele>
|
|
<time>2026-07-12T11:14:40.000Z</time>
|
|
</trkpt>
|
|
<trkpt lat="55.989479" lon="8.133704">
|
|
<ele>5.645676</ele>
|
|
<time>2026-07-12T11:14:41.000Z</time>
|
|
</trkpt>
|
|
<trkpt lat="55.989521" lon="8.133666">
|
|
<ele>5.672556</ele>
|
|
<time>2026-07-12T11:14:42.000Z</time>
|
|
</trkpt>
|
|
<trkpt lat="55.989559" lon="8.133628">
|
|
<ele>5.691256</ele>
|
|
<time>2026-07-12T11:14:43.000Z</time>
|
|
</trkpt>
|
|
<trkpt lat="55.989601" lon="8.133590">
|
|
<ele>5.709150</ele>
|
|
<time>2026-07-12T11:14:44.000Z</time>
|
|
</trkpt>
|
|
<trkpt lat="55.989639" lon="8.133551">
|
|
<ele>5.725807</ele>
|
|
<time>2026-07-12T11:14:45.000Z</time>
|
|
</trkpt>
|
|
<trkpt lat="55.989681" lon="8.133514">
|
|
<ele>5.743606</ele>
|
|
<time>2026-07-12T11:14:46.000Z</time>
|
|
</trkpt>
|
|
<trkpt lat="55.989723" lon="8.133477">
|
|
<ele>5.761405</ele>
|
|
<time>2026-07-12T11:14:47.000Z</time>
|
|
</trkpt>
|
|
<trkpt lat="55.989765" lon="8.133440">
|
|
<ele>5.779204</ele>
|
|
<time>2026-07-12T11:14:48.000Z</time>
|
|
</trkpt>
|
|
<trkpt lat="55.989807" lon="8.133404">
|
|
<ele>5.796910</ele>
|
|
<time>2026-07-12T11:14:49.000Z</time>
|
|
</trkpt>
|
|
<trkpt lat="55.989845" lon="8.133367">
|
|
<ele>5.813359</ele>
|
|
<time>2026-07-12T11:14:50.000Z</time>
|
|
</trkpt>
|
|
<trkpt lat="55.989887" lon="8.133328">
|
|
<ele>5.831351</ele>
|
|
<time>2026-07-12T11:14:51.000Z</time>
|
|
</trkpt>
|
|
<trkpt lat="55.989929" lon="8.133289">
|
|
<ele>5.849342</ele>
|
|
<time>2026-07-12T11:14:52.000Z</time>
|
|
</trkpt>
|
|
<trkpt lat="55.989967" lon="8.133252">
|
|
<ele>5.865791</ele>
|
|
<time>2026-07-12T11:14:53.000Z</time>
|
|
</trkpt>
|
|
<trkpt lat="55.990009" lon="8.133213">
|
|
<ele>5.883782</ele>
|
|
<time>2026-07-12T11:14:54.000Z</time>
|
|
</trkpt>
|
|
<trkpt lat="55.990051" lon="8.133174">
|
|
<ele>5.901773</ele>
|
|
<time>2026-07-12T11:14:55.000Z</time>
|
|
</trkpt>
|
|
<trkpt lat="55.990093" lon="8.133134">
|
|
<ele>5.919863</ele>
|
|
<time>2026-07-12T11:14:56.000Z</time>
|
|
</trkpt>
|
|
<trkpt lat="55.990135" lon="8.133094">
|
|
<ele>5.937953</ele>
|
|
<time>2026-07-12T11:14:57.000Z</time>
|
|
</trkpt>
|
|
<trkpt lat="55.990177" lon="8.133056">
|
|
<ele>5.955848</ele>
|
|
<time>2026-07-12T11:14:58.000Z</time>
|
|
</trkpt>
|
|
<trkpt lat="55.990219" lon="8.133017">
|
|
<ele>5.973839</ele>
|
|
<time>2026-07-12T11:14:59.000Z</time>
|
|
</trkpt>
|
|
<trkpt lat="55.990257" lon="8.132978">
|
|
<ele>5.990495</ele>
|
|
<time>2026-07-12T11:15:00.000Z</time>
|
|
</trkpt>
|
|
<trkpt lat="55.990299" lon="8.132940">
|
|
<ele>6.008389</ele>
|
|
<time>2026-07-12T11:15:01.000Z</time>
|
|
</trkpt>
|
|
<trkpt lat="55.990341" lon="8.132900">
|
|
<ele>6.026480</ele>
|
|
<time>2026-07-12T11:15:02.000Z</time>
|
|
</trkpt>
|
|
<trkpt lat="55.990383" lon="8.132862">
|
|
<ele>6.044374</ele>
|
|
<time>2026-07-12T11:15:03.000Z</time>
|
|
</trkpt>
|
|
<trkpt lat="55.990425" lon="8.132824">
|
|
<ele>6.062268</ele>
|
|
<time>2026-07-12T11:15:04.000Z</time>
|
|
</trkpt>
|
|
<trkpt lat="55.990467" lon="8.132785">
|
|
<ele>6.080259</ele>
|
|
<time>2026-07-12T11:15:05.000Z</time>
|
|
</trkpt>
|
|
<trkpt lat="55.990505" lon="8.132744">
|
|
<ele>6.097131</ele>
|
|
<time>2026-07-12T11:15:06.000Z</time>
|
|
</trkpt>
|
|
<trkpt lat="55.990547" lon="8.132704">
|
|
<ele>6.115221</ele>
|
|
<time>2026-07-12T11:15:07.000Z</time>
|
|
</trkpt>
|
|
<trkpt lat="55.990589" lon="8.132665">
|
|
<ele>6.133212</ele>
|
|
<time>2026-07-12T11:15:08.000Z</time>
|
|
</trkpt>
|
|
<trkpt lat="55.990631" lon="8.132626">
|
|
<ele>6.151204</ele>
|
|
<time>2026-07-12T11:15:09.000Z</time>
|
|
</trkpt>
|
|
<trkpt lat="55.990669" lon="8.132586">
|
|
<ele>6.167967</ele>
|
|
<time>2026-07-12T11:15:10.000Z</time>
|
|
</trkpt>
|
|
<trkpt lat="55.990711" lon="8.132545">
|
|
<ele>6.186158</ele>
|
|
<time>2026-07-12T11:15:11.000Z</time>
|
|
</trkpt>
|
|
<trkpt lat="55.990753" lon="8.132507">
|
|
<ele>6.204052</ele>
|
|
<time>2026-07-12T11:15:12.000Z</time>
|
|
</trkpt>
|
|
<trkpt lat="55.990795" lon="8.132469">
|
|
<ele>6.221946</ele>
|
|
<time>2026-07-12T11:15:13.000Z</time>
|
|
</trkpt>
|
|
<trkpt lat="55.990833" lon="8.132432">
|
|
<ele>6.238395</ele>
|
|
<time>2026-07-12T11:15:14.000Z</time>
|
|
</trkpt>
|
|
<trkpt lat="55.990875" lon="8.132396">
|
|
<ele>6.256101</ele>
|
|
<time>2026-07-12T11:15:15.000Z</time>
|
|
</trkpt>
|
|
<trkpt lat="55.990917" lon="8.132359">
|
|
<ele>6.273900</ele>
|
|
<time>2026-07-12T11:15:16.000Z</time>
|
|
</trkpt>
|
|
<trkpt lat="55.990959" lon="8.132322">
|
|
<ele>6.291699</ele>
|
|
<time>2026-07-12T11:15:17.000Z</time>
|
|
</trkpt>
|
|
<trkpt lat="55.990997" lon="8.132284">
|
|
<ele>6.308251</ele>
|
|
<time>2026-07-12T11:15:18.000Z</time>
|
|
</trkpt>
|
|
<trkpt lat="55.991039" lon="8.132247">
|
|
<ele>6.326050</ele>
|
|
<time>2026-07-12T11:15:19.000Z</time>
|
|
</trkpt>
|
|
<trkpt lat="55.991081" lon="8.132208">
|
|
<ele>6.344041</ele>
|
|
<time>2026-07-12T11:15:20.000Z</time>
|
|
</trkpt>
|
|
<trkpt lat="55.991119" lon="8.132168">
|
|
<ele>6.360804</ele>
|
|
<time>2026-07-12T11:15:21.000Z</time>
|
|
</trkpt>
|
|
<trkpt lat="55.991161" lon="8.132130">
|
|
<ele>6.371135</ele>
|
|
<time>2026-07-12T11:15:22.000Z</time>
|
|
</trkpt>
|
|
<trkpt lat="55.991203" lon="8.132093">
|
|
<ele>6.380505</ele>
|
|
<time>2026-07-12T11:15:23.000Z</time>
|
|
</trkpt>
|
|
<trkpt lat="55.991241" lon="8.132058">
|
|
<ele>6.389059</ele>
|
|
<time>2026-07-12T11:15:24.000Z</time>
|
|
</trkpt>
|
|
<trkpt lat="55.991283" lon="8.132023">
|
|
<ele>6.398332</ele>
|
|
<time>2026-07-12T11:15:25.000Z</time>
|
|
</trkpt>
|
|
<trkpt lat="55.991322" lon="8.131987">
|
|
<ele>6.407115</ele>
|
|
<time>2026-07-12T11:15:26.000Z</time>
|
|
</trkpt>
|
|
<trkpt lat="55.991364" lon="8.131949">
|
|
<ele>6.416535</ele>
|
|
<time>2026-07-12T11:15:27.000Z</time>
|
|
</trkpt>
|
|
<trkpt lat="55.991402" lon="8.131912">
|
|
<ele>6.425194</ele>
|
|
<time>2026-07-12T11:15:28.000Z</time>
|
|
</trkpt>
|
|
<trkpt lat="55.991444" lon="8.131873">
|
|
<ele>6.434665</ele>
|
|
<time>2026-07-12T11:15:29.000Z</time>
|
|
</trkpt>
|
|
<trkpt lat="55.991482" lon="8.131835">
|
|
<ele>6.443378</ele>
|
|
<time>2026-07-12T11:15:30.000Z</time>
|
|
</trkpt>
|
|
<trkpt lat="55.991520" lon="8.131800">
|
|
<ele>6.451932</ele>
|
|
<time>2026-07-12T11:15:31.000Z</time>
|
|
</trkpt>
|
|
<trkpt lat="55.991562" lon="8.131763">
|
|
<ele>6.461302</ele>
|
|
<time>2026-07-12T11:15:32.000Z</time>
|
|
</trkpt>
|
|
<trkpt lat="55.991604" lon="8.131728">
|
|
<ele>6.470575</ele>
|
|
<time>2026-07-12T11:15:33.000Z</time>
|
|
</trkpt>
|
|
<trkpt lat="55.991642" lon="8.131692">
|
|
<ele>6.479181</ele>
|
|
<time>2026-07-12T11:15:34.000Z</time>
|
|
</trkpt>
|
|
<trkpt lat="55.991684" lon="8.131654">
|
|
<ele>6.488600</ele>
|
|
<time>2026-07-12T11:15:35.000Z</time>
|
|
</trkpt>
|
|
<trkpt lat="55.991726" lon="8.131615">
|
|
<ele>6.498071</ele>
|
|
<time>2026-07-12T11:15:36.000Z</time>
|
|
</trkpt>
|
|
<trkpt lat="55.991764" lon="8.131575">
|
|
<ele>6.506896</ele>
|
|
<time>2026-07-12T11:15:37.000Z</time>
|
|
</trkpt>
|
|
<trkpt lat="55.991806" lon="8.131536">
|
|
<ele>6.516366</ele>
|
|
<time>2026-07-12T11:15:38.000Z</time>
|
|
</trkpt>
|
|
<trkpt lat="55.991844" lon="8.131499">
|
|
<ele>6.525025</ele>
|
|
<time>2026-07-12T11:15:39.000Z</time>
|
|
</trkpt>
|
|
<trkpt lat="55.991886" lon="8.131464">
|
|
<ele>6.534298</ele>
|
|
<time>2026-07-12T11:15:40.000Z</time>
|
|
</trkpt>
|
|
<trkpt lat="55.991928" lon="8.131428">
|
|
<ele>6.543619</ele>
|
|
<time>2026-07-12T11:15:41.000Z</time>
|
|
</trkpt>
|
|
<trkpt lat="55.991966" lon="8.131391">
|
|
<ele>6.552278</ele>
|
|
<time>2026-07-12T11:15:42.000Z</time>
|
|
</trkpt>
|
|
<trkpt lat="55.992008" lon="8.131352">
|
|
<ele>6.561749</ele>
|
|
<time>2026-07-12T11:15:43.000Z</time>
|
|
</trkpt>
|
|
<trkpt lat="55.992046" lon="8.131315">
|
|
<ele>6.570408</ele>
|
|
<time>2026-07-12T11:15:44.000Z</time>
|
|
</trkpt>
|
|
<trkpt lat="55.992084" lon="8.131279">
|
|
<ele>6.579014</ele>
|
|
<time>2026-07-12T11:15:45.000Z</time>
|
|
</trkpt>
|
|
<trkpt lat="55.992123" lon="8.131242">
|
|
<ele>6.587849</ele>
|
|
<time>2026-07-12T11:15:46.000Z</time>
|
|
</trkpt>
|
|
<trkpt lat="55.992161" lon="8.131207">
|
|
<ele>6.596403</ele>
|
|
<time>2026-07-12T11:15:47.000Z</time>
|
|
</trkpt>
|
|
<trkpt lat="55.992203" lon="8.131175">
|
|
<ele>6.605539</ele>
|
|
<time>2026-07-12T11:15:48.000Z</time>
|
|
</trkpt>
|
|
<trkpt lat="55.992241" lon="8.131141">
|
|
<ele>6.614043</ele>
|
|
<time>2026-07-12T11:15:49.000Z</time>
|
|
</trkpt>
|
|
<trkpt lat="55.992283" lon="8.131105">
|
|
<ele>6.623363</ele>
|
|
<time>2026-07-12T11:15:50.000Z</time>
|
|
</trkpt>
|
|
<trkpt lat="55.992325" lon="8.131067">
|
|
<ele>6.632783</ele>
|
|
<time>2026-07-12T11:15:51.000Z</time>
|
|
</trkpt>
|
|
<trkpt lat="55.992363" lon="8.131031">
|
|
<ele>6.641389</ele>
|
|
<time>2026-07-12T11:15:52.000Z</time>
|
|
</trkpt>
|
|
<trkpt lat="55.992401" lon="8.130994">
|
|
<ele>6.650048</ele>
|
|
<time>2026-07-12T11:15:53.000Z</time>
|
|
</trkpt>
|
|
<trkpt lat="55.992443" lon="8.130955">
|
|
<ele>6.659519</ele>
|
|
<time>2026-07-12T11:15:54.000Z</time>
|
|
</trkpt>
|
|
<trkpt lat="55.992485" lon="8.130918">
|
|
<ele>6.668889</ele>
|
|
<time>2026-07-12T11:15:55.000Z</time>
|
|
</trkpt>
|
|
<trkpt lat="55.992527" lon="8.130881">
|
|
<ele>6.678258</ele>
|
|
<time>2026-07-12T11:15:56.000Z</time>
|
|
</trkpt>
|
|
<trkpt lat="55.992569" lon="8.130842">
|
|
<ele>6.687729</ele>
|
|
<time>2026-07-12T11:15:57.000Z</time>
|
|
</trkpt>
|
|
<trkpt lat="55.992611" lon="8.130802">
|
|
<ele>6.697252</ele>
|
|
<time>2026-07-12T11:15:58.000Z</time>
|
|
</trkpt>
|
|
<trkpt lat="55.992649" lon="8.130764">
|
|
<ele>6.705965</ele>
|
|
<time>2026-07-12T11:15:59.000Z</time>
|
|
</trkpt>
|
|
<trkpt lat="55.992691" lon="8.130726">
|
|
<ele>6.715385</ele>
|
|
<time>2026-07-12T11:16:00.000Z</time>
|
|
</trkpt>
|
|
<trkpt lat="55.992733" lon="8.130688">
|
|
<ele>6.706668</ele>
|
|
<time>2026-07-12T11:16:01.000Z</time>
|
|
</trkpt>
|
|
<trkpt lat="55.992775" lon="8.130650">
|
|
<ele>6.636252</ele>
|
|
<time>2026-07-12T11:16:02.000Z</time>
|
|
</trkpt>
|
|
<trkpt lat="55.992813" lon="8.130611">
|
|
<ele>6.570707</ele>
|
|
<time>2026-07-12T11:16:03.000Z</time>
|
|
</trkpt>
|
|
<trkpt lat="55.992851" lon="8.130576">
|
|
<ele>6.506761</ele>
|
|
<time>2026-07-12T11:16:04.000Z</time>
|
|
</trkpt>
|
|
<trkpt lat="55.992889" lon="8.130540">
|
|
<ele>6.442429</ele>
|
|
<time>2026-07-12T11:16:05.000Z</time>
|
|
</trkpt>
|
|
<trkpt lat="55.992928" lon="8.130505">
|
|
<ele>6.377150</ele>
|
|
<time>2026-07-12T11:16:06.000Z</time>
|
|
</trkpt>
|
|
<trkpt lat="55.992966" lon="8.130470">
|
|
<ele>6.313205</ele>
|
|
<time>2026-07-12T11:16:07.000Z</time>
|
|
</trkpt>
|
|
<trkpt lat="55.993000" lon="8.130436">
|
|
<ele>6.254928</ele>
|
|
<time>2026-07-12T11:16:08.000Z</time>
|
|
</trkpt>
|
|
<trkpt lat="55.993038" lon="8.130400">
|
|
<ele>6.190596</ele>
|
|
<time>2026-07-12T11:16:09.000Z</time>
|
|
</trkpt>
|
|
<trkpt lat="55.993073" lon="8.130364">
|
|
<ele>6.130192</ele>
|
|
<time>2026-07-12T11:16:10.000Z</time>
|
|
</trkpt>
|
|
<trkpt lat="55.993111" lon="8.130328">
|
|
<ele>6.065860</ele>
|
|
<time>2026-07-12T11:16:11.000Z</time>
|
|
</trkpt>
|
|
<trkpt lat="55.993149" lon="8.130294">
|
|
<ele>6.002294</ele>
|
|
<time>2026-07-12T11:16:12.000Z</time>
|
|
</trkpt>
|
|
<trkpt lat="55.993183" lon="8.130259">
|
|
<ele>5.943604</ele>
|
|
<time>2026-07-12T11:16:13.000Z</time>
|
|
</trkpt>
|
|
<trkpt lat="55.993221" lon="8.130226">
|
|
<ele>5.880408</ele>
|
|
<time>2026-07-12T11:16:14.000Z</time>
|
|
</trkpt>
|
|
<trkpt lat="55.993256" lon="8.130194">
|
|
<ele>5.821601</ele>
|
|
<time>2026-07-12T11:16:15.000Z</time>
|
|
</trkpt>
|
|
<trkpt lat="55.993294" lon="8.130160">
|
|
<ele>5.758035</ele>
|
|
<time>2026-07-12T11:16:16.000Z</time>
|
|
</trkpt>
|
|
<trkpt lat="55.993328" lon="8.130126">
|
|
<ele>5.699759</ele>
|
|
<time>2026-07-12T11:16:17.000Z</time>
|
|
</trkpt>
|
|
<trkpt lat="55.993362" lon="8.130091">
|
|
<ele>5.641069</ele>
|
|
<time>2026-07-12T11:16:18.000Z</time>
|
|
</trkpt>
|
|
<trkpt lat="55.993401" lon="8.130055">
|
|
<ele>5.575411</ele>
|
|
<time>2026-07-12T11:16:19.000Z</time>
|
|
</trkpt>
|
|
<trkpt lat="55.993435" lon="8.130020">
|
|
<ele>5.516722</ele>
|
|
<time>2026-07-12T11:16:20.000Z</time>
|
|
</trkpt>
|
|
<trkpt lat="55.993473" lon="8.129987">
|
|
<ele>5.453525</ele>
|
|
<time>2026-07-12T11:16:21.000Z</time>
|
|
</trkpt>
|
|
<trkpt lat="55.993507" lon="8.129951">
|
|
<ele>5.394414</ele>
|
|
<time>2026-07-12T11:16:22.000Z</time>
|
|
</trkpt>
|
|
<trkpt lat="55.993542" lon="8.129917">
|
|
<ele>5.334827</ele>
|
|
<time>2026-07-12T11:16:23.000Z</time>
|
|
</trkpt>
|
|
<trkpt lat="55.993576" lon="8.129885">
|
|
<ele>5.277349</ele>
|
|
<time>2026-07-12T11:16:24.000Z</time>
|
|
</trkpt>
|
|
<trkpt lat="55.993610" lon="8.129853">
|
|
<ele>5.219871</ele>
|
|
<time>2026-07-12T11:16:25.000Z</time>
|
|
</trkpt>
|
|
<trkpt lat="55.993641" lon="8.129823">
|
|
<ele>5.167140</ele>
|
|
<time>2026-07-12T11:16:26.000Z</time>
|
|
</trkpt>
|
|
<trkpt lat="55.993675" lon="8.129793">
|
|
<ele>5.110422</ele>
|
|
<time>2026-07-12T11:16:27.000Z</time>
|
|
</trkpt>
|
|
<trkpt lat="55.993706" lon="8.129764">
|
|
<ele>5.058084</ele>
|
|
<time>2026-07-12T11:16:28.000Z</time>
|
|
</trkpt>
|
|
<trkpt lat="55.993732" lon="8.129735">
|
|
<ele>5.012242</ele>
|
|
<time>2026-07-12T11:16:29.000Z</time>
|
|
</trkpt>
|
|
<trkpt lat="55.993759" lon="8.129709">
|
|
<ele>4.966366</ele>
|
|
<time>2026-07-12T11:16:30.000Z</time>
|
|
</trkpt>
|
|
<trkpt lat="55.993790" lon="8.129684">
|
|
<ele>4.915493</ele>
|
|
<time>2026-07-12T11:16:31.000Z</time>
|
|
</trkpt>
|
|
<trkpt lat="55.993816" lon="8.129660">
|
|
<ele>4.871721</ele>
|
|
<time>2026-07-12T11:16:32.000Z</time>
|
|
</trkpt>
|
|
<trkpt lat="55.993847" lon="8.129636">
|
|
<ele>4.821186</ele>
|
|
<time>2026-07-12T11:16:33.000Z</time>
|
|
</trkpt>
|
|
<trkpt lat="55.993874" lon="8.129615">
|
|
<ele>4.777140</ele>
|
|
<time>2026-07-12T11:16:34.000Z</time>
|
|
</trkpt>
|
|
<trkpt lat="55.993900" lon="8.129594">
|
|
<ele>4.734461</ele>
|
|
<time>2026-07-12T11:16:35.000Z</time>
|
|
</trkpt>
|
|
<trkpt lat="55.993923" lon="8.129571">
|
|
<ele>4.695039</ele>
|
|
<time>2026-07-12T11:16:36.000Z</time>
|
|
</trkpt>
|
|
<trkpt lat="55.993946" lon="8.129549">
|
|
<ele>4.656018</ele>
|
|
<time>2026-07-12T11:16:37.000Z</time>
|
|
</trkpt>
|
|
<trkpt lat="55.993969" lon="8.129528">
|
|
<ele>4.617385</ele>
|
|
<time>2026-07-12T11:16:38.000Z</time>
|
|
</trkpt>
|
|
<trkpt lat="55.993992" lon="8.129507">
|
|
<ele>4.578752</ele>
|
|
<time>2026-07-12T11:16:39.000Z</time>
|
|
</trkpt>
|
|
<trkpt lat="55.994015" lon="8.129486">
|
|
<ele>4.540119</ele>
|
|
<time>2026-07-12T11:16:40.000Z</time>
|
|
</trkpt>
|
|
<trkpt lat="55.994038" lon="8.129466">
|
|
<ele>4.501859</ele>
|
|
<time>2026-07-12T11:16:41.000Z</time>
|
|
</trkpt>
|
|
<trkpt lat="55.994057" lon="8.129448">
|
|
<ele>4.469693</ele>
|
|
<time>2026-07-12T11:16:42.000Z</time>
|
|
</trkpt>
|
|
<trkpt lat="55.994080" lon="8.129430">
|
|
<ele>4.432135</ele>
|
|
<time>2026-07-12T11:16:43.000Z</time>
|
|
</trkpt>
|
|
<trkpt lat="55.994103" lon="8.129411">
|
|
<ele>4.394233</ele>
|
|
<time>2026-07-12T11:16:44.000Z</time>
|
|
</trkpt>
|
|
<trkpt lat="55.994122" lon="8.129391">
|
|
<ele>4.361251</ele>
|
|
<time>2026-07-12T11:16:45.000Z</time>
|
|
</trkpt>
|
|
<trkpt lat="55.994144" lon="8.129371">
|
|
<ele>4.324330</ele>
|
|
<time>2026-07-12T11:16:46.000Z</time>
|
|
</trkpt>
|
|
<trkpt lat="55.994167" lon="8.129350">
|
|
<ele>4.285697</ele>
|
|
<time>2026-07-12T11:16:47.000Z</time>
|
|
</trkpt>
|
|
<trkpt lat="55.994190" lon="8.129328">
|
|
<ele>4.246677</ele>
|
|
<time>2026-07-12T11:16:48.000Z</time>
|
|
</trkpt>
|
|
<trkpt lat="55.994209" lon="8.129306">
|
|
<ele>4.212815</ele>
|
|
<time>2026-07-12T11:16:49.000Z</time>
|
|
</trkpt>
|
|
<trkpt lat="55.994228" lon="8.129285">
|
|
<ele>4.179400</ele>
|
|
<time>2026-07-12T11:16:50.000Z</time>
|
|
</trkpt>
|
|
<trkpt lat="55.994247" lon="8.129265">
|
|
<ele>4.146417</ele>
|
|
<time>2026-07-12T11:16:51.000Z</time>
|
|
</trkpt>
|
|
<trkpt lat="55.994267" lon="8.129246">
|
|
<ele>4.112537</ele>
|
|
<time>2026-07-12T11:16:52.000Z</time>
|
|
</trkpt>
|
|
<trkpt lat="55.994286" lon="8.129225">
|
|
<ele>4.079123</ele>
|
|
<time>2026-07-12T11:16:53.000Z</time>
|
|
</trkpt>
|
|
<trkpt lat="55.994308" lon="8.129204">
|
|
<ele>4.041816</ele>
|
|
<time>2026-07-12T11:16:54.000Z</time>
|
|
</trkpt>
|
|
<trkpt lat="55.994328" lon="8.129186">
|
|
<ele>4.019301</ele>
|
|
<time>2026-07-12T11:16:55.000Z</time>
|
|
</trkpt>
|
|
<trkpt lat="55.994347" lon="8.129168">
|
|
<ele>4.002053</ele>
|
|
<time>2026-07-12T11:16:56.000Z</time>
|
|
</trkpt>
|
|
<trkpt lat="55.994366" lon="8.129148">
|
|
<ele>3.984367</ele>
|
|
<time>2026-07-12T11:16:57.000Z</time>
|
|
</trkpt>
|
|
<trkpt lat="55.994385" lon="8.129127">
|
|
<ele>3.966449</ele>
|
|
<time>2026-07-12T11:16:58.000Z</time>
|
|
</trkpt>
|
|
<trkpt lat="55.994400" lon="8.129103">
|
|
<ele>3.950303</ele>
|
|
<time>2026-07-12T11:16:59.000Z</time>
|
|
</trkpt>
|
|
<trkpt lat="55.994415" lon="8.129081">
|
|
<ele>3.934740</ele>
|
|
<time>2026-07-12T11:17:00.000Z</time>
|
|
</trkpt>
|
|
<trkpt lat="55.994427" lon="8.129065">
|
|
<ele>3.922733</ele>
|
|
<time>2026-07-12T11:17:01.000Z</time>
|
|
</trkpt>
|
|
<trkpt lat="55.994450" lon="8.129065">
|
|
<ele>3.904283</ele>
|
|
<time>2026-07-12T11:17:08.000Z</time>
|
|
</trkpt>
|
|
<trkpt lat="55.994461" lon="8.129073">
|
|
<ele>3.894758</ele>
|
|
<time>2026-07-12T11:17:09.000Z</time>
|
|
</trkpt>
|
|
<trkpt lat="55.994480" lon="8.129085">
|
|
<ele>3.878594</ele>
|
|
<time>2026-07-12T11:17:10.000Z</time>
|
|
</trkpt>
|
|
<trkpt lat="55.994499" lon="8.129101">
|
|
<ele>3.861747</ele>
|
|
<time>2026-07-12T11:17:11.000Z</time>
|
|
</trkpt>
|
|
<trkpt lat="55.994522" lon="8.129114">
|
|
<ele>3.842398</ele>
|
|
<time>2026-07-12T11:17:12.000Z</time>
|
|
</trkpt>
|
|
<trkpt lat="55.994545" lon="8.129119">
|
|
<ele>3.823812</ele>
|
|
<time>2026-07-12T11:17:13.000Z</time>
|
|
</trkpt>
|
|
<trkpt lat="55.994568" lon="8.129109">
|
|
<ele>3.804825</ele>
|
|
<time>2026-07-12T11:17:14.000Z</time>
|
|
</trkpt>
|
|
<trkpt lat="55.994591" lon="8.129088">
|
|
<ele>3.784109</ele>
|
|
<time>2026-07-12T11:17:15.000Z</time>
|
|
</trkpt>
|
|
<trkpt lat="55.994621" lon="8.129061">
|
|
<ele>3.757168</ele>
|
|
<time>2026-07-12T11:17:16.000Z</time>
|
|
</trkpt>
|
|
<trkpt lat="55.994652" lon="8.129030">
|
|
<ele>3.728677</ele>
|
|
<time>2026-07-12T11:17:17.000Z</time>
|
|
</trkpt>
|
|
<trkpt lat="55.994682" lon="8.129000">
|
|
<ele>3.701104</ele>
|
|
<time>2026-07-12T11:17:18.000Z</time>
|
|
</trkpt>
|
|
<trkpt lat="55.994717" lon="8.128966">
|
|
<ele>3.669153</ele>
|
|
<time>2026-07-12T11:17:19.000Z</time>
|
|
</trkpt>
|
|
<trkpt lat="55.994747" lon="8.128928">
|
|
<ele>3.639662</ele>
|
|
<time>2026-07-12T11:17:20.000Z</time>
|
|
</trkpt>
|
|
<trkpt lat="55.994782" lon="8.128885">
|
|
<ele>3.605598</ele>
|
|
<time>2026-07-12T11:17:21.000Z</time>
|
|
</trkpt>
|
|
<trkpt lat="55.994816" lon="8.128843">
|
|
<ele>3.572449</ele>
|
|
<time>2026-07-12T11:17:22.000Z</time>
|
|
</trkpt>
|
|
<trkpt lat="55.994850" lon="8.128802">
|
|
<ele>3.539553</ele>
|
|
<time>2026-07-12T11:17:23.000Z</time>
|
|
</trkpt>
|
|
<trkpt lat="55.994884" lon="8.128763">
|
|
<ele>3.507150</ele>
|
|
<time>2026-07-12T11:17:24.000Z</time>
|
|
</trkpt>
|
|
<trkpt lat="55.994923" lon="8.128725">
|
|
<ele>3.471523</ele>
|
|
<time>2026-07-12T11:17:25.000Z</time>
|
|
</trkpt>
|
|
<trkpt lat="55.994957" lon="8.128684">
|
|
<ele>3.438627</ele>
|
|
<time>2026-07-12T11:17:26.000Z</time>
|
|
</trkpt>
|
|
<trkpt lat="55.994995" lon="8.128642">
|
|
<ele>3.402792</ele>
|
|
<time>2026-07-12T11:17:27.000Z</time>
|
|
</trkpt>
|
|
<trkpt lat="55.995033" lon="8.128602">
|
|
<ele>3.367420</ele>
|
|
<time>2026-07-12T11:17:28.000Z</time>
|
|
</trkpt>
|
|
<trkpt lat="55.995075" lon="8.128563">
|
|
<ele>3.329457</ele>
|
|
<time>2026-07-12T11:17:29.000Z</time>
|
|
</trkpt>
|
|
<trkpt lat="55.995113" lon="8.128524">
|
|
<ele>3.294311</ele>
|
|
<time>2026-07-12T11:17:30.000Z</time>
|
|
</trkpt>
|
|
<trkpt lat="55.995152" lon="8.128485">
|
|
<ele>3.258467</ele>
|
|
<time>2026-07-12T11:17:31.000Z</time>
|
|
</trkpt>
|
|
<trkpt lat="55.995190" lon="8.128445">
|
|
<ele>3.223095</ele>
|
|
<time>2026-07-12T11:17:32.000Z</time>
|
|
</trkpt>
|
|
<trkpt lat="55.995232" lon="8.128403">
|
|
<ele>3.184494</ele>
|
|
<time>2026-07-12T11:17:33.000Z</time>
|
|
</trkpt>
|
|
<trkpt lat="55.995270" lon="8.128360">
|
|
<ele>3.148421</ele>
|
|
<time>2026-07-12T11:17:34.000Z</time>
|
|
</trkpt>
|
|
<trkpt lat="55.995312" lon="8.128318">
|
|
<ele>3.109820</ele>
|
|
<time>2026-07-12T11:17:35.000Z</time>
|
|
</trkpt>
|
|
<trkpt lat="55.995354" lon="8.128276">
|
|
<ele>3.071219</ele>
|
|
<time>2026-07-12T11:17:36.000Z</time>
|
|
</trkpt>
|
|
<trkpt lat="55.995396" lon="8.128234">
|
|
<ele>3.032617</ele>
|
|
<time>2026-07-12T11:17:37.000Z</time>
|
|
</trkpt>
|
|
<trkpt lat="55.995438" lon="8.128193">
|
|
<ele>2.994233</ele>
|
|
<time>2026-07-12T11:17:38.000Z</time>
|
|
</trkpt>
|
|
<trkpt lat="55.995476" lon="8.128151">
|
|
<ele>2.958398</ele>
|
|
<time>2026-07-12T11:17:39.000Z</time>
|
|
</trkpt>
|
|
<trkpt lat="55.995514" lon="8.128109">
|
|
<ele>2.922563</ele>
|
|
<time>2026-07-12T11:17:40.000Z</time>
|
|
</trkpt>
|
|
<trkpt lat="55.995556" lon="8.128068">
|
|
<ele>2.884179</ele>
|
|
<time>2026-07-12T11:17:41.000Z</time>
|
|
</trkpt>
|
|
<trkpt lat="55.995594" lon="8.128027">
|
|
<ele>2.848577</ele>
|
|
<time>2026-07-12T11:17:42.000Z</time>
|
|
</trkpt>
|
|
<trkpt lat="55.995636" lon="8.127984">
|
|
<ele>2.809755</ele>
|
|
<time>2026-07-12T11:17:43.000Z</time>
|
|
</trkpt>
|
|
<trkpt lat="55.995674" lon="8.127943">
|
|
<ele>2.774154</ele>
|
|
<time>2026-07-12T11:17:44.000Z</time>
|
|
</trkpt>
|
|
<trkpt lat="55.995712" lon="8.127901">
|
|
<ele>2.738319</ele>
|
|
<time>2026-07-12T11:17:45.000Z</time>
|
|
</trkpt>
|
|
<trkpt lat="55.995750" lon="8.127860">
|
|
<ele>2.702718</ele>
|
|
<time>2026-07-12T11:17:46.000Z</time>
|
|
</trkpt>
|
|
<trkpt lat="55.995789" lon="8.127818">
|
|
<ele>2.666198</ele>
|
|
<time>2026-07-12T11:17:47.000Z</time>
|
|
</trkpt>
|
|
<trkpt lat="55.995827" lon="8.127778">
|
|
<ele>2.630827</ele>
|
|
<time>2026-07-12T11:17:48.000Z</time>
|
|
</trkpt>
|
|
<trkpt lat="55.995865" lon="8.127742">
|
|
<ele>2.596331</ele>
|
|
<time>2026-07-12T11:17:49.000Z</time>
|
|
</trkpt>
|
|
<trkpt lat="55.995903" lon="8.127713">
|
|
<ele>2.596481</ele>
|
|
<time>2026-07-12T11:17:50.000Z</time>
|
|
</trkpt>
|
|
<trkpt lat="55.995937" lon="8.127685">
|
|
<ele>2.604876</ele>
|
|
<time>2026-07-12T11:17:51.000Z</time>
|
|
</trkpt>
|
|
<trkpt lat="55.995972" lon="8.127651">
|
|
<ele>2.613808</ele>
|
|
<time>2026-07-12T11:17:52.000Z</time>
|
|
</trkpt>
|
|
<trkpt lat="55.996002" lon="8.127612">
|
|
<ele>2.622126</ele>
|
|
<time>2026-07-12T11:17:53.000Z</time>
|
|
</trkpt>
|
|
<trkpt lat="55.996033" lon="8.127572">
|
|
<ele>2.630699</ele>
|
|
<time>2026-07-12T11:17:54.000Z</time>
|
|
</trkpt>
|
|
<trkpt lat="55.996063" lon="8.127535">
|
|
<ele>2.638872</ele>
|
|
<time>2026-07-12T11:17:55.000Z</time>
|
|
</trkpt>
|
|
<trkpt lat="55.996094" lon="8.127500">
|
|
<ele>2.647094</ele>
|
|
<time>2026-07-12T11:17:56.000Z</time>
|
|
</trkpt>
|
|
<trkpt lat="55.996128" lon="8.127465">
|
|
<ele>2.655893</ele>
|
|
<time>2026-07-12T11:17:57.000Z</time>
|
|
</trkpt>
|
|
<trkpt lat="55.996159" lon="8.127433">
|
|
<ele>2.663920</ele>
|
|
<time>2026-07-12T11:17:58.000Z</time>
|
|
</trkpt>
|
|
<trkpt lat="55.996189" lon="8.127399">
|
|
<ele>2.671885</ele>
|
|
<time>2026-07-12T11:17:59.000Z</time>
|
|
</trkpt>
|
|
<trkpt lat="55.996223" lon="8.127362">
|
|
<ele>2.680811</ele>
|
|
<time>2026-07-12T11:18:00.000Z</time>
|
|
</trkpt>
|
|
<trkpt lat="55.996258" lon="8.127325">
|
|
<ele>2.689930</ele>
|
|
<time>2026-07-12T11:18:01.000Z</time>
|
|
</trkpt>
|
|
<trkpt lat="55.996292" lon="8.127290">
|
|
<ele>2.698728</ele>
|
|
<time>2026-07-12T11:18:02.000Z</time>
|
|
</trkpt>
|
|
<trkpt lat="55.996330" lon="8.127254">
|
|
<ele>2.708372</ele>
|
|
<time>2026-07-12T11:18:03.000Z</time>
|
|
</trkpt>
|
|
<trkpt lat="55.996365" lon="8.127219">
|
|
<ele>2.717365</ele>
|
|
<time>2026-07-12T11:18:04.000Z</time>
|
|
</trkpt>
|
|
<trkpt lat="55.996395" lon="8.127183">
|
|
<ele>2.725468</ele>
|
|
<time>2026-07-12T11:18:05.000Z</time>
|
|
</trkpt>
|
|
<trkpt lat="55.996429" lon="8.127148">
|
|
<ele>2.734266</ele>
|
|
<time>2026-07-12T11:18:06.000Z</time>
|
|
</trkpt>
|
|
<trkpt lat="55.996460" lon="8.127114">
|
|
<ele>2.742421</ele>
|
|
<time>2026-07-12T11:18:07.000Z</time>
|
|
</trkpt>
|
|
<trkpt lat="55.996491" lon="8.127081">
|
|
<ele>2.750512</ele>
|
|
<time>2026-07-12T11:18:08.000Z</time>
|
|
</trkpt>
|
|
<trkpt lat="55.996525" lon="8.127051">
|
|
<ele>2.759015</ele>
|
|
<time>2026-07-12T11:18:09.000Z</time>
|
|
</trkpt>
|
|
<trkpt lat="55.996555" lon="8.127022">
|
|
<ele>2.766663</ele>
|
|
<time>2026-07-12T11:18:10.000Z</time>
|
|
</trkpt>
|
|
<trkpt lat="55.996590" lon="8.126991">
|
|
<ele>2.775422</ele>
|
|
<time>2026-07-12T11:18:11.000Z</time>
|
|
</trkpt>
|
|
<trkpt lat="55.996620" lon="8.126960">
|
|
<ele>2.783193</ele>
|
|
<time>2026-07-12T11:18:12.000Z</time>
|
|
</trkpt>
|
|
<trkpt lat="55.996655" lon="8.126926">
|
|
<ele>2.792125</ele>
|
|
<time>2026-07-12T11:18:13.000Z</time>
|
|
</trkpt>
|
|
<trkpt lat="55.996685" lon="8.126892">
|
|
<ele>2.800091</ele>
|
|
<time>2026-07-12T11:18:14.000Z</time>
|
|
</trkpt>
|
|
<trkpt lat="55.996719" lon="8.126861">
|
|
<ele>2.808650</ele>
|
|
<time>2026-07-12T11:18:15.000Z</time>
|
|
</trkpt>
|
|
<trkpt lat="55.996754" lon="8.126830">
|
|
<ele>2.817409</ele>
|
|
<time>2026-07-12T11:18:16.000Z</time>
|
|
</trkpt>
|
|
<trkpt lat="55.996788" lon="8.126801">
|
|
<ele>2.825857</ele>
|
|
<time>2026-07-12T11:18:17.000Z</time>
|
|
</trkpt>
|
|
<trkpt lat="55.996822" lon="8.126774">
|
|
<ele>2.834200</ele>
|
|
<time>2026-07-12T11:18:18.000Z</time>
|
|
</trkpt>
|
|
<trkpt lat="55.996857" lon="8.126747">
|
|
<ele>2.842748</ele>
|
|
<time>2026-07-12T11:18:19.000Z</time>
|
|
</trkpt>
|
|
<trkpt lat="55.996891" lon="8.126721">
|
|
<ele>2.851041</ele>
|
|
<time>2026-07-12T11:18:20.000Z</time>
|
|
</trkpt>
|
|
<trkpt lat="55.996925" lon="8.126699">
|
|
<ele>2.859150</ele>
|
|
<time>2026-07-12T11:18:21.000Z</time>
|
|
</trkpt>
|
|
<trkpt lat="55.996960" lon="8.126683">
|
|
<ele>2.867251</ele>
|
|
<time>2026-07-12T11:18:22.000Z</time>
|
|
</trkpt>
|
|
<trkpt lat="55.996998" lon="8.126669">
|
|
<ele>2.875952</ele>
|
|
<time>2026-07-12T11:18:23.000Z</time>
|
|
</trkpt>
|
|
<trkpt lat="55.997036" lon="8.126654">
|
|
<ele>2.884679</ele>
|
|
<time>2026-07-12T11:18:24.000Z</time>
|
|
</trkpt>
|
|
<trkpt lat="55.997070" lon="8.126637">
|
|
<ele>2.892597</ele>
|
|
<time>2026-07-12T11:18:25.000Z</time>
|
|
</trkpt>
|
|
<trkpt lat="55.997108" lon="8.126620">
|
|
<ele>2.901381</ele>
|
|
<time>2026-07-12T11:18:26.000Z</time>
|
|
</trkpt>
|
|
<trkpt lat="55.997143" lon="8.126601">
|
|
<ele>2.909584</ele>
|
|
<time>2026-07-12T11:18:27.000Z</time>
|
|
</trkpt>
|
|
<trkpt lat="55.997181" lon="8.126585">
|
|
<ele>2.918339</ele>
|
|
<time>2026-07-12T11:18:28.000Z</time>
|
|
</trkpt>
|
|
<trkpt lat="55.997219" lon="8.126571">
|
|
<ele>2.927040</ele>
|
|
<time>2026-07-12T11:18:29.000Z</time>
|
|
</trkpt>
|
|
<trkpt lat="55.997257" lon="8.126560">
|
|
<ele>2.935673</ele>
|
|
<time>2026-07-12T11:18:30.000Z</time>
|
|
</trkpt>
|
|
<trkpt lat="55.997299" lon="8.126553">
|
|
<ele>2.945133</ele>
|
|
<time>2026-07-12T11:18:31.000Z</time>
|
|
</trkpt>
|
|
<trkpt lat="55.997334" lon="8.126551">
|
|
<ele>2.952986</ele>
|
|
<time>2026-07-12T11:18:32.000Z</time>
|
|
</trkpt>
|
|
<trkpt lat="55.997368" lon="8.126553">
|
|
<ele>2.960615</ele>
|
|
<time>2026-07-12T11:18:33.000Z</time>
|
|
</trkpt>
|
|
<trkpt lat="55.997406" lon="8.126555">
|
|
<ele>2.969141</ele>
|
|
<time>2026-07-12T11:18:34.000Z</time>
|
|
</trkpt>
|
|
<trkpt lat="55.997440" lon="8.126559">
|
|
<ele>2.976782</ele>
|
|
<time>2026-07-12T11:18:35.000Z</time>
|
|
</trkpt>
|
|
<trkpt lat="55.997471" lon="8.126565">
|
|
<ele>2.983775</ele>
|
|
<time>2026-07-12T11:18:36.000Z</time>
|
|
</trkpt>
|
|
<trkpt lat="55.997498" lon="8.126574">
|
|
<ele>2.989934</ele>
|
|
<time>2026-07-12T11:18:37.000Z</time>
|
|
</trkpt>
|
|
<trkpt lat="55.997528" lon="8.126590">
|
|
<ele>3.005649</ele>
|
|
<time>2026-07-12T11:18:38.000Z</time>
|
|
</trkpt>
|
|
<trkpt lat="55.997555" lon="8.126614">
|
|
<ele>3.025828</ele>
|
|
<time>2026-07-12T11:18:39.000Z</time>
|
|
</trkpt>
|
|
<trkpt lat="55.997589" lon="8.126635">
|
|
<ele>3.049902</ele>
|
|
<time>2026-07-12T11:18:40.000Z</time>
|
|
</trkpt>
|
|
<trkpt lat="55.997623" lon="8.126639">
|
|
<ele>3.072706</ele>
|
|
<time>2026-07-12T11:18:41.000Z</time>
|
|
</trkpt>
|
|
<trkpt lat="55.997654" lon="8.126621">
|
|
<ele>3.094520</ele>
|
|
<time>2026-07-12T11:18:42.000Z</time>
|
|
</trkpt>
|
|
<trkpt lat="55.997688" lon="8.126592">
|
|
<ele>3.119731</ele>
|
|
<time>2026-07-12T11:18:43.000Z</time>
|
|
</trkpt>
|
|
<trkpt lat="55.997723" lon="8.126569">
|
|
<ele>3.144686</ele>
|
|
<time>2026-07-12T11:18:44.000Z</time>
|
|
</trkpt>
|
|
<trkpt lat="55.997757" lon="8.126558">
|
|
<ele>3.167811</ele>
|
|
<time>2026-07-12T11:18:45.000Z</time>
|
|
</trkpt>
|
|
<trkpt lat="55.997795" lon="8.126554">
|
|
<ele>3.193287</ele>
|
|
<time>2026-07-12T11:18:46.000Z</time>
|
|
</trkpt>
|
|
<trkpt lat="55.997833" lon="8.126552">
|
|
<ele>3.218729</ele>
|
|
<time>2026-07-12T11:18:47.000Z</time>
|
|
</trkpt>
|
|
<trkpt lat="55.997871" lon="8.126553">
|
|
<ele>3.244164</ele>
|
|
<time>2026-07-12T11:18:48.000Z</time>
|
|
</trkpt>
|
|
<trkpt lat="55.997910" lon="8.126555">
|
|
<ele>3.270276</ele>
|
|
<time>2026-07-12T11:18:49.000Z</time>
|
|
</trkpt>
|
|
<trkpt lat="55.997948" lon="8.126558">
|
|
<ele>3.295733</ele>
|
|
<time>2026-07-12T11:18:50.000Z</time>
|
|
</trkpt>
|
|
<trkpt lat="55.997986" lon="8.126562">
|
|
<ele>3.321208</ele>
|
|
<time>2026-07-12T11:18:51.000Z</time>
|
|
</trkpt>
|
|
<trkpt lat="55.998020" lon="8.126567">
|
|
<ele>3.344040</ele>
|
|
<time>2026-07-12T11:18:52.000Z</time>
|
|
</trkpt>
|
|
<trkpt lat="55.998054" lon="8.126571">
|
|
<ele>3.366844</ele>
|
|
<time>2026-07-12T11:18:53.000Z</time>
|
|
</trkpt>
|
|
<trkpt lat="55.998089" lon="8.126576">
|
|
<ele>3.390343</ele>
|
|
<time>2026-07-12T11:18:54.000Z</time>
|
|
</trkpt>
|
|
<trkpt lat="55.998123" lon="8.126583">
|
|
<ele>3.413248</ele>
|
|
<time>2026-07-12T11:18:55.000Z</time>
|
|
</trkpt>
|
|
<trkpt lat="55.998158" lon="8.126590">
|
|
<ele>3.436818</ele>
|
|
<time>2026-07-12T11:18:56.000Z</time>
|
|
</trkpt>
|
|
<trkpt lat="55.998192" lon="8.126596">
|
|
<ele>3.459684</ele>
|
|
<time>2026-07-12T11:18:57.000Z</time>
|
|
</trkpt>
|
|
<trkpt lat="55.998222" lon="8.126600">
|
|
<ele>3.479817</ele>
|
|
<time>2026-07-12T11:18:58.000Z</time>
|
|
</trkpt>
|
|
<trkpt lat="55.998257" lon="8.126604">
|
|
<ele>3.503289</ele>
|
|
<time>2026-07-12T11:18:59.000Z</time>
|
|
</trkpt>
|
|
<trkpt lat="55.998287" lon="8.126611">
|
|
<ele>3.523537</ele>
|
|
<time>2026-07-12T11:19:00.000Z</time>
|
|
</trkpt>
|
|
<trkpt lat="55.998318" lon="8.126620">
|
|
<ele>3.544556</ele>
|
|
<time>2026-07-12T11:19:01.000Z</time>
|
|
</trkpt>
|
|
<trkpt lat="55.998344" lon="8.126633">
|
|
<ele>3.562624</ele>
|
|
<time>2026-07-12T11:19:02.000Z</time>
|
|
</trkpt>
|
|
<trkpt lat="55.998371" lon="8.126645">
|
|
<ele>3.581244</ele>
|
|
<time>2026-07-12T11:19:03.000Z</time>
|
|
</trkpt>
|
|
<trkpt lat="55.998394" lon="8.126658">
|
|
<ele>3.597387</ele>
|
|
<time>2026-07-12T11:19:04.000Z</time>
|
|
</trkpt>
|
|
<trkpt lat="55.998421" lon="8.126674">
|
|
<ele>3.616424</ele>
|
|
<time>2026-07-12T11:19:05.000Z</time>
|
|
</trkpt>
|
|
<trkpt lat="55.998444" lon="8.126687">
|
|
<ele>3.632567</ele>
|
|
<time>2026-07-12T11:19:06.000Z</time>
|
|
</trkpt>
|
|
<trkpt lat="55.998470" lon="8.126700">
|
|
<ele>3.650635</ele>
|
|
<time>2026-07-12T11:19:07.000Z</time>
|
|
</trkpt>
|
|
<trkpt lat="55.998493" lon="8.126713">
|
|
<ele>3.666779</ele>
|
|
<time>2026-07-12T11:19:08.000Z</time>
|
|
</trkpt>
|
|
<trkpt lat="55.998516" lon="8.126726">
|
|
<ele>3.682922</ele>
|
|
<time>2026-07-12T11:19:09.000Z</time>
|
|
</trkpt>
|
|
<trkpt lat="55.998535" lon="8.126740">
|
|
<ele>3.696676</ele>
|
|
<time>2026-07-12T11:19:10.000Z</time>
|
|
</trkpt>
|
|
<trkpt lat="55.998554" lon="8.126755">
|
|
<ele>3.710576</ele>
|
|
<time>2026-07-12T11:19:11.000Z</time>
|
|
</trkpt>
|
|
<trkpt lat="55.998573" lon="8.126768">
|
|
<ele>3.724191</ele>
|
|
<time>2026-07-12T11:19:12.000Z</time>
|
|
</trkpt>
|
|
<trkpt lat="55.998592" lon="8.126782">
|
|
<ele>3.737944</ele>
|
|
<time>2026-07-12T11:19:13.000Z</time>
|
|
</trkpt>
|
|
<trkpt lat="55.998608" lon="8.126798">
|
|
<ele>3.750212</ele>
|
|
<time>2026-07-12T11:19:14.000Z</time>
|
|
</trkpt>
|
|
<trkpt lat="55.998627" lon="8.126813">
|
|
<ele>3.764112</ele>
|
|
<time>2026-07-12T11:19:15.000Z</time>
|
|
</trkpt>
|
|
<trkpt lat="55.998642" lon="8.126827">
|
|
<ele>3.775436</ele>
|
|
<time>2026-07-12T11:19:16.000Z</time>
|
|
</trkpt>
|
|
<trkpt lat="55.998653" lon="8.126839">
|
|
<ele>3.784060</ele>
|
|
<time>2026-07-12T11:19:17.000Z</time>
|
|
</trkpt>
|
|
<trkpt lat="55.998676" lon="8.126857">
|
|
<ele>3.800863</ele>
|
|
<time>2026-07-12T11:20:24.000Z</time>
|
|
</trkpt>
|
|
<trkpt lat="55.998695" lon="8.126867">
|
|
<ele>3.814118</ele>
|
|
<time>2026-07-12T11:20:25.000Z</time>
|
|
</trkpt>
|
|
<trkpt lat="55.998711" lon="8.126880">
|
|
<ele>3.825880</ele>
|
|
<time>2026-07-12T11:20:26.000Z</time>
|
|
</trkpt>
|
|
<trkpt lat="55.998730" lon="8.126896">
|
|
<ele>3.839935</ele>
|
|
<time>2026-07-12T11:20:27.000Z</time>
|
|
</trkpt>
|
|
<trkpt lat="55.998749" lon="8.126916">
|
|
<ele>3.854690</ele>
|
|
<time>2026-07-12T11:20:28.000Z</time>
|
|
</trkpt>
|
|
<trkpt lat="55.998772" lon="8.126935">
|
|
<ele>3.871646</ele>
|
|
<time>2026-07-12T11:20:29.000Z</time>
|
|
</trkpt>
|
|
<trkpt lat="55.998795" lon="8.126953">
|
|
<ele>3.888449</ele>
|
|
<time>2026-07-12T11:20:30.000Z</time>
|
|
</trkpt>
|
|
<trkpt lat="55.998821" lon="8.126974">
|
|
<ele>3.907542</ele>
|
|
<time>2026-07-12T11:20:31.000Z</time>
|
|
</trkpt>
|
|
<trkpt lat="55.998844" lon="8.126999">
|
|
<ele>3.925556</ele>
|
|
<time>2026-07-12T11:20:32.000Z</time>
|
|
</trkpt>
|
|
<trkpt lat="55.998867" lon="8.127027">
|
|
<ele>3.944177</ele>
|
|
<time>2026-07-12T11:20:33.000Z</time>
|
|
</trkpt>
|
|
<trkpt lat="55.998890" lon="8.127055">
|
|
<ele>3.962799</ele>
|
|
<time>2026-07-12T11:20:34.000Z</time>
|
|
</trkpt>
|
|
<trkpt lat="55.998913" lon="8.127085">
|
|
<ele>3.981851</ele>
|
|
<time>2026-07-12T11:20:35.000Z</time>
|
|
</trkpt>
|
|
<trkpt lat="55.998936" lon="8.127114">
|
|
<ele>4.000686</ele>
|
|
<time>2026-07-12T11:20:36.000Z</time>
|
|
</trkpt>
|
|
<trkpt lat="55.998959" lon="8.127146">
|
|
<ele>4.020189</ele>
|
|
<time>2026-07-12T11:20:37.000Z</time>
|
|
</trkpt>
|
|
<trkpt lat="55.998985" lon="8.127180">
|
|
<ele>4.041746</ele>
|
|
<time>2026-07-12T11:20:38.000Z</time>
|
|
</trkpt>
|
|
<trkpt lat="55.999012" lon="8.127215">
|
|
<ele>4.064064</ele>
|
|
<time>2026-07-12T11:20:39.000Z</time>
|
|
</trkpt>
|
|
<trkpt lat="55.999035" lon="8.127250">
|
|
<ele>4.084276</ele>
|
|
<time>2026-07-12T11:20:40.000Z</time>
|
|
</trkpt>
|
|
<trkpt lat="55.999062" lon="8.127285">
|
|
<ele>4.106595</ele>
|
|
<time>2026-07-12T11:20:41.000Z</time>
|
|
</trkpt>
|
|
<trkpt lat="55.999088" lon="8.127320">
|
|
<ele>4.128375</ele>
|
|
<time>2026-07-12T11:20:42.000Z</time>
|
|
</trkpt>
|
|
<trkpt lat="55.999111" lon="8.127358">
|
|
<ele>4.149332</ele>
|
|
<time>2026-07-12T11:20:43.000Z</time>
|
|
</trkpt>
|
|
<trkpt lat="55.999134" lon="8.127399">
|
|
<ele>4.171066</ele>
|
|
<time>2026-07-12T11:20:44.000Z</time>
|
|
</trkpt>
|
|
<trkpt lat="55.999157" lon="8.127440">
|
|
<ele>4.192801</ele>
|
|
<time>2026-07-12T11:20:45.000Z</time>
|
|
</trkpt>
|
|
<trkpt lat="55.999180" lon="8.127481">
|
|
<ele>4.175141</ele>
|
|
<time>2026-07-12T11:20:46.000Z</time>
|
|
</trkpt>
|
|
<trkpt lat="55.999203" lon="8.127522">
|
|
<ele>4.149838</ele>
|
|
<time>2026-07-12T11:20:47.000Z</time>
|
|
</trkpt>
|
|
<trkpt lat="55.999222" lon="8.127563">
|
|
<ele>4.126637</ele>
|
|
<time>2026-07-12T11:20:48.000Z</time>
|
|
</trkpt>
|
|
<trkpt lat="55.999245" lon="8.127605">
|
|
<ele>4.101023</ele>
|
|
<time>2026-07-12T11:20:49.000Z</time>
|
|
</trkpt>
|
|
<trkpt lat="55.999268" lon="8.127647">
|
|
<ele>4.075410</ele>
|
|
<time>2026-07-12T11:20:50.000Z</time>
|
|
</trkpt>
|
|
<trkpt lat="55.999290" lon="8.127692">
|
|
<ele>4.049367</ele>
|
|
<time>2026-07-12T11:20:51.000Z</time>
|
|
</trkpt>
|
|
<trkpt lat="55.999313" lon="8.127737">
|
|
<ele>4.022804</ele>
|
|
<time>2026-07-12T11:20:52.000Z</time>
|
|
</trkpt>
|
|
<trkpt lat="55.999336" lon="8.127781">
|
|
<ele>3.996561</ele>
|
|
<time>2026-07-12T11:20:53.000Z</time>
|
|
</trkpt>
|
|
<trkpt lat="55.999359" lon="8.127826">
|
|
<ele>3.969998</ele>
|
|
<time>2026-07-12T11:20:54.000Z</time>
|
|
</trkpt>
|
|
<trkpt lat="55.999378" lon="8.127869">
|
|
<ele>3.946120</ele>
|
|
<time>2026-07-12T11:20:55.000Z</time>
|
|
</trkpt>
|
|
<trkpt lat="55.999397" lon="8.127913">
|
|
<ele>3.921898</ele>
|
|
<time>2026-07-12T11:20:56.000Z</time>
|
|
</trkpt>
|
|
<trkpt lat="55.999420" lon="8.127954">
|
|
<ele>3.896595</ele>
|
|
<time>2026-07-12T11:20:57.000Z</time>
|
|
</trkpt>
|
|
<trkpt lat="55.999439" lon="8.127995">
|
|
<ele>3.873394</ele>
|
|
<time>2026-07-12T11:20:58.000Z</time>
|
|
</trkpt>
|
|
<trkpt lat="55.999458" lon="8.128032">
|
|
<ele>3.851506</ele>
|
|
<time>2026-07-12T11:20:59.000Z</time>
|
|
</trkpt>
|
|
<trkpt lat="55.999477" lon="8.128067">
|
|
<ele>3.830253</ele>
|
|
<time>2026-07-12T11:21:00.000Z</time>
|
|
</trkpt>
|
|
<trkpt lat="55.999493" lon="8.128102">
|
|
<ele>3.810556</ele>
|
|
<time>2026-07-12T11:21:01.000Z</time>
|
|
</trkpt>
|
|
<trkpt lat="55.999512" lon="8.128137">
|
|
<ele>3.789302</ele>
|
|
<time>2026-07-12T11:21:02.000Z</time>
|
|
</trkpt>
|
|
<trkpt lat="55.999531" lon="8.128172">
|
|
<ele>3.768049</ele>
|
|
<time>2026-07-12T11:21:03.000Z</time>
|
|
</trkpt>
|
|
<trkpt lat="55.999546" lon="8.128208">
|
|
<ele>3.748488</ele>
|
|
<time>2026-07-12T11:21:04.000Z</time>
|
|
</trkpt>
|
|
<trkpt lat="55.999565" lon="8.128243">
|
|
<ele>3.727234</ele>
|
|
<time>2026-07-12T11:21:05.000Z</time>
|
|
</trkpt>
|
|
<trkpt lat="55.999584" lon="8.128280">
|
|
<ele>3.705347</ele>
|
|
<time>2026-07-12T11:21:06.000Z</time>
|
|
</trkpt>
|
|
<trkpt lat="55.999603" lon="8.128312">
|
|
<ele>3.685011</ele>
|
|
<time>2026-07-12T11:21:07.000Z</time>
|
|
</trkpt>
|
|
<trkpt lat="55.999622" lon="8.128344">
|
|
<ele>3.664675</ele>
|
|
<time>2026-07-12T11:21:08.000Z</time>
|
|
</trkpt>
|
|
<trkpt lat="55.999645" lon="8.128374">
|
|
<ele>3.642494</ele>
|
|
<time>2026-07-12T11:21:09.000Z</time>
|
|
</trkpt>
|
|
<trkpt lat="55.999660" lon="8.128408">
|
|
<ele>3.623624</ele>
|
|
<time>2026-07-12T11:21:10.000Z</time>
|
|
</trkpt>
|
|
<trkpt lat="55.999676" lon="8.128445">
|
|
<ele>3.603245</ele>
|
|
<time>2026-07-12T11:21:11.000Z</time>
|
|
</trkpt>
|
|
<trkpt lat="55.999687" lon="8.128489">
|
|
<ele>3.582246</ele>
|
|
<time>2026-07-12T11:21:12.000Z</time>
|
|
</trkpt>
|
|
<trkpt lat="55.999702" lon="8.128535">
|
|
<ele>3.559045</ele>
|
|
<time>2026-07-12T11:21:13.000Z</time>
|
|
</trkpt>
|
|
<trkpt lat="55.999725" lon="8.128575">
|
|
<ele>3.534047</ele>
|
|
<time>2026-07-12T11:21:14.000Z</time>
|
|
</trkpt>
|
|
<trkpt lat="55.999748" lon="8.128602">
|
|
<ele>3.512610</ele>
|
|
<time>2026-07-12T11:21:15.000Z</time>
|
|
</trkpt>
|
|
<trkpt lat="55.999775" lon="8.128613">
|
|
<ele>3.491033</ele>
|
|
<time>2026-07-12T11:21:16.000Z</time>
|
|
</trkpt>
|
|
<trkpt lat="55.999802" lon="8.128613">
|
|
<ele>3.469996</ele>
|
|
<time>2026-07-12T11:21:17.000Z</time>
|
|
</trkpt>
|
|
<trkpt lat="55.999824" lon="8.128597">
|
|
<ele>3.451491</ele>
|
|
<time>2026-07-12T11:21:18.000Z</time>
|
|
</trkpt>
|
|
<trkpt lat="55.999844" lon="8.128567">
|
|
<ele>3.431152</ele>
|
|
<time>2026-07-12T11:21:19.000Z</time>
|
|
</trkpt>
|
|
<trkpt lat="55.999859" lon="8.128521">
|
|
<ele>3.407951</ele>
|
|
<time>2026-07-12T11:21:20.000Z</time>
|
|
</trkpt>
|
|
<trkpt lat="55.999866" lon="8.128464">
|
|
<ele>3.382524</ele>
|
|
<time>2026-07-12T11:21:21.000Z</time>
|
|
</trkpt>
|
|
<trkpt lat="55.999866" lon="8.128404">
|
|
<ele>3.356382</ele>
|
|
<time>2026-07-12T11:21:22.000Z</time>
|
|
</trkpt>
|
|
<trkpt lat="55.999859" lon="8.128342">
|
|
<ele>3.328823</ele>
|
|
<time>2026-07-12T11:21:23.000Z</time>
|
|
</trkpt>
|
|
<trkpt lat="55.999855" lon="8.128278">
|
|
<ele>3.300764</ele>
|
|
<time>2026-07-12T11:21:24.000Z</time>
|
|
</trkpt>
|
|
<trkpt lat="55.999855" lon="8.128216">
|
|
<ele>3.273751</ele>
|
|
<time>2026-07-12T11:21:25.000Z</time>
|
|
</trkpt>
|
|
<trkpt lat="55.999866" lon="8.128158">
|
|
<ele>3.247066</ele>
|
|
<time>2026-07-12T11:21:26.000Z</time>
|
|
</trkpt>
|
|
<trkpt lat="55.999886" lon="8.128099">
|
|
<ele>3.217005</ele>
|
|
<time>2026-07-12T11:21:27.000Z</time>
|
|
</trkpt>
|
|
<trkpt lat="55.999908" lon="8.128040">
|
|
<ele>3.186108</ele>
|
|
<time>2026-07-12T11:21:28.000Z</time>
|
|
</trkpt>
|
|
<trkpt lat="55.999928" lon="8.127980">
|
|
<ele>3.155673</ele>
|
|
<time>2026-07-12T11:21:29.000Z</time>
|
|
</trkpt>
|
|
<trkpt lat="55.999950" lon="8.127921">
|
|
<ele>3.124776</ele>
|
|
<time>2026-07-12T11:21:30.000Z</time>
|
|
</trkpt>
|
|
<trkpt lat="55.999970" lon="8.127864">
|
|
<ele>3.095457</ele>
|
|
<time>2026-07-12T11:21:31.000Z</time>
|
|
</trkpt>
|
|
<trkpt lat="55.999989" lon="8.127806">
|
|
<ele>3.066169</ele>
|
|
<time>2026-07-12T11:21:32.000Z</time>
|
|
</trkpt>
|
|
<trkpt lat="56.000011" lon="8.127750">
|
|
<ele>3.036350</ele>
|
|
<time>2026-07-12T11:21:33.000Z</time>
|
|
</trkpt>
|
|
<trkpt lat="56.000031" lon="8.127699">
|
|
<ele>3.009210</ele>
|
|
<time>2026-07-12T11:21:34.000Z</time>
|
|
</trkpt>
|
|
<trkpt lat="56.000050" lon="8.127648">
|
|
<ele>2.982509</ele>
|
|
<time>2026-07-12T11:21:35.000Z</time>
|
|
</trkpt>
|
|
<trkpt lat="56.000069" lon="8.127596">
|
|
<ele>2.955445</ele>
|
|
<time>2026-07-12T11:21:36.000Z</time>
|
|
</trkpt>
|
|
<trkpt lat="56.000092" lon="8.127546">
|
|
<ele>2.927236</ele>
|
|
<time>2026-07-12T11:21:37.000Z</time>
|
|
</trkpt>
|
|
<trkpt lat="56.000111" lon="8.127499">
|
|
<ele>2.901968</ele>
|
|
<time>2026-07-12T11:21:38.000Z</time>
|
|
</trkpt>
|
|
<trkpt lat="56.000122" lon="8.127451">
|
|
<ele>2.879366</ele>
|
|
<time>2026-07-12T11:21:39.000Z</time>
|
|
</trkpt>
|
|
<trkpt lat="56.000134" lon="8.127401">
|
|
<ele>2.855659</ele>
|
|
<time>2026-07-12T11:21:40.000Z</time>
|
|
</trkpt>
|
|
<trkpt lat="56.000149" lon="8.127356">
|
|
<ele>2.832834</ele>
|
|
<time>2026-07-12T11:21:41.000Z</time>
|
|
</trkpt>
|
|
<trkpt lat="56.000164" lon="8.127315">
|
|
<ele>2.811486</ele>
|
|
<time>2026-07-12T11:21:42.000Z</time>
|
|
</trkpt>
|
|
<trkpt lat="56.000179" lon="8.127278">
|
|
<ele>2.802776</ele>
|
|
<time>2026-07-12T11:21:43.000Z</time>
|
|
</trkpt>
|
|
<trkpt lat="56.000191" lon="8.127252">
|
|
<ele>2.837554</ele>
|
|
<time>2026-07-12T11:21:44.000Z</time>
|
|
</trkpt>
|
|
<trkpt lat="56.000214" lon="8.127216">
|
|
<ele>2.893943</ele>
|
|
<time>2026-07-12T11:22:11.000Z</time>
|
|
</trkpt>
|
|
<trkpt lat="56.000217" lon="8.127197">
|
|
<ele>2.914311</ele>
|
|
<time>2026-07-12T11:22:12.000Z</time>
|
|
</trkpt>
|
|
<trkpt lat="56.000221" lon="8.127189">
|
|
<ele>2.925382</ele>
|
|
<time>2026-07-12T11:22:13.000Z</time>
|
|
</trkpt>
|
|
<trkpt lat="56.000217" lon="8.127175">
|
|
<ele>2.941600</ele>
|
|
<time>2026-07-12T11:22:14.000Z</time>
|
|
</trkpt>
|
|
<trkpt lat="56.000217" lon="8.127159">
|
|
<ele>2.958107</ele>
|
|
<time>2026-07-12T11:22:15.000Z</time>
|
|
</trkpt>
|
|
<trkpt lat="56.000214" lon="8.127142">
|
|
<ele>2.976497</ele>
|
|
<time>2026-07-12T11:22:16.000Z</time>
|
|
</trkpt>
|
|
<trkpt lat="56.000210" lon="8.127126">
|
|
<ele>2.994577</ele>
|
|
<time>2026-07-12T11:22:17.000Z</time>
|
|
</trkpt>
|
|
<trkpt lat="56.000210" lon="8.127113">
|
|
<ele>3.007988</ele>
|
|
<time>2026-07-12T11:22:18.000Z</time>
|
|
</trkpt>
|
|
<trkpt lat="56.000206" lon="8.127101">
|
|
<ele>3.022401</ele>
|
|
<time>2026-07-12T11:22:19.000Z</time>
|
|
</trkpt>
|
|
<trkpt lat="56.000198" lon="8.127089">
|
|
<ele>3.041664</ele>
|
|
<time>2026-07-12T11:22:20.000Z</time>
|
|
</trkpt>
|
|
<trkpt lat="56.000195" lon="8.127082">
|
|
<ele>3.050762</ele>
|
|
<time>2026-07-12T11:22:21.000Z</time>
|
|
</trkpt>
|
|
<trkpt lat="56.000187" lon="8.127076">
|
|
<ele>3.066767</ele>
|
|
<time>2026-07-12T11:22:22.000Z</time>
|
|
</trkpt>
|
|
<trkpt lat="56.000179" lon="8.127068">
|
|
<ele>3.083676</ele>
|
|
<time>2026-07-12T11:22:23.000Z</time>
|
|
</trkpt>
|
|
<trkpt lat="56.000175" lon="8.127060">
|
|
<ele>3.094747</ele>
|
|
<time>2026-07-12T11:22:24.000Z</time>
|
|
</trkpt>
|
|
<trkpt lat="56.000168" lon="8.127050">
|
|
<ele>3.111276</ele>
|
|
<time>2026-07-12T11:22:25.000Z</time>
|
|
</trkpt>
|
|
<trkpt lat="56.000160" lon="8.127040">
|
|
<ele>3.129283</ele>
|
|
<time>2026-07-12T11:22:26.000Z</time>
|
|
</trkpt>
|
|
<trkpt lat="56.000153" lon="8.127030">
|
|
<ele>3.145812</ele>
|
|
<time>2026-07-12T11:22:27.000Z</time>
|
|
</trkpt>
|
|
<trkpt lat="56.000145" lon="8.127023">
|
|
<ele>3.162242</ele>
|
|
<time>2026-07-12T11:22:28.000Z</time>
|
|
</trkpt>
|
|
<trkpt lat="56.000141" lon="8.127017">
|
|
<ele>3.171874</ele>
|
|
<time>2026-07-12T11:22:29.000Z</time>
|
|
</trkpt>
|
|
<trkpt lat="56.000134" lon="8.127009">
|
|
<ele>3.187200</ele>
|
|
<time>2026-07-12T11:22:30.000Z</time>
|
|
</trkpt>
|
|
<trkpt lat="56.000126" lon="8.126999">
|
|
<ele>3.205207</ele>
|
|
<time>2026-07-12T11:22:31.000Z</time>
|
|
</trkpt>
|
|
<trkpt lat="56.000118" lon="8.126988">
|
|
<ele>3.223824</ele>
|
|
<time>2026-07-12T11:22:32.000Z</time>
|
|
</trkpt>
|
|
<trkpt lat="56.000111" lon="8.126981">
|
|
<ele>3.238620</ele>
|
|
<time>2026-07-12T11:22:33.000Z</time>
|
|
</trkpt>
|
|
<trkpt lat="56.000099" lon="8.126972">
|
|
<ele>3.262627</ele>
|
|
<time>2026-07-12T11:22:34.000Z</time>
|
|
</trkpt>
|
|
<trkpt lat="56.000095" lon="8.126964">
|
|
<ele>3.273698</ele>
|
|
<time>2026-07-12T11:22:35.000Z</time>
|
|
</trkpt>
|
|
<trkpt lat="56.000088" lon="8.126953">
|
|
<ele>3.290889</ele>
|
|
<time>2026-07-12T11:22:36.000Z</time>
|
|
</trkpt>
|
|
<trkpt lat="56.000076" lon="8.126943">
|
|
<ele>3.315313</ele>
|
|
<time>2026-07-12T11:22:37.000Z</time>
|
|
</trkpt>
|
|
<trkpt lat="56.000069" lon="8.126933">
|
|
<ele>3.331842</ele>
|
|
<time>2026-07-12T11:22:38.000Z</time>
|
|
</trkpt>
|
|
<trkpt lat="56.000065" lon="8.126923">
|
|
<ele>3.344526</ele>
|
|
<time>2026-07-12T11:22:39.000Z</time>
|
|
</trkpt>
|
|
<trkpt lat="56.000057" lon="8.126916">
|
|
<ele>3.360957</ele>
|
|
<time>2026-07-12T11:22:40.000Z</time>
|
|
</trkpt>
|
|
<trkpt lat="56.000050" lon="8.126908">
|
|
<ele>3.376283</ele>
|
|
<time>2026-07-12T11:22:41.000Z</time>
|
|
</trkpt>
|
|
<trkpt lat="56.000042" lon="8.126896">
|
|
<ele>3.395546</ele>
|
|
<time>2026-07-12T11:22:42.000Z</time>
|
|
</trkpt>
|
|
<trkpt lat="56.000031" lon="8.126884">
|
|
<ele>3.419317</ele>
|
|
<time>2026-07-12T11:22:43.000Z</time>
|
|
</trkpt>
|
|
<trkpt lat="56.000019" lon="8.126870">
|
|
<ele>3.445750</ele>
|
|
<time>2026-07-12T11:22:44.000Z</time>
|
|
</trkpt>
|
|
<trkpt lat="56.000011" lon="8.126851">
|
|
<ele>3.470287</ele>
|
|
<time>2026-07-12T11:22:45.000Z</time>
|
|
</trkpt>
|
|
<trkpt lat="56.000004" lon="8.126834">
|
|
<ele>3.492066</ele>
|
|
<time>2026-07-12T11:22:46.000Z</time>
|
|
</trkpt>
|
|
<trkpt lat="55.999992" lon="8.126821">
|
|
<ele>3.517950</ele>
|
|
<time>2026-07-12T11:22:47.000Z</time>
|
|
</trkpt>
|
|
<trkpt lat="55.999985" lon="8.126810">
|
|
<ele>3.535141</ele>
|
|
<time>2026-07-12T11:22:48.000Z</time>
|
|
</trkpt>
|
|
<trkpt lat="55.999977" lon="8.126801">
|
|
<ele>3.552578</ele>
|
|
<time>2026-07-12T11:22:49.000Z</time>
|
|
</trkpt>
|
|
<trkpt lat="55.999970" lon="8.126787">
|
|
<ele>3.571952</ele>
|
|
<time>2026-07-12T11:22:50.000Z</time>
|
|
</trkpt>
|
|
<trkpt lat="55.999958" lon="8.126773">
|
|
<ele>3.598385</ele>
|
|
<time>2026-07-12T11:22:51.000Z</time>
|
|
</trkpt>
|
|
<trkpt lat="55.999947" lon="8.126759">
|
|
<ele>3.623293</ele>
|
|
<time>2026-07-12T11:22:52.000Z</time>
|
|
</trkpt>
|
|
<trkpt lat="55.999939" lon="8.126743">
|
|
<ele>3.645436</ele>
|
|
<time>2026-07-12T11:22:53.000Z</time>
|
|
</trkpt>
|
|
<trkpt lat="55.999931" lon="8.126730">
|
|
<ele>3.665378</ele>
|
|
<time>2026-07-12T11:22:54.000Z</time>
|
|
</trkpt>
|
|
<trkpt lat="55.999920" lon="8.126717">
|
|
<ele>3.689702</ele>
|
|
<time>2026-07-12T11:22:55.000Z</time>
|
|
</trkpt>
|
|
<trkpt lat="55.999912" lon="8.126703">
|
|
<ele>3.710352</ele>
|
|
<time>2026-07-12T11:22:56.000Z</time>
|
|
</trkpt>
|
|
<trkpt lat="55.999905" lon="8.126690">
|
|
<ele>3.728970</ele>
|
|
<time>2026-07-12T11:22:57.000Z</time>
|
|
</trkpt>
|
|
<trkpt lat="55.999897" lon="8.126677">
|
|
<ele>3.748912</ele>
|
|
<time>2026-07-12T11:22:58.000Z</time>
|
|
</trkpt>
|
|
<trkpt lat="55.999889" lon="8.126665">
|
|
<ele>3.768176</ele>
|
|
<time>2026-07-12T11:22:59.000Z</time>
|
|
</trkpt>
|
|
<trkpt lat="55.999878" lon="8.126654">
|
|
<ele>3.791427</ele>
|
|
<time>2026-07-12T11:23:00.000Z</time>
|
|
</trkpt>
|
|
<trkpt lat="55.999870" lon="8.126641">
|
|
<ele>3.811369</ele>
|
|
<time>2026-07-12T11:23:01.000Z</time>
|
|
</trkpt>
|
|
<trkpt lat="55.999863" lon="8.126630">
|
|
<ele>3.828560</ele>
|
|
<time>2026-07-12T11:23:02.000Z</time>
|
|
</trkpt>
|
|
<trkpt lat="55.999855" lon="8.126623">
|
|
<ele>3.844991</ele>
|
|
<time>2026-07-12T11:23:03.000Z</time>
|
|
</trkpt>
|
|
<trkpt lat="55.999847" lon="8.126615">
|
|
<ele>3.861901</ele>
|
|
<time>2026-07-12T11:23:04.000Z</time>
|
|
</trkpt>
|
|
<trkpt lat="55.999844" lon="8.126603">
|
|
<ele>3.875461</ele>
|
|
<time>2026-07-12T11:23:05.000Z</time>
|
|
</trkpt>
|
|
<trkpt lat="55.999836" lon="8.126593">
|
|
<ele>3.893468</ele>
|
|
<time>2026-07-12T11:23:06.000Z</time>
|
|
</trkpt>
|
|
<trkpt lat="55.999828" lon="8.126583">
|
|
<ele>3.911475</ele>
|
|
<time>2026-07-12T11:23:07.000Z</time>
|
|
</trkpt>
|
|
<trkpt lat="55.999821" lon="8.126574">
|
|
<ele>3.927381</ele>
|
|
<time>2026-07-12T11:23:08.000Z</time>
|
|
</trkpt>
|
|
<trkpt lat="55.999809" lon="8.126564">
|
|
<ele>3.951805</ele>
|
|
<time>2026-07-12T11:23:09.000Z</time>
|
|
</trkpt>
|
|
<trkpt lat="55.999802" lon="8.126555">
|
|
<ele>3.967710</ele>
|
|
<time>2026-07-12T11:23:10.000Z</time>
|
|
</trkpt>
|
|
<trkpt lat="55.999794" lon="8.126549">
|
|
<ele>3.983714</ele>
|
|
<time>2026-07-12T11:23:11.000Z</time>
|
|
</trkpt>
|
|
<trkpt lat="55.999786" lon="8.126543">
|
|
<ele>3.999719</ele>
|
|
<time>2026-07-12T11:23:12.000Z</time>
|
|
</trkpt>
|
|
<trkpt lat="55.999779" lon="8.126533">
|
|
<ele>4.016247</ele>
|
|
<time>2026-07-12T11:23:13.000Z</time>
|
|
</trkpt>
|
|
<trkpt lat="55.999771" lon="8.126524">
|
|
<ele>4.033684</ele>
|
|
<time>2026-07-12T11:23:14.000Z</time>
|
|
</trkpt>
|
|
<trkpt lat="55.999763" lon="8.126514">
|
|
<ele>4.051691</ele>
|
|
<time>2026-07-12T11:23:15.000Z</time>
|
|
</trkpt>
|
|
<trkpt lat="55.999756" lon="8.126506">
|
|
<ele>4.067017</ele>
|
|
<time>2026-07-12T11:23:16.000Z</time>
|
|
</trkpt>
|
|
<trkpt lat="55.999752" lon="8.126496">
|
|
<ele>4.079701</ele>
|
|
<time>2026-07-12T11:23:17.000Z</time>
|
|
</trkpt>
|
|
<trkpt lat="55.999744" lon="8.126485">
|
|
<ele>4.098318</ele>
|
|
<time>2026-07-12T11:23:18.000Z</time>
|
|
</trkpt>
|
|
<trkpt lat="55.999737" lon="8.126474">
|
|
<ele>4.115510</ele>
|
|
<time>2026-07-12T11:23:19.000Z</time>
|
|
</trkpt>
|
|
<trkpt lat="55.999729" lon="8.126465">
|
|
<ele>4.132946</ele>
|
|
<time>2026-07-12T11:23:20.000Z</time>
|
|
</trkpt>
|
|
<trkpt lat="55.999722" lon="8.126456">
|
|
<ele>4.148851</ele>
|
|
<time>2026-07-12T11:23:21.000Z</time>
|
|
</trkpt>
|
|
<trkpt lat="55.999714" lon="8.126450">
|
|
<ele>4.164856</ele>
|
|
<time>2026-07-12T11:23:22.000Z</time>
|
|
</trkpt>
|
|
<trkpt lat="55.999706" lon="8.126442">
|
|
<ele>4.181765</ele>
|
|
<time>2026-07-12T11:23:23.000Z</time>
|
|
</trkpt>
|
|
<trkpt lat="55.999699" lon="8.126430">
|
|
<ele>4.199655</ele>
|
|
<time>2026-07-12T11:23:24.000Z</time>
|
|
</trkpt>
|
|
<trkpt lat="55.999691" lon="8.126421">
|
|
<ele>4.217091</ele>
|
|
<time>2026-07-12T11:23:25.000Z</time>
|
|
</trkpt>
|
|
<trkpt lat="55.999680" lon="8.126411">
|
|
<ele>4.239856</ele>
|
|
<time>2026-07-12T11:23:26.000Z</time>
|
|
</trkpt>
|
|
<trkpt lat="55.999672" lon="8.126402">
|
|
<ele>4.257293</ele>
|
|
<time>2026-07-12T11:23:27.000Z</time>
|
|
</trkpt>
|
|
<trkpt lat="55.999664" lon="8.126390">
|
|
<ele>4.276556</ele>
|
|
<time>2026-07-12T11:23:28.000Z</time>
|
|
</trkpt>
|
|
<trkpt lat="55.999657" lon="8.126382">
|
|
<ele>4.291882</ele>
|
|
<time>2026-07-12T11:23:29.000Z</time>
|
|
</trkpt>
|
|
<trkpt lat="55.999653" lon="8.126375">
|
|
<ele>4.302207</ele>
|
|
<time>2026-07-12T11:23:30.000Z</time>
|
|
</trkpt>
|
|
<trkpt lat="55.999649" lon="8.126367">
|
|
<ele>4.313279</ele>
|
|
<time>2026-07-12T11:23:31.000Z</time>
|
|
</trkpt>
|
|
<trkpt lat="55.999641" lon="8.126358">
|
|
<ele>4.330715</ele>
|
|
<time>2026-07-12T11:23:32.000Z</time>
|
|
</trkpt>
|
|
<trkpt lat="55.999634" lon="8.126348">
|
|
<ele>4.347244</ele>
|
|
<time>2026-07-12T11:23:33.000Z</time>
|
|
</trkpt>
|
|
<trkpt lat="55.999626" lon="8.126335">
|
|
<ele>4.367186</ele>
|
|
<time>2026-07-12T11:23:34.000Z</time>
|
|
</trkpt>
|
|
<trkpt lat="55.999615" lon="8.126321">
|
|
<ele>4.392094</ele>
|
|
<time>2026-07-12T11:23:35.000Z</time>
|
|
</trkpt>
|
|
<trkpt lat="55.999607" lon="8.126307">
|
|
<ele>4.412744</ele>
|
|
<time>2026-07-12T11:23:36.000Z</time>
|
|
</trkpt>
|
|
<trkpt lat="55.999599" lon="8.126294">
|
|
<ele>4.432686</ele>
|
|
<time>2026-07-12T11:23:37.000Z</time>
|
|
</trkpt>
|
|
<trkpt lat="55.999588" lon="8.126281">
|
|
<ele>4.457011</ele>
|
|
<time>2026-07-12T11:23:38.000Z</time>
|
|
</trkpt>
|
|
<trkpt lat="55.999580" lon="8.126270">
|
|
<ele>4.475628</ele>
|
|
<time>2026-07-12T11:23:39.000Z</time>
|
|
</trkpt>
|
|
<trkpt lat="55.999573" lon="8.126258">
|
|
<ele>4.493518</ele>
|
|
<time>2026-07-12T11:23:40.000Z</time>
|
|
</trkpt>
|
|
<trkpt lat="55.999565" lon="8.126245">
|
|
<ele>4.513460</ele>
|
|
<time>2026-07-12T11:23:41.000Z</time>
|
|
</trkpt>
|
|
<trkpt lat="55.999554" lon="8.126235">
|
|
<ele>4.536225</ele>
|
|
<time>2026-07-12T11:23:42.000Z</time>
|
|
</trkpt>
|
|
<trkpt lat="55.999546" lon="8.126225">
|
|
<ele>4.554232</ele>
|
|
<time>2026-07-12T11:23:43.000Z</time>
|
|
</trkpt>
|
|
<trkpt lat="55.999538" lon="8.126215">
|
|
<ele>4.572239</ele>
|
|
<time>2026-07-12T11:23:44.000Z</time>
|
|
</trkpt>
|
|
<trkpt lat="55.999531" lon="8.126206">
|
|
<ele>4.588145</ele>
|
|
<time>2026-07-12T11:23:45.000Z</time>
|
|
</trkpt>
|
|
<trkpt lat="55.999523" lon="8.126199">
|
|
<ele>4.604575</ele>
|
|
<time>2026-07-12T11:23:46.000Z</time>
|
|
</trkpt>
|
|
<trkpt lat="55.999519" lon="8.126191">
|
|
<ele>4.615647</ele>
|
|
<time>2026-07-12T11:23:47.000Z</time>
|
|
</trkpt>
|
|
<trkpt lat="55.999516" lon="8.126184">
|
|
<ele>4.624745</ele>
|
|
<time>2026-07-12T11:23:48.000Z</time>
|
|
</trkpt>
|
|
<trkpt lat="55.999512" lon="8.126173">
|
|
<ele>4.638282</ele>
|
|
<time>2026-07-12T11:23:49.000Z</time>
|
|
</trkpt>
|
|
<trkpt lat="55.999508" lon="8.126160">
|
|
<ele>4.653589</ele>
|
|
<time>2026-07-12T11:23:50.000Z</time>
|
|
</trkpt>
|
|
<trkpt lat="55.999500" lon="8.126147">
|
|
<ele>4.673531</ele>
|
|
<time>2026-07-12T11:23:51.000Z</time>
|
|
</trkpt>
|
|
<trkpt lat="55.999493" lon="8.126136">
|
|
<ele>4.690723</ele>
|
|
<time>2026-07-12T11:23:52.000Z</time>
|
|
</trkpt>
|
|
<trkpt lat="55.999489" lon="8.126123">
|
|
<ele>4.706030</ele>
|
|
<time>2026-07-12T11:23:53.000Z</time>
|
|
</trkpt>
|
|
<trkpt lat="55.999481" lon="8.126107">
|
|
<ele>4.728173</ele>
|
|
<time>2026-07-12T11:23:54.000Z</time>
|
|
</trkpt>
|
|
<trkpt lat="55.999474" lon="8.126092">
|
|
<ele>4.748328</ele>
|
|
<time>2026-07-12T11:23:55.000Z</time>
|
|
</trkpt>
|
|
<trkpt lat="55.999466" lon="8.126078">
|
|
<ele>4.768978</ele>
|
|
<time>2026-07-12T11:23:56.000Z</time>
|
|
</trkpt>
|
|
<trkpt lat="55.999462" lon="8.126063">
|
|
<ele>4.786122</ele>
|
|
<time>2026-07-12T11:23:57.000Z</time>
|
|
</trkpt>
|
|
<trkpt lat="55.999455" lon="8.126049">
|
|
<ele>4.805497</ele>
|
|
<time>2026-07-12T11:23:58.000Z</time>
|
|
</trkpt>
|
|
<trkpt lat="55.999451" lon="8.126038">
|
|
<ele>4.819033</ele>
|
|
<time>2026-07-12T11:23:59.000Z</time>
|
|
</trkpt>
|
|
<trkpt lat="55.999443" lon="8.126029">
|
|
<ele>4.836470</ele>
|
|
<time>2026-07-12T11:24:00.000Z</time>
|
|
</trkpt>
|
|
<trkpt lat="55.999435" lon="8.126021">
|
|
<ele>4.853380</ele>
|
|
<time>2026-07-12T11:24:01.000Z</time>
|
|
</trkpt>
|
|
<trkpt lat="55.999428" lon="8.126013">
|
|
<ele>4.868706</ele>
|
|
<time>2026-07-12T11:24:02.000Z</time>
|
|
</trkpt>
|
|
<trkpt lat="55.999416" lon="8.126005">
|
|
<ele>4.892332</ele>
|
|
<time>2026-07-12T11:24:03.000Z</time>
|
|
</trkpt>
|
|
<trkpt lat="55.999409" lon="8.125995">
|
|
<ele>4.908861</ele>
|
|
<time>2026-07-12T11:24:04.000Z</time>
|
|
</trkpt>
|
|
<trkpt lat="55.999401" lon="8.125985">
|
|
<ele>4.926868</ele>
|
|
<time>2026-07-12T11:24:05.000Z</time>
|
|
</trkpt>
|
|
<trkpt lat="55.999394" lon="8.125979">
|
|
<ele>4.941189</ele>
|
|
<time>2026-07-12T11:24:06.000Z</time>
|
|
</trkpt>
|
|
<trkpt lat="55.999386" lon="8.125975">
|
|
<ele>4.956514</ele>
|
|
<time>2026-07-12T11:24:07.000Z</time>
|
|
</trkpt>
|
|
<trkpt lat="55.999374" lon="8.125970">
|
|
<ele>4.979245</ele>
|
|
<time>2026-07-12T11:24:08.000Z</time>
|
|
</trkpt>
|
|
<trkpt lat="55.999363" lon="8.125964">
|
|
<ele>5.000462</ele>
|
|
<time>2026-07-12T11:24:09.000Z</time>
|
|
</trkpt>
|
|
<trkpt lat="55.999355" lon="8.125957">
|
|
<ele>5.016893</ele>
|
|
<time>2026-07-12T11:24:10.000Z</time>
|
|
</trkpt>
|
|
<trkpt lat="55.999348" lon="8.125950">
|
|
<ele>5.031689</ele>
|
|
<time>2026-07-12T11:24:11.000Z</time>
|
|
</trkpt>
|
|
<trkpt lat="55.999336" lon="8.125939">
|
|
<ele>5.056566</ele>
|
|
<time>2026-07-12T11:24:12.000Z</time>
|
|
</trkpt>
|
|
<trkpt lat="55.999329" lon="8.125929">
|
|
<ele>5.073095</ele>
|
|
<time>2026-07-12T11:24:13.000Z</time>
|
|
</trkpt>
|
|
<trkpt lat="55.999321" lon="8.125917">
|
|
<ele>5.092359</ele>
|
|
<time>2026-07-12T11:24:14.000Z</time>
|
|
</trkpt>
|
|
<trkpt lat="55.999310" lon="8.125907">
|
|
<ele>5.115124</ele>
|
|
<time>2026-07-12T11:24:15.000Z</time>
|
|
</trkpt>
|
|
<trkpt lat="55.999298" lon="8.125896">
|
|
<ele>5.140001</ele>
|
|
<time>2026-07-12T11:24:16.000Z</time>
|
|
</trkpt>
|
|
<trkpt lat="55.999290" lon="8.125884">
|
|
<ele>5.159265</ele>
|
|
<time>2026-07-12T11:24:17.000Z</time>
|
|
</trkpt>
|
|
<trkpt lat="55.999283" lon="8.125873">
|
|
<ele>5.176456</ele>
|
|
<time>2026-07-12T11:24:18.000Z</time>
|
|
</trkpt>
|
|
<trkpt lat="55.999271" lon="8.125862">
|
|
<ele>5.201334</ele>
|
|
<time>2026-07-12T11:24:19.000Z</time>
|
|
</trkpt>
|
|
<trkpt lat="55.999264" lon="8.125851">
|
|
<ele>5.218525</ele>
|
|
<time>2026-07-12T11:24:20.000Z</time>
|
|
</trkpt>
|
|
<trkpt lat="55.999252" lon="8.125839">
|
|
<ele>5.243890</ele>
|
|
<time>2026-07-12T11:24:21.000Z</time>
|
|
</trkpt>
|
|
<trkpt lat="55.999245" lon="8.125827">
|
|
<ele>5.261780</ele>
|
|
<time>2026-07-12T11:24:22.000Z</time>
|
|
</trkpt>
|
|
<trkpt lat="55.999233" lon="8.125815">
|
|
<ele>5.287144</ele>
|
|
<time>2026-07-12T11:24:23.000Z</time>
|
|
</trkpt>
|
|
<trkpt lat="55.999226" lon="8.125805">
|
|
<ele>5.303673</ele>
|
|
<time>2026-07-12T11:24:24.000Z</time>
|
|
</trkpt>
|
|
<trkpt lat="55.999218" lon="8.125796">
|
|
<ele>5.321110</ele>
|
|
<time>2026-07-12T11:24:25.000Z</time>
|
|
</trkpt>
|
|
<trkpt lat="55.999210" lon="8.125790">
|
|
<ele>5.337114</ele>
|
|
<time>2026-07-12T11:24:26.000Z</time>
|
|
</trkpt>
|
|
<trkpt lat="55.999203" lon="8.125785">
|
|
<ele>5.351020</ele>
|
|
<time>2026-07-12T11:24:27.000Z</time>
|
|
</trkpt>
|
|
<trkpt lat="55.999191" lon="8.125783">
|
|
<ele>5.373254</ele>
|
|
<time>2026-07-12T11:24:28.000Z</time>
|
|
</trkpt>
|
|
<trkpt lat="55.999180" lon="8.125787">
|
|
<ele>5.393963</ele>
|
|
<time>2026-07-12T11:24:29.000Z</time>
|
|
</trkpt>
|
|
<trkpt lat="55.999172" lon="8.125795">
|
|
<ele>5.410873</ele>
|
|
<time>2026-07-12T11:24:30.000Z</time>
|
|
</trkpt>
|
|
<trkpt lat="55.999165" lon="8.125805">
|
|
<ele>5.427402</ele>
|
|
<time>2026-07-12T11:24:31.000Z</time>
|
|
</trkpt>
|
|
<trkpt lat="55.999157" lon="8.125816">
|
|
<ele>5.446019</ele>
|
|
<time>2026-07-12T11:24:32.000Z</time>
|
|
</trkpt>
|
|
<trkpt lat="55.999149" lon="8.125829">
|
|
<ele>5.465961</ele>
|
|
<time>2026-07-12T11:24:33.000Z</time>
|
|
</trkpt>
|
|
<trkpt lat="55.999145" lon="8.125839">
|
|
<ele>5.478645</ele>
|
|
<time>2026-07-12T11:24:34.000Z</time>
|
|
</trkpt>
|
|
<trkpt lat="55.999142" lon="8.125846">
|
|
<ele>5.487744</ele>
|
|
<time>2026-07-12T11:24:35.000Z</time>
|
|
</trkpt>
|
|
<trkpt lat="55.999138" lon="8.125845">
|
|
<ele>5.495195</ele>
|
|
<time>2026-07-12T11:24:36.000Z</time>
|
|
</trkpt>
|
|
<trkpt lat="55.999130" lon="8.125841">
|
|
<ele>5.510520</ele>
|
|
<time>2026-07-12T11:24:37.000Z</time>
|
|
</trkpt>
|
|
<trkpt lat="55.999123" lon="8.125839">
|
|
<ele>5.523598</ele>
|
|
<time>2026-07-12T11:24:38.000Z</time>
|
|
</trkpt>
|
|
<trkpt lat="55.999119" lon="8.125842">
|
|
<ele>5.531600</ele>
|
|
<time>2026-07-12T11:24:39.000Z</time>
|
|
</trkpt>
|
|
<trkpt lat="55.999111" lon="8.125849">
|
|
<ele>5.548031</ele>
|
|
<time>2026-07-12T11:24:40.000Z</time>
|
|
</trkpt>
|
|
<trkpt lat="55.999107" lon="8.125854">
|
|
<ele>5.557035</ele>
|
|
<time>2026-07-12T11:24:41.000Z</time>
|
|
</trkpt>
|
|
<trkpt lat="55.999104" lon="8.125855">
|
|
<ele>5.562664</ele>
|
|
<time>2026-07-12T11:24:42.000Z</time>
|
|
</trkpt>
|
|
<trkpt lat="55.999100" lon="8.125857">
|
|
<ele>5.570327</ele>
|
|
<time>2026-07-12T11:24:43.000Z</time>
|
|
</trkpt>
|
|
<trkpt lat="55.999096" lon="8.125858">
|
|
<ele>5.577778</ele>
|
|
<time>2026-07-12T11:24:44.000Z</time>
|
|
</trkpt>
|
|
<trkpt lat="55.999092" lon="8.125859">
|
|
<ele>5.585229</ele>
|
|
<time>2026-07-12T11:24:45.000Z</time>
|
|
</trkpt>
|
|
<trkpt lat="55.999092" lon="8.125863">
|
|
<ele>5.589356</ele>
|
|
<time>2026-07-12T11:24:46.000Z</time>
|
|
</trkpt>
|
|
<trkpt lat="55.999077" lon="8.125921">
|
|
<ele>5.655281</ele>
|
|
<time>2026-07-12T11:24:51.000Z</time>
|
|
</trkpt>
|
|
<trkpt lat="55.999077" lon="8.125936">
|
|
<ele>5.670756</ele>
|
|
<time>2026-07-12T11:24:52.000Z</time>
|
|
</trkpt>
|
|
<trkpt lat="55.999077" lon="8.125947">
|
|
<ele>5.682104</ele>
|
|
<time>2026-07-12T11:24:53.000Z</time>
|
|
</trkpt>
|
|
<trkpt lat="55.999077" lon="8.125957">
|
|
<ele>5.692421</ele>
|
|
<time>2026-07-12T11:24:54.000Z</time>
|
|
</trkpt>
|
|
<trkpt lat="55.999073" lon="8.125967">
|
|
<ele>5.705105</ele>
|
|
<time>2026-07-12T11:24:55.000Z</time>
|
|
</trkpt>
|
|
<trkpt lat="55.999069" lon="8.125978">
|
|
<ele>5.718642</ele>
|
|
<time>2026-07-12T11:24:56.000Z</time>
|
|
</trkpt>
|
|
<trkpt lat="55.999065" lon="8.125994">
|
|
<ele>5.736723</ele>
|
|
<time>2026-07-12T11:24:57.000Z</time>
|
|
</trkpt>
|
|
<trkpt lat="55.999065" lon="8.126006">
|
|
<ele>5.749103</ele>
|
|
<time>2026-07-12T11:24:58.000Z</time>
|
|
</trkpt>
|
|
<trkpt lat="55.999062" lon="8.126020">
|
|
<ele>5.764570</ele>
|
|
<time>2026-07-12T11:24:59.000Z</time>
|
|
</trkpt>
|
|
<trkpt lat="55.999054" lon="8.126030">
|
|
<ele>5.782577</ele>
|
|
<time>2026-07-12T11:25:00.000Z</time>
|
|
</trkpt>
|
|
<trkpt lat="55.999046" lon="8.126038">
|
|
<ele>5.799487</ele>
|
|
<time>2026-07-12T11:25:01.000Z</time>
|
|
</trkpt>
|
|
<trkpt lat="55.999035" lon="8.126042">
|
|
<ele>5.820196</ele>
|
|
<time>2026-07-12T11:25:02.000Z</time>
|
|
</trkpt>
|
|
<trkpt lat="55.999023" lon="8.126048">
|
|
<ele>5.843183</ele>
|
|
<time>2026-07-12T11:25:03.000Z</time>
|
|
</trkpt>
|
|
<trkpt lat="55.999012" lon="8.126059">
|
|
<ele>5.866434</ele>
|
|
<time>2026-07-12T11:25:04.000Z</time>
|
|
</trkpt>
|
|
<trkpt lat="55.999008" lon="8.126072">
|
|
<ele>5.881742</ele>
|
|
<time>2026-07-12T11:25:05.000Z</time>
|
|
</trkpt>
|
|
<trkpt lat="55.999008" lon="8.126086">
|
|
<ele>5.896185</ele>
|
|
<time>2026-07-12T11:25:06.000Z</time>
|
|
</trkpt>
|
|
<trkpt lat="55.999001" lon="8.126100">
|
|
<ele>5.915560</ele>
|
|
<time>2026-07-12T11:25:07.000Z</time>
|
|
</trkpt>
|
|
<trkpt lat="55.998993" lon="8.126112">
|
|
<ele>5.934823</ele>
|
|
<time>2026-07-12T11:25:08.000Z</time>
|
|
</trkpt>
|
|
<trkpt lat="55.998989" lon="8.126124">
|
|
<ele>5.949236</ele>
|
|
<time>2026-07-12T11:25:09.000Z</time>
|
|
</trkpt>
|
|
<trkpt lat="55.998985" lon="8.126136">
|
|
<ele>5.963648</ele>
|
|
<time>2026-07-12T11:25:10.000Z</time>
|
|
</trkpt>
|
|
<trkpt lat="55.998978" lon="8.126148">
|
|
<ele>5.981538</ele>
|
|
<time>2026-07-12T11:25:11.000Z</time>
|
|
</trkpt>
|
|
<trkpt lat="55.998970" lon="8.126155">
|
|
<ele>5.997968</ele>
|
|
<time>2026-07-12T11:25:12.000Z</time>
|
|
</trkpt>
|
|
<trkpt lat="55.998959" lon="8.126159">
|
|
<ele>6.018677</ele>
|
|
<time>2026-07-12T11:25:13.000Z</time>
|
|
</trkpt>
|
|
<trkpt lat="55.998955" lon="8.126167">
|
|
<ele>6.029749</ele>
|
|
<time>2026-07-12T11:25:14.000Z</time>
|
|
</trkpt>
|
|
<trkpt lat="55.998947" lon="8.126174">
|
|
<ele>6.046179</ele>
|
|
<time>2026-07-12T11:25:15.000Z</time>
|
|
</trkpt>
|
|
<trkpt lat="55.998940" lon="8.126177">
|
|
<ele>6.059459</ele>
|
|
<time>2026-07-12T11:25:16.000Z</time>
|
|
</trkpt>
|
|
<trkpt lat="55.998936" lon="8.126178">
|
|
<ele>6.066910</ele>
|
|
<time>2026-07-12T11:25:17.000Z</time>
|
|
</trkpt>
|
|
<trkpt lat="55.998932" lon="8.126181">
|
|
<ele>6.074913</ele>
|
|
<time>2026-07-12T11:25:18.000Z</time>
|
|
</trkpt>
|
|
<trkpt lat="55.998924" lon="8.126180">
|
|
<ele>6.089707</ele>
|
|
<time>2026-07-12T11:25:19.000Z</time>
|
|
</trkpt>
|
|
<trkpt lat="55.998920" lon="8.126175">
|
|
<ele>6.098711</ele>
|
|
<time>2026-07-12T11:25:20.000Z</time>
|
|
</trkpt>
|
|
<trkpt lat="55.998913" lon="8.126168">
|
|
<ele>6.114968</ele>
|
|
<time>2026-07-12T11:25:21.000Z</time>
|
|
</trkpt>
|
|
<trkpt lat="55.998905" lon="8.126162">
|
|
<ele>6.195580</ele>
|
|
<time>2026-07-12T11:25:22.000Z</time>
|
|
</trkpt>
|
|
<trkpt lat="55.998898" lon="8.126155">
|
|
<ele>6.270106</ele>
|
|
<time>2026-07-12T11:25:23.000Z</time>
|
|
</trkpt>
|
|
<trkpt lat="55.998886" lon="8.126147">
|
|
<ele>6.389110</ele>
|
|
<time>2026-07-12T11:25:24.000Z</time>
|
|
</trkpt>
|
|
<trkpt lat="55.998879" lon="8.126142">
|
|
<ele>6.459153</ele>
|
|
<time>2026-07-12T11:25:25.000Z</time>
|
|
</trkpt>
|
|
<trkpt lat="55.998871" lon="8.126139">
|
|
<ele>6.535109</ele>
|
|
<time>2026-07-12T11:25:26.000Z</time>
|
|
</trkpt>
|
|
<trkpt lat="55.998863" lon="8.126135">
|
|
<ele>6.612298</ele>
|
|
<time>2026-07-12T11:25:27.000Z</time>
|
|
</trkpt>
|
|
<trkpt lat="55.998856" lon="8.126129">
|
|
<ele>6.684431</ele>
|
|
<time>2026-07-12T11:25:28.000Z</time>
|
|
</trkpt>
|
|
<trkpt lat="55.998852" lon="8.126125">
|
|
<ele>6.727017</ele>
|
|
<time>2026-07-12T11:25:29.000Z</time>
|
|
</trkpt>
|
|
<trkpt lat="55.998844" lon="8.126121">
|
|
<ele>6.804206</ele>
|
|
<time>2026-07-12T11:25:30.000Z</time>
|
|
</trkpt>
|
|
<trkpt lat="55.998837" lon="8.126121">
|
|
<ele>6.869252</ele>
|
|
<time>2026-07-12T11:25:31.000Z</time>
|
|
</trkpt>
|
|
<trkpt lat="55.998833" lon="8.126125">
|
|
<ele>6.911839</ele>
|
|
<time>2026-07-12T11:25:32.000Z</time>
|
|
</trkpt>
|
|
<trkpt lat="55.998829" lon="8.126127">
|
|
<ele>6.950433</ele>
|
|
<time>2026-07-12T11:25:33.000Z</time>
|
|
</trkpt>
|
|
<trkpt lat="55.998833" lon="8.126131">
|
|
<ele>6.993020</ele>
|
|
<time>2026-07-12T11:25:34.000Z</time>
|
|
</trkpt>
|
|
<trkpt lat="55.998833" lon="8.126132">
|
|
<ele>6.998216</ele>
|
|
<time>2026-07-12T11:25:35.000Z</time>
|
|
</trkpt>
|
|
<trkpt lat="55.998833" lon="8.126132">
|
|
<ele>6.998216</ele>
|
|
<time>2026-07-12T11:25:36.000Z</time>
|
|
</trkpt>
|
|
<trkpt lat="56.000224" lon="8.127303">
|
|
<ele>21.284422</ele>
|
|
<time>2026-07-12T13:00:01.000Z</time>
|
|
</trkpt>
|
|
<trkpt lat="56.000211" lon="8.127337">
|
|
<ele>21.498442</ele>
|
|
<time>2026-07-12T13:00:02.000Z</time>
|
|
</trkpt>
|
|
<trkpt lat="56.000194" lon="8.127372">
|
|
<ele>21.739335</ele>
|
|
<time>2026-07-12T13:00:03.000Z</time>
|
|
</trkpt>
|
|
<trkpt lat="56.000177" lon="8.127406">
|
|
<ele>21.976329</ele>
|
|
<time>2026-07-12T13:00:04.000Z</time>
|
|
</trkpt>
|
|
<trkpt lat="56.000162" lon="8.127444">
|
|
<ele>22.218024</ele>
|
|
<time>2026-07-12T13:00:05.000Z</time>
|
|
</trkpt>
|
|
<trkpt lat="56.000147" lon="8.127487">
|
|
<ele>22.481370</ele>
|
|
<time>2026-07-12T13:00:06.000Z</time>
|
|
</trkpt>
|
|
<trkpt lat="56.000130" lon="8.127531">
|
|
<ele>22.759267</ele>
|
|
<time>2026-07-12T13:00:07.000Z</time>
|
|
</trkpt>
|
|
<trkpt lat="56.000114" lon="8.127575">
|
|
<ele>22.877677</ele>
|
|
<time>2026-07-12T13:00:08.000Z</time>
|
|
</trkpt>
|
|
<trkpt lat="56.000099" lon="8.127615">
|
|
<ele>22.939844</ele>
|
|
<time>2026-07-12T13:00:09.000Z</time>
|
|
</trkpt>
|
|
<trkpt lat="56.000080" lon="8.127655">
|
|
<ele>23.007589</ele>
|
|
<time>2026-07-12T13:00:10.000Z</time>
|
|
</trkpt>
|
|
<trkpt lat="56.000063" lon="8.127697">
|
|
<ele>23.074515</ele>
|
|
<time>2026-07-12T13:00:11.000Z</time>
|
|
</trkpt>
|
|
<trkpt lat="56.000046" lon="8.127739">
|
|
<ele>23.141441</ele>
|
|
<time>2026-07-12T13:00:12.000Z</time>
|
|
</trkpt>
|
|
<trkpt lat="56.000028" lon="8.127782">
|
|
<ele>23.210774</ele>
|
|
<time>2026-07-12T13:00:13.000Z</time>
|
|
</trkpt>
|
|
<trkpt lat="56.000011" lon="8.127824">
|
|
<ele>23.277700</ele>
|
|
<time>2026-07-12T13:00:14.000Z</time>
|
|
</trkpt>
|
|
<trkpt lat="55.999992" lon="8.127865">
|
|
<ele>23.346434</ele>
|
|
<time>2026-07-12T13:00:15.000Z</time>
|
|
</trkpt>
|
|
<trkpt lat="55.999973" lon="8.127905">
|
|
<ele>23.414180</ele>
|
|
<time>2026-07-12T13:00:16.000Z</time>
|
|
</trkpt>
|
|
<trkpt lat="55.999956" lon="8.127944">
|
|
<ele>23.478009</ele>
|
|
<time>2026-07-12T13:00:17.000Z</time>
|
|
</trkpt>
|
|
<trkpt lat="55.999942" lon="8.127980">
|
|
<ele>23.534611</ele>
|
|
<time>2026-07-12T13:00:18.000Z</time>
|
|
</trkpt>
|
|
<trkpt lat="55.999929" lon="8.128014">
|
|
<ele>23.587777</ele>
|
|
<time>2026-07-12T13:00:19.000Z</time>
|
|
</trkpt>
|
|
<trkpt lat="55.999915" lon="8.128048">
|
|
<ele>23.642279</ele>
|
|
<time>2026-07-12T13:00:20.000Z</time>
|
|
</trkpt>
|
|
<trkpt lat="55.999903" lon="8.128079">
|
|
<ele>23.690946</ele>
|
|
<time>2026-07-12T13:00:21.000Z</time>
|
|
</trkpt>
|
|
<trkpt lat="55.999890" lon="8.128107">
|
|
<ele>23.737922</ele>
|
|
<time>2026-07-12T13:00:22.000Z</time>
|
|
</trkpt>
|
|
<trkpt lat="55.999879" lon="8.128132">
|
|
<ele>23.778985</ele>
|
|
<time>2026-07-12T13:00:23.000Z</time>
|
|
</trkpt>
|
|
<trkpt lat="55.999871" lon="8.128147">
|
|
<ele>23.805741</ele>
|
|
<time>2026-07-12T13:00:24.000Z</time>
|
|
</trkpt>
|
|
<trkpt lat="55.999866" lon="8.128153">
|
|
<ele>23.819641</ele>
|
|
<time>2026-07-12T13:00:25.000Z</time>
|
|
</trkpt>
|
|
<trkpt lat="55.999866" lon="8.128154">
|
|
<ele>23.820931</ele>
|
|
<time>2026-07-12T13:00:26.000Z</time>
|
|
</trkpt>
|
|
<trkpt lat="55.999866" lon="8.128155">
|
|
<ele>23.822222</ele>
|
|
<time>2026-07-12T13:00:27.000Z</time>
|
|
</trkpt>
|
|
<trkpt lat="55.999862" lon="8.128167">
|
|
<ele>23.840255</ele>
|
|
<time>2026-07-12T13:00:29.000Z</time>
|
|
</trkpt>
|
|
<trkpt lat="55.999852" lon="8.128197">
|
|
<ele>23.885337</ele>
|
|
<time>2026-07-12T13:00:30.000Z</time>
|
|
</trkpt>
|
|
<trkpt lat="55.999843" lon="8.128223">
|
|
<ele>23.924808</ele>
|
|
<time>2026-07-12T13:00:31.000Z</time>
|
|
</trkpt>
|
|
<trkpt lat="55.999831" lon="8.128246">
|
|
<ele>23.965413</ele>
|
|
<time>2026-07-12T13:00:32.000Z</time>
|
|
</trkpt>
|
|
<trkpt lat="55.999817" lon="8.128270">
|
|
<ele>24.010180</ele>
|
|
<time>2026-07-12T13:00:33.000Z</time>
|
|
</trkpt>
|
|
<trkpt lat="55.999800" lon="8.128295">
|
|
<ele>24.060986</ele>
|
|
<time>2026-07-12T13:00:34.000Z</time>
|
|
</trkpt>
|
|
<trkpt lat="55.999783" lon="8.128315">
|
|
<ele>24.107958</ele>
|
|
<time>2026-07-12T13:00:35.000Z</time>
|
|
</trkpt>
|
|
<trkpt lat="55.999763" lon="8.128334">
|
|
<ele>24.160235</ele>
|
|
<time>2026-07-12T13:00:36.000Z</time>
|
|
</trkpt>
|
|
<trkpt lat="55.999745" lon="8.128358">
|
|
<ele>24.212063</ele>
|
|
<time>2026-07-12T13:00:37.000Z</time>
|
|
</trkpt>
|
|
<trkpt lat="55.999728" lon="8.128392">
|
|
<ele>24.270936</ele>
|
|
<time>2026-07-12T13:00:38.000Z</time>
|
|
</trkpt>
|
|
<trkpt lat="55.999719" lon="8.128437">
|
|
<ele>24.332626</ele>
|
|
<time>2026-07-12T13:00:39.000Z</time>
|
|
</trkpt>
|
|
<trkpt lat="55.999715" lon="8.128486">
|
|
<ele>24.396547</ele>
|
|
<time>2026-07-12T13:00:40.000Z</time>
|
|
</trkpt>
|
|
<trkpt lat="55.999722" lon="8.128538">
|
|
<ele>24.465586</ele>
|
|
<time>2026-07-12T13:00:41.000Z</time>
|
|
</trkpt>
|
|
<trkpt lat="55.999737" lon="8.128585">
|
|
<ele>24.535440</ele>
|
|
<time>2026-07-12T13:00:42.000Z</time>
|
|
</trkpt>
|
|
<trkpt lat="55.999760" lon="8.128617">
|
|
<ele>24.602708</ele>
|
|
<time>2026-07-12T13:00:43.000Z</time>
|
|
</trkpt>
|
|
<trkpt lat="55.999790" lon="8.128633">
|
|
<ele>24.674972</ele>
|
|
<time>2026-07-12T13:00:44.000Z</time>
|
|
</trkpt>
|
|
<trkpt lat="55.999821" lon="8.128644">
|
|
<ele>24.747925</ele>
|
|
<time>2026-07-12T13:00:45.000Z</time>
|
|
</trkpt>
|
|
<trkpt lat="55.999849" lon="8.128656">
|
|
<ele>24.814389</ele>
|
|
<time>2026-07-12T13:00:46.000Z</time>
|
|
</trkpt>
|
|
<trkpt lat="55.999872" lon="8.128670">
|
|
<ele>24.870472</ele>
|
|
<time>2026-07-12T13:00:47.000Z</time>
|
|
</trkpt>
|
|
<trkpt lat="55.999895" lon="8.128684">
|
|
<ele>24.926555</ele>
|
|
<time>2026-07-12T13:00:48.000Z</time>
|
|
</trkpt>
|
|
<trkpt lat="55.999918" lon="8.128700">
|
|
<ele>24.983522</ele>
|
|
<time>2026-07-12T13:00:49.000Z</time>
|
|
</trkpt>
|
|
<trkpt lat="55.999939" lon="8.128716">
|
|
<ele>25.036214</ele>
|
|
<time>2026-07-12T13:00:50.000Z</time>
|
|
</trkpt>
|
|
<trkpt lat="55.999958" lon="8.128731">
|
|
<ele>25.084156</ele>
|
|
<time>2026-07-12T13:00:51.000Z</time>
|
|
</trkpt>
|
|
<trkpt lat="55.999975" lon="8.128746">
|
|
<ele>25.127914</ele>
|
|
<time>2026-07-12T13:00:52.000Z</time>
|
|
</trkpt>
|
|
<trkpt lat="55.999991" lon="8.128762">
|
|
<ele>25.170230</ele>
|
|
<time>2026-07-12T13:00:53.000Z</time>
|
|
</trkpt>
|
|
<trkpt lat="56.000007" lon="8.128782">
|
|
<ele>25.215292</ele>
|
|
<time>2026-07-12T13:00:54.000Z</time>
|
|
</trkpt>
|
|
<trkpt lat="56.000026" lon="8.128803">
|
|
<ele>25.266851</ele>
|
|
<time>2026-07-12T13:00:55.000Z</time>
|
|
</trkpt>
|
|
<trkpt lat="56.000047" lon="8.128829">
|
|
<ele>25.325810</ele>
|
|
<time>2026-07-12T13:00:56.000Z</time>
|
|
</trkpt>
|
|
<trkpt lat="56.000069" lon="8.128856">
|
|
<ele>25.387402</ele>
|
|
<time>2026-07-12T13:00:57.000Z</time>
|
|
</trkpt>
|
|
<trkpt lat="56.000088" lon="8.128881">
|
|
<ele>25.441853</ele>
|
|
<time>2026-07-12T13:00:58.000Z</time>
|
|
</trkpt>
|
|
<trkpt lat="56.000107" lon="8.128904">
|
|
<ele>25.494815</ele>
|
|
<time>2026-07-12T13:00:59.000Z</time>
|
|
</trkpt>
|
|
<trkpt lat="56.000126" lon="8.128928">
|
|
<ele>25.548511</ele>
|
|
<time>2026-07-12T13:01:00.000Z</time>
|
|
</trkpt>
|
|
<trkpt lat="56.000143" lon="8.128950">
|
|
<ele>25.596950</ele>
|
|
<time>2026-07-12T13:01:01.000Z</time>
|
|
</trkpt>
|
|
<trkpt lat="56.000160" lon="8.128971">
|
|
<ele>25.644644</ele>
|
|
<time>2026-07-12T13:01:02.000Z</time>
|
|
</trkpt>
|
|
<trkpt lat="56.000178" lon="8.128988">
|
|
<ele>25.691632</ele>
|
|
<time>2026-07-12T13:01:03.000Z</time>
|
|
</trkpt>
|
|
<trkpt lat="56.000193" lon="8.129006">
|
|
<ele>25.733330</ele>
|
|
<time>2026-07-12T13:01:04.000Z</time>
|
|
</trkpt>
|
|
<trkpt lat="56.000210" lon="8.129025">
|
|
<ele>25.779606</ele>
|
|
<time>2026-07-12T13:01:05.000Z</time>
|
|
</trkpt>
|
|
<trkpt lat="56.000227" lon="8.129043">
|
|
<ele>25.825210</ele>
|
|
<time>2026-07-12T13:01:06.000Z</time>
|
|
</trkpt>
|
|
<trkpt lat="56.000246" lon="8.129060">
|
|
<ele>25.874252</ele>
|
|
<time>2026-07-12T13:01:07.000Z</time>
|
|
</trkpt>
|
|
<trkpt lat="56.000267" lon="8.129076">
|
|
<ele>25.926943</ele>
|
|
<time>2026-07-12T13:01:08.000Z</time>
|
|
</trkpt>
|
|
<trkpt lat="56.000286" lon="8.129092">
|
|
<ele>25.975421</ele>
|
|
<time>2026-07-12T13:01:09.000Z</time>
|
|
</trkpt>
|
|
<trkpt lat="56.000304" lon="8.129112">
|
|
<ele>26.024338</ele>
|
|
<time>2026-07-12T13:01:10.000Z</time>
|
|
</trkpt>
|
|
<trkpt lat="56.000317" lon="8.129132">
|
|
<ele>26.063922</ele>
|
|
<time>2026-07-12T13:01:11.000Z</time>
|
|
</trkpt>
|
|
<trkpt lat="56.000330" lon="8.129151">
|
|
<ele>26.102678</ele>
|
|
<time>2026-07-12T13:01:12.000Z</time>
|
|
</trkpt>
|
|
<trkpt lat="56.000346" lon="8.129171">
|
|
<ele>26.147739</ele>
|
|
<time>2026-07-12T13:01:13.000Z</time>
|
|
</trkpt>
|
|
<trkpt lat="56.000359" lon="8.129188">
|
|
<ele>26.184915</ele>
|
|
<time>2026-07-12T13:01:14.000Z</time>
|
|
</trkpt>
|
|
<trkpt lat="56.000371" lon="8.129204">
|
|
<ele>26.219467</ele>
|
|
<time>2026-07-12T13:01:15.000Z</time>
|
|
</trkpt>
|
|
<trkpt lat="56.000381" lon="8.129217">
|
|
<ele>26.248005</ele>
|
|
<time>2026-07-12T13:01:16.000Z</time>
|
|
</trkpt>
|
|
<trkpt lat="56.000388" lon="8.129226">
|
|
<ele>26.267906</ele>
|
|
<time>2026-07-12T13:01:17.000Z</time>
|
|
</trkpt>
|
|
<trkpt lat="56.000396" lon="8.129236">
|
|
<ele>26.290436</ele>
|
|
<time>2026-07-12T13:01:18.000Z</time>
|
|
</trkpt>
|
|
<trkpt lat="56.000405" lon="8.129248">
|
|
<ele>26.316350</ele>
|
|
<time>2026-07-12T13:01:19.000Z</time>
|
|
</trkpt>
|
|
<trkpt lat="56.000419" lon="8.129266">
|
|
<ele>26.356152</ele>
|
|
<time>2026-07-12T13:01:20.000Z</time>
|
|
</trkpt>
|
|
<trkpt lat="56.000436" lon="8.129289">
|
|
<ele>26.405359</ele>
|
|
<time>2026-07-12T13:01:21.000Z</time>
|
|
</trkpt>
|
|
<trkpt lat="56.000447" lon="8.129309">
|
|
<ele>26.441569</ele>
|
|
<time>2026-07-12T13:01:22.000Z</time>
|
|
</trkpt>
|
|
<trkpt lat="56.000457" lon="8.129321">
|
|
<ele>26.469368</ele>
|
|
<time>2026-07-12T13:01:23.000Z</time>
|
|
</trkpt>
|
|
<trkpt lat="56.000463" lon="8.129328">
|
|
<ele>26.485905</ele>
|
|
<time>2026-07-12T13:01:24.000Z</time>
|
|
</trkpt>
|
|
<trkpt lat="56.000468" lon="8.129332">
|
|
<ele>26.498549</ele>
|
|
<time>2026-07-12T13:01:25.000Z</time>
|
|
</trkpt>
|
|
<trkpt lat="56.000476" lon="8.129340">
|
|
<ele>26.519706</ele>
|
|
<time>2026-07-12T13:01:26.000Z</time>
|
|
</trkpt>
|
|
<trkpt lat="56.000487" lon="8.129351">
|
|
<ele>26.548798</ele>
|
|
<time>2026-07-12T13:01:27.000Z</time>
|
|
</trkpt>
|
|
<trkpt lat="56.000500" lon="8.129368">
|
|
<ele>26.585974</ele>
|
|
<time>2026-07-12T13:01:28.000Z</time>
|
|
</trkpt>
|
|
<trkpt lat="56.000517" lon="8.129393">
|
|
<ele>26.636780</ele>
|
|
<time>2026-07-12T13:01:29.000Z</time>
|
|
</trkpt>
|
|
<trkpt lat="56.000544" lon="8.129426">
|
|
<ele>26.712271</ele>
|
|
<time>2026-07-12T13:01:30.000Z</time>
|
|
</trkpt>
|
|
<trkpt lat="56.000577" lon="8.129461">
|
|
<ele>26.800835</ele>
|
|
<time>2026-07-12T13:01:31.000Z</time>
|
|
</trkpt>
|
|
<trkpt lat="56.000610" lon="8.129494">
|
|
<ele>26.888111</ele>
|
|
<time>2026-07-12T13:01:32.000Z</time>
|
|
</trkpt>
|
|
<trkpt lat="56.000648" lon="8.129528">
|
|
<ele>26.977915</ele>
|
|
<time>2026-07-12T13:01:33.000Z</time>
|
|
</trkpt>
|
|
<trkpt lat="56.000685" lon="8.129560">
|
|
<ele>26.970072</ele>
|
|
<time>2026-07-12T13:01:34.000Z</time>
|
|
</trkpt>
|
|
<trkpt lat="56.000720" lon="8.129590">
|
|
<ele>26.962665</ele>
|
|
<time>2026-07-12T13:01:35.000Z</time>
|
|
</trkpt>
|
|
<trkpt lat="56.000755" lon="8.129618">
|
|
<ele>26.955348</ele>
|
|
<time>2026-07-12T13:01:36.000Z</time>
|
|
</trkpt>
|
|
<trkpt lat="56.000793" lon="8.129645">
|
|
<ele>26.947545</ele>
|
|
<time>2026-07-12T13:01:37.000Z</time>
|
|
</trkpt>
|
|
<trkpt lat="56.000830" lon="8.129667">
|
|
<ele>26.940104</ele>
|
|
<time>2026-07-12T13:01:38.000Z</time>
|
|
</trkpt>
|
|
<trkpt lat="56.000864" lon="8.129688">
|
|
<ele>26.933239</ele>
|
|
<time>2026-07-12T13:01:39.000Z</time>
|
|
</trkpt>
|
|
<trkpt lat="56.000899" lon="8.129709">
|
|
<ele>26.926194</ele>
|
|
<time>2026-07-12T13:01:40.000Z</time>
|
|
</trkpt>
|
|
<trkpt lat="56.000931" lon="8.129727">
|
|
<ele>26.919792</ele>
|
|
<time>2026-07-12T13:01:41.000Z</time>
|
|
</trkpt>
|
|
<trkpt lat="56.000964" lon="8.129742">
|
|
<ele>26.913294</ele>
|
|
<time>2026-07-12T13:01:42.000Z</time>
|
|
</trkpt>
|
|
<trkpt lat="56.000996" lon="8.129755">
|
|
<ele>26.907032</ele>
|
|
<time>2026-07-12T13:01:43.000Z</time>
|
|
</trkpt>
|
|
<trkpt lat="56.001027" lon="8.129766">
|
|
<ele>26.901000</ele>
|
|
<time>2026-07-12T13:01:44.000Z</time>
|
|
</trkpt>
|
|
<trkpt lat="56.001057" lon="8.129777">
|
|
<ele>26.895156</ele>
|
|
<time>2026-07-12T13:01:45.000Z</time>
|
|
</trkpt>
|
|
<trkpt lat="56.001086" lon="8.129784">
|
|
<ele>26.889572</ele>
|
|
<time>2026-07-12T13:01:46.000Z</time>
|
|
</trkpt>
|
|
<trkpt lat="56.001113" lon="8.129792">
|
|
<ele>26.884349</ele>
|
|
<time>2026-07-12T13:01:47.000Z</time>
|
|
</trkpt>
|
|
<trkpt lat="56.001141" lon="8.129800">
|
|
<ele>26.878937</ele>
|
|
<time>2026-07-12T13:01:48.000Z</time>
|
|
</trkpt>
|
|
<trkpt lat="56.001170" lon="8.129810">
|
|
<ele>26.873301</ele>
|
|
<time>2026-07-12T13:01:49.000Z</time>
|
|
</trkpt>
|
|
<trkpt lat="56.001197" lon="8.129821">
|
|
<ele>26.868017</ele>
|
|
<time>2026-07-12T13:01:50.000Z</time>
|
|
</trkpt>
|
|
<trkpt lat="56.001224" lon="8.129830">
|
|
<ele>26.862775</ele>
|
|
<time>2026-07-12T13:01:51.000Z</time>
|
|
</trkpt>
|
|
<trkpt lat="56.001252" lon="8.129839">
|
|
<ele>26.857346</ele>
|
|
<time>2026-07-12T13:01:52.000Z</time>
|
|
</trkpt>
|
|
<trkpt lat="56.001282" lon="8.129850">
|
|
<ele>26.851502</ele>
|
|
<time>2026-07-12T13:01:53.000Z</time>
|
|
</trkpt>
|
|
<trkpt lat="56.001311" lon="8.129861">
|
|
<ele>26.845844</ele>
|
|
<time>2026-07-12T13:01:54.000Z</time>
|
|
</trkpt>
|
|
<trkpt lat="56.001337" lon="8.129869">
|
|
<ele>26.840810</ele>
|
|
<time>2026-07-12T13:01:55.000Z</time>
|
|
</trkpt>
|
|
<trkpt lat="56.001361" lon="8.129876">
|
|
<ele>26.836169</ele>
|
|
<time>2026-07-12T13:01:56.000Z</time>
|
|
</trkpt>
|
|
<trkpt lat="56.001387" lon="8.129883">
|
|
<ele>26.831151</ele>
|
|
<time>2026-07-12T13:01:57.000Z</time>
|
|
</trkpt>
|
|
<trkpt lat="56.001415" lon="8.129890">
|
|
<ele>26.825756</ele>
|
|
<time>2026-07-12T13:01:58.000Z</time>
|
|
</trkpt>
|
|
<trkpt lat="56.001448" lon="8.129899">
|
|
<ele>26.819385</ele>
|
|
<time>2026-07-12T13:01:59.000Z</time>
|
|
</trkpt>
|
|
<trkpt lat="56.001482" lon="8.129908">
|
|
<ele>26.812826</ele>
|
|
<time>2026-07-12T13:02:00.000Z</time>
|
|
</trkpt>
|
|
<trkpt lat="56.001515" lon="8.129920">
|
|
<ele>26.806400</ele>
|
|
<time>2026-07-12T13:02:01.000Z</time>
|
|
</trkpt>
|
|
<trkpt lat="56.001547" lon="8.129931">
|
|
<ele>26.800181</ele>
|
|
<time>2026-07-12T13:02:02.000Z</time>
|
|
</trkpt>
|
|
<trkpt lat="56.001581" lon="8.129943">
|
|
<ele>26.793567</ele>
|
|
<time>2026-07-12T13:02:03.000Z</time>
|
|
</trkpt>
|
|
<trkpt lat="56.001612" lon="8.129955">
|
|
<ele>26.787514</ele>
|
|
<time>2026-07-12T13:02:04.000Z</time>
|
|
</trkpt>
|
|
<trkpt lat="56.001638" lon="8.129967">
|
|
<ele>26.782390</ele>
|
|
<time>2026-07-12T13:02:05.000Z</time>
|
|
</trkpt>
|
|
<trkpt lat="56.001656" lon="8.129978">
|
|
<ele>26.778760</ele>
|
|
<time>2026-07-12T13:02:06.000Z</time>
|
|
</trkpt>
|
|
<trkpt lat="56.001706" lon="8.130001">
|
|
<ele>26.768907</ele>
|
|
<time>2026-07-12T13:02:46.000Z</time>
|
|
</trkpt>
|
|
<trkpt lat="56.001716" lon="8.130004">
|
|
<ele>26.766972</ele>
|
|
<time>2026-07-12T13:02:47.000Z</time>
|
|
</trkpt>
|
|
<trkpt lat="56.001729" lon="8.130006">
|
|
<ele>26.764482</ele>
|
|
<time>2026-07-12T13:02:48.000Z</time>
|
|
</trkpt>
|
|
<trkpt lat="56.001753" lon="8.130011">
|
|
<ele>26.759871</ele>
|
|
<time>2026-07-12T13:02:49.000Z</time>
|
|
</trkpt>
|
|
<trkpt lat="56.001778" lon="8.130015">
|
|
<ele>26.755081</ele>
|
|
<time>2026-07-12T13:02:50.000Z</time>
|
|
</trkpt>
|
|
<trkpt lat="56.001802" lon="8.130021">
|
|
<ele>26.750457</ele>
|
|
<time>2026-07-12T13:02:51.000Z</time>
|
|
</trkpt>
|
|
<trkpt lat="56.001826" lon="8.130027">
|
|
<ele>26.745832</ele>
|
|
<time>2026-07-12T13:02:52.000Z</time>
|
|
</trkpt>
|
|
<trkpt lat="56.001850" lon="8.130033">
|
|
<ele>26.741207</ele>
|
|
<time>2026-07-12T13:02:53.000Z</time>
|
|
</trkpt>
|
|
<trkpt lat="56.001874" lon="8.130040">
|
|
<ele>26.736567</ele>
|
|
<time>2026-07-12T13:02:54.000Z</time>
|
|
</trkpt>
|
|
<trkpt lat="56.001904" lon="8.130050">
|
|
<ele>26.730743</ele>
|
|
<time>2026-07-12T13:02:55.000Z</time>
|
|
</trkpt>
|
|
<trkpt lat="56.001931" lon="8.130058">
|
|
<ele>26.725520</ele>
|
|
<time>2026-07-12T13:02:56.000Z</time>
|
|
</trkpt>
|
|
<trkpt lat="56.001955" lon="8.130064">
|
|
<ele>26.720895</ele>
|
|
<time>2026-07-12T13:02:57.000Z</time>
|
|
</trkpt>
|
|
<trkpt lat="56.001984" lon="8.130067">
|
|
<ele>26.715352</ele>
|
|
<time>2026-07-12T13:02:58.000Z</time>
|
|
</trkpt>
|
|
<trkpt lat="56.002013" lon="8.130068">
|
|
<ele>26.709816</ele>
|
|
<time>2026-07-12T13:02:59.000Z</time>
|
|
</trkpt>
|
|
<trkpt lat="56.002047" lon="8.130070">
|
|
<ele>26.703324</ele>
|
|
<time>2026-07-12T13:03:00.000Z</time>
|
|
</trkpt>
|
|
<trkpt lat="56.002084" lon="8.130073">
|
|
<ele>26.696256</ele>
|
|
<time>2026-07-12T13:03:01.000Z</time>
|
|
</trkpt>
|
|
<trkpt lat="56.002113" lon="8.130075">
|
|
<ele>26.690718</ele>
|
|
<time>2026-07-12T13:03:02.000Z</time>
|
|
</trkpt>
|
|
<trkpt lat="56.002145" lon="8.130077">
|
|
<ele>26.684607</ele>
|
|
<time>2026-07-12T13:03:03.000Z</time>
|
|
</trkpt>
|
|
<trkpt lat="56.002173" lon="8.130083">
|
|
<ele>26.679225</ele>
|
|
<time>2026-07-12T13:03:04.000Z</time>
|
|
</trkpt>
|
|
<trkpt lat="56.002215" lon="8.130086">
|
|
<ele>26.671204</ele>
|
|
<time>2026-07-12T13:03:05.000Z</time>
|
|
</trkpt>
|
|
<trkpt lat="56.002248" lon="8.130088">
|
|
<ele>26.664903</ele>
|
|
<time>2026-07-12T13:03:06.000Z</time>
|
|
</trkpt>
|
|
<trkpt lat="56.002280" lon="8.130090">
|
|
<ele>26.658792</ele>
|
|
<time>2026-07-12T13:03:07.000Z</time>
|
|
</trkpt>
|
|
<trkpt lat="56.002316" lon="8.130088">
|
|
<ele>26.651918</ele>
|
|
<time>2026-07-12T13:03:08.000Z</time>
|
|
</trkpt>
|
|
<trkpt lat="56.002349" lon="8.130082">
|
|
<ele>26.645588</ele>
|
|
<time>2026-07-12T13:03:09.000Z</time>
|
|
</trkpt>
|
|
<trkpt lat="56.002377" lon="8.130074">
|
|
<ele>26.640177</ele>
|
|
<time>2026-07-12T13:03:10.000Z</time>
|
|
</trkpt>
|
|
<trkpt lat="56.002406" lon="8.130062">
|
|
<ele>26.634333</ele>
|
|
<time>2026-07-12T13:03:11.000Z</time>
|
|
</trkpt>
|
|
<trkpt lat="56.002434" lon="8.130050">
|
|
<ele>26.627713</ele>
|
|
<time>2026-07-12T13:03:12.000Z</time>
|
|
</trkpt>
|
|
<trkpt lat="56.002465" lon="8.130039">
|
|
<ele>26.620447</ele>
|
|
<time>2026-07-12T13:03:13.000Z</time>
|
|
</trkpt>
|
|
<trkpt lat="56.002494" lon="8.130029">
|
|
<ele>26.613657</ele>
|
|
<time>2026-07-12T13:03:14.000Z</time>
|
|
</trkpt>
|
|
<trkpt lat="56.002517" lon="8.130019">
|
|
<ele>26.608216</ele>
|
|
<time>2026-07-12T13:03:15.000Z</time>
|
|
</trkpt>
|
|
<trkpt lat="56.002535" lon="8.130010">
|
|
<ele>26.603919</ele>
|
|
<time>2026-07-12T13:03:16.000Z</time>
|
|
</trkpt>
|
|
<trkpt lat="56.002556" lon="8.129997">
|
|
<ele>26.598810</ele>
|
|
<time>2026-07-12T13:03:17.000Z</time>
|
|
</trkpt>
|
|
<trkpt lat="56.002576" lon="8.129987">
|
|
<ele>26.594036</ele>
|
|
<time>2026-07-12T13:03:18.000Z</time>
|
|
</trkpt>
|
|
<trkpt lat="56.002598" lon="8.129978">
|
|
<ele>26.588847</ele>
|
|
<time>2026-07-12T13:03:19.000Z</time>
|
|
</trkpt>
|
|
<trkpt lat="56.002617" lon="8.129966">
|
|
<ele>26.584215</ele>
|
|
<time>2026-07-12T13:03:20.000Z</time>
|
|
</trkpt>
|
|
<trkpt lat="56.002637" lon="8.129954">
|
|
<ele>26.579365</ele>
|
|
<time>2026-07-12T13:03:21.000Z</time>
|
|
</trkpt>
|
|
<trkpt lat="56.002660" lon="8.129945">
|
|
<ele>26.573952</ele>
|
|
<time>2026-07-12T13:03:22.000Z</time>
|
|
</trkpt>
|
|
<trkpt lat="56.002685" lon="8.129932">
|
|
<ele>26.567967</ele>
|
|
<time>2026-07-12T13:03:23.000Z</time>
|
|
</trkpt>
|
|
<trkpt lat="56.002710" lon="8.129918">
|
|
<ele>26.561944</ele>
|
|
<time>2026-07-12T13:03:24.000Z</time>
|
|
</trkpt>
|
|
<trkpt lat="56.002734" lon="8.129905">
|
|
<ele>26.556179</ele>
|
|
<time>2026-07-12T13:03:25.000Z</time>
|
|
</trkpt>
|
|
<trkpt lat="56.002761" lon="8.129892">
|
|
<ele>26.549750</ele>
|
|
<time>2026-07-12T13:03:26.000Z</time>
|
|
</trkpt>
|
|
<trkpt lat="56.002788" lon="8.129878">
|
|
<ele>26.543288</ele>
|
|
<time>2026-07-12T13:03:27.000Z</time>
|
|
</trkpt>
|
|
<trkpt lat="56.002816" lon="8.129863">
|
|
<ele>26.536568</ele>
|
|
<time>2026-07-12T13:03:28.000Z</time>
|
|
</trkpt>
|
|
<trkpt lat="56.002847" lon="8.129850">
|
|
<ele>26.529248</ele>
|
|
<time>2026-07-12T13:03:29.000Z</time>
|
|
</trkpt>
|
|
<trkpt lat="56.002876" lon="8.129836">
|
|
<ele>26.522342</ele>
|
|
<time>2026-07-12T13:03:30.000Z</time>
|
|
</trkpt>
|
|
<trkpt lat="56.002902" lon="8.129822">
|
|
<ele>26.516099</ele>
|
|
<time>2026-07-12T13:03:31.000Z</time>
|
|
</trkpt>
|
|
<trkpt lat="56.002930" lon="8.129809">
|
|
<ele>26.509449</ele>
|
|
<time>2026-07-12T13:03:32.000Z</time>
|
|
</trkpt>
|
|
<trkpt lat="56.002959" lon="8.129796">
|
|
<ele>26.502575</ele>
|
|
<time>2026-07-12T13:03:33.000Z</time>
|
|
</trkpt>
|
|
<trkpt lat="56.002986" lon="8.129786">
|
|
<ele>26.496236</ele>
|
|
<time>2026-07-12T13:03:34.000Z</time>
|
|
</trkpt>
|
|
<trkpt lat="56.003013" lon="8.129775">
|
|
<ele>26.489870</ele>
|
|
<time>2026-07-12T13:03:35.000Z</time>
|
|
</trkpt>
|
|
<trkpt lat="56.003039" lon="8.129763">
|
|
<ele>26.483697</ele>
|
|
<time>2026-07-12T13:03:36.000Z</time>
|
|
</trkpt>
|
|
<trkpt lat="56.003065" lon="8.129750">
|
|
<ele>26.477490</ele>
|
|
<time>2026-07-12T13:03:37.000Z</time>
|
|
</trkpt>
|
|
<trkpt lat="56.003089" lon="8.129738">
|
|
<ele>26.471761</ele>
|
|
<time>2026-07-12T13:03:38.000Z</time>
|
|
</trkpt>
|
|
<trkpt lat="56.003114" lon="8.129725">
|
|
<ele>26.465776</ele>
|
|
<time>2026-07-12T13:03:39.000Z</time>
|
|
</trkpt>
|
|
<trkpt lat="56.003138" lon="8.129712">
|
|
<ele>26.460010</ele>
|
|
<time>2026-07-12T13:03:40.000Z</time>
|
|
</trkpt>
|
|
<trkpt lat="56.003164" lon="8.129699">
|
|
<ele>26.453804</ele>
|
|
<time>2026-07-12T13:03:41.000Z</time>
|
|
</trkpt>
|
|
<trkpt lat="56.003188" lon="8.129688">
|
|
<ele>26.448108</ele>
|
|
<time>2026-07-12T13:03:42.000Z</time>
|
|
</trkpt>
|
|
<trkpt lat="56.003215" lon="8.129676">
|
|
<ele>26.441712</ele>
|
|
<time>2026-07-12T13:03:43.000Z</time>
|
|
</trkpt>
|
|
<trkpt lat="56.003240" lon="8.129667">
|
|
<ele>26.435849</ele>
|
|
<time>2026-07-12T13:03:44.000Z</time>
|
|
</trkpt>
|
|
<trkpt lat="56.003265" lon="8.129656">
|
|
<ele>26.429930</ele>
|
|
<time>2026-07-12T13:03:45.000Z</time>
|
|
</trkpt>
|
|
<trkpt lat="56.003290" lon="8.129643">
|
|
<ele>26.423945</ele>
|
|
<time>2026-07-12T13:03:46.000Z</time>
|
|
</trkpt>
|
|
<trkpt lat="56.003314" lon="8.129630">
|
|
<ele>26.418180</ele>
|
|
<time>2026-07-12T13:03:47.000Z</time>
|
|
</trkpt>
|
|
<trkpt lat="56.003339" lon="8.129620">
|
|
<ele>26.412290</ele>
|
|
<time>2026-07-12T13:03:48.000Z</time>
|
|
</trkpt>
|
|
<trkpt lat="56.003362" lon="8.129611">
|
|
<ele>26.406877</ele>
|
|
<time>2026-07-12T13:03:49.000Z</time>
|
|
</trkpt>
|
|
<trkpt lat="56.003387" lon="8.129601">
|
|
<ele>26.400988</ele>
|
|
<time>2026-07-12T13:03:50.000Z</time>
|
|
</trkpt>
|
|
<trkpt lat="56.003412" lon="8.129590">
|
|
<ele>26.395069</ele>
|
|
<time>2026-07-12T13:03:51.000Z</time>
|
|
</trkpt>
|
|
<trkpt lat="56.003434" lon="8.129578">
|
|
<ele>26.389781</ele>
|
|
<time>2026-07-12T13:03:52.000Z</time>
|
|
</trkpt>
|
|
<trkpt lat="56.003459" lon="8.129564">
|
|
<ele>26.383758</ele>
|
|
<time>2026-07-12T13:03:53.000Z</time>
|
|
</trkpt>
|
|
<trkpt lat="56.003486" lon="8.129548">
|
|
<ele>26.377219</ele>
|
|
<time>2026-07-12T13:03:54.000Z</time>
|
|
</trkpt>
|
|
<trkpt lat="56.003511" lon="8.129532">
|
|
<ele>26.371115</ele>
|
|
<time>2026-07-12T13:03:55.000Z</time>
|
|
</trkpt>
|
|
<trkpt lat="56.003536" lon="8.129517">
|
|
<ele>26.365053</ele>
|
|
<time>2026-07-12T13:03:56.000Z</time>
|
|
</trkpt>
|
|
<trkpt lat="56.003562" lon="8.129503">
|
|
<ele>26.358810</ele>
|
|
<time>2026-07-12T13:03:57.000Z</time>
|
|
</trkpt>
|
|
<trkpt lat="56.003591" lon="8.129493">
|
|
<ele>26.352020</ele>
|
|
<time>2026-07-12T13:03:58.000Z</time>
|
|
</trkpt>
|
|
<trkpt lat="56.003618" lon="8.129484">
|
|
<ele>26.345706</ele>
|
|
<time>2026-07-12T13:03:59.000Z</time>
|
|
</trkpt>
|
|
<trkpt lat="56.003642" lon="8.129477">
|
|
<ele>26.340116</ele>
|
|
<time>2026-07-12T13:04:00.000Z</time>
|
|
</trkpt>
|
|
<trkpt lat="56.003667" lon="8.129466">
|
|
<ele>26.334197</ele>
|
|
<time>2026-07-12T13:04:01.000Z</time>
|
|
</trkpt>
|
|
<trkpt lat="56.003692" lon="8.129454">
|
|
<ele>26.328246</ele>
|
|
<time>2026-07-12T13:04:02.000Z</time>
|
|
</trkpt>
|
|
<trkpt lat="56.003719" lon="8.129442">
|
|
<ele>26.321850</ele>
|
|
<time>2026-07-12T13:04:03.000Z</time>
|
|
</trkpt>
|
|
<trkpt lat="56.003745" lon="8.129427">
|
|
<ele>26.315569</ele>
|
|
<time>2026-07-12T13:04:04.000Z</time>
|
|
</trkpt>
|
|
<trkpt lat="56.003772" lon="8.129410">
|
|
<ele>26.308988</ele>
|
|
<time>2026-07-12T13:04:05.000Z</time>
|
|
</trkpt>
|
|
<trkpt lat="56.003799" lon="8.129395">
|
|
<ele>26.302488</ele>
|
|
<time>2026-07-12T13:04:06.000Z</time>
|
|
</trkpt>
|
|
<trkpt lat="56.003827" lon="8.129381">
|
|
<ele>26.295804</ele>
|
|
<time>2026-07-12T13:04:07.000Z</time>
|
|
</trkpt>
|
|
<trkpt lat="56.003856" lon="8.129369">
|
|
<ele>26.288961</ele>
|
|
<time>2026-07-12T13:04:08.000Z</time>
|
|
</trkpt>
|
|
<trkpt lat="56.003884" lon="8.129360">
|
|
<ele>26.282421</ele>
|
|
<time>2026-07-12T13:04:09.000Z</time>
|
|
</trkpt>
|
|
<trkpt lat="56.003915" lon="8.129352">
|
|
<ele>26.275220</ele>
|
|
<time>2026-07-12T13:04:10.000Z</time>
|
|
</trkpt>
|
|
<trkpt lat="56.003944" lon="8.129343">
|
|
<ele>26.268453</ele>
|
|
<time>2026-07-12T13:04:11.000Z</time>
|
|
</trkpt>
|
|
<trkpt lat="56.003970" lon="8.129336">
|
|
<ele>26.262409</ele>
|
|
<time>2026-07-12T13:04:12.000Z</time>
|
|
</trkpt>
|
|
<trkpt lat="56.003998" lon="8.129329">
|
|
<ele>26.255909</ele>
|
|
<time>2026-07-12T13:04:13.000Z</time>
|
|
</trkpt>
|
|
<trkpt lat="56.004026" lon="8.129322">
|
|
<ele>26.249409</ele>
|
|
<time>2026-07-12T13:04:14.000Z</time>
|
|
</trkpt>
|
|
<trkpt lat="56.004050" lon="8.129316">
|
|
<ele>26.243838</ele>
|
|
<time>2026-07-12T13:04:15.000Z</time>
|
|
</trkpt>
|
|
<trkpt lat="56.004077" lon="8.129312">
|
|
<ele>26.237609</ele>
|
|
<time>2026-07-12T13:04:16.000Z</time>
|
|
</trkpt>
|
|
<trkpt lat="56.004104" lon="8.129306">
|
|
<ele>26.231354</ele>
|
|
<time>2026-07-12T13:04:17.000Z</time>
|
|
</trkpt>
|
|
<trkpt lat="56.004131" lon="8.129302">
|
|
<ele>26.225126</ele>
|
|
<time>2026-07-12T13:04:18.000Z</time>
|
|
</trkpt>
|
|
<trkpt lat="56.004157" lon="8.129298">
|
|
<ele>26.212544</ele>
|
|
<time>2026-07-12T13:04:19.000Z</time>
|
|
</trkpt>
|
|
<trkpt lat="56.004184" lon="8.129294">
|
|
<ele>26.190923</ele>
|
|
<time>2026-07-12T13:04:20.000Z</time>
|
|
</trkpt>
|
|
<trkpt lat="56.004209" lon="8.129292">
|
|
<ele>26.170952</ele>
|
|
<time>2026-07-12T13:04:21.000Z</time>
|
|
</trkpt>
|
|
<trkpt lat="56.004232" lon="8.129293">
|
|
<ele>26.152592</ele>
|
|
<time>2026-07-12T13:04:22.000Z</time>
|
|
</trkpt>
|
|
<trkpt lat="56.004256" lon="8.129293">
|
|
<ele>26.133439</ele>
|
|
<time>2026-07-12T13:04:23.000Z</time>
|
|
</trkpt>
|
|
<trkpt lat="56.004283" lon="8.129294">
|
|
<ele>26.111887</ele>
|
|
<time>2026-07-12T13:04:24.000Z</time>
|
|
</trkpt>
|
|
<trkpt lat="56.004308" lon="8.129297">
|
|
<ele>26.091891</ele>
|
|
<time>2026-07-12T13:04:25.000Z</time>
|
|
</trkpt>
|
|
<trkpt lat="56.004332" lon="8.129302">
|
|
<ele>26.072609</ele>
|
|
<time>2026-07-12T13:04:26.000Z</time>
|
|
</trkpt>
|
|
<trkpt lat="56.004358" lon="8.129307">
|
|
<ele>26.051740</ele>
|
|
<time>2026-07-12T13:04:27.000Z</time>
|
|
</trkpt>
|
|
<trkpt lat="56.004382" lon="8.129313">
|
|
<ele>26.032401</ele>
|
|
<time>2026-07-12T13:04:28.000Z</time>
|
|
</trkpt>
|
|
<trkpt lat="56.004406" lon="8.129328">
|
|
<ele>26.012112</ele>
|
|
<time>2026-07-12T13:04:29.000Z</time>
|
|
</trkpt>
|
|
<trkpt lat="56.004424" lon="8.129356">
|
|
<ele>25.993074</ele>
|
|
<time>2026-07-12T13:04:30.000Z</time>
|
|
</trkpt>
|
|
<trkpt lat="56.004447" lon="8.129394">
|
|
<ele>25.968086</ele>
|
|
<time>2026-07-12T13:04:31.000Z</time>
|
|
</trkpt>
|
|
<trkpt lat="56.004472" lon="8.129431">
|
|
<ele>25.942190</ele>
|
|
<time>2026-07-12T13:04:32.000Z</time>
|
|
</trkpt>
|
|
<trkpt lat="56.004498" lon="8.129465">
|
|
<ele>25.916486</ele>
|
|
<time>2026-07-12T13:04:33.000Z</time>
|
|
</trkpt>
|
|
<trkpt lat="56.004533" lon="8.129488">
|
|
<ele>25.886729</ele>
|
|
<time>2026-07-12T13:04:34.000Z</time>
|
|
</trkpt>
|
|
<trkpt lat="56.004572" lon="8.129499">
|
|
<ele>25.855221</ele>
|
|
<time>2026-07-12T13:04:35.000Z</time>
|
|
</trkpt>
|
|
<trkpt lat="56.004607" lon="8.129495">
|
|
<ele>25.827232</ele>
|
|
<time>2026-07-12T13:04:36.000Z</time>
|
|
</trkpt>
|
|
<trkpt lat="56.004641" lon="8.129476">
|
|
<ele>25.798805</ele>
|
|
<time>2026-07-12T13:04:37.000Z</time>
|
|
</trkpt>
|
|
<trkpt lat="56.004672" lon="8.129445">
|
|
<ele>25.770462</ele>
|
|
<time>2026-07-12T13:04:38.000Z</time>
|
|
</trkpt>
|
|
<trkpt lat="56.004694" lon="8.129403">
|
|
<ele>25.744782</ele>
|
|
<time>2026-07-12T13:04:39.000Z</time>
|
|
</trkpt>
|
|
<trkpt lat="56.004708" lon="8.129353">
|
|
<ele>25.719830</ele>
|
|
<time>2026-07-12T13:04:40.000Z</time>
|
|
</trkpt>
|
|
<trkpt lat="56.004719" lon="8.129297">
|
|
<ele>25.693346</ele>
|
|
<time>2026-07-12T13:04:41.000Z</time>
|
|
</trkpt>
|
|
<trkpt lat="56.004726" lon="8.129237">
|
|
<ele>25.665997</ele>
|
|
<time>2026-07-12T13:04:42.000Z</time>
|
|
</trkpt>
|
|
<trkpt lat="56.004723" lon="8.129178">
|
|
<ele>25.639562</ele>
|
|
<time>2026-07-12T13:04:43.000Z</time>
|
|
</trkpt>
|
|
<trkpt lat="56.004714" lon="8.129122">
|
|
<ele>25.613563</ele>
|
|
<time>2026-07-12T13:04:44.000Z</time>
|
|
</trkpt>
|
|
<trkpt lat="56.004701" lon="8.129066">
|
|
<ele>25.586507</ele>
|
|
<time>2026-07-12T13:04:45.000Z</time>
|
|
</trkpt>
|
|
<trkpt lat="56.004688" lon="8.129011">
|
|
<ele>25.559863</ele>
|
|
<time>2026-07-12T13:04:46.000Z</time>
|
|
</trkpt>
|
|
<trkpt lat="56.004679" lon="8.128951">
|
|
<ele>25.532144</ele>
|
|
<time>2026-07-12T13:04:47.000Z</time>
|
|
</trkpt>
|
|
<trkpt lat="56.004675" lon="8.128887">
|
|
<ele>25.503409</ele>
|
|
<time>2026-07-12T13:04:48.000Z</time>
|
|
</trkpt>
|
|
<trkpt lat="56.004673" lon="8.128822">
|
|
<ele>25.474362</ele>
|
|
<time>2026-07-12T13:04:49.000Z</time>
|
|
</trkpt>
|
|
<trkpt lat="56.004675" lon="8.128757">
|
|
<ele>25.445315</ele>
|
|
<time>2026-07-12T13:04:50.000Z</time>
|
|
</trkpt>
|
|
<trkpt lat="56.004678" lon="8.128691">
|
|
<ele>25.415768</ele>
|
|
<time>2026-07-12T13:04:51.000Z</time>
|
|
</trkpt>
|
|
<trkpt lat="56.004682" lon="8.128625">
|
|
<ele>25.386146</ele>
|
|
<time>2026-07-12T13:04:52.000Z</time>
|
|
</trkpt>
|
|
<trkpt lat="56.004686" lon="8.128558">
|
|
<ele>25.356081</ele>
|
|
<time>2026-07-12T13:04:53.000Z</time>
|
|
</trkpt>
|
|
<trkpt lat="56.004693" lon="8.128488">
|
|
<ele>25.324351</ele>
|
|
<time>2026-07-12T13:04:54.000Z</time>
|
|
</trkpt>
|
|
<trkpt lat="56.004703" lon="8.128418">
|
|
<ele>25.292113</ele>
|
|
<time>2026-07-12T13:04:55.000Z</time>
|
|
</trkpt>
|
|
<trkpt lat="56.004712" lon="8.128346">
|
|
<ele>25.259193</ele>
|
|
<time>2026-07-12T13:04:56.000Z</time>
|
|
</trkpt>
|
|
<trkpt lat="56.004725" lon="8.128275">
|
|
<ele>25.225857</ele>
|
|
<time>2026-07-12T13:04:57.000Z</time>
|
|
</trkpt>
|
|
<trkpt lat="56.004742" lon="8.128206">
|
|
<ele>25.192213</ele>
|
|
<time>2026-07-12T13:04:58.000Z</time>
|
|
</trkpt>
|
|
<trkpt lat="56.004761" lon="8.128140">
|
|
<ele>25.159089</ele>
|
|
<time>2026-07-12T13:04:59.000Z</time>
|
|
</trkpt>
|
|
<trkpt lat="56.004781" lon="8.128080">
|
|
<ele>25.127920</ele>
|
|
<time>2026-07-12T13:05:00.000Z</time>
|
|
</trkpt>
|
|
<trkpt lat="56.004806" lon="8.128021">
|
|
<ele>25.094888</ele>
|
|
<time>2026-07-12T13:05:01.000Z</time>
|
|
</trkpt>
|
|
<trkpt lat="56.004832" lon="8.127959">
|
|
<ele>25.060307</ele>
|
|
<time>2026-07-12T13:05:02.000Z</time>
|
|
</trkpt>
|
|
<trkpt lat="56.004859" lon="8.127901">
|
|
<ele>25.026631</ele>
|
|
<time>2026-07-12T13:05:03.000Z</time>
|
|
</trkpt>
|
|
<trkpt lat="56.004886" lon="8.127846">
|
|
<ele>24.993973</ele>
|
|
<time>2026-07-12T13:05:04.000Z</time>
|
|
</trkpt>
|
|
<trkpt lat="56.004915" lon="8.127794">
|
|
<ele>24.961202</ele>
|
|
<time>2026-07-12T13:05:05.000Z</time>
|
|
</trkpt>
|
|
<trkpt lat="56.004950" lon="8.127748">
|
|
<ele>24.926540</ele>
|
|
<time>2026-07-12T13:05:06.000Z</time>
|
|
</trkpt>
|
|
<trkpt lat="56.004984" lon="8.127706">
|
|
<ele>24.893564</ele>
|
|
<time>2026-07-12T13:05:07.000Z</time>
|
|
</trkpt>
|
|
<trkpt lat="56.005022" lon="8.127668">
|
|
<ele>24.858820</ele>
|
|
<time>2026-07-12T13:05:08.000Z</time>
|
|
</trkpt>
|
|
<trkpt lat="56.005062" lon="8.127635">
|
|
<ele>24.823666</ele>
|
|
<time>2026-07-12T13:05:09.000Z</time>
|
|
</trkpt>
|
|
<trkpt lat="56.005100" lon="8.127607">
|
|
<ele>24.790868</ele>
|
|
<time>2026-07-12T13:05:10.000Z</time>
|
|
</trkpt>
|
|
<trkpt lat="56.005140" lon="8.127585">
|
|
<ele>24.790693</ele>
|
|
<time>2026-07-12T13:05:11.000Z</time>
|
|
</trkpt>
|
|
<trkpt lat="56.005182" lon="8.127569">
|
|
<ele>24.795781</ele>
|
|
<time>2026-07-12T13:05:12.000Z</time>
|
|
</trkpt>
|
|
<trkpt lat="56.005225" lon="8.127557">
|
|
<ele>24.800938</ele>
|
|
<time>2026-07-12T13:05:13.000Z</time>
|
|
</trkpt>
|
|
<trkpt lat="56.005267" lon="8.127550">
|
|
<ele>24.805936</ele>
|
|
<time>2026-07-12T13:05:14.000Z</time>
|
|
</trkpt>
|
|
<trkpt lat="56.005312" lon="8.127546">
|
|
<ele>24.811274</ele>
|
|
<time>2026-07-12T13:05:15.000Z</time>
|
|
</trkpt>
|
|
<trkpt lat="56.005352" lon="8.127549">
|
|
<ele>24.816017</ele>
|
|
<time>2026-07-12T13:05:16.000Z</time>
|
|
</trkpt>
|
|
<trkpt lat="56.005390" lon="8.127557">
|
|
<ele>24.820551</ele>
|
|
<time>2026-07-12T13:05:17.000Z</time>
|
|
</trkpt>
|
|
<trkpt lat="56.005430" lon="8.127568">
|
|
<ele>24.825346</ele>
|
|
<time>2026-07-12T13:05:18.000Z</time>
|
|
</trkpt>
|
|
<trkpt lat="56.005472" lon="8.127579">
|
|
<ele>24.830375</ele>
|
|
<time>2026-07-12T13:05:19.000Z</time>
|
|
</trkpt>
|
|
<trkpt lat="56.005514" lon="8.127591">
|
|
<ele>24.835415</ele>
|
|
<time>2026-07-12T13:05:20.000Z</time>
|
|
</trkpt>
|
|
<trkpt lat="56.005556" lon="8.127605">
|
|
<ele>24.840477</ele>
|
|
<time>2026-07-12T13:05:21.000Z</time>
|
|
</trkpt>
|
|
<trkpt lat="56.005598" lon="8.127621">
|
|
<ele>24.845565</ele>
|
|
<time>2026-07-12T13:05:22.000Z</time>
|
|
</trkpt>
|
|
<trkpt lat="56.005638" lon="8.127638">
|
|
<ele>24.850436</ele>
|
|
<time>2026-07-12T13:05:23.000Z</time>
|
|
</trkpt>
|
|
<trkpt lat="56.005676" lon="8.127652">
|
|
<ele>24.855033</ele>
|
|
<time>2026-07-12T13:05:24.000Z</time>
|
|
</trkpt>
|
|
<trkpt lat="56.005715" lon="8.127664">
|
|
<ele>24.859722</ele>
|
|
<time>2026-07-12T13:05:25.000Z</time>
|
|
</trkpt>
|
|
<trkpt lat="56.005751" lon="8.127677">
|
|
<ele>24.864074</ele>
|
|
<time>2026-07-12T13:05:26.000Z</time>
|
|
</trkpt>
|
|
<trkpt lat="56.005786" lon="8.127691">
|
|
<ele>24.868323</ele>
|
|
<time>2026-07-12T13:05:27.000Z</time>
|
|
</trkpt>
|
|
<trkpt lat="56.005824" lon="8.127704">
|
|
<ele>24.872907</ele>
|
|
<time>2026-07-12T13:05:28.000Z</time>
|
|
</trkpt>
|
|
<trkpt lat="56.005860" lon="8.127717">
|
|
<ele>24.877259</ele>
|
|
<time>2026-07-12T13:05:29.000Z</time>
|
|
</trkpt>
|
|
<trkpt lat="56.005890" lon="8.127730">
|
|
<ele>24.880916</ele>
|
|
<time>2026-07-12T13:05:30.000Z</time>
|
|
</trkpt>
|
|
<trkpt lat="56.005922" lon="8.127743">
|
|
<ele>24.884804</ele>
|
|
<time>2026-07-12T13:05:31.000Z</time>
|
|
</trkpt>
|
|
<trkpt lat="56.005955" lon="8.127754">
|
|
<ele>24.888781</ele>
|
|
<time>2026-07-12T13:05:32.000Z</time>
|
|
</trkpt>
|
|
<trkpt lat="56.005987" lon="8.127763">
|
|
<ele>24.892619</ele>
|
|
<time>2026-07-12T13:05:33.000Z</time>
|
|
</trkpt>
|
|
<trkpt lat="56.006013" lon="8.127769">
|
|
<ele>24.895726</ele>
|
|
<time>2026-07-12T13:05:34.000Z</time>
|
|
</trkpt>
|
|
<trkpt lat="56.006034" lon="8.127767">
|
|
<ele>24.898217</ele>
|
|
<time>2026-07-12T13:05:35.000Z</time>
|
|
</trkpt>
|
|
<trkpt lat="56.006050" lon="8.127756">
|
|
<ele>24.900248</ele>
|
|
<time>2026-07-12T13:05:36.000Z</time>
|
|
</trkpt>
|
|
<trkpt lat="56.006059" lon="8.127739">
|
|
<ele>24.901799</ele>
|
|
<time>2026-07-12T13:05:37.000Z</time>
|
|
</trkpt>
|
|
<trkpt lat="56.006057" lon="8.127714">
|
|
<ele>24.903472</ele>
|
|
<time>2026-07-12T13:05:38.000Z</time>
|
|
</trkpt>
|
|
<trkpt lat="56.006044" lon="8.127693">
|
|
<ele>24.905548</ele>
|
|
<time>2026-07-12T13:05:39.000Z</time>
|
|
</trkpt>
|
|
<trkpt lat="56.006028" lon="8.127680">
|
|
<ele>24.907630</ele>
|
|
<time>2026-07-12T13:05:40.000Z</time>
|
|
</trkpt>
|
|
<trkpt lat="56.005991" lon="8.127667">
|
|
<ele>24.912098</ele>
|
|
<time>2026-07-12T13:05:41.000Z</time>
|
|
</trkpt>
|
|
<trkpt lat="56.005956" lon="8.127658">
|
|
<ele>24.916287</ele>
|
|
<time>2026-07-12T13:05:42.000Z</time>
|
|
</trkpt>
|
|
<trkpt lat="56.005922" lon="8.127649">
|
|
<ele>24.920360</ele>
|
|
<time>2026-07-12T13:05:43.000Z</time>
|
|
</trkpt>
|
|
<trkpt lat="56.005887" lon="8.127642">
|
|
<ele>24.924532</ele>
|
|
<time>2026-07-12T13:05:44.000Z</time>
|
|
</trkpt>
|
|
<trkpt lat="56.005852" lon="8.127632">
|
|
<ele>24.928732</ele>
|
|
<time>2026-07-12T13:05:45.000Z</time>
|
|
</trkpt>
|
|
<trkpt lat="56.005819" lon="8.127619">
|
|
<ele>24.932736</ele>
|
|
<time>2026-07-12T13:05:46.000Z</time>
|
|
</trkpt>
|
|
<trkpt lat="56.005780" lon="8.127606">
|
|
<ele>24.937436</ele>
|
|
<time>2026-07-12T13:05:47.000Z</time>
|
|
</trkpt>
|
|
<trkpt lat="56.005740" lon="8.127595">
|
|
<ele>24.942231</ele>
|
|
<time>2026-07-12T13:05:48.000Z</time>
|
|
</trkpt>
|
|
<trkpt lat="56.005700" lon="8.127586">
|
|
<ele>24.947008</ele>
|
|
<time>2026-07-12T13:05:49.000Z</time>
|
|
</trkpt>
|
|
<trkpt lat="56.005662" lon="8.127574">
|
|
<ele>24.951580</ele>
|
|
<time>2026-07-12T13:05:50.000Z</time>
|
|
</trkpt>
|
|
<trkpt lat="56.005626" lon="8.127561">
|
|
<ele>24.955932</ele>
|
|
<time>2026-07-12T13:05:51.000Z</time>
|
|
</trkpt>
|
|
<trkpt lat="56.005597" lon="8.127546">
|
|
<ele>24.959509</ele>
|
|
<time>2026-07-12T13:05:52.000Z</time>
|
|
</trkpt>
|
|
<trkpt lat="56.005575" lon="8.127526">
|
|
<ele>24.962433</ele>
|
|
<time>2026-07-12T13:05:53.000Z</time>
|
|
</trkpt>
|
|
<trkpt lat="56.005561" lon="8.127496">
|
|
<ele>24.965021</ele>
|
|
<time>2026-07-12T13:05:54.000Z</time>
|
|
</trkpt>
|
|
<trkpt lat="56.005553" lon="8.127458">
|
|
<ele>24.967711</ele>
|
|
<time>2026-07-12T13:05:55.000Z</time>
|
|
</trkpt>
|
|
<trkpt lat="56.005550" lon="8.127414">
|
|
<ele>24.970648</ele>
|
|
<time>2026-07-12T13:05:56.000Z</time>
|
|
</trkpt>
|
|
<trkpt lat="56.005552" lon="8.127366">
|
|
<ele>24.973836</ele>
|
|
<time>2026-07-12T13:05:57.000Z</time>
|
|
</trkpt>
|
|
<trkpt lat="56.005556" lon="8.127315">
|
|
<ele>24.977248</ele>
|
|
<time>2026-07-12T13:05:58.000Z</time>
|
|
</trkpt>
|
|
<trkpt lat="56.005559" lon="8.127267">
|
|
<ele>24.980448</ele>
|
|
<time>2026-07-12T13:05:59.000Z</time>
|
|
</trkpt>
|
|
<trkpt lat="56.005566" lon="8.127219">
|
|
<ele>24.983734</ele>
|
|
<time>2026-07-12T13:06:00.000Z</time>
|
|
</trkpt>
|
|
<trkpt lat="56.005576" lon="8.127169">
|
|
<ele>24.987252</ele>
|
|
<time>2026-07-12T13:06:01.000Z</time>
|
|
</trkpt>
|
|
<trkpt lat="56.005587" lon="8.127120">
|
|
<ele>24.990750</ele>
|
|
<time>2026-07-12T13:06:02.000Z</time>
|
|
</trkpt>
|
|
<trkpt lat="56.005604" lon="8.127070">
|
|
<ele>24.994626</ele>
|
|
<time>2026-07-12T13:06:03.000Z</time>
|
|
</trkpt>
|
|
<trkpt lat="56.005626" lon="8.127019">
|
|
<ele>24.998893</ele>
|
|
<time>2026-07-12T13:06:04.000Z</time>
|
|
</trkpt>
|
|
<trkpt lat="56.005653" lon="8.126972">
|
|
<ele>24.997870</ele>
|
|
<time>2026-07-12T13:06:05.000Z</time>
|
|
</trkpt>
|
|
<trkpt lat="56.005680" lon="8.126923">
|
|
<ele>24.995927</ele>
|
|
<time>2026-07-12T13:06:06.000Z</time>
|
|
</trkpt>
|
|
<trkpt lat="56.005705" lon="8.126870">
|
|
<ele>24.993968</ele>
|
|
<time>2026-07-12T13:06:07.000Z</time>
|
|
</trkpt>
|
|
<trkpt lat="56.005724" lon="8.126812">
|
|
<ele>24.992069</ele>
|
|
<time>2026-07-12T13:06:08.000Z</time>
|
|
</trkpt>
|
|
<trkpt lat="56.005743" lon="8.126748">
|
|
<ele>24.990022</ele>
|
|
<time>2026-07-12T13:06:09.000Z</time>
|
|
</trkpt>
|
|
<trkpt lat="56.005761" lon="8.126680">
|
|
<ele>24.987897</ele>
|
|
<time>2026-07-12T13:06:10.000Z</time>
|
|
</trkpt>
|
|
<trkpt lat="56.005775" lon="8.126611">
|
|
<ele>24.985824</ele>
|
|
<time>2026-07-12T13:06:11.000Z</time>
|
|
</trkpt>
|
|
<trkpt lat="56.005793" lon="8.126543">
|
|
<ele>24.983699</ele>
|
|
<time>2026-07-12T13:06:12.000Z</time>
|
|
</trkpt>
|
|
<trkpt lat="56.005810" lon="8.126475">
|
|
<ele>24.981595</ele>
|
|
<time>2026-07-12T13:06:13.000Z</time>
|
|
</trkpt>
|
|
<trkpt lat="56.005829" lon="8.126406">
|
|
<ele>24.979423</ele>
|
|
<time>2026-07-12T13:06:14.000Z</time>
|
|
</trkpt>
|
|
<trkpt lat="56.005849" lon="8.126337">
|
|
<ele>24.977227</ele>
|
|
<time>2026-07-12T13:06:15.000Z</time>
|
|
</trkpt>
|
|
<trkpt lat="56.005871" lon="8.126270">
|
|
<ele>24.975033</ele>
|
|
<time>2026-07-12T13:06:16.000Z</time>
|
|
</trkpt>
|
|
<trkpt lat="56.005891" lon="8.126203">
|
|
<ele>24.972887</ele>
|
|
<time>2026-07-12T13:06:17.000Z</time>
|
|
</trkpt>
|
|
<trkpt lat="56.005913" lon="8.126135">
|
|
<ele>24.970668</ele>
|
|
<time>2026-07-12T13:06:18.000Z</time>
|
|
</trkpt>
|
|
<trkpt lat="56.005935" lon="8.126066">
|
|
<ele>24.968425</ele>
|
|
<time>2026-07-12T13:06:19.000Z</time>
|
|
</trkpt>
|
|
<trkpt lat="56.005960" lon="8.125996">
|
|
<ele>24.966079</ele>
|
|
<time>2026-07-12T13:06:20.000Z</time>
|
|
</trkpt>
|
|
<trkpt lat="56.005985" lon="8.125926">
|
|
<ele>24.963733</ele>
|
|
<time>2026-07-12T13:06:21.000Z</time>
|
|
</trkpt>
|
|
<trkpt lat="56.006010" lon="8.125850">
|
|
<ele>24.961242</ele>
|
|
<time>2026-07-12T13:06:22.000Z</time>
|
|
</trkpt>
|
|
<trkpt lat="56.006034" lon="8.125783">
|
|
<ele>24.958994</ele>
|
|
<time>2026-07-12T13:06:23.000Z</time>
|
|
</trkpt>
|
|
<trkpt lat="56.006059" lon="8.125718">
|
|
<ele>24.956766</ele>
|
|
<time>2026-07-12T13:06:24.000Z</time>
|
|
</trkpt>
|
|
<trkpt lat="56.006082" lon="8.125654">
|
|
<ele>24.954617</ele>
|
|
<time>2026-07-12T13:06:25.000Z</time>
|
|
</trkpt>
|
|
<trkpt lat="56.006103" lon="8.125590">
|
|
<ele>24.952521</ele>
|
|
<time>2026-07-12T13:06:26.000Z</time>
|
|
</trkpt>
|
|
<trkpt lat="56.006125" lon="8.125526">
|
|
<ele>24.950399</ele>
|
|
<time>2026-07-12T13:06:27.000Z</time>
|
|
</trkpt>
|
|
<trkpt lat="56.006151" lon="8.125461">
|
|
<ele>24.948142</ele>
|
|
<time>2026-07-12T13:06:28.000Z</time>
|
|
</trkpt>
|
|
<trkpt lat="56.006173" lon="8.125398">
|
|
<ele>24.946044</ele>
|
|
<time>2026-07-12T13:06:29.000Z</time>
|
|
</trkpt>
|
|
<trkpt lat="56.006196" lon="8.125334">
|
|
<ele>24.943895</ele>
|
|
<time>2026-07-12T13:06:30.000Z</time>
|
|
</trkpt>
|
|
<trkpt lat="56.006220" lon="8.125270">
|
|
<ele>24.941718</ele>
|
|
<time>2026-07-12T13:06:31.000Z</time>
|
|
</trkpt>
|
|
<trkpt lat="56.006242" lon="8.125210">
|
|
<ele>24.939692</ele>
|
|
<time>2026-07-12T13:06:32.000Z</time>
|
|
</trkpt>
|
|
<trkpt lat="56.006265" lon="8.125148">
|
|
<ele>24.937590</ele>
|
|
<time>2026-07-12T13:06:33.000Z</time>
|
|
</trkpt>
|
|
<trkpt lat="56.006288" lon="8.125085">
|
|
<ele>24.935465</ele>
|
|
<time>2026-07-12T13:06:34.000Z</time>
|
|
</trkpt>
|
|
<trkpt lat="56.006311" lon="8.125024">
|
|
<ele>24.933387</ele>
|
|
<time>2026-07-12T13:06:35.000Z</time>
|
|
</trkpt>
|
|
<trkpt lat="56.006332" lon="8.124962">
|
|
<ele>24.931339</ele>
|
|
<time>2026-07-12T13:06:36.000Z</time>
|
|
</trkpt>
|
|
<trkpt lat="56.006351" lon="8.124900">
|
|
<ele>24.929342</ele>
|
|
<time>2026-07-12T13:06:37.000Z</time>
|
|
</trkpt>
|
|
<trkpt lat="56.006370" lon="8.124837">
|
|
<ele>24.927320</ele>
|
|
<time>2026-07-12T13:06:38.000Z</time>
|
|
</trkpt>
|
|
<trkpt lat="56.006388" lon="8.124772">
|
|
<ele>24.925272</ele>
|
|
<time>2026-07-12T13:06:39.000Z</time>
|
|
</trkpt>
|
|
<trkpt lat="56.006402" lon="8.124703">
|
|
<ele>24.923198</ele>
|
|
<time>2026-07-12T13:06:40.000Z</time>
|
|
</trkpt>
|
|
<trkpt lat="56.006412" lon="8.124633">
|
|
<ele>24.921158</ele>
|
|
<time>2026-07-12T13:06:41.000Z</time>
|
|
</trkpt>
|
|
<trkpt lat="56.006418" lon="8.124558">
|
|
<ele>24.919018</ele>
|
|
<time>2026-07-12T13:06:42.000Z</time>
|
|
</trkpt>
|
|
<trkpt lat="56.006417" lon="8.124483">
|
|
<ele>24.916899</ele>
|
|
<time>2026-07-12T13:06:43.000Z</time>
|
|
</trkpt>
|
|
<trkpt lat="56.006410" lon="8.124411">
|
|
<ele>24.914835</ele>
|
|
<time>2026-07-12T13:06:44.000Z</time>
|
|
</trkpt>
|
|
<trkpt lat="56.006402" lon="8.124341">
|
|
<ele>24.912817</ele>
|
|
<time>2026-07-12T13:06:45.000Z</time>
|
|
</trkpt>
|
|
<trkpt lat="56.006394" lon="8.124273">
|
|
<ele>24.910854</ele>
|
|
<time>2026-07-12T13:06:46.000Z</time>
|
|
</trkpt>
|
|
<trkpt lat="56.006388" lon="8.124209">
|
|
<ele>24.909021</ele>
|
|
<time>2026-07-12T13:06:47.000Z</time>
|
|
</trkpt>
|
|
<trkpt lat="56.006386" lon="8.124144">
|
|
<ele>24.917063</ele>
|
|
<time>2026-07-12T13:06:48.000Z</time>
|
|
</trkpt>
|
|
<trkpt lat="56.006389" lon="8.124077">
|
|
<ele>24.927985</ele>
|
|
<time>2026-07-12T13:06:49.000Z</time>
|
|
</trkpt>
|
|
<trkpt lat="56.006398" lon="8.124012">
|
|
<ele>24.938866</ele>
|
|
<time>2026-07-12T13:06:50.000Z</time>
|
|
</trkpt>
|
|
<trkpt lat="56.006411" lon="8.123953">
|
|
<ele>24.949171</ele>
|
|
<time>2026-07-12T13:06:51.000Z</time>
|
|
</trkpt>
|
|
<trkpt lat="56.006428" lon="8.123900">
|
|
<ele>24.959100</ele>
|
|
<time>2026-07-12T13:06:52.000Z</time>
|
|
</trkpt>
|
|
<trkpt lat="56.006450" lon="8.123857">
|
|
<ele>24.968571</ele>
|
|
<time>2026-07-12T13:06:53.000Z</time>
|
|
</trkpt>
|
|
<trkpt lat="56.006478" lon="8.123821">
|
|
<ele>24.978593</ele>
|
|
<time>2026-07-12T13:06:54.000Z</time>
|
|
</trkpt>
|
|
<trkpt lat="56.006507" lon="8.123785">
|
|
<ele>24.988853</ele>
|
|
<time>2026-07-12T13:06:55.000Z</time>
|
|
</trkpt>
|
|
<trkpt lat="56.006535" lon="8.123748">
|
|
<ele>24.998971</ele>
|
|
<time>2026-07-12T13:06:56.000Z</time>
|
|
</trkpt>
|
|
<trkpt lat="56.006566" lon="8.123710">
|
|
<ele>25.009894</ele>
|
|
<time>2026-07-12T13:06:57.000Z</time>
|
|
</trkpt>
|
|
<trkpt lat="56.006595" lon="8.123674">
|
|
<ele>25.020153</ele>
|
|
<time>2026-07-12T13:06:58.000Z</time>
|
|
</trkpt>
|
|
<trkpt lat="56.006623" lon="8.123640">
|
|
<ele>25.029989</ele>
|
|
<time>2026-07-12T13:06:59.000Z</time>
|
|
</trkpt>
|
|
<trkpt lat="56.006657" lon="8.123604">
|
|
<ele>25.041473</ele>
|
|
<time>2026-07-12T13:07:00.000Z</time>
|
|
</trkpt>
|
|
<trkpt lat="56.006689" lon="8.123572">
|
|
<ele>25.052128</ele>
|
|
<time>2026-07-12T13:07:01.000Z</time>
|
|
</trkpt>
|
|
<trkpt lat="56.006720" lon="8.123537">
|
|
<ele>25.062782</ele>
|
|
<time>2026-07-12T13:07:02.000Z</time>
|
|
</trkpt>
|
|
<trkpt lat="56.006746" lon="8.123498">
|
|
<ele>25.072645</ele>
|
|
<time>2026-07-12T13:07:03.000Z</time>
|
|
</trkpt>
|
|
<trkpt lat="56.006773" lon="8.123454">
|
|
<ele>25.083260</ele>
|
|
<time>2026-07-12T13:07:04.000Z</time>
|
|
</trkpt>
|
|
<trkpt lat="56.006792" lon="8.123411">
|
|
<ele>25.092166</ele>
|
|
<time>2026-07-12T13:07:05.000Z</time>
|
|
</trkpt>
|
|
<trkpt lat="56.006807" lon="8.123369">
|
|
<ele>25.100265</ele>
|
|
<time>2026-07-12T13:07:06.000Z</time>
|
|
</trkpt>
|
|
<trkpt lat="56.006824" lon="8.123326">
|
|
<ele>25.108822</ele>
|
|
<time>2026-07-12T13:07:07.000Z</time>
|
|
</trkpt>
|
|
<trkpt lat="56.006842" lon="8.123282">
|
|
<ele>25.117682</ele>
|
|
<time>2026-07-12T13:07:08.000Z</time>
|
|
</trkpt>
|
|
<trkpt lat="56.006857" lon="8.123238">
|
|
<ele>25.126056</ele>
|
|
<time>2026-07-12T13:07:09.000Z</time>
|
|
</trkpt>
|
|
<trkpt lat="56.006870" lon="8.123191">
|
|
<ele>25.134576</ele>
|
|
<time>2026-07-12T13:07:10.000Z</time>
|
|
</trkpt>
|
|
<trkpt lat="56.006879" lon="8.123139">
|
|
<ele>25.143422</ele>
|
|
<time>2026-07-12T13:07:11.000Z</time>
|
|
</trkpt>
|
|
<trkpt lat="56.006882" lon="8.123085">
|
|
<ele>25.152239</ele>
|
|
<time>2026-07-12T13:07:12.000Z</time>
|
|
</trkpt>
|
|
<trkpt lat="56.006881" lon="8.123035">
|
|
<ele>25.160369</ele>
|
|
<time>2026-07-12T13:07:13.000Z</time>
|
|
</trkpt>
|
|
<trkpt lat="56.006874" lon="8.122974">
|
|
<ele>25.170488</ele>
|
|
<time>2026-07-12T13:07:14.000Z</time>
|
|
</trkpt>
|
|
<trkpt lat="56.006864" lon="8.122921">
|
|
<ele>25.179577</ele>
|
|
<time>2026-07-12T13:07:15.000Z</time>
|
|
</trkpt>
|
|
<trkpt lat="56.006854" lon="8.122873">
|
|
<ele>25.187901</ele>
|
|
<time>2026-07-12T13:07:16.000Z</time>
|
|
</trkpt>
|
|
<trkpt lat="56.006839" lon="8.122830">
|
|
<ele>25.196137</ele>
|
|
<time>2026-07-12T13:07:17.000Z</time>
|
|
</trkpt>
|
|
<trkpt lat="56.006821" lon="8.122778">
|
|
<ele>25.206075</ele>
|
|
<time>2026-07-12T13:07:18.000Z</time>
|
|
</trkpt>
|
|
<trkpt lat="56.006803" lon="8.122726">
|
|
<ele>25.216013</ele>
|
|
<time>2026-07-12T13:07:19.000Z</time>
|
|
</trkpt>
|
|
<trkpt lat="56.006786" lon="8.122671">
|
|
<ele>25.226225</ele>
|
|
<time>2026-07-12T13:07:20.000Z</time>
|
|
</trkpt>
|
|
<trkpt lat="56.006770" lon="8.122613">
|
|
<ele>25.236734</ele>
|
|
<time>2026-07-12T13:07:21.000Z</time>
|
|
</trkpt>
|
|
<trkpt lat="56.006757" lon="8.122555">
|
|
<ele>25.246888</ele>
|
|
<time>2026-07-12T13:07:22.000Z</time>
|
|
</trkpt>
|
|
<trkpt lat="56.006737" lon="8.122498">
|
|
<ele>25.257823</ele>
|
|
<time>2026-07-12T13:07:23.000Z</time>
|
|
</trkpt>
|
|
<trkpt lat="56.006714" lon="8.122435">
|
|
<ele>25.270049</ele>
|
|
<time>2026-07-12T13:07:24.000Z</time>
|
|
</trkpt>
|
|
<trkpt lat="56.006695" lon="8.122374">
|
|
<ele>25.281396</ele>
|
|
<time>2026-07-12T13:07:25.000Z</time>
|
|
</trkpt>
|
|
<trkpt lat="56.006677" lon="8.122312">
|
|
<ele>25.292748</ele>
|
|
<time>2026-07-12T13:07:26.000Z</time>
|
|
</trkpt>
|
|
<trkpt lat="56.006662" lon="8.122253">
|
|
<ele>25.303279</ele>
|
|
<time>2026-07-12T13:07:27.000Z</time>
|
|
</trkpt>
|
|
<trkpt lat="56.006651" lon="8.122191">
|
|
<ele>25.313849</ele>
|
|
<time>2026-07-12T13:07:28.000Z</time>
|
|
</trkpt>
|
|
<trkpt lat="56.006647" lon="8.122130">
|
|
<ele>25.323829</ele>
|
|
<time>2026-07-12T13:07:29.000Z</time>
|
|
</trkpt>
|
|
<trkpt lat="56.006645" lon="8.122070">
|
|
<ele>25.333596</ele>
|
|
<time>2026-07-12T13:07:30.000Z</time>
|
|
</trkpt>
|
|
<trkpt lat="56.006644" lon="8.122013">
|
|
<ele>25.342863</ele>
|
|
<time>2026-07-12T13:07:31.000Z</time>
|
|
</trkpt>
|
|
<trkpt lat="56.006643" lon="8.121961">
|
|
<ele>25.351318</ele>
|
|
<time>2026-07-12T13:07:32.000Z</time>
|
|
</trkpt>
|
|
<trkpt lat="56.006650" lon="8.121918">
|
|
<ele>25.358595</ele>
|
|
<time>2026-07-12T13:07:33.000Z</time>
|
|
</trkpt>
|
|
<trkpt lat="56.006664" lon="8.121884">
|
|
<ele>25.365457</ele>
|
|
<time>2026-07-12T13:07:34.000Z</time>
|
|
</trkpt>
|
|
<trkpt lat="56.006683" lon="8.121858">
|
|
<ele>25.372409</ele>
|
|
<time>2026-07-12T13:07:35.000Z</time>
|
|
</trkpt>
|
|
<trkpt lat="56.006705" lon="8.121838">
|
|
<ele>25.379582</ele>
|
|
<time>2026-07-12T13:07:36.000Z</time>
|
|
</trkpt>
|
|
<trkpt lat="56.006732" lon="8.121817">
|
|
<ele>25.388139</ele>
|
|
<time>2026-07-12T13:07:37.000Z</time>
|
|
</trkpt>
|
|
<trkpt lat="56.006761" lon="8.121793">
|
|
<ele>25.397426</ele>
|
|
<time>2026-07-12T13:07:38.000Z</time>
|
|
</trkpt>
|
|
<trkpt lat="56.006793" lon="8.121768">
|
|
<ele>25.407575</ele>
|
|
<time>2026-07-12T13:07:39.000Z</time>
|
|
</trkpt>
|
|
<trkpt lat="56.006825" lon="8.121739">
|
|
<ele>25.418001</ele>
|
|
<time>2026-07-12T13:07:40.000Z</time>
|
|
</trkpt>
|
|
<trkpt lat="56.006856" lon="8.121706">
|
|
<ele>25.428486</ele>
|
|
<time>2026-07-12T13:07:41.000Z</time>
|
|
</trkpt>
|
|
<trkpt lat="56.006885" lon="8.121672">
|
|
<ele>25.415625</ele>
|
|
<time>2026-07-12T13:07:42.000Z</time>
|
|
</trkpt>
|
|
<trkpt lat="56.006912" lon="8.121638">
|
|
<ele>25.394502</ele>
|
|
<time>2026-07-12T13:07:43.000Z</time>
|
|
</trkpt>
|
|
<trkpt lat="56.006940" lon="8.121597">
|
|
<ele>25.371353</ele>
|
|
<time>2026-07-12T13:07:44.000Z</time>
|
|
</trkpt>
|
|
<trkpt lat="56.006963" lon="8.121556">
|
|
<ele>25.350581</ele>
|
|
<time>2026-07-12T13:07:45.000Z</time>
|
|
</trkpt>
|
|
<trkpt lat="56.006984" lon="8.121509">
|
|
<ele>25.329063</ele>
|
|
<time>2026-07-12T13:07:46.000Z</time>
|
|
</trkpt>
|
|
<trkpt lat="56.007002" lon="8.121452">
|
|
<ele>25.305649</ele>
|
|
<time>2026-07-12T13:07:47.000Z</time>
|
|
</trkpt>
|
|
<trkpt lat="56.007024" lon="8.121375">
|
|
<ele>25.274723</ele>
|
|
<time>2026-07-12T13:07:48.000Z</time>
|
|
</trkpt>
|
|
<trkpt lat="56.007048" lon="8.121295">
|
|
<ele>25.242252</ele>
|
|
<time>2026-07-12T13:07:49.000Z</time>
|
|
</trkpt>
|
|
<trkpt lat="56.007074" lon="8.121208">
|
|
<ele>25.206970</ele>
|
|
<time>2026-07-12T13:07:50.000Z</time>
|
|
</trkpt>
|
|
<trkpt lat="56.007097" lon="8.121122">
|
|
<ele>25.172874</ele>
|
|
<time>2026-07-12T13:07:51.000Z</time>
|
|
</trkpt>
|
|
<trkpt lat="56.007119" lon="8.121037">
|
|
<ele>25.139374</ele>
|
|
<time>2026-07-12T13:07:52.000Z</time>
|
|
</trkpt>
|
|
<trkpt lat="56.007143" lon="8.120954">
|
|
<ele>25.105954</ele>
|
|
<time>2026-07-12T13:07:53.000Z</time>
|
|
</trkpt>
|
|
<trkpt lat="56.007172" lon="8.120870">
|
|
<ele>25.070645</ele>
|
|
<time>2026-07-12T13:07:54.000Z</time>
|
|
</trkpt>
|
|
<trkpt lat="56.007203" lon="8.120798">
|
|
<ele>25.038143</ele>
|
|
<time>2026-07-12T13:07:55.000Z</time>
|
|
</trkpt>
|
|
<trkpt lat="56.007233" lon="8.120735">
|
|
<ele>25.008546</ele>
|
|
<time>2026-07-12T13:07:56.000Z</time>
|
|
</trkpt>
|
|
<trkpt lat="56.007265" lon="8.120678">
|
|
<ele>24.979656</ele>
|
|
<time>2026-07-12T13:07:57.000Z</time>
|
|
</trkpt>
|
|
<trkpt lat="56.007298" lon="8.120623">
|
|
<ele>24.950802</ele>
|
|
<time>2026-07-12T13:07:58.000Z</time>
|
|
</trkpt>
|
|
<trkpt lat="56.007330" lon="8.120569">
|
|
<ele>24.922659</ele>
|
|
<time>2026-07-12T13:07:59.000Z</time>
|
|
</trkpt>
|
|
<trkpt lat="56.007363" lon="8.120515">
|
|
<ele>24.894047</ele>
|
|
<time>2026-07-12T13:08:00.000Z</time>
|
|
</trkpt>
|
|
<trkpt lat="56.007395" lon="8.120463">
|
|
<ele>24.866390</ele>
|
|
<time>2026-07-12T13:08:01.000Z</time>
|
|
</trkpt>
|
|
<trkpt lat="56.007430" lon="8.120417">
|
|
<ele>24.838606</ele>
|
|
<time>2026-07-12T13:08:02.000Z</time>
|
|
</trkpt>
|
|
<trkpt lat="56.007464" lon="8.120376">
|
|
<ele>24.812375</ele>
|
|
<time>2026-07-12T13:08:03.000Z</time>
|
|
</trkpt>
|
|
<trkpt lat="56.007500" lon="8.120337">
|
|
<ele>24.785451</ele>
|
|
<time>2026-07-12T13:08:04.000Z</time>
|
|
</trkpt>
|
|
<trkpt lat="56.007540" lon="8.120302">
|
|
<ele>24.756965</ele>
|
|
<time>2026-07-12T13:08:05.000Z</time>
|
|
</trkpt>
|
|
<trkpt lat="56.007581" lon="8.120271">
|
|
<ele>24.728490</ele>
|
|
<time>2026-07-12T13:08:06.000Z</time>
|
|
</trkpt>
|
|
<trkpt lat="56.007623" lon="8.120242">
|
|
<ele>24.699691</ele>
|
|
<time>2026-07-12T13:08:07.000Z</time>
|
|
</trkpt>
|
|
<trkpt lat="56.007663" lon="8.120212">
|
|
<ele>24.671944</ele>
|
|
<time>2026-07-12T13:08:08.000Z</time>
|
|
</trkpt>
|
|
<trkpt lat="56.007703" lon="8.120182">
|
|
<ele>24.644198</ele>
|
|
<time>2026-07-12T13:08:09.000Z</time>
|
|
</trkpt>
|
|
<trkpt lat="56.007748" lon="8.120151">
|
|
<ele>24.613350</ele>
|
|
<time>2026-07-12T13:08:10.000Z</time>
|
|
</trkpt>
|
|
<trkpt lat="56.007791" lon="8.120121">
|
|
<ele>24.583824</ele>
|
|
<time>2026-07-12T13:08:11.000Z</time>
|
|
</trkpt>
|
|
<trkpt lat="56.007835" lon="8.120093">
|
|
<ele>24.553949</ele>
|
|
<time>2026-07-12T13:08:12.000Z</time>
|
|
</trkpt>
|
|
<trkpt lat="56.007876" lon="8.120067">
|
|
<ele>24.526122</ele>
|
|
<time>2026-07-12T13:08:13.000Z</time>
|
|
</trkpt>
|
|
<trkpt lat="56.007922" lon="8.120041">
|
|
<ele>24.495261</ele>
|
|
<time>2026-07-12T13:08:14.000Z</time>
|
|
</trkpt>
|
|
<trkpt lat="56.007968" lon="8.120016">
|
|
<ele>24.464507</ele>
|
|
<time>2026-07-12T13:08:15.000Z</time>
|
|
</trkpt>
|
|
<trkpt lat="56.008012" lon="8.119990">
|
|
<ele>24.434863</ele>
|
|
<time>2026-07-12T13:08:16.000Z</time>
|
|
</trkpt>
|
|
<trkpt lat="56.008056" lon="8.119966">
|
|
<ele>24.405437</ele>
|
|
<time>2026-07-12T13:08:17.000Z</time>
|
|
</trkpt>
|
|
<trkpt lat="56.008098" lon="8.119941">
|
|
<ele>24.377121</ele>
|
|
<time>2026-07-12T13:08:18.000Z</time>
|
|
</trkpt>
|
|
<trkpt lat="56.008140" lon="8.119914">
|
|
<ele>24.348571</ele>
|
|
<time>2026-07-12T13:08:19.000Z</time>
|
|
</trkpt>
|
|
<trkpt lat="56.008183" lon="8.119887">
|
|
<ele>24.319418</ele>
|
|
<time>2026-07-12T13:08:20.000Z</time>
|
|
</trkpt>
|
|
<trkpt lat="56.008223" lon="8.119861">
|
|
<ele>24.292193</ele>
|
|
<time>2026-07-12T13:08:21.000Z</time>
|
|
</trkpt>
|
|
<trkpt lat="56.008268" lon="8.119833">
|
|
<ele>24.288095</ele>
|
|
<time>2026-07-12T13:08:22.000Z</time>
|
|
</trkpt>
|
|
<trkpt lat="56.008311" lon="8.119806">
|
|
<ele>24.299229</ele>
|
|
<time>2026-07-12T13:08:23.000Z</time>
|
|
</trkpt>
|
|
<trkpt lat="56.008357" lon="8.119779">
|
|
<ele>24.311058</ele>
|
|
<time>2026-07-12T13:08:24.000Z</time>
|
|
</trkpt>
|
|
<trkpt lat="56.008402" lon="8.119752">
|
|
<ele>24.322655</ele>
|
|
<time>2026-07-12T13:08:25.000Z</time>
|
|
</trkpt>
|
|
<trkpt lat="56.008446" lon="8.119726">
|
|
<ele>24.333978</ele>
|
|
<time>2026-07-12T13:08:26.000Z</time>
|
|
</trkpt>
|
|
<trkpt lat="56.008493" lon="8.119700">
|
|
<ele>24.345998</ele>
|
|
<time>2026-07-12T13:08:27.000Z</time>
|
|
</trkpt>
|
|
<trkpt lat="56.008536" lon="8.119674">
|
|
<ele>24.357088</ele>
|
|
<time>2026-07-12T13:08:28.000Z</time>
|
|
</trkpt>
|
|
<trkpt lat="56.008581" lon="8.119645">
|
|
<ele>24.368775</ele>
|
|
<time>2026-07-12T13:08:29.000Z</time>
|
|
</trkpt>
|
|
<trkpt lat="56.008624" lon="8.119618">
|
|
<ele>24.379910</ele>
|
|
<time>2026-07-12T13:08:30.000Z</time>
|
|
</trkpt>
|
|
<trkpt lat="56.008669" lon="8.119593">
|
|
<ele>24.391423</ele>
|
|
<time>2026-07-12T13:08:31.000Z</time>
|
|
</trkpt>
|
|
<trkpt lat="56.008711" lon="8.119568">
|
|
<ele>24.402238</ele>
|
|
<time>2026-07-12T13:08:32.000Z</time>
|
|
</trkpt>
|
|
<trkpt lat="56.008754" lon="8.119542">
|
|
<ele>24.413329</ele>
|
|
<time>2026-07-12T13:08:33.000Z</time>
|
|
</trkpt>
|
|
<trkpt lat="56.008798" lon="8.119513">
|
|
<ele>24.424786</ele>
|
|
<time>2026-07-12T13:08:34.000Z</time>
|
|
</trkpt>
|
|
<trkpt lat="56.008840" lon="8.119484">
|
|
<ele>24.435786</ele>
|
|
<time>2026-07-12T13:08:35.000Z</time>
|
|
</trkpt>
|
|
<trkpt lat="56.008883" lon="8.119456">
|
|
<ele>24.446967</ele>
|
|
<time>2026-07-12T13:08:36.000Z</time>
|
|
</trkpt>
|
|
<trkpt lat="56.008926" lon="8.119428">
|
|
<ele>24.458148</ele>
|
|
<time>2026-07-12T13:08:37.000Z</time>
|
|
</trkpt>
|
|
<trkpt lat="56.008965" lon="8.119396">
|
|
<ele>24.468631</ele>
|
|
<time>2026-07-12T13:08:38.000Z</time>
|
|
</trkpt>
|
|
<trkpt lat="56.009002" lon="8.119364">
|
|
<ele>24.478673</ele>
|
|
<time>2026-07-12T13:08:39.000Z</time>
|
|
</trkpt>
|
|
<trkpt lat="56.009039" lon="8.119331">
|
|
<ele>24.488775</ele>
|
|
<time>2026-07-12T13:08:40.000Z</time>
|
|
</trkpt>
|
|
<trkpt lat="56.009077" lon="8.119294">
|
|
<ele>24.499346</ele>
|
|
<time>2026-07-12T13:08:41.000Z</time>
|
|
</trkpt>
|
|
<trkpt lat="56.009117" lon="8.119257">
|
|
<ele>24.510349</ele>
|
|
<time>2026-07-12T13:08:42.000Z</time>
|
|
</trkpt>
|
|
<trkpt lat="56.009154" lon="8.119222">
|
|
<ele>24.520576</ele>
|
|
<time>2026-07-12T13:08:43.000Z</time>
|
|
</trkpt>
|
|
<trkpt lat="56.009193" lon="8.119186">
|
|
<ele>24.531299</ele>
|
|
<time>2026-07-12T13:08:44.000Z</time>
|
|
</trkpt>
|
|
<trkpt lat="56.009235" lon="8.119148">
|
|
<ele>24.542799</ele>
|
|
<time>2026-07-12T13:08:45.000Z</time>
|
|
</trkpt>
|
|
<trkpt lat="56.009274" lon="8.119110">
|
|
<ele>24.553650</ele>
|
|
<time>2026-07-12T13:08:46.000Z</time>
|
|
</trkpt>
|
|
<trkpt lat="56.009315" lon="8.119069">
|
|
<ele>24.565127</ele>
|
|
<time>2026-07-12T13:08:47.000Z</time>
|
|
</trkpt>
|
|
<trkpt lat="56.009353" lon="8.119029">
|
|
<ele>24.575900</ele>
|
|
<time>2026-07-12T13:08:48.000Z</time>
|
|
</trkpt>
|
|
<trkpt lat="56.009393" lon="8.118988">
|
|
<ele>24.587164</ele>
|
|
<time>2026-07-12T13:08:49.000Z</time>
|
|
</trkpt>
|
|
<trkpt lat="56.009434" lon="8.118951">
|
|
<ele>24.598384</ele>
|
|
<time>2026-07-12T13:08:50.000Z</time>
|
|
</trkpt>
|
|
<trkpt lat="56.009476" lon="8.118912">
|
|
<ele>24.609947</ele>
|
|
<time>2026-07-12T13:08:51.000Z</time>
|
|
</trkpt>
|
|
<trkpt lat="56.009514" lon="8.118875">
|
|
<ele>24.620518</ele>
|
|
<time>2026-07-12T13:08:52.000Z</time>
|
|
</trkpt>
|
|
<trkpt lat="56.009549" lon="8.118841">
|
|
<ele>24.630249</ele>
|
|
<time>2026-07-12T13:08:53.000Z</time>
|
|
</trkpt>
|
|
<trkpt lat="56.009582" lon="8.118806">
|
|
<ele>24.639623</ele>
|
|
<time>2026-07-12T13:08:54.000Z</time>
|
|
</trkpt>
|
|
<trkpt lat="56.009620" lon="8.118767">
|
|
<ele>24.650327</ele>
|
|
<time>2026-07-12T13:08:55.000Z</time>
|
|
</trkpt>
|
|
<trkpt lat="56.009658" lon="8.118727">
|
|
<ele>24.661100</ele>
|
|
<time>2026-07-12T13:08:56.000Z</time>
|
|
</trkpt>
|
|
<trkpt lat="56.009696" lon="8.118690">
|
|
<ele>24.671671</ele>
|
|
<time>2026-07-12T13:08:57.000Z</time>
|
|
</trkpt>
|
|
<trkpt lat="56.009733" lon="8.118653">
|
|
<ele>24.682028</ele>
|
|
<time>2026-07-12T13:08:58.000Z</time>
|
|
</trkpt>
|
|
<trkpt lat="56.009775" lon="8.118611">
|
|
<ele>24.693785</ele>
|
|
<time>2026-07-12T13:08:59.000Z</time>
|
|
</trkpt>
|
|
<trkpt lat="56.009815" lon="8.118572">
|
|
<ele>24.704916</ele>
|
|
<time>2026-07-12T13:09:00.000Z</time>
|
|
</trkpt>
|
|
<trkpt lat="56.009853" lon="8.118534">
|
|
<ele>24.715553</ele>
|
|
<time>2026-07-12T13:09:01.000Z</time>
|
|
</trkpt>
|
|
<trkpt lat="56.009892" lon="8.118495">
|
|
<ele>24.717199</ele>
|
|
<time>2026-07-12T13:09:02.000Z</time>
|
|
</trkpt>
|
|
<trkpt lat="56.009934" lon="8.118449">
|
|
<ele>24.711234</ele>
|
|
<time>2026-07-12T13:09:03.000Z</time>
|
|
</trkpt>
|
|
<trkpt lat="56.009975" lon="8.118407">
|
|
<ele>24.705512</ele>
|
|
<time>2026-07-12T13:09:04.000Z</time>
|
|
</trkpt>
|
|
<trkpt lat="56.010013" lon="8.118365">
|
|
<ele>24.700102</ele>
|
|
<time>2026-07-12T13:09:05.000Z</time>
|
|
</trkpt>
|
|
<trkpt lat="56.010053" lon="8.118325">
|
|
<ele>24.694552</ele>
|
|
<time>2026-07-12T13:09:06.000Z</time>
|
|
</trkpt>
|
|
<trkpt lat="56.010093" lon="8.118286">
|
|
<ele>24.689034</ele>
|
|
<time>2026-07-12T13:09:07.000Z</time>
|
|
</trkpt>
|
|
<trkpt lat="56.010133" lon="8.118247">
|
|
<ele>24.683517</ele>
|
|
<time>2026-07-12T13:09:08.000Z</time>
|
|
</trkpt>
|
|
<trkpt lat="56.010174" lon="8.118211">
|
|
<ele>24.677985</ele>
|
|
<time>2026-07-12T13:09:09.000Z</time>
|
|
</trkpt>
|
|
<trkpt lat="56.010213" lon="8.118175">
|
|
<ele>24.672670</ele>
|
|
<time>2026-07-12T13:09:10.000Z</time>
|
|
</trkpt>
|
|
<trkpt lat="56.010254" lon="8.118142">
|
|
<ele>24.667224</ele>
|
|
<time>2026-07-12T13:09:11.000Z</time>
|
|
</trkpt>
|
|
<trkpt lat="56.010292" lon="8.118109">
|
|
<ele>24.662108</ele>
|
|
<time>2026-07-12T13:09:12.000Z</time>
|
|
</trkpt>
|
|
<trkpt lat="56.010331" lon="8.118076">
|
|
<ele>24.656883</ele>
|
|
<time>2026-07-12T13:09:13.000Z</time>
|
|
</trkpt>
|
|
<trkpt lat="56.010373" lon="8.118042">
|
|
<ele>24.651300</ele>
|
|
<time>2026-07-12T13:09:14.000Z</time>
|
|
</trkpt>
|
|
<trkpt lat="56.010414" lon="8.118006">
|
|
<ele>24.645768</ele>
|
|
<time>2026-07-12T13:09:15.000Z</time>
|
|
</trkpt>
|
|
<trkpt lat="56.010454" lon="8.117971">
|
|
<ele>24.640375</ele>
|
|
<time>2026-07-12T13:09:16.000Z</time>
|
|
</trkpt>
|
|
<trkpt lat="56.010496" lon="8.117936">
|
|
<ele>24.634763</ele>
|
|
<time>2026-07-12T13:09:17.000Z</time>
|
|
</trkpt>
|
|
<trkpt lat="56.010537" lon="8.117902">
|
|
<ele>24.629290</ele>
|
|
<time>2026-07-12T13:09:18.000Z</time>
|
|
</trkpt>
|
|
<trkpt lat="56.010578" lon="8.117870">
|
|
<ele>24.623872</ele>
|
|
<time>2026-07-12T13:09:19.000Z</time>
|
|
</trkpt>
|
|
<trkpt lat="56.010620" lon="8.117839">
|
|
<ele>24.618369</ele>
|
|
<time>2026-07-12T13:09:20.000Z</time>
|
|
</trkpt>
|
|
<trkpt lat="56.010660" lon="8.117809">
|
|
<ele>24.613116</ele>
|
|
<time>2026-07-12T13:09:21.000Z</time>
|
|
</trkpt>
|
|
<trkpt lat="56.010699" lon="8.117776">
|
|
<ele>24.607891</ele>
|
|
<time>2026-07-12T13:09:22.000Z</time>
|
|
</trkpt>
|
|
<trkpt lat="56.010737" lon="8.117746">
|
|
<ele>24.602860</ele>
|
|
<time>2026-07-12T13:09:23.000Z</time>
|
|
</trkpt>
|
|
<trkpt lat="56.010776" lon="8.117715">
|
|
<ele>24.597692</ele>
|
|
<time>2026-07-12T13:09:24.000Z</time>
|
|
</trkpt>
|
|
<trkpt lat="56.010815" lon="8.117686">
|
|
<ele>24.592576</ele>
|
|
<time>2026-07-12T13:09:25.000Z</time>
|
|
</trkpt>
|
|
<trkpt lat="56.010858" lon="8.117653">
|
|
<ele>24.586909</ele>
|
|
<time>2026-07-12T13:09:26.000Z</time>
|
|
</trkpt>
|
|
<trkpt lat="56.010898" lon="8.117622">
|
|
<ele>24.581630</ele>
|
|
<time>2026-07-12T13:09:27.000Z</time>
|
|
</trkpt>
|
|
<trkpt lat="56.010937" lon="8.117592">
|
|
<ele>24.576488</ele>
|
|
<time>2026-07-12T13:09:28.000Z</time>
|
|
</trkpt>
|
|
<trkpt lat="56.010976" lon="8.117562">
|
|
<ele>24.571346</ele>
|
|
<time>2026-07-12T13:09:29.000Z</time>
|
|
</trkpt>
|
|
<trkpt lat="56.011018" lon="8.117529">
|
|
<ele>24.565790</ele>
|
|
<time>2026-07-12T13:09:30.000Z</time>
|
|
</trkpt>
|
|
<trkpt lat="56.011058" lon="8.117498">
|
|
<ele>24.560511</ele>
|
|
<time>2026-07-12T13:09:31.000Z</time>
|
|
</trkpt>
|
|
<trkpt lat="56.011098" lon="8.117466">
|
|
<ele>24.555204</ele>
|
|
<time>2026-07-12T13:09:32.000Z</time>
|
|
</trkpt>
|
|
<trkpt lat="56.011139" lon="8.117436">
|
|
<ele>24.549839</ele>
|
|
<time>2026-07-12T13:09:33.000Z</time>
|
|
</trkpt>
|
|
<trkpt lat="56.011179" lon="8.117408">
|
|
<ele>24.544636</ele>
|
|
<time>2026-07-12T13:09:34.000Z</time>
|
|
</trkpt>
|
|
<trkpt lat="56.011221" lon="8.117376">
|
|
<ele>24.539107</ele>
|
|
<time>2026-07-12T13:09:35.000Z</time>
|
|
</trkpt>
|
|
<trkpt lat="56.011259" lon="8.117345">
|
|
<ele>24.534049</ele>
|
|
<time>2026-07-12T13:09:36.000Z</time>
|
|
</trkpt>
|
|
<trkpt lat="56.011301" lon="8.117314">
|
|
<ele>24.528546</ele>
|
|
<time>2026-07-12T13:09:37.000Z</time>
|
|
</trkpt>
|
|
<trkpt lat="56.011339" lon="8.117283">
|
|
<ele>24.523488</ele>
|
|
<time>2026-07-12T13:09:38.000Z</time>
|
|
</trkpt>
|
|
<trkpt lat="56.011384" lon="8.117246">
|
|
<ele>24.517490</ele>
|
|
<time>2026-07-12T13:09:39.000Z</time>
|
|
</trkpt>
|
|
<trkpt lat="56.011426" lon="8.117212">
|
|
<ele>24.511906</ele>
|
|
<time>2026-07-12T13:09:40.000Z</time>
|
|
</trkpt>
|
|
<trkpt lat="56.011468" lon="8.117178">
|
|
<ele>24.506323</ele>
|
|
<time>2026-07-12T13:09:41.000Z</time>
|
|
</trkpt>
|
|
<trkpt lat="56.011510" lon="8.117146">
|
|
<ele>24.506504</ele>
|
|
<time>2026-07-12T13:09:42.000Z</time>
|
|
</trkpt>
|
|
<trkpt lat="56.011551" lon="8.117117">
|
|
<ele>24.519791</ele>
|
|
<time>2026-07-12T13:09:43.000Z</time>
|
|
</trkpt>
|
|
<trkpt lat="56.011590" lon="8.117086">
|
|
<ele>24.532652</ele>
|
|
<time>2026-07-12T13:09:44.000Z</time>
|
|
</trkpt>
|
|
<trkpt lat="56.011631" lon="8.117056">
|
|
<ele>24.546002</ele>
|
|
<time>2026-07-12T13:09:45.000Z</time>
|
|
</trkpt>
|
|
<trkpt lat="56.011672" lon="8.117027">
|
|
<ele>24.559290</ele>
|
|
<time>2026-07-12T13:09:46.000Z</time>
|
|
</trkpt>
|
|
<trkpt lat="56.011711" lon="8.116997">
|
|
<ele>24.572084</ele>
|
|
<time>2026-07-12T13:09:47.000Z</time>
|
|
</trkpt>
|
|
<trkpt lat="56.011753" lon="8.116966">
|
|
<ele>24.585777</ele>
|
|
<time>2026-07-12T13:09:48.000Z</time>
|
|
</trkpt>
|
|
<trkpt lat="56.011790" lon="8.116937">
|
|
<ele>24.597951</ele>
|
|
<time>2026-07-12T13:09:49.000Z</time>
|
|
</trkpt>
|
|
<trkpt lat="56.011826" lon="8.116909">
|
|
<ele>24.609781</ele>
|
|
<time>2026-07-12T13:09:50.000Z</time>
|
|
</trkpt>
|
|
<trkpt lat="56.011865" lon="8.116880">
|
|
<ele>24.622510</ele>
|
|
<time>2026-07-12T13:09:51.000Z</time>
|
|
</trkpt>
|
|
<trkpt lat="56.011904" lon="8.116848">
|
|
<ele>24.635441</ele>
|
|
<time>2026-07-12T13:09:52.000Z</time>
|
|
</trkpt>
|
|
<trkpt lat="56.011942" lon="8.116816">
|
|
<ele>24.648099</ele>
|
|
<time>2026-07-12T13:09:53.000Z</time>
|
|
</trkpt>
|
|
<trkpt lat="56.011981" lon="8.116784">
|
|
<ele>24.661029</ele>
|
|
<time>2026-07-12T13:09:54.000Z</time>
|
|
</trkpt>
|
|
<trkpt lat="56.012019" lon="8.116757">
|
|
<ele>24.673352</ele>
|
|
<time>2026-07-12T13:09:55.000Z</time>
|
|
</trkpt>
|
|
<trkpt lat="56.012060" lon="8.116724">
|
|
<ele>24.686901</ele>
|
|
<time>2026-07-12T13:09:56.000Z</time>
|
|
</trkpt>
|
|
<trkpt lat="56.012098" lon="8.116694">
|
|
<ele>24.699419</ele>
|
|
<time>2026-07-12T13:09:57.000Z</time>
|
|
</trkpt>
|
|
<trkpt lat="56.012139" lon="8.116664">
|
|
<ele>24.712769</ele>
|
|
<time>2026-07-12T13:09:58.000Z</time>
|
|
</trkpt>
|
|
<trkpt lat="56.012179" lon="8.116635">
|
|
<ele>24.725777</ele>
|
|
<time>2026-07-12T13:09:59.000Z</time>
|
|
</trkpt>
|
|
<trkpt lat="56.012218" lon="8.116605">
|
|
<ele>24.738571</ele>
|
|
<time>2026-07-12T13:10:00.000Z</time>
|
|
</trkpt>
|
|
<trkpt lat="56.012255" lon="8.116575">
|
|
<ele>24.750813</ele>
|
|
<time>2026-07-12T13:10:01.000Z</time>
|
|
</trkpt>
|
|
<trkpt lat="56.012291" lon="8.116547">
|
|
<ele>24.762644</ele>
|
|
<time>2026-07-12T13:10:02.000Z</time>
|
|
</trkpt>
|
|
<trkpt lat="56.012329" lon="8.116519">
|
|
<ele>24.775030</ele>
|
|
<time>2026-07-12T13:10:03.000Z</time>
|
|
</trkpt>
|
|
<trkpt lat="56.012367" lon="8.116492">
|
|
<ele>24.787352</ele>
|
|
<time>2026-07-12T13:10:04.000Z</time>
|
|
</trkpt>
|
|
<trkpt lat="56.012404" lon="8.116468">
|
|
<ele>24.799213</ele>
|
|
<time>2026-07-12T13:10:05.000Z</time>
|
|
</trkpt>
|
|
<trkpt lat="56.012443" lon="8.116443">
|
|
<ele>24.811699</ele>
|
|
<time>2026-07-12T13:10:06.000Z</time>
|
|
</trkpt>
|
|
<trkpt lat="56.012482" lon="8.116419">
|
|
<ele>24.824128</ele>
|
|
<time>2026-07-12T13:10:07.000Z</time>
|
|
</trkpt>
|
|
<trkpt lat="56.012521" lon="8.116394">
|
|
<ele>24.836614</ele>
|
|
<time>2026-07-12T13:10:08.000Z</time>
|
|
</trkpt>
|
|
<trkpt lat="56.012562" lon="8.116368">
|
|
<ele>24.849723</ele>
|
|
<time>2026-07-12T13:10:09.000Z</time>
|
|
</trkpt>
|
|
<trkpt lat="56.012601" lon="8.116342">
|
|
<ele>24.862267</ele>
|
|
<time>2026-07-12T13:10:10.000Z</time>
|
|
</trkpt>
|
|
<trkpt lat="56.012645" lon="8.116317">
|
|
<ele>24.876180</ele>
|
|
<time>2026-07-12T13:10:11.000Z</time>
|
|
</trkpt>
|
|
<trkpt lat="56.012691" lon="8.116295">
|
|
<ele>24.890530</ele>
|
|
<time>2026-07-12T13:10:12.000Z</time>
|
|
</trkpt>
|
|
<trkpt lat="56.012736" lon="8.116273">
|
|
<ele>24.904589</ele>
|
|
<time>2026-07-12T13:10:13.000Z</time>
|
|
</trkpt>
|
|
<trkpt lat="56.012780" lon="8.116251">
|
|
<ele>24.918358</ele>
|
|
<time>2026-07-12T13:10:14.000Z</time>
|
|
</trkpt>
|
|
<trkpt lat="56.012824" lon="8.116229">
|
|
<ele>24.932126</ele>
|
|
<time>2026-07-12T13:10:15.000Z</time>
|
|
</trkpt>
|
|
<trkpt lat="56.012867" lon="8.116205">
|
|
<ele>24.945701</ele>
|
|
<time>2026-07-12T13:10:16.000Z</time>
|
|
</trkpt>
|
|
<trkpt lat="56.012907" lon="8.116185">
|
|
<ele>24.958218</ele>
|
|
<time>2026-07-12T13:10:17.000Z</time>
|
|
</trkpt>
|
|
<trkpt lat="56.012947" lon="8.116168">
|
|
<ele>24.970609</ele>
|
|
<time>2026-07-12T13:10:18.000Z</time>
|
|
</trkpt>
|
|
<trkpt lat="56.012986" lon="8.116151">
|
|
<ele>24.982706</ele>
|
|
<time>2026-07-12T13:10:19.000Z</time>
|
|
</trkpt>
|
|
<trkpt lat="56.013024" lon="8.116133">
|
|
<ele>24.994553</ele>
|
|
<time>2026-07-12T13:10:20.000Z</time>
|
|
</trkpt>
|
|
<trkpt lat="56.013059" lon="8.116114">
|
|
<ele>25.005576</ele>
|
|
<time>2026-07-12T13:10:21.000Z</time>
|
|
</trkpt>
|
|
<trkpt lat="56.013107" lon="8.116089">
|
|
<ele>25.020642</ele>
|
|
<time>2026-07-12T13:10:22.000Z</time>
|
|
</trkpt>
|
|
<trkpt lat="56.013145" lon="8.116067">
|
|
<ele>25.032679</ele>
|
|
<time>2026-07-12T13:10:23.000Z</time>
|
|
</trkpt>
|
|
<trkpt lat="56.013187" lon="8.116043">
|
|
<ele>25.045559</ele>
|
|
<time>2026-07-12T13:10:24.000Z</time>
|
|
</trkpt>
|
|
<trkpt lat="56.013224" lon="8.116020">
|
|
<ele>25.054096</ele>
|
|
<time>2026-07-12T13:10:25.000Z</time>
|
|
</trkpt>
|
|
<trkpt lat="56.013262" lon="8.115993">
|
|
<ele>25.063007</ele>
|
|
<time>2026-07-12T13:10:26.000Z</time>
|
|
</trkpt>
|
|
<trkpt lat="56.013296" lon="8.115971">
|
|
<ele>25.070887</ele>
|
|
<time>2026-07-12T13:10:27.000Z</time>
|
|
</trkpt>
|
|
<trkpt lat="56.013330" lon="8.115951">
|
|
<ele>25.078687</ele>
|
|
<time>2026-07-12T13:10:28.000Z</time>
|
|
</trkpt>
|
|
<trkpt lat="56.013366" lon="8.115932">
|
|
<ele>25.086867</ele>
|
|
<time>2026-07-12T13:10:29.000Z</time>
|
|
</trkpt>
|
|
<trkpt lat="56.013401" lon="8.115912">
|
|
<ele>25.094875</ele>
|
|
<time>2026-07-12T13:10:30.000Z</time>
|
|
</trkpt>
|
|
<trkpt lat="56.013435" lon="8.115891">
|
|
<ele>25.102714</ele>
|
|
<time>2026-07-12T13:10:31.000Z</time>
|
|
</trkpt>
|
|
<trkpt lat="56.013472" lon="8.115871">
|
|
<ele>25.111138</ele>
|
|
<time>2026-07-12T13:10:32.000Z</time>
|
|
</trkpt>
|
|
<trkpt lat="56.013504" lon="8.115853">
|
|
<ele>25.118449</ele>
|
|
<time>2026-07-12T13:10:33.000Z</time>
|
|
</trkpt>
|
|
<trkpt lat="56.013537" lon="8.115834">
|
|
<ele>25.126004</ele>
|
|
<time>2026-07-12T13:10:34.000Z</time>
|
|
</trkpt>
|
|
<trkpt lat="56.013574" lon="8.115813">
|
|
<ele>25.134464</ele>
|
|
<time>2026-07-12T13:10:35.000Z</time>
|
|
</trkpt>
|
|
<trkpt lat="56.013610" lon="8.115789">
|
|
<ele>25.142837</ele>
|
|
<time>2026-07-12T13:10:36.000Z</time>
|
|
</trkpt>
|
|
<trkpt lat="56.013646" lon="8.115766">
|
|
<ele>25.151168</ele>
|
|
<time>2026-07-12T13:10:37.000Z</time>
|
|
</trkpt>
|
|
<trkpt lat="56.013681" lon="8.115742">
|
|
<ele>25.159337</ele>
|
|
<time>2026-07-12T13:10:38.000Z</time>
|
|
</trkpt>
|
|
<trkpt lat="56.013715" lon="8.115721">
|
|
<ele>25.167176</ele>
|
|
<time>2026-07-12T13:10:39.000Z</time>
|
|
</trkpt>
|
|
<trkpt lat="56.013752" lon="8.115700">
|
|
<ele>25.175636</ele>
|
|
<time>2026-07-12T13:10:40.000Z</time>
|
|
</trkpt>
|
|
<trkpt lat="56.013789" lon="8.115680">
|
|
<ele>25.184060</ele>
|
|
<time>2026-07-12T13:10:41.000Z</time>
|
|
</trkpt>
|
|
<trkpt lat="56.013824" lon="8.115658">
|
|
<ele>25.192145</ele>
|
|
<time>2026-07-12T13:10:42.000Z</time>
|
|
</trkpt>
|
|
<trkpt lat="56.013862" lon="8.115635">
|
|
<ele>25.200888</ele>
|
|
<time>2026-07-12T13:10:43.000Z</time>
|
|
</trkpt>
|
|
<trkpt lat="56.013896" lon="8.115612">
|
|
<ele>25.208810</ele>
|
|
<time>2026-07-12T13:10:44.000Z</time>
|
|
</trkpt>
|
|
<trkpt lat="56.013928" lon="8.115593">
|
|
<ele>25.216158</ele>
|
|
<time>2026-07-12T13:10:45.000Z</time>
|
|
</trkpt>
|
|
<trkpt lat="56.013976" lon="8.115567">
|
|
<ele>25.227089</ele>
|
|
<time>2026-07-12T13:10:46.000Z</time>
|
|
</trkpt>
|
|
<trkpt lat="56.014013" lon="8.115545">
|
|
<ele>25.235586</ele>
|
|
<time>2026-07-12T13:10:47.000Z</time>
|
|
</trkpt>
|
|
<trkpt lat="56.014054" lon="8.115522">
|
|
<ele>25.244951</ele>
|
|
<time>2026-07-12T13:10:48.000Z</time>
|
|
</trkpt>
|
|
<trkpt lat="56.014093" lon="8.115499">
|
|
<ele>25.253900</ele>
|
|
<time>2026-07-12T13:10:49.000Z</time>
|
|
</trkpt>
|
|
<trkpt lat="56.014135" lon="8.115475">
|
|
<ele>25.263510</ele>
|
|
<time>2026-07-12T13:10:50.000Z</time>
|
|
</trkpt>
|
|
<trkpt lat="56.014175" lon="8.115453">
|
|
<ele>25.272630</ele>
|
|
<time>2026-07-12T13:10:51.000Z</time>
|
|
</trkpt>
|
|
<trkpt lat="56.014213" lon="8.115433">
|
|
<ele>25.281263</ele>
|
|
<time>2026-07-12T13:10:52.000Z</time>
|
|
</trkpt>
|
|
<trkpt lat="56.014253" lon="8.115415">
|
|
<ele>25.290252</ele>
|
|
<time>2026-07-12T13:10:53.000Z</time>
|
|
</trkpt>
|
|
<trkpt lat="56.014294" lon="8.115399">
|
|
<ele>25.299398</ele>
|
|
<time>2026-07-12T13:10:54.000Z</time>
|
|
</trkpt>
|
|
<trkpt lat="56.014334" lon="8.115381">
|
|
<ele>25.308387</ele>
|
|
<time>2026-07-12T13:10:55.000Z</time>
|
|
</trkpt>
|
|
<trkpt lat="56.014375" lon="8.115359">
|
|
<ele>25.317716</ele>
|
|
<time>2026-07-12T13:10:56.000Z</time>
|
|
</trkpt>
|
|
<trkpt lat="56.014416" lon="8.115338">
|
|
<ele>25.327010</ele>
|
|
<time>2026-07-12T13:10:57.000Z</time>
|
|
</trkpt>
|
|
<trkpt lat="56.014455" lon="8.115316">
|
|
<ele>25.335922</ele>
|
|
<time>2026-07-12T13:10:58.000Z</time>
|
|
</trkpt>
|
|
<trkpt lat="56.014496" lon="8.115295">
|
|
<ele>25.345217</ele>
|
|
<time>2026-07-12T13:10:59.000Z</time>
|
|
</trkpt>
|
|
<trkpt lat="56.014536" lon="8.115273">
|
|
<ele>25.354337</ele>
|
|
<time>2026-07-12T13:11:00.000Z</time>
|
|
</trkpt>
|
|
<trkpt lat="56.014576" lon="8.115251">
|
|
<ele>25.363458</ele>
|
|
<time>2026-07-12T13:11:01.000Z</time>
|
|
</trkpt>
|
|
<trkpt lat="56.014614" lon="8.115228">
|
|
<ele>25.372201</ele>
|
|
<time>2026-07-12T13:11:02.000Z</time>
|
|
</trkpt>
|
|
<trkpt lat="56.014654" lon="8.115207">
|
|
<ele>25.381286</ele>
|
|
<time>2026-07-12T13:11:03.000Z</time>
|
|
</trkpt>
|
|
<trkpt lat="56.014695" lon="8.115187">
|
|
<ele>25.390548</ele>
|
|
<time>2026-07-12T13:11:04.000Z</time>
|
|
</trkpt>
|
|
<trkpt lat="56.014735" lon="8.115165">
|
|
<ele>25.399668</ele>
|
|
<time>2026-07-12T13:11:05.000Z</time>
|
|
</trkpt>
|
|
<trkpt lat="56.014776" lon="8.115143">
|
|
<ele>25.408997</ele>
|
|
<time>2026-07-12T13:11:06.000Z</time>
|
|
</trkpt>
|
|
<trkpt lat="56.014818" lon="8.115120">
|
|
<ele>25.418570</ele>
|
|
<time>2026-07-12T13:11:07.000Z</time>
|
|
</trkpt>
|
|
<trkpt lat="56.014858" lon="8.115098">
|
|
<ele>25.427690</ele>
|
|
<time>2026-07-12T13:11:08.000Z</time>
|
|
</trkpt>
|
|
<trkpt lat="56.014896" lon="8.115078">
|
|
<ele>25.436323</ele>
|
|
<time>2026-07-12T13:11:09.000Z</time>
|
|
</trkpt>
|
|
<trkpt lat="56.014939" lon="8.115055">
|
|
<ele>25.462479</ele>
|
|
<time>2026-07-12T13:11:10.000Z</time>
|
|
</trkpt>
|
|
<trkpt lat="56.014979" lon="8.115032">
|
|
<ele>25.487233</ele>
|
|
<time>2026-07-12T13:11:11.000Z</time>
|
|
</trkpt>
|
|
<trkpt lat="56.015020" lon="8.115010">
|
|
<ele>25.512452</ele>
|
|
<time>2026-07-12T13:11:12.000Z</time>
|
|
</trkpt>
|
|
<trkpt lat="56.015062" lon="8.114988">
|
|
<ele>25.538235</ele>
|
|
<time>2026-07-12T13:11:13.000Z</time>
|
|
</trkpt>
|
|
<trkpt lat="56.015102" lon="8.114966">
|
|
<ele>25.562890</ele>
|
|
<time>2026-07-12T13:11:14.000Z</time>
|
|
</trkpt>
|
|
<trkpt lat="56.015140" lon="8.114943">
|
|
<ele>25.586525</ele>
|
|
<time>2026-07-12T13:11:15.000Z</time>
|
|
</trkpt>
|
|
<trkpt lat="56.015179" lon="8.114920">
|
|
<ele>25.610719</ele>
|
|
<time>2026-07-12T13:11:16.000Z</time>
|
|
</trkpt>
|
|
<trkpt lat="56.015217" lon="8.114898">
|
|
<ele>25.634250</ele>
|
|
<time>2026-07-12T13:11:17.000Z</time>
|
|
</trkpt>
|
|
<trkpt lat="56.015255" lon="8.114876">
|
|
<ele>25.657781</ele>
|
|
<time>2026-07-12T13:11:18.000Z</time>
|
|
</trkpt>
|
|
<trkpt lat="56.015291" lon="8.114852">
|
|
<ele>25.680416</ele>
|
|
<time>2026-07-12T13:11:19.000Z</time>
|
|
</trkpt>
|
|
<trkpt lat="56.015327" lon="8.114828">
|
|
<ele>25.703050</ele>
|
|
<time>2026-07-12T13:11:20.000Z</time>
|
|
</trkpt>
|
|
<trkpt lat="56.015366" lon="8.114804">
|
|
<ele>25.727349</ele>
|
|
<time>2026-07-12T13:11:21.000Z</time>
|
|
</trkpt>
|
|
<trkpt lat="56.015404" lon="8.114780">
|
|
<ele>25.751091</ele>
|
|
<time>2026-07-12T13:11:22.000Z</time>
|
|
</trkpt>
|
|
<trkpt lat="56.015442" lon="8.114756">
|
|
<ele>25.774833</ele>
|
|
<time>2026-07-12T13:11:23.000Z</time>
|
|
</trkpt>
|
|
<trkpt lat="56.015478" lon="8.114736">
|
|
<ele>25.797042</ele>
|
|
<time>2026-07-12T13:11:24.000Z</time>
|
|
</trkpt>
|
|
<trkpt lat="56.015512" lon="8.114715">
|
|
<ele>25.818234</ele>
|
|
<time>2026-07-12T13:11:25.000Z</time>
|
|
</trkpt>
|
|
<trkpt lat="56.015545" lon="8.114693">
|
|
<ele>25.838982</ele>
|
|
<time>2026-07-12T13:11:26.000Z</time>
|
|
</trkpt>
|
|
<trkpt lat="56.015577" lon="8.114674">
|
|
<ele>25.858847</ele>
|
|
<time>2026-07-12T13:11:27.000Z</time>
|
|
</trkpt>
|
|
<trkpt lat="56.015610" lon="8.114655">
|
|
<ele>25.879271</ele>
|
|
<time>2026-07-12T13:11:28.000Z</time>
|
|
</trkpt>
|
|
<trkpt lat="56.015642" lon="8.114638">
|
|
<ele>25.898938</ele>
|
|
<time>2026-07-12T13:11:29.000Z</time>
|
|
</trkpt>
|
|
<trkpt lat="56.015674" lon="8.114620">
|
|
<ele>25.918701</ele>
|
|
<time>2026-07-12T13:11:30.000Z</time>
|
|
</trkpt>
|
|
<trkpt lat="56.015702" lon="8.114602">
|
|
<ele>25.936230</ele>
|
|
<time>2026-07-12T13:11:31.000Z</time>
|
|
</trkpt>
|
|
<trkpt lat="56.015733" lon="8.114584">
|
|
<ele>25.955432</ele>
|
|
<time>2026-07-12T13:11:32.000Z</time>
|
|
</trkpt>
|
|
<trkpt lat="56.015763" lon="8.114564">
|
|
<ele>25.974294</ele>
|
|
<time>2026-07-12T13:11:33.000Z</time>
|
|
</trkpt>
|
|
<trkpt lat="56.015789" lon="8.114543">
|
|
<ele>25.991101</ele>
|
|
<time>2026-07-12T13:11:34.000Z</time>
|
|
</trkpt>
|
|
<trkpt lat="56.015808" lon="8.114528">
|
|
<ele>26.003337</ele>
|
|
<time>2026-07-12T13:11:35.000Z</time>
|
|
</trkpt>
|
|
<trkpt lat="56.015858" lon="8.114490">
|
|
<ele>26.035343</ele>
|
|
<time>2026-07-12T13:11:36.000Z</time>
|
|
</trkpt>
|
|
<trkpt lat="56.015890" lon="8.114463">
|
|
<ele>26.056187</ele>
|
|
<time>2026-07-12T13:11:37.000Z</time>
|
|
</trkpt>
|
|
<trkpt lat="56.015923" lon="8.114437">
|
|
<ele>26.077431</ele>
|
|
<time>2026-07-12T13:11:38.000Z</time>
|
|
</trkpt>
|
|
<trkpt lat="56.015955" lon="8.114411">
|
|
<ele>26.098138</ele>
|
|
<time>2026-07-12T13:11:39.000Z</time>
|
|
</trkpt>
|
|
<trkpt lat="56.015989" lon="8.114380">
|
|
<ele>26.120621</ele>
|
|
<time>2026-07-12T13:11:40.000Z</time>
|
|
</trkpt>
|
|
<trkpt lat="56.016022" lon="8.114351">
|
|
<ele>26.142282</ele>
|
|
<time>2026-07-12T13:11:41.000Z</time>
|
|
</trkpt>
|
|
<trkpt lat="56.016058" lon="8.114320">
|
|
<ele>26.165821</ele>
|
|
<time>2026-07-12T13:11:42.000Z</time>
|
|
</trkpt>
|
|
<trkpt lat="56.016092" lon="8.114294">
|
|
<ele>26.187605</ele>
|
|
<time>2026-07-12T13:11:43.000Z</time>
|
|
</trkpt>
|
|
<trkpt lat="56.016127" lon="8.114266">
|
|
<ele>26.210194</ele>
|
|
<time>2026-07-12T13:11:44.000Z</time>
|
|
</trkpt>
|
|
<trkpt lat="56.016164" lon="8.114236">
|
|
<ele>26.234127</ele>
|
|
<time>2026-07-12T13:11:45.000Z</time>
|
|
</trkpt>
|
|
<trkpt lat="56.016199" lon="8.114207">
|
|
<ele>26.256852</ele>
|
|
<time>2026-07-12T13:11:46.000Z</time>
|
|
</trkpt>
|
|
<trkpt lat="56.016234" lon="8.114178">
|
|
<ele>26.279577</ele>
|
|
<time>2026-07-12T13:11:47.000Z</time>
|
|
</trkpt>
|
|
<trkpt lat="56.016273" lon="8.114147">
|
|
<ele>26.304720</ele>
|
|
<time>2026-07-12T13:11:48.000Z</time>
|
|
</trkpt>
|
|
<trkpt lat="56.016310" lon="8.114116">
|
|
<ele>26.328791</ele>
|
|
<time>2026-07-12T13:11:49.000Z</time>
|
|
</trkpt>
|
|
<trkpt lat="56.016346" lon="8.114083">
|
|
<ele>26.352622</ele>
|
|
<time>2026-07-12T13:11:50.000Z</time>
|
|
</trkpt>
|
|
<trkpt lat="56.016384" lon="8.114051">
|
|
<ele>26.377367</ele>
|
|
<time>2026-07-12T13:11:51.000Z</time>
|
|
</trkpt>
|
|
<trkpt lat="56.016422" lon="8.114020">
|
|
<ele>26.401972</ele>
|
|
<time>2026-07-12T13:11:52.000Z</time>
|
|
</trkpt>
|
|
<trkpt lat="56.016459" lon="8.113991">
|
|
<ele>26.425772</ele>
|
|
<time>2026-07-12T13:11:53.000Z</time>
|
|
</trkpt>
|
|
<trkpt lat="56.016498" lon="8.113961">
|
|
<ele>26.450783</ele>
|
|
<time>2026-07-12T13:11:54.000Z</time>
|
|
</trkpt>
|
|
<trkpt lat="56.016535" lon="8.113931">
|
|
<ele>26.474716</ele>
|
|
<time>2026-07-12T13:11:55.000Z</time>
|
|
</trkpt>
|
|
<trkpt lat="56.016571" lon="8.113898">
|
|
<ele>26.498939</ele>
|
|
<time>2026-07-12T13:11:56.000Z</time>
|
|
</trkpt>
|
|
<trkpt lat="56.016609" lon="8.113864">
|
|
<ele>26.528109</ele>
|
|
<time>2026-07-12T13:11:57.000Z</time>
|
|
</trkpt>
|
|
<trkpt lat="56.016645" lon="8.113833">
|
|
<ele>26.555540</ele>
|
|
<time>2026-07-12T13:11:58.000Z</time>
|
|
</trkpt>
|
|
<trkpt lat="56.016681" lon="8.113802">
|
|
<ele>26.582970</ele>
|
|
<time>2026-07-12T13:11:59.000Z</time>
|
|
</trkpt>
|
|
<trkpt lat="56.016722" lon="8.113769">
|
|
<ele>26.613837</ele>
|
|
<time>2026-07-12T13:12:00.000Z</time>
|
|
</trkpt>
|
|
<trkpt lat="56.016756" lon="8.113741">
|
|
<ele>26.639534</ele>
|
|
<time>2026-07-12T13:12:01.000Z</time>
|
|
</trkpt>
|
|
<trkpt lat="56.016787" lon="8.113718">
|
|
<ele>26.662575</ele>
|
|
<time>2026-07-12T13:12:02.000Z</time>
|
|
</trkpt>
|
|
<trkpt lat="56.016814" lon="8.113700">
|
|
<ele>26.682358</ele>
|
|
<time>2026-07-12T13:12:03.000Z</time>
|
|
</trkpt>
|
|
<trkpt lat="56.016843" lon="8.113683">
|
|
<ele>26.703310</ele>
|
|
<time>2026-07-12T13:12:04.000Z</time>
|
|
</trkpt>
|
|
<trkpt lat="56.016880" lon="8.113654">
|
|
<ele>26.731043</ele>
|
|
<time>2026-07-12T13:12:05.000Z</time>
|
|
</trkpt>
|
|
<trkpt lat="56.016904" lon="8.113637">
|
|
<ele>26.748765</ele>
|
|
<time>2026-07-12T13:12:06.000Z</time>
|
|
</trkpt>
|
|
<trkpt lat="56.016943" lon="8.113608">
|
|
<ele>26.777762</ele>
|
|
<time>2026-07-12T13:12:07.000Z</time>
|
|
</trkpt>
|
|
<trkpt lat="56.016973" lon="8.113584">
|
|
<ele>26.800325</ele>
|
|
<time>2026-07-12T13:12:08.000Z</time>
|
|
</trkpt>
|
|
<trkpt lat="56.017005" lon="8.113559">
|
|
<ele>26.824298</ele>
|
|
<time>2026-07-12T13:12:09.000Z</time>
|
|
</trkpt>
|
|
<trkpt lat="56.017038" lon="8.113527">
|
|
<ele>26.850069</ele>
|
|
<time>2026-07-12T13:12:10.000Z</time>
|
|
</trkpt>
|
|
<trkpt lat="56.017074" lon="8.113493">
|
|
<ele>26.878017</ele>
|
|
<time>2026-07-12T13:12:11.000Z</time>
|
|
</trkpt>
|
|
<trkpt lat="56.017108" lon="8.113464">
|
|
<ele>26.903878</ele>
|
|
<time>2026-07-12T13:12:12.000Z</time>
|
|
</trkpt>
|
|
<trkpt lat="56.017144" lon="8.113440">
|
|
<ele>26.930254</ele>
|
|
<time>2026-07-12T13:12:13.000Z</time>
|
|
</trkpt>
|
|
<trkpt lat="56.017177" lon="8.113418">
|
|
<ele>26.954433</ele>
|
|
<time>2026-07-12T13:12:14.000Z</time>
|
|
</trkpt>
|
|
<trkpt lat="56.017210" lon="8.113396">
|
|
<ele>26.978611</ele>
|
|
<time>2026-07-12T13:12:15.000Z</time>
|
|
</trkpt>
|
|
<trkpt lat="56.017246" lon="8.113374">
|
|
<ele>27.004730</ele>
|
|
<time>2026-07-12T13:12:16.000Z</time>
|
|
</trkpt>
|
|
<trkpt lat="56.017278" lon="8.113352">
|
|
<ele>27.028266</ele>
|
|
<time>2026-07-12T13:12:17.000Z</time>
|
|
</trkpt>
|
|
<trkpt lat="56.017317" lon="8.113325">
|
|
<ele>27.056977</ele>
|
|
<time>2026-07-12T13:12:18.000Z</time>
|
|
</trkpt>
|
|
<trkpt lat="56.017355" lon="8.113302">
|
|
<ele>27.084519</ele>
|
|
<time>2026-07-12T13:12:19.000Z</time>
|
|
</trkpt>
|
|
<trkpt lat="56.017394" lon="8.113279">
|
|
<ele>27.112712</ele>
|
|
<time>2026-07-12T13:12:20.000Z</time>
|
|
</trkpt>
|
|
<trkpt lat="56.017431" lon="8.113256">
|
|
<ele>27.139605</ele>
|
|
<time>2026-07-12T13:12:21.000Z</time>
|
|
</trkpt>
|
|
<trkpt lat="56.017466" lon="8.113231">
|
|
<ele>27.165479</ele>
|
|
<time>2026-07-12T13:12:22.000Z</time>
|
|
</trkpt>
|
|
<trkpt lat="56.017504" lon="8.113208">
|
|
<ele>27.193021</ele>
|
|
<time>2026-07-12T13:12:23.000Z</time>
|
|
</trkpt>
|
|
<trkpt lat="56.017541" lon="8.113181">
|
|
<ele>27.220455</ele>
|
|
<time>2026-07-12T13:12:24.000Z</time>
|
|
</trkpt>
|
|
<trkpt lat="56.017575" lon="8.113154">
|
|
<ele>27.245995</ele>
|
|
<time>2026-07-12T13:12:25.000Z</time>
|
|
</trkpt>
|
|
<trkpt lat="56.017609" lon="8.113130">
|
|
<ele>27.271089</ele>
|
|
<time>2026-07-12T13:12:26.000Z</time>
|
|
</trkpt>
|
|
<trkpt lat="56.017641" lon="8.113113">
|
|
<ele>27.294007</ele>
|
|
<time>2026-07-12T13:12:27.000Z</time>
|
|
</trkpt>
|
|
<trkpt lat="56.017686" lon="8.113089">
|
|
<ele>27.326246</ele>
|
|
<time>2026-07-12T13:12:28.000Z</time>
|
|
</trkpt>
|
|
<trkpt lat="56.017723" lon="8.113067">
|
|
<ele>27.353015</ele>
|
|
<time>2026-07-12T13:12:29.000Z</time>
|
|
</trkpt>
|
|
<trkpt lat="56.017764" lon="8.113044">
|
|
<ele>27.382516</ele>
|
|
<time>2026-07-12T13:12:30.000Z</time>
|
|
</trkpt>
|
|
<trkpt lat="56.017802" lon="8.113025">
|
|
<ele>27.409605</ele>
|
|
<time>2026-07-12T13:12:31.000Z</time>
|
|
</trkpt>
|
|
<trkpt lat="56.017839" lon="8.113008">
|
|
<ele>27.435832</ele>
|
|
<time>2026-07-12T13:12:32.000Z</time>
|
|
</trkpt>
|
|
<trkpt lat="56.017874" lon="8.112993">
|
|
<ele>27.460542</ele>
|
|
<time>2026-07-12T13:12:33.000Z</time>
|
|
</trkpt>
|
|
<trkpt lat="56.017912" lon="8.112978">
|
|
<ele>27.487259</ele>
|
|
<time>2026-07-12T13:12:34.000Z</time>
|
|
</trkpt>
|
|
<trkpt lat="56.017950" lon="8.112959">
|
|
<ele>27.514348</ele>
|
|
<time>2026-07-12T13:12:35.000Z</time>
|
|
</trkpt>
|
|
<trkpt lat="56.017990" lon="8.112938">
|
|
<ele>27.542968</ele>
|
|
<time>2026-07-12T13:12:36.000Z</time>
|
|
</trkpt>
|
|
<trkpt lat="56.018029" lon="8.112915">
|
|
<ele>27.571161</ele>
|
|
<time>2026-07-12T13:12:37.000Z</time>
|
|
</trkpt>
|
|
<trkpt lat="56.018065" lon="8.112892">
|
|
<ele>27.597406</ele>
|
|
<time>2026-07-12T13:12:38.000Z</time>
|
|
</trkpt>
|
|
<trkpt lat="56.018103" lon="8.112870">
|
|
<ele>27.624828</ele>
|
|
<time>2026-07-12T13:12:39.000Z</time>
|
|
</trkpt>
|
|
<trkpt lat="56.018141" lon="8.112847">
|
|
<ele>27.652370</ele>
|
|
<time>2026-07-12T13:12:40.000Z</time>
|
|
</trkpt>
|
|
<trkpt lat="56.018177" lon="8.112823">
|
|
<ele>27.678746</ele>
|
|
<time>2026-07-12T13:12:41.000Z</time>
|
|
</trkpt>
|
|
<trkpt lat="56.018214" lon="8.112795">
|
|
<ele>27.706328</ele>
|
|
<time>2026-07-12T13:12:42.000Z</time>
|
|
</trkpt>
|
|
<trkpt lat="56.018251" lon="8.112765">
|
|
<ele>27.727231</ele>
|
|
<time>2026-07-12T13:12:43.000Z</time>
|
|
</trkpt>
|
|
<trkpt lat="56.018285" lon="8.112733">
|
|
<ele>27.695161</ele>
|
|
<time>2026-07-12T13:12:44.000Z</time>
|
|
</trkpt>
|
|
<trkpt lat="56.018321" lon="8.112701">
|
|
<ele>27.661605</ele>
|
|
<time>2026-07-12T13:12:45.000Z</time>
|
|
</trkpt>
|
|
<trkpt lat="56.018360" lon="8.112672">
|
|
<ele>27.626348</ele>
|
|
<time>2026-07-12T13:12:46.000Z</time>
|
|
</trkpt>
|
|
<trkpt lat="56.018399" lon="8.112650">
|
|
<ele>27.592212</ele>
|
|
<time>2026-07-12T13:12:47.000Z</time>
|
|
</trkpt>
|
|
<trkpt lat="56.018436" lon="8.112632">
|
|
<ele>27.560204</ele>
|
|
<time>2026-07-12T13:12:48.000Z</time>
|
|
</trkpt>
|
|
<trkpt lat="56.018472" lon="8.112620">
|
|
<ele>27.529635</ele>
|
|
<time>2026-07-12T13:12:49.000Z</time>
|
|
</trkpt>
|
|
<trkpt lat="56.018506" lon="8.112612">
|
|
<ele>27.501008</ele>
|
|
<time>2026-07-12T13:12:50.000Z</time>
|
|
</trkpt>
|
|
<trkpt lat="56.018540" lon="8.112606">
|
|
<ele>27.472488</ele>
|
|
<time>2026-07-12T13:12:51.000Z</time>
|
|
</trkpt>
|
|
<trkpt lat="56.018573" lon="8.112600">
|
|
<ele>27.444798</ele>
|
|
<time>2026-07-12T13:12:52.000Z</time>
|
|
</trkpt>
|
|
<trkpt lat="56.018602" lon="8.112593">
|
|
<ele>27.420370</ele>
|
|
<time>2026-07-12T13:12:53.000Z</time>
|
|
</trkpt>
|
|
<trkpt lat="56.018630" lon="8.112585">
|
|
<ele>27.396700</ele>
|
|
<time>2026-07-12T13:12:54.000Z</time>
|
|
</trkpt>
|
|
<trkpt lat="56.018655" lon="8.112576">
|
|
<ele>27.375412</ele>
|
|
<time>2026-07-12T13:12:55.000Z</time>
|
|
</trkpt>
|
|
<trkpt lat="56.018677" lon="8.112564">
|
|
<ele>27.356213</ele>
|
|
<time>2026-07-12T13:12:56.000Z</time>
|
|
</trkpt>
|
|
<trkpt lat="56.018701" lon="8.112548">
|
|
<ele>27.334832</ele>
|
|
<time>2026-07-12T13:12:57.000Z</time>
|
|
</trkpt>
|
|
<trkpt lat="56.018730" lon="8.112522">
|
|
<ele>27.307755</ele>
|
|
<time>2026-07-12T13:12:58.000Z</time>
|
|
</trkpt>
|
|
<trkpt lat="56.018766" lon="8.112484">
|
|
<ele>27.272862</ele>
|
|
<time>2026-07-12T13:12:59.000Z</time>
|
|
</trkpt>
|
|
<trkpt lat="56.018802" lon="8.112446">
|
|
<ele>27.237970</ele>
|
|
<time>2026-07-12T13:13:00.000Z</time>
|
|
</trkpt>
|
|
<trkpt lat="56.018840" lon="8.112405">
|
|
<ele>27.200927</ele>
|
|
<time>2026-07-12T13:13:01.000Z</time>
|
|
</trkpt>
|
|
<trkpt lat="56.018882" lon="8.112368">
|
|
<ele>27.161846</ele>
|
|
<time>2026-07-12T13:13:02.000Z</time>
|
|
</trkpt>
|
|
<trkpt lat="56.018923" lon="8.112341">
|
|
<ele>27.125376</ele>
|
|
<time>2026-07-12T13:13:03.000Z</time>
|
|
</trkpt>
|
|
<trkpt lat="56.018964" lon="8.112318">
|
|
<ele>27.089507</ele>
|
|
<time>2026-07-12T13:13:04.000Z</time>
|
|
</trkpt>
|
|
<trkpt lat="56.019006" lon="8.112304">
|
|
<ele>27.053843</ele>
|
|
<time>2026-07-12T13:13:05.000Z</time>
|
|
</trkpt>
|
|
<trkpt lat="56.019048" lon="8.112291">
|
|
<ele>27.018261</ele>
|
|
<time>2026-07-12T13:13:06.000Z</time>
|
|
</trkpt>
|
|
<trkpt lat="56.019094" lon="8.112280">
|
|
<ele>26.979520</ele>
|
|
<time>2026-07-12T13:13:07.000Z</time>
|
|
</trkpt>
|
|
<trkpt lat="56.019150" lon="8.112269">
|
|
<ele>26.932492</ele>
|
|
<time>2026-07-12T13:13:08.000Z</time>
|
|
</trkpt>
|
|
<trkpt lat="56.019207" lon="8.112257">
|
|
<ele>26.884581</ele>
|
|
<time>2026-07-12T13:13:09.000Z</time>
|
|
</trkpt>
|
|
<trkpt lat="56.019264" lon="8.112246">
|
|
<ele>26.836723</ele>
|
|
<time>2026-07-12T13:13:10.000Z</time>
|
|
</trkpt>
|
|
<trkpt lat="56.019320" lon="8.112235">
|
|
<ele>26.789694</ele>
|
|
<time>2026-07-12T13:13:11.000Z</time>
|
|
</trkpt>
|
|
<trkpt lat="56.019369" lon="8.112221">
|
|
<ele>26.748272</ele>
|
|
<time>2026-07-12T13:13:12.000Z</time>
|
|
</trkpt>
|
|
<trkpt lat="56.019416" lon="8.112206">
|
|
<ele>26.708418</ele>
|
|
<time>2026-07-12T13:13:13.000Z</time>
|
|
</trkpt>
|
|
<trkpt lat="56.019467" lon="8.112190">
|
|
<ele>26.665194</ele>
|
|
<time>2026-07-12T13:13:14.000Z</time>
|
|
</trkpt>
|
|
<trkpt lat="56.019521" lon="8.112180">
|
|
<ele>26.619876</ele>
|
|
<time>2026-07-12T13:13:15.000Z</time>
|
|
</trkpt>
|
|
<trkpt lat="56.019578" lon="8.112178">
|
|
<ele>26.572284</ele>
|
|
<time>2026-07-12T13:13:16.000Z</time>
|
|
</trkpt>
|
|
<trkpt lat="56.019640" lon="8.112178">
|
|
<ele>26.520528</ele>
|
|
<time>2026-07-12T13:13:17.000Z</time>
|
|
</trkpt>
|
|
<trkpt lat="56.019699" lon="8.112178">
|
|
<ele>26.471276</ele>
|
|
<time>2026-07-12T13:13:18.000Z</time>
|
|
</trkpt>
|
|
<trkpt lat="56.019753" lon="8.112181">
|
|
<ele>26.426176</ele>
|
|
<time>2026-07-12T13:13:19.000Z</time>
|
|
</trkpt>
|
|
<trkpt lat="56.019806" lon="8.112185">
|
|
<ele>26.381893</ele>
|
|
<time>2026-07-12T13:13:20.000Z</time>
|
|
</trkpt>
|
|
<trkpt lat="56.019858" lon="8.112188">
|
|
<ele>26.338462</ele>
|
|
<time>2026-07-12T13:13:21.000Z</time>
|
|
</trkpt>
|
|
<trkpt lat="56.019906" lon="8.112192">
|
|
<ele>26.298350</ele>
|
|
<time>2026-07-12T13:13:22.000Z</time>
|
|
</trkpt>
|
|
<trkpt lat="56.019954" lon="8.112193">
|
|
<ele>26.258277</ele>
|
|
<time>2026-07-12T13:13:23.000Z</time>
|
|
</trkpt>
|
|
<trkpt lat="56.020000" lon="8.112195">
|
|
<ele>26.230061</ele>
|
|
<time>2026-07-12T13:13:24.000Z</time>
|
|
</trkpt>
|
|
<trkpt lat="56.020046" lon="8.112200">
|
|
<ele>26.231900</ele>
|
|
<time>2026-07-12T13:13:25.000Z</time>
|
|
</trkpt>
|
|
<trkpt lat="56.020098" lon="8.112207">
|
|
<ele>26.233981</ele>
|
|
<time>2026-07-12T13:13:26.000Z</time>
|
|
</trkpt>
|
|
<trkpt lat="56.020151" lon="8.112214">
|
|
<ele>26.236101</ele>
|
|
<time>2026-07-12T13:13:27.000Z</time>
|
|
</trkpt>
|
|
<trkpt lat="56.020203" lon="8.112219">
|
|
<ele>26.238179</ele>
|
|
<time>2026-07-12T13:13:28.000Z</time>
|
|
</trkpt>
|
|
<trkpt lat="56.020251" lon="8.112223">
|
|
<ele>26.240097</ele>
|
|
<time>2026-07-12T13:13:29.000Z</time>
|
|
</trkpt>
|
|
<trkpt lat="56.020297" lon="8.112225">
|
|
<ele>26.241933</ele>
|
|
<time>2026-07-12T13:13:30.000Z</time>
|
|
</trkpt>
|
|
<trkpt lat="56.020341" lon="8.112223">
|
|
<ele>26.243689</ele>
|
|
<time>2026-07-12T13:13:31.000Z</time>
|
|
</trkpt>
|
|
<trkpt lat="56.020385" lon="8.112216">
|
|
<ele>26.245452</ele>
|
|
<time>2026-07-12T13:13:32.000Z</time>
|
|
</trkpt>
|
|
<trkpt lat="56.020428" lon="8.112208">
|
|
<ele>26.247177</ele>
|
|
<time>2026-07-12T13:13:33.000Z</time>
|
|
</trkpt>
|
|
<trkpt lat="56.020471" lon="8.112200">
|
|
<ele>26.248902</ele>
|
|
<time>2026-07-12T13:13:34.000Z</time>
|
|
</trkpt>
|
|
<trkpt lat="56.020518" lon="8.112190">
|
|
<ele>26.250791</ele>
|
|
<time>2026-07-12T13:13:35.000Z</time>
|
|
</trkpt>
|
|
<trkpt lat="56.020564" lon="8.112185">
|
|
<ele>26.252630</ele>
|
|
<time>2026-07-12T13:13:36.000Z</time>
|
|
</trkpt>
|
|
<trkpt lat="56.020609" lon="8.112179">
|
|
<ele>26.254431</ele>
|
|
<time>2026-07-12T13:13:37.000Z</time>
|
|
</trkpt>
|
|
<trkpt lat="56.020649" lon="8.112174">
|
|
<ele>26.256031</ele>
|
|
<time>2026-07-12T13:13:38.000Z</time>
|
|
</trkpt>
|
|
<trkpt lat="56.020687" lon="8.112175">
|
|
<ele>26.257548</ele>
|
|
<time>2026-07-12T13:13:39.000Z</time>
|
|
</trkpt>
|
|
<trkpt lat="56.020723" lon="8.112182">
|
|
<ele>26.258993</ele>
|
|
<time>2026-07-12T13:13:40.000Z</time>
|
|
</trkpt>
|
|
<trkpt lat="56.020759" lon="8.112193">
|
|
<ele>26.260450</ele>
|
|
<time>2026-07-12T13:13:41.000Z</time>
|
|
</trkpt>
|
|
<trkpt lat="56.020800" lon="8.112208">
|
|
<ele>26.262120</ele>
|
|
<time>2026-07-12T13:13:42.000Z</time>
|
|
</trkpt>
|
|
<trkpt lat="56.020845" lon="8.112224">
|
|
<ele>26.263951</ele>
|
|
<time>2026-07-12T13:13:43.000Z</time>
|
|
</trkpt>
|
|
<trkpt lat="56.020887" lon="8.112239">
|
|
<ele>26.265660</ele>
|
|
<time>2026-07-12T13:13:44.000Z</time>
|
|
</trkpt>
|
|
<trkpt lat="56.020930" lon="8.112255">
|
|
<ele>26.267412</ele>
|
|
<time>2026-07-12T13:13:45.000Z</time>
|
|
</trkpt>
|
|
<trkpt lat="56.020973" lon="8.112275">
|
|
<ele>26.269185</ele>
|
|
<time>2026-07-12T13:13:46.000Z</time>
|
|
</trkpt>
|
|
<trkpt lat="56.021015" lon="8.112295">
|
|
<ele>26.270920</ele>
|
|
<time>2026-07-12T13:13:47.000Z</time>
|
|
</trkpt>
|
|
<trkpt lat="56.021056" lon="8.112310">
|
|
<ele>26.272590</ele>
|
|
<time>2026-07-12T13:13:48.000Z</time>
|
|
</trkpt>
|
|
<trkpt lat="56.021106" lon="8.112317">
|
|
<ele>26.274591</ele>
|
|
<time>2026-07-12T13:13:49.000Z</time>
|
|
</trkpt>
|
|
<trkpt lat="56.021150" lon="8.112314">
|
|
<ele>26.276348</ele>
|
|
<time>2026-07-12T13:13:50.000Z</time>
|
|
</trkpt>
|
|
<trkpt lat="56.021193" lon="8.112303">
|
|
<ele>26.278081</ele>
|
|
<time>2026-07-12T13:13:51.000Z</time>
|
|
</trkpt>
|
|
<trkpt lat="56.021238" lon="8.112282">
|
|
<ele>26.279937</ele>
|
|
<time>2026-07-12T13:13:52.000Z</time>
|
|
</trkpt>
|
|
<trkpt lat="56.021280" lon="8.112259">
|
|
<ele>26.281690</ele>
|
|
<time>2026-07-12T13:13:53.000Z</time>
|
|
</trkpt>
|
|
<trkpt lat="56.021319" lon="8.112237">
|
|
<ele>26.283322</ele>
|
|
<time>2026-07-12T13:13:54.000Z</time>
|
|
</trkpt>
|
|
<trkpt lat="56.021351" lon="8.112225">
|
|
<ele>26.284626</ele>
|
|
<time>2026-07-12T13:13:55.000Z</time>
|
|
</trkpt>
|
|
<trkpt lat="56.021382" lon="8.112223">
|
|
<ele>26.285864</ele>
|
|
<time>2026-07-12T13:13:56.000Z</time>
|
|
</trkpt>
|
|
<trkpt lat="56.021414" lon="8.112226">
|
|
<ele>26.287143</ele>
|
|
<time>2026-07-12T13:13:57.000Z</time>
|
|
</trkpt>
|
|
<trkpt lat="56.021447" lon="8.112228">
|
|
<ele>26.288461</ele>
|
|
<time>2026-07-12T13:13:58.000Z</time>
|
|
</trkpt>
|
|
<trkpt lat="56.021479" lon="8.112221">
|
|
<ele>26.289747</ele>
|
|
<time>2026-07-12T13:13:59.000Z</time>
|
|
</trkpt>
|
|
<trkpt lat="56.021516" lon="8.112202">
|
|
<ele>26.291283</ele>
|
|
<time>2026-07-12T13:14:00.000Z</time>
|
|
</trkpt>
|
|
<trkpt lat="56.021559" lon="8.112177">
|
|
<ele>26.293087</ele>
|
|
<time>2026-07-12T13:14:01.000Z</time>
|
|
</trkpt>
|
|
<trkpt lat="56.021604" lon="8.112151">
|
|
<ele>26.294974</ele>
|
|
<time>2026-07-12T13:14:02.000Z</time>
|
|
</trkpt>
|
|
<trkpt lat="56.021650" lon="8.112121">
|
|
<ele>26.296928</ele>
|
|
<time>2026-07-12T13:14:03.000Z</time>
|
|
</trkpt>
|
|
<trkpt lat="56.021696" lon="8.112088">
|
|
<ele>26.298906</ele>
|
|
<time>2026-07-12T13:14:04.000Z</time>
|
|
</trkpt>
|
|
<trkpt lat="56.021743" lon="8.112053">
|
|
<ele>26.300937</ele>
|
|
<time>2026-07-12T13:14:05.000Z</time>
|
|
</trkpt>
|
|
<trkpt lat="56.021786" lon="8.112021">
|
|
<ele>26.300905</ele>
|
|
<time>2026-07-12T13:14:06.000Z</time>
|
|
</trkpt>
|
|
<trkpt lat="56.021830" lon="8.111988">
|
|
<ele>26.300284</ele>
|
|
<time>2026-07-12T13:14:07.000Z</time>
|
|
</trkpt>
|
|
<trkpt lat="56.021875" lon="8.111958">
|
|
<ele>26.299658</ele>
|
|
<time>2026-07-12T13:14:08.000Z</time>
|
|
</trkpt>
|
|
<trkpt lat="56.021918" lon="8.111933">
|
|
<ele>26.299069</ele>
|
|
<time>2026-07-12T13:14:09.000Z</time>
|
|
</trkpt>
|
|
<trkpt lat="56.021963" lon="8.111917">
|
|
<ele>26.298472</ele>
|
|
<time>2026-07-12T13:14:10.000Z</time>
|
|
</trkpt>
|
|
<trkpt lat="56.022009" lon="8.111907">
|
|
<ele>26.297869</ele>
|
|
<time>2026-07-12T13:14:11.000Z</time>
|
|
</trkpt>
|
|
<trkpt lat="56.022058" lon="8.111898">
|
|
<ele>26.297227</ele>
|
|
<time>2026-07-12T13:14:12.000Z</time>
|
|
</trkpt>
|
|
<trkpt lat="56.022103" lon="8.111887">
|
|
<ele>26.296636</ele>
|
|
<time>2026-07-12T13:14:13.000Z</time>
|
|
</trkpt>
|
|
<trkpt lat="56.022156" lon="8.111876">
|
|
<ele>26.295941</ele>
|
|
<time>2026-07-12T13:14:14.000Z</time>
|
|
</trkpt>
|
|
<trkpt lat="56.022202" lon="8.111864">
|
|
<ele>26.295336</ele>
|
|
<time>2026-07-12T13:14:15.000Z</time>
|
|
</trkpt>
|
|
<trkpt lat="56.022247" lon="8.111855">
|
|
<ele>26.294746</ele>
|
|
<time>2026-07-12T13:14:16.000Z</time>
|
|
</trkpt>
|
|
<trkpt lat="56.022289" lon="8.111849">
|
|
<ele>26.294197</ele>
|
|
<time>2026-07-12T13:14:17.000Z</time>
|
|
</trkpt>
|
|
<trkpt lat="56.022325" lon="8.111849">
|
|
<ele>26.293728</ele>
|
|
<time>2026-07-12T13:14:18.000Z</time>
|
|
</trkpt>
|
|
<trkpt lat="56.022357" lon="8.111853">
|
|
<ele>26.293311</ele>
|
|
<time>2026-07-12T13:14:19.000Z</time>
|
|
</trkpt>
|
|
<trkpt lat="56.022386" lon="8.111865">
|
|
<ele>26.292923</ele>
|
|
<time>2026-07-12T13:14:20.000Z</time>
|
|
</trkpt>
|
|
<trkpt lat="56.022419" lon="8.111884">
|
|
<ele>26.292472</ele>
|
|
<time>2026-07-12T13:14:21.000Z</time>
|
|
</trkpt>
|
|
<trkpt lat="56.022453" lon="8.111907">
|
|
<ele>26.291998</ele>
|
|
<time>2026-07-12T13:14:22.000Z</time>
|
|
</trkpt>
|
|
<trkpt lat="56.022490" lon="8.111937">
|
|
<ele>26.291469</ele>
|
|
<time>2026-07-12T13:14:23.000Z</time>
|
|
</trkpt>
|
|
<trkpt lat="56.022528" lon="8.111977">
|
|
<ele>26.290895</ele>
|
|
<time>2026-07-12T13:14:24.000Z</time>
|
|
</trkpt>
|
|
<trkpt lat="56.022564" lon="8.112019">
|
|
<ele>26.290336</ele>
|
|
<time>2026-07-12T13:14:25.000Z</time>
|
|
</trkpt>
|
|
<trkpt lat="56.022599" lon="8.112068">
|
|
<ele>26.289757</ele>
|
|
<time>2026-07-12T13:14:26.000Z</time>
|
|
</trkpt>
|
|
<trkpt lat="56.022629" lon="8.112113">
|
|
<ele>26.289247</ele>
|
|
<time>2026-07-12T13:14:27.000Z</time>
|
|
</trkpt>
|
|
<trkpt lat="56.022658" lon="8.112154">
|
|
<ele>26.288766</ele>
|
|
<time>2026-07-12T13:14:28.000Z</time>
|
|
</trkpt>
|
|
<trkpt lat="56.022685" lon="8.112194">
|
|
<ele>26.288309</ele>
|
|
<time>2026-07-12T13:14:29.000Z</time>
|
|
</trkpt>
|
|
<trkpt lat="56.022712" lon="8.112231">
|
|
<ele>26.287866</ele>
|
|
<time>2026-07-12T13:14:30.000Z</time>
|
|
</trkpt>
|
|
<trkpt lat="56.022738" lon="8.112263">
|
|
<ele>26.287456</ele>
|
|
<time>2026-07-12T13:14:31.000Z</time>
|
|
</trkpt>
|
|
<trkpt lat="56.022766" lon="8.112282">
|
|
<ele>26.287066</ele>
|
|
<time>2026-07-12T13:14:32.000Z</time>
|
|
</trkpt>
|
|
<trkpt lat="56.022798" lon="8.112282">
|
|
<ele>26.286649</ele>
|
|
<time>2026-07-12T13:14:33.000Z</time>
|
|
</trkpt>
|
|
<trkpt lat="56.022832" lon="8.112272">
|
|
<ele>26.286200</ele>
|
|
<time>2026-07-12T13:14:34.000Z</time>
|
|
</trkpt>
|
|
<trkpt lat="56.022868" lon="8.112257">
|
|
<ele>26.285719</ele>
|
|
<time>2026-07-12T13:14:35.000Z</time>
|
|
</trkpt>
|
|
<trkpt lat="56.022906" lon="8.112235">
|
|
<ele>26.285199</ele>
|
|
<time>2026-07-12T13:14:36.000Z</time>
|
|
</trkpt>
|
|
<trkpt lat="56.022942" lon="8.112212">
|
|
<ele>26.284701</ele>
|
|
<time>2026-07-12T13:14:37.000Z</time>
|
|
</trkpt>
|
|
<trkpt lat="56.022978" lon="8.112186">
|
|
<ele>26.284195</ele>
|
|
<time>2026-07-12T13:14:38.000Z</time>
|
|
</trkpt>
|
|
<trkpt lat="56.023014" lon="8.112158">
|
|
<ele>26.283684</ele>
|
|
<time>2026-07-12T13:14:39.000Z</time>
|
|
</trkpt>
|
|
<trkpt lat="56.023053" lon="8.112127">
|
|
<ele>26.283129</ele>
|
|
<time>2026-07-12T13:14:40.000Z</time>
|
|
</trkpt>
|
|
<trkpt lat="56.023091" lon="8.112097">
|
|
<ele>26.282588</ele>
|
|
<time>2026-07-12T13:14:41.000Z</time>
|
|
</trkpt>
|
|
<trkpt lat="56.023128" lon="8.112063">
|
|
<ele>26.282046</ele>
|
|
<time>2026-07-12T13:14:42.000Z</time>
|
|
</trkpt>
|
|
<trkpt lat="56.023164" lon="8.112030">
|
|
<ele>26.281519</ele>
|
|
<time>2026-07-12T13:14:43.000Z</time>
|
|
</trkpt>
|
|
<trkpt lat="56.023199" lon="8.111999">
|
|
<ele>26.281011</ele>
|
|
<time>2026-07-12T13:14:44.000Z</time>
|
|
</trkpt>
|
|
<trkpt lat="56.023234" lon="8.111971">
|
|
<ele>26.280511</ele>
|
|
<time>2026-07-12T13:14:45.000Z</time>
|
|
</trkpt>
|
|
<trkpt lat="56.023274" lon="8.111943">
|
|
<ele>26.279952</ele>
|
|
<time>2026-07-12T13:14:46.000Z</time>
|
|
</trkpt>
|
|
<trkpt lat="56.023314" lon="8.111916">
|
|
<ele>26.279395</ele>
|
|
<time>2026-07-12T13:14:47.000Z</time>
|
|
</trkpt>
|
|
<trkpt lat="56.023353" lon="8.111888">
|
|
<ele>26.278848</ele>
|
|
<time>2026-07-12T13:14:48.000Z</time>
|
|
</trkpt>
|
|
<trkpt lat="56.023392" lon="8.111861">
|
|
<ele>26.278304</ele>
|
|
<time>2026-07-12T13:14:49.000Z</time>
|
|
</trkpt>
|
|
<trkpt lat="56.023434" lon="8.111833">
|
|
<ele>26.276746</ele>
|
|
<time>2026-07-12T13:14:50.000Z</time>
|
|
</trkpt>
|
|
<trkpt lat="56.023475" lon="8.111808">
|
|
<ele>26.273771</ele>
|
|
<time>2026-07-12T13:14:51.000Z</time>
|
|
</trkpt>
|
|
<trkpt lat="56.023517" lon="8.111781">
|
|
<ele>26.270706</ele>
|
|
<time>2026-07-12T13:14:52.000Z</time>
|
|
</trkpt>
|
|
<trkpt lat="56.023557" lon="8.111751">
|
|
<ele>26.267728</ele>
|
|
<time>2026-07-12T13:14:53.000Z</time>
|
|
</trkpt>
|
|
<trkpt lat="56.023598" lon="8.111722">
|
|
<ele>26.264700</ele>
|
|
<time>2026-07-12T13:14:54.000Z</time>
|
|
</trkpt>
|
|
<trkpt lat="56.023637" lon="8.111693">
|
|
<ele>26.261799</ele>
|
|
<time>2026-07-12T13:14:55.000Z</time>
|
|
</trkpt>
|
|
<trkpt lat="56.023679" lon="8.111666">
|
|
<ele>26.258734</ele>
|
|
<time>2026-07-12T13:14:56.000Z</time>
|
|
</trkpt>
|
|
<trkpt lat="56.023720" lon="8.111640">
|
|
<ele>26.255747</ele>
|
|
<time>2026-07-12T13:14:57.000Z</time>
|
|
</trkpt>
|
|
<trkpt lat="56.023761" lon="8.111612">
|
|
<ele>26.252733</ele>
|
|
<time>2026-07-12T13:14:58.000Z</time>
|
|
</trkpt>
|
|
<trkpt lat="56.023799" lon="8.111585">
|
|
<ele>26.249925</ele>
|
|
<time>2026-07-12T13:14:59.000Z</time>
|
|
</trkpt>
|
|
<trkpt lat="56.023838" lon="8.111556">
|
|
<ele>26.247024</ele>
|
|
<time>2026-07-12T13:15:00.000Z</time>
|
|
</trkpt>
|
|
<trkpt lat="56.023879" lon="8.111528">
|
|
<ele>26.244010</ele>
|
|
<time>2026-07-12T13:15:01.000Z</time>
|
|
</trkpt>
|
|
<trkpt lat="56.023918" lon="8.111503">
|
|
<ele>26.241165</ele>
|
|
<time>2026-07-12T13:15:02.000Z</time>
|
|
</trkpt>
|
|
<trkpt lat="56.023959" lon="8.111480">
|
|
<ele>26.238214</ele>
|
|
<time>2026-07-12T13:15:03.000Z</time>
|
|
</trkpt>
|
|
<trkpt lat="56.023999" lon="8.111457">
|
|
<ele>26.235329</ele>
|
|
<time>2026-07-12T13:15:04.000Z</time>
|
|
</trkpt>
|
|
<trkpt lat="56.024035" lon="8.111437">
|
|
<ele>26.232740</ele>
|
|
<time>2026-07-12T13:15:05.000Z</time>
|
|
</trkpt>
|
|
<trkpt lat="56.024086" lon="8.111412">
|
|
<ele>26.229108</ele>
|
|
<time>2026-07-12T13:15:06.000Z</time>
|
|
</trkpt>
|
|
<trkpt lat="56.024126" lon="8.111392">
|
|
<ele>26.226256</ele>
|
|
<time>2026-07-12T13:15:07.000Z</time>
|
|
</trkpt>
|
|
<trkpt lat="56.024171" lon="8.111370">
|
|
<ele>26.223052</ele>
|
|
<time>2026-07-12T13:15:08.000Z</time>
|
|
</trkpt>
|
|
<trkpt lat="56.024212" lon="8.111350">
|
|
<ele>26.220133</ele>
|
|
<time>2026-07-12T13:15:09.000Z</time>
|
|
</trkpt>
|
|
<trkpt lat="56.024255" lon="8.111333">
|
|
<ele>26.217109</ele>
|
|
<time>2026-07-12T13:15:10.000Z</time>
|
|
</trkpt>
|
|
<trkpt lat="56.024299" lon="8.111318">
|
|
<ele>26.214033</ele>
|
|
<time>2026-07-12T13:15:11.000Z</time>
|
|
</trkpt>
|
|
<trkpt lat="56.024345" lon="8.111307">
|
|
<ele>26.210845</ele>
|
|
<time>2026-07-12T13:15:12.000Z</time>
|
|
</trkpt>
|
|
<trkpt lat="56.024389" lon="8.111298">
|
|
<ele>26.207804</ele>
|
|
<time>2026-07-12T13:15:13.000Z</time>
|
|
</trkpt>
|
|
<trkpt lat="56.024434" lon="8.111289">
|
|
<ele>26.204694</ele>
|
|
<time>2026-07-12T13:15:14.000Z</time>
|
|
</trkpt>
|
|
<trkpt lat="56.024481" lon="8.111280">
|
|
<ele>26.201448</ele>
|
|
<time>2026-07-12T13:15:15.000Z</time>
|
|
</trkpt>
|
|
<trkpt lat="56.024525" lon="8.111273">
|
|
<ele>26.198414</ele>
|
|
<time>2026-07-12T13:15:16.000Z</time>
|
|
</trkpt>
|
|
<trkpt lat="56.024573" lon="8.111268">
|
|
<ele>26.195112</ele>
|
|
<time>2026-07-12T13:15:17.000Z</time>
|
|
</trkpt>
|
|
<trkpt lat="56.024619" lon="8.111263">
|
|
<ele>26.191947</ele>
|
|
<time>2026-07-12T13:15:18.000Z</time>
|
|
</trkpt>
|
|
<trkpt lat="56.024666" lon="8.111258">
|
|
<ele>26.188713</ele>
|
|
<time>2026-07-12T13:15:19.000Z</time>
|
|
</trkpt>
|
|
<trkpt lat="56.024713" lon="8.111254">
|
|
<ele>26.185481</ele>
|
|
<time>2026-07-12T13:15:20.000Z</time>
|
|
</trkpt>
|
|
<trkpt lat="56.024762" lon="8.111251">
|
|
<ele>26.182114</ele>
|
|
<time>2026-07-12T13:15:21.000Z</time>
|
|
</trkpt>
|
|
<trkpt lat="56.024810" lon="8.111250">
|
|
<ele>26.178817</ele>
|
|
<time>2026-07-12T13:15:22.000Z</time>
|
|
</trkpt>
|
|
<trkpt lat="56.024855" lon="8.111250">
|
|
<ele>26.175727</ele>
|
|
<time>2026-07-12T13:15:23.000Z</time>
|
|
</trkpt>
|
|
<trkpt lat="56.024899" lon="8.111249">
|
|
<ele>26.172705</ele>
|
|
<time>2026-07-12T13:15:24.000Z</time>
|
|
</trkpt>
|
|
<trkpt lat="56.024946" lon="8.111247">
|
|
<ele>26.169476</ele>
|
|
<time>2026-07-12T13:15:25.000Z</time>
|
|
</trkpt>
|
|
<trkpt lat="56.024994" lon="8.111244">
|
|
<ele>26.166177</ele>
|
|
<time>2026-07-12T13:15:26.000Z</time>
|
|
</trkpt>
|
|
<trkpt lat="56.025041" lon="8.111243">
|
|
<ele>26.162949</ele>
|
|
<time>2026-07-12T13:15:27.000Z</time>
|
|
</trkpt>
|
|
<trkpt lat="56.025083" lon="8.111239">
|
|
<ele>26.160061</ele>
|
|
<time>2026-07-12T13:15:28.000Z</time>
|
|
</trkpt>
|
|
<trkpt lat="56.025122" lon="8.111234">
|
|
<ele>26.157375</ele>
|
|
<time>2026-07-12T13:15:29.000Z</time>
|
|
</trkpt>
|
|
<trkpt lat="56.025160" lon="8.111226">
|
|
<ele>26.154747</ele>
|
|
<time>2026-07-12T13:15:30.000Z</time>
|
|
</trkpt>
|
|
<trkpt lat="56.025202" lon="8.111220">
|
|
<ele>26.154410</ele>
|
|
<time>2026-07-12T13:15:31.000Z</time>
|
|
</trkpt>
|
|
<trkpt lat="56.025241" lon="8.111217">
|
|
<ele>26.154402</ele>
|
|
<time>2026-07-12T13:15:32.000Z</time>
|
|
</trkpt>
|
|
<trkpt lat="56.025283" lon="8.111213">
|
|
<ele>26.154392</ele>
|
|
<time>2026-07-12T13:15:33.000Z</time>
|
|
</trkpt>
|
|
<trkpt lat="56.025321" lon="8.111208">
|
|
<ele>26.154384</ele>
|
|
<time>2026-07-12T13:15:34.000Z</time>
|
|
</trkpt>
|
|
<trkpt lat="56.025360" lon="8.111204">
|
|
<ele>26.154375</ele>
|
|
<time>2026-07-12T13:15:35.000Z</time>
|
|
</trkpt>
|
|
<trkpt lat="56.025396" lon="8.111202">
|
|
<ele>26.154367</ele>
|
|
<time>2026-07-12T13:15:36.000Z</time>
|
|
</trkpt>
|
|
<trkpt lat="56.025432" lon="8.111199">
|
|
<ele>26.154359</ele>
|
|
<time>2026-07-12T13:15:37.000Z</time>
|
|
</trkpt>
|
|
<trkpt lat="56.025468" lon="8.111197">
|
|
<ele>26.154351</ele>
|
|
<time>2026-07-12T13:15:38.000Z</time>
|
|
</trkpt>
|
|
<trkpt lat="56.025501" lon="8.111195">
|
|
<ele>26.154344</ele>
|
|
<time>2026-07-12T13:15:39.000Z</time>
|
|
</trkpt>
|
|
<trkpt lat="56.025533" lon="8.111190">
|
|
<ele>26.154336</ele>
|
|
<time>2026-07-12T13:15:40.000Z</time>
|
|
</trkpt>
|
|
<trkpt lat="56.025565" lon="8.111182">
|
|
<ele>26.154329</ele>
|
|
<time>2026-07-12T13:15:41.000Z</time>
|
|
</trkpt>
|
|
<trkpt lat="56.025593" lon="8.111174">
|
|
<ele>26.154323</ele>
|
|
<time>2026-07-12T13:15:42.000Z</time>
|
|
</trkpt>
|
|
<trkpt lat="56.025622" lon="8.111169">
|
|
<ele>26.154316</ele>
|
|
<time>2026-07-12T13:15:43.000Z</time>
|
|
</trkpt>
|
|
<trkpt lat="56.025649" lon="8.111167">
|
|
<ele>26.154310</ele>
|
|
<time>2026-07-12T13:15:44.000Z</time>
|
|
</trkpt>
|
|
<trkpt lat="56.025676" lon="8.111166">
|
|
<ele>26.154304</ele>
|
|
<time>2026-07-12T13:15:45.000Z</time>
|
|
</trkpt>
|
|
<trkpt lat="56.025702" lon="8.111164">
|
|
<ele>26.154298</ele>
|
|
<time>2026-07-12T13:15:46.000Z</time>
|
|
</trkpt>
|
|
<trkpt lat="56.025729" lon="8.111161">
|
|
<ele>26.154292</ele>
|
|
<time>2026-07-12T13:15:47.000Z</time>
|
|
</trkpt>
|
|
<trkpt lat="56.025754" lon="8.111159">
|
|
<ele>26.154287</ele>
|
|
<time>2026-07-12T13:15:48.000Z</time>
|
|
</trkpt>
|
|
<trkpt lat="56.025779" lon="8.111156">
|
|
<ele>26.154281</ele>
|
|
<time>2026-07-12T13:15:49.000Z</time>
|
|
</trkpt>
|
|
<trkpt lat="56.025804" lon="8.111158">
|
|
<ele>26.154276</ele>
|
|
<time>2026-07-12T13:15:50.000Z</time>
|
|
</trkpt>
|
|
<trkpt lat="56.025827" lon="8.111160">
|
|
<ele>26.154271</ele>
|
|
<time>2026-07-12T13:15:51.000Z</time>
|
|
</trkpt>
|
|
<trkpt lat="56.025849" lon="8.111158">
|
|
<ele>26.154266</ele>
|
|
<time>2026-07-12T13:15:52.000Z</time>
|
|
</trkpt>
|
|
<trkpt lat="56.025870" lon="8.111156">
|
|
<ele>26.154261</ele>
|
|
<time>2026-07-12T13:15:53.000Z</time>
|
|
</trkpt>
|
|
<trkpt lat="56.025888" lon="8.111153">
|
|
<ele>26.154257</ele>
|
|
<time>2026-07-12T13:16:12.000Z</time>
|
|
</trkpt>
|
|
<trkpt lat="56.025911" lon="8.111151">
|
|
<ele>26.154252</ele>
|
|
<time>2026-07-12T13:16:13.000Z</time>
|
|
</trkpt>
|
|
<trkpt lat="56.025937" lon="8.111150">
|
|
<ele>26.154246</ele>
|
|
<time>2026-07-12T13:16:14.000Z</time>
|
|
</trkpt>
|
|
<trkpt lat="56.025970" lon="8.111150">
|
|
<ele>26.154239</ele>
|
|
<time>2026-07-12T13:16:15.000Z</time>
|
|
</trkpt>
|
|
<trkpt lat="56.026008" lon="8.111150">
|
|
<ele>26.154230</ele>
|
|
<time>2026-07-12T13:16:16.000Z</time>
|
|
</trkpt>
|
|
<trkpt lat="56.026049" lon="8.111149">
|
|
<ele>26.154221</ele>
|
|
<time>2026-07-12T13:16:17.000Z</time>
|
|
</trkpt>
|
|
<trkpt lat="56.026090" lon="8.111144">
|
|
<ele>26.154212</ele>
|
|
<time>2026-07-12T13:16:18.000Z</time>
|
|
</trkpt>
|
|
<trkpt lat="56.026133" lon="8.111137">
|
|
<ele>26.154202</ele>
|
|
<time>2026-07-12T13:16:19.000Z</time>
|
|
</trkpt>
|
|
<trkpt lat="56.026177" lon="8.111128">
|
|
<ele>26.154192</ele>
|
|
<time>2026-07-12T13:16:20.000Z</time>
|
|
</trkpt>
|
|
<trkpt lat="56.026220" lon="8.111118">
|
|
<ele>26.154183</ele>
|
|
<time>2026-07-12T13:16:21.000Z</time>
|
|
</trkpt>
|
|
<trkpt lat="56.026268" lon="8.111103">
|
|
<ele>26.154172</ele>
|
|
<time>2026-07-12T13:16:22.000Z</time>
|
|
</trkpt>
|
|
<trkpt lat="56.026314" lon="8.111083">
|
|
<ele>26.154161</ele>
|
|
<time>2026-07-12T13:16:23.000Z</time>
|
|
</trkpt>
|
|
<trkpt lat="56.026359" lon="8.111061">
|
|
<ele>26.154151</ele>
|
|
<time>2026-07-12T13:16:24.000Z</time>
|
|
</trkpt>
|
|
<trkpt lat="56.026403" lon="8.111038">
|
|
<ele>26.154141</ele>
|
|
<time>2026-07-12T13:16:25.000Z</time>
|
|
</trkpt>
|
|
<trkpt lat="56.026444" lon="8.111017">
|
|
<ele>26.154131</ele>
|
|
<time>2026-07-12T13:16:26.000Z</time>
|
|
</trkpt>
|
|
<trkpt lat="56.026489" lon="8.110994">
|
|
<ele>26.154121</ele>
|
|
<time>2026-07-12T13:16:27.000Z</time>
|
|
</trkpt>
|
|
<trkpt lat="56.026540" lon="8.110968">
|
|
<ele>26.154109</ele>
|
|
<time>2026-07-12T13:16:28.000Z</time>
|
|
</trkpt>
|
|
<trkpt lat="56.026588" lon="8.110944">
|
|
<ele>26.154098</ele>
|
|
<time>2026-07-12T13:16:29.000Z</time>
|
|
</trkpt>
|
|
<trkpt lat="56.026633" lon="8.110921">
|
|
<ele>26.154087</ele>
|
|
<time>2026-07-12T13:16:30.000Z</time>
|
|
</trkpt>
|
|
<trkpt lat="56.026678" lon="8.110898">
|
|
<ele>26.154077</ele>
|
|
<time>2026-07-12T13:16:31.000Z</time>
|
|
</trkpt>
|
|
<trkpt lat="56.026725" lon="8.110874">
|
|
<ele>26.154066</ele>
|
|
<time>2026-07-12T13:16:32.000Z</time>
|
|
</trkpt>
|
|
<trkpt lat="56.026770" lon="8.110852">
|
|
<ele>26.154056</ele>
|
|
<time>2026-07-12T13:16:33.000Z</time>
|
|
</trkpt>
|
|
<trkpt lat="56.026818" lon="8.110832">
|
|
<ele>26.154045</ele>
|
|
<time>2026-07-12T13:16:34.000Z</time>
|
|
</trkpt>
|
|
<trkpt lat="56.026867" lon="8.110811">
|
|
<ele>26.154033</ele>
|
|
<time>2026-07-12T13:16:35.000Z</time>
|
|
</trkpt>
|
|
<trkpt lat="56.026916" lon="8.110787">
|
|
<ele>26.154022</ele>
|
|
<time>2026-07-12T13:16:36.000Z</time>
|
|
</trkpt>
|
|
<trkpt lat="56.026961" lon="8.110765">
|
|
<ele>26.158758</ele>
|
|
<time>2026-07-12T13:16:37.000Z</time>
|
|
</trkpt>
|
|
<trkpt lat="56.027007" lon="8.110743">
|
|
<ele>26.167299</ele>
|
|
<time>2026-07-12T13:16:38.000Z</time>
|
|
</trkpt>
|
|
<trkpt lat="56.027054" lon="8.110719">
|
|
<ele>26.176067</ele>
|
|
<time>2026-07-12T13:16:39.000Z</time>
|
|
</trkpt>
|
|
<trkpt lat="56.027101" lon="8.110692">
|
|
<ele>26.184923</ele>
|
|
<time>2026-07-12T13:16:40.000Z</time>
|
|
</trkpt>
|
|
<trkpt lat="56.027144" lon="8.110664">
|
|
<ele>26.193132</ele>
|
|
<time>2026-07-12T13:16:41.000Z</time>
|
|
</trkpt>
|
|
<trkpt lat="56.027191" lon="8.110636">
|
|
<ele>26.202018</ele>
|
|
<time>2026-07-12T13:16:42.000Z</time>
|
|
</trkpt>
|
|
<trkpt lat="56.027239" lon="8.110612">
|
|
<ele>26.210959</ele>
|
|
<time>2026-07-12T13:16:43.000Z</time>
|
|
</trkpt>
|
|
<trkpt lat="56.027285" lon="8.110594">
|
|
<ele>26.219406</ele>
|
|
<time>2026-07-12T13:16:44.000Z</time>
|
|
</trkpt>
|
|
<trkpt lat="56.027331" lon="8.110579">
|
|
<ele>26.227794</ele>
|
|
<time>2026-07-12T13:16:45.000Z</time>
|
|
</trkpt>
|
|
<trkpt lat="56.027377" lon="8.110569">
|
|
<ele>26.236107</ele>
|
|
<time>2026-07-12T13:16:46.000Z</time>
|
|
</trkpt>
|
|
<trkpt lat="56.027421" lon="8.110564">
|
|
<ele>26.244016</ele>
|
|
<time>2026-07-12T13:16:47.000Z</time>
|
|
</trkpt>
|
|
<trkpt lat="56.027461" lon="8.110560">
|
|
<ele>26.251203</ele>
|
|
<time>2026-07-12T13:16:48.000Z</time>
|
|
</trkpt>
|
|
<trkpt lat="56.027497" lon="8.110556">
|
|
<ele>26.257674</ele>
|
|
<time>2026-07-12T13:16:49.000Z</time>
|
|
</trkpt>
|
|
<trkpt lat="56.027532" lon="8.110552">
|
|
<ele>26.263965</ele>
|
|
<time>2026-07-12T13:16:50.000Z</time>
|
|
</trkpt>
|
|
<trkpt lat="56.027564" lon="8.110551">
|
|
<ele>26.269707</ele>
|
|
<time>2026-07-12T13:16:51.000Z</time>
|
|
</trkpt>
|
|
<trkpt lat="56.027594" lon="8.110552">
|
|
<ele>26.275090</ele>
|
|
<time>2026-07-12T13:16:52.000Z</time>
|
|
</trkpt>
|
|
<trkpt lat="56.027621" lon="8.110554">
|
|
<ele>26.279937</ele>
|
|
<time>2026-07-12T13:16:53.000Z</time>
|
|
</trkpt>
|
|
<trkpt lat="56.027660" lon="8.110562">
|
|
<ele>26.286980</ele>
|
|
<time>2026-07-12T13:16:54.000Z</time>
|
|
</trkpt>
|
|
<trkpt lat="56.027692" lon="8.110577">
|
|
<ele>26.292914</ele>
|
|
<time>2026-07-12T13:16:55.000Z</time>
|
|
</trkpt>
|
|
<trkpt lat="56.027737" lon="8.110609">
|
|
<ele>26.301601</ele>
|
|
<time>2026-07-12T13:16:56.000Z</time>
|
|
</trkpt>
|
|
<trkpt lat="56.027776" lon="8.110642">
|
|
<ele>26.309340</ele>
|
|
<time>2026-07-12T13:16:57.000Z</time>
|
|
</trkpt>
|
|
<trkpt lat="56.027819" lon="8.110675">
|
|
<ele>26.317733</ele>
|
|
<time>2026-07-12T13:16:58.000Z</time>
|
|
</trkpt>
|
|
<trkpt lat="56.027862" lon="8.110707">
|
|
<ele>26.326087</ele>
|
|
<time>2026-07-12T13:16:59.000Z</time>
|
|
</trkpt>
|
|
<trkpt lat="56.027906" lon="8.110743">
|
|
<ele>26.334767</ele>
|
|
<time>2026-07-12T13:17:00.000Z</time>
|
|
</trkpt>
|
|
<trkpt lat="56.027953" lon="8.110784">
|
|
<ele>26.344147</ele>
|
|
<time>2026-07-12T13:17:01.000Z</time>
|
|
</trkpt>
|
|
<trkpt lat="56.027999" lon="8.110824">
|
|
<ele>26.353321</ele>
|
|
<time>2026-07-12T13:17:02.000Z</time>
|
|
</trkpt>
|
|
<trkpt lat="56.028047" lon="8.110865">
|
|
<ele>26.362863</ele>
|
|
<time>2026-07-12T13:17:03.000Z</time>
|
|
</trkpt>
|
|
<trkpt lat="56.028100" lon="8.110910">
|
|
<ele>26.373387</ele>
|
|
<time>2026-07-12T13:17:04.000Z</time>
|
|
</trkpt>
|
|
<trkpt lat="56.028149" lon="8.110951">
|
|
<ele>26.383090</ele>
|
|
<time>2026-07-12T13:17:05.000Z</time>
|
|
</trkpt>
|
|
<trkpt lat="56.028197" lon="8.110991">
|
|
<ele>26.392589</ele>
|
|
<time>2026-07-12T13:17:06.000Z</time>
|
|
</trkpt>
|
|
<trkpt lat="56.028242" lon="8.111029">
|
|
<ele>26.401515</ele>
|
|
<time>2026-07-12T13:17:07.000Z</time>
|
|
</trkpt>
|
|
<trkpt lat="56.028289" lon="8.111065">
|
|
<ele>26.410687</ele>
|
|
<time>2026-07-12T13:17:08.000Z</time>
|
|
</trkpt>
|
|
<trkpt lat="56.028341" lon="8.111108">
|
|
<ele>26.420963</ele>
|
|
<time>2026-07-12T13:17:09.000Z</time>
|
|
</trkpt>
|
|
<trkpt lat="56.028386" lon="8.111151">
|
|
<ele>26.430114</ele>
|
|
<time>2026-07-12T13:17:10.000Z</time>
|
|
</trkpt>
|
|
<trkpt lat="56.028435" lon="8.111200">
|
|
<ele>26.440184</ele>
|
|
<time>2026-07-12T13:17:11.000Z</time>
|
|
</trkpt>
|
|
<trkpt lat="56.028483" lon="8.111248">
|
|
<ele>26.450048</ele>
|
|
<time>2026-07-12T13:17:12.000Z</time>
|
|
</trkpt>
|
|
<trkpt lat="56.028531" lon="8.111292">
|
|
<ele>26.459723</ele>
|
|
<time>2026-07-12T13:17:13.000Z</time>
|
|
</trkpt>
|
|
<trkpt lat="56.028582" lon="8.111320">
|
|
<ele>26.469293</ele>
|
|
<time>2026-07-12T13:17:14.000Z</time>
|
|
</trkpt>
|
|
<trkpt lat="56.028629" lon="8.111332">
|
|
<ele>26.473702</ele>
|
|
<time>2026-07-12T13:17:15.000Z</time>
|
|
</trkpt>
|
|
<trkpt lat="56.028689" lon="8.111330">
|
|
<ele>26.445165</ele>
|
|
<time>2026-07-12T13:17:16.000Z</time>
|
|
</trkpt>
|
|
<trkpt lat="56.028741" lon="8.111327">
|
|
<ele>26.420424</ele>
|
|
<time>2026-07-12T13:17:17.000Z</time>
|
|
</trkpt>
|
|
<trkpt lat="56.028790" lon="8.111324">
|
|
<ele>26.397109</ele>
|
|
<time>2026-07-12T13:17:18.000Z</time>
|
|
</trkpt>
|
|
<trkpt lat="56.028841" lon="8.111321">
|
|
<ele>26.372844</ele>
|
|
<time>2026-07-12T13:17:19.000Z</time>
|
|
</trkpt>
|
|
<trkpt lat="56.028893" lon="8.111323">
|
|
<ele>26.348110</ele>
|
|
<time>2026-07-12T13:17:20.000Z</time>
|
|
</trkpt>
|
|
<trkpt lat="56.028944" lon="8.111325">
|
|
<ele>26.323852</ele>
|
|
<time>2026-07-12T13:17:21.000Z</time>
|
|
</trkpt>
|
|
<trkpt lat="56.028995" lon="8.111319">
|
|
<ele>26.299547</ele>
|
|
<time>2026-07-12T13:17:22.000Z</time>
|
|
</trkpt>
|
|
<trkpt lat="56.029045" lon="8.111309">
|
|
<ele>26.275622</ele>
|
|
<time>2026-07-12T13:17:23.000Z</time>
|
|
</trkpt>
|
|
<trkpt lat="56.029095" lon="8.111300">
|
|
<ele>26.251725</ele>
|
|
<time>2026-07-12T13:17:24.000Z</time>
|
|
</trkpt>
|
|
<trkpt lat="56.029142" lon="8.111292">
|
|
<ele>26.229274</ele>
|
|
<time>2026-07-12T13:17:25.000Z</time>
|
|
</trkpt>
|
|
<trkpt lat="56.029188" lon="8.111285">
|
|
<ele>26.207321</ele>
|
|
<time>2026-07-12T13:17:26.000Z</time>
|
|
</trkpt>
|
|
<trkpt lat="56.029233" lon="8.111278">
|
|
<ele>26.185841</ele>
|
|
<time>2026-07-12T13:17:27.000Z</time>
|
|
</trkpt>
|
|
<trkpt lat="56.029279" lon="8.111275">
|
|
<ele>26.163952</ele>
|
|
<time>2026-07-12T13:17:28.000Z</time>
|
|
</trkpt>
|
|
<trkpt lat="56.029324" lon="8.111276">
|
|
<ele>26.142551</ele>
|
|
<time>2026-07-12T13:17:29.000Z</time>
|
|
</trkpt>
|
|
<trkpt lat="56.029369" lon="8.111282">
|
|
<ele>26.121092</ele>
|
|
<time>2026-07-12T13:17:30.000Z</time>
|
|
</trkpt>
|
|
<trkpt lat="56.029416" lon="8.111290">
|
|
<ele>26.098641</ele>
|
|
<time>2026-07-12T13:17:31.000Z</time>
|
|
</trkpt>
|
|
<trkpt lat="56.029459" lon="8.111294">
|
|
<ele>26.078166</ele>
|
|
<time>2026-07-12T13:17:32.000Z</time>
|
|
</trkpt>
|
|
<trkpt lat="56.029507" lon="8.111294">
|
|
<ele>26.055340</ele>
|
|
<time>2026-07-12T13:17:33.000Z</time>
|
|
</trkpt>
|
|
<trkpt lat="56.029554" lon="8.111293">
|
|
<ele>26.032988</ele>
|
|
<time>2026-07-12T13:17:34.000Z</time>
|
|
</trkpt>
|
|
<trkpt lat="56.029600" lon="8.111293">
|
|
<ele>26.011113</ele>
|
|
<time>2026-07-12T13:17:35.000Z</time>
|
|
</trkpt>
|
|
<trkpt lat="56.029646" lon="8.111295">
|
|
<ele>25.989232</ele>
|
|
<time>2026-07-12T13:17:36.000Z</time>
|
|
</trkpt>
|
|
<trkpt lat="56.029694" lon="8.111298">
|
|
<ele>25.966393</ele>
|
|
<time>2026-07-12T13:17:37.000Z</time>
|
|
</trkpt>
|
|
<trkpt lat="56.029737" lon="8.111305">
|
|
<ele>25.945860</ele>
|
|
<time>2026-07-12T13:17:38.000Z</time>
|
|
</trkpt>
|
|
<trkpt lat="56.029773" lon="8.111314">
|
|
<ele>25.928575</ele>
|
|
<time>2026-07-12T13:17:39.000Z</time>
|
|
</trkpt>
|
|
<trkpt lat="56.029828" lon="8.111337">
|
|
<ele>25.901716</ele>
|
|
<time>2026-07-12T13:17:40.000Z</time>
|
|
</trkpt>
|
|
<trkpt lat="56.029865" lon="8.111360">
|
|
<ele>25.883090</ele>
|
|
<time>2026-07-12T13:17:41.000Z</time>
|
|
</trkpt>
|
|
<trkpt lat="56.029908" lon="8.111408">
|
|
<ele>25.858990</ele>
|
|
<time>2026-07-12T13:17:42.000Z</time>
|
|
</trkpt>
|
|
<trkpt lat="56.029943" lon="8.111460">
|
|
<ele>25.837358</ele>
|
|
<time>2026-07-12T13:17:43.000Z</time>
|
|
</trkpt>
|
|
<trkpt lat="56.029975" lon="8.111519">
|
|
<ele>25.815511</ele>
|
|
<time>2026-07-12T13:17:44.000Z</time>
|
|
</trkpt>
|
|
<trkpt lat="56.030001" lon="8.111583">
|
|
<ele>25.794486</ele>
|
|
<time>2026-07-12T13:17:45.000Z</time>
|
|
</trkpt>
|
|
<trkpt lat="56.030027" lon="8.111647">
|
|
<ele>25.773460</ele>
|
|
<time>2026-07-12T13:17:46.000Z</time>
|
|
</trkpt>
|
|
<trkpt lat="56.030054" lon="8.111711">
|
|
<ele>25.752152</ele>
|
|
<time>2026-07-12T13:17:47.000Z</time>
|
|
</trkpt>
|
|
<trkpt lat="56.030081" lon="8.111770">
|
|
<ele>25.731889</ele>
|
|
<time>2026-07-12T13:17:48.000Z</time>
|
|
</trkpt>
|
|
<trkpt lat="56.030110" lon="8.111814">
|
|
<ele>25.713809</ele>
|
|
<time>2026-07-12T13:17:49.000Z</time>
|
|
</trkpt>
|
|
<trkpt lat="56.030147" lon="8.111833">
|
|
<ele>25.695504</ele>
|
|
<time>2026-07-12T13:17:50.000Z</time>
|
|
</trkpt>
|
|
<trkpt lat="56.030183" lon="8.111823">
|
|
<ele>25.678180</ele>
|
|
<time>2026-07-12T13:17:51.000Z</time>
|
|
</trkpt>
|
|
<trkpt lat="56.030216" lon="8.111795">
|
|
<ele>25.660813</ele>
|
|
<time>2026-07-12T13:17:52.000Z</time>
|
|
</trkpt>
|
|
<trkpt lat="56.030252" lon="8.111758">
|
|
<ele>25.641072</ele>
|
|
<time>2026-07-12T13:17:53.000Z</time>
|
|
</trkpt>
|
|
<trkpt lat="56.030287" lon="8.111718">
|
|
<ele>25.621390</ele>
|
|
<time>2026-07-12T13:17:54.000Z</time>
|
|
</trkpt>
|
|
<trkpt lat="56.030319" lon="8.111680">
|
|
<ele>25.633375</ele>
|
|
<time>2026-07-12T13:17:55.000Z</time>
|
|
</trkpt>
|
|
<trkpt lat="56.030351" lon="8.111645">
|
|
<ele>25.645078</ele>
|
|
<time>2026-07-12T13:17:56.000Z</time>
|
|
</trkpt>
|
|
<trkpt lat="56.030385" lon="8.111611">
|
|
<ele>25.657232</ele>
|
|
<time>2026-07-12T13:17:57.000Z</time>
|
|
</trkpt>
|
|
<trkpt lat="56.030420" lon="8.111576">
|
|
<ele>25.669743</ele>
|
|
<time>2026-07-12T13:17:58.000Z</time>
|
|
</trkpt>
|
|
<trkpt lat="56.030454" lon="8.111545">
|
|
<ele>25.681651</ele>
|
|
<time>2026-07-12T13:17:59.000Z</time>
|
|
</trkpt>
|
|
<trkpt lat="56.030489" lon="8.111520">
|
|
<ele>25.693411</ele>
|
|
<time>2026-07-12T13:18:00.000Z</time>
|
|
</trkpt>
|
|
<trkpt lat="56.030527" lon="8.111498">
|
|
<ele>25.705875</ele>
|
|
<time>2026-07-12T13:18:01.000Z</time>
|
|
</trkpt>
|
|
<trkpt lat="56.030566" lon="8.111478">
|
|
<ele>25.718535</ele>
|
|
<time>2026-07-12T13:18:02.000Z</time>
|
|
</trkpt>
|
|
<trkpt lat="56.030605" lon="8.111462">
|
|
<ele>25.731021</ele>
|
|
<time>2026-07-12T13:18:03.000Z</time>
|
|
</trkpt>
|
|
<trkpt lat="56.030642" lon="8.111448">
|
|
<ele>25.742823</ele>
|
|
<time>2026-07-12T13:18:04.000Z</time>
|
|
</trkpt>
|
|
<trkpt lat="56.030680" lon="8.111435">
|
|
<ele>25.754896</ele>
|
|
<time>2026-07-12T13:18:05.000Z</time>
|
|
</trkpt>
|
|
<trkpt lat="56.030719" lon="8.111420">
|
|
<ele>25.767344</ele>
|
|
<time>2026-07-12T13:18:06.000Z</time>
|
|
</trkpt>
|
|
<trkpt lat="56.030754" lon="8.111410">
|
|
<ele>25.778405</ele>
|
|
<time>2026-07-12T13:18:07.000Z</time>
|
|
</trkpt>
|
|
<trkpt lat="56.030799" lon="8.111396">
|
|
<ele>25.792658</ele>
|
|
<time>2026-07-12T13:18:08.000Z</time>
|
|
</trkpt>
|
|
<trkpt lat="56.030837" lon="8.111382">
|
|
<ele>25.804765</ele>
|
|
<time>2026-07-12T13:18:09.000Z</time>
|
|
</trkpt>
|
|
<trkpt lat="56.030874" lon="8.111367">
|
|
<ele>25.816604</ele>
|
|
<time>2026-07-12T13:18:10.000Z</time>
|
|
</trkpt>
|
|
<trkpt lat="56.030912" lon="8.111351">
|
|
<ele>25.828786</ele>
|
|
<time>2026-07-12T13:18:11.000Z</time>
|
|
</trkpt>
|
|
<trkpt lat="56.030951" lon="8.111332">
|
|
<ele>25.841400</ele>
|
|
<time>2026-07-12T13:18:12.000Z</time>
|
|
</trkpt>
|
|
<trkpt lat="56.030989" lon="8.111316">
|
|
<ele>25.853582</ele>
|
|
<time>2026-07-12T13:18:13.000Z</time>
|
|
</trkpt>
|
|
<trkpt lat="56.031027" lon="8.111296">
|
|
<ele>25.865942</ele>
|
|
<time>2026-07-12T13:18:14.000Z</time>
|
|
</trkpt>
|
|
<trkpt lat="56.031061" lon="8.111271">
|
|
<ele>25.877413</ele>
|
|
<time>2026-07-12T13:18:15.000Z</time>
|
|
</trkpt>
|
|
<trkpt lat="56.031094" lon="8.111243">
|
|
<ele>25.888810</ele>
|
|
<time>2026-07-12T13:18:16.000Z</time>
|
|
</trkpt>
|
|
<trkpt lat="56.031127" lon="8.111211">
|
|
<ele>25.900522</ele>
|
|
<time>2026-07-12T13:18:17.000Z</time>
|
|
</trkpt>
|
|
<trkpt lat="56.031158" lon="8.111173">
|
|
<ele>25.912248</ele>
|
|
<time>2026-07-12T13:18:18.000Z</time>
|
|
</trkpt>
|
|
<trkpt lat="56.031189" lon="8.111134">
|
|
<ele>25.924073</ele>
|
|
<time>2026-07-12T13:18:19.000Z</time>
|
|
</trkpt>
|
|
<trkpt lat="56.031223" lon="8.111097">
|
|
<ele>25.936490</ele>
|
|
<time>2026-07-12T13:18:20.000Z</time>
|
|
</trkpt>
|
|
<trkpt lat="56.031256" lon="8.111069">
|
|
<ele>25.947887</ele>
|
|
<time>2026-07-12T13:18:21.000Z</time>
|
|
</trkpt>
|
|
<trkpt lat="56.031295" lon="8.111055">
|
|
<ele>25.960300</ele>
|
|
<time>2026-07-12T13:18:22.000Z</time>
|
|
</trkpt>
|
|
<trkpt lat="56.031336" lon="8.111056">
|
|
<ele>25.973096</ele>
|
|
<time>2026-07-12T13:18:23.000Z</time>
|
|
</trkpt>
|
|
<trkpt lat="56.031379" lon="8.111067">
|
|
<ele>25.986651</ele>
|
|
<time>2026-07-12T13:18:24.000Z</time>
|
|
</trkpt>
|
|
<trkpt lat="56.031423" lon="8.111081">
|
|
<ele>26.000597</ele>
|
|
<time>2026-07-12T13:18:25.000Z</time>
|
|
</trkpt>
|
|
<trkpt lat="56.031465" lon="8.111095">
|
|
<ele>26.013929</ele>
|
|
<time>2026-07-12T13:18:26.000Z</time>
|
|
</trkpt>
|
|
<trkpt lat="56.031508" lon="8.111107">
|
|
<ele>26.027510</ele>
|
|
<time>2026-07-12T13:18:27.000Z</time>
|
|
</trkpt>
|
|
<trkpt lat="56.031553" lon="8.111119">
|
|
<ele>26.041708</ele>
|
|
<time>2026-07-12T13:18:28.000Z</time>
|
|
</trkpt>
|
|
<trkpt lat="56.031598" lon="8.111131">
|
|
<ele>26.055906</ele>
|
|
<time>2026-07-12T13:18:29.000Z</time>
|
|
</trkpt>
|
|
<trkpt lat="56.031640" lon="8.111143">
|
|
<ele>26.069179</ele>
|
|
<time>2026-07-12T13:18:30.000Z</time>
|
|
</trkpt>
|
|
<trkpt lat="56.031679" lon="8.111153">
|
|
<ele>26.081473</ele>
|
|
<time>2026-07-12T13:18:31.000Z</time>
|
|
</trkpt>
|
|
<trkpt lat="56.031719" lon="8.111162">
|
|
<ele>26.094054</ele>
|
|
<time>2026-07-12T13:18:32.000Z</time>
|
|
</trkpt>
|
|
<trkpt lat="56.031770" lon="8.111173">
|
|
<ele>26.110085</ele>
|
|
<time>2026-07-12T13:18:33.000Z</time>
|
|
</trkpt>
|
|
<trkpt lat="56.031813" lon="8.111186">
|
|
<ele>26.123693</ele>
|
|
<time>2026-07-12T13:18:34.000Z</time>
|
|
</trkpt>
|
|
<trkpt lat="56.031859" lon="8.111201">
|
|
<ele>26.138285</ele>
|
|
<time>2026-07-12T13:18:35.000Z</time>
|
|
</trkpt>
|
|
<trkpt lat="56.031900" lon="8.111214">
|
|
<ele>26.151278</ele>
|
|
<time>2026-07-12T13:18:36.000Z</time>
|
|
</trkpt>
|
|
<trkpt lat="56.031945" lon="8.111225">
|
|
<ele>26.165452</ele>
|
|
<time>2026-07-12T13:18:37.000Z</time>
|
|
</trkpt>
|
|
<trkpt lat="56.031988" lon="8.111236">
|
|
<ele>26.179007</ele>
|
|
<time>2026-07-12T13:18:38.000Z</time>
|
|
</trkpt>
|
|
<trkpt lat="56.032034" lon="8.111248">
|
|
<ele>26.187646</ele>
|
|
<time>2026-07-12T13:18:39.000Z</time>
|
|
</trkpt>
|
|
<trkpt lat="56.032080" lon="8.111259">
|
|
<ele>26.194301</ele>
|
|
<time>2026-07-12T13:18:40.000Z</time>
|
|
</trkpt>
|
|
<trkpt lat="56.032123" lon="8.111271">
|
|
<ele>26.200543</ele>
|
|
<time>2026-07-12T13:18:41.000Z</time>
|
|
</trkpt>
|
|
<trkpt lat="56.032166" lon="8.111283">
|
|
<ele>26.206784</ele>
|
|
<time>2026-07-12T13:18:42.000Z</time>
|
|
</trkpt>
|
|
<trkpt lat="56.032213" lon="8.111296">
|
|
<ele>26.213605</ele>
|
|
<time>2026-07-12T13:18:43.000Z</time>
|
|
</trkpt>
|
|
<trkpt lat="56.032259" lon="8.111307">
|
|
<ele>26.220260</ele>
|
|
<time>2026-07-12T13:18:44.000Z</time>
|
|
</trkpt>
|
|
<trkpt lat="56.032303" lon="8.111317">
|
|
<ele>26.226621</ele>
|
|
<time>2026-07-12T13:18:45.000Z</time>
|
|
</trkpt>
|
|
<trkpt lat="56.032346" lon="8.111327">
|
|
<ele>26.232840</ele>
|
|
<time>2026-07-12T13:18:46.000Z</time>
|
|
</trkpt>
|
|
<trkpt lat="56.032388" lon="8.111337">
|
|
<ele>26.238916</ele>
|
|
<time>2026-07-12T13:18:47.000Z</time>
|
|
</trkpt>
|
|
<trkpt lat="56.032429" lon="8.111347">
|
|
<ele>26.244851</ele>
|
|
<time>2026-07-12T13:18:48.000Z</time>
|
|
</trkpt>
|
|
<trkpt lat="56.032471" lon="8.111355">
|
|
<ele>26.250908</ele>
|
|
<time>2026-07-12T13:18:49.000Z</time>
|
|
</trkpt>
|
|
<trkpt lat="56.032511" lon="8.111360">
|
|
<ele>26.256659</ele>
|
|
<time>2026-07-12T13:18:50.000Z</time>
|
|
</trkpt>
|
|
<trkpt lat="56.032547" lon="8.111360">
|
|
<ele>26.261822</ele>
|
|
<time>2026-07-12T13:18:51.000Z</time>
|
|
</trkpt>
|
|
<trkpt lat="56.032581" lon="8.111358">
|
|
<ele>26.266700</ele>
|
|
<time>2026-07-12T13:18:52.000Z</time>
|
|
</trkpt>
|
|
<trkpt lat="56.032611" lon="8.111355">
|
|
<ele>26.271010</ele>
|
|
<time>2026-07-12T13:18:53.000Z</time>
|
|
</trkpt>
|
|
<trkpt lat="56.032639" lon="8.111348">
|
|
<ele>26.275064</ele>
|
|
<time>2026-07-12T13:18:54.000Z</time>
|
|
</trkpt>
|
|
<trkpt lat="56.032658" lon="8.111333">
|
|
<ele>26.278042</ele>
|
|
<time>2026-07-12T13:18:55.000Z</time>
|
|
</trkpt>
|
|
<trkpt lat="56.032669" lon="8.111321">
|
|
<ele>26.279890</ele>
|
|
<time>2026-07-12T13:18:56.000Z</time>
|
|
</trkpt>
|
|
<trkpt lat="56.032744" lon="8.111220">
|
|
<ele>26.293351</ele>
|
|
<time>2026-07-12T13:39:23.000Z</time>
|
|
</trkpt>
|
|
<trkpt lat="56.032762" lon="8.111200">
|
|
<ele>26.296389</ele>
|
|
<time>2026-07-12T13:39:24.000Z</time>
|
|
</trkpt>
|
|
<trkpt lat="56.032783" lon="8.111170">
|
|
<ele>26.300243</ele>
|
|
<time>2026-07-12T13:39:25.000Z</time>
|
|
</trkpt>
|
|
<trkpt lat="56.032804" lon="8.111143">
|
|
<ele>26.303951</ele>
|
|
<time>2026-07-12T13:39:26.000Z</time>
|
|
</trkpt>
|
|
<trkpt lat="56.032825" lon="8.111116">
|
|
<ele>26.307659</ele>
|
|
<time>2026-07-12T13:39:27.000Z</time>
|
|
</trkpt>
|
|
<trkpt lat="56.032848" lon="8.111096">
|
|
<ele>26.311326</ele>
|
|
<time>2026-07-12T13:39:28.000Z</time>
|
|
</trkpt>
|
|
<trkpt lat="56.032873" lon="8.111075">
|
|
<ele>26.315287</ele>
|
|
<time>2026-07-12T13:39:29.000Z</time>
|
|
</trkpt>
|
|
<trkpt lat="56.032894" lon="8.111049">
|
|
<ele>26.318949</ele>
|
|
<time>2026-07-12T13:39:30.000Z</time>
|
|
</trkpt>
|
|
<trkpt lat="56.032915" lon="8.111020">
|
|
<ele>26.322753</ele>
|
|
<time>2026-07-12T13:39:31.000Z</time>
|
|
</trkpt>
|
|
<trkpt lat="56.032938" lon="8.110992">
|
|
<ele>26.326742</ele>
|
|
<time>2026-07-12T13:39:32.000Z</time>
|
|
</trkpt>
|
|
<trkpt lat="56.032962" lon="8.110961">
|
|
<ele>26.330987</ele>
|
|
<time>2026-07-12T13:39:33.000Z</time>
|
|
</trkpt>
|
|
<trkpt lat="56.032990" lon="8.110926">
|
|
<ele>26.335885</ele>
|
|
<time>2026-07-12T13:39:34.000Z</time>
|
|
</trkpt>
|
|
<trkpt lat="56.033023" lon="8.110888">
|
|
<ele>26.341513</ele>
|
|
<time>2026-07-12T13:39:35.000Z</time>
|
|
</trkpt>
|
|
<trkpt lat="56.033063" lon="8.110848">
|
|
<ele>26.348084</ele>
|
|
<time>2026-07-12T13:39:36.000Z</time>
|
|
</trkpt>
|
|
<trkpt lat="56.033107" lon="8.110809">
|
|
<ele>26.355125</ele>
|
|
<time>2026-07-12T13:39:37.000Z</time>
|
|
</trkpt>
|
|
<trkpt lat="56.033151" lon="8.110771">
|
|
<ele>26.362132</ele>
|
|
<time>2026-07-12T13:39:38.000Z</time>
|
|
</trkpt>
|
|
<trkpt lat="56.033193" lon="8.110734">
|
|
<ele>26.368845</ele>
|
|
<time>2026-07-12T13:39:39.000Z</time>
|
|
</trkpt>
|
|
<trkpt lat="56.033235" lon="8.110699">
|
|
<ele>26.375490</ele>
|
|
<time>2026-07-12T13:39:40.000Z</time>
|
|
</trkpt>
|
|
<trkpt lat="56.033275" lon="8.110665">
|
|
<ele>26.381840</ele>
|
|
<time>2026-07-12T13:39:41.000Z</time>
|
|
</trkpt>
|
|
<trkpt lat="56.033315" lon="8.110631">
|
|
<ele>26.388191</ele>
|
|
<time>2026-07-12T13:39:42.000Z</time>
|
|
</trkpt>
|
|
<trkpt lat="56.033357" lon="8.110599">
|
|
<ele>26.394738</ele>
|
|
<time>2026-07-12T13:39:43.000Z</time>
|
|
</trkpt>
|
|
<trkpt lat="56.033399" lon="8.110565">
|
|
<ele>26.401348</ele>
|
|
<time>2026-07-12T13:39:44.000Z</time>
|
|
</trkpt>
|
|
<trkpt lat="56.033439" lon="8.110533">
|
|
<ele>26.407632</ele>
|
|
<time>2026-07-12T13:39:45.000Z</time>
|
|
</trkpt>
|
|
<trkpt lat="56.033477" lon="8.110502">
|
|
<ele>26.413621</ele>
|
|
<time>2026-07-12T13:39:46.000Z</time>
|
|
</trkpt>
|
|
<trkpt lat="56.033517" lon="8.110469">
|
|
<ele>26.419938</ele>
|
|
<time>2026-07-12T13:39:47.000Z</time>
|
|
</trkpt>
|
|
<trkpt lat="56.033560" lon="8.110435">
|
|
<ele>26.426680</ele>
|
|
<time>2026-07-12T13:39:48.000Z</time>
|
|
</trkpt>
|
|
<trkpt lat="56.033605" lon="8.110398">
|
|
<ele>26.433782</ele>
|
|
<time>2026-07-12T13:39:49.000Z</time>
|
|
</trkpt>
|
|
<trkpt lat="56.033649" lon="8.110359">
|
|
<ele>26.441289</ele>
|
|
<time>2026-07-12T13:39:50.000Z</time>
|
|
</trkpt>
|
|
<trkpt lat="56.033691" lon="8.110320">
|
|
<ele>26.462782</ele>
|
|
<time>2026-07-12T13:39:51.000Z</time>
|
|
</trkpt>
|
|
<trkpt lat="56.033731" lon="8.110282">
|
|
<ele>26.483352</ele>
|
|
<time>2026-07-12T13:39:52.000Z</time>
|
|
</trkpt>
|
|
<trkpt lat="56.033773" lon="8.110246">
|
|
<ele>26.504505</ele>
|
|
<time>2026-07-12T13:39:53.000Z</time>
|
|
</trkpt>
|
|
<trkpt lat="56.033815" lon="8.110210">
|
|
<ele>26.525658</ele>
|
|
<time>2026-07-12T13:39:54.000Z</time>
|
|
</trkpt>
|
|
<trkpt lat="56.033855" lon="8.110172">
|
|
<ele>26.546228</ele>
|
|
<time>2026-07-12T13:39:55.000Z</time>
|
|
</trkpt>
|
|
<trkpt lat="56.033893" lon="8.110131">
|
|
<ele>26.566383</ele>
|
|
<time>2026-07-12T13:39:56.000Z</time>
|
|
</trkpt>
|
|
<trkpt lat="56.033931" lon="8.110091">
|
|
<ele>26.586407</ele>
|
|
<time>2026-07-12T13:39:57.000Z</time>
|
|
</trkpt>
|
|
<trkpt lat="56.033971" lon="8.110051">
|
|
<ele>26.607220</ele>
|
|
<time>2026-07-12T13:39:58.000Z</time>
|
|
</trkpt>
|
|
<trkpt lat="56.034013" lon="8.110014">
|
|
<ele>26.628484</ele>
|
|
<time>2026-07-12T13:39:59.000Z</time>
|
|
</trkpt>
|
|
<trkpt lat="56.034054" lon="8.109980">
|
|
<ele>26.649010</ele>
|
|
<time>2026-07-12T13:40:00.000Z</time>
|
|
</trkpt>
|
|
<trkpt lat="56.034093" lon="8.109944">
|
|
<ele>26.668942</ele>
|
|
<time>2026-07-12T13:40:01.000Z</time>
|
|
</trkpt>
|
|
<trkpt lat="56.034134" lon="8.109906">
|
|
<ele>26.689914</ele>
|
|
<time>2026-07-12T13:40:02.000Z</time>
|
|
</trkpt>
|
|
<trkpt lat="56.034172" lon="8.109868">
|
|
<ele>26.709687</ele>
|
|
<time>2026-07-12T13:40:03.000Z</time>
|
|
</trkpt>
|
|
<trkpt lat="56.034210" lon="8.109830">
|
|
<ele>26.729459</ele>
|
|
<time>2026-07-12T13:40:04.000Z</time>
|
|
</trkpt>
|
|
<trkpt lat="56.034250" lon="8.109792">
|
|
<ele>26.750029</ele>
|
|
<time>2026-07-12T13:40:05.000Z</time>
|
|
</trkpt>
|
|
<trkpt lat="56.034289" lon="8.109754">
|
|
<ele>26.770199</ele>
|
|
<time>2026-07-12T13:40:06.000Z</time>
|
|
</trkpt>
|
|
<trkpt lat="56.034323" lon="8.109717">
|
|
<ele>26.788274</ele>
|
|
<time>2026-07-12T13:40:07.000Z</time>
|
|
</trkpt>
|
|
<trkpt lat="56.034357" lon="8.109684">
|
|
<ele>26.805842</ele>
|
|
<time>2026-07-12T13:40:08.000Z</time>
|
|
</trkpt>
|
|
<trkpt lat="56.034390" lon="8.109652">
|
|
<ele>26.822891</ele>
|
|
<time>2026-07-12T13:40:09.000Z</time>
|
|
</trkpt>
|
|
<trkpt lat="56.034419" lon="8.109622">
|
|
<ele>26.838106</ele>
|
|
<time>2026-07-12T13:40:10.000Z</time>
|
|
</trkpt>
|
|
<trkpt lat="56.034448" lon="8.109593">
|
|
<ele>26.853195</ele>
|
|
<time>2026-07-12T13:40:11.000Z</time>
|
|
</trkpt>
|
|
<trkpt lat="56.034477" lon="8.109566">
|
|
<ele>26.868043</ele>
|
|
<time>2026-07-12T13:40:12.000Z</time>
|
|
</trkpt>
|
|
<trkpt lat="56.034503" lon="8.109543">
|
|
<ele>26.881217</ele>
|
|
<time>2026-07-12T13:40:13.000Z</time>
|
|
</trkpt>
|
|
<trkpt lat="56.034528" lon="8.109523">
|
|
<ele>26.893656</ele>
|
|
<time>2026-07-12T13:40:14.000Z</time>
|
|
</trkpt>
|
|
<trkpt lat="56.034551" lon="8.109503">
|
|
<ele>26.905271</ele>
|
|
<time>2026-07-12T13:40:15.000Z</time>
|
|
</trkpt>
|
|
<trkpt lat="56.034576" lon="8.109488">
|
|
<ele>26.917248</ele>
|
|
<time>2026-07-12T13:40:16.000Z</time>
|
|
</trkpt>
|
|
<trkpt lat="56.034602" lon="8.109482">
|
|
<ele>26.929156</ele>
|
|
<time>2026-07-12T13:40:17.000Z</time>
|
|
</trkpt>
|
|
<trkpt lat="56.034630" lon="8.109476">
|
|
<ele>26.941965</ele>
|
|
<time>2026-07-12T13:40:18.000Z</time>
|
|
</trkpt>
|
|
<trkpt lat="56.034661" lon="8.109471">
|
|
<ele>26.956104</ele>
|
|
<time>2026-07-12T13:40:19.000Z</time>
|
|
</trkpt>
|
|
<trkpt lat="56.034692" lon="8.109464">
|
|
<ele>26.970297</ele>
|
|
<time>2026-07-12T13:40:20.000Z</time>
|
|
</trkpt>
|
|
<trkpt lat="56.034727" lon="8.109454">
|
|
<ele>26.986396</ele>
|
|
<time>2026-07-12T13:40:21.000Z</time>
|
|
</trkpt>
|
|
<trkpt lat="56.034769" lon="8.109442">
|
|
<ele>27.005716</ele>
|
|
<time>2026-07-12T13:40:22.000Z</time>
|
|
</trkpt>
|
|
<trkpt lat="56.034812" lon="8.109423">
|
|
<ele>27.025835</ele>
|
|
<time>2026-07-12T13:40:23.000Z</time>
|
|
</trkpt>
|
|
<trkpt lat="56.034859" lon="8.109403">
|
|
<ele>27.047779</ele>
|
|
<time>2026-07-12T13:40:24.000Z</time>
|
|
</trkpt>
|
|
<trkpt lat="56.034909" lon="8.109381">
|
|
<ele>27.071167</ele>
|
|
<time>2026-07-12T13:40:25.000Z</time>
|
|
</trkpt>
|
|
<trkpt lat="56.034959" lon="8.109356">
|
|
<ele>27.094748</ele>
|
|
<time>2026-07-12T13:40:26.000Z</time>
|
|
</trkpt>
|
|
<trkpt lat="56.035006" lon="8.109331">
|
|
<ele>27.117020</ele>
|
|
<time>2026-07-12T13:40:27.000Z</time>
|
|
</trkpt>
|
|
<trkpt lat="56.035050" lon="8.109314">
|
|
<ele>27.137467</ele>
|
|
<time>2026-07-12T13:40:28.000Z</time>
|
|
</trkpt>
|
|
<trkpt lat="56.035088" lon="8.109303">
|
|
<ele>27.154952</ele>
|
|
<time>2026-07-12T13:40:29.000Z</time>
|
|
</trkpt>
|
|
<trkpt lat="56.035120" lon="8.109297">
|
|
<ele>27.169567</ele>
|
|
<time>2026-07-12T13:40:30.000Z</time>
|
|
</trkpt>
|
|
<trkpt lat="56.035155" lon="8.109295">
|
|
<ele>27.185474</ele>
|
|
<time>2026-07-12T13:40:31.000Z</time>
|
|
</trkpt>
|
|
<trkpt lat="56.035191" lon="8.109297">
|
|
<ele>27.201834</ele>
|
|
<time>2026-07-12T13:40:32.000Z</time>
|
|
</trkpt>
|
|
<trkpt lat="56.035227" lon="8.109302">
|
|
<ele>27.218236</ele>
|
|
<time>2026-07-12T13:40:33.000Z</time>
|
|
</trkpt>
|
|
<trkpt lat="56.035265" lon="8.109311">
|
|
<ele>27.235647</ele>
|
|
<time>2026-07-12T13:40:34.000Z</time>
|
|
</trkpt>
|
|
<trkpt lat="56.035307" lon="8.109323">
|
|
<ele>27.254967</ele>
|
|
<time>2026-07-12T13:40:35.000Z</time>
|
|
</trkpt>
|
|
<trkpt lat="56.035349" lon="8.109336">
|
|
<ele>27.243757</ele>
|
|
<time>2026-07-12T13:40:36.000Z</time>
|
|
</trkpt>
|
|
<trkpt lat="56.035392" lon="8.109353">
|
|
<ele>27.227160</ele>
|
|
<time>2026-07-12T13:40:37.000Z</time>
|
|
</trkpt>
|
|
<trkpt lat="56.035438" lon="8.109370">
|
|
<ele>27.209458</ele>
|
|
<time>2026-07-12T13:40:38.000Z</time>
|
|
</trkpt>
|
|
<trkpt lat="56.035482" lon="8.109387">
|
|
<ele>27.192492</ele>
|
|
<time>2026-07-12T13:40:39.000Z</time>
|
|
</trkpt>
|
|
<trkpt lat="56.035524" lon="8.109405">
|
|
<ele>27.176216</ele>
|
|
<time>2026-07-12T13:40:40.000Z</time>
|
|
</trkpt>
|
|
<trkpt lat="56.035566" lon="8.109420">
|
|
<ele>27.160074</ele>
|
|
<time>2026-07-12T13:40:41.000Z</time>
|
|
</trkpt>
|
|
<trkpt lat="56.035610" lon="8.109433">
|
|
<ele>27.143267</ele>
|
|
<time>2026-07-12T13:40:42.000Z</time>
|
|
</trkpt>
|
|
<trkpt lat="56.035657" lon="8.109448">
|
|
<ele>27.125273</ele>
|
|
<time>2026-07-12T13:40:43.000Z</time>
|
|
</trkpt>
|
|
<trkpt lat="56.035706" lon="8.109467">
|
|
<ele>27.106377</ele>
|
|
<time>2026-07-12T13:40:44.000Z</time>
|
|
</trkpt>
|
|
<trkpt lat="56.035756" lon="8.109488">
|
|
<ele>27.087021</ele>
|
|
<time>2026-07-12T13:40:45.000Z</time>
|
|
</trkpt>
|
|
<trkpt lat="56.035807" lon="8.109505">
|
|
<ele>27.067469</ele>
|
|
<time>2026-07-12T13:40:46.000Z</time>
|
|
</trkpt>
|
|
<trkpt lat="56.035860" lon="8.109517">
|
|
<ele>27.047335</ele>
|
|
<time>2026-07-12T13:40:47.000Z</time>
|
|
</trkpt>
|
|
<trkpt lat="56.035912" lon="8.109523">
|
|
<ele>27.027696</ele>
|
|
<time>2026-07-12T13:40:48.000Z</time>
|
|
</trkpt>
|
|
<trkpt lat="56.035962" lon="8.109526">
|
|
<ele>27.008840</ele>
|
|
<time>2026-07-12T13:40:49.000Z</time>
|
|
</trkpt>
|
|
<trkpt lat="56.036013" lon="8.109527">
|
|
<ele>26.989618</ele>
|
|
<time>2026-07-12T13:40:50.000Z</time>
|
|
</trkpt>
|
|
<trkpt lat="56.036065" lon="8.109527">
|
|
<ele>26.970020</ele>
|
|
<time>2026-07-12T13:40:51.000Z</time>
|
|
</trkpt>
|
|
<trkpt lat="56.036115" lon="8.109530">
|
|
<ele>26.951164</ele>
|
|
<time>2026-07-12T13:40:52.000Z</time>
|
|
</trkpt>
|
|
<trkpt lat="56.036164" lon="8.109533">
|
|
<ele>26.932686</ele>
|
|
<time>2026-07-12T13:40:53.000Z</time>
|
|
</trkpt>
|
|
<trkpt lat="56.036214" lon="8.109536">
|
|
<ele>26.913831</ele>
|
|
<time>2026-07-12T13:40:54.000Z</time>
|
|
</trkpt>
|
|
<trkpt lat="56.036263" lon="8.109539">
|
|
<ele>26.895352</ele>
|
|
<time>2026-07-12T13:40:55.000Z</time>
|
|
</trkpt>
|
|
<trkpt lat="56.036311" lon="8.109539">
|
|
<ele>26.877262</ele>
|
|
<time>2026-07-12T13:40:56.000Z</time>
|
|
</trkpt>
|
|
<trkpt lat="56.036358" lon="8.109539">
|
|
<ele>26.859548</ele>
|
|
<time>2026-07-12T13:40:57.000Z</time>
|
|
</trkpt>
|
|
<trkpt lat="56.036407" lon="8.109542">
|
|
<ele>26.841069</ele>
|
|
<time>2026-07-12T13:40:58.000Z</time>
|
|
</trkpt>
|
|
<trkpt lat="56.036452" lon="8.109547">
|
|
<ele>26.824076</ele>
|
|
<time>2026-07-12T13:40:59.000Z</time>
|
|
</trkpt>
|
|
<trkpt lat="56.036500" lon="8.109552">
|
|
<ele>26.805955</ele>
|
|
<time>2026-07-12T13:41:00.000Z</time>
|
|
</trkpt>
|
|
<trkpt lat="56.036548" lon="8.109554">
|
|
<ele>26.787859</ele>
|
|
<time>2026-07-12T13:41:01.000Z</time>
|
|
</trkpt>
|
|
<trkpt lat="56.036594" lon="8.109554">
|
|
<ele>26.770522</ele>
|
|
<time>2026-07-12T13:41:02.000Z</time>
|
|
</trkpt>
|
|
<trkpt lat="56.036639" lon="8.109544">
|
|
<ele>26.753432</ele>
|
|
<time>2026-07-12T13:41:03.000Z</time>
|
|
</trkpt>
|
|
<trkpt lat="56.036682" lon="8.109520">
|
|
<ele>26.736456</ele>
|
|
<time>2026-07-12T13:41:04.000Z</time>
|
|
</trkpt>
|
|
<trkpt lat="56.036720" lon="8.109481">
|
|
<ele>26.719947</ele>
|
|
<time>2026-07-12T13:41:05.000Z</time>
|
|
</trkpt>
|
|
<trkpt lat="56.036754" lon="8.109427">
|
|
<ele>26.702816</ele>
|
|
<time>2026-07-12T13:41:06.000Z</time>
|
|
</trkpt>
|
|
<trkpt lat="56.036781" lon="8.109364">
|
|
<ele>26.686097</ele>
|
|
<time>2026-07-12T13:41:07.000Z</time>
|
|
</trkpt>
|
|
<trkpt lat="56.036807" lon="8.109299">
|
|
<ele>26.669265</ele>
|
|
<time>2026-07-12T13:41:08.000Z</time>
|
|
</trkpt>
|
|
<trkpt lat="56.036834" lon="8.109233">
|
|
<ele>26.652041</ele>
|
|
<time>2026-07-12T13:41:09.000Z</time>
|
|
</trkpt>
|
|
<trkpt lat="56.036862" lon="8.109167">
|
|
<ele>26.634592</ele>
|
|
<time>2026-07-12T13:41:10.000Z</time>
|
|
</trkpt>
|
|
<trkpt lat="56.036890" lon="8.109100">
|
|
<ele>26.616974</ele>
|
|
<time>2026-07-12T13:41:11.000Z</time>
|
|
</trkpt>
|
|
<trkpt lat="56.036914" lon="8.109033">
|
|
<ele>26.600216</ele>
|
|
<time>2026-07-12T13:41:12.000Z</time>
|
|
</trkpt>
|
|
<trkpt lat="56.036941" lon="8.108965">
|
|
<ele>26.582651</ele>
|
|
<time>2026-07-12T13:41:13.000Z</time>
|
|
</trkpt>
|
|
<trkpt lat="56.036969" lon="8.108899">
|
|
<ele>26.605411</ele>
|
|
<time>2026-07-12T13:41:14.000Z</time>
|
|
</trkpt>
|
|
<trkpt lat="56.036998" lon="8.108831">
|
|
<ele>26.637258</ele>
|
|
<time>2026-07-12T13:41:15.000Z</time>
|
|
</trkpt>
|
|
<trkpt lat="56.037025" lon="8.108765">
|
|
<ele>26.667712</ele>
|
|
<time>2026-07-12T13:41:16.000Z</time>
|
|
</trkpt>
|
|
<trkpt lat="56.037051" lon="8.108698">
|
|
<ele>26.698081</ele>
|
|
<time>2026-07-12T13:41:17.000Z</time>
|
|
</trkpt>
|
|
<trkpt lat="56.037078" lon="8.108631">
|
|
<ele>26.728835</ele>
|
|
<time>2026-07-12T13:41:18.000Z</time>
|
|
</trkpt>
|
|
<trkpt lat="56.037105" lon="8.108563">
|
|
<ele>26.759892</ele>
|
|
<time>2026-07-12T13:41:19.000Z</time>
|
|
</trkpt>
|
|
<trkpt lat="56.037130" lon="8.108494">
|
|
<ele>26.790508</ele>
|
|
<time>2026-07-12T13:41:20.000Z</time>
|
|
</trkpt>
|
|
<trkpt lat="56.037153" lon="8.108426">
|
|
<ele>26.820101</ele>
|
|
<time>2026-07-12T13:41:21.000Z</time>
|
|
</trkpt>
|
|
<trkpt lat="56.037176" lon="8.108356">
|
|
<ele>26.850333</ele>
|
|
<time>2026-07-12T13:41:22.000Z</time>
|
|
</trkpt>
|
|
<trkpt lat="56.037197" lon="8.108284">
|
|
<ele>26.880569</ele>
|
|
<time>2026-07-12T13:41:23.000Z</time>
|
|
</trkpt>
|
|
<trkpt lat="56.037218" lon="8.108211">
|
|
<ele>26.911136</ele>
|
|
<time>2026-07-12T13:41:24.000Z</time>
|
|
</trkpt>
|
|
<trkpt lat="56.037240" lon="8.108138">
|
|
<ele>26.942014</ele>
|
|
<time>2026-07-12T13:41:25.000Z</time>
|
|
</trkpt>
|
|
<trkpt lat="56.037262" lon="8.108063">
|
|
<ele>26.973549</ele>
|
|
<time>2026-07-12T13:41:26.000Z</time>
|
|
</trkpt>
|
|
<trkpt lat="56.037281" lon="8.107989">
|
|
<ele>27.003867</ele>
|
|
<time>2026-07-12T13:41:27.000Z</time>
|
|
</trkpt>
|
|
<trkpt lat="56.037300" lon="8.107916">
|
|
<ele>27.033848</ele>
|
|
<time>2026-07-12T13:41:28.000Z</time>
|
|
</trkpt>
|
|
<trkpt lat="56.037321" lon="8.107843">
|
|
<ele>27.064415</ele>
|
|
<time>2026-07-12T13:41:29.000Z</time>
|
|
</trkpt>
|
|
<trkpt lat="56.037345" lon="8.107771">
|
|
<ele>27.095627</ele>
|
|
<time>2026-07-12T13:41:30.000Z</time>
|
|
</trkpt>
|
|
<trkpt lat="56.037369" lon="8.107699">
|
|
<ele>27.126839</ele>
|
|
<time>2026-07-12T13:41:31.000Z</time>
|
|
</trkpt>
|
|
<trkpt lat="56.037390" lon="8.107624">
|
|
<ele>27.158070</ele>
|
|
<time>2026-07-12T13:41:32.000Z</time>
|
|
</trkpt>
|
|
<trkpt lat="56.037411" lon="8.107550">
|
|
<ele>27.188968</ele>
|
|
<time>2026-07-12T13:41:33.000Z</time>
|
|
</trkpt>
|
|
<trkpt lat="56.037431" lon="8.107475">
|
|
<ele>27.219906</ele>
|
|
<time>2026-07-12T13:41:34.000Z</time>
|
|
</trkpt>
|
|
<trkpt lat="56.037453" lon="8.107401">
|
|
<ele>27.251112</ele>
|
|
<time>2026-07-12T13:41:35.000Z</time>
|
|
</trkpt>
|
|
<trkpt lat="56.037473" lon="8.107324">
|
|
<ele>27.282723</ele>
|
|
<time>2026-07-12T13:41:36.000Z</time>
|
|
</trkpt>
|
|
<trkpt lat="56.037496" lon="8.107248">
|
|
<ele>27.314900</ele>
|
|
<time>2026-07-12T13:41:37.000Z</time>
|
|
</trkpt>
|
|
<trkpt lat="56.037518" lon="8.107175">
|
|
<ele>27.345778</ele>
|
|
<time>2026-07-12T13:41:38.000Z</time>
|
|
</trkpt>
|
|
<trkpt lat="56.037538" lon="8.107102">
|
|
<ele>27.376046</ele>
|
|
<time>2026-07-12T13:41:39.000Z</time>
|
|
</trkpt>
|
|
<trkpt lat="56.037558" lon="8.107028">
|
|
<ele>27.406648</ele>
|
|
<time>2026-07-12T13:41:40.000Z</time>
|
|
</trkpt>
|
|
<trkpt lat="56.037576" lon="8.106952">
|
|
<ele>27.437378</ele>
|
|
<time>2026-07-12T13:41:41.000Z</time>
|
|
</trkpt>
|
|
<trkpt lat="56.037598" lon="8.106879">
|
|
<ele>27.468256</ele>
|
|
<time>2026-07-12T13:41:42.000Z</time>
|
|
</trkpt>
|
|
<trkpt lat="56.037617" lon="8.106804">
|
|
<ele>27.498912</ele>
|
|
<time>2026-07-12T13:41:43.000Z</time>
|
|
</trkpt>
|
|
<trkpt lat="56.037637" lon="8.106730">
|
|
<ele>27.529514</ele>
|
|
<time>2026-07-12T13:41:44.000Z</time>
|
|
</trkpt>
|
|
<trkpt lat="56.037659" lon="8.106657">
|
|
<ele>27.560392</ele>
|
|
<time>2026-07-12T13:41:45.000Z</time>
|
|
</trkpt>
|
|
<trkpt lat="56.037678" lon="8.106583">
|
|
<ele>27.590710</ele>
|
|
<time>2026-07-12T13:41:46.000Z</time>
|
|
</trkpt>
|
|
<trkpt lat="56.037697" lon="8.106510">
|
|
<ele>27.620690</ele>
|
|
<time>2026-07-12T13:41:47.000Z</time>
|
|
</trkpt>
|
|
<trkpt lat="56.037716" lon="8.106437">
|
|
<ele>27.650670</ele>
|
|
<time>2026-07-12T13:41:48.000Z</time>
|
|
</trkpt>
|
|
<trkpt lat="56.037735" lon="8.106363">
|
|
<ele>27.680988</ele>
|
|
<time>2026-07-12T13:41:49.000Z</time>
|
|
</trkpt>
|
|
<trkpt lat="56.037754" lon="8.106287">
|
|
<ele>27.711984</ele>
|
|
<time>2026-07-12T13:41:50.000Z</time>
|
|
</trkpt>
|
|
<trkpt lat="56.037773" lon="8.106211">
|
|
<ele>27.742980</ele>
|
|
<time>2026-07-12T13:41:51.000Z</time>
|
|
</trkpt>
|
|
<trkpt lat="56.037792" lon="8.106136">
|
|
<ele>27.773636</ele>
|
|
<time>2026-07-12T13:41:52.000Z</time>
|
|
</trkpt>
|
|
<trkpt lat="56.037813" lon="8.106061">
|
|
<ele>27.786211</ele>
|
|
<time>2026-07-12T13:41:53.000Z</time>
|
|
</trkpt>
|
|
<trkpt lat="56.037836" lon="8.105988">
|
|
<ele>27.795510</ele>
|
|
<time>2026-07-12T13:41:54.000Z</time>
|
|
</trkpt>
|
|
<trkpt lat="56.037857" lon="8.105915">
|
|
<ele>27.804621</ele>
|
|
<time>2026-07-12T13:41:55.000Z</time>
|
|
</trkpt>
|
|
<trkpt lat="56.037876" lon="8.105840">
|
|
<ele>27.813758</ele>
|
|
<time>2026-07-12T13:41:56.000Z</time>
|
|
</trkpt>
|
|
<trkpt lat="56.037895" lon="8.105765">
|
|
<ele>27.822896</ele>
|
|
<time>2026-07-12T13:41:57.000Z</time>
|
|
</trkpt>
|
|
<trkpt lat="56.037916" lon="8.105691">
|
|
<ele>27.832105</ele>
|
|
<time>2026-07-12T13:41:58.000Z</time>
|
|
</trkpt>
|
|
<trkpt lat="56.037937" lon="8.105619">
|
|
<ele>27.841117</ele>
|
|
<time>2026-07-12T13:41:59.000Z</time>
|
|
</trkpt>
|
|
<trkpt lat="56.037957" lon="8.105547">
|
|
<ele>27.850039</ele>
|
|
<time>2026-07-12T13:42:00.000Z</time>
|
|
</trkpt>
|
|
<trkpt lat="56.037979" lon="8.105476">
|
|
<ele>27.859048</ele>
|
|
<time>2026-07-12T13:42:01.000Z</time>
|
|
</trkpt>
|
|
<trkpt lat="56.037999" lon="8.105403">
|
|
<ele>27.868069</ele>
|
|
<time>2026-07-12T13:42:02.000Z</time>
|
|
</trkpt>
|
|
<trkpt lat="56.038021" lon="8.105329">
|
|
<ele>27.877370</ele>
|
|
<time>2026-07-12T13:42:03.000Z</time>
|
|
</trkpt>
|
|
<trkpt lat="56.038040" lon="8.105254">
|
|
<ele>27.886507</ele>
|
|
<time>2026-07-12T13:42:04.000Z</time>
|
|
</trkpt>
|
|
<trkpt lat="56.038059" lon="8.105180">
|
|
<ele>27.895544</ele>
|
|
<time>2026-07-12T13:42:05.000Z</time>
|
|
</trkpt>
|
|
<trkpt lat="56.038080" lon="8.105107">
|
|
<ele>27.904654</ele>
|
|
<time>2026-07-12T13:42:06.000Z</time>
|
|
</trkpt>
|
|
<trkpt lat="56.038101" lon="8.105035">
|
|
<ele>27.913666</ele>
|
|
<time>2026-07-12T13:42:07.000Z</time>
|
|
</trkpt>
|
|
<trkpt lat="56.038120" lon="8.104965">
|
|
<ele>27.922301</ele>
|
|
<time>2026-07-12T13:42:08.000Z</time>
|
|
</trkpt>
|
|
<trkpt lat="56.038142" lon="8.104898">
|
|
<ele>27.930924</ele>
|
|
<time>2026-07-12T13:42:09.000Z</time>
|
|
</trkpt>
|
|
<trkpt lat="56.038171" lon="8.104838">
|
|
<ele>27.939728</ele>
|
|
<time>2026-07-12T13:42:10.000Z</time>
|
|
</trkpt>
|
|
<trkpt lat="56.038206" lon="8.104783">
|
|
<ele>27.948978</ele>
|
|
<time>2026-07-12T13:42:11.000Z</time>
|
|
</trkpt>
|
|
<trkpt lat="56.038242" lon="8.104732">
|
|
<ele>27.958096</ele>
|
|
<time>2026-07-12T13:42:12.000Z</time>
|
|
</trkpt>
|
|
<trkpt lat="56.038279" lon="8.104685">
|
|
<ele>27.967107</ele>
|
|
<time>2026-07-12T13:42:13.000Z</time>
|
|
</trkpt>
|
|
<trkpt lat="56.038315" lon="8.104637">
|
|
<ele>27.976023</ele>
|
|
<time>2026-07-12T13:42:14.000Z</time>
|
|
</trkpt>
|
|
<trkpt lat="56.038351" lon="8.104591">
|
|
<ele>27.984808</ele>
|
|
<time>2026-07-12T13:42:15.000Z</time>
|
|
</trkpt>
|
|
<trkpt lat="56.038387" lon="8.104545">
|
|
<ele>27.993593</ele>
|
|
<time>2026-07-12T13:42:16.000Z</time>
|
|
</trkpt>
|
|
<trkpt lat="56.038425" lon="8.104497">
|
|
<ele>28.002830</ele>
|
|
<time>2026-07-12T13:42:17.000Z</time>
|
|
</trkpt>
|
|
<trkpt lat="56.038462" lon="8.104447">
|
|
<ele>28.012038</ele>
|
|
<time>2026-07-12T13:42:18.000Z</time>
|
|
</trkpt>
|
|
<trkpt lat="56.038495" lon="8.104398">
|
|
<ele>28.020554</ele>
|
|
<time>2026-07-12T13:42:19.000Z</time>
|
|
</trkpt>
|
|
<trkpt lat="56.038527" lon="8.104348">
|
|
<ele>28.028990</ele>
|
|
<time>2026-07-12T13:42:20.000Z</time>
|
|
</trkpt>
|
|
<trkpt lat="56.038561" lon="8.104299">
|
|
<ele>28.037659</ele>
|
|
<time>2026-07-12T13:42:21.000Z</time>
|
|
</trkpt>
|
|
<trkpt lat="56.038595" lon="8.104250">
|
|
<ele>28.046329</ele>
|
|
<time>2026-07-12T13:42:22.000Z</time>
|
|
</trkpt>
|
|
<trkpt lat="56.038630" lon="8.104204">
|
|
<ele>28.054953</ele>
|
|
<time>2026-07-12T13:42:23.000Z</time>
|
|
</trkpt>
|
|
<trkpt lat="56.038666" lon="8.104166">
|
|
<ele>28.063254</ele>
|
|
<time>2026-07-12T13:42:24.000Z</time>
|
|
</trkpt>
|
|
<trkpt lat="56.038706" lon="8.104139">
|
|
<ele>28.071744</ele>
|
|
<time>2026-07-12T13:42:25.000Z</time>
|
|
</trkpt>
|
|
<trkpt lat="56.038749" lon="8.104127">
|
|
<ele>28.080388</ele>
|
|
<time>2026-07-12T13:42:26.000Z</time>
|
|
</trkpt>
|
|
<trkpt lat="56.038793" lon="8.104126">
|
|
<ele>28.089128</ele>
|
|
<time>2026-07-12T13:42:27.000Z</time>
|
|
</trkpt>
|
|
<trkpt lat="56.038836" lon="8.104130">
|
|
<ele>28.097680</ele>
|
|
<time>2026-07-12T13:42:28.000Z</time>
|
|
</trkpt>
|
|
<trkpt lat="56.038882" lon="8.104136">
|
|
<ele>28.106840</ele>
|
|
<time>2026-07-12T13:42:29.000Z</time>
|
|
</trkpt>
|
|
<trkpt lat="56.038930" lon="8.104143">
|
|
<ele>28.116405</ele>
|
|
<time>2026-07-12T13:42:30.000Z</time>
|
|
</trkpt>
|
|
<trkpt lat="56.038976" lon="8.104150">
|
|
<ele>28.125575</ele>
|
|
<time>2026-07-12T13:42:31.000Z</time>
|
|
</trkpt>
|
|
<trkpt lat="56.039020" lon="8.104155">
|
|
<ele>28.134331</ele>
|
|
<time>2026-07-12T13:42:32.000Z</time>
|
|
</trkpt>
|
|
<trkpt lat="56.039066" lon="8.104157">
|
|
<ele>28.144527</ele>
|
|
<time>2026-07-12T13:42:33.000Z</time>
|
|
</trkpt>
|
|
<trkpt lat="56.039110" lon="8.104159">
|
|
<ele>28.154431</ele>
|
|
<time>2026-07-12T13:42:34.000Z</time>
|
|
</trkpt>
|
|
<trkpt lat="56.039153" lon="8.104161">
|
|
<ele>28.164110</ele>
|
|
<time>2026-07-12T13:42:35.000Z</time>
|
|
</trkpt>
|
|
<trkpt lat="56.039199" lon="8.104163">
|
|
<ele>28.174465</ele>
|
|
<time>2026-07-12T13:42:36.000Z</time>
|
|
</trkpt>
|
|
<trkpt lat="56.039243" lon="8.104166">
|
|
<ele>28.184373</ele>
|
|
<time>2026-07-12T13:42:37.000Z</time>
|
|
</trkpt>
|
|
<trkpt lat="56.039286" lon="8.104167">
|
|
<ele>28.194050</ele>
|
|
<time>2026-07-12T13:42:38.000Z</time>
|
|
</trkpt>
|
|
<trkpt lat="56.039331" lon="8.104163">
|
|
<ele>28.204189</ele>
|
|
<time>2026-07-12T13:42:39.000Z</time>
|
|
</trkpt>
|
|
<trkpt lat="56.039371" lon="8.104160">
|
|
<ele>28.213198</ele>
|
|
<time>2026-07-12T13:42:40.000Z</time>
|
|
</trkpt>
|
|
<trkpt lat="56.039410" lon="8.104160">
|
|
<ele>28.221974</ele>
|
|
<time>2026-07-12T13:42:41.000Z</time>
|
|
</trkpt>
|
|
<trkpt lat="56.039452" lon="8.104160">
|
|
<ele>28.231425</ele>
|
|
<time>2026-07-12T13:42:42.000Z</time>
|
|
</trkpt>
|
|
<trkpt lat="56.039495" lon="8.104160">
|
|
<ele>28.241101</ele>
|
|
<time>2026-07-12T13:42:43.000Z</time>
|
|
</trkpt>
|
|
<trkpt lat="56.039535" lon="8.104161">
|
|
<ele>28.250103</ele>
|
|
<time>2026-07-12T13:42:44.000Z</time>
|
|
</trkpt>
|
|
<trkpt lat="56.039573" lon="8.104162">
|
|
<ele>28.258655</ele>
|
|
<time>2026-07-12T13:42:45.000Z</time>
|
|
</trkpt>
|
|
<trkpt lat="56.039608" lon="8.104164">
|
|
<ele>28.266535</ele>
|
|
<time>2026-07-12T13:42:46.000Z</time>
|
|
</trkpt>
|
|
<trkpt lat="56.039642" lon="8.104165">
|
|
<ele>28.274187</ele>
|
|
<time>2026-07-12T13:42:47.000Z</time>
|
|
</trkpt>
|
|
<trkpt lat="56.039677" lon="8.104164">
|
|
<ele>28.282063</ele>
|
|
<time>2026-07-12T13:42:48.000Z</time>
|
|
</trkpt>
|
|
<trkpt lat="56.039709" lon="8.104162">
|
|
<ele>28.289269</ele>
|
|
<time>2026-07-12T13:42:49.000Z</time>
|
|
</trkpt>
|
|
<trkpt lat="56.039742" lon="8.104161">
|
|
<ele>28.296696</ele>
|
|
<time>2026-07-12T13:42:50.000Z</time>
|
|
</trkpt>
|
|
<trkpt lat="56.039773" lon="8.104161">
|
|
<ele>28.303671</ele>
|
|
<time>2026-07-12T13:42:51.000Z</time>
|
|
</trkpt>
|
|
<trkpt lat="56.039802" lon="8.104166">
|
|
<ele>28.310227</ele>
|
|
<time>2026-07-12T13:42:52.000Z</time>
|
|
</trkpt>
|
|
<trkpt lat="56.039830" lon="8.104171">
|
|
<ele>28.316559</ele>
|
|
<time>2026-07-12T13:42:53.000Z</time>
|
|
</trkpt>
|
|
<trkpt lat="56.039858" lon="8.104175">
|
|
<ele>28.322880</ele>
|
|
<time>2026-07-12T13:42:54.000Z</time>
|
|
</trkpt>
|
|
<trkpt lat="56.039888" lon="8.104177">
|
|
<ele>28.329636</ele>
|
|
<time>2026-07-12T13:42:55.000Z</time>
|
|
</trkpt>
|
|
<trkpt lat="56.039921" lon="8.104180">
|
|
<ele>28.337071</ele>
|
|
<time>2026-07-12T13:42:56.000Z</time>
|
|
</trkpt>
|
|
<trkpt lat="56.039952" lon="8.104183">
|
|
<ele>28.344057</ele>
|
|
<time>2026-07-12T13:42:57.000Z</time>
|
|
</trkpt>
|
|
<trkpt lat="56.039985" lon="8.104186">
|
|
<ele>28.351493</ele>
|
|
<time>2026-07-12T13:42:58.000Z</time>
|
|
</trkpt>
|
|
<trkpt lat="56.040022" lon="8.104190">
|
|
<ele>28.359834</ele>
|
|
<time>2026-07-12T13:42:59.000Z</time>
|
|
</trkpt>
|
|
<trkpt lat="56.040058" lon="8.104195">
|
|
<ele>28.367959</ele>
|
|
<time>2026-07-12T13:43:00.000Z</time>
|
|
</trkpt>
|
|
<trkpt lat="56.040098" lon="8.104199">
|
|
<ele>28.376974</ele>
|
|
<time>2026-07-12T13:43:01.000Z</time>
|
|
</trkpt>
|
|
<trkpt lat="56.040140" lon="8.104207">
|
|
<ele>28.386479</ele>
|
|
<time>2026-07-12T13:43:02.000Z</time>
|
|
</trkpt>
|
|
<trkpt lat="56.040183" lon="8.104210">
|
|
<ele>28.396162</ele>
|
|
<time>2026-07-12T13:43:03.000Z</time>
|
|
</trkpt>
|
|
<trkpt lat="56.040228" lon="8.104194">
|
|
<ele>28.406486</ele>
|
|
<time>2026-07-12T13:43:04.000Z</time>
|
|
</trkpt>
|
|
<trkpt lat="56.040271" lon="8.104155">
|
|
<ele>28.417333</ele>
|
|
<time>2026-07-12T13:43:05.000Z</time>
|
|
</trkpt>
|
|
<trkpt lat="56.040315" lon="8.104097">
|
|
<ele>28.429629</ele>
|
|
<time>2026-07-12T13:43:06.000Z</time>
|
|
</trkpt>
|
|
<trkpt lat="56.040357" lon="8.104026">
|
|
<ele>28.442628</ele>
|
|
<time>2026-07-12T13:43:07.000Z</time>
|
|
</trkpt>
|
|
<trkpt lat="56.040401" lon="8.103951">
|
|
<ele>28.456300</ele>
|
|
<time>2026-07-12T13:43:08.000Z</time>
|
|
</trkpt>
|
|
<trkpt lat="56.040445" lon="8.103877">
|
|
<ele>28.469885</ele>
|
|
<time>2026-07-12T13:43:09.000Z</time>
|
|
</trkpt>
|
|
<trkpt lat="56.040485" lon="8.103803">
|
|
<ele>28.482829</ele>
|
|
<time>2026-07-12T13:43:10.000Z</time>
|
|
</trkpt>
|
|
<trkpt lat="56.040522" lon="8.103729">
|
|
<ele>28.495313</ele>
|
|
<time>2026-07-12T13:43:11.000Z</time>
|
|
</trkpt>
|
|
<trkpt lat="56.040558" lon="8.103656">
|
|
<ele>28.507553</ele>
|
|
<time>2026-07-12T13:43:12.000Z</time>
|
|
</trkpt>
|
|
<trkpt lat="56.040594" lon="8.103585">
|
|
<ele>28.519606</ele>
|
|
<time>2026-07-12T13:43:13.000Z</time>
|
|
</trkpt>
|
|
<trkpt lat="56.040627" lon="8.103514">
|
|
<ele>28.531217</ele>
|
|
<time>2026-07-12T13:43:14.000Z</time>
|
|
</trkpt>
|
|
<trkpt lat="56.040659" lon="8.103441">
|
|
<ele>28.544472</ele>
|
|
<time>2026-07-12T13:43:15.000Z</time>
|
|
</trkpt>
|
|
<trkpt lat="56.040692" lon="8.103371">
|
|
<ele>28.563007</ele>
|
|
<time>2026-07-12T13:43:16.000Z</time>
|
|
</trkpt>
|
|
<trkpt lat="56.040723" lon="8.103301">
|
|
<ele>28.581084</ele>
|
|
<time>2026-07-12T13:43:17.000Z</time>
|
|
</trkpt>
|
|
<trkpt lat="56.040753" lon="8.103232">
|
|
<ele>28.598778</ele>
|
|
<time>2026-07-12T13:43:18.000Z</time>
|
|
</trkpt>
|
|
<trkpt lat="56.040784" lon="8.103163">
|
|
<ele>28.616696</ele>
|
|
<time>2026-07-12T13:43:19.000Z</time>
|
|
</trkpt>
|
|
<trkpt lat="56.040814" lon="8.103094">
|
|
<ele>28.634390</ele>
|
|
<time>2026-07-12T13:43:20.000Z</time>
|
|
</trkpt>
|
|
<trkpt lat="56.040846" lon="8.103025">
|
|
<ele>28.652538</ele>
|
|
<time>2026-07-12T13:43:21.000Z</time>
|
|
</trkpt>
|
|
<trkpt lat="56.040879" lon="8.102958">
|
|
<ele>28.670614</ele>
|
|
<time>2026-07-12T13:43:22.000Z</time>
|
|
</trkpt>
|
|
<trkpt lat="56.040910" lon="8.102893">
|
|
<ele>28.687909</ele>
|
|
<time>2026-07-12T13:43:23.000Z</time>
|
|
</trkpt>
|
|
<trkpt lat="56.040940" lon="8.102830">
|
|
<ele>28.704661</ele>
|
|
<time>2026-07-12T13:43:24.000Z</time>
|
|
</trkpt>
|
|
<trkpt lat="56.040971" lon="8.102772">
|
|
<ele>28.720905</ele>
|
|
<time>2026-07-12T13:43:25.000Z</time>
|
|
</trkpt>
|
|
<trkpt lat="56.041002" lon="8.102719">
|
|
<ele>28.736434</ele>
|
|
<time>2026-07-12T13:43:26.000Z</time>
|
|
</trkpt>
|
|
<trkpt lat="56.041037" lon="8.102673">
|
|
<ele>28.752163</ele>
|
|
<time>2026-07-12T13:43:27.000Z</time>
|
|
</trkpt>
|
|
<trkpt lat="56.041072" lon="8.102630">
|
|
<ele>28.767541</ele>
|
|
<time>2026-07-12T13:43:28.000Z</time>
|
|
</trkpt>
|
|
<trkpt lat="56.041108" lon="8.102587">
|
|
<ele>28.783218</ele>
|
|
<time>2026-07-12T13:43:29.000Z</time>
|
|
</trkpt>
|
|
<trkpt lat="56.041144" lon="8.102540">
|
|
<ele>28.799359</ele>
|
|
<time>2026-07-12T13:43:30.000Z</time>
|
|
</trkpt>
|
|
<trkpt lat="56.041178" lon="8.102495">
|
|
<ele>28.814677</ele>
|
|
<time>2026-07-12T13:43:31.000Z</time>
|
|
</trkpt>
|
|
<trkpt lat="56.041213" lon="8.102451">
|
|
<ele>28.830170</ele>
|
|
<time>2026-07-12T13:43:32.000Z</time>
|
|
</trkpt>
|
|
<trkpt lat="56.041245" lon="8.102408">
|
|
<ele>28.844665</ele>
|
|
<time>2026-07-12T13:43:33.000Z</time>
|
|
</trkpt>
|
|
<trkpt lat="56.041278" lon="8.102367">
|
|
<ele>28.859216</ele>
|
|
<time>2026-07-12T13:43:34.000Z</time>
|
|
</trkpt>
|
|
<trkpt lat="56.041310" lon="8.102326">
|
|
<ele>28.873471</ele>
|
|
<time>2026-07-12T13:43:35.000Z</time>
|
|
</trkpt>
|
|
<trkpt lat="56.041339" lon="8.102288">
|
|
<ele>28.886490</ele>
|
|
<time>2026-07-12T13:43:36.000Z</time>
|
|
</trkpt>
|
|
<trkpt lat="56.041366" lon="8.102251">
|
|
<ele>28.898808</ele>
|
|
<time>2026-07-12T13:43:37.000Z</time>
|
|
</trkpt>
|
|
<trkpt lat="56.041391" lon="8.102219">
|
|
<ele>28.909941</ele>
|
|
<time>2026-07-12T13:43:38.000Z</time>
|
|
</trkpt>
|
|
<trkpt lat="56.041412" lon="8.102192">
|
|
<ele>28.919308</ele>
|
|
<time>2026-07-12T13:43:39.000Z</time>
|
|
</trkpt>
|
|
<trkpt lat="56.041430" lon="8.102170">
|
|
<ele>28.927203</ele>
|
|
<time>2026-07-12T13:43:40.000Z</time>
|
|
</trkpt>
|
|
<trkpt lat="56.041447" lon="8.102148">
|
|
<ele>28.934802</ele>
|
|
<time>2026-07-12T13:43:41.000Z</time>
|
|
</trkpt>
|
|
<trkpt lat="56.041464" lon="8.102127">
|
|
<ele>28.942284</ele>
|
|
<time>2026-07-12T13:43:42.000Z</time>
|
|
</trkpt>
|
|
<trkpt lat="56.041478" lon="8.102110">
|
|
<ele>28.948413</ele>
|
|
<time>2026-07-12T13:43:43.000Z</time>
|
|
</trkpt>
|
|
<trkpt lat="56.041491" lon="8.102096">
|
|
<ele>28.953908</ele>
|
|
<time>2026-07-12T13:43:44.000Z</time>
|
|
</trkpt>
|
|
<trkpt lat="56.041507" lon="8.102083">
|
|
<ele>28.960274</ele>
|
|
<time>2026-07-12T13:43:45.000Z</time>
|
|
</trkpt>
|
|
<trkpt lat="56.041527" lon="8.102069">
|
|
<ele>28.968053</ele>
|
|
<time>2026-07-12T13:43:46.000Z</time>
|
|
</trkpt>
|
|
<trkpt lat="56.041544" lon="8.102056">
|
|
<ele>28.974750</ele>
|
|
<time>2026-07-12T13:43:47.000Z</time>
|
|
</trkpt>
|
|
<trkpt lat="56.041561" lon="8.102040">
|
|
<ele>28.981707</ele>
|
|
<time>2026-07-12T13:43:48.000Z</time>
|
|
</trkpt>
|
|
<trkpt lat="56.041579" lon="8.102023">
|
|
<ele>28.989080</ele>
|
|
<time>2026-07-12T13:43:49.000Z</time>
|
|
</trkpt>
|
|
<trkpt lat="56.041595" lon="8.102009">
|
|
<ele>28.995531</ele>
|
|
<time>2026-07-12T13:43:50.000Z</time>
|
|
</trkpt>
|
|
<trkpt lat="56.041614" lon="8.101997">
|
|
<ele>29.002830</ele>
|
|
<time>2026-07-12T13:43:51.000Z</time>
|
|
</trkpt>
|
|
<trkpt lat="56.041634" lon="8.101988">
|
|
<ele>29.010300</ele>
|
|
<time>2026-07-12T13:43:52.000Z</time>
|
|
</trkpt>
|
|
<trkpt lat="56.041650" lon="8.101979">
|
|
<ele>29.016376</ele>
|
|
<time>2026-07-12T13:43:53.000Z</time>
|
|
</trkpt>
|
|
<trkpt lat="56.041661" lon="8.101969">
|
|
<ele>29.020845</ele>
|
|
<time>2026-07-12T13:43:54.000Z</time>
|
|
</trkpt>
|
|
<trkpt lat="56.041669" lon="8.101961">
|
|
<ele>29.024165</ele>
|
|
<time>2026-07-12T13:43:55.000Z</time>
|
|
</trkpt>
|
|
<trkpt lat="56.041745" lon="8.101949">
|
|
<ele>29.051803</ele>
|
|
<time>2026-07-12T13:44:09.000Z</time>
|
|
</trkpt>
|
|
<trkpt lat="56.041757" lon="8.101949">
|
|
<ele>29.056151</ele>
|
|
<time>2026-07-12T13:44:10.000Z</time>
|
|
</trkpt>
|
|
<trkpt lat="56.041775" lon="8.101943">
|
|
<ele>29.062783</ele>
|
|
<time>2026-07-12T13:44:11.000Z</time>
|
|
</trkpt>
|
|
<trkpt lat="56.041794" lon="8.101936">
|
|
<ele>29.069810</ele>
|
|
<time>2026-07-12T13:44:12.000Z</time>
|
|
</trkpt>
|
|
<trkpt lat="56.041816" lon="8.101933">
|
|
<ele>29.077803</ele>
|
|
<time>2026-07-12T13:44:13.000Z</time>
|
|
</trkpt>
|
|
<trkpt lat="56.041841" lon="8.101930">
|
|
<ele>29.086880</ele>
|
|
<time>2026-07-12T13:44:14.000Z</time>
|
|
</trkpt>
|
|
<trkpt lat="56.041865" lon="8.101928">
|
|
<ele>29.095584</ele>
|
|
<time>2026-07-12T13:44:15.000Z</time>
|
|
</trkpt>
|
|
<trkpt lat="56.041892" lon="8.101928">
|
|
<ele>29.105365</ele>
|
|
<time>2026-07-12T13:44:16.000Z</time>
|
|
</trkpt>
|
|
<trkpt lat="56.041919" lon="8.101930">
|
|
<ele>29.115154</ele>
|
|
<time>2026-07-12T13:44:17.000Z</time>
|
|
</trkpt>
|
|
<trkpt lat="56.041947" lon="8.101934">
|
|
<ele>29.125330</ele>
|
|
<time>2026-07-12T13:44:18.000Z</time>
|
|
</trkpt>
|
|
<trkpt lat="56.041976" lon="8.101938">
|
|
<ele>29.135866</ele>
|
|
<time>2026-07-12T13:44:19.000Z</time>
|
|
</trkpt>
|
|
<trkpt lat="56.042003" lon="8.101939">
|
|
<ele>29.145649</ele>
|
|
<time>2026-07-12T13:44:20.000Z</time>
|
|
</trkpt>
|
|
<trkpt lat="56.042031" lon="8.101941">
|
|
<ele>29.155801</ele>
|
|
<time>2026-07-12T13:44:21.000Z</time>
|
|
</trkpt>
|
|
<trkpt lat="56.042060" lon="8.101943">
|
|
<ele>29.166314</ele>
|
|
<time>2026-07-12T13:44:22.000Z</time>
|
|
</trkpt>
|
|
<trkpt lat="56.042088" lon="8.101946">
|
|
<ele>29.176476</ele>
|
|
<time>2026-07-12T13:44:23.000Z</time>
|
|
</trkpt>
|
|
<trkpt lat="56.042119" lon="8.101947">
|
|
<ele>29.187707</ele>
|
|
<time>2026-07-12T13:44:24.000Z</time>
|
|
</trkpt>
|
|
<trkpt lat="56.042151" lon="8.101947">
|
|
<ele>29.182654</ele>
|
|
<time>2026-07-12T13:44:25.000Z</time>
|
|
</trkpt>
|
|
<trkpt lat="56.042184" lon="8.101947">
|
|
<ele>29.167904</ele>
|
|
<time>2026-07-12T13:44:26.000Z</time>
|
|
</trkpt>
|
|
<trkpt lat="56.042217" lon="8.101948">
|
|
<ele>29.153152</ele>
|
|
<time>2026-07-12T13:44:27.000Z</time>
|
|
</trkpt>
|
|
<trkpt lat="56.042252" lon="8.101947">
|
|
<ele>29.137507</ele>
|
|
<time>2026-07-12T13:44:28.000Z</time>
|
|
</trkpt>
|
|
<trkpt lat="56.042284" lon="8.101946">
|
|
<ele>29.123202</ele>
|
|
<time>2026-07-12T13:44:29.000Z</time>
|
|
</trkpt>
|
|
<trkpt lat="56.042317" lon="8.101948">
|
|
<ele>29.108444</ele>
|
|
<time>2026-07-12T13:44:30.000Z</time>
|
|
</trkpt>
|
|
<trkpt lat="56.042347" lon="8.101949">
|
|
<ele>29.095033</ele>
|
|
<time>2026-07-12T13:44:31.000Z</time>
|
|
</trkpt>
|
|
<trkpt lat="56.042381" lon="8.101950">
|
|
<ele>29.079834</ele>
|
|
<time>2026-07-12T13:44:32.000Z</time>
|
|
</trkpt>
|
|
<trkpt lat="56.042418" lon="8.101950">
|
|
<ele>29.063297</ele>
|
|
<time>2026-07-12T13:44:33.000Z</time>
|
|
</trkpt>
|
|
<trkpt lat="56.042454" lon="8.101953">
|
|
<ele>29.047189</ele>
|
|
<time>2026-07-12T13:44:34.000Z</time>
|
|
</trkpt>
|
|
<trkpt lat="56.042490" lon="8.101959">
|
|
<ele>29.031029</ele>
|
|
<time>2026-07-12T13:44:35.000Z</time>
|
|
</trkpt>
|
|
<trkpt lat="56.042526" lon="8.101965">
|
|
<ele>29.014869</ele>
|
|
<time>2026-07-12T13:44:36.000Z</time>
|
|
</trkpt>
|
|
<trkpt lat="56.042564" lon="8.101971">
|
|
<ele>28.997818</ele>
|
|
<time>2026-07-12T13:44:37.000Z</time>
|
|
</trkpt>
|
|
<trkpt lat="56.042603" lon="8.101974">
|
|
<ele>28.980371</ele>
|
|
<time>2026-07-12T13:44:38.000Z</time>
|
|
</trkpt>
|
|
<trkpt lat="56.042641" lon="8.101976">
|
|
<ele>28.963379</ele>
|
|
<time>2026-07-12T13:44:39.000Z</time>
|
|
</trkpt>
|
|
<trkpt lat="56.042680" lon="8.101979">
|
|
<ele>28.945932</ele>
|
|
<time>2026-07-12T13:44:40.000Z</time>
|
|
</trkpt>
|
|
<trkpt lat="56.042725" lon="8.101984">
|
|
<ele>28.925780</ele>
|
|
<time>2026-07-12T13:44:41.000Z</time>
|
|
</trkpt>
|
|
<trkpt lat="56.042774" lon="8.101989">
|
|
<ele>28.903843</ele>
|
|
<time>2026-07-12T13:44:42.000Z</time>
|
|
</trkpt>
|
|
<trkpt lat="56.042821" lon="8.101994">
|
|
<ele>28.882799</ele>
|
|
<time>2026-07-12T13:44:43.000Z</time>
|
|
</trkpt>
|
|
<trkpt lat="56.042872" lon="8.101999">
|
|
<ele>28.859970</ele>
|
|
<time>2026-07-12T13:44:44.000Z</time>
|
|
</trkpt>
|
|
<trkpt lat="56.042924" lon="8.102004">
|
|
<ele>28.836695</ele>
|
|
<time>2026-07-12T13:44:45.000Z</time>
|
|
</trkpt>
|
|
<trkpt lat="56.042975" lon="8.102006">
|
|
<ele>28.813894</ele>
|
|
<time>2026-07-12T13:44:46.000Z</time>
|
|
</trkpt>
|
|
<trkpt lat="56.043027" lon="8.102010">
|
|
<ele>28.790631</ele>
|
|
<time>2026-07-12T13:44:47.000Z</time>
|
|
</trkpt>
|
|
<trkpt lat="56.043076" lon="8.102017">
|
|
<ele>28.768661</ele>
|
|
<time>2026-07-12T13:44:48.000Z</time>
|
|
</trkpt>
|
|
<trkpt lat="56.043124" lon="8.102024">
|
|
<ele>28.747136</ele>
|
|
<time>2026-07-12T13:44:49.000Z</time>
|
|
</trkpt>
|
|
<trkpt lat="56.043170" lon="8.102030">
|
|
<ele>28.726521</ele>
|
|
<time>2026-07-12T13:44:50.000Z</time>
|
|
</trkpt>
|
|
<trkpt lat="56.043218" lon="8.102035">
|
|
<ele>28.705031</ele>
|
|
<time>2026-07-12T13:44:51.000Z</time>
|
|
</trkpt>
|
|
<trkpt lat="56.043262" lon="8.102038">
|
|
<ele>28.685350</ele>
|
|
<time>2026-07-12T13:44:52.000Z</time>
|
|
</trkpt>
|
|
<trkpt lat="56.043305" lon="8.102042">
|
|
<ele>28.666105</ele>
|
|
<time>2026-07-12T13:44:53.000Z</time>
|
|
</trkpt>
|
|
<trkpt lat="56.043344" lon="8.102046">
|
|
<ele>28.648645</ele>
|
|
<time>2026-07-12T13:44:54.000Z</time>
|
|
</trkpt>
|
|
<trkpt lat="56.043386" lon="8.102050">
|
|
<ele>28.629846</ele>
|
|
<time>2026-07-12T13:44:55.000Z</time>
|
|
</trkpt>
|
|
<trkpt lat="56.043428" lon="8.102056">
|
|
<ele>28.611014</ele>
|
|
<time>2026-07-12T13:44:56.000Z</time>
|
|
</trkpt>
|
|
<trkpt lat="56.043470" lon="8.102058">
|
|
<ele>28.592236</ele>
|
|
<time>2026-07-12T13:44:57.000Z</time>
|
|
</trkpt>
|
|
<trkpt lat="56.043513" lon="8.102060">
|
|
<ele>28.573010</ele>
|
|
<time>2026-07-12T13:44:58.000Z</time>
|
|
</trkpt>
|
|
<trkpt lat="56.043557" lon="8.102065">
|
|
<ele>28.553304</ele>
|
|
<time>2026-07-12T13:44:59.000Z</time>
|
|
</trkpt>
|
|
<trkpt lat="56.043596" lon="8.102072">
|
|
<ele>28.535785</ele>
|
|
<time>2026-07-12T13:45:00.000Z</time>
|
|
</trkpt>
|
|
<trkpt lat="56.043634" lon="8.102077">
|
|
<ele>28.518755</ele>
|
|
<time>2026-07-12T13:45:01.000Z</time>
|
|
</trkpt>
|
|
<trkpt lat="56.043678" lon="8.102084">
|
|
<ele>28.499011</ele>
|
|
<time>2026-07-12T13:45:02.000Z</time>
|
|
</trkpt>
|
|
<trkpt lat="56.043715" lon="8.102089">
|
|
<ele>28.482427</ele>
|
|
<time>2026-07-12T13:45:03.000Z</time>
|
|
</trkpt>
|
|
<trkpt lat="56.043754" lon="8.102093">
|
|
<ele>28.464967</ele>
|
|
<time>2026-07-12T13:45:04.000Z</time>
|
|
</trkpt>
|
|
<trkpt lat="56.043794" lon="8.102095">
|
|
<ele>28.447082</ele>
|
|
<time>2026-07-12T13:45:05.000Z</time>
|
|
</trkpt>
|
|
<trkpt lat="56.043835" lon="8.102098">
|
|
<ele>28.428741</ele>
|
|
<time>2026-07-12T13:45:06.000Z</time>
|
|
</trkpt>
|
|
<trkpt lat="56.043872" lon="8.102102">
|
|
<ele>28.412174</ele>
|
|
<time>2026-07-12T13:45:07.000Z</time>
|
|
</trkpt>
|
|
<trkpt lat="56.043909" lon="8.102107">
|
|
<ele>28.395589</ele>
|
|
<time>2026-07-12T13:45:08.000Z</time>
|
|
</trkpt>
|
|
<trkpt lat="56.043948" lon="8.102111">
|
|
<ele>28.394468</ele>
|
|
<time>2026-07-12T13:45:09.000Z</time>
|
|
</trkpt>
|
|
<trkpt lat="56.043987" lon="8.102114">
|
|
<ele>28.406110</ele>
|
|
<time>2026-07-12T13:45:10.000Z</time>
|
|
</trkpt>
|
|
<trkpt lat="56.044024" lon="8.102115">
|
|
<ele>28.417146</ele>
|
|
<time>2026-07-12T13:45:11.000Z</time>
|
|
</trkpt>
|
|
<trkpt lat="56.044063" lon="8.102117">
|
|
<ele>28.428782</ele>
|
|
<time>2026-07-12T13:45:12.000Z</time>
|
|
</trkpt>
|
|
<trkpt lat="56.044102" lon="8.102117">
|
|
<ele>28.440414</ele>
|
|
<time>2026-07-12T13:45:13.000Z</time>
|
|
</trkpt>
|
|
<trkpt lat="56.044140" lon="8.102117">
|
|
<ele>28.451747</ele>
|
|
<time>2026-07-12T13:45:14.000Z</time>
|
|
</trkpt>
|
|
<trkpt lat="56.044178" lon="8.102119">
|
|
<ele>28.463085</ele>
|
|
<time>2026-07-12T13:45:15.000Z</time>
|
|
</trkpt>
|
|
<trkpt lat="56.044216" lon="8.102120">
|
|
<ele>28.474419</ele>
|
|
<time>2026-07-12T13:45:16.000Z</time>
|
|
</trkpt>
|
|
<trkpt lat="56.044254" lon="8.102122">
|
|
<ele>28.485757</ele>
|
|
<time>2026-07-12T13:45:17.000Z</time>
|
|
</trkpt>
|
|
<trkpt lat="56.044296" lon="8.102125">
|
|
<ele>28.498292</ele>
|
|
<time>2026-07-12T13:45:18.000Z</time>
|
|
</trkpt>
|
|
<trkpt lat="56.044344" lon="8.102127">
|
|
<ele>28.512612</ele>
|
|
<time>2026-07-12T13:45:19.000Z</time>
|
|
</trkpt>
|
|
<trkpt lat="56.044392" lon="8.102129">
|
|
<ele>28.526931</ele>
|
|
<time>2026-07-12T13:45:20.000Z</time>
|
|
</trkpt>
|
|
<trkpt lat="56.044441" lon="8.102131">
|
|
<ele>28.541548</ele>
|
|
<time>2026-07-12T13:45:21.000Z</time>
|
|
</trkpt>
|
|
<trkpt lat="56.044490" lon="8.102136">
|
|
<ele>28.556186</ele>
|
|
<time>2026-07-12T13:45:22.000Z</time>
|
|
</trkpt>
|
|
<trkpt lat="56.044533" lon="8.102143">
|
|
<ele>28.569063</ele>
|
|
<time>2026-07-12T13:45:23.000Z</time>
|
|
</trkpt>
|
|
<trkpt lat="56.044571" lon="8.102151">
|
|
<ele>28.580474</ele>
|
|
<time>2026-07-12T13:45:24.000Z</time>
|
|
</trkpt>
|
|
<trkpt lat="56.044607" lon="8.102160">
|
|
<ele>28.591314</ele>
|
|
<time>2026-07-12T13:45:25.000Z</time>
|
|
</trkpt>
|
|
<trkpt lat="56.044644" lon="8.102168">
|
|
<ele>28.602429</ele>
|
|
<time>2026-07-12T13:45:26.000Z</time>
|
|
</trkpt>
|
|
<trkpt lat="56.044685" lon="8.102175">
|
|
<ele>28.614713</ele>
|
|
<time>2026-07-12T13:45:27.000Z</time>
|
|
</trkpt>
|
|
<trkpt lat="56.044728" lon="8.102181">
|
|
<ele>28.627576</ele>
|
|
<time>2026-07-12T13:45:28.000Z</time>
|
|
</trkpt>
|
|
<trkpt lat="56.044777" lon="8.102187">
|
|
<ele>28.642223</ele>
|
|
<time>2026-07-12T13:45:29.000Z</time>
|
|
</trkpt>
|
|
<trkpt lat="56.044820" lon="8.102191">
|
|
<ele>28.655065</ele>
|
|
<time>2026-07-12T13:45:30.000Z</time>
|
|
</trkpt>
|
|
<trkpt lat="56.044861" lon="8.102194">
|
|
<ele>28.667303</ele>
|
|
<time>2026-07-12T13:45:31.000Z</time>
|
|
</trkpt>
|
|
<trkpt lat="56.044899" lon="8.102198">
|
|
<ele>28.678655</ele>
|
|
<time>2026-07-12T13:45:32.000Z</time>
|
|
</trkpt>
|
|
<trkpt lat="56.044937" lon="8.102201">
|
|
<ele>28.689999</ele>
|
|
<time>2026-07-12T13:45:33.000Z</time>
|
|
</trkpt>
|
|
<trkpt lat="56.044974" lon="8.102207">
|
|
<ele>28.701079</ele>
|
|
<time>2026-07-12T13:45:34.000Z</time>
|
|
</trkpt>
|
|
<trkpt lat="56.045007" lon="8.102219">
|
|
<ele>28.711122</ele>
|
|
<time>2026-07-12T13:45:35.000Z</time>
|
|
</trkpt>
|
|
<trkpt lat="56.045039" lon="8.102243">
|
|
<ele>28.721469</ele>
|
|
<time>2026-07-12T13:45:36.000Z</time>
|
|
</trkpt>
|
|
<trkpt lat="56.045070" lon="8.102283">
|
|
<ele>28.732865</ele>
|
|
<time>2026-07-12T13:45:37.000Z</time>
|
|
</trkpt>
|
|
<trkpt lat="56.045095" lon="8.102339">
|
|
<ele>28.744807</ele>
|
|
<time>2026-07-12T13:45:38.000Z</time>
|
|
</trkpt>
|
|
<trkpt lat="56.045118" lon="8.102408">
|
|
<ele>28.758192</ele>
|
|
<time>2026-07-12T13:45:39.000Z</time>
|
|
</trkpt>
|
|
<trkpt lat="56.045139" lon="8.102485">
|
|
<ele>28.772466</ele>
|
|
<time>2026-07-12T13:45:40.000Z</time>
|
|
</trkpt>
|
|
<trkpt lat="56.045160" lon="8.102559">
|
|
<ele>28.786292</ele>
|
|
<time>2026-07-12T13:45:41.000Z</time>
|
|
</trkpt>
|
|
<trkpt lat="56.045183" lon="8.102631">
|
|
<ele>28.800109</ele>
|
|
<time>2026-07-12T13:45:42.000Z</time>
|
|
</trkpt>
|
|
<trkpt lat="56.045207" lon="8.102701">
|
|
<ele>28.813791</ele>
|
|
<time>2026-07-12T13:45:43.000Z</time>
|
|
</trkpt>
|
|
<trkpt lat="56.045233" lon="8.102775">
|
|
<ele>28.828354</ele>
|
|
<time>2026-07-12T13:45:44.000Z</time>
|
|
</trkpt>
|
|
<trkpt lat="56.045264" lon="8.102859">
|
|
<ele>28.845125</ele>
|
|
<time>2026-07-12T13:45:45.000Z</time>
|
|
</trkpt>
|
|
<trkpt lat="56.045300" lon="8.102931">
|
|
<ele>28.861222</ele>
|
|
<time>2026-07-12T13:45:46.000Z</time>
|
|
</trkpt>
|
|
<trkpt lat="56.045344" lon="8.102988">
|
|
<ele>28.877419</ele>
|
|
<time>2026-07-12T13:45:47.000Z</time>
|
|
</trkpt>
|
|
<trkpt lat="56.045395" lon="8.103026">
|
|
<ele>28.893894</ele>
|
|
<time>2026-07-12T13:45:48.000Z</time>
|
|
</trkpt>
|
|
<trkpt lat="56.045445" lon="8.103043">
|
|
<ele>28.909072</ele>
|
|
<time>2026-07-12T13:45:49.000Z</time>
|
|
</trkpt>
|
|
<trkpt lat="56.045496" lon="8.103054">
|
|
<ele>28.924294</ele>
|
|
<time>2026-07-12T13:45:50.000Z</time>
|
|
</trkpt>
|
|
<trkpt lat="56.045547" lon="8.103068">
|
|
<ele>28.903561</ele>
|
|
<time>2026-07-12T13:45:51.000Z</time>
|
|
</trkpt>
|
|
<trkpt lat="56.045592" lon="8.103086">
|
|
<ele>28.885032</ele>
|
|
<time>2026-07-12T13:45:52.000Z</time>
|
|
</trkpt>
|
|
<trkpt lat="56.045637" lon="8.103106">
|
|
<ele>28.866401</ele>
|
|
<time>2026-07-12T13:45:53.000Z</time>
|
|
</trkpt>
|
|
<trkpt lat="56.045677" lon="8.103124">
|
|
<ele>28.849827</ele>
|
|
<time>2026-07-12T13:45:54.000Z</time>
|
|
</trkpt>
|
|
<trkpt lat="56.045714" lon="8.103141">
|
|
<ele>28.834477</ele>
|
|
<time>2026-07-12T13:45:55.000Z</time>
|
|
</trkpt>
|
|
<trkpt lat="56.045753" lon="8.103158">
|
|
<ele>28.818348</ele>
|
|
<time>2026-07-12T13:45:56.000Z</time>
|
|
</trkpt>
|
|
<trkpt lat="56.045793" lon="8.103179">
|
|
<ele>28.801597</ele>
|
|
<time>2026-07-12T13:45:57.000Z</time>
|
|
</trkpt>
|
|
<trkpt lat="56.045835" lon="8.103199">
|
|
<ele>28.784133</ele>
|
|
<time>2026-07-12T13:45:58.000Z</time>
|
|
</trkpt>
|
|
<trkpt lat="56.045878" lon="8.103213">
|
|
<ele>28.766571</ele>
|
|
<time>2026-07-12T13:45:59.000Z</time>
|
|
</trkpt>
|
|
<trkpt lat="56.045923" lon="8.103214">
|
|
<ele>28.748487</ele>
|
|
<time>2026-07-12T13:46:00.000Z</time>
|
|
</trkpt>
|
|
<trkpt lat="56.045965" lon="8.103203">
|
|
<ele>28.731430</ele>
|
|
<time>2026-07-12T13:46:01.000Z</time>
|
|
</trkpt>
|
|
<trkpt lat="56.046008" lon="8.103192">
|
|
<ele>28.713975</ele>
|
|
<time>2026-07-12T13:46:02.000Z</time>
|
|
</trkpt>
|
|
<trkpt lat="56.046054" lon="8.103185">
|
|
<ele>28.695424</ele>
|
|
<time>2026-07-12T13:46:03.000Z</time>
|
|
</trkpt>
|
|
<trkpt lat="56.046099" lon="8.103184">
|
|
<ele>28.677340</ele>
|
|
<time>2026-07-12T13:46:04.000Z</time>
|
|
</trkpt>
|
|
<trkpt lat="56.046145" lon="8.103186">
|
|
<ele>28.658850</ele>
|
|
<time>2026-07-12T13:46:05.000Z</time>
|
|
</trkpt>
|
|
<trkpt lat="56.046192" lon="8.103189">
|
|
<ele>28.639951</ele>
|
|
<time>2026-07-12T13:46:06.000Z</time>
|
|
</trkpt>
|
|
<trkpt lat="56.046241" lon="8.103191">
|
|
<ele>28.620256</ele>
|
|
<time>2026-07-12T13:46:07.000Z</time>
|
|
</trkpt>
|
|
<trkpt lat="56.046285" lon="8.103194">
|
|
<ele>28.602562</ele>
|
|
<time>2026-07-12T13:46:08.000Z</time>
|
|
</trkpt>
|
|
<trkpt lat="56.046329" lon="8.103201">
|
|
<ele>28.584812</ele>
|
|
<time>2026-07-12T13:46:09.000Z</time>
|
|
</trkpt>
|
|
<trkpt lat="56.046373" lon="8.103211">
|
|
<ele>28.566989</ele>
|
|
<time>2026-07-12T13:46:10.000Z</time>
|
|
</trkpt>
|
|
<trkpt lat="56.046415" lon="8.103222">
|
|
<ele>28.549932</ele>
|
|
<time>2026-07-12T13:46:11.000Z</time>
|
|
</trkpt>
|
|
<trkpt lat="56.046456" lon="8.103234">
|
|
<ele>28.533238</ele>
|
|
<time>2026-07-12T13:46:12.000Z</time>
|
|
</trkpt>
|
|
<trkpt lat="56.046499" lon="8.103248">
|
|
<ele>28.515675</ele>
|
|
<time>2026-07-12T13:46:13.000Z</time>
|
|
</trkpt>
|
|
<trkpt lat="56.046542" lon="8.103261">
|
|
<ele>28.498152</ele>
|
|
<time>2026-07-12T13:46:14.000Z</time>
|
|
</trkpt>
|
|
<trkpt lat="56.046586" lon="8.103272">
|
|
<ele>28.480299</ele>
|
|
<time>2026-07-12T13:46:15.000Z</time>
|
|
</trkpt>
|
|
<trkpt lat="56.046630" lon="8.103278">
|
|
<ele>28.462567</ele>
|
|
<time>2026-07-12T13:46:16.000Z</time>
|
|
</trkpt>
|
|
<trkpt lat="56.046674" lon="8.103283">
|
|
<ele>28.444851</ele>
|
|
<time>2026-07-12T13:46:17.000Z</time>
|
|
</trkpt>
|
|
<trkpt lat="56.046716" lon="8.103286">
|
|
<ele>28.427960</ele>
|
|
<time>2026-07-12T13:46:18.000Z</time>
|
|
</trkpt>
|
|
<trkpt lat="56.046757" lon="8.103287">
|
|
<ele>28.411483</ele>
|
|
<time>2026-07-12T13:46:19.000Z</time>
|
|
</trkpt>
|
|
<trkpt lat="56.046798" lon="8.103286">
|
|
<ele>28.395006</ele>
|
|
<time>2026-07-12T13:46:20.000Z</time>
|
|
</trkpt>
|
|
<trkpt lat="56.046838" lon="8.103286">
|
|
<ele>28.378932</ele>
|
|
<time>2026-07-12T13:46:21.000Z</time>
|
|
</trkpt>
|
|
<trkpt lat="56.046880" lon="8.103289">
|
|
<ele>28.362042</ele>
|
|
<time>2026-07-12T13:46:22.000Z</time>
|
|
</trkpt>
|
|
<trkpt lat="56.046922" lon="8.103297">
|
|
<ele>28.345069</ele>
|
|
<time>2026-07-12T13:46:23.000Z</time>
|
|
</trkpt>
|
|
<trkpt lat="56.046963" lon="8.103307">
|
|
<ele>28.328442</ele>
|
|
<time>2026-07-12T13:46:24.000Z</time>
|
|
</trkpt>
|
|
<trkpt lat="56.047002" lon="8.103318">
|
|
<ele>28.312577</ele>
|
|
<time>2026-07-12T13:46:25.000Z</time>
|
|
</trkpt>
|
|
<trkpt lat="56.047043" lon="8.103329">
|
|
<ele>28.295917</ele>
|
|
<time>2026-07-12T13:46:26.000Z</time>
|
|
</trkpt>
|
|
<trkpt lat="56.047082" lon="8.103339">
|
|
<ele>28.280086</ele>
|
|
<time>2026-07-12T13:46:27.000Z</time>
|
|
</trkpt>
|
|
<trkpt lat="56.047122" lon="8.103350">
|
|
<ele>28.263824</ele>
|
|
<time>2026-07-12T13:46:28.000Z</time>
|
|
</trkpt>
|
|
<trkpt lat="56.047160" lon="8.103366">
|
|
<ele>28.248137</ele>
|
|
<time>2026-07-12T13:46:29.000Z</time>
|
|
</trkpt>
|
|
<trkpt lat="56.047198" lon="8.103398">
|
|
<ele>28.231263</ele>
|
|
<time>2026-07-12T13:46:30.000Z</time>
|
|
</trkpt>
|
|
<trkpt lat="56.047228" lon="8.103443">
|
|
<ele>28.215536</ele>
|
|
<time>2026-07-12T13:46:31.000Z</time>
|
|
</trkpt>
|
|
<trkpt lat="56.047253" lon="8.103501">
|
|
<ele>28.203381</ele>
|
|
<time>2026-07-12T13:46:32.000Z</time>
|
|
</trkpt>
|
|
<trkpt lat="56.047275" lon="8.103566">
|
|
<ele>28.215687</ele>
|
|
<time>2026-07-12T13:46:33.000Z</time>
|
|
</trkpt>
|
|
<trkpt lat="56.047297" lon="8.103629">
|
|
<ele>28.227718</ele>
|
|
<time>2026-07-12T13:46:34.000Z</time>
|
|
</trkpt>
|
|
<trkpt lat="56.047322" lon="8.103690">
|
|
<ele>28.239968</ele>
|
|
<time>2026-07-12T13:46:35.000Z</time>
|
|
</trkpt>
|
|
<trkpt lat="56.047347" lon="8.103751">
|
|
<ele>28.252219</ele>
|
|
<time>2026-07-12T13:46:36.000Z</time>
|
|
</trkpt>
|
|
<trkpt lat="56.047374" lon="8.103807">
|
|
<ele>28.264198</ele>
|
|
<time>2026-07-12T13:46:37.000Z</time>
|
|
</trkpt>
|
|
<trkpt lat="56.047397" lon="8.103863">
|
|
<ele>28.275453</ele>
|
|
<time>2026-07-12T13:46:38.000Z</time>
|
|
</trkpt>
|
|
<trkpt lat="56.047416" lon="8.103919">
|
|
<ele>28.286062</ele>
|
|
<time>2026-07-12T13:46:39.000Z</time>
|
|
</trkpt>
|
|
<trkpt lat="56.047434" lon="8.103982">
|
|
<ele>28.297520</ele>
|
|
<time>2026-07-12T13:46:40.000Z</time>
|
|
</trkpt>
|
|
<trkpt lat="56.047448" lon="8.104051">
|
|
<ele>28.309406</ele>
|
|
<time>2026-07-12T13:46:41.000Z</time>
|
|
</trkpt>
|
|
<trkpt lat="56.047462" lon="8.104123">
|
|
<ele>28.321750</ele>
|
|
<time>2026-07-12T13:46:42.000Z</time>
|
|
</trkpt>
|
|
<trkpt lat="56.047483" lon="8.104194">
|
|
<ele>28.334758</ele>
|
|
<time>2026-07-12T13:46:43.000Z</time>
|
|
</trkpt>
|
|
<trkpt lat="56.047506" lon="8.104262">
|
|
<ele>28.347630</ele>
|
|
<time>2026-07-12T13:46:44.000Z</time>
|
|
</trkpt>
|
|
<trkpt lat="56.047530" lon="8.104326">
|
|
<ele>28.360112</ele>
|
|
<time>2026-07-12T13:46:45.000Z</time>
|
|
</trkpt>
|
|
<trkpt lat="56.047555" lon="8.104392">
|
|
<ele>28.373024</ele>
|
|
<time>2026-07-12T13:46:46.000Z</time>
|
|
</trkpt>
|
|
<trkpt lat="56.047580" lon="8.104458">
|
|
<ele>28.385936</ele>
|
|
<time>2026-07-12T13:46:47.000Z</time>
|
|
</trkpt>
|
|
<trkpt lat="56.047605" lon="8.104526">
|
|
<ele>28.399118</ele>
|
|
<time>2026-07-12T13:46:48.000Z</time>
|
|
</trkpt>
|
|
<trkpt lat="56.047628" lon="8.104598">
|
|
<ele>28.412548</ele>
|
|
<time>2026-07-12T13:46:49.000Z</time>
|
|
</trkpt>
|
|
<trkpt lat="56.047651" lon="8.104673">
|
|
<ele>28.426401</ele>
|
|
<time>2026-07-12T13:46:50.000Z</time>
|
|
</trkpt>
|
|
<trkpt lat="56.047672" lon="8.104750">
|
|
<ele>28.440276</ele>
|
|
<time>2026-07-12T13:46:51.000Z</time>
|
|
</trkpt>
|
|
<trkpt lat="56.047690" lon="8.104830">
|
|
<ele>28.454240</ele>
|
|
<time>2026-07-12T13:46:52.000Z</time>
|
|
</trkpt>
|
|
<trkpt lat="56.047704" lon="8.104913">
|
|
<ele>28.468278</ele>
|
|
<time>2026-07-12T13:46:53.000Z</time>
|
|
</trkpt>
|
|
<trkpt lat="56.047715" lon="8.104993">
|
|
<ele>28.481618</ele>
|
|
<time>2026-07-12T13:46:54.000Z</time>
|
|
</trkpt>
|
|
<trkpt lat="56.047728" lon="8.105075">
|
|
<ele>28.495420</ele>
|
|
<time>2026-07-12T13:46:55.000Z</time>
|
|
</trkpt>
|
|
<trkpt lat="56.047742" lon="8.105156">
|
|
<ele>28.509148</ele>
|
|
<time>2026-07-12T13:46:56.000Z</time>
|
|
</trkpt>
|
|
<trkpt lat="56.047755" lon="8.105234">
|
|
<ele>28.522328</ele>
|
|
<time>2026-07-12T13:46:57.000Z</time>
|
|
</trkpt>
|
|
<trkpt lat="56.047771" lon="8.105309">
|
|
<ele>28.535327</ele>
|
|
<time>2026-07-12T13:46:58.000Z</time>
|
|
</trkpt>
|
|
<trkpt lat="56.047789" lon="8.105381">
|
|
<ele>28.548099</ele>
|
|
<time>2026-07-12T13:46:59.000Z</time>
|
|
</trkpt>
|
|
<trkpt lat="56.047807" lon="8.105449">
|
|
<ele>28.560283</ele>
|
|
<time>2026-07-12T13:47:00.000Z</time>
|
|
</trkpt>
|
|
<trkpt lat="56.047828" lon="8.105514">
|
|
<ele>28.572442</ele>
|
|
<time>2026-07-12T13:47:01.000Z</time>
|
|
</trkpt>
|
|
<trkpt lat="56.047849" lon="8.105580">
|
|
<ele>28.584740</ele>
|
|
<time>2026-07-12T13:47:02.000Z</time>
|
|
</trkpt>
|
|
<trkpt lat="56.047873" lon="8.105646">
|
|
<ele>28.597492</ele>
|
|
<time>2026-07-12T13:47:03.000Z</time>
|
|
</trkpt>
|
|
<trkpt lat="56.047900" lon="8.105716">
|
|
<ele>28.611266</ele>
|
|
<time>2026-07-12T13:47:04.000Z</time>
|
|
</trkpt>
|
|
<trkpt lat="56.047930" lon="8.105786">
|
|
<ele>28.625552</ele>
|
|
<time>2026-07-12T13:47:05.000Z</time>
|
|
</trkpt>
|
|
<trkpt lat="56.047963" lon="8.105854">
|
|
<ele>28.640138</ele>
|
|
<time>2026-07-12T13:47:06.000Z</time>
|
|
</trkpt>
|
|
<trkpt lat="56.047994" lon="8.105916">
|
|
<ele>28.653612</ele>
|
|
<time>2026-07-12T13:47:07.000Z</time>
|
|
</trkpt>
|
|
<trkpt lat="56.048026" lon="8.105970">
|
|
<ele>28.666359</ele>
|
|
<time>2026-07-12T13:47:08.000Z</time>
|
|
</trkpt>
|
|
<trkpt lat="56.048062" lon="8.106014">
|
|
<ele>28.678996</ele>
|
|
<time>2026-07-12T13:47:09.000Z</time>
|
|
</trkpt>
|
|
<trkpt lat="56.048103" lon="8.106050">
|
|
<ele>28.692234</ele>
|
|
<time>2026-07-12T13:47:10.000Z</time>
|
|
</trkpt>
|
|
<trkpt lat="56.048148" lon="8.106081">
|
|
<ele>28.706212</ele>
|
|
<time>2026-07-12T13:47:11.000Z</time>
|
|
</trkpt>
|
|
<trkpt lat="56.048194" lon="8.106113">
|
|
<ele>28.720519</ele>
|
|
<time>2026-07-12T13:47:12.000Z</time>
|
|
</trkpt>
|
|
<trkpt lat="56.048241" lon="8.106146">
|
|
<ele>28.705374</ele>
|
|
<time>2026-07-12T13:47:13.000Z</time>
|
|
</trkpt>
|
|
<trkpt lat="56.048290" lon="8.106176">
|
|
<ele>28.683541</ele>
|
|
<time>2026-07-12T13:47:14.000Z</time>
|
|
</trkpt>
|
|
<trkpt lat="56.048336" lon="8.106198">
|
|
<ele>28.663468</ele>
|
|
<time>2026-07-12T13:47:15.000Z</time>
|
|
</trkpt>
|
|
<trkpt lat="56.048385" lon="8.106208">
|
|
<ele>28.642676</ele>
|
|
<time>2026-07-12T13:47:16.000Z</time>
|
|
</trkpt>
|
|
<trkpt lat="56.048434" lon="8.106206">
|
|
<ele>28.622013</ele>
|
|
<time>2026-07-12T13:47:17.000Z</time>
|
|
</trkpt>
|
|
<trkpt lat="56.048480" lon="8.106200">
|
|
<ele>28.602568</ele>
|
|
<time>2026-07-12T13:47:18.000Z</time>
|
|
</trkpt>
|
|
<trkpt lat="56.048526" lon="8.106196">
|
|
<ele>28.583152</ele>
|
|
<time>2026-07-12T13:47:19.000Z</time>
|
|
</trkpt>
|
|
<trkpt lat="56.048571" lon="8.106196">
|
|
<ele>28.564180</ele>
|
|
<time>2026-07-12T13:47:20.000Z</time>
|
|
</trkpt>
|
|
<trkpt lat="56.048617" lon="8.106198">
|
|
<ele>28.544781</ele>
|
|
<time>2026-07-12T13:47:21.000Z</time>
|
|
</trkpt>
|
|
<trkpt lat="56.048666" lon="8.106200">
|
|
<ele>28.524118</ele>
|
|
<time>2026-07-12T13:47:22.000Z</time>
|
|
</trkpt>
|
|
<trkpt lat="56.048718" lon="8.106201">
|
|
<ele>28.502193</ele>
|
|
<time>2026-07-12T13:47:23.000Z</time>
|
|
</trkpt>
|
|
<trkpt lat="56.048769" lon="8.106205">
|
|
<ele>28.480672</ele>
|
|
<time>2026-07-12T13:47:24.000Z</time>
|
|
</trkpt>
|
|
<trkpt lat="56.048821" lon="8.106209">
|
|
<ele>28.458729</ele>
|
|
<time>2026-07-12T13:47:25.000Z</time>
|
|
</trkpt>
|
|
<trkpt lat="56.048869" lon="8.106215">
|
|
<ele>28.438443</ele>
|
|
<time>2026-07-12T13:47:26.000Z</time>
|
|
</trkpt>
|
|
<trkpt lat="56.048915" lon="8.106226">
|
|
<ele>28.418877</ele>
|
|
<time>2026-07-12T13:47:27.000Z</time>
|
|
</trkpt>
|
|
<trkpt lat="56.048959" lon="8.106239">
|
|
<ele>28.400076</ele>
|
|
<time>2026-07-12T13:47:28.000Z</time>
|
|
</trkpt>
|
|
<trkpt lat="56.049003" lon="8.106255">
|
|
<ele>28.381148</ele>
|
|
<time>2026-07-12T13:47:29.000Z</time>
|
|
</trkpt>
|
|
<trkpt lat="56.049049" lon="8.106272">
|
|
<ele>28.361345</ele>
|
|
<time>2026-07-12T13:47:30.000Z</time>
|
|
</trkpt>
|
|
<trkpt lat="56.049100" lon="8.106286">
|
|
<ele>28.339593</ele>
|
|
<time>2026-07-12T13:47:31.000Z</time>
|
|
</trkpt>
|
|
<trkpt lat="56.049147" lon="8.106298">
|
|
<ele>28.319578</ele>
|
|
<time>2026-07-12T13:47:32.000Z</time>
|
|
</trkpt>
|
|
<trkpt lat="56.049192" lon="8.106309">
|
|
<ele>28.300430</ele>
|
|
<time>2026-07-12T13:47:33.000Z</time>
|
|
</trkpt>
|
|
<trkpt lat="56.049237" lon="8.106322">
|
|
<ele>28.281213</ele>
|
|
<time>2026-07-12T13:47:34.000Z</time>
|
|
</trkpt>
|
|
<trkpt lat="56.049277" lon="8.106335">
|
|
<ele>28.264074</ele>
|
|
<time>2026-07-12T13:47:35.000Z</time>
|
|
</trkpt>
|
|
<trkpt lat="56.049316" lon="8.106347">
|
|
<ele>28.247391</ele>
|
|
<time>2026-07-12T13:47:36.000Z</time>
|
|
</trkpt>
|
|
<trkpt lat="56.049359" lon="8.106358">
|
|
<ele>28.229078</ele>
|
|
<time>2026-07-12T13:47:37.000Z</time>
|
|
</trkpt>
|
|
<trkpt lat="56.049403" lon="8.106365">
|
|
<ele>28.210455</ele>
|
|
<time>2026-07-12T13:47:38.000Z</time>
|
|
</trkpt>
|
|
<trkpt lat="56.049449" lon="8.106367">
|
|
<ele>28.191056</ele>
|
|
<time>2026-07-12T13:47:39.000Z</time>
|
|
</trkpt>
|
|
<trkpt lat="56.049495" lon="8.106370">
|
|
<ele>28.171650</ele>
|
|
<time>2026-07-12T13:47:40.000Z</time>
|
|
</trkpt>
|
|
<trkpt lat="56.049540" lon="8.106373">
|
|
<ele>28.152665</ele>
|
|
<time>2026-07-12T13:47:41.000Z</time>
|
|
</trkpt>
|
|
<trkpt lat="56.049584" lon="8.106375">
|
|
<ele>28.134109</ele>
|
|
<time>2026-07-12T13:47:42.000Z</time>
|
|
</trkpt>
|
|
<trkpt lat="56.049626" lon="8.106376">
|
|
<ele>28.116400</ele>
|
|
<time>2026-07-12T13:47:43.000Z</time>
|
|
</trkpt>
|
|
<trkpt lat="56.049666" lon="8.106374">
|
|
<ele>28.099530</ele>
|
|
<time>2026-07-12T13:47:44.000Z</time>
|
|
</trkpt>
|
|
<trkpt lat="56.049704" lon="8.106374">
|
|
<ele>28.083509</ele>
|
|
<time>2026-07-12T13:47:45.000Z</time>
|
|
</trkpt>
|
|
<trkpt lat="56.049742" lon="8.106376">
|
|
<ele>28.067482</ele>
|
|
<time>2026-07-12T13:47:46.000Z</time>
|
|
</trkpt>
|
|
<trkpt lat="56.049780" lon="8.106382">
|
|
<ele>28.051399</ele>
|
|
<time>2026-07-12T13:47:47.000Z</time>
|
|
</trkpt>
|
|
<trkpt lat="56.049817" lon="8.106391">
|
|
<ele>28.035657</ele>
|
|
<time>2026-07-12T13:47:48.000Z</time>
|
|
</trkpt>
|
|
<trkpt lat="56.049848" lon="8.106405">
|
|
<ele>28.022178</ele>
|
|
<time>2026-07-12T13:47:49.000Z</time>
|
|
</trkpt>
|
|
<trkpt lat="56.049876" lon="8.106425">
|
|
<ele>28.009469</ele>
|
|
<time>2026-07-12T13:47:50.000Z</time>
|
|
</trkpt>
|
|
<trkpt lat="56.049902" lon="8.106448">
|
|
<ele>27.997243</ele>
|
|
<time>2026-07-12T13:47:51.000Z</time>
|
|
</trkpt>
|
|
<trkpt lat="56.049930" lon="8.106471">
|
|
<ele>27.984255</ele>
|
|
<time>2026-07-12T13:47:52.000Z</time>
|
|
</trkpt>
|
|
<trkpt lat="56.049961" lon="8.106492">
|
|
<ele>27.970282</ele>
|
|
<time>2026-07-12T13:47:53.000Z</time>
|
|
</trkpt>
|
|
<trkpt lat="56.049997" lon="8.106514">
|
|
<ele>27.953702</ele>
|
|
<time>2026-07-12T13:47:54.000Z</time>
|
|
</trkpt>
|
|
<trkpt lat="56.050037" lon="8.106535">
|
|
<ele>27.935216</ele>
|
|
<time>2026-07-12T13:47:55.000Z</time>
|
|
</trkpt>
|
|
<trkpt lat="56.050076" lon="8.106554">
|
|
<ele>27.917293</ele>
|
|
<time>2026-07-12T13:47:56.000Z</time>
|
|
</trkpt>
|
|
<trkpt lat="56.050116" lon="8.106572">
|
|
<ele>27.899003</ele>
|
|
<time>2026-07-12T13:47:57.000Z</time>
|
|
</trkpt>
|
|
<trkpt lat="56.050155" lon="8.106592">
|
|
<ele>27.881013</ele>
|
|
<time>2026-07-12T13:47:58.000Z</time>
|
|
</trkpt>
|
|
<trkpt lat="56.050196" lon="8.106614">
|
|
<ele>27.862032</ele>
|
|
<time>2026-07-12T13:47:59.000Z</time>
|
|
</trkpt>
|
|
<trkpt lat="56.050238" lon="8.106634">
|
|
<ele>27.842759</ele>
|
|
<time>2026-07-12T13:48:00.000Z</time>
|
|
</trkpt>
|
|
<trkpt lat="56.050279" lon="8.106652">
|
|
<ele>27.824039</ele>
|
|
<time>2026-07-12T13:48:01.000Z</time>
|
|
</trkpt>
|
|
<trkpt lat="56.050323" lon="8.106672">
|
|
<ele>27.803908</ele>
|
|
<time>2026-07-12T13:48:02.000Z</time>
|
|
</trkpt>
|
|
<trkpt lat="56.050363" lon="8.106689">
|
|
<ele>27.785677</ele>
|
|
<time>2026-07-12T13:48:03.000Z</time>
|
|
</trkpt>
|
|
<trkpt lat="56.050403" lon="8.106707">
|
|
<ele>27.767387</ele>
|
|
<time>2026-07-12T13:48:04.000Z</time>
|
|
</trkpt>
|
|
<trkpt lat="56.050445" lon="8.106726">
|
|
<ele>27.748176</ele>
|
|
<time>2026-07-12T13:48:05.000Z</time>
|
|
</trkpt>
|
|
<trkpt lat="56.050489" lon="8.106748">
|
|
<ele>27.727918</ele>
|
|
<time>2026-07-12T13:48:06.000Z</time>
|
|
</trkpt>
|
|
<trkpt lat="56.050534" lon="8.106772">
|
|
<ele>27.707096</ele>
|
|
<time>2026-07-12T13:48:07.000Z</time>
|
|
</trkpt>
|
|
<trkpt lat="56.050578" lon="8.106796">
|
|
<ele>27.686698</ele>
|
|
<time>2026-07-12T13:48:08.000Z</time>
|
|
</trkpt>
|
|
<trkpt lat="56.050625" lon="8.106818">
|
|
<ele>27.665155</ele>
|
|
<time>2026-07-12T13:48:09.000Z</time>
|
|
</trkpt>
|
|
<trkpt lat="56.050674" lon="8.106837">
|
|
<ele>27.642922</ele>
|
|
<time>2026-07-12T13:48:10.000Z</time>
|
|
</trkpt>
|
|
<trkpt lat="56.050722" lon="8.106849">
|
|
<ele>27.621430</ele>
|
|
<time>2026-07-12T13:48:11.000Z</time>
|
|
</trkpt>
|
|
<trkpt lat="56.050770" lon="8.106852">
|
|
<ele>27.600131</ele>
|
|
<time>2026-07-12T13:48:12.000Z</time>
|
|
</trkpt>
|
|
<trkpt lat="56.050819" lon="8.106847">
|
|
<ele>27.578366</ele>
|
|
<time>2026-07-12T13:48:13.000Z</time>
|
|
</trkpt>
|
|
<trkpt lat="56.050869" lon="8.106837">
|
|
<ele>27.556055</ele>
|
|
<time>2026-07-12T13:48:14.000Z</time>
|
|
</trkpt>
|
|
<trkpt lat="56.050917" lon="8.106825">
|
|
<ele>27.534563</ele>
|
|
<time>2026-07-12T13:48:15.000Z</time>
|
|
</trkpt>
|
|
<trkpt lat="56.050965" lon="8.106809">
|
|
<ele>27.512911</ele>
|
|
<time>2026-07-12T13:48:16.000Z</time>
|
|
</trkpt>
|
|
<trkpt lat="56.051012" lon="8.106792">
|
|
<ele>27.491647</ele>
|
|
<time>2026-07-12T13:48:17.000Z</time>
|
|
</trkpt>
|
|
<trkpt lat="56.051059" lon="8.106776">
|
|
<ele>27.470431</ele>
|
|
<time>2026-07-12T13:48:18.000Z</time>
|
|
</trkpt>
|
|
<trkpt lat="56.051108" lon="8.106758">
|
|
<ele>27.448249</ele>
|
|
<time>2026-07-12T13:48:19.000Z</time>
|
|
</trkpt>
|
|
<trkpt lat="56.051154" lon="8.106742">
|
|
<ele>27.427469</ele>
|
|
<time>2026-07-12T13:48:20.000Z</time>
|
|
</trkpt>
|
|
<trkpt lat="56.051198" lon="8.106725">
|
|
<ele>27.407508</ele>
|
|
<time>2026-07-12T13:48:21.000Z</time>
|
|
</trkpt>
|
|
<trkpt lat="56.051241" lon="8.106708">
|
|
<ele>27.387980</ele>
|
|
<time>2026-07-12T13:48:22.000Z</time>
|
|
</trkpt>
|
|
<trkpt lat="56.051286" lon="8.106691">
|
|
<ele>27.367585</ele>
|
|
<time>2026-07-12T13:48:23.000Z</time>
|
|
</trkpt>
|
|
<trkpt lat="56.051332" lon="8.106674">
|
|
<ele>27.346756</ele>
|
|
<time>2026-07-12T13:48:24.000Z</time>
|
|
</trkpt>
|
|
<trkpt lat="56.051378" lon="8.106658">
|
|
<ele>27.325975</ele>
|
|
<time>2026-07-12T13:48:25.000Z</time>
|
|
</trkpt>
|
|
<trkpt lat="56.051426" lon="8.106642">
|
|
<ele>27.304324</ele>
|
|
<time>2026-07-12T13:48:26.000Z</time>
|
|
</trkpt>
|
|
<trkpt lat="56.051473" lon="8.106625">
|
|
<ele>27.283060</ele>
|
|
<time>2026-07-12T13:48:27.000Z</time>
|
|
</trkpt>
|
|
<trkpt lat="56.051517" lon="8.106609">
|
|
<ele>27.263150</ele>
|
|
<time>2026-07-12T13:48:28.000Z</time>
|
|
</trkpt>
|
|
<trkpt lat="56.051564" lon="8.106593">
|
|
<ele>27.241934</ele>
|
|
<time>2026-07-12T13:48:29.000Z</time>
|
|
</trkpt>
|
|
<trkpt lat="56.051611" lon="8.106580">
|
|
<ele>27.220844</ele>
|
|
<time>2026-07-12T13:48:30.000Z</time>
|
|
</trkpt>
|
|
<trkpt lat="56.051657" lon="8.106569">
|
|
<ele>27.200264</ele>
|
|
<time>2026-07-12T13:48:31.000Z</time>
|
|
</trkpt>
|
|
<trkpt lat="56.051703" lon="8.106559">
|
|
<ele>27.179715</ele>
|
|
<time>2026-07-12T13:48:32.000Z</time>
|
|
</trkpt>
|
|
<trkpt lat="56.051749" lon="8.106550">
|
|
<ele>27.178282</ele>
|
|
<time>2026-07-12T13:48:33.000Z</time>
|
|
</trkpt>
|
|
<trkpt lat="56.051795" lon="8.106543">
|
|
<ele>27.207250</ele>
|
|
<time>2026-07-12T13:48:34.000Z</time>
|
|
</trkpt>
|
|
<trkpt lat="56.051839" lon="8.106537">
|
|
<ele>27.234938</ele>
|
|
<time>2026-07-12T13:48:35.000Z</time>
|
|
</trkpt>
|
|
<trkpt lat="56.051881" lon="8.106530">
|
|
<ele>27.261406</ele>
|
|
<time>2026-07-12T13:48:36.000Z</time>
|
|
</trkpt>
|
|
<trkpt lat="56.051922" lon="8.106523">
|
|
<ele>27.287249</ele>
|
|
<time>2026-07-12T13:48:37.000Z</time>
|
|
</trkpt>
|
|
<trkpt lat="56.051960" lon="8.106510">
|
|
<ele>27.311524</ele>
|
|
<time>2026-07-12T13:48:38.000Z</time>
|
|
</trkpt>
|
|
<trkpt lat="56.052000" lon="8.106489">
|
|
<ele>27.337679</ele>
|
|
<time>2026-07-12T13:48:39.000Z</time>
|
|
</trkpt>
|
|
<trkpt lat="56.052034" lon="8.106453">
|
|
<ele>27.362463</ele>
|
|
<time>2026-07-12T13:48:40.000Z</time>
|
|
</trkpt>
|
|
<trkpt lat="56.052060" lon="8.106402">
|
|
<ele>27.386661</ele>
|
|
<time>2026-07-12T13:48:41.000Z</time>
|
|
</trkpt>
|
|
<trkpt lat="56.052086" lon="8.106333">
|
|
<ele>27.415828</ele>
|
|
<time>2026-07-12T13:48:42.000Z</time>
|
|
</trkpt>
|
|
<trkpt lat="56.052103" lon="8.106262">
|
|
<ele>27.442897</ele>
|
|
<time>2026-07-12T13:48:43.000Z</time>
|
|
</trkpt>
|
|
<trkpt lat="56.052115" lon="8.106192">
|
|
<ele>27.468554</ele>
|
|
<time>2026-07-12T13:48:44.000Z</time>
|
|
</trkpt>
|
|
<trkpt lat="56.052123" lon="8.106117">
|
|
<ele>27.495310</ele>
|
|
<time>2026-07-12T13:48:45.000Z</time>
|
|
</trkpt>
|
|
<trkpt lat="56.052131" lon="8.106038">
|
|
<ele>27.523443</ele>
|
|
<time>2026-07-12T13:48:46.000Z</time>
|
|
</trkpt>
|
|
<trkpt lat="56.052138" lon="8.105960">
|
|
<ele>27.551125</ele>
|
|
<time>2026-07-12T13:48:47.000Z</time>
|
|
</trkpt>
|
|
<trkpt lat="56.052145" lon="8.105877">
|
|
<ele>27.580538</ele>
|
|
<time>2026-07-12T13:48:48.000Z</time>
|
|
</trkpt>
|
|
<trkpt lat="56.052150" lon="8.105796">
|
|
<ele>27.609094</ele>
|
|
<time>2026-07-12T13:48:49.000Z</time>
|
|
</trkpt>
|
|
<trkpt lat="56.052156" lon="8.105711">
|
|
<ele>27.639115</ele>
|
|
<time>2026-07-12T13:48:50.000Z</time>
|
|
</trkpt>
|
|
<trkpt lat="56.052158" lon="8.105626">
|
|
<ele>27.668925</ele>
|
|
<time>2026-07-12T13:48:51.000Z</time>
|
|
</trkpt>
|
|
<trkpt lat="56.052161" lon="8.105542">
|
|
<ele>27.698419</ele>
|
|
<time>2026-07-12T13:48:52.000Z</time>
|
|
</trkpt>
|
|
<trkpt lat="56.052167" lon="8.105460">
|
|
<ele>27.727398</ele>
|
|
<time>2026-07-12T13:48:53.000Z</time>
|
|
</trkpt>
|
|
<trkpt lat="56.052173" lon="8.105376">
|
|
<ele>27.757071</ele>
|
|
<time>2026-07-12T13:48:54.000Z</time>
|
|
</trkpt>
|
|
<trkpt lat="56.052180" lon="8.105290">
|
|
<ele>27.787524</ele>
|
|
<time>2026-07-12T13:48:55.000Z</time>
|
|
</trkpt>
|
|
<trkpt lat="56.052187" lon="8.105203">
|
|
<ele>27.818324</ele>
|
|
<time>2026-07-12T13:48:56.000Z</time>
|
|
</trkpt>
|
|
<trkpt lat="56.052190" lon="8.105118">
|
|
<ele>27.848168</ele>
|
|
<time>2026-07-12T13:48:57.000Z</time>
|
|
</trkpt>
|
|
<trkpt lat="56.052194" lon="8.105034">
|
|
<ele>27.877708</ele>
|
|
<time>2026-07-12T13:48:58.000Z</time>
|
|
</trkpt>
|
|
<trkpt lat="56.052198" lon="8.104953">
|
|
<ele>27.906201</ele>
|
|
<time>2026-07-12T13:48:59.000Z</time>
|
|
</trkpt>
|
|
<trkpt lat="56.052203" lon="8.104871">
|
|
<ele>27.935105</ele>
|
|
<time>2026-07-12T13:49:00.000Z</time>
|
|
</trkpt>
|
|
<trkpt lat="56.052209" lon="8.104791">
|
|
<ele>27.963389</ele>
|
|
<time>2026-07-12T13:49:01.000Z</time>
|
|
</trkpt>
|
|
<trkpt lat="56.052215" lon="8.104712">
|
|
<ele>27.991325</ele>
|
|
<time>2026-07-12T13:49:02.000Z</time>
|
|
</trkpt>
|
|
<trkpt lat="56.052221" lon="8.104632">
|
|
<ele>28.019609</ele>
|
|
<time>2026-07-12T13:49:03.000Z</time>
|
|
</trkpt>
|
|
<trkpt lat="56.052226" lon="8.104551">
|
|
<ele>28.048165</ele>
|
|
<time>2026-07-12T13:49:04.000Z</time>
|
|
</trkpt>
|
|
<trkpt lat="56.052235" lon="8.104471">
|
|
<ele>28.076760</ele>
|
|
<time>2026-07-12T13:49:05.000Z</time>
|
|
</trkpt>
|
|
<trkpt lat="56.052245" lon="8.104393">
|
|
<ele>28.104802</ele>
|
|
<time>2026-07-12T13:49:06.000Z</time>
|
|
</trkpt>
|
|
<trkpt lat="56.052254" lon="8.104313">
|
|
<ele>28.133397</ele>
|
|
<time>2026-07-12T13:49:07.000Z</time>
|
|
</trkpt>
|
|
<trkpt lat="56.052266" lon="8.104233">
|
|
<ele>28.162423</ele>
|
|
<time>2026-07-12T13:49:08.000Z</time>
|
|
</trkpt>
|
|
<trkpt lat="56.052277" lon="8.104156">
|
|
<ele>28.190273</ele>
|
|
<time>2026-07-12T13:49:09.000Z</time>
|
|
</trkpt>
|
|
<trkpt lat="56.052290" lon="8.104079">
|
|
<ele>28.218460</ele>
|
|
<time>2026-07-12T13:49:10.000Z</time>
|
|
</trkpt>
|
|
<trkpt lat="56.052305" lon="8.104006">
|
|
<ele>28.245716</ele>
|
|
<time>2026-07-12T13:49:11.000Z</time>
|
|
</trkpt>
|
|
<trkpt lat="56.052320" lon="8.103933">
|
|
<ele>28.272972</ele>
|
|
<time>2026-07-12T13:49:12.000Z</time>
|
|
</trkpt>
|
|
<trkpt lat="56.052336" lon="8.103856">
|
|
<ele>28.294502</ele>
|
|
<time>2026-07-12T13:49:13.000Z</time>
|
|
</trkpt>
|
|
<trkpt lat="56.052351" lon="8.103781">
|
|
<ele>28.289045</ele>
|
|
<time>2026-07-12T13:49:14.000Z</time>
|
|
</trkpt>
|
|
<trkpt lat="56.052366" lon="8.103706">
|
|
<ele>28.283588</ele>
|
|
<time>2026-07-12T13:49:15.000Z</time>
|
|
</trkpt>
|
|
<trkpt lat="56.052382" lon="8.103630">
|
|
<ele>28.278024</ele>
|
|
<time>2026-07-12T13:49:16.000Z</time>
|
|
</trkpt>
|
|
<trkpt lat="56.052395" lon="8.103555">
|
|
<ele>28.272645</ele>
|
|
<time>2026-07-12T13:49:17.000Z</time>
|
|
</trkpt>
|
|
<trkpt lat="56.052408" lon="8.103480">
|
|
<ele>28.267265</ele>
|
|
<time>2026-07-12T13:49:18.000Z</time>
|
|
</trkpt>
|
|
<trkpt lat="56.052422" lon="8.103406">
|
|
<ele>28.261913</ele>
|
|
<time>2026-07-12T13:49:19.000Z</time>
|
|
</trkpt>
|
|
<trkpt lat="56.052435" lon="8.103332">
|
|
<ele>28.256599</ele>
|
|
<time>2026-07-12T13:49:20.000Z</time>
|
|
</trkpt>
|
|
<trkpt lat="56.052450" lon="8.103258">
|
|
<ele>28.251207</ele>
|
|
<time>2026-07-12T13:49:21.000Z</time>
|
|
</trkpt>
|
|
<trkpt lat="56.052465" lon="8.103184">
|
|
<ele>28.245814</ele>
|
|
<time>2026-07-12T13:49:22.000Z</time>
|
|
</trkpt>
|
|
<trkpt lat="56.052481" lon="8.103109">
|
|
<ele>28.240314</ele>
|
|
<time>2026-07-12T13:49:23.000Z</time>
|
|
</trkpt>
|
|
<trkpt lat="56.052494" lon="8.103034">
|
|
<ele>28.234935</ele>
|
|
<time>2026-07-12T13:49:24.000Z</time>
|
|
</trkpt>
|
|
<trkpt lat="56.052506" lon="8.102958">
|
|
<ele>28.229525</ele>
|
|
<time>2026-07-12T13:49:25.000Z</time>
|
|
</trkpt>
|
|
<trkpt lat="56.052519" lon="8.102882">
|
|
<ele>28.224080</ele>
|
|
<time>2026-07-12T13:49:26.000Z</time>
|
|
</trkpt>
|
|
<trkpt lat="56.052535" lon="8.102809">
|
|
<ele>28.218708</ele>
|
|
<time>2026-07-12T13:49:27.000Z</time>
|
|
</trkpt>
|
|
<trkpt lat="56.052553" lon="8.102738">
|
|
<ele>28.213366</ele>
|
|
<time>2026-07-12T13:49:28.000Z</time>
|
|
</trkpt>
|
|
<trkpt lat="56.052568" lon="8.102664">
|
|
<ele>28.207974</ele>
|
|
<time>2026-07-12T13:49:29.000Z</time>
|
|
</trkpt>
|
|
<trkpt lat="56.052583" lon="8.102589">
|
|
<ele>28.202517</ele>
|
|
<time>2026-07-12T13:49:30.000Z</time>
|
|
</trkpt>
|
|
<trkpt lat="56.052597" lon="8.102515">
|
|
<ele>28.197165</ele>
|
|
<time>2026-07-12T13:49:31.000Z</time>
|
|
</trkpt>
|
|
<trkpt lat="56.052610" lon="8.102440">
|
|
<ele>28.191785</ele>
|
|
<time>2026-07-12T13:49:32.000Z</time>
|
|
</trkpt>
|
|
<trkpt lat="56.052625" lon="8.102369">
|
|
<ele>28.186585</ele>
|
|
<time>2026-07-12T13:49:33.000Z</time>
|
|
</trkpt>
|
|
<trkpt lat="56.052642" lon="8.102307">
|
|
<ele>28.181854</ele>
|
|
<time>2026-07-12T13:49:34.000Z</time>
|
|
</trkpt>
|
|
<trkpt lat="56.052663" lon="8.102257">
|
|
<ele>28.177568</ele>
|
|
<time>2026-07-12T13:49:35.000Z</time>
|
|
</trkpt>
|
|
<trkpt lat="56.052698" lon="8.102211">
|
|
<ele>28.172242</ele>
|
|
<time>2026-07-12T13:49:36.000Z</time>
|
|
</trkpt>
|
|
<trkpt lat="56.052739" lon="8.102177">
|
|
<ele>28.166700</ele>
|
|
<time>2026-07-12T13:49:37.000Z</time>
|
|
</trkpt>
|
|
<trkpt lat="56.052779" lon="8.102147">
|
|
<ele>28.161380</ele>
|
|
<time>2026-07-12T13:49:38.000Z</time>
|
|
</trkpt>
|
|
<trkpt lat="56.052816" lon="8.102116">
|
|
<ele>28.156369</ele>
|
|
<time>2026-07-12T13:49:39.000Z</time>
|
|
</trkpt>
|
|
<trkpt lat="56.052850" lon="8.102080">
|
|
<ele>28.151524</ele>
|
|
<time>2026-07-12T13:49:40.000Z</time>
|
|
</trkpt>
|
|
<trkpt lat="56.052884" lon="8.102040">
|
|
<ele>28.146534</ele>
|
|
<time>2026-07-12T13:49:41.000Z</time>
|
|
</trkpt>
|
|
<trkpt lat="56.052919" lon="8.102003">
|
|
<ele>28.141548</ele>
|
|
<time>2026-07-12T13:49:42.000Z</time>
|
|
</trkpt>
|
|
<trkpt lat="56.052953" lon="8.101968">
|
|
<ele>28.136738</ele>
|
|
<time>2026-07-12T13:49:43.000Z</time>
|
|
</trkpt>
|
|
<trkpt lat="56.052985" lon="8.101931">
|
|
<ele>28.132065</ele>
|
|
<time>2026-07-12T13:49:44.000Z</time>
|
|
</trkpt>
|
|
<trkpt lat="56.053015" lon="8.101889">
|
|
<ele>28.127394</ele>
|
|
<time>2026-07-12T13:49:45.000Z</time>
|
|
</trkpt>
|
|
<trkpt lat="56.053050" lon="8.101837">
|
|
<ele>28.121816</ele>
|
|
<time>2026-07-12T13:49:46.000Z</time>
|
|
</trkpt>
|
|
<trkpt lat="56.053079" lon="8.101782">
|
|
<ele>28.116634</ele>
|
|
<time>2026-07-12T13:49:47.000Z</time>
|
|
</trkpt>
|
|
<trkpt lat="56.053107" lon="8.101720">
|
|
<ele>28.111172</ele>
|
|
<time>2026-07-12T13:49:48.000Z</time>
|
|
</trkpt>
|
|
<trkpt lat="56.053134" lon="8.101657">
|
|
<ele>28.105732</ele>
|
|
<time>2026-07-12T13:49:49.000Z</time>
|
|
</trkpt>
|
|
<trkpt lat="56.053161" lon="8.101594">
|
|
<ele>28.100292</ele>
|
|
<time>2026-07-12T13:49:50.000Z</time>
|
|
</trkpt>
|
|
<trkpt lat="56.053186" lon="8.101528">
|
|
<ele>28.094829</ele>
|
|
<time>2026-07-12T13:49:51.000Z</time>
|
|
</trkpt>
|
|
<trkpt lat="56.053209" lon="8.101459">
|
|
<ele>28.089324</ele>
|
|
<time>2026-07-12T13:49:52.000Z</time>
|
|
</trkpt>
|
|
<trkpt lat="56.053230" lon="8.101392">
|
|
<ele>28.084061</ele>
|
|
<time>2026-07-12T13:49:53.000Z</time>
|
|
</trkpt>
|
|
<trkpt lat="56.053249" lon="8.101327">
|
|
<ele>28.079036</ele>
|
|
<time>2026-07-12T13:49:54.000Z</time>
|
|
</trkpt>
|
|
<trkpt lat="56.053268" lon="8.101263">
|
|
<ele>28.073752</ele>
|
|
<time>2026-07-12T13:49:55.000Z</time>
|
|
</trkpt>
|
|
<trkpt lat="56.053289" lon="8.101199">
|
|
<ele>28.067018</ele>
|
|
<time>2026-07-12T13:49:56.000Z</time>
|
|
</trkpt>
|
|
<trkpt lat="56.053310" lon="8.101133">
|
|
<ele>28.060127</ele>
|
|
<time>2026-07-12T13:49:57.000Z</time>
|
|
</trkpt>
|
|
<trkpt lat="56.053333" lon="8.101067">
|
|
<ele>28.053069</ele>
|
|
<time>2026-07-12T13:49:58.000Z</time>
|
|
</trkpt>
|
|
<trkpt lat="56.053359" lon="8.101002">
|
|
<ele>28.045816</ele>
|
|
<time>2026-07-12T13:49:59.000Z</time>
|
|
</trkpt>
|
|
<trkpt lat="56.053386" lon="8.100936">
|
|
<ele>28.038394</ele>
|
|
<time>2026-07-12T13:50:00.000Z</time>
|
|
</trkpt>
|
|
<trkpt lat="56.053412" lon="8.100872">
|
|
<ele>28.031215</ele>
|
|
<time>2026-07-12T13:50:01.000Z</time>
|
|
</trkpt>
|
|
<trkpt lat="56.053441" lon="8.100812">
|
|
<ele>28.024016</ele>
|
|
<time>2026-07-12T13:50:02.000Z</time>
|
|
</trkpt>
|
|
<trkpt lat="56.053473" lon="8.100755">
|
|
<ele>28.016684</ele>
|
|
<time>2026-07-12T13:50:03.000Z</time>
|
|
</trkpt>
|
|
<trkpt lat="56.053508" lon="8.100703">
|
|
<ele>28.009296</ele>
|
|
<time>2026-07-12T13:50:04.000Z</time>
|
|
</trkpt>
|
|
<trkpt lat="56.053550" lon="8.100664">
|
|
<ele>28.001611</ele>
|
|
<time>2026-07-12T13:50:05.000Z</time>
|
|
</trkpt>
|
|
<trkpt lat="56.053597" lon="8.100636">
|
|
<ele>27.993564</ele>
|
|
<time>2026-07-12T13:50:06.000Z</time>
|
|
</trkpt>
|
|
<trkpt lat="56.053646" lon="8.100614">
|
|
<ele>27.985358</ele>
|
|
<time>2026-07-12T13:50:07.000Z</time>
|
|
</trkpt>
|
|
<trkpt lat="56.053696" lon="8.100594">
|
|
<ele>27.977035</ele>
|
|
<time>2026-07-12T13:50:08.000Z</time>
|
|
</trkpt>
|
|
<trkpt lat="56.053744" lon="8.100579">
|
|
<ele>27.969119</ele>
|
|
<time>2026-07-12T13:50:09.000Z</time>
|
|
</trkpt>
|
|
<trkpt lat="56.053790" lon="8.100573">
|
|
<ele>27.961627</ele>
|
|
<time>2026-07-12T13:50:10.000Z</time>
|
|
</trkpt>
|
|
<trkpt lat="56.053836" lon="8.100573">
|
|
<ele>27.954154</ele>
|
|
<time>2026-07-12T13:50:11.000Z</time>
|
|
</trkpt>
|
|
<trkpt lat="56.053882" lon="8.100579">
|
|
<ele>27.946662</ele>
|
|
<time>2026-07-12T13:50:12.000Z</time>
|
|
</trkpt>
|
|
<trkpt lat="56.053928" lon="8.100587">
|
|
<ele>27.939154</ele>
|
|
<time>2026-07-12T13:50:13.000Z</time>
|
|
</trkpt>
|
|
<trkpt lat="56.053973" lon="8.100595">
|
|
<ele>27.931808</ele>
|
|
<time>2026-07-12T13:50:14.000Z</time>
|
|
</trkpt>
|
|
<trkpt lat="56.054019" lon="8.100603">
|
|
<ele>27.924300</ele>
|
|
<time>2026-07-12T13:50:15.000Z</time>
|
|
</trkpt>
|
|
<trkpt lat="56.054063" lon="8.100612">
|
|
<ele>27.917106</ele>
|
|
<time>2026-07-12T13:50:16.000Z</time>
|
|
</trkpt>
|
|
<trkpt lat="56.054107" lon="8.100626">
|
|
<ele>27.909846</ele>
|
|
<time>2026-07-12T13:50:17.000Z</time>
|
|
</trkpt>
|
|
<trkpt lat="56.054153" lon="8.100649">
|
|
<ele>27.902087</ele>
|
|
<time>2026-07-12T13:50:18.000Z</time>
|
|
</trkpt>
|
|
<trkpt lat="56.054197" lon="8.100678">
|
|
<ele>27.894471</ele>
|
|
<time>2026-07-12T13:50:19.000Z</time>
|
|
</trkpt>
|
|
<trkpt lat="56.054240" lon="8.100714">
|
|
<ele>27.886760</ele>
|
|
<time>2026-07-12T13:50:20.000Z</time>
|
|
</trkpt>
|
|
<trkpt lat="56.054285" lon="8.100751">
|
|
<ele>27.878716</ele>
|
|
<time>2026-07-12T13:50:21.000Z</time>
|
|
</trkpt>
|
|
<trkpt lat="56.054328" lon="8.100786">
|
|
<ele>27.871043</ele>
|
|
<time>2026-07-12T13:50:22.000Z</time>
|
|
</trkpt>
|
|
<trkpt lat="56.054373" lon="8.100823">
|
|
<ele>27.862999</ele>
|
|
<time>2026-07-12T13:50:23.000Z</time>
|
|
</trkpt>
|
|
<trkpt lat="56.054416" lon="8.100857">
|
|
<ele>27.855363</ele>
|
|
<time>2026-07-12T13:50:24.000Z</time>
|
|
</trkpt>
|
|
<trkpt lat="56.054460" lon="8.100889">
|
|
<ele>27.847648</ele>
|
|
<time>2026-07-12T13:50:25.000Z</time>
|
|
</trkpt>
|
|
<trkpt lat="56.054502" lon="8.100918">
|
|
<ele>27.840336</ele>
|
|
<time>2026-07-12T13:50:26.000Z</time>
|
|
</trkpt>
|
|
<trkpt lat="56.054544" lon="8.100944">
|
|
<ele>27.833117</ele>
|
|
<time>2026-07-12T13:50:27.000Z</time>
|
|
</trkpt>
|
|
<trkpt lat="56.054586" lon="8.100963">
|
|
<ele>27.826079</ele>
|
|
<time>2026-07-12T13:50:28.000Z</time>
|
|
</trkpt>
|
|
<trkpt lat="56.054628" lon="8.100974">
|
|
<ele>27.819184</ele>
|
|
<time>2026-07-12T13:50:29.000Z</time>
|
|
</trkpt>
|
|
<trkpt lat="56.054670" lon="8.100978">
|
|
<ele>27.812351</ele>
|
|
<time>2026-07-12T13:50:30.000Z</time>
|
|
</trkpt>
|
|
<trkpt lat="56.054710" lon="8.100964">
|
|
<ele>27.805730</ele>
|
|
<time>2026-07-12T13:50:31.000Z</time>
|
|
</trkpt>
|
|
<trkpt lat="56.054748" lon="8.100935">
|
|
<ele>27.799020</ele>
|
|
<time>2026-07-12T13:50:32.000Z</time>
|
|
</trkpt>
|
|
<trkpt lat="56.054784" lon="8.100898">
|
|
<ele>27.792277</ele>
|
|
<time>2026-07-12T13:50:33.000Z</time>
|
|
</trkpt>
|
|
<trkpt lat="56.054819" lon="8.100858">
|
|
<ele>27.785532</ele>
|
|
<time>2026-07-12T13:50:34.000Z</time>
|
|
</trkpt>
|
|
<trkpt lat="56.054857" lon="8.100817">
|
|
<ele>27.783083</ele>
|
|
<time>2026-07-12T13:50:35.000Z</time>
|
|
</trkpt>
|
|
<trkpt lat="56.054900" lon="8.100783">
|
|
<ele>27.783449</ele>
|
|
<time>2026-07-12T13:50:36.000Z</time>
|
|
</trkpt>
|
|
<trkpt lat="56.054945" lon="8.100760">
|
|
<ele>27.783813</ele>
|
|
<time>2026-07-12T13:50:37.000Z</time>
|
|
</trkpt>
|
|
<trkpt lat="56.054988" lon="8.100745">
|
|
<ele>27.784154</ele>
|
|
<time>2026-07-12T13:50:38.000Z</time>
|
|
</trkpt>
|
|
<trkpt lat="56.055032" lon="8.100729">
|
|
<ele>27.784504</ele>
|
|
<time>2026-07-12T13:50:39.000Z</time>
|
|
</trkpt>
|
|
<trkpt lat="56.055076" lon="8.100708">
|
|
<ele>27.784859</ele>
|
|
<time>2026-07-12T13:50:40.000Z</time>
|
|
</trkpt>
|
|
<trkpt lat="56.055120" lon="8.100687">
|
|
<ele>27.785213</ele>
|
|
<time>2026-07-12T13:50:41.000Z</time>
|
|
</trkpt>
|
|
<trkpt lat="56.055161" lon="8.100668">
|
|
<ele>27.785543</ele>
|
|
<time>2026-07-12T13:50:42.000Z</time>
|
|
</trkpt>
|
|
<trkpt lat="56.055204" lon="8.100653">
|
|
<ele>27.785884</ele>
|
|
<time>2026-07-12T13:50:43.000Z</time>
|
|
</trkpt>
|
|
<trkpt lat="56.055247" lon="8.100641">
|
|
<ele>27.786223</ele>
|
|
<time>2026-07-12T13:50:44.000Z</time>
|
|
</trkpt>
|
|
<trkpt lat="56.055293" lon="8.100627">
|
|
<ele>27.786586</ele>
|
|
<time>2026-07-12T13:50:45.000Z</time>
|
|
</trkpt>
|
|
<trkpt lat="56.055339" lon="8.100612">
|
|
<ele>27.786950</ele>
|
|
<time>2026-07-12T13:50:46.000Z</time>
|
|
</trkpt>
|
|
<trkpt lat="56.055385" lon="8.100595">
|
|
<ele>27.787316</ele>
|
|
<time>2026-07-12T13:50:47.000Z</time>
|
|
</trkpt>
|
|
<trkpt lat="56.055430" lon="8.100580">
|
|
<ele>27.787672</ele>
|
|
<time>2026-07-12T13:50:48.000Z</time>
|
|
</trkpt>
|
|
<trkpt lat="56.055474" lon="8.100572">
|
|
<ele>27.788017</ele>
|
|
<time>2026-07-12T13:50:49.000Z</time>
|
|
</trkpt>
|
|
<trkpt lat="56.055512" lon="8.100572">
|
|
<ele>27.788313</ele>
|
|
<time>2026-07-12T13:50:50.000Z</time>
|
|
</trkpt>
|
|
<trkpt lat="56.055551" lon="8.100586">
|
|
<ele>27.788622</ele>
|
|
<time>2026-07-12T13:50:51.000Z</time>
|
|
</trkpt>
|
|
<trkpt lat="56.055596" lon="8.100612">
|
|
<ele>27.788991</ele>
|
|
<time>2026-07-12T13:50:52.000Z</time>
|
|
</trkpt>
|
|
<trkpt lat="56.055643" lon="8.100640">
|
|
<ele>27.789376</ele>
|
|
<time>2026-07-12T13:50:53.000Z</time>
|
|
</trkpt>
|
|
<trkpt lat="56.055693" lon="8.100666">
|
|
<ele>27.789782</ele>
|
|
<time>2026-07-12T13:50:54.000Z</time>
|
|
</trkpt>
|
|
<trkpt lat="56.055746" lon="8.100693">
|
|
<ele>27.790211</ele>
|
|
<time>2026-07-12T13:50:55.000Z</time>
|
|
</trkpt>
|
|
<trkpt lat="56.055800" lon="8.100720">
|
|
<ele>27.790647</ele>
|
|
<time>2026-07-12T13:50:56.000Z</time>
|
|
</trkpt>
|
|
<trkpt lat="56.055853" lon="8.100748">
|
|
<ele>27.791078</ele>
|
|
<time>2026-07-12T13:50:57.000Z</time>
|
|
</trkpt>
|
|
<trkpt lat="56.055906" lon="8.100774">
|
|
<ele>27.791505</ele>
|
|
<time>2026-07-12T13:50:58.000Z</time>
|
|
</trkpt>
|
|
<trkpt lat="56.055960" lon="8.100797">
|
|
<ele>27.791938</ele>
|
|
<time>2026-07-12T13:50:59.000Z</time>
|
|
</trkpt>
|
|
<trkpt lat="56.056012" lon="8.100818">
|
|
<ele>27.792353</ele>
|
|
<time>2026-07-12T13:51:00.000Z</time>
|
|
</trkpt>
|
|
<trkpt lat="56.056063" lon="8.100839">
|
|
<ele>27.792760</ele>
|
|
<time>2026-07-12T13:51:01.000Z</time>
|
|
</trkpt>
|
|
<trkpt lat="56.056116" lon="8.100861">
|
|
<ele>27.793184</ele>
|
|
<time>2026-07-12T13:51:02.000Z</time>
|
|
</trkpt>
|
|
<trkpt lat="56.056166" lon="8.100885">
|
|
<ele>27.793587</ele>
|
|
<time>2026-07-12T13:51:03.000Z</time>
|
|
</trkpt>
|
|
<trkpt lat="56.056214" lon="8.100910">
|
|
<ele>27.793976</ele>
|
|
<time>2026-07-12T13:51:04.000Z</time>
|
|
</trkpt>
|
|
<trkpt lat="56.056264" lon="8.100936">
|
|
<ele>27.794382</ele>
|
|
<time>2026-07-12T13:51:05.000Z</time>
|
|
</trkpt>
|
|
<trkpt lat="56.056312" lon="8.100962">
|
|
<ele>27.794772</ele>
|
|
<time>2026-07-12T13:51:06.000Z</time>
|
|
</trkpt>
|
|
<trkpt lat="56.056357" lon="8.100989">
|
|
<ele>27.795142</ele>
|
|
<time>2026-07-12T13:51:07.000Z</time>
|
|
</trkpt>
|
|
<trkpt lat="56.056405" lon="8.101019">
|
|
<ele>27.795537</ele>
|
|
<time>2026-07-12T13:51:08.000Z</time>
|
|
</trkpt>
|
|
<trkpt lat="56.056453" lon="8.101048">
|
|
<ele>27.795932</ele>
|
|
<time>2026-07-12T13:51:09.000Z</time>
|
|
</trkpt>
|
|
<trkpt lat="56.056500" lon="8.101076">
|
|
<ele>27.796318</ele>
|
|
<time>2026-07-12T13:51:10.000Z</time>
|
|
</trkpt>
|
|
<trkpt lat="56.056548" lon="8.101105">
|
|
<ele>27.796712</ele>
|
|
<time>2026-07-12T13:51:11.000Z</time>
|
|
</trkpt>
|
|
<trkpt lat="56.056596" lon="8.101134">
|
|
<ele>27.797445</ele>
|
|
<time>2026-07-12T13:51:12.000Z</time>
|
|
</trkpt>
|
|
<trkpt lat="56.056644" lon="8.101160">
|
|
<ele>27.798396</ele>
|
|
<time>2026-07-12T13:51:13.000Z</time>
|
|
</trkpt>
|
|
<trkpt lat="56.056689" lon="8.101186">
|
|
<ele>27.799292</ele>
|
|
<time>2026-07-12T13:51:14.000Z</time>
|
|
</trkpt>
|
|
<trkpt lat="56.056735" lon="8.101210">
|
|
<ele>27.800201</ele>
|
|
<time>2026-07-12T13:51:15.000Z</time>
|
|
</trkpt>
|
|
<trkpt lat="56.056781" lon="8.101235">
|
|
<ele>27.801112</ele>
|
|
<time>2026-07-12T13:51:16.000Z</time>
|
|
</trkpt>
|
|
<trkpt lat="56.056825" lon="8.101260">
|
|
<ele>27.801987</ele>
|
|
<time>2026-07-12T13:51:17.000Z</time>
|
|
</trkpt>
|
|
<trkpt lat="56.056869" lon="8.101289">
|
|
<ele>27.802876</ele>
|
|
<time>2026-07-12T13:51:18.000Z</time>
|
|
</trkpt>
|
|
<trkpt lat="56.056916" lon="8.101319">
|
|
<ele>27.803822</ele>
|
|
<time>2026-07-12T13:51:19.000Z</time>
|
|
</trkpt>
|
|
<trkpt lat="56.056964" lon="8.101348">
|
|
<ele>27.804782</ele>
|
|
<time>2026-07-12T13:51:20.000Z</time>
|
|
</trkpt>
|
|
<trkpt lat="56.057011" lon="8.101376">
|
|
<ele>27.805721</ele>
|
|
<time>2026-07-12T13:51:21.000Z</time>
|
|
</trkpt>
|
|
<trkpt lat="56.057059" lon="8.101405">
|
|
<ele>27.806682</ele>
|
|
<time>2026-07-12T13:51:22.000Z</time>
|
|
</trkpt>
|
|
<trkpt lat="56.057107" lon="8.101435">
|
|
<ele>27.807646</ele>
|
|
<time>2026-07-12T13:51:23.000Z</time>
|
|
</trkpt>
|
|
<trkpt lat="56.057155" lon="8.101468">
|
|
<ele>27.808621</ele>
|
|
<time>2026-07-12T13:51:24.000Z</time>
|
|
</trkpt>
|
|
<trkpt lat="56.057202" lon="8.101501">
|
|
<ele>27.809578</ele>
|
|
<time>2026-07-12T13:51:25.000Z</time>
|
|
</trkpt>
|
|
<trkpt lat="56.057252" lon="8.101534">
|
|
<ele>27.810588</ele>
|
|
<time>2026-07-12T13:51:26.000Z</time>
|
|
</trkpt>
|
|
<trkpt lat="56.057302" lon="8.101565">
|
|
<ele>27.811591</ele>
|
|
<time>2026-07-12T13:51:27.000Z</time>
|
|
</trkpt>
|
|
<trkpt lat="56.057351" lon="8.101595">
|
|
<ele>27.812573</ele>
|
|
<time>2026-07-12T13:51:28.000Z</time>
|
|
</trkpt>
|
|
<trkpt lat="56.057401" lon="8.101623">
|
|
<ele>27.813566</ele>
|
|
<time>2026-07-12T13:51:29.000Z</time>
|
|
</trkpt>
|
|
<trkpt lat="56.057448" lon="8.101649">
|
|
<ele>27.814499</ele>
|
|
<time>2026-07-12T13:51:30.000Z</time>
|
|
</trkpt>
|
|
<trkpt lat="56.057491" lon="8.101674">
|
|
<ele>27.815356</ele>
|
|
<time>2026-07-12T13:51:31.000Z</time>
|
|
</trkpt>
|
|
<trkpt lat="56.057529" lon="8.101698">
|
|
<ele>27.816120</ele>
|
|
<time>2026-07-12T13:51:32.000Z</time>
|
|
</trkpt>
|
|
<trkpt lat="56.057568" lon="8.101720">
|
|
<ele>27.816895</ele>
|
|
<time>2026-07-12T13:51:33.000Z</time>
|
|
</trkpt>
|
|
<trkpt lat="56.057604" lon="8.101743">
|
|
<ele>27.817620</ele>
|
|
<time>2026-07-12T13:51:34.000Z</time>
|
|
</trkpt>
|
|
<trkpt lat="56.057640" lon="8.101773">
|
|
<ele>27.818372</ele>
|
|
<time>2026-07-12T13:51:35.000Z</time>
|
|
</trkpt>
|
|
<trkpt lat="56.057678" lon="8.101817">
|
|
<ele>27.819230</ele>
|
|
<time>2026-07-12T13:51:36.000Z</time>
|
|
</trkpt>
|
|
<trkpt lat="56.057715" lon="8.101874">
|
|
<ele>27.820156</ele>
|
|
<time>2026-07-12T13:51:37.000Z</time>
|
|
</trkpt>
|
|
<trkpt lat="56.057751" lon="8.101937">
|
|
<ele>27.821110</ele>
|
|
<time>2026-07-12T13:51:38.000Z</time>
|
|
</trkpt>
|
|
<trkpt lat="56.057788" lon="8.102001">
|
|
<ele>27.822085</ele>
|
|
<time>2026-07-12T13:51:39.000Z</time>
|
|
</trkpt>
|
|
<trkpt lat="56.057825" lon="8.102062">
|
|
<ele>27.823039</ele>
|
|
<time>2026-07-12T13:51:40.000Z</time>
|
|
</trkpt>
|
|
<trkpt lat="56.057858" lon="8.102113">
|
|
<ele>27.823865</ele>
|
|
<time>2026-07-12T13:51:41.000Z</time>
|
|
</trkpt>
|
|
<trkpt lat="56.057890" lon="8.102156">
|
|
<ele>27.824624</ele>
|
|
<time>2026-07-12T13:51:42.000Z</time>
|
|
</trkpt>
|
|
<trkpt lat="56.057925" lon="8.102191">
|
|
<ele>27.825384</ele>
|
|
<time>2026-07-12T13:51:43.000Z</time>
|
|
</trkpt>
|
|
<trkpt lat="56.057962" lon="8.102221">
|
|
<ele>27.826154</ele>
|
|
<time>2026-07-12T13:51:44.000Z</time>
|
|
</trkpt>
|
|
<trkpt lat="56.058004" lon="8.102242">
|
|
<ele>27.826980</ele>
|
|
<time>2026-07-12T13:51:45.000Z</time>
|
|
</trkpt>
|
|
<trkpt lat="56.058047" lon="8.102250">
|
|
<ele>27.827800</ele>
|
|
<time>2026-07-12T13:51:46.000Z</time>
|
|
</trkpt>
|
|
<trkpt lat="56.058090" lon="8.102246">
|
|
<ele>27.828616</ele>
|
|
<time>2026-07-12T13:51:47.000Z</time>
|
|
</trkpt>
|
|
<trkpt lat="56.058129" lon="8.102234">
|
|
<ele>27.829367</ele>
|
|
<time>2026-07-12T13:51:48.000Z</time>
|
|
</trkpt>
|
|
<trkpt lat="56.058169" lon="8.102219">
|
|
<ele>27.830141</ele>
|
|
<time>2026-07-12T13:51:49.000Z</time>
|
|
</trkpt>
|
|
<trkpt lat="56.058203" lon="8.102200">
|
|
<ele>27.830817</ele>
|
|
<time>2026-07-12T13:51:50.000Z</time>
|
|
</trkpt>
|
|
<trkpt lat="56.058240" lon="8.102177">
|
|
<ele>27.823124</ele>
|
|
<time>2026-07-12T13:51:51.000Z</time>
|
|
</trkpt>
|
|
<trkpt lat="56.058284" lon="8.102155">
|
|
<ele>27.811562</ele>
|
|
<time>2026-07-12T13:51:52.000Z</time>
|
|
</trkpt>
|
|
<trkpt lat="56.058330" lon="8.102136">
|
|
<ele>27.799613</ele>
|
|
<time>2026-07-12T13:51:53.000Z</time>
|
|
</trkpt>
|
|
<trkpt lat="56.058375" lon="8.102119">
|
|
<ele>27.787973</ele>
|
|
<time>2026-07-12T13:51:54.000Z</time>
|
|
</trkpt>
|
|
<trkpt lat="56.058420" lon="8.102104">
|
|
<ele>27.776388</ele>
|
|
<time>2026-07-12T13:51:55.000Z</time>
|
|
</trkpt>
|
|
<trkpt lat="56.058463" lon="8.102089">
|
|
<ele>27.765299</ele>
|
|
<time>2026-07-12T13:51:56.000Z</time>
|
|
</trkpt>
|
|
<trkpt lat="56.058508" lon="8.102074">
|
|
<ele>27.753714</ele>
|
|
<time>2026-07-12T13:51:57.000Z</time>
|
|
</trkpt>
|
|
<trkpt lat="56.058554" lon="8.102054">
|
|
<ele>27.741733</ele>
|
|
<time>2026-07-12T13:51:58.000Z</time>
|
|
</trkpt>
|
|
<trkpt lat="56.058601" lon="8.102029">
|
|
<ele>27.729323</ele>
|
|
<time>2026-07-12T13:51:59.000Z</time>
|
|
</trkpt>
|
|
<trkpt lat="56.058648" lon="8.102000">
|
|
<ele>27.716741</ele>
|
|
<time>2026-07-12T13:52:00.000Z</time>
|
|
</trkpt>
|
|
<trkpt lat="56.058696" lon="8.101972">
|
|
<ele>27.703964</ele>
|
|
<time>2026-07-12T13:52:01.000Z</time>
|
|
</trkpt>
|
|
<trkpt lat="56.058743" lon="8.101947">
|
|
<ele>27.691554</ele>
|
|
<time>2026-07-12T13:52:02.000Z</time>
|
|
</trkpt>
|
|
<trkpt lat="56.058791" lon="8.101923">
|
|
<ele>27.678940</ele>
|
|
<time>2026-07-12T13:52:03.000Z</time>
|
|
</trkpt>
|
|
<trkpt lat="56.058837" lon="8.101899">
|
|
<ele>27.666814</ele>
|
|
<time>2026-07-12T13:52:04.000Z</time>
|
|
</trkpt>
|
|
<trkpt lat="56.058883" lon="8.101875">
|
|
<ele>27.654687</ele>
|
|
<time>2026-07-12T13:52:05.000Z</time>
|
|
</trkpt>
|
|
<trkpt lat="56.058927" lon="8.101850">
|
|
<ele>27.643003</ele>
|
|
<time>2026-07-12T13:52:06.000Z</time>
|
|
</trkpt>
|
|
<trkpt lat="56.058971" lon="8.101826">
|
|
<ele>27.631361</ele>
|
|
<time>2026-07-12T13:52:07.000Z</time>
|
|
</trkpt>
|
|
<trkpt lat="56.059015" lon="8.101803">
|
|
<ele>27.619760</ele>
|
|
<time>2026-07-12T13:52:08.000Z</time>
|
|
</trkpt>
|
|
<trkpt lat="56.059058" lon="8.101784">
|
|
<ele>27.608550</ele>
|
|
<time>2026-07-12T13:52:09.000Z</time>
|
|
</trkpt>
|
|
<trkpt lat="56.059104" lon="8.101766">
|
|
<ele>27.596632</ele>
|
|
<time>2026-07-12T13:52:10.000Z</time>
|
|
</trkpt>
|
|
<trkpt lat="56.059146" lon="8.101748">
|
|
<ele>27.585702</ele>
|
|
<time>2026-07-12T13:52:11.000Z</time>
|
|
</trkpt>
|
|
<trkpt lat="56.059188" lon="8.101730">
|
|
<ele>27.574771</ele>
|
|
<time>2026-07-12T13:52:12.000Z</time>
|
|
</trkpt>
|
|
<trkpt lat="56.059232" lon="8.101713">
|
|
<ele>27.563378</ele>
|
|
<time>2026-07-12T13:52:13.000Z</time>
|
|
</trkpt>
|
|
<trkpt lat="56.059275" lon="8.101695">
|
|
<ele>27.552201</ele>
|
|
<time>2026-07-12T13:52:14.000Z</time>
|
|
</trkpt>
|
|
<trkpt lat="56.059319" lon="8.101676">
|
|
<ele>27.540746</ele>
|
|
<time>2026-07-12T13:52:15.000Z</time>
|
|
</trkpt>
|
|
<trkpt lat="56.059360" lon="8.101656">
|
|
<ele>27.529990</ele>
|
|
<time>2026-07-12T13:52:16.000Z</time>
|
|
</trkpt>
|
|
<trkpt lat="56.059398" lon="8.101639">
|
|
<ele>27.520077</ele>
|
|
<time>2026-07-12T13:52:17.000Z</time>
|
|
</trkpt>
|
|
<trkpt lat="56.059435" lon="8.101627">
|
|
<ele>27.510559</ele>
|
|
<time>2026-07-12T13:52:18.000Z</time>
|
|
</trkpt>
|
|
<trkpt lat="56.059468" lon="8.101621">
|
|
<ele>27.502164</ele>
|
|
<time>2026-07-12T13:52:19.000Z</time>
|
|
</trkpt>
|
|
<trkpt lat="56.059500" lon="8.101619">
|
|
<ele>27.494059</ele>
|
|
<time>2026-07-12T13:52:20.000Z</time>
|
|
</trkpt>
|
|
<trkpt lat="56.059535" lon="8.101620">
|
|
<ele>27.485200</ele>
|
|
<time>2026-07-12T13:52:21.000Z</time>
|
|
</trkpt>
|
|
<trkpt lat="56.059575" lon="8.101623">
|
|
<ele>27.475066</ele>
|
|
<time>2026-07-12T13:52:22.000Z</time>
|
|
</trkpt>
|
|
<trkpt lat="56.059619" lon="8.101629">
|
|
<ele>27.463897</ele>
|
|
<time>2026-07-12T13:52:23.000Z</time>
|
|
</trkpt>
|
|
<trkpt lat="56.059668" lon="8.101636">
|
|
<ele>27.451456</ele>
|
|
<time>2026-07-12T13:52:24.000Z</time>
|
|
</trkpt>
|
|
<trkpt lat="56.059720" lon="8.101643">
|
|
<ele>27.438257</ele>
|
|
<time>2026-07-12T13:52:25.000Z</time>
|
|
</trkpt>
|
|
<trkpt lat="56.059769" lon="8.101651">
|
|
<ele>27.425803</ele>
|
|
<time>2026-07-12T13:52:26.000Z</time>
|
|
</trkpt>
|
|
<trkpt lat="56.059818" lon="8.101659">
|
|
<ele>27.413350</ele>
|
|
<time>2026-07-12T13:52:27.000Z</time>
|
|
</trkpt>
|
|
<trkpt lat="56.059863" lon="8.101667">
|
|
<ele>27.401904</ele>
|
|
<time>2026-07-12T13:52:28.000Z</time>
|
|
</trkpt>
|
|
<trkpt lat="56.059909" lon="8.101675">
|
|
<ele>27.390206</ele>
|
|
<time>2026-07-12T13:52:29.000Z</time>
|
|
</trkpt>
|
|
<trkpt lat="56.059955" lon="8.101685">
|
|
<ele>27.378478</ele>
|
|
<time>2026-07-12T13:52:30.000Z</time>
|
|
</trkpt>
|
|
<trkpt lat="56.060002" lon="8.101694">
|
|
<ele>27.386731</ele>
|
|
<time>2026-07-12T13:52:31.000Z</time>
|
|
</trkpt>
|
|
<trkpt lat="56.060051" lon="8.101705">
|
|
<ele>27.401677</ele>
|
|
<time>2026-07-12T13:52:32.000Z</time>
|
|
</trkpt>
|
|
<trkpt lat="56.060101" lon="8.101719">
|
|
<ele>27.416993</ele>
|
|
<time>2026-07-12T13:52:33.000Z</time>
|
|
</trkpt>
|
|
<trkpt lat="56.060150" lon="8.101737">
|
|
<ele>27.432132</ele>
|
|
<time>2026-07-12T13:52:34.000Z</time>
|
|
</trkpt>
|
|
<trkpt lat="56.060195" lon="8.101760">
|
|
<ele>27.446294</ele>
|
|
<time>2026-07-12T13:52:35.000Z</time>
|
|
</trkpt>
|
|
<trkpt lat="56.060241" lon="8.101784">
|
|
<ele>27.460795</ele>
|
|
<time>2026-07-12T13:52:36.000Z</time>
|
|
</trkpt>
|
|
<trkpt lat="56.060285" lon="8.101810">
|
|
<ele>27.474817</ele>
|
|
<time>2026-07-12T13:52:37.000Z</time>
|
|
</trkpt>
|
|
<trkpt lat="56.060329" lon="8.101841">
|
|
<ele>27.489127</ele>
|
|
<time>2026-07-12T13:52:38.000Z</time>
|
|
</trkpt>
|
|
<trkpt lat="56.060373" lon="8.101873">
|
|
<ele>27.503499</ele>
|
|
<time>2026-07-12T13:52:39.000Z</time>
|
|
</trkpt>
|
|
<trkpt lat="56.060415" lon="8.101907">
|
|
<ele>27.517448</ele>
|
|
<time>2026-07-12T13:52:40.000Z</time>
|
|
</trkpt>
|
|
<trkpt lat="56.060455" lon="8.101939">
|
|
<ele>27.530707</ele>
|
|
<time>2026-07-12T13:52:41.000Z</time>
|
|
</trkpt>
|
|
<trkpt lat="56.060497" lon="8.101971">
|
|
<ele>27.544520</ele>
|
|
<time>2026-07-12T13:52:42.000Z</time>
|
|
</trkpt>
|
|
<trkpt lat="56.060541" lon="8.102002">
|
|
<ele>27.558830</ele>
|
|
<time>2026-07-12T13:52:43.000Z</time>
|
|
</trkpt>
|
|
<trkpt lat="56.060583" lon="8.102034">
|
|
<ele>27.572643</ele>
|
|
<time>2026-07-12T13:52:44.000Z</time>
|
|
</trkpt>
|
|
<trkpt lat="56.060625" lon="8.102066">
|
|
<ele>27.586457</ele>
|
|
<time>2026-07-12T13:52:45.000Z</time>
|
|
</trkpt>
|
|
<trkpt lat="56.060668" lon="8.102095">
|
|
<ele>27.600363</ele>
|
|
<time>2026-07-12T13:52:46.000Z</time>
|
|
</trkpt>
|
|
<trkpt lat="56.060712" lon="8.102123">
|
|
<ele>27.614495</ele>
|
|
<time>2026-07-12T13:52:47.000Z</time>
|
|
</trkpt>
|
|
<trkpt lat="56.060756" lon="8.102151">
|
|
<ele>27.628627</ele>
|
|
<time>2026-07-12T13:52:48.000Z</time>
|
|
</trkpt>
|
|
<trkpt lat="56.060800" lon="8.102178">
|
|
<ele>27.642703</ele>
|
|
<time>2026-07-12T13:52:49.000Z</time>
|
|
</trkpt>
|
|
<trkpt lat="56.060843" lon="8.102205">
|
|
<ele>27.656493</ele>
|
|
<time>2026-07-12T13:52:50.000Z</time>
|
|
</trkpt>
|
|
<trkpt lat="56.060887" lon="8.102232">
|
|
<ele>27.670569</ele>
|
|
<time>2026-07-12T13:52:51.000Z</time>
|
|
</trkpt>
|
|
<trkpt lat="56.060928" lon="8.102260">
|
|
<ele>27.683849</ele>
|
|
<time>2026-07-12T13:52:52.000Z</time>
|
|
</trkpt>
|
|
<trkpt lat="56.060969" lon="8.102289">
|
|
<ele>27.697190</ele>
|
|
<time>2026-07-12T13:52:53.000Z</time>
|
|
</trkpt>
|
|
<trkpt lat="56.061010" lon="8.102316">
|
|
<ele>27.710411</ele>
|
|
<time>2026-07-12T13:52:54.000Z</time>
|
|
</trkpt>
|
|
<trkpt lat="56.061050" lon="8.102342">
|
|
<ele>27.723289</ele>
|
|
<time>2026-07-12T13:52:55.000Z</time>
|
|
</trkpt>
|
|
<trkpt lat="56.061090" lon="8.102366">
|
|
<ele>27.736056</ele>
|
|
<time>2026-07-12T13:52:56.000Z</time>
|
|
</trkpt>
|
|
<trkpt lat="56.061131" lon="8.102388">
|
|
<ele>27.749010</ele>
|
|
<time>2026-07-12T13:52:57.000Z</time>
|
|
</trkpt>
|
|
<trkpt lat="56.061169" lon="8.102409">
|
|
<ele>27.761045</ele>
|
|
<time>2026-07-12T13:52:58.000Z</time>
|
|
</trkpt>
|
|
<trkpt lat="56.061208" lon="8.102431">
|
|
<ele>27.773420</ele>
|
|
<time>2026-07-12T13:52:59.000Z</time>
|
|
</trkpt>
|
|
<trkpt lat="56.061249" lon="8.102455">
|
|
<ele>27.786474</ele>
|
|
<time>2026-07-12T13:53:00.000Z</time>
|
|
</trkpt>
|
|
<trkpt lat="56.061288" lon="8.102478">
|
|
<ele>27.798901</ele>
|
|
<time>2026-07-12T13:53:01.000Z</time>
|
|
</trkpt>
|
|
<trkpt lat="56.061330" lon="8.102498">
|
|
<ele>27.812054</ele>
|
|
<time>2026-07-12T13:53:02.000Z</time>
|
|
</trkpt>
|
|
<trkpt lat="56.061370" lon="8.102519">
|
|
<ele>27.824669</ele>
|
|
<time>2026-07-12T13:53:03.000Z</time>
|
|
</trkpt>
|
|
<trkpt lat="56.061410" lon="8.102541">
|
|
<ele>27.837332</ele>
|
|
<time>2026-07-12T13:53:04.000Z</time>
|
|
</trkpt>
|
|
<trkpt lat="56.061454" lon="8.102564">
|
|
<ele>27.851204</ele>
|
|
<time>2026-07-12T13:53:05.000Z</time>
|
|
</trkpt>
|
|
<trkpt lat="56.061500" lon="8.102587">
|
|
<ele>27.865658</ele>
|
|
<time>2026-07-12T13:53:06.000Z</time>
|
|
</trkpt>
|
|
<trkpt lat="56.061546" lon="8.102609">
|
|
<ele>27.880068</ele>
|
|
<time>2026-07-12T13:53:07.000Z</time>
|
|
</trkpt>
|
|
<trkpt lat="56.061590" lon="8.102630">
|
|
<ele>27.893849</ele>
|
|
<time>2026-07-12T13:53:08.000Z</time>
|
|
</trkpt>
|
|
<trkpt lat="56.061633" lon="8.102646">
|
|
<ele>27.907141</ele>
|
|
<time>2026-07-12T13:53:09.000Z</time>
|
|
</trkpt>
|
|
<trkpt lat="56.061679" lon="8.102650">
|
|
<ele>27.920863</ele>
|
|
<time>2026-07-12T13:53:10.000Z</time>
|
|
</trkpt>
|
|
<trkpt lat="56.061725" lon="8.102644">
|
|
<ele>27.931823</ele>
|
|
<time>2026-07-12T13:53:11.000Z</time>
|
|
</trkpt>
|
|
<trkpt lat="56.061769" lon="8.102632">
|
|
<ele>27.942399</ele>
|
|
<time>2026-07-12T13:53:12.000Z</time>
|
|
</trkpt>
|
|
<trkpt lat="56.061811" lon="8.102614">
|
|
<ele>27.952662</ele>
|
|
<time>2026-07-12T13:53:13.000Z</time>
|
|
</trkpt>
|
|
<trkpt lat="56.061853" lon="8.102593">
|
|
<ele>27.963024</ele>
|
|
<time>2026-07-12T13:53:14.000Z</time>
|
|
</trkpt>
|
|
<trkpt lat="56.061895" lon="8.102572">
|
|
<ele>27.973386</ele>
|
|
<time>2026-07-12T13:53:15.000Z</time>
|
|
</trkpt>
|
|
<trkpt lat="56.061935" lon="8.102552">
|
|
<ele>27.983255</ele>
|
|
<time>2026-07-12T13:53:16.000Z</time>
|
|
</trkpt>
|
|
<trkpt lat="56.061974" lon="8.102529">
|
|
<ele>27.993012</ele>
|
|
<time>2026-07-12T13:53:17.000Z</time>
|
|
</trkpt>
|
|
<trkpt lat="56.062015" lon="8.102507">
|
|
<ele>28.003183</ele>
|
|
<time>2026-07-12T13:53:18.000Z</time>
|
|
</trkpt>
|
|
<trkpt lat="56.062053" lon="8.102488">
|
|
<ele>28.012558</ele>
|
|
<time>2026-07-12T13:53:19.000Z</time>
|
|
</trkpt>
|
|
<trkpt lat="56.062093" lon="8.102467">
|
|
<ele>28.022463</ele>
|
|
<time>2026-07-12T13:53:20.000Z</time>
|
|
</trkpt>
|
|
<trkpt lat="56.062133" lon="8.102445">
|
|
<ele>28.032406</ele>
|
|
<time>2026-07-12T13:53:21.000Z</time>
|
|
</trkpt>
|
|
<trkpt lat="56.062172" lon="8.102425">
|
|
<ele>28.042046</ele>
|
|
<time>2026-07-12T13:53:22.000Z</time>
|
|
</trkpt>
|
|
<trkpt lat="56.062211" lon="8.102403">
|
|
<ele>28.051763</ele>
|
|
<time>2026-07-12T13:53:23.000Z</time>
|
|
</trkpt>
|
|
<trkpt lat="56.062253" lon="8.102381">
|
|
<ele>28.062162</ele>
|
|
<time>2026-07-12T13:53:24.000Z</time>
|
|
</trkpt>
|
|
<trkpt lat="56.062295" lon="8.102357">
|
|
<ele>28.072638</ele>
|
|
<time>2026-07-12T13:53:25.000Z</time>
|
|
</trkpt>
|
|
<trkpt lat="56.062339" lon="8.102334">
|
|
<ele>28.083530</ele>
|
|
<time>2026-07-12T13:53:26.000Z</time>
|
|
</trkpt>
|
|
<trkpt lat="56.062383" lon="8.102311">
|
|
<ele>28.094422</ele>
|
|
<time>2026-07-12T13:53:27.000Z</time>
|
|
</trkpt>
|
|
<trkpt lat="56.062424" lon="8.102288">
|
|
<ele>28.104631</ele>
|
|
<time>2026-07-12T13:53:28.000Z</time>
|
|
</trkpt>
|
|
<trkpt lat="56.062463" lon="8.102266">
|
|
<ele>28.114348</ele>
|
|
<time>2026-07-12T13:53:29.000Z</time>
|
|
</trkpt>
|
|
<trkpt lat="56.062504" lon="8.102242">
|
|
<ele>28.124598</ele>
|
|
<time>2026-07-12T13:53:30.000Z</time>
|
|
</trkpt>
|
|
<trkpt lat="56.062543" lon="8.102217">
|
|
<ele>28.134441</ele>
|
|
<time>2026-07-12T13:53:31.000Z</time>
|
|
</trkpt>
|
|
<trkpt lat="56.062584" lon="8.102195">
|
|
<ele>28.144612</ele>
|
|
<time>2026-07-12T13:53:32.000Z</time>
|
|
</trkpt>
|
|
<trkpt lat="56.062622" lon="8.102173">
|
|
<ele>28.154102</ele>
|
|
<time>2026-07-12T13:53:33.000Z</time>
|
|
</trkpt>
|
|
<trkpt lat="56.062660" lon="8.102154">
|
|
<ele>28.163477</ele>
|
|
<time>2026-07-12T13:53:34.000Z</time>
|
|
</trkpt>
|
|
<trkpt lat="56.062700" lon="8.102135">
|
|
<ele>28.173311</ele>
|
|
<time>2026-07-12T13:53:35.000Z</time>
|
|
</trkpt>
|
|
<trkpt lat="56.062740" lon="8.102113">
|
|
<ele>28.183254</ele>
|
|
<time>2026-07-12T13:53:36.000Z</time>
|
|
</trkpt>
|
|
<trkpt lat="56.062780" lon="8.102093">
|
|
<ele>28.193123</ele>
|
|
<time>2026-07-12T13:53:37.000Z</time>
|
|
</trkpt>
|
|
<trkpt lat="56.062821" lon="8.102071">
|
|
<ele>28.203294</ele>
|
|
<time>2026-07-12T13:53:38.000Z</time>
|
|
</trkpt>
|
|
<trkpt lat="56.062859" lon="8.102050">
|
|
<ele>28.212744</ele>
|
|
<time>2026-07-12T13:53:39.000Z</time>
|
|
</trkpt>
|
|
<trkpt lat="56.062898" lon="8.102028">
|
|
<ele>28.222460</ele>
|
|
<time>2026-07-12T13:53:40.000Z</time>
|
|
</trkpt>
|
|
<trkpt lat="56.062938" lon="8.102006">
|
|
<ele>28.232403</ele>
|
|
<time>2026-07-12T13:53:41.000Z</time>
|
|
</trkpt>
|
|
<trkpt lat="56.062977" lon="8.101985">
|
|
<ele>28.242081</ele>
|
|
<time>2026-07-12T13:53:42.000Z</time>
|
|
</trkpt>
|
|
<trkpt lat="56.063013" lon="8.101965">
|
|
<ele>28.251038</ele>
|
|
<time>2026-07-12T13:53:43.000Z</time>
|
|
</trkpt>
|
|
<trkpt lat="56.063049" lon="8.101951">
|
|
<ele>28.259792</ele>
|
|
<time>2026-07-12T13:53:44.000Z</time>
|
|
</trkpt>
|
|
<trkpt lat="56.063085" lon="8.101940">
|
|
<ele>28.268470</ele>
|
|
<time>2026-07-12T13:53:45.000Z</time>
|
|
</trkpt>
|
|
<trkpt lat="56.063119" lon="8.101936">
|
|
<ele>28.276567</ele>
|
|
<time>2026-07-12T13:53:46.000Z</time>
|
|
</trkpt>
|
|
<trkpt lat="56.063151" lon="8.101940">
|
|
<ele>28.284190</ele>
|
|
<time>2026-07-12T13:53:47.000Z</time>
|
|
</trkpt>
|
|
<trkpt lat="56.063183" lon="8.101949">
|
|
<ele>28.291887</ele>
|
|
<time>2026-07-12T13:53:48.000Z</time>
|
|
</trkpt>
|
|
<trkpt lat="56.063215" lon="8.101964">
|
|
<ele>28.299747</ele>
|
|
<time>2026-07-12T13:53:49.000Z</time>
|
|
</trkpt>
|
|
<trkpt lat="56.063250" lon="8.101985">
|
|
<ele>28.308519</ele>
|
|
<time>2026-07-12T13:53:50.000Z</time>
|
|
</trkpt>
|
|
<trkpt lat="56.063287" lon="8.102011">
|
|
<ele>28.317964</ele>
|
|
<time>2026-07-12T13:53:51.000Z</time>
|
|
</trkpt>
|
|
<trkpt lat="56.063331" lon="8.102042">
|
|
<ele>28.329199</ele>
|
|
<time>2026-07-12T13:53:52.000Z</time>
|
|
</trkpt>
|
|
<trkpt lat="56.063375" lon="8.102072">
|
|
<ele>28.340387</ele>
|
|
<time>2026-07-12T13:53:53.000Z</time>
|
|
</trkpt>
|
|
<trkpt lat="56.063420" lon="8.102101">
|
|
<ele>28.350366</ele>
|
|
<time>2026-07-12T13:53:54.000Z</time>
|
|
</trkpt>
|
|
<trkpt lat="56.063467" lon="8.102129">
|
|
<ele>28.358308</ele>
|
|
<time>2026-07-12T13:53:55.000Z</time>
|
|
</trkpt>
|
|
<trkpt lat="56.063509" lon="8.102157">
|
|
<ele>28.365494</ele>
|
|
<time>2026-07-12T13:53:56.000Z</time>
|
|
</trkpt>
|
|
<trkpt lat="56.063551" lon="8.102186">
|
|
<ele>28.372712</ele>
|
|
<time>2026-07-12T13:53:57.000Z</time>
|
|
</trkpt>
|
|
<trkpt lat="56.063593" lon="8.102215">
|
|
<ele>28.379929</ele>
|
|
<time>2026-07-12T13:53:58.000Z</time>
|
|
</trkpt>
|
|
<trkpt lat="56.063635" lon="8.102242">
|
|
<ele>28.387085</ele>
|
|
<time>2026-07-12T13:53:59.000Z</time>
|
|
</trkpt>
|
|
<trkpt lat="56.063676" lon="8.102266">
|
|
<ele>28.394001</ele>
|
|
<time>2026-07-12T13:54:00.000Z</time>
|
|
</trkpt>
|
|
<trkpt lat="56.063717" lon="8.102291">
|
|
<ele>28.400946</ele>
|
|
<time>2026-07-12T13:54:01.000Z</time>
|
|
</trkpt>
|
|
<trkpt lat="56.063752" lon="8.102318">
|
|
<ele>28.407056</ele>
|
|
<time>2026-07-12T13:54:02.000Z</time>
|
|
</trkpt>
|
|
<trkpt lat="56.063784" lon="8.102342">
|
|
<ele>28.412619</ele>
|
|
<time>2026-07-12T13:54:03.000Z</time>
|
|
</trkpt>
|
|
<trkpt lat="56.063817" lon="8.102364">
|
|
<ele>28.418265</ele>
|
|
<time>2026-07-12T13:54:04.000Z</time>
|
|
</trkpt>
|
|
<trkpt lat="56.063845" lon="8.102386">
|
|
<ele>28.423168</ele>
|
|
<time>2026-07-12T13:54:05.000Z</time>
|
|
</trkpt>
|
|
<trkpt lat="56.063874" lon="8.102408">
|
|
<ele>28.428218</ele>
|
|
<time>2026-07-12T13:54:06.000Z</time>
|
|
</trkpt>
|
|
<trkpt lat="56.063906" lon="8.102428">
|
|
<ele>28.433652</ele>
|
|
<time>2026-07-12T13:54:07.000Z</time>
|
|
</trkpt>
|
|
<trkpt lat="56.063942" lon="8.102444">
|
|
<ele>28.439600</ele>
|
|
<time>2026-07-12T13:54:08.000Z</time>
|
|
</trkpt>
|
|
<trkpt lat="56.063980" lon="8.102454">
|
|
<ele>28.445758</ele>
|
|
<time>2026-07-12T13:54:09.000Z</time>
|
|
</trkpt>
|
|
<trkpt lat="56.064018" lon="8.102461">
|
|
<ele>28.451884</ele>
|
|
<time>2026-07-12T13:54:10.000Z</time>
|
|
</trkpt>
|
|
<trkpt lat="56.064056" lon="8.102466">
|
|
<ele>28.457993</ele>
|
|
<time>2026-07-12T13:54:11.000Z</time>
|
|
</trkpt>
|
|
<trkpt lat="56.064094" lon="8.102470">
|
|
<ele>28.464097</ele>
|
|
<time>2026-07-12T13:54:12.000Z</time>
|
|
</trkpt>
|
|
<trkpt lat="56.064134" lon="8.102473">
|
|
<ele>28.470517</ele>
|
|
<time>2026-07-12T13:54:13.000Z</time>
|
|
</trkpt>
|
|
<trkpt lat="56.064173" lon="8.102476">
|
|
<ele>28.476776</ele>
|
|
<time>2026-07-12T13:54:14.000Z</time>
|
|
</trkpt>
|
|
<trkpt lat="56.064208" lon="8.102477">
|
|
<ele>28.482389</ele>
|
|
<time>2026-07-12T13:54:15.000Z</time>
|
|
</trkpt>
|
|
<trkpt lat="56.064247" lon="8.102480">
|
|
<ele>28.488648</ele>
|
|
<time>2026-07-12T13:54:16.000Z</time>
|
|
</trkpt>
|
|
<trkpt lat="56.064285" lon="8.102484">
|
|
<ele>28.494752</ele>
|
|
<time>2026-07-12T13:54:17.000Z</time>
|
|
</trkpt>
|
|
<trkpt lat="56.064325" lon="8.102491">
|
|
<ele>28.501196</ele>
|
|
<time>2026-07-12T13:54:18.000Z</time>
|
|
</trkpt>
|
|
<trkpt lat="56.064365" lon="8.102503">
|
|
<ele>28.507700</ele>
|
|
<time>2026-07-12T13:54:19.000Z</time>
|
|
</trkpt>
|
|
<trkpt lat="56.064404" lon="8.102521">
|
|
<ele>28.514157</ele>
|
|
<time>2026-07-12T13:54:20.000Z</time>
|
|
</trkpt>
|
|
<trkpt lat="56.064443" lon="8.102546">
|
|
<ele>28.520799</ele>
|
|
<time>2026-07-12T13:54:21.000Z</time>
|
|
</trkpt>
|
|
<trkpt lat="56.064480" lon="8.102576">
|
|
<ele>28.527312</ele>
|
|
<time>2026-07-12T13:54:22.000Z</time>
|
|
</trkpt>
|
|
<trkpt lat="56.064518" lon="8.102611">
|
|
<ele>28.534163</ele>
|
|
<time>2026-07-12T13:54:23.000Z</time>
|
|
</trkpt>
|
|
<trkpt lat="56.064554" lon="8.102650">
|
|
<ele>28.540909</ele>
|
|
<time>2026-07-12T13:54:24.000Z</time>
|
|
</trkpt>
|
|
<trkpt lat="56.064589" lon="8.102695">
|
|
<ele>28.547817</ele>
|
|
<time>2026-07-12T13:54:25.000Z</time>
|
|
</trkpt>
|
|
<trkpt lat="56.064625" lon="8.102742">
|
|
<ele>28.554960</ele>
|
|
<time>2026-07-12T13:54:26.000Z</time>
|
|
</trkpt>
|
|
<trkpt lat="56.064658" lon="8.102781">
|
|
<ele>28.561300</ele>
|
|
<time>2026-07-12T13:54:27.000Z</time>
|
|
</trkpt>
|
|
<trkpt lat="56.064692" lon="8.102814">
|
|
<ele>28.567501</ele>
|
|
<time>2026-07-12T13:54:28.000Z</time>
|
|
</trkpt>
|
|
<trkpt lat="56.064726" lon="8.102847">
|
|
<ele>28.573701</ele>
|
|
<time>2026-07-12T13:54:29.000Z</time>
|
|
</trkpt>
|
|
<trkpt lat="56.064760" lon="8.102880">
|
|
<ele>28.579902</ele>
|
|
<time>2026-07-12T13:54:30.000Z</time>
|
|
</trkpt>
|
|
<trkpt lat="56.064795" lon="8.102913">
|
|
<ele>28.586244</ele>
|
|
<time>2026-07-12T13:54:31.000Z</time>
|
|
</trkpt>
|
|
<trkpt lat="56.064829" lon="8.102954">
|
|
<ele>28.592816</ele>
|
|
<time>2026-07-12T13:54:32.000Z</time>
|
|
</trkpt>
|
|
<trkpt lat="56.064865" lon="8.102998">
|
|
<ele>28.599804</ele>
|
|
<time>2026-07-12T13:54:33.000Z</time>
|
|
</trkpt>
|
|
<trkpt lat="56.064901" lon="8.103043">
|
|
<ele>28.606843</ele>
|
|
<time>2026-07-12T13:54:34.000Z</time>
|
|
</trkpt>
|
|
<trkpt lat="56.064935" lon="8.103086">
|
|
<ele>28.613517</ele>
|
|
<time>2026-07-12T13:54:35.000Z</time>
|
|
</trkpt>
|
|
<trkpt lat="56.064967" lon="8.103130">
|
|
<ele>28.619986</ele>
|
|
<time>2026-07-12T13:54:36.000Z</time>
|
|
</trkpt>
|
|
<trkpt lat="56.064992" lon="8.103180">
|
|
<ele>28.625994</ele>
|
|
<time>2026-07-12T13:54:37.000Z</time>
|
|
</trkpt>
|
|
<trkpt lat="56.065015" lon="8.103239">
|
|
<ele>28.632436</ele>
|
|
<time>2026-07-12T13:54:38.000Z</time>
|
|
</trkpt>
|
|
<trkpt lat="56.065037" lon="8.103306">
|
|
<ele>28.638920</ele>
|
|
<time>2026-07-12T13:54:39.000Z</time>
|
|
</trkpt>
|
|
<trkpt lat="56.065059" lon="8.103377">
|
|
<ele>28.645204</ele>
|
|
<time>2026-07-12T13:54:40.000Z</time>
|
|
</trkpt>
|
|
<trkpt lat="56.065086" lon="8.103448">
|
|
<ele>28.651852</ele>
|
|
<time>2026-07-12T13:54:41.000Z</time>
|
|
</trkpt>
|
|
<trkpt lat="56.065112" lon="8.103512">
|
|
<ele>28.657978</ele>
|
|
<time>2026-07-12T13:54:42.000Z</time>
|
|
</trkpt>
|
|
<trkpt lat="56.065141" lon="8.103572">
|
|
<ele>28.664119</ele>
|
|
<time>2026-07-12T13:54:43.000Z</time>
|
|
</trkpt>
|
|
<trkpt lat="56.065171" lon="8.103633">
|
|
<ele>28.670411</ele>
|
|
<time>2026-07-12T13:54:44.000Z</time>
|
|
</trkpt>
|
|
<trkpt lat="56.065201" lon="8.103695">
|
|
<ele>28.676760</ele>
|
|
<time>2026-07-12T13:54:45.000Z</time>
|
|
</trkpt>
|
|
<trkpt lat="56.065234" lon="8.103754">
|
|
<ele>28.683223</ele>
|
|
<time>2026-07-12T13:54:46.000Z</time>
|
|
</trkpt>
|
|
<trkpt lat="56.065269" lon="8.103806">
|
|
<ele>28.689527</ele>
|
|
<time>2026-07-12T13:54:47.000Z</time>
|
|
</trkpt>
|
|
<trkpt lat="56.065305" lon="8.103848">
|
|
<ele>28.695482</ele>
|
|
<time>2026-07-12T13:54:48.000Z</time>
|
|
</trkpt>
|
|
<trkpt lat="56.065342" lon="8.103883">
|
|
<ele>28.701282</ele>
|
|
<time>2026-07-12T13:54:49.000Z</time>
|
|
</trkpt>
|
|
<trkpt lat="56.065378" lon="8.103916">
|
|
<ele>28.706888</ele>
|
|
<time>2026-07-12T13:54:50.000Z</time>
|
|
</trkpt>
|
|
<trkpt lat="56.065410" lon="8.103958">
|
|
<ele>28.712387</ele>
|
|
<time>2026-07-12T13:54:51.000Z</time>
|
|
</trkpt>
|
|
<trkpt lat="56.065432" lon="8.104014">
|
|
<ele>28.717687</ele>
|
|
<time>2026-07-12T13:54:52.000Z</time>
|
|
</trkpt>
|
|
<trkpt lat="56.065443" lon="8.104079">
|
|
<ele>28.722943</ele>
|
|
<time>2026-07-12T13:54:53.000Z</time>
|
|
</trkpt>
|
|
<trkpt lat="56.065446" lon="8.104152">
|
|
<ele>28.728607</ele>
|
|
<time>2026-07-12T13:54:54.000Z</time>
|
|
</trkpt>
|
|
<trkpt lat="56.065450" lon="8.104231">
|
|
<ele>28.734746</ele>
|
|
<time>2026-07-12T13:54:55.000Z</time>
|
|
</trkpt>
|
|
<trkpt lat="56.065454" lon="8.104313">
|
|
<ele>28.741115</ele>
|
|
<time>2026-07-12T13:54:56.000Z</time>
|
|
</trkpt>
|
|
<trkpt lat="56.065458" lon="8.104396">
|
|
<ele>28.747562</ele>
|
|
<time>2026-07-12T13:54:57.000Z</time>
|
|
</trkpt>
|
|
<trkpt lat="56.065460" lon="8.104478">
|
|
<ele>28.753914</ele>
|
|
<time>2026-07-12T13:54:58.000Z</time>
|
|
</trkpt>
|
|
<trkpt lat="56.065462" lon="8.104559">
|
|
<ele>28.760188</ele>
|
|
<time>2026-07-12T13:54:59.000Z</time>
|
|
</trkpt>
|
|
<trkpt lat="56.065466" lon="8.104641">
|
|
<ele>28.766558</ele>
|
|
<time>2026-07-12T13:55:00.000Z</time>
|
|
</trkpt>
|
|
<trkpt lat="56.065469" lon="8.104721">
|
|
<ele>28.772763</ele>
|
|
<time>2026-07-12T13:55:01.000Z</time>
|
|
</trkpt>
|
|
<trkpt lat="56.065472" lon="8.104800">
|
|
<ele>28.778891</ele>
|
|
<time>2026-07-12T13:55:02.000Z</time>
|
|
</trkpt>
|
|
<trkpt lat="56.065472" lon="8.104877">
|
|
<ele>28.784849</ele>
|
|
<time>2026-07-12T13:55:03.000Z</time>
|
|
</trkpt>
|
|
<trkpt lat="56.065473" lon="8.104953">
|
|
<ele>28.790732</ele>
|
|
<time>2026-07-12T13:55:04.000Z</time>
|
|
</trkpt>
|
|
<trkpt lat="56.065476" lon="8.105034">
|
|
<ele>28.797014</ele>
|
|
<time>2026-07-12T13:55:05.000Z</time>
|
|
</trkpt>
|
|
<trkpt lat="56.065477" lon="8.105118">
|
|
<ele>28.803516</ele>
|
|
<time>2026-07-12T13:55:06.000Z</time>
|
|
</trkpt>
|
|
<trkpt lat="56.065481" lon="8.105201">
|
|
<ele>28.809963</ele>
|
|
<time>2026-07-12T13:55:07.000Z</time>
|
|
</trkpt>
|
|
<trkpt lat="56.065483" lon="8.105283">
|
|
<ele>28.816315</ele>
|
|
<time>2026-07-12T13:55:08.000Z</time>
|
|
</trkpt>
|
|
<trkpt lat="56.065483" lon="8.105361">
|
|
<ele>28.822351</ele>
|
|
<time>2026-07-12T13:55:09.000Z</time>
|
|
</trkpt>
|
|
<trkpt lat="56.065482" lon="8.105435">
|
|
<ele>28.828079</ele>
|
|
<time>2026-07-12T13:55:10.000Z</time>
|
|
</trkpt>
|
|
<trkpt lat="56.065478" lon="8.105506">
|
|
<ele>28.833601</ele>
|
|
<time>2026-07-12T13:55:11.000Z</time>
|
|
</trkpt>
|
|
<trkpt lat="56.065474" lon="8.105577">
|
|
<ele>28.839123</ele>
|
|
<time>2026-07-12T13:55:12.000Z</time>
|
|
</trkpt>
|
|
<trkpt lat="56.065469" lon="8.105650">
|
|
<ele>28.844815</ele>
|
|
<time>2026-07-12T13:55:13.000Z</time>
|
|
</trkpt>
|
|
<trkpt lat="56.065463" lon="8.105725">
|
|
<ele>28.850678</ele>
|
|
<time>2026-07-12T13:55:14.000Z</time>
|
|
</trkpt>
|
|
<trkpt lat="56.065457" lon="8.105802">
|
|
<ele>28.856695</ele>
|
|
<time>2026-07-12T13:55:15.000Z</time>
|
|
</trkpt>
|
|
<trkpt lat="56.065448" lon="8.105879">
|
|
<ele>28.862783</ele>
|
|
<time>2026-07-12T13:55:16.000Z</time>
|
|
</trkpt>
|
|
<trkpt lat="56.065438" lon="8.105959">
|
|
<ele>28.869127</ele>
|
|
<time>2026-07-12T13:55:17.000Z</time>
|
|
</trkpt>
|
|
<trkpt lat="56.065429" lon="8.106045">
|
|
<ele>28.875898</ele>
|
|
<time>2026-07-12T13:55:18.000Z</time>
|
|
</trkpt>
|
|
<trkpt lat="56.065419" lon="8.106127">
|
|
<ele>28.882393</ele>
|
|
<time>2026-07-12T13:55:19.000Z</time>
|
|
</trkpt>
|
|
<trkpt lat="56.065411" lon="8.106207">
|
|
<ele>28.888883</ele>
|
|
<time>2026-07-12T13:55:20.000Z</time>
|
|
</trkpt>
|
|
<trkpt lat="56.065402" lon="8.106283">
|
|
<ele>28.895244</ele>
|
|
<time>2026-07-12T13:55:21.000Z</time>
|
|
</trkpt>
|
|
<trkpt lat="56.065393" lon="8.106359">
|
|
<ele>28.901605</ele>
|
|
<time>2026-07-12T13:55:22.000Z</time>
|
|
</trkpt>
|
|
<trkpt lat="56.065383" lon="8.106439">
|
|
<ele>28.908317</ele>
|
|
<time>2026-07-12T13:55:23.000Z</time>
|
|
</trkpt>
|
|
<trkpt lat="56.065372" lon="8.106521">
|
|
<ele>28.915222</ele>
|
|
<time>2026-07-12T13:55:24.000Z</time>
|
|
</trkpt>
|
|
<trkpt lat="56.065360" lon="8.106604">
|
|
<ele>28.922243</ele>
|
|
<time>2026-07-12T13:55:25.000Z</time>
|
|
</trkpt>
|
|
<trkpt lat="56.065349" lon="8.106689">
|
|
<ele>28.929387</ele>
|
|
<time>2026-07-12T13:55:26.000Z</time>
|
|
</trkpt>
|
|
<trkpt lat="56.065339" lon="8.106775">
|
|
<ele>28.936579</ele>
|
|
<time>2026-07-12T13:55:27.000Z</time>
|
|
</trkpt>
|
|
<trkpt lat="56.065331" lon="8.106864">
|
|
<ele>28.943960</ele>
|
|
<time>2026-07-12T13:55:28.000Z</time>
|
|
</trkpt>
|
|
<trkpt lat="56.065322" lon="8.106952">
|
|
<ele>28.951285</ele>
|
|
<time>2026-07-12T13:55:29.000Z</time>
|
|
</trkpt>
|
|
<trkpt lat="56.065311" lon="8.107039">
|
|
<ele>28.958589</ele>
|
|
<time>2026-07-12T13:55:30.000Z</time>
|
|
</trkpt>
|
|
<trkpt lat="56.065299" lon="8.107126">
|
|
<ele>28.965927</ele>
|
|
<time>2026-07-12T13:55:31.000Z</time>
|
|
</trkpt>
|
|
<trkpt lat="56.065288" lon="8.107216">
|
|
<ele>28.973470</ele>
|
|
<time>2026-07-12T13:55:32.000Z</time>
|
|
</trkpt>
|
|
<trkpt lat="56.065278" lon="8.107303">
|
|
<ele>28.980743</ele>
|
|
<time>2026-07-12T13:55:33.000Z</time>
|
|
</trkpt>
|
|
<trkpt lat="56.065269" lon="8.107387">
|
|
<ele>28.987746</ele>
|
|
<time>2026-07-12T13:55:34.000Z</time>
|
|
</trkpt>
|
|
<trkpt lat="56.065259" lon="8.107470">
|
|
<ele>28.994699</ele>
|
|
<time>2026-07-12T13:55:35.000Z</time>
|
|
</trkpt>
|
|
<trkpt lat="56.065251" lon="8.107555">
|
|
<ele>29.001756</ele>
|
|
<time>2026-07-12T13:55:36.000Z</time>
|
|
</trkpt>
|
|
<trkpt lat="56.065242" lon="8.107641">
|
|
<ele>29.008921</ele>
|
|
<time>2026-07-12T13:55:37.000Z</time>
|
|
</trkpt>
|
|
<trkpt lat="56.065232" lon="8.107727">
|
|
<ele>29.016113</ele>
|
|
<time>2026-07-12T13:55:38.000Z</time>
|
|
</trkpt>
|
|
<trkpt lat="56.065224" lon="8.107814">
|
|
<ele>29.023333</ele>
|
|
<time>2026-07-12T13:55:39.000Z</time>
|
|
</trkpt>
|
|
<trkpt lat="56.065217" lon="8.107902">
|
|
<ele>29.030611</ele>
|
|
<time>2026-07-12T13:55:40.000Z</time>
|
|
</trkpt>
|
|
<trkpt lat="56.065209" lon="8.107991">
|
|
<ele>29.037992</ele>
|
|
<time>2026-07-12T13:55:41.000Z</time>
|
|
</trkpt>
|
|
<trkpt lat="56.065200" lon="8.108081">
|
|
<ele>29.045478</ele>
|
|
<time>2026-07-12T13:55:42.000Z</time>
|
|
</trkpt>
|
|
<trkpt lat="56.065190" lon="8.108172">
|
|
<ele>29.053072</ele>
|
|
<time>2026-07-12T13:55:43.000Z</time>
|
|
</trkpt>
|
|
<trkpt lat="56.065181" lon="8.108264">
|
|
<ele>29.060719</ele>
|
|
<time>2026-07-12T13:55:44.000Z</time>
|
|
</trkpt>
|
|
<trkpt lat="56.065171" lon="8.108354">
|
|
<ele>29.068233</ele>
|
|
<time>2026-07-12T13:55:45.000Z</time>
|
|
</trkpt>
|
|
<trkpt lat="56.065162" lon="8.108445">
|
|
<ele>29.075800</ele>
|
|
<time>2026-07-12T13:55:46.000Z</time>
|
|
</trkpt>
|
|
<trkpt lat="56.065152" lon="8.108540">
|
|
<ele>29.083715</ele>
|
|
<time>2026-07-12T13:55:47.000Z</time>
|
|
</trkpt>
|
|
<trkpt lat="56.065144" lon="8.108631">
|
|
<ele>29.091258</ele>
|
|
<time>2026-07-12T13:55:48.000Z</time>
|
|
</trkpt>
|
|
<trkpt lat="56.065135" lon="8.108720">
|
|
<ele>29.098664</ele>
|
|
<time>2026-07-12T13:55:49.000Z</time>
|
|
</trkpt>
|
|
<trkpt lat="56.065125" lon="8.108809">
|
|
<ele>29.106097</ele>
|
|
<time>2026-07-12T13:55:50.000Z</time>
|
|
</trkpt>
|
|
<trkpt lat="56.065118" lon="8.108897">
|
|
<ele>29.113375</ele>
|
|
<time>2026-07-12T13:55:51.000Z</time>
|
|
</trkpt>
|
|
<trkpt lat="56.065110" lon="8.108984">
|
|
<ele>29.120594</ele>
|
|
<time>2026-07-12T13:55:52.000Z</time>
|
|
</trkpt>
|
|
<trkpt lat="56.065101" lon="8.109071">
|
|
<ele>29.127839</ele>
|
|
<time>2026-07-12T13:55:53.000Z</time>
|
|
</trkpt>
|
|
<trkpt lat="56.065091" lon="8.109157">
|
|
<ele>29.135032</ele>
|
|
<time>2026-07-12T13:55:54.000Z</time>
|
|
</trkpt>
|
|
<trkpt lat="56.065083" lon="8.109242">
|
|
<ele>29.142090</ele>
|
|
<time>2026-07-12T13:55:55.000Z</time>
|
|
</trkpt>
|
|
<trkpt lat="56.065077" lon="8.109325">
|
|
<ele>29.148942</ele>
|
|
<time>2026-07-12T13:55:56.000Z</time>
|
|
</trkpt>
|
|
<trkpt lat="56.065073" lon="8.109410">
|
|
<ele>29.130726</ele>
|
|
<time>2026-07-12T13:55:57.000Z</time>
|
|
</trkpt>
|
|
<trkpt lat="56.065068" lon="8.109497">
|
|
<ele>29.111689</ele>
|
|
<time>2026-07-12T13:55:58.000Z</time>
|
|
</trkpt>
|
|
<trkpt lat="56.065063" lon="8.109584">
|
|
<ele>29.092651</ele>
|
|
<time>2026-07-12T13:55:59.000Z</time>
|
|
</trkpt>
|
|
<trkpt lat="56.065062" lon="8.109671">
|
|
<ele>29.073710</ele>
|
|
<time>2026-07-12T13:56:00.000Z</time>
|
|
</trkpt>
|
|
<trkpt lat="56.065057" lon="8.109757">
|
|
<ele>29.054889</ele>
|
|
<time>2026-07-12T13:56:01.000Z</time>
|
|
</trkpt>
|
|
<trkpt lat="56.065051" lon="8.109842">
|
|
<ele>29.036239</ele>
|
|
<time>2026-07-12T13:56:02.000Z</time>
|
|
</trkpt>
|
|
<trkpt lat="56.065047" lon="8.109929">
|
|
<ele>29.017237</ele>
|
|
<time>2026-07-12T13:56:03.000Z</time>
|
|
</trkpt>
|
|
<trkpt lat="56.065043" lon="8.110016">
|
|
<ele>28.998236</ele>
|
|
<time>2026-07-12T13:56:04.000Z</time>
|
|
</trkpt>
|
|
<trkpt lat="56.065041" lon="8.110100">
|
|
<ele>28.979935</ele>
|
|
<time>2026-07-12T13:56:05.000Z</time>
|
|
</trkpt>
|
|
<trkpt lat="56.065039" lon="8.110183">
|
|
<ele>28.961851</ele>
|
|
<time>2026-07-12T13:56:06.000Z</time>
|
|
</trkpt>
|
|
<trkpt lat="56.065037" lon="8.110265">
|
|
<ele>28.943985</ele>
|
|
<time>2026-07-12T13:56:07.000Z</time>
|
|
</trkpt>
|
|
<trkpt lat="56.065040" lon="8.110345">
|
|
<ele>28.926532</ele>
|
|
<time>2026-07-12T13:56:08.000Z</time>
|
|
</trkpt>
|
|
<trkpt lat="56.065047" lon="8.110425">
|
|
<ele>28.908905</ele>
|
|
<time>2026-07-12T13:56:09.000Z</time>
|
|
</trkpt>
|
|
<trkpt lat="56.065058" lon="8.110505">
|
|
<ele>28.890971</ele>
|
|
<time>2026-07-12T13:56:10.000Z</time>
|
|
</trkpt>
|
|
<trkpt lat="56.065072" lon="8.110581">
|
|
<ele>28.873551</ele>
|
|
<time>2026-07-12T13:56:11.000Z</time>
|
|
</trkpt>
|
|
<trkpt lat="56.065085" lon="8.110653">
|
|
<ele>28.857079</ele>
|
|
<time>2026-07-12T13:56:12.000Z</time>
|
|
</trkpt>
|
|
<trkpt lat="56.065102" lon="8.110722">
|
|
<ele>28.840662</ele>
|
|
<time>2026-07-12T13:56:13.000Z</time>
|
|
</trkpt>
|
|
<trkpt lat="56.065122" lon="8.110785">
|
|
<ele>28.824886</ele>
|
|
<time>2026-07-12T13:56:14.000Z</time>
|
|
</trkpt>
|
|
<trkpt lat="56.065147" lon="8.110838">
|
|
<ele>28.809783</ele>
|
|
<time>2026-07-12T13:56:15.000Z</time>
|
|
</trkpt>
|
|
<trkpt lat="56.065175" lon="8.110880">
|
|
<ele>28.795543</ele>
|
|
<time>2026-07-12T13:56:16.000Z</time>
|
|
</trkpt>
|
|
<trkpt lat="56.065208" lon="8.110912">
|
|
<ele>28.780911</ele>
|
|
<time>2026-07-12T13:56:17.000Z</time>
|
|
</trkpt>
|
|
<trkpt lat="56.065246" lon="8.110935">
|
|
<ele>28.765271</ele>
|
|
<time>2026-07-12T13:56:18.000Z</time>
|
|
</trkpt>
|
|
<trkpt lat="56.065288" lon="8.110948">
|
|
<ele>28.748652</ele>
|
|
<time>2026-07-12T13:56:19.000Z</time>
|
|
</trkpt>
|
|
<trkpt lat="56.065335" lon="8.110953">
|
|
<ele>28.730293</ele>
|
|
<time>2026-07-12T13:56:20.000Z</time>
|
|
</trkpt>
|
|
<trkpt lat="56.065386" lon="8.110951">
|
|
<ele>28.710403</ele>
|
|
<time>2026-07-12T13:56:21.000Z</time>
|
|
</trkpt>
|
|
<trkpt lat="56.065440" lon="8.110949">
|
|
<ele>28.689343</ele>
|
|
<time>2026-07-12T13:56:22.000Z</time>
|
|
</trkpt>
|
|
<trkpt lat="56.065492" lon="8.110949">
|
|
<ele>28.669067</ele>
|
|
<time>2026-07-12T13:56:23.000Z</time>
|
|
</trkpt>
|
|
<trkpt lat="56.065539" lon="8.110954">
|
|
<ele>28.650708</ele>
|
|
<time>2026-07-12T13:56:24.000Z</time>
|
|
</trkpt>
|
|
<trkpt lat="56.065585" lon="8.110972">
|
|
<ele>28.632349</ele>
|
|
<time>2026-07-12T13:56:25.000Z</time>
|
|
</trkpt>
|
|
<trkpt lat="56.065629" lon="8.111003">
|
|
<ele>28.613913</ele>
|
|
<time>2026-07-12T13:56:26.000Z</time>
|
|
</trkpt>
|
|
<trkpt lat="56.065672" lon="8.111039">
|
|
<ele>28.595406</ele>
|
|
<time>2026-07-12T13:56:27.000Z</time>
|
|
</trkpt>
|
|
<trkpt lat="56.065712" lon="8.111077">
|
|
<ele>28.577752</ele>
|
|
<time>2026-07-12T13:56:28.000Z</time>
|
|
</trkpt>
|
|
<trkpt lat="56.065752" lon="8.111131">
|
|
<ele>28.558222</ele>
|
|
<time>2026-07-12T13:56:29.000Z</time>
|
|
</trkpt>
|
|
<trkpt lat="56.065794" lon="8.111206">
|
|
<ele>28.535098</ele>
|
|
<time>2026-07-12T13:56:30.000Z</time>
|
|
</trkpt>
|
|
<trkpt lat="56.065837" lon="8.111280">
|
|
<ele>28.511848</ele>
|
|
<time>2026-07-12T13:56:31.000Z</time>
|
|
</trkpt>
|
|
<trkpt lat="56.065865" lon="8.111333">
|
|
<ele>28.495965</ele>
|
|
<time>2026-07-12T13:56:32.000Z</time>
|
|
</trkpt>
|
|
<trkpt lat="56.065886" lon="8.111371">
|
|
<ele>28.484326</ele>
|
|
<time>2026-07-12T13:56:33.000Z</time>
|
|
</trkpt>
|
|
<trkpt lat="56.065913" lon="8.111418">
|
|
<ele>28.469646</ele>
|
|
<time>2026-07-12T13:56:34.000Z</time>
|
|
</trkpt>
|
|
<trkpt lat="56.065940" lon="8.111475">
|
|
<ele>28.453374</ele>
|
|
<time>2026-07-12T13:56:35.000Z</time>
|
|
</trkpt>
|
|
<trkpt lat="56.065967" lon="8.111533">
|
|
<ele>28.441779</ele>
|
|
<time>2026-07-12T13:56:36.000Z</time>
|
|
</trkpt>
|
|
<trkpt lat="56.065995" lon="8.111596">
|
|
<ele>28.432128</ele>
|
|
<time>2026-07-12T13:56:37.000Z</time>
|
|
</trkpt>
|
|
<trkpt lat="56.066024" lon="8.111664">
|
|
<ele>28.421873</ele>
|
|
<time>2026-07-12T13:56:38.000Z</time>
|
|
</trkpt>
|
|
<trkpt lat="56.066052" lon="8.111727">
|
|
<ele>28.412222</ele>
|
|
<time>2026-07-12T13:56:39.000Z</time>
|
|
</trkpt>
|
|
<trkpt lat="56.066080" lon="8.111788">
|
|
<ele>28.402757</ele>
|
|
<time>2026-07-12T13:56:40.000Z</time>
|
|
</trkpt>
|
|
<trkpt lat="56.066100" lon="8.111854">
|
|
<ele>28.393757</ele>
|
|
<time>2026-07-12T13:56:41.000Z</time>
|
|
</trkpt>
|
|
<trkpt lat="56.066115" lon="8.111924">
|
|
<ele>28.384771</ele>
|
|
<time>2026-07-12T13:56:42.000Z</time>
|
|
</trkpt>
|
|
<trkpt lat="56.066130" lon="8.111993">
|
|
<ele>28.375897</ele>
|
|
<time>2026-07-12T13:56:43.000Z</time>
|
|
</trkpt>
|
|
<trkpt lat="56.066147" lon="8.112061">
|
|
<ele>28.366967</ele>
|
|
<time>2026-07-12T13:56:44.000Z</time>
|
|
</trkpt>
|
|
<trkpt lat="56.066166" lon="8.112127">
|
|
<ele>28.358067</ele>
|
|
<time>2026-07-12T13:56:45.000Z</time>
|
|
</trkpt>
|
|
<trkpt lat="56.066185" lon="8.112190">
|
|
<ele>28.349486</ele>
|
|
<time>2026-07-12T13:56:46.000Z</time>
|
|
</trkpt>
|
|
<trkpt lat="56.066207" lon="8.112249">
|
|
<ele>28.340982</ele>
|
|
<time>2026-07-12T13:56:47.000Z</time>
|
|
</trkpt>
|
|
<trkpt lat="56.066234" lon="8.112303">
|
|
<ele>28.332294</ele>
|
|
<time>2026-07-12T13:56:48.000Z</time>
|
|
</trkpt>
|
|
<trkpt lat="56.066264" lon="8.112350">
|
|
<ele>28.323738</ele>
|
|
<time>2026-07-12T13:56:49.000Z</time>
|
|
</trkpt>
|
|
<trkpt lat="56.066299" lon="8.112390">
|
|
<ele>28.314825</ele>
|
|
<time>2026-07-12T13:56:50.000Z</time>
|
|
</trkpt>
|
|
<trkpt lat="56.066336" lon="8.112419">
|
|
<ele>28.306155</ele>
|
|
<time>2026-07-12T13:56:51.000Z</time>
|
|
</trkpt>
|
|
<trkpt lat="56.066372" lon="8.112441">
|
|
<ele>28.297989</ele>
|
|
<time>2026-07-12T13:56:52.000Z</time>
|
|
</trkpt>
|
|
<trkpt lat="56.066412" lon="8.112458">
|
|
<ele>28.289163</ele>
|
|
<time>2026-07-12T13:56:53.000Z</time>
|
|
</trkpt>
|
|
<trkpt lat="56.066452" lon="8.112474">
|
|
<ele>28.280364</ele>
|
|
<time>2026-07-12T13:56:54.000Z</time>
|
|
</trkpt>
|
|
<trkpt lat="56.066490" lon="8.112490">
|
|
<ele>28.271983</ele>
|
|
<time>2026-07-12T13:56:55.000Z</time>
|
|
</trkpt>
|
|
<trkpt lat="56.066530" lon="8.112506">
|
|
<ele>28.263184</ele>
|
|
<time>2026-07-12T13:56:56.000Z</time>
|
|
</trkpt>
|
|
<trkpt lat="56.066570" lon="8.112521">
|
|
<ele>28.254411</ele>
|
|
<time>2026-07-12T13:56:57.000Z</time>
|
|
</trkpt>
|
|
<trkpt lat="56.066608" lon="8.112533">
|
|
<ele>28.246127</ele>
|
|
<time>2026-07-12T13:56:58.000Z</time>
|
|
</trkpt>
|
|
<trkpt lat="56.066647" lon="8.112544">
|
|
<ele>28.237651</ele>
|
|
<time>2026-07-12T13:56:59.000Z</time>
|
|
</trkpt>
|
|
<trkpt lat="56.066685" lon="8.112554">
|
|
<ele>28.229405</ele>
|
|
<time>2026-07-12T13:57:00.000Z</time>
|
|
</trkpt>
|
|
<trkpt lat="56.066721" lon="8.112566">
|
|
<ele>28.221544</ele>
|
|
<time>2026-07-12T13:57:01.000Z</time>
|
|
</trkpt>
|
|
<trkpt lat="56.066756" lon="8.112577">
|
|
<ele>28.213915</ele>
|
|
<time>2026-07-12T13:57:02.000Z</time>
|
|
</trkpt>
|
|
<trkpt lat="56.066788" lon="8.112587">
|
|
<ele>28.206941</ele>
|
|
<time>2026-07-12T13:57:03.000Z</time>
|
|
</trkpt>
|
|
<trkpt lat="56.066820" lon="8.112598">
|
|
<ele>28.199946</ele>
|
|
<time>2026-07-12T13:57:04.000Z</time>
|
|
</trkpt>
|
|
<trkpt lat="56.066855" lon="8.112611">
|
|
<ele>28.192272</ele>
|
|
<time>2026-07-12T13:57:05.000Z</time>
|
|
</trkpt>
|
|
<trkpt lat="56.066889" lon="8.112626">
|
|
<ele>28.184754</ele>
|
|
<time>2026-07-12T13:57:06.000Z</time>
|
|
</trkpt>
|
|
<trkpt lat="56.066925" lon="8.112638">
|
|
<ele>28.176893</ele>
|
|
<time>2026-07-12T13:57:07.000Z</time>
|
|
</trkpt>
|
|
<trkpt lat="56.066962" lon="8.112649">
|
|
<ele>28.168841</ele>
|
|
<time>2026-07-12T13:57:08.000Z</time>
|
|
</trkpt>
|
|
<trkpt lat="56.066996" lon="8.112658">
|
|
<ele>28.161462</ele>
|
|
<time>2026-07-12T13:57:09.000Z</time>
|
|
</trkpt>
|
|
<trkpt lat="56.067030" lon="8.112667">
|
|
<ele>28.154084</ele>
|
|
<time>2026-07-12T13:57:10.000Z</time>
|
|
</trkpt>
|
|
<trkpt lat="56.067065" lon="8.112676">
|
|
<ele>28.146493</ele>
|
|
<time>2026-07-12T13:57:11.000Z</time>
|
|
</trkpt>
|
|
<trkpt lat="56.067099" lon="8.112687">
|
|
<ele>28.139075</ele>
|
|
<time>2026-07-12T13:57:12.000Z</time>
|
|
</trkpt>
|
|
<trkpt lat="56.067134" lon="8.112701">
|
|
<ele>28.131376</ele>
|
|
<time>2026-07-12T13:57:13.000Z</time>
|
|
</trkpt>
|
|
<trkpt lat="56.067172" lon="8.112717">
|
|
<ele>28.122996</ele>
|
|
<time>2026-07-12T13:57:14.000Z</time>
|
|
</trkpt>
|
|
<trkpt lat="56.067212" lon="8.112732">
|
|
<ele>28.114222</ele>
|
|
<time>2026-07-12T13:57:15.000Z</time>
|
|
</trkpt>
|
|
<trkpt lat="56.067254" lon="8.112747">
|
|
<ele>28.105028</ele>
|
|
<time>2026-07-12T13:57:16.000Z</time>
|
|
</trkpt>
|
|
<trkpt lat="56.067296" lon="8.112759">
|
|
<ele>28.095897</ele>
|
|
<time>2026-07-12T13:57:17.000Z</time>
|
|
</trkpt>
|
|
<trkpt lat="56.067337" lon="8.112770">
|
|
<ele>28.086997</ele>
|
|
<time>2026-07-12T13:57:18.000Z</time>
|
|
</trkpt>
|
|
<trkpt lat="56.067377" lon="8.112781">
|
|
<ele>28.078308</ele>
|
|
<time>2026-07-12T13:57:19.000Z</time>
|
|
</trkpt>
|
|
<trkpt lat="56.067417" lon="8.112790">
|
|
<ele>28.069653</ele>
|
|
<time>2026-07-12T13:57:20.000Z</time>
|
|
</trkpt>
|
|
<trkpt lat="56.067455" lon="8.112801">
|
|
<ele>28.061951</ele>
|
|
<time>2026-07-12T13:57:21.000Z</time>
|
|
</trkpt>
|
|
<trkpt lat="56.067493" lon="8.112812">
|
|
<ele>28.079710</ele>
|
|
<time>2026-07-12T13:57:22.000Z</time>
|
|
</trkpt>
|
|
<trkpt lat="56.067533" lon="8.112819">
|
|
<ele>28.098252</ele>
|
|
<time>2026-07-12T13:57:23.000Z</time>
|
|
</trkpt>
|
|
<trkpt lat="56.067575" lon="8.112827">
|
|
<ele>28.117739</ele>
|
|
<time>2026-07-12T13:57:24.000Z</time>
|
|
</trkpt>
|
|
<trkpt lat="56.067615" lon="8.112838">
|
|
<ele>28.136410</ele>
|
|
<time>2026-07-12T13:57:25.000Z</time>
|
|
</trkpt>
|
|
<trkpt lat="56.067654" lon="8.112849">
|
|
<ele>28.154625</ele>
|
|
<time>2026-07-12T13:57:26.000Z</time>
|
|
</trkpt>
|
|
<trkpt lat="56.067696" lon="8.112860">
|
|
<ele>28.174208</ele>
|
|
<time>2026-07-12T13:57:27.000Z</time>
|
|
</trkpt>
|
|
<trkpt lat="56.067737" lon="8.112872">
|
|
<ele>28.193375</ele>
|
|
<time>2026-07-12T13:57:28.000Z</time>
|
|
</trkpt>
|
|
<trkpt lat="56.067774" lon="8.112880">
|
|
<ele>28.210569</ele>
|
|
<time>2026-07-12T13:57:29.000Z</time>
|
|
</trkpt>
|
|
<trkpt lat="56.067811" lon="8.112890">
|
|
<ele>28.227833</ele>
|
|
<time>2026-07-12T13:57:30.000Z</time>
|
|
</trkpt>
|
|
<trkpt lat="56.067856" lon="8.112901">
|
|
<ele>28.248787</ele>
|
|
<time>2026-07-12T13:57:31.000Z</time>
|
|
</trkpt>
|
|
<trkpt lat="56.067896" lon="8.112910">
|
|
<ele>28.267386</ele>
|
|
<time>2026-07-12T13:57:32.000Z</time>
|
|
</trkpt>
|
|
<trkpt lat="56.067936" lon="8.112919">
|
|
<ele>28.285986</ele>
|
|
<time>2026-07-12T13:57:33.000Z</time>
|
|
</trkpt>
|
|
<trkpt lat="56.067975" lon="8.112926">
|
|
<ele>28.304069</ele>
|
|
<time>2026-07-12T13:57:34.000Z</time>
|
|
</trkpt>
|
|
<trkpt lat="56.068017" lon="8.112933">
|
|
<ele>28.323530</ele>
|
|
<time>2026-07-12T13:57:35.000Z</time>
|
|
</trkpt>
|
|
<trkpt lat="56.068058" lon="8.112942">
|
|
<ele>28.342588</ele>
|
|
<time>2026-07-12T13:57:36.000Z</time>
|
|
</trkpt>
|
|
<trkpt lat="56.068097" lon="8.112952">
|
|
<ele>28.360764</ele>
|
|
<time>2026-07-12T13:57:37.000Z</time>
|
|
</trkpt>
|
|
<trkpt lat="56.068138" lon="8.112963">
|
|
<ele>28.379891</ele>
|
|
<time>2026-07-12T13:57:38.000Z</time>
|
|
</trkpt>
|
|
<trkpt lat="56.068178" lon="8.112976">
|
|
<ele>28.398647</ele>
|
|
<time>2026-07-12T13:57:39.000Z</time>
|
|
</trkpt>
|
|
<trkpt lat="56.068218" lon="8.112990">
|
|
<ele>28.417450</ele>
|
|
<time>2026-07-12T13:57:40.000Z</time>
|
|
</trkpt>
|
|
<trkpt lat="56.068258" lon="8.113004">
|
|
<ele>28.436254</ele>
|
|
<time>2026-07-12T13:57:41.000Z</time>
|
|
</trkpt>
|
|
<trkpt lat="56.068299" lon="8.113019">
|
|
<ele>28.455560</ele>
|
|
<time>2026-07-12T13:57:42.000Z</time>
|
|
</trkpt>
|
|
<trkpt lat="56.068340" lon="8.113030">
|
|
<ele>28.474687</ele>
|
|
<time>2026-07-12T13:57:43.000Z</time>
|
|
</trkpt>
|
|
<trkpt lat="56.068380" lon="8.113038">
|
|
<ele>28.493256</ele>
|
|
<time>2026-07-12T13:57:44.000Z</time>
|
|
</trkpt>
|
|
<trkpt lat="56.068420" lon="8.113044">
|
|
<ele>28.511776</ele>
|
|
<time>2026-07-12T13:57:45.000Z</time>
|
|
</trkpt>
|
|
<trkpt lat="56.068457" lon="8.113046">
|
|
<ele>28.528854</ele>
|
|
<time>2026-07-12T13:57:46.000Z</time>
|
|
</trkpt>
|
|
<trkpt lat="56.068493" lon="8.113044">
|
|
<ele>28.545471</ele>
|
|
<time>2026-07-12T13:57:47.000Z</time>
|
|
</trkpt>
|
|
<trkpt lat="56.068523" lon="8.113041">
|
|
<ele>28.559334</ele>
|
|
<time>2026-07-12T13:57:48.000Z</time>
|
|
</trkpt>
|
|
<trkpt lat="56.068554" lon="8.113039">
|
|
<ele>28.573645</ele>
|
|
<time>2026-07-12T13:57:49.000Z</time>
|
|
</trkpt>
|
|
<trkpt lat="56.068583" lon="8.113037">
|
|
<ele>28.587035</ele>
|
|
<time>2026-07-12T13:57:50.000Z</time>
|
|
</trkpt>
|
|
<trkpt lat="56.068609" lon="8.113034">
|
|
<ele>28.599055</ele>
|
|
<time>2026-07-12T13:57:51.000Z</time>
|
|
</trkpt>
|
|
<trkpt lat="56.068637" lon="8.113030">
|
|
<ele>28.612014</ele>
|
|
<time>2026-07-12T13:57:52.000Z</time>
|
|
</trkpt>
|
|
<trkpt lat="56.068667" lon="8.113027">
|
|
<ele>28.625877</ele>
|
|
<time>2026-07-12T13:57:53.000Z</time>
|
|
</trkpt>
|
|
<trkpt lat="56.068697" lon="8.113021">
|
|
<ele>28.639804</ele>
|
|
<time>2026-07-12T13:57:54.000Z</time>
|
|
</trkpt>
|
|
<trkpt lat="56.068731" lon="8.113015">
|
|
<ele>28.655566</ele>
|
|
<time>2026-07-12T13:57:55.000Z</time>
|
|
</trkpt>
|
|
<trkpt lat="56.068765" lon="8.113010">
|
|
<ele>28.671305</ele>
|
|
<time>2026-07-12T13:57:56.000Z</time>
|
|
</trkpt>
|
|
<trkpt lat="56.068799" lon="8.113007">
|
|
<ele>28.687011</ele>
|
|
<time>2026-07-12T13:57:57.000Z</time>
|
|
</trkpt>
|
|
<trkpt lat="56.068831" lon="8.113012">
|
|
<ele>28.701830</ele>
|
|
<time>2026-07-12T13:57:58.000Z</time>
|
|
</trkpt>
|
|
<trkpt lat="56.068864" lon="8.113023">
|
|
<ele>28.717317</ele>
|
|
<time>2026-07-12T13:57:59.000Z</time>
|
|
</trkpt>
|
|
<trkpt lat="56.068894" lon="8.113037">
|
|
<ele>28.731620</ele>
|
|
<time>2026-07-12T13:58:00.000Z</time>
|
|
</trkpt>
|
|
<trkpt lat="56.068926" lon="8.113049">
|
|
<ele>28.746703</ele>
|
|
<time>2026-07-12T13:58:01.000Z</time>
|
|
</trkpt>
|
|
<trkpt lat="56.068959" lon="8.113058">
|
|
<ele>28.762104</ele>
|
|
<time>2026-07-12T13:58:02.000Z</time>
|
|
</trkpt>
|
|
<trkpt lat="56.068991" lon="8.113068">
|
|
<ele>28.777090</ele>
|
|
<time>2026-07-12T13:58:03.000Z</time>
|
|
</trkpt>
|
|
<trkpt lat="56.069024" lon="8.113079">
|
|
<ele>28.792577</ele>
|
|
<time>2026-07-12T13:58:04.000Z</time>
|
|
</trkpt>
|
|
<trkpt lat="56.069057" lon="8.113087">
|
|
<ele>28.807940</ele>
|
|
<time>2026-07-12T13:58:05.000Z</time>
|
|
</trkpt>
|
|
<trkpt lat="56.069097" lon="8.113094">
|
|
<ele>28.826483</ele>
|
|
<time>2026-07-12T13:58:06.000Z</time>
|
|
</trkpt>
|
|
<trkpt lat="56.069139" lon="8.113102">
|
|
<ele>28.845969</ele>
|
|
<time>2026-07-12T13:58:07.000Z</time>
|
|
</trkpt>
|
|
<trkpt lat="56.069181" lon="8.113110">
|
|
<ele>28.865456</ele>
|
|
<time>2026-07-12T13:58:08.000Z</time>
|
|
</trkpt>
|
|
<trkpt lat="56.069223" lon="8.113121">
|
|
<ele>28.885039</ele>
|
|
<time>2026-07-12T13:58:09.000Z</time>
|
|
</trkpt>
|
|
<trkpt lat="56.069266" lon="8.113132">
|
|
<ele>28.883815</ele>
|
|
<time>2026-07-12T13:58:10.000Z</time>
|
|
</trkpt>
|
|
<trkpt lat="56.069311" lon="8.113140">
|
|
<ele>28.872250</ele>
|
|
<time>2026-07-12T13:58:11.000Z</time>
|
|
</trkpt>
|
|
<trkpt lat="56.069353" lon="8.113149">
|
|
<ele>28.861432</ele>
|
|
<time>2026-07-12T13:58:12.000Z</time>
|
|
</trkpt>
|
|
<trkpt lat="56.069394" lon="8.113160">
|
|
<ele>28.850829</ele>
|
|
<time>2026-07-12T13:58:13.000Z</time>
|
|
</trkpt>
|
|
<trkpt lat="56.069437" lon="8.113173">
|
|
<ele>28.839676</ele>
|
|
<time>2026-07-12T13:58:14.000Z</time>
|
|
</trkpt>
|
|
<trkpt lat="56.069477" lon="8.113187">
|
|
<ele>28.829253</ele>
|
|
<time>2026-07-12T13:58:15.000Z</time>
|
|
</trkpt>
|
|
<trkpt lat="56.069514" lon="8.113198">
|
|
<ele>28.819661</ele>
|
|
<time>2026-07-12T13:58:16.000Z</time>
|
|
</trkpt>
|
|
<trkpt lat="56.069549" lon="8.113202">
|
|
<ele>28.810691</ele>
|
|
<time>2026-07-12T13:58:17.000Z</time>
|
|
</trkpt>
|
|
<trkpt lat="56.069586" lon="8.113205">
|
|
<ele>28.801219</ele>
|
|
<time>2026-07-12T13:58:18.000Z</time>
|
|
</trkpt>
|
|
<trkpt lat="56.069620" lon="8.113210">
|
|
<ele>28.792494</ele>
|
|
<time>2026-07-12T13:58:19.000Z</time>
|
|
</trkpt>
|
|
<trkpt lat="56.069654" lon="8.113220">
|
|
<ele>28.783682</ele>
|
|
<time>2026-07-12T13:58:20.000Z</time>
|
|
</trkpt>
|
|
<trkpt lat="56.069691" lon="8.113231">
|
|
<ele>28.774090</ele>
|
|
<time>2026-07-12T13:58:21.000Z</time>
|
|
</trkpt>
|
|
<trkpt lat="56.069727" lon="8.113240">
|
|
<ele>28.764793</ele>
|
|
<time>2026-07-12T13:58:22.000Z</time>
|
|
</trkpt>
|
|
<trkpt lat="56.069762" lon="8.113250">
|
|
<ele>28.755729</ele>
|
|
<time>2026-07-12T13:58:23.000Z</time>
|
|
</trkpt>
|
|
<trkpt lat="56.069794" lon="8.113264">
|
|
<ele>28.747305</ele>
|
|
<time>2026-07-12T13:58:24.000Z</time>
|
|
</trkpt>
|
|
<trkpt lat="56.069825" lon="8.113280">
|
|
<ele>28.739054</ele>
|
|
<time>2026-07-12T13:58:25.000Z</time>
|
|
</trkpt>
|
|
<trkpt lat="56.069855" lon="8.113296">
|
|
<ele>28.731048</ele>
|
|
<time>2026-07-12T13:58:26.000Z</time>
|
|
</trkpt>
|
|
<trkpt lat="56.069887" lon="8.113314">
|
|
<ele>28.722471</ele>
|
|
<time>2026-07-12T13:58:27.000Z</time>
|
|
</trkpt>
|
|
<trkpt lat="56.069922" lon="8.113332">
|
|
<ele>28.713158</ele>
|
|
<time>2026-07-12T13:58:28.000Z</time>
|
|
</trkpt>
|
|
<trkpt lat="56.069956" lon="8.113349">
|
|
<ele>28.704130</ele>
|
|
<time>2026-07-12T13:58:29.000Z</time>
|
|
</trkpt>
|
|
<trkpt lat="56.069990" lon="8.113368">
|
|
<ele>28.695021</ele>
|
|
<time>2026-07-12T13:58:30.000Z</time>
|
|
</trkpt>
|
|
<trkpt lat="56.070026" lon="8.113387">
|
|
<ele>28.685423</ele>
|
|
<time>2026-07-12T13:58:31.000Z</time>
|
|
</trkpt>
|
|
<trkpt lat="56.070062" lon="8.113403">
|
|
<ele>28.675937</ele>
|
|
<time>2026-07-12T13:58:32.000Z</time>
|
|
</trkpt>
|
|
<trkpt lat="56.070100" lon="8.113418">
|
|
<ele>28.665985</ele>
|
|
<time>2026-07-12T13:58:33.000Z</time>
|
|
</trkpt>
|
|
<trkpt lat="56.070139" lon="8.113430">
|
|
<ele>28.655865</ele>
|
|
<time>2026-07-12T13:58:34.000Z</time>
|
|
</trkpt>
|
|
<trkpt lat="56.070175" lon="8.113441">
|
|
<ele>28.646525</ele>
|
|
<time>2026-07-12T13:58:35.000Z</time>
|
|
</trkpt>
|
|
<trkpt lat="56.070212" lon="8.113452">
|
|
<ele>28.636933</ele>
|
|
<time>2026-07-12T13:58:36.000Z</time>
|
|
</trkpt>
|
|
<trkpt lat="56.070246" lon="8.113460">
|
|
<ele>28.628162</ele>
|
|
<time>2026-07-12T13:58:37.000Z</time>
|
|
</trkpt>
|
|
<trkpt lat="56.070281" lon="8.113465">
|
|
<ele>28.619183</ele>
|
|
<time>2026-07-12T13:58:38.000Z</time>
|
|
</trkpt>
|
|
<trkpt lat="56.070316" lon="8.113468">
|
|
<ele>28.610221</ele>
|
|
<time>2026-07-12T13:58:39.000Z</time>
|
|
</trkpt>
|
|
<trkpt lat="56.070352" lon="8.113471">
|
|
<ele>28.601004</ele>
|
|
<time>2026-07-12T13:58:40.000Z</time>
|
|
</trkpt>
|
|
<trkpt lat="56.070388" lon="8.113471">
|
|
<ele>28.591797</ele>
|
|
<time>2026-07-12T13:58:41.000Z</time>
|
|
</trkpt>
|
|
<trkpt lat="56.070426" lon="8.113469">
|
|
<ele>28.582074</ele>
|
|
<time>2026-07-12T13:58:42.000Z</time>
|
|
</trkpt>
|
|
<trkpt lat="56.070466" lon="8.113466">
|
|
<ele>28.571835</ele>
|
|
<time>2026-07-12T13:58:43.000Z</time>
|
|
</trkpt>
|
|
<trkpt lat="56.070510" lon="8.113459">
|
|
<ele>28.560538</ele>
|
|
<time>2026-07-12T13:58:44.000Z</time>
|
|
</trkpt>
|
|
<trkpt lat="56.070554" lon="8.113444">
|
|
<ele>28.549083</ele>
|
|
<time>2026-07-12T13:58:45.000Z</time>
|
|
</trkpt>
|
|
<trkpt lat="56.070595" lon="8.113425">
|
|
<ele>28.538252</ele>
|
|
<time>2026-07-12T13:58:46.000Z</time>
|
|
</trkpt>
|
|
<trkpt lat="56.070635" lon="8.113403">
|
|
<ele>28.527551</ele>
|
|
<time>2026-07-12T13:58:47.000Z</time>
|
|
</trkpt>
|
|
<trkpt lat="56.070674" lon="8.113381">
|
|
<ele>28.517094</ele>
|
|
<time>2026-07-12T13:58:48.000Z</time>
|
|
</trkpt>
|
|
<trkpt lat="56.070711" lon="8.113364">
|
|
<ele>28.507325</ele>
|
|
<time>2026-07-12T13:58:49.000Z</time>
|
|
</trkpt>
|
|
<trkpt lat="56.070746" lon="8.113353">
|
|
<ele>28.498237</ele>
|
|
<time>2026-07-12T13:58:50.000Z</time>
|
|
</trkpt>
|
|
<trkpt lat="56.070782" lon="8.113348">
|
|
<ele>28.489002</ele>
|
|
<time>2026-07-12T13:58:51.000Z</time>
|
|
</trkpt>
|
|
<trkpt lat="56.070817" lon="8.113351">
|
|
<ele>28.480041</ele>
|
|
<time>2026-07-12T13:58:52.000Z</time>
|
|
</trkpt>
|
|
<trkpt lat="56.070847" lon="8.113357">
|
|
<ele>28.472320</ele>
|
|
<time>2026-07-12T13:58:53.000Z</time>
|
|
</trkpt>
|
|
<trkpt lat="56.070878" lon="8.113365">
|
|
<ele>28.464310</ele>
|
|
<time>2026-07-12T13:58:54.000Z</time>
|
|
</trkpt>
|
|
<trkpt lat="56.070908" lon="8.113374">
|
|
<ele>28.456531</ele>
|
|
<time>2026-07-12T13:58:55.000Z</time>
|
|
</trkpt>
|
|
<trkpt lat="56.070937" lon="8.113382">
|
|
<ele>28.449027</ele>
|
|
<time>2026-07-12T13:58:56.000Z</time>
|
|
</trkpt>
|
|
<trkpt lat="56.070967" lon="8.113384">
|
|
<ele>28.441349</ele>
|
|
<time>2026-07-12T13:58:57.000Z</time>
|
|
</trkpt>
|
|
<trkpt lat="56.071001" lon="8.113383">
|
|
<ele>28.432652</ele>
|
|
<time>2026-07-12T13:58:58.000Z</time>
|
|
</trkpt>
|
|
<trkpt lat="56.071037" lon="8.113378">
|
|
<ele>28.421139</ele>
|
|
<time>2026-07-12T13:58:59.000Z</time>
|
|
</trkpt>
|
|
<trkpt lat="56.071075" lon="8.113371">
|
|
<ele>28.408578</ele>
|
|
<time>2026-07-12T13:59:00.000Z</time>
|
|
</trkpt>
|
|
<trkpt lat="56.071116" lon="8.113365">
|
|
<ele>28.395052</ele>
|
|
<time>2026-07-12T13:59:01.000Z</time>
|
|
</trkpt>
|
|
<trkpt lat="56.071161" lon="8.113356">
|
|
<ele>28.380164</ele>
|
|
<time>2026-07-12T13:59:02.000Z</time>
|
|
</trkpt>
|
|
<trkpt lat="56.071210" lon="8.113342">
|
|
<ele>28.363849</ele>
|
|
<time>2026-07-12T13:59:03.000Z</time>
|
|
</trkpt>
|
|
<trkpt lat="56.071258" lon="8.113327">
|
|
<ele>28.347828</ele>
|
|
<time>2026-07-12T13:59:04.000Z</time>
|
|
</trkpt>
|
|
<trkpt lat="56.071303" lon="8.113306">
|
|
<ele>28.332538</ele>
|
|
<time>2026-07-12T13:59:05.000Z</time>
|
|
</trkpt>
|
|
<trkpt lat="56.071346" lon="8.113280">
|
|
<ele>28.317616</ele>
|
|
<time>2026-07-12T13:59:06.000Z</time>
|
|
</trkpt>
|
|
<trkpt lat="56.071386" lon="8.113251">
|
|
<ele>28.303428</ele>
|
|
<time>2026-07-12T13:59:07.000Z</time>
|
|
</trkpt>
|
|
<trkpt lat="56.071433" lon="8.113207">
|
|
<ele>28.285991</ele>
|
|
<time>2026-07-12T13:59:08.000Z</time>
|
|
</trkpt>
|
|
<trkpt lat="56.071476" lon="8.113167">
|
|
<ele>28.270060</ele>
|
|
<time>2026-07-12T13:59:09.000Z</time>
|
|
</trkpt>
|
|
<trkpt lat="56.071514" lon="8.113125">
|
|
<ele>28.255379</ele>
|
|
<time>2026-07-12T13:59:10.000Z</time>
|
|
</trkpt>
|
|
<trkpt lat="56.071554" lon="8.113080">
|
|
<ele>28.239849</ele>
|
|
<time>2026-07-12T13:59:11.000Z</time>
|
|
</trkpt>
|
|
<trkpt lat="56.071595" lon="8.113036">
|
|
<ele>28.224134</ele>
|
|
<time>2026-07-12T13:59:12.000Z</time>
|
|
</trkpt>
|
|
<trkpt lat="56.071638" lon="8.112991">
|
|
<ele>28.207760</ele>
|
|
<time>2026-07-12T13:59:13.000Z</time>
|
|
</trkpt>
|
|
<trkpt lat="56.071680" lon="8.112945">
|
|
<ele>28.191574</ele>
|
|
<time>2026-07-12T13:59:14.000Z</time>
|
|
</trkpt>
|
|
<trkpt lat="56.071721" lon="8.112899">
|
|
<ele>28.175668</ele>
|
|
<time>2026-07-12T13:59:15.000Z</time>
|
|
</trkpt>
|
|
<trkpt lat="56.071763" lon="8.112857">
|
|
<ele>28.159853</ele>
|
|
<time>2026-07-12T13:59:16.000Z</time>
|
|
</trkpt>
|
|
<trkpt lat="56.071805" lon="8.112817">
|
|
<ele>28.144213</ele>
|
|
<time>2026-07-12T13:59:17.000Z</time>
|
|
</trkpt>
|
|
<trkpt lat="56.071847" lon="8.112775">
|
|
<ele>28.128398</ele>
|
|
<time>2026-07-12T13:59:18.000Z</time>
|
|
</trkpt>
|
|
<trkpt lat="56.071890" lon="8.112733">
|
|
<ele>28.112294</ele>
|
|
<time>2026-07-12T13:59:19.000Z</time>
|
|
</trkpt>
|
|
<trkpt lat="56.071931" lon="8.112691">
|
|
<ele>28.096765</ele>
|
|
<time>2026-07-12T13:59:20.000Z</time>
|
|
</trkpt>
|
|
<trkpt lat="56.071971" lon="8.112651">
|
|
<ele>28.081703</ele>
|
|
<time>2026-07-12T13:59:21.000Z</time>
|
|
</trkpt>
|
|
<trkpt lat="56.072011" lon="8.112614">
|
|
<ele>28.066901</ele>
|
|
<time>2026-07-12T13:59:22.000Z</time>
|
|
</trkpt>
|
|
<trkpt lat="56.072054" lon="8.112582">
|
|
<ele>28.051591</ele>
|
|
<time>2026-07-12T13:59:23.000Z</time>
|
|
</trkpt>
|
|
<trkpt lat="56.072098" lon="8.112556">
|
|
<ele>28.036357</ele>
|
|
<time>2026-07-12T13:59:24.000Z</time>
|
|
</trkpt>
|
|
<trkpt lat="56.072146" lon="8.112533">
|
|
<ele>28.020020</ele>
|
|
<time>2026-07-12T13:59:25.000Z</time>
|
|
</trkpt>
|
|
<trkpt lat="56.072194" lon="8.112511">
|
|
<ele>28.003729</ele>
|
|
<time>2026-07-12T13:59:26.000Z</time>
|
|
</trkpt>
|
|
<trkpt lat="56.072242" lon="8.112490">
|
|
<ele>27.987482</ele>
|
|
<time>2026-07-12T13:59:27.000Z</time>
|
|
</trkpt>
|
|
<trkpt lat="56.072288" lon="8.112468">
|
|
<ele>27.971827</ele>
|
|
<time>2026-07-12T13:59:28.000Z</time>
|
|
</trkpt>
|
|
<trkpt lat="56.072332" lon="8.112448">
|
|
<ele>27.956902</ele>
|
|
<time>2026-07-12T13:59:29.000Z</time>
|
|
</trkpt>
|
|
<trkpt lat="56.072375" lon="8.112429">
|
|
<ele>27.942339</ele>
|
|
<time>2026-07-12T13:59:30.000Z</time>
|
|
</trkpt>
|
|
<trkpt lat="56.072419" lon="8.112411">
|
|
<ele>27.927499</ele>
|
|
<time>2026-07-12T13:59:31.000Z</time>
|
|
</trkpt>
|
|
<trkpt lat="56.072461" lon="8.112392">
|
|
<ele>27.913256</ele>
|
|
<time>2026-07-12T13:59:32.000Z</time>
|
|
</trkpt>
|
|
<trkpt lat="56.072503" lon="8.112373">
|
|
<ele>27.899013</ele>
|
|
<time>2026-07-12T13:59:33.000Z</time>
|
|
</trkpt>
|
|
<trkpt lat="56.072546" lon="8.112355">
|
|
<ele>27.884493</ele>
|
|
<time>2026-07-12T13:59:34.000Z</time>
|
|
</trkpt>
|
|
<trkpt lat="56.072586" lon="8.112336">
|
|
<ele>27.870887</ele>
|
|
<time>2026-07-12T13:59:35.000Z</time>
|
|
</trkpt>
|
|
<trkpt lat="56.072626" lon="8.112318">
|
|
<ele>27.857326</ele>
|
|
<time>2026-07-12T13:59:36.000Z</time>
|
|
</trkpt>
|
|
<trkpt lat="56.072668" lon="8.112299">
|
|
<ele>27.843083</ele>
|
|
<time>2026-07-12T13:59:37.000Z</time>
|
|
</trkpt>
|
|
<trkpt lat="56.072710" lon="8.112282">
|
|
<ele>27.847320</ele>
|
|
<time>2026-07-12T13:59:38.000Z</time>
|
|
</trkpt>
|
|
<trkpt lat="56.072751" lon="8.112267">
|
|
<ele>27.856440</ele>
|
|
<time>2026-07-12T13:59:39.000Z</time>
|
|
</trkpt>
|
|
<trkpt lat="56.072793" lon="8.112257">
|
|
<ele>27.865675</ele>
|
|
<time>2026-07-12T13:59:40.000Z</time>
|
|
</trkpt>
|
|
<trkpt lat="56.072834" lon="8.112250">
|
|
<ele>27.874652</ele>
|
|
<time>2026-07-12T13:59:41.000Z</time>
|
|
</trkpt>
|
|
<trkpt lat="56.072873" lon="8.112247">
|
|
<ele>27.883160</ele>
|
|
<time>2026-07-12T13:59:42.000Z</time>
|
|
</trkpt>
|
|
<trkpt lat="56.072915" lon="8.112244">
|
|
<ele>27.892321</ele>
|
|
<time>2026-07-12T13:59:43.000Z</time>
|
|
</trkpt>
|
|
<trkpt lat="56.072957" lon="8.112245">
|
|
<ele>27.901476</ele>
|
|
<time>2026-07-12T13:59:44.000Z</time>
|
|
</trkpt>
|
|
<trkpt lat="56.073003" lon="8.112248">
|
|
<ele>27.911509</ele>
|
|
<time>2026-07-12T13:59:45.000Z</time>
|
|
</trkpt>
|
|
<trkpt lat="56.073042" lon="8.112253">
|
|
<ele>27.920031</ele>
|
|
<time>2026-07-12T13:59:46.000Z</time>
|
|
</trkpt>
|
|
<trkpt lat="56.073084" lon="8.112259">
|
|
<ele>27.929214</ele>
|
|
<time>2026-07-12T13:59:47.000Z</time>
|
|
</trkpt>
|
|
<trkpt lat="56.073126" lon="8.112264">
|
|
<ele>27.938388</ele>
|
|
<time>2026-07-12T13:59:48.000Z</time>
|
|
</trkpt>
|
|
<trkpt lat="56.073167" lon="8.112271">
|
|
<ele>27.947365</ele>
|
|
<time>2026-07-12T13:59:49.000Z</time>
|
|
</trkpt>
|
|
<trkpt lat="56.073208" lon="8.112276">
|
|
<ele>27.956321</ele>
|
|
<time>2026-07-12T13:59:50.000Z</time>
|
|
</trkpt>
|
|
<trkpt lat="56.073246" lon="8.112279">
|
|
<ele>27.964612</ele>
|
|
<time>2026-07-12T13:59:51.000Z</time>
|
|
</trkpt>
|
|
<trkpt lat="56.073284" lon="8.112282">
|
|
<ele>27.972902</ele>
|
|
<time>2026-07-12T13:59:52.000Z</time>
|
|
</trkpt>
|
|
<trkpt lat="56.073320" lon="8.112281">
|
|
<ele>27.980749</ele>
|
|
<time>2026-07-12T13:59:53.000Z</time>
|
|
</trkpt>
|
|
<trkpt lat="56.073353" lon="8.112280">
|
|
<ele>27.987943</ele>
|
|
<time>2026-07-12T13:59:54.000Z</time>
|
|
</trkpt>
|
|
<trkpt lat="56.073384" lon="8.112279">
|
|
<ele>27.994701</ele>
|
|
<time>2026-07-12T13:59:55.000Z</time>
|
|
</trkpt>
|
|
<trkpt lat="56.073415" lon="8.112277">
|
|
<ele>28.001462</ele>
|
|
<time>2026-07-12T13:59:56.000Z</time>
|
|
</trkpt>
|
|
<trkpt lat="56.073448" lon="8.112273">
|
|
<ele>28.008671</ele>
|
|
<time>2026-07-12T13:59:57.000Z</time>
|
|
</trkpt>
|
|
<trkpt lat="56.073480" lon="8.112267">
|
|
<ele>28.015683</ele>
|
|
<time>2026-07-12T13:59:58.000Z</time>
|
|
</trkpt>
|
|
<trkpt lat="56.073516" lon="8.112257">
|
|
<ele>28.023623</ele>
|
|
<time>2026-07-12T13:59:59.000Z</time>
|
|
</trkpt>
|
|
<trkpt lat="56.073553" lon="8.112242">
|
|
<ele>28.031892</ele>
|
|
<time>2026-07-12T14:00:00.000Z</time>
|
|
</trkpt>
|
|
<trkpt lat="56.073590" lon="8.112226">
|
|
<ele>28.040187</ele>
|
|
<time>2026-07-12T14:00:01.000Z</time>
|
|
</trkpt>
|
|
<trkpt lat="56.073631" lon="8.112213">
|
|
<ele>28.049262</ele>
|
|
<time>2026-07-12T14:00:02.000Z</time>
|
|
</trkpt>
|
|
<trkpt lat="56.073669" lon="8.112199">
|
|
<ele>28.057718</ele>
|
|
<time>2026-07-12T14:00:03.000Z</time>
|
|
</trkpt>
|
|
<trkpt lat="56.073709" lon="8.112186">
|
|
<ele>28.066578</ele>
|
|
<time>2026-07-12T14:00:04.000Z</time>
|
|
</trkpt>
|
|
<trkpt lat="56.073749" lon="8.112171">
|
|
<ele>28.075486</ele>
|
|
<time>2026-07-12T14:00:05.000Z</time>
|
|
</trkpt>
|
|
<trkpt lat="56.073787" lon="8.112156">
|
|
<ele>28.083966</ele>
|
|
<time>2026-07-12T14:00:06.000Z</time>
|
|
</trkpt>
|
|
<trkpt lat="56.073827" lon="8.112141">
|
|
<ele>28.092874</ele>
|
|
<time>2026-07-12T14:00:07.000Z</time>
|
|
</trkpt>
|
|
<trkpt lat="56.073867" lon="8.112126">
|
|
<ele>28.101781</ele>
|
|
<time>2026-07-12T14:00:08.000Z</time>
|
|
</trkpt>
|
|
<trkpt lat="56.073904" lon="8.112112">
|
|
<ele>28.110023</ele>
|
|
<time>2026-07-12T14:00:09.000Z</time>
|
|
</trkpt>
|
|
<trkpt lat="56.073937" lon="8.112101">
|
|
<ele>28.117339</ele>
|
|
<time>2026-07-12T14:00:10.000Z</time>
|
|
</trkpt>
|
|
<trkpt lat="56.073969" lon="8.112088">
|
|
<ele>28.124490</ele>
|
|
<time>2026-07-12T14:00:11.000Z</time>
|
|
</trkpt>
|
|
<trkpt lat="56.074003" lon="8.112074">
|
|
<ele>28.132094</ele>
|
|
<time>2026-07-12T14:00:12.000Z</time>
|
|
</trkpt>
|
|
<trkpt lat="56.074038" lon="8.112060">
|
|
<ele>28.139910</ele>
|
|
<time>2026-07-12T14:00:13.000Z</time>
|
|
</trkpt>
|
|
<trkpt lat="56.074075" lon="8.112043">
|
|
<ele>28.148235</ele>
|
|
<time>2026-07-12T14:00:14.000Z</time>
|
|
</trkpt>
|
|
<trkpt lat="56.074115" lon="8.112027">
|
|
<ele>28.157168</ele>
|
|
<time>2026-07-12T14:00:15.000Z</time>
|
|
</trkpt>
|
|
<trkpt lat="56.074155" lon="8.112013">
|
|
<ele>28.166051</ele>
|
|
<time>2026-07-12T14:00:16.000Z</time>
|
|
</trkpt>
|
|
<trkpt lat="56.074197" lon="8.111997">
|
|
<ele>28.175410</ele>
|
|
<time>2026-07-12T14:00:17.000Z</time>
|
|
</trkpt>
|
|
<trkpt lat="56.074239" lon="8.111982">
|
|
<ele>28.184744</ele>
|
|
<time>2026-07-12T14:00:18.000Z</time>
|
|
</trkpt>
|
|
<trkpt lat="56.074279" lon="8.111967">
|
|
<ele>28.193651</ele>
|
|
<time>2026-07-12T14:00:19.000Z</time>
|
|
</trkpt>
|
|
<trkpt lat="56.074319" lon="8.111951">
|
|
<ele>28.202584</ele>
|
|
<time>2026-07-12T14:00:20.000Z</time>
|
|
</trkpt>
|
|
<trkpt lat="56.074360" lon="8.111937">
|
|
<ele>28.211681</ele>
|
|
<time>2026-07-12T14:00:21.000Z</time>
|
|
</trkpt>
|
|
<trkpt lat="56.074398" lon="8.111927">
|
|
<ele>28.220052</ele>
|
|
<time>2026-07-12T14:00:22.000Z</time>
|
|
</trkpt>
|
|
<trkpt lat="56.074434" lon="8.111921">
|
|
<ele>28.227932</ele>
|
|
<time>2026-07-12T14:00:23.000Z</time>
|
|
</trkpt>
|
|
<trkpt lat="56.074470" lon="8.111924">
|
|
<ele>28.227901</ele>
|
|
<time>2026-07-12T14:00:24.000Z</time>
|
|
</trkpt>
|
|
<trkpt lat="56.074510" lon="8.111935">
|
|
<ele>28.218305</ele>
|
|
<time>2026-07-12T14:00:25.000Z</time>
|
|
</trkpt>
|
|
<trkpt lat="56.074545" lon="8.111950">
|
|
<ele>28.209771</ele>
|
|
<time>2026-07-12T14:00:26.000Z</time>
|
|
</trkpt>
|
|
<trkpt lat="56.074583" lon="8.111969">
|
|
<ele>28.200416</ele>
|
|
<time>2026-07-12T14:00:27.000Z</time>
|
|
</trkpt>
|
|
<trkpt lat="56.074619" lon="8.111989">
|
|
<ele>28.191479</ele>
|
|
<time>2026-07-12T14:00:28.000Z</time>
|
|
</trkpt>
|
|
<trkpt lat="56.074657" lon="8.112009">
|
|
<ele>28.182087</ele>
|
|
<time>2026-07-12T14:00:29.000Z</time>
|
|
</trkpt>
|
|
<trkpt lat="56.074693" lon="8.112030">
|
|
<ele>28.173109</ele>
|
|
<time>2026-07-12T14:00:30.000Z</time>
|
|
</trkpt>
|
|
<trkpt lat="56.074730" lon="8.112054">
|
|
<ele>28.163779</ele>
|
|
<time>2026-07-12T14:00:31.000Z</time>
|
|
</trkpt>
|
|
<trkpt lat="56.074768" lon="8.112072">
|
|
<ele>28.154458</ele>
|
|
<time>2026-07-12T14:00:32.000Z</time>
|
|
</trkpt>
|
|
<trkpt lat="56.074806" lon="8.112082">
|
|
<ele>28.145351</ele>
|
|
<time>2026-07-12T14:00:33.000Z</time>
|
|
</trkpt>
|
|
<trkpt lat="56.074844" lon="8.112086">
|
|
<ele>28.136324</ele>
|
|
<time>2026-07-12T14:00:34.000Z</time>
|
|
</trkpt>
|
|
<trkpt lat="56.074884" lon="8.112084">
|
|
<ele>28.126836</ele>
|
|
<time>2026-07-12T14:00:35.000Z</time>
|
|
</trkpt>
|
|
<trkpt lat="56.074926" lon="8.112080">
|
|
<ele>28.116862</ele>
|
|
<time>2026-07-12T14:00:36.000Z</time>
|
|
</trkpt>
|
|
<trkpt lat="56.074968" lon="8.112077">
|
|
<ele>28.106895</ele>
|
|
<time>2026-07-12T14:00:37.000Z</time>
|
|
</trkpt>
|
|
<trkpt lat="56.075008" lon="8.112071">
|
|
<ele>28.097377</ele>
|
|
<time>2026-07-12T14:00:38.000Z</time>
|
|
</trkpt>
|
|
<trkpt lat="56.075046" lon="8.112063">
|
|
<ele>28.088304</ele>
|
|
<time>2026-07-12T14:00:39.000Z</time>
|
|
</trkpt>
|
|
<trkpt lat="56.075083" lon="8.112056">
|
|
<ele>28.079482</ele>
|
|
<time>2026-07-12T14:00:40.000Z</time>
|
|
</trkpt>
|
|
<trkpt lat="56.075121" lon="8.112047">
|
|
<ele>28.070392</ele>
|
|
<time>2026-07-12T14:00:41.000Z</time>
|
|
</trkpt>
|
|
<trkpt lat="56.075161" lon="8.112038">
|
|
<ele>28.060833</ele>
|
|
<time>2026-07-12T14:00:42.000Z</time>
|
|
</trkpt>
|
|
<trkpt lat="56.075199" lon="8.112027">
|
|
<ele>28.051705</ele>
|
|
<time>2026-07-12T14:00:43.000Z</time>
|
|
</trkpt>
|
|
<trkpt lat="56.075237" lon="8.112015">
|
|
<ele>28.042556</ele>
|
|
<time>2026-07-12T14:00:44.000Z</time>
|
|
</trkpt>
|
|
<trkpt lat="56.075274" lon="8.112005">
|
|
<ele>28.033683</ele>
|
|
<time>2026-07-12T14:00:45.000Z</time>
|
|
</trkpt>
|
|
<trkpt lat="56.075311" lon="8.111995">
|
|
<ele>28.024810</ele>
|
|
<time>2026-07-12T14:00:46.000Z</time>
|
|
</trkpt>
|
|
<trkpt lat="56.075352" lon="8.111981">
|
|
<ele>28.014913</ele>
|
|
<time>2026-07-12T14:00:47.000Z</time>
|
|
</trkpt>
|
|
<trkpt lat="56.075390" lon="8.111966">
|
|
<ele>28.005686</ele>
|
|
<time>2026-07-12T14:00:48.000Z</time>
|
|
</trkpt>
|
|
<trkpt lat="56.075428" lon="8.111952">
|
|
<ele>27.996486</ele>
|
|
<time>2026-07-12T14:00:49.000Z</time>
|
|
</trkpt>
|
|
<trkpt lat="56.075467" lon="8.111943">
|
|
<ele>27.987162</ele>
|
|
<time>2026-07-12T14:00:50.000Z</time>
|
|
</trkpt>
|
|
<trkpt lat="56.075508" lon="8.111940">
|
|
<ele>27.977432</ele>
|
|
<time>2026-07-12T14:00:51.000Z</time>
|
|
</trkpt>
|
|
<trkpt lat="56.075548" lon="8.111938">
|
|
<ele>27.967943</ele>
|
|
<time>2026-07-12T14:00:52.000Z</time>
|
|
</trkpt>
|
|
<trkpt lat="56.075590" lon="8.111939">
|
|
<ele>27.957983</ele>
|
|
<time>2026-07-12T14:00:53.000Z</time>
|
|
</trkpt>
|
|
<trkpt lat="56.075632" lon="8.111941">
|
|
<ele>27.948020</ele>
|
|
<time>2026-07-12T14:00:54.000Z</time>
|
|
</trkpt>
|
|
<trkpt lat="56.075672" lon="8.111941">
|
|
<ele>27.938535</ele>
|
|
<time>2026-07-12T14:00:55.000Z</time>
|
|
</trkpt>
|
|
<trkpt lat="56.075710" lon="8.111942">
|
|
<ele>27.929523</ele>
|
|
<time>2026-07-12T14:00:56.000Z</time>
|
|
</trkpt>
|
|
<trkpt lat="56.075750" lon="8.111945">
|
|
<ele>27.920030</ele>
|
|
<time>2026-07-12T14:00:57.000Z</time>
|
|
</trkpt>
|
|
<trkpt lat="56.075788" lon="8.111949">
|
|
<ele>27.911003</ele>
|
|
<time>2026-07-12T14:00:58.000Z</time>
|
|
</trkpt>
|
|
<trkpt lat="56.075825" lon="8.111956">
|
|
<ele>27.902181</ele>
|
|
<time>2026-07-12T14:00:59.000Z</time>
|
|
</trkpt>
|
|
<trkpt lat="56.075863" lon="8.111965">
|
|
<ele>27.893092</ele>
|
|
<time>2026-07-12T14:01:00.000Z</time>
|
|
</trkpt>
|
|
<trkpt lat="56.075901" lon="8.111972">
|
|
<ele>27.884034</ele>
|
|
<time>2026-07-12T14:01:01.000Z</time>
|
|
</trkpt>
|
|
<trkpt lat="56.075940" lon="8.111978">
|
|
<ele>27.874752</ele>
|
|
<time>2026-07-12T14:01:02.000Z</time>
|
|
</trkpt>
|
|
<trkpt lat="56.075982" lon="8.111985">
|
|
<ele>27.864749</ele>
|
|
<time>2026-07-12T14:01:03.000Z</time>
|
|
</trkpt>
|
|
<trkpt lat="56.076024" lon="8.111986">
|
|
<ele>27.854789</ele>
|
|
<time>2026-07-12T14:01:04.000Z</time>
|
|
</trkpt>
|
|
<trkpt lat="56.076066" lon="8.111984">
|
|
<ele>27.844826</ele>
|
|
<time>2026-07-12T14:01:05.000Z</time>
|
|
</trkpt>
|
|
<trkpt lat="56.076108" lon="8.111979">
|
|
<ele>27.834845</ele>
|
|
<time>2026-07-12T14:01:06.000Z</time>
|
|
</trkpt>
|
|
<trkpt lat="56.076150" lon="8.111976">
|
|
<ele>27.824878</ele>
|
|
<time>2026-07-12T14:01:07.000Z</time>
|
|
</trkpt>
|
|
<trkpt lat="56.076191" lon="8.111975">
|
|
<ele>27.815155</ele>
|
|
<time>2026-07-12T14:01:08.000Z</time>
|
|
</trkpt>
|
|
<trkpt lat="56.076234" lon="8.111977">
|
|
<ele>27.805638</ele>
|
|
<time>2026-07-12T14:01:09.000Z</time>
|
|
</trkpt>
|
|
<trkpt lat="56.076275" lon="8.111987">
|
|
<ele>27.808016</ele>
|
|
<time>2026-07-12T14:01:10.000Z</time>
|
|
</trkpt>
|
|
<trkpt lat="56.076314" lon="8.112003">
|
|
<ele>27.810316</ele>
|
|
<time>2026-07-12T14:01:11.000Z</time>
|
|
</trkpt>
|
|
<trkpt lat="56.076353" lon="8.112024">
|
|
<ele>27.812657</ele>
|
|
<time>2026-07-12T14:01:12.000Z</time>
|
|
</trkpt>
|
|
<trkpt lat="56.076391" lon="8.112045">
|
|
<ele>27.814943</ele>
|
|
<time>2026-07-12T14:01:13.000Z</time>
|
|
</trkpt>
|
|
<trkpt lat="56.076431" lon="8.112057">
|
|
<ele>27.817274</ele>
|
|
<time>2026-07-12T14:01:14.000Z</time>
|
|
</trkpt>
|
|
<trkpt lat="56.076471" lon="8.112058">
|
|
<ele>27.819574</ele>
|
|
<time>2026-07-12T14:01:15.000Z</time>
|
|
</trkpt>
|
|
<trkpt lat="56.076511" lon="8.112052">
|
|
<ele>27.821881</ele>
|
|
<time>2026-07-12T14:01:16.000Z</time>
|
|
</trkpt>
|
|
<trkpt lat="56.076551" lon="8.112040">
|
|
<ele>27.824213</ele>
|
|
<time>2026-07-12T14:01:17.000Z</time>
|
|
</trkpt>
|
|
<trkpt lat="56.076591" lon="8.112027">
|
|
<ele>27.826550</ele>
|
|
<time>2026-07-12T14:01:18.000Z</time>
|
|
</trkpt>
|
|
<trkpt lat="56.076629" lon="8.112011">
|
|
<ele>27.828794</ele>
|
|
<time>2026-07-12T14:01:19.000Z</time>
|
|
</trkpt>
|
|
<trkpt lat="56.076669" lon="8.111994">
|
|
<ele>27.831157</ele>
|
|
<time>2026-07-12T14:01:20.000Z</time>
|
|
</trkpt>
|
|
<trkpt lat="56.076708" lon="8.111979">
|
|
<ele>27.833450</ele>
|
|
<time>2026-07-12T14:01:21.000Z</time>
|
|
</trkpt>
|
|
<trkpt lat="56.076745" lon="8.111964">
|
|
<ele>27.835631</ele>
|
|
<time>2026-07-12T14:01:22.000Z</time>
|
|
</trkpt>
|
|
<trkpt lat="56.076786" lon="8.111947">
|
|
<ele>27.838050</ele>
|
|
<time>2026-07-12T14:01:23.000Z</time>
|
|
</trkpt>
|
|
<trkpt lat="56.076824" lon="8.111932">
|
|
<ele>27.840286</ele>
|
|
<time>2026-07-12T14:01:24.000Z</time>
|
|
</trkpt>
|
|
<trkpt lat="56.076862" lon="8.111922">
|
|
<ele>27.842494</ele>
|
|
<time>2026-07-12T14:01:25.000Z</time>
|
|
</trkpt>
|
|
<trkpt lat="56.076902" lon="8.111915">
|
|
<ele>27.844805</ele>
|
|
<time>2026-07-12T14:01:26.000Z</time>
|
|
</trkpt>
|
|
<trkpt lat="56.076944" lon="8.111911">
|
|
<ele>27.847222</ele>
|
|
<time>2026-07-12T14:01:27.000Z</time>
|
|
</trkpt>
|
|
<trkpt lat="56.076985" lon="8.111905">
|
|
<ele>27.849587</ele>
|
|
<time>2026-07-12T14:01:28.000Z</time>
|
|
</trkpt>
|
|
<trkpt lat="56.077026" lon="8.111898">
|
|
<ele>27.851955</ele>
|
|
<time>2026-07-12T14:01:29.000Z</time>
|
|
</trkpt>
|
|
<trkpt lat="56.077066" lon="8.111890">
|
|
<ele>27.854268</ele>
|
|
<time>2026-07-12T14:01:30.000Z</time>
|
|
</trkpt>
|
|
<trkpt lat="56.077104" lon="8.111881">
|
|
<ele>27.856472</ele>
|
|
<time>2026-07-12T14:01:31.000Z</time>
|
|
</trkpt>
|
|
<trkpt lat="56.077138" lon="8.111872">
|
|
<ele>27.858447</ele>
|
|
<time>2026-07-12T14:01:32.000Z</time>
|
|
</trkpt>
|
|
<trkpt lat="56.077172" lon="8.111866">
|
|
<ele>27.860411</ele>
|
|
<time>2026-07-12T14:01:33.000Z</time>
|
|
</trkpt>
|
|
<trkpt lat="56.077203" lon="8.111859">
|
|
<ele>27.862207</ele>
|
|
<time>2026-07-12T14:01:34.000Z</time>
|
|
</trkpt>
|
|
<trkpt lat="56.077233" lon="8.111846">
|
|
<ele>27.863982</ele>
|
|
<time>2026-07-12T14:01:35.000Z</time>
|
|
</trkpt>
|
|
<trkpt lat="56.077265" lon="8.111829">
|
|
<ele>27.865900</ele>
|
|
<time>2026-07-12T14:01:36.000Z</time>
|
|
</trkpt>
|
|
<trkpt lat="56.077300" lon="8.111810">
|
|
<ele>27.868003</ele>
|
|
<time>2026-07-12T14:01:37.000Z</time>
|
|
</trkpt>
|
|
<trkpt lat="56.077340" lon="8.111794">
|
|
<ele>27.870359</ele>
|
|
<time>2026-07-12T14:01:38.000Z</time>
|
|
</trkpt>
|
|
<trkpt lat="56.077382" lon="8.111777">
|
|
<ele>27.872834</ele>
|
|
<time>2026-07-12T14:01:39.000Z</time>
|
|
</trkpt>
|
|
<trkpt lat="56.077424" lon="8.111761">
|
|
<ele>27.875302</ele>
|
|
<time>2026-07-12T14:01:40.000Z</time>
|
|
</trkpt>
|
|
<trkpt lat="56.077465" lon="8.111745">
|
|
<ele>27.877714</ele>
|
|
<time>2026-07-12T14:01:41.000Z</time>
|
|
</trkpt>
|
|
<trkpt lat="56.077503" lon="8.111730">
|
|
<ele>27.879951</ele>
|
|
<time>2026-07-12T14:01:42.000Z</time>
|
|
</trkpt>
|
|
<trkpt lat="56.077541" lon="8.111714">
|
|
<ele>27.882195</ele>
|
|
<time>2026-07-12T14:01:43.000Z</time>
|
|
</trkpt>
|
|
<trkpt lat="56.077580" lon="8.111699">
|
|
<ele>27.884488</ele>
|
|
<time>2026-07-12T14:01:44.000Z</time>
|
|
</trkpt>
|
|
<trkpt lat="56.077619" lon="8.111682">
|
|
<ele>27.886795</ele>
|
|
<time>2026-07-12T14:01:45.000Z</time>
|
|
</trkpt>
|
|
<trkpt lat="56.077661" lon="8.111663">
|
|
<ele>27.889285</ele>
|
|
<time>2026-07-12T14:01:46.000Z</time>
|
|
</trkpt>
|
|
<trkpt lat="56.077703" lon="8.111643">
|
|
<ele>27.891783</ele>
|
|
<time>2026-07-12T14:01:47.000Z</time>
|
|
</trkpt>
|
|
<trkpt lat="56.077745" lon="8.111621">
|
|
<ele>27.894299</ele>
|
|
<time>2026-07-12T14:01:48.000Z</time>
|
|
</trkpt>
|
|
<trkpt lat="56.077784" lon="8.111596">
|
|
<ele>27.896680</ele>
|
|
<time>2026-07-12T14:01:49.000Z</time>
|
|
</trkpt>
|
|
<trkpt lat="56.077821" lon="8.111569">
|
|
<ele>27.898976</ele>
|
|
<time>2026-07-12T14:01:50.000Z</time>
|
|
</trkpt>
|
|
<trkpt lat="56.077858" lon="8.111542">
|
|
<ele>27.901273</ele>
|
|
<time>2026-07-12T14:01:51.000Z</time>
|
|
</trkpt>
|
|
<trkpt lat="56.077894" lon="8.111514">
|
|
<ele>27.903529</ele>
|
|
<time>2026-07-12T14:01:52.000Z</time>
|
|
</trkpt>
|
|
<trkpt lat="56.077928" lon="8.111486">
|
|
<ele>27.905680</ele>
|
|
<time>2026-07-12T14:01:53.000Z</time>
|
|
</trkpt>
|
|
<trkpt lat="56.077961" lon="8.111456">
|
|
<ele>27.907807</ele>
|
|
<time>2026-07-12T14:01:54.000Z</time>
|
|
</trkpt>
|
|
<trkpt lat="56.077997" lon="8.111425">
|
|
<ele>27.921627</ele>
|
|
<time>2026-07-12T14:01:55.000Z</time>
|
|
</trkpt>
|
|
<trkpt lat="56.078031" lon="8.111394">
|
|
<ele>27.944803</ele>
|
|
<time>2026-07-12T14:01:56.000Z</time>
|
|
</trkpt>
|
|
<trkpt lat="56.078066" lon="8.111364">
|
|
<ele>27.968374</ele>
|
|
<time>2026-07-12T14:01:57.000Z</time>
|
|
</trkpt>
|
|
<trkpt lat="56.078101" lon="8.111337">
|
|
<ele>27.991525</ele>
|
|
<time>2026-07-12T14:01:58.000Z</time>
|
|
</trkpt>
|
|
<trkpt lat="56.078134" lon="8.111308">
|
|
<ele>28.013854</ele>
|
|
<time>2026-07-12T14:01:59.000Z</time>
|
|
</trkpt>
|
|
<trkpt lat="56.078168" lon="8.111276">
|
|
<ele>28.037186</ele>
|
|
<time>2026-07-12T14:02:00.000Z</time>
|
|
</trkpt>
|
|
<trkpt lat="56.078204" lon="8.111244">
|
|
<ele>28.061601</ele>
|
|
<time>2026-07-12T14:02:01.000Z</time>
|
|
</trkpt>
|
|
<trkpt lat="56.078241" lon="8.111212">
|
|
<ele>28.086561</ele>
|
|
<time>2026-07-12T14:02:02.000Z</time>
|
|
</trkpt>
|
|
<trkpt lat="56.078282" lon="8.111177">
|
|
<ele>28.114152</ele>
|
|
<time>2026-07-12T14:02:03.000Z</time>
|
|
</trkpt>
|
|
<trkpt lat="56.078324" lon="8.111140">
|
|
<ele>28.142585</ele>
|
|
<time>2026-07-12T14:02:04.000Z</time>
|
|
</trkpt>
|
|
<trkpt lat="56.078367" lon="8.111101">
|
|
<ele>28.171864</ele>
|
|
<time>2026-07-12T14:02:05.000Z</time>
|
|
</trkpt>
|
|
<trkpt lat="56.078408" lon="8.111067">
|
|
<ele>28.199311</ele>
|
|
<time>2026-07-12T14:02:06.000Z</time>
|
|
</trkpt>
|
|
<trkpt lat="56.078451" lon="8.111038">
|
|
<ele>28.227224</ele>
|
|
<time>2026-07-12T14:02:07.000Z</time>
|
|
</trkpt>
|
|
<trkpt lat="56.078493" lon="8.111016">
|
|
<ele>28.253808</ele>
|
|
<time>2026-07-12T14:02:08.000Z</time>
|
|
</trkpt>
|
|
<trkpt lat="56.078533" lon="8.111004">
|
|
<ele>28.278448</ele>
|
|
<time>2026-07-12T14:02:09.000Z</time>
|
|
</trkpt>
|
|
<trkpt lat="56.078571" lon="8.111009">
|
|
<ele>28.301596</ele>
|
|
<time>2026-07-12T14:02:10.000Z</time>
|
|
</trkpt>
|
|
<trkpt lat="56.078608" lon="8.111028">
|
|
<ele>28.324980</ele>
|
|
<time>2026-07-12T14:02:11.000Z</time>
|
|
</trkpt>
|
|
<trkpt lat="56.078644" lon="8.111055">
|
|
<ele>28.348689</ele>
|
|
<time>2026-07-12T14:02:12.000Z</time>
|
|
</trkpt>
|
|
<trkpt lat="56.078679" lon="8.111089">
|
|
<ele>28.372877</ele>
|
|
<time>2026-07-12T14:02:13.000Z</time>
|
|
</trkpt>
|
|
<trkpt lat="56.078709" lon="8.111121">
|
|
<ele>28.394087</ele>
|
|
<time>2026-07-12T14:02:14.000Z</time>
|
|
</trkpt>
|
|
<trkpt lat="56.078740" lon="8.111152">
|
|
<ele>28.415655</ele>
|
|
<time>2026-07-12T14:02:15.000Z</time>
|
|
</trkpt>
|
|
<trkpt lat="56.078768" lon="8.111188">
|
|
<ele>28.436591</ele>
|
|
<time>2026-07-12T14:02:16.000Z</time>
|
|
</trkpt>
|
|
<trkpt lat="56.078794" lon="8.111218">
|
|
<ele>28.455379</ele>
|
|
<time>2026-07-12T14:02:17.000Z</time>
|
|
</trkpt>
|
|
<trkpt lat="56.078822" lon="8.111246">
|
|
<ele>28.474859</ele>
|
|
<time>2026-07-12T14:02:18.000Z</time>
|
|
</trkpt>
|
|
<trkpt lat="56.078850" lon="8.111271">
|
|
<ele>28.493865</ele>
|
|
<time>2026-07-12T14:02:19.000Z</time>
|
|
</trkpt>
|
|
<trkpt lat="56.078877" lon="8.111296">
|
|
<ele>28.512328</ele>
|
|
<time>2026-07-12T14:02:20.000Z</time>
|
|
</trkpt>
|
|
<trkpt lat="56.078901" lon="8.111318">
|
|
<ele>28.528706</ele>
|
|
<time>2026-07-12T14:02:21.000Z</time>
|
|
</trkpt>
|
|
<trkpt lat="56.078930" lon="8.111337">
|
|
<ele>28.547465</ele>
|
|
<time>2026-07-12T14:02:22.000Z</time>
|
|
</trkpt>
|
|
<trkpt lat="56.078959" lon="8.111349">
|
|
<ele>28.565548</ele>
|
|
<time>2026-07-12T14:02:23.000Z</time>
|
|
</trkpt>
|
|
<trkpt lat="56.078985" lon="8.111357">
|
|
<ele>28.581575</ele>
|
|
<time>2026-07-12T14:02:24.000Z</time>
|
|
</trkpt>
|
|
<trkpt lat="56.079008" lon="8.111360">
|
|
<ele>28.595585</ele>
|
|
<time>2026-07-12T14:02:25.000Z</time>
|
|
</trkpt>
|
|
<trkpt lat="56.079032" lon="8.111361">
|
|
<ele>28.610170</ele>
|
|
<time>2026-07-12T14:02:26.000Z</time>
|
|
</trkpt>
|
|
<trkpt lat="56.079058" lon="8.111361">
|
|
<ele>28.625965</ele>
|
|
<time>2026-07-12T14:02:27.000Z</time>
|
|
</trkpt>
|
|
<trkpt lat="56.079087" lon="8.111361">
|
|
<ele>28.643584</ele>
|
|
<time>2026-07-12T14:02:28.000Z</time>
|
|
</trkpt>
|
|
<trkpt lat="56.079121" lon="8.111363">
|
|
<ele>28.664251</ele>
|
|
<time>2026-07-12T14:02:29.000Z</time>
|
|
</trkpt>
|
|
<trkpt lat="56.079159" lon="8.111368">
|
|
<ele>28.687399</ele>
|
|
<time>2026-07-12T14:02:30.000Z</time>
|
|
</trkpt>
|
|
<trkpt lat="56.079197" lon="8.111376">
|
|
<ele>28.710645</ele>
|
|
<time>2026-07-12T14:02:31.000Z</time>
|
|
</trkpt>
|
|
<trkpt lat="56.079235" lon="8.111381">
|
|
<ele>28.733793</ele>
|
|
<time>2026-07-12T14:02:32.000Z</time>
|
|
</trkpt>
|
|
<trkpt lat="56.079273" lon="8.111383">
|
|
<ele>28.756889</ele>
|
|
<time>2026-07-12T14:02:33.000Z</time>
|
|
</trkpt>
|
|
<trkpt lat="56.079311" lon="8.111384">
|
|
<ele>28.779978</ele>
|
|
<time>2026-07-12T14:02:34.000Z</time>
|
|
</trkpt>
|
|
<trkpt lat="56.079347" lon="8.111386">
|
|
<ele>28.801860</ele>
|
|
<time>2026-07-12T14:02:35.000Z</time>
|
|
</trkpt>
|
|
<trkpt lat="56.079383" lon="8.111391">
|
|
<ele>28.823796</ele>
|
|
<time>2026-07-12T14:02:36.000Z</time>
|
|
</trkpt>
|
|
<trkpt lat="56.079419" lon="8.111401">
|
|
<ele>28.845929</ele>
|
|
<time>2026-07-12T14:02:37.000Z</time>
|
|
</trkpt>
|
|
<trkpt lat="56.079452" lon="8.111424">
|
|
<ele>28.867440</ele>
|
|
<time>2026-07-12T14:02:38.000Z</time>
|
|
</trkpt>
|
|
<trkpt lat="56.079479" lon="8.111461">
|
|
<ele>28.888090</ele>
|
|
<time>2026-07-12T14:02:39.000Z</time>
|
|
</trkpt>
|
|
<trkpt lat="56.079510" lon="8.111515">
|
|
<ele>28.914356</ele>
|
|
<time>2026-07-12T14:02:40.000Z</time>
|
|
</trkpt>
|
|
<trkpt lat="56.079542" lon="8.111562">
|
|
<ele>28.939493</ele>
|
|
<time>2026-07-12T14:02:41.000Z</time>
|
|
</trkpt>
|
|
<trkpt lat="56.079578" lon="8.111590">
|
|
<ele>28.963335</ele>
|
|
<time>2026-07-12T14:02:42.000Z</time>
|
|
</trkpt>
|
|
<trkpt lat="56.079616" lon="8.111602">
|
|
<ele>28.986777</ele>
|
|
<time>2026-07-12T14:02:43.000Z</time>
|
|
</trkpt>
|
|
<trkpt lat="56.079653" lon="8.111606">
|
|
<ele>28.996940</ele>
|
|
<time>2026-07-12T14:02:44.000Z</time>
|
|
</trkpt>
|
|
<trkpt lat="56.079689" lon="8.111611">
|
|
<ele>28.983504</ele>
|
|
<time>2026-07-12T14:02:45.000Z</time>
|
|
</trkpt>
|
|
<trkpt lat="56.079729" lon="8.111618">
|
|
<ele>28.968549</ele>
|
|
<time>2026-07-12T14:02:46.000Z</time>
|
|
</trkpt>
|
|
<trkpt lat="56.079775" lon="8.111623">
|
|
<ele>28.951400</ele>
|
|
<time>2026-07-12T14:02:47.000Z</time>
|
|
</trkpt>
|
|
<trkpt lat="56.079821" lon="8.111626">
|
|
<ele>28.934272</ele>
|
|
<time>2026-07-12T14:02:48.000Z</time>
|
|
</trkpt>
|
|
<trkpt lat="56.079866" lon="8.111629">
|
|
<ele>28.917515</ele>
|
|
<time>2026-07-12T14:02:49.000Z</time>
|
|
</trkpt>
|
|
<trkpt lat="56.079909" lon="8.111629">
|
|
<ele>28.901515</ele>
|
|
<time>2026-07-12T14:02:50.000Z</time>
|
|
</trkpt>
|
|
<trkpt lat="56.079947" lon="8.111629">
|
|
<ele>28.887374</ele>
|
|
<time>2026-07-12T14:02:51.000Z</time>
|
|
</trkpt>
|
|
<trkpt lat="56.079982" lon="8.111633">
|
|
<ele>28.874324</ele>
|
|
<time>2026-07-12T14:02:52.000Z</time>
|
|
</trkpt>
|
|
<trkpt lat="56.080006" lon="8.111641">
|
|
<ele>28.865240</ele>
|
|
<time>2026-07-12T14:02:53.000Z</time>
|
|
</trkpt>
|
|
<trkpt lat="56.080026" lon="8.111652">
|
|
<ele>28.857455</ele>
|
|
<time>2026-07-12T14:02:54.000Z</time>
|
|
</trkpt>
|
|
<trkpt lat="56.080046" lon="8.111669">
|
|
<ele>28.849218</ele>
|
|
<time>2026-07-12T14:02:55.000Z</time>
|
|
</trkpt>
|
|
<trkpt lat="56.080058" lon="8.111697">
|
|
<ele>28.841887</ele>
|
|
<time>2026-07-12T14:02:56.000Z</time>
|
|
</trkpt>
|
|
<trkpt lat="56.080064" lon="8.111735">
|
|
<ele>28.833687</ele>
|
|
<time>2026-07-12T14:02:57.000Z</time>
|
|
</trkpt>
|
|
<trkpt lat="56.080065" lon="8.111779">
|
|
<ele>28.824543</ele>
|
|
<time>2026-07-12T14:02:58.000Z</time>
|
|
</trkpt>
|
|
<trkpt lat="56.080061" lon="8.111825">
|
|
<ele>28.814875</ele>
|
|
<time>2026-07-12T14:02:59.000Z</time>
|
|
</trkpt>
|
|
<trkpt lat="56.080058" lon="8.111870">
|
|
<ele>28.805465</ele>
|
|
<time>2026-07-12T14:03:00.000Z</time>
|
|
</trkpt>
|
|
<trkpt lat="56.080054" lon="8.111921">
|
|
<ele>28.794770</ele>
|
|
<time>2026-07-12T14:03:01.000Z</time>
|
|
</trkpt>
|
|
<trkpt lat="56.080050" lon="8.111976">
|
|
<ele>28.783253</ele>
|
|
<time>2026-07-12T14:03:02.000Z</time>
|
|
</trkpt>
|
|
<trkpt lat="56.080046" lon="8.112040">
|
|
<ele>28.769880</ele>
|
|
<time>2026-07-12T14:03:03.000Z</time>
|
|
</trkpt>
|
|
<trkpt lat="56.080042" lon="8.112108">
|
|
<ele>28.755682</ele>
|
|
<time>2026-07-12T14:03:04.000Z</time>
|
|
</trkpt>
|
|
<trkpt lat="56.080038" lon="8.112178">
|
|
<ele>28.741070</ele>
|
|
<time>2026-07-12T14:03:05.000Z</time>
|
|
</trkpt>
|
|
<trkpt lat="56.080035" lon="8.112237">
|
|
<ele>28.728768</ele>
|
|
<time>2026-07-12T14:03:06.000Z</time>
|
|
</trkpt>
|
|
<trkpt lat="56.080033" lon="8.112282">
|
|
<ele>28.719394</ele>
|
|
<time>2026-07-12T14:03:07.000Z</time>
|
|
</trkpt>
|
|
<trkpt lat="56.080027" lon="8.112383">
|
|
<ele>28.698303</ele>
|
|
<time>2026-07-12T14:03:08.000Z</time>
|
|
</trkpt>
|
|
<trkpt lat="56.080024" lon="8.112448">
|
|
<ele>28.684760</ele>
|
|
<time>2026-07-12T14:03:09.000Z</time>
|
|
</trkpt>
|
|
<trkpt lat="56.080020" lon="8.112504">
|
|
<ele>28.673036</ele>
|
|
<time>2026-07-12T14:03:10.000Z</time>
|
|
</trkpt>
|
|
<trkpt lat="56.080017" lon="8.112561">
|
|
<ele>28.661148</ele>
|
|
<time>2026-07-12T14:03:11.000Z</time>
|
|
</trkpt>
|
|
<trkpt lat="56.080020" lon="8.112622">
|
|
<ele>28.648432</ele>
|
|
<time>2026-07-12T14:03:12.000Z</time>
|
|
</trkpt>
|
|
<trkpt lat="56.080025" lon="8.112704">
|
|
<ele>28.631303</ele>
|
|
<time>2026-07-12T14:03:13.000Z</time>
|
|
</trkpt>
|
|
<trkpt lat="56.080028" lon="8.112789">
|
|
<ele>28.613618</ele>
|
|
<time>2026-07-12T14:03:14.000Z</time>
|
|
</trkpt>
|
|
<trkpt lat="56.080028" lon="8.112850">
|
|
<ele>28.600951</ele>
|
|
<time>2026-07-12T14:03:15.000Z</time>
|
|
</trkpt>
|
|
<trkpt lat="56.080028" lon="8.112911">
|
|
<ele>28.588284</ele>
|
|
<time>2026-07-12T14:03:16.000Z</time>
|
|
</trkpt>
|
|
<trkpt lat="56.080028" lon="8.112988">
|
|
<ele>28.572295</ele>
|
|
<time>2026-07-12T14:03:17.000Z</time>
|
|
</trkpt>
|
|
<trkpt lat="56.080028" lon="8.113055">
|
|
<ele>28.558383</ele>
|
|
<time>2026-07-12T14:03:18.000Z</time>
|
|
</trkpt>
|
|
<trkpt lat="56.080028" lon="8.113119">
|
|
<ele>28.545093</ele>
|
|
<time>2026-07-12T14:03:19.000Z</time>
|
|
</trkpt>
|
|
<trkpt lat="56.080028" lon="8.113169">
|
|
<ele>28.534710</ele>
|
|
<time>2026-07-12T14:03:20.000Z</time>
|
|
</trkpt>
|
|
<trkpt lat="56.080025" lon="8.113260">
|
|
<ele>28.515781</ele>
|
|
<time>2026-07-12T14:03:21.000Z</time>
|
|
</trkpt>
|
|
<trkpt lat="56.080026" lon="8.113343">
|
|
<ele>28.498542</ele>
|
|
<time>2026-07-12T14:03:22.000Z</time>
|
|
</trkpt>
|
|
<trkpt lat="56.080027" lon="8.113423">
|
|
<ele>28.481926</ele>
|
|
<time>2026-07-12T14:03:23.000Z</time>
|
|
</trkpt>
|
|
<trkpt lat="56.080025" lon="8.113500">
|
|
<ele>28.465920</ele>
|
|
<time>2026-07-12T14:03:24.000Z</time>
|
|
</trkpt>
|
|
<trkpt lat="56.080025" lon="8.113574">
|
|
<ele>28.450553</ele>
|
|
<time>2026-07-12T14:03:25.000Z</time>
|
|
</trkpt>
|
|
<trkpt lat="56.080022" lon="8.113650">
|
|
<ele>28.434733</ele>
|
|
<time>2026-07-12T14:03:26.000Z</time>
|
|
</trkpt>
|
|
<trkpt lat="56.080016" lon="8.113725">
|
|
<ele>28.419000</ele>
|
|
<time>2026-07-12T14:03:27.000Z</time>
|
|
</trkpt>
|
|
<trkpt lat="56.080013" lon="8.113797">
|
|
<ele>28.404007</ele>
|
|
<time>2026-07-12T14:03:28.000Z</time>
|
|
</trkpt>
|
|
<trkpt lat="56.080012" lon="8.113872">
|
|
<ele>28.388429</ele>
|
|
<time>2026-07-12T14:03:29.000Z</time>
|
|
</trkpt>
|
|
<trkpt lat="56.080009" lon="8.113951">
|
|
<ele>28.371986</ele>
|
|
<time>2026-07-12T14:03:30.000Z</time>
|
|
</trkpt>
|
|
<trkpt lat="56.080008" lon="8.114029">
|
|
<ele>28.355785</ele>
|
|
<time>2026-07-12T14:03:31.000Z</time>
|
|
</trkpt>
|
|
<trkpt lat="56.080004" lon="8.114107">
|
|
<ele>28.339520</ele>
|
|
<time>2026-07-12T14:03:32.000Z</time>
|
|
</trkpt>
|
|
<trkpt lat="56.080000" lon="8.114183">
|
|
<ele>28.326258</ele>
|
|
<time>2026-07-12T14:03:33.000Z</time>
|
|
</trkpt>
|
|
<trkpt lat="56.079998" lon="8.114258">
|
|
<ele>28.315323</ele>
|
|
<time>2026-07-12T14:03:34.000Z</time>
|
|
</trkpt>
|
|
<trkpt lat="56.079996" lon="8.114333">
|
|
<ele>28.304387</ele>
|
|
<time>2026-07-12T14:03:35.000Z</time>
|
|
</trkpt>
|
|
<trkpt lat="56.079993" lon="8.114407">
|
|
<ele>28.293582</ele>
|
|
<time>2026-07-12T14:03:36.000Z</time>
|
|
</trkpt>
|
|
<trkpt lat="56.079989" lon="8.114473">
|
|
<ele>28.283913</ele>
|
|
<time>2026-07-12T14:03:37.000Z</time>
|
|
</trkpt>
|
|
<trkpt lat="56.079989" lon="8.114532">
|
|
<ele>28.275320</ele>
|
|
<time>2026-07-12T14:03:38.000Z</time>
|
|
</trkpt>
|
|
<trkpt lat="56.080003" lon="8.114589">
|
|
<ele>28.266250</ele>
|
|
<time>2026-07-12T14:03:39.000Z</time>
|
|
</trkpt>
|
|
<trkpt lat="56.080029" lon="8.114623">
|
|
<ele>28.257850</ele>
|
|
<time>2026-07-12T14:03:40.000Z</time>
|
|
</trkpt>
|
|
<trkpt lat="56.080063" lon="8.114639">
|
|
<ele>28.248676</ele>
|
|
<time>2026-07-12T14:03:41.000Z</time>
|
|
</trkpt>
|
|
<trkpt lat="56.080102" lon="8.114643">
|
|
<ele>28.238480</ele>
|
|
<time>2026-07-12T14:03:42.000Z</time>
|
|
</trkpt>
|
|
<trkpt lat="56.080144" lon="8.114644">
|
|
<ele>28.227518</ele>
|
|
<time>2026-07-12T14:03:43.000Z</time>
|
|
</trkpt>
|
|
<trkpt lat="56.080186" lon="8.114648">
|
|
<ele>28.216541</ele>
|
|
<time>2026-07-12T14:03:44.000Z</time>
|
|
</trkpt>
|
|
<trkpt lat="56.080226" lon="8.114653">
|
|
<ele>28.206076</ele>
|
|
<time>2026-07-12T14:03:45.000Z</time>
|
|
</trkpt>
|
|
<trkpt lat="56.080266" lon="8.114656">
|
|
<ele>28.195628</ele>
|
|
<time>2026-07-12T14:03:46.000Z</time>
|
|
</trkpt>
|
|
<trkpt lat="56.080309" lon="8.114653">
|
|
<ele>28.184397</ele>
|
|
<time>2026-07-12T14:03:47.000Z</time>
|
|
</trkpt>
|
|
<trkpt lat="56.080349" lon="8.114649">
|
|
<ele>28.173941</ele>
|
|
<time>2026-07-12T14:03:48.000Z</time>
|
|
</trkpt>
|
|
<trkpt lat="56.080388" lon="8.114645">
|
|
<ele>28.163746</ele>
|
|
<time>2026-07-12T14:03:49.000Z</time>
|
|
</trkpt>
|
|
<trkpt lat="56.080430" lon="8.114642">
|
|
<ele>28.152776</ele>
|
|
<time>2026-07-12T14:03:50.000Z</time>
|
|
</trkpt>
|
|
<trkpt lat="56.080474" lon="8.114639">
|
|
<ele>28.141284</ele>
|
|
<time>2026-07-12T14:03:51.000Z</time>
|
|
</trkpt>
|
|
<trkpt lat="56.080517" lon="8.114635">
|
|
<ele>28.130047</ele>
|
|
<time>2026-07-12T14:03:52.000Z</time>
|
|
</trkpt>
|
|
<trkpt lat="56.080557" lon="8.114634">
|
|
<ele>28.119606</ele>
|
|
<time>2026-07-12T14:03:53.000Z</time>
|
|
</trkpt>
|
|
<trkpt lat="56.080600" lon="8.114633">
|
|
<ele>28.108383</ele>
|
|
<time>2026-07-12T14:03:54.000Z</time>
|
|
</trkpt>
|
|
<trkpt lat="56.080646" lon="8.114631">
|
|
<ele>28.096374</ele>
|
|
<time>2026-07-12T14:03:55.000Z</time>
|
|
</trkpt>
|
|
<trkpt lat="56.080692" lon="8.114623">
|
|
<ele>28.084313</ele>
|
|
<time>2026-07-12T14:03:56.000Z</time>
|
|
</trkpt>
|
|
<trkpt lat="56.080738" lon="8.114604">
|
|
<ele>28.071992</ele>
|
|
<time>2026-07-12T14:03:57.000Z</time>
|
|
</trkpt>
|
|
<trkpt lat="56.080783" lon="8.114577">
|
|
<ele>28.059607</ele>
|
|
<time>2026-07-12T14:03:58.000Z</time>
|
|
</trkpt>
|
|
<trkpt lat="56.080827" lon="8.114547">
|
|
<ele>28.047321</ele>
|
|
<time>2026-07-12T14:03:59.000Z</time>
|
|
</trkpt>
|
|
<trkpt lat="56.080871" lon="8.114518">
|
|
<ele>28.035085</ele>
|
|
<time>2026-07-12T14:04:00.000Z</time>
|
|
</trkpt>
|
|
<trkpt lat="56.080913" lon="8.114485">
|
|
<ele>28.023117</ele>
|
|
<time>2026-07-12T14:04:01.000Z</time>
|
|
</trkpt>
|
|
<trkpt lat="56.080951" lon="8.114454">
|
|
<ele>28.012220</ele>
|
|
<time>2026-07-12T14:04:02.000Z</time>
|
|
</trkpt>
|
|
<trkpt lat="56.080988" lon="8.114427">
|
|
<ele>28.001794</ele>
|
|
<time>2026-07-12T14:04:03.000Z</time>
|
|
</trkpt>
|
|
<trkpt lat="56.081022" lon="8.114399">
|
|
<ele>27.992028</ele>
|
|
<time>2026-07-12T14:04:04.000Z</time>
|
|
</trkpt>
|
|
<trkpt lat="56.081054" lon="8.114370">
|
|
<ele>27.982669</ele>
|
|
<time>2026-07-12T14:04:05.000Z</time>
|
|
</trkpt>
|
|
<trkpt lat="56.081083" lon="8.114349">
|
|
<ele>27.974506</ele>
|
|
<time>2026-07-12T14:04:06.000Z</time>
|
|
</trkpt>
|
|
<trkpt lat="56.081118" lon="8.114339">
|
|
<ele>27.965256</ele>
|
|
<time>2026-07-12T14:04:07.000Z</time>
|
|
</trkpt>
|
|
<trkpt lat="56.081155" lon="8.114338">
|
|
<ele>27.955599</ele>
|
|
<time>2026-07-12T14:04:08.000Z</time>
|
|
</trkpt>
|
|
<trkpt lat="56.081199" lon="8.114336">
|
|
<ele>27.944112</ele>
|
|
<time>2026-07-12T14:04:09.000Z</time>
|
|
</trkpt>
|
|
<trkpt lat="56.081243" lon="8.114335">
|
|
<ele>27.932627</ele>
|
|
<time>2026-07-12T14:04:10.000Z</time>
|
|
</trkpt>
|
|
<trkpt lat="56.081283" lon="8.114333">
|
|
<ele>27.922184</ele>
|
|
<time>2026-07-12T14:04:11.000Z</time>
|
|
</trkpt>
|
|
<trkpt lat="56.081323" lon="8.114330">
|
|
<ele>27.911735</ele>
|
|
<time>2026-07-12T14:04:12.000Z</time>
|
|
</trkpt>
|
|
<trkpt lat="56.081362" lon="8.114330">
|
|
<ele>27.901557</ele>
|
|
<time>2026-07-12T14:04:13.000Z</time>
|
|
</trkpt>
|
|
<trkpt lat="56.081396" lon="8.114337">
|
|
<ele>27.892625</ele>
|
|
<time>2026-07-12T14:04:14.000Z</time>
|
|
</trkpt>
|
|
<trkpt lat="56.081431" lon="8.114345">
|
|
<ele>27.883416</ele>
|
|
<time>2026-07-12T14:04:15.000Z</time>
|
|
</trkpt>
|
|
<trkpt lat="56.081465" lon="8.114354">
|
|
<ele>27.874447</ele>
|
|
<time>2026-07-12T14:04:16.000Z</time>
|
|
</trkpt>
|
|
<trkpt lat="56.081500" lon="8.114364">
|
|
<ele>27.865197</ele>
|
|
<time>2026-07-12T14:04:17.000Z</time>
|
|
</trkpt>
|
|
<trkpt lat="56.081537" lon="8.114375">
|
|
<ele>27.861163</ele>
|
|
<time>2026-07-12T14:04:18.000Z</time>
|
|
</trkpt>
|
|
<trkpt lat="56.081571" lon="8.114391">
|
|
<ele>27.859019</ele>
|
|
<time>2026-07-12T14:04:19.000Z</time>
|
|
</trkpt>
|
|
<trkpt lat="56.081606" lon="8.114420">
|
|
<ele>27.856666</ele>
|
|
<time>2026-07-12T14:04:20.000Z</time>
|
|
</trkpt>
|
|
<trkpt lat="56.081636" lon="8.114455">
|
|
<ele>27.854482</ele>
|
|
<time>2026-07-12T14:04:21.000Z</time>
|
|
</trkpt>
|
|
<trkpt lat="56.081660" lon="8.114494">
|
|
<ele>27.852506</ele>
|
|
<time>2026-07-12T14:04:22.000Z</time>
|
|
</trkpt>
|
|
<trkpt lat="56.081684" lon="8.114536">
|
|
<ele>27.850459</ele>
|
|
<time>2026-07-12T14:04:23.000Z</time>
|
|
</trkpt>
|
|
<trkpt lat="56.081705" lon="8.114583">
|
|
<ele>27.848410</ele>
|
|
<time>2026-07-12T14:04:24.000Z</time>
|
|
</trkpt>
|
|
<trkpt lat="56.081728" lon="8.114635">
|
|
<ele>27.846151</ele>
|
|
<time>2026-07-12T14:04:25.000Z</time>
|
|
</trkpt>
|
|
<trkpt lat="56.081752" lon="8.114689">
|
|
<ele>27.843801</ele>
|
|
<time>2026-07-12T14:04:26.000Z</time>
|
|
</trkpt>
|
|
<trkpt lat="56.081779" lon="8.114745">
|
|
<ele>27.841281</ele>
|
|
<time>2026-07-12T14:04:27.000Z</time>
|
|
</trkpt>
|
|
<trkpt lat="56.081805" lon="8.114805">
|
|
<ele>27.838695</ele>
|
|
<time>2026-07-12T14:04:28.000Z</time>
|
|
</trkpt>
|
|
<trkpt lat="56.081832" lon="8.114866">
|
|
<ele>27.836045</ele>
|
|
<time>2026-07-12T14:04:29.000Z</time>
|
|
</trkpt>
|
|
<trkpt lat="56.081858" lon="8.114926">
|
|
<ele>27.833458</ele>
|
|
<time>2026-07-12T14:04:30.000Z</time>
|
|
</trkpt>
|
|
<trkpt lat="56.081885" lon="8.114982">
|
|
<ele>27.830939</ele>
|
|
<time>2026-07-12T14:04:31.000Z</time>
|
|
</trkpt>
|
|
<trkpt lat="56.081917" lon="8.115036">
|
|
<ele>27.828257</ele>
|
|
<time>2026-07-12T14:04:32.000Z</time>
|
|
</trkpt>
|
|
<trkpt lat="56.081949" lon="8.115084">
|
|
<ele>27.825712</ele>
|
|
<time>2026-07-12T14:04:33.000Z</time>
|
|
</trkpt>
|
|
<trkpt lat="56.081987" lon="8.115120">
|
|
<ele>27.823089</ele>
|
|
<time>2026-07-12T14:04:34.000Z</time>
|
|
</trkpt>
|
|
<trkpt lat="56.082030" lon="8.115143">
|
|
<ele>27.820352</ele>
|
|
<time>2026-07-12T14:04:35.000Z</time>
|
|
</trkpt>
|
|
<trkpt lat="56.082076" lon="8.115154">
|
|
<ele>27.817521</ele>
|
|
<time>2026-07-12T14:04:36.000Z</time>
|
|
</trkpt>
|
|
<trkpt lat="56.082124" lon="8.115157">
|
|
<ele>27.814590</ele>
|
|
<time>2026-07-12T14:04:37.000Z</time>
|
|
</trkpt>
|
|
<trkpt lat="56.082172" lon="8.115156">
|
|
<ele>27.811662</ele>
|
|
<time>2026-07-12T14:04:38.000Z</time>
|
|
</trkpt>
|
|
<trkpt lat="56.082217" lon="8.115154">
|
|
<ele>27.808916</ele>
|
|
<time>2026-07-12T14:04:39.000Z</time>
|
|
</trkpt>
|
|
<trkpt lat="56.082260" lon="8.115150">
|
|
<ele>27.806289</ele>
|
|
<time>2026-07-12T14:04:40.000Z</time>
|
|
</trkpt>
|
|
<trkpt lat="56.082298" lon="8.115146">
|
|
<ele>27.803967</ele>
|
|
<time>2026-07-12T14:04:41.000Z</time>
|
|
</trkpt>
|
|
<trkpt lat="56.082337" lon="8.115144">
|
|
<ele>27.801586</ele>
|
|
<time>2026-07-12T14:04:42.000Z</time>
|
|
</trkpt>
|
|
<trkpt lat="56.082376" lon="8.115140">
|
|
<ele>27.799203</ele>
|
|
<time>2026-07-12T14:04:43.000Z</time>
|
|
</trkpt>
|
|
<trkpt lat="56.082417" lon="8.115138">
|
|
<ele>27.796701</ele>
|
|
<time>2026-07-12T14:04:44.000Z</time>
|
|
</trkpt>
|
|
<trkpt lat="56.082453" lon="8.115138">
|
|
<ele>27.794505</ele>
|
|
<time>2026-07-12T14:04:45.000Z</time>
|
|
</trkpt>
|
|
<trkpt lat="56.082487" lon="8.115136">
|
|
<ele>27.792429</ele>
|
|
<time>2026-07-12T14:04:46.000Z</time>
|
|
</trkpt>
|
|
<trkpt lat="56.082522" lon="8.115132">
|
|
<ele>27.790290</ele>
|
|
<time>2026-07-12T14:04:47.000Z</time>
|
|
</trkpt>
|
|
<trkpt lat="56.082561" lon="8.115127">
|
|
<ele>27.787905</ele>
|
|
<time>2026-07-12T14:04:48.000Z</time>
|
|
</trkpt>
|
|
<trkpt lat="56.082603" lon="8.115124">
|
|
<ele>27.785340</ele>
|
|
<time>2026-07-12T14:04:49.000Z</time>
|
|
</trkpt>
|
|
<trkpt lat="56.082640" lon="8.115121">
|
|
<ele>27.783081</ele>
|
|
<time>2026-07-12T14:04:50.000Z</time>
|
|
</trkpt>
|
|
<trkpt lat="56.082674" lon="8.115121">
|
|
<ele>27.781006</ele>
|
|
<time>2026-07-12T14:04:51.000Z</time>
|
|
</trkpt>
|
|
<trkpt lat="56.082709" lon="8.115121">
|
|
<ele>27.778871</ele>
|
|
<time>2026-07-12T14:04:52.000Z</time>
|
|
</trkpt>
|
|
<trkpt lat="56.082743" lon="8.115120">
|
|
<ele>27.776797</ele>
|
|
<time>2026-07-12T14:04:53.000Z</time>
|
|
</trkpt>
|
|
<trkpt lat="56.082778" lon="8.115119">
|
|
<ele>27.774661</ele>
|
|
<time>2026-07-12T14:04:54.000Z</time>
|
|
</trkpt>
|
|
<trkpt lat="56.082817" lon="8.115118">
|
|
<ele>27.772282</ele>
|
|
<time>2026-07-12T14:04:55.000Z</time>
|
|
</trkpt>
|
|
<trkpt lat="56.082855" lon="8.115117">
|
|
<ele>27.769963</ele>
|
|
<time>2026-07-12T14:04:56.000Z</time>
|
|
</trkpt>
|
|
<trkpt lat="56.082895" lon="8.115120">
|
|
<ele>27.767521</ele>
|
|
<time>2026-07-12T14:04:57.000Z</time>
|
|
</trkpt>
|
|
<trkpt lat="56.082937" lon="8.115125">
|
|
<ele>27.764953</ele>
|
|
<time>2026-07-12T14:04:58.000Z</time>
|
|
</trkpt>
|
|
<trkpt lat="56.082980" lon="8.115133">
|
|
<ele>27.762315</ele>
|
|
<time>2026-07-12T14:04:59.000Z</time>
|
|
</trkpt>
|
|
<trkpt lat="56.083021" lon="8.115140">
|
|
<ele>27.759803</ele>
|
|
<time>2026-07-12T14:05:00.000Z</time>
|
|
</trkpt>
|
|
<trkpt lat="56.083058" lon="8.115146">
|
|
<ele>27.757536</ele>
|
|
<time>2026-07-12T14:05:01.000Z</time>
|
|
</trkpt>
|
|
<trkpt lat="56.083097" lon="8.115149">
|
|
<ele>27.755155</ele>
|
|
<time>2026-07-12T14:05:02.000Z</time>
|
|
</trkpt>
|
|
<trkpt lat="56.083128" lon="8.115147">
|
|
<ele>27.753262</ele>
|
|
<time>2026-07-12T14:05:03.000Z</time>
|
|
</trkpt>
|
|
<trkpt lat="56.083155" lon="8.115139">
|
|
<ele>27.751043</ele>
|
|
<time>2026-07-12T14:05:04.000Z</time>
|
|
</trkpt>
|
|
<trkpt lat="56.083179" lon="8.115123">
|
|
<ele>27.748942</ele>
|
|
<time>2026-07-12T14:05:05.000Z</time>
|
|
</trkpt>
|
|
<trkpt lat="56.083197" lon="8.115101">
|
|
<ele>27.747155</ele>
|
|
<time>2026-07-12T14:05:06.000Z</time>
|
|
</trkpt>
|
|
<trkpt lat="56.083209" lon="8.115070">
|
|
<ele>27.745428</ele>
|
|
<time>2026-07-12T14:05:07.000Z</time>
|
|
</trkpt>
|
|
<trkpt lat="56.083215" lon="8.115032">
|
|
<ele>27.743621</ele>
|
|
<time>2026-07-12T14:05:08.000Z</time>
|
|
</trkpt>
|
|
<trkpt lat="56.083218" lon="8.114987">
|
|
<ele>27.741546</ele>
|
|
<time>2026-07-12T14:05:09.000Z</time>
|
|
</trkpt>
|
|
<trkpt lat="56.083219" lon="8.114937">
|
|
<ele>27.739256</ele>
|
|
<time>2026-07-12T14:05:10.000Z</time>
|
|
</trkpt>
|
|
<trkpt lat="56.083224" lon="8.114888">
|
|
<ele>27.736976</ele>
|
|
<time>2026-07-12T14:05:11.000Z</time>
|
|
</trkpt>
|
|
<trkpt lat="56.083238" lon="8.114845">
|
|
<ele>27.734698</ele>
|
|
<time>2026-07-12T14:05:12.000Z</time>
|
|
</trkpt>
|
|
<trkpt lat="56.083261" lon="8.114813">
|
|
<ele>27.732309</ele>
|
|
<time>2026-07-12T14:05:13.000Z</time>
|
|
</trkpt>
|
|
<trkpt lat="56.083286" lon="8.114788">
|
|
<ele>27.729961</ele>
|
|
<time>2026-07-12T14:05:14.000Z</time>
|
|
</trkpt>
|
|
<trkpt lat="56.083317" lon="8.114761">
|
|
<ele>27.727133</ele>
|
|
<time>2026-07-12T14:05:15.000Z</time>
|
|
</trkpt>
|
|
<trkpt lat="56.083347" lon="8.114736">
|
|
<ele>27.724420</ele>
|
|
<time>2026-07-12T14:05:16.000Z</time>
|
|
</trkpt>
|
|
<trkpt lat="56.083376" lon="8.114709">
|
|
<ele>27.721739</ele>
|
|
<time>2026-07-12T14:05:17.000Z</time>
|
|
</trkpt>
|
|
<trkpt lat="56.083407" lon="8.114678">
|
|
<ele>27.718827</ele>
|
|
<time>2026-07-12T14:05:18.000Z</time>
|
|
</trkpt>
|
|
<trkpt lat="56.083439" lon="8.114650">
|
|
<ele>27.715906</ele>
|
|
<time>2026-07-12T14:05:19.000Z</time>
|
|
</trkpt>
|
|
<trkpt lat="56.083472" lon="8.114615">
|
|
<ele>27.712760</ele>
|
|
<time>2026-07-12T14:05:20.000Z</time>
|
|
</trkpt>
|
|
<trkpt lat="56.083501" lon="8.114572">
|
|
<ele>27.709673</ele>
|
|
<time>2026-07-12T14:05:21.000Z</time>
|
|
</trkpt>
|
|
<trkpt lat="56.083523" lon="8.114526">
|
|
<ele>27.706900</ele>
|
|
<time>2026-07-12T14:05:22.000Z</time>
|
|
</trkpt>
|
|
<trkpt lat="56.083544" lon="8.114477">
|
|
<ele>27.704072</ele>
|
|
<time>2026-07-12T14:05:23.000Z</time>
|
|
</trkpt>
|
|
<trkpt lat="56.083564" lon="8.114428">
|
|
<ele>27.701293</ele>
|
|
<time>2026-07-12T14:05:24.000Z</time>
|
|
</trkpt>
|
|
<trkpt lat="56.083583" lon="8.114381">
|
|
<ele>27.698637</ele>
|
|
<time>2026-07-12T14:05:25.000Z</time>
|
|
</trkpt>
|
|
<trkpt lat="56.083603" lon="8.114337">
|
|
<ele>27.696039</ele>
|
|
<time>2026-07-12T14:05:26.000Z</time>
|
|
</trkpt>
|
|
<trkpt lat="56.083628" lon="8.114296">
|
|
<ele>27.693259</ele>
|
|
<time>2026-07-12T14:05:27.000Z</time>
|
|
</trkpt>
|
|
<trkpt lat="56.083653" lon="8.114257">
|
|
<ele>27.690541</ele>
|
|
<time>2026-07-12T14:05:28.000Z</time>
|
|
</trkpt>
|
|
<trkpt lat="56.083677" lon="8.114220">
|
|
<ele>27.687944</ele>
|
|
<time>2026-07-12T14:05:29.000Z</time>
|
|
</trkpt>
|
|
<trkpt lat="56.083704" lon="8.114185">
|
|
<ele>27.685210</ele>
|
|
<time>2026-07-12T14:05:30.000Z</time>
|
|
</trkpt>
|
|
<trkpt lat="56.083733" lon="8.114155">
|
|
<ele>27.682464</ele>
|
|
<time>2026-07-12T14:05:31.000Z</time>
|
|
</trkpt>
|
|
<trkpt lat="56.083764" lon="8.114127">
|
|
<ele>27.679616</ele>
|
|
<time>2026-07-12T14:05:32.000Z</time>
|
|
</trkpt>
|
|
<trkpt lat="56.083799" lon="8.114101">
|
|
<ele>27.676508</ele>
|
|
<time>2026-07-12T14:05:33.000Z</time>
|
|
</trkpt>
|
|
<trkpt lat="56.083835" lon="8.114077">
|
|
<ele>27.673357</ele>
|
|
<time>2026-07-12T14:05:34.000Z</time>
|
|
</trkpt>
|
|
<trkpt lat="56.083873" lon="8.114054">
|
|
<ele>27.670067</ele>
|
|
<time>2026-07-12T14:05:35.000Z</time>
|
|
</trkpt>
|
|
<trkpt lat="56.083911" lon="8.114031">
|
|
<ele>27.666777</ele>
|
|
<time>2026-07-12T14:05:36.000Z</time>
|
|
</trkpt>
|
|
<trkpt lat="56.083950" lon="8.114015">
|
|
<ele>27.663495</ele>
|
|
<time>2026-07-12T14:05:37.000Z</time>
|
|
</trkpt>
|
|
<trkpt lat="56.083990" lon="8.114009">
|
|
<ele>27.660203</ele>
|
|
<time>2026-07-12T14:05:38.000Z</time>
|
|
</trkpt>
|
|
<trkpt lat="56.084030" lon="8.114008">
|
|
<ele>27.656921</ele>
|
|
<time>2026-07-12T14:05:39.000Z</time>
|
|
</trkpt>
|
|
<trkpt lat="56.084067" lon="8.114008">
|
|
<ele>27.653886</ele>
|
|
<time>2026-07-12T14:05:40.000Z</time>
|
|
</trkpt>
|
|
<trkpt lat="56.084105" lon="8.114009">
|
|
<ele>27.650769</ele>
|
|
<time>2026-07-12T14:05:41.000Z</time>
|
|
</trkpt>
|
|
<trkpt lat="56.084141" lon="8.114009">
|
|
<ele>27.647816</ele>
|
|
<time>2026-07-12T14:05:42.000Z</time>
|
|
</trkpt>
|
|
<trkpt lat="56.084177" lon="8.114008">
|
|
<ele>27.644862</ele>
|
|
<time>2026-07-12T14:05:43.000Z</time>
|
|
</trkpt>
|
|
<trkpt lat="56.084220" lon="8.114008">
|
|
<ele>27.641335</ele>
|
|
<time>2026-07-12T14:05:44.000Z</time>
|
|
</trkpt>
|
|
<trkpt lat="56.084258" lon="8.114011">
|
|
<ele>27.638215</ele>
|
|
<time>2026-07-12T14:05:45.000Z</time>
|
|
</trkpt>
|
|
<trkpt lat="56.084296" lon="8.114014">
|
|
<ele>27.635095</ele>
|
|
<time>2026-07-12T14:05:46.000Z</time>
|
|
</trkpt>
|
|
<trkpt lat="56.084336" lon="8.114014">
|
|
<ele>27.631814</ele>
|
|
<time>2026-07-12T14:05:47.000Z</time>
|
|
</trkpt>
|
|
<trkpt lat="56.084375" lon="8.114015">
|
|
<ele>27.628614</ele>
|
|
<time>2026-07-12T14:05:48.000Z</time>
|
|
</trkpt>
|
|
<trkpt lat="56.084415" lon="8.114015">
|
|
<ele>27.625333</ele>
|
|
<time>2026-07-12T14:05:49.000Z</time>
|
|
</trkpt>
|
|
<trkpt lat="56.084459" lon="8.114008">
|
|
<ele>27.621710</ele>
|
|
<time>2026-07-12T14:05:50.000Z</time>
|
|
</trkpt>
|
|
<trkpt lat="56.084500" lon="8.113998">
|
|
<ele>27.618315</ele>
|
|
<time>2026-07-12T14:05:51.000Z</time>
|
|
</trkpt>
|
|
<trkpt lat="56.084542" lon="8.113985">
|
|
<ele>27.614819</ele>
|
|
<time>2026-07-12T14:05:52.000Z</time>
|
|
</trkpt>
|
|
<trkpt lat="56.084584" lon="8.113971">
|
|
<ele>27.611315</ele>
|
|
<time>2026-07-12T14:05:53.000Z</time>
|
|
</trkpt>
|
|
<trkpt lat="56.084627" lon="8.113959">
|
|
<ele>27.607745</ele>
|
|
<time>2026-07-12T14:05:54.000Z</time>
|
|
</trkpt>
|
|
<trkpt lat="56.084673" lon="8.113951">
|
|
<ele>27.603663</ele>
|
|
<time>2026-07-12T14:05:55.000Z</time>
|
|
</trkpt>
|
|
<trkpt lat="56.084718" lon="8.113949">
|
|
<ele>27.599335</ele>
|
|
<time>2026-07-12T14:05:56.000Z</time>
|
|
</trkpt>
|
|
<trkpt lat="56.084760" lon="8.113952">
|
|
<ele>27.595293</ele>
|
|
<time>2026-07-12T14:05:57.000Z</time>
|
|
</trkpt>
|
|
<trkpt lat="56.084804" lon="8.113958">
|
|
<ele>27.591051</ele>
|
|
<time>2026-07-12T14:05:58.000Z</time>
|
|
</trkpt>
|
|
<trkpt lat="56.084847" lon="8.113960">
|
|
<ele>27.586915</ele>
|
|
<time>2026-07-12T14:05:59.000Z</time>
|
|
</trkpt>
|
|
<trkpt lat="56.084886" lon="8.113955">
|
|
<ele>27.583155</ele>
|
|
<time>2026-07-12T14:06:00.000Z</time>
|
|
</trkpt>
|
|
<trkpt lat="56.084928" lon="8.113941">
|
|
<ele>27.579048</ele>
|
|
<time>2026-07-12T14:06:01.000Z</time>
|
|
</trkpt>
|
|
<trkpt lat="56.084968" lon="8.113922">
|
|
<ele>27.575069</ele>
|
|
<time>2026-07-12T14:06:02.000Z</time>
|
|
</trkpt>
|
|
<trkpt lat="56.085008" lon="8.113901">
|
|
<ele>27.571062</ele>
|
|
<time>2026-07-12T14:06:03.000Z</time>
|
|
</trkpt>
|
|
<trkpt lat="56.085049" lon="8.113881">
|
|
<ele>27.566976</ele>
|
|
<time>2026-07-12T14:06:04.000Z</time>
|
|
</trkpt>
|
|
<trkpt lat="56.085088" lon="8.113860">
|
|
<ele>27.563061</ele>
|
|
<time>2026-07-12T14:06:05.000Z</time>
|
|
</trkpt>
|
|
<trkpt lat="56.085129" lon="8.113837">
|
|
<ele>27.558930</ele>
|
|
<time>2026-07-12T14:06:06.000Z</time>
|
|
</trkpt>
|
|
<trkpt lat="56.085168" lon="8.113815">
|
|
<ele>27.554999</ele>
|
|
<time>2026-07-12T14:06:07.000Z</time>
|
|
</trkpt>
|
|
<trkpt lat="56.085210" lon="8.113792">
|
|
<ele>27.550777</ele>
|
|
<time>2026-07-12T14:06:08.000Z</time>
|
|
</trkpt>
|
|
<trkpt lat="56.085251" lon="8.113768">
|
|
<ele>27.546630</ele>
|
|
<time>2026-07-12T14:06:09.000Z</time>
|
|
</trkpt>
|
|
<trkpt lat="56.085292" lon="8.113746">
|
|
<ele>27.542515</ele>
|
|
<time>2026-07-12T14:06:10.000Z</time>
|
|
</trkpt>
|
|
<trkpt lat="56.085336" lon="8.113729">
|
|
<ele>27.538187</ele>
|
|
<time>2026-07-12T14:06:11.000Z</time>
|
|
</trkpt>
|
|
<trkpt lat="56.085378" lon="8.113715">
|
|
<ele>27.534080</ele>
|
|
<time>2026-07-12T14:06:12.000Z</time>
|
|
</trkpt>
|
|
<trkpt lat="56.085423" lon="8.113706">
|
|
<ele>27.529726</ele>
|
|
<time>2026-07-12T14:06:13.000Z</time>
|
|
</trkpt>
|
|
<trkpt lat="56.085470" lon="8.113700">
|
|
<ele>27.525196</ele>
|
|
<time>2026-07-12T14:06:14.000Z</time>
|
|
</trkpt>
|
|
<trkpt lat="56.085513" lon="8.113698">
|
|
<ele>27.521060</ele>
|
|
<time>2026-07-12T14:06:15.000Z</time>
|
|
</trkpt>
|
|
<trkpt lat="56.085559" lon="8.113697">
|
|
<ele>27.516637</ele>
|
|
<time>2026-07-12T14:06:16.000Z</time>
|
|
</trkpt>
|
|
<trkpt lat="56.085605" lon="8.113697">
|
|
<ele>27.512214</ele>
|
|
<time>2026-07-12T14:06:17.000Z</time>
|
|
</trkpt>
|
|
<trkpt lat="56.085652" lon="8.113698">
|
|
<ele>27.507695</ele>
|
|
<time>2026-07-12T14:06:18.000Z</time>
|
|
</trkpt>
|
|
<trkpt lat="56.085702" lon="8.113698">
|
|
<ele>27.502888</ele>
|
|
<time>2026-07-12T14:06:19.000Z</time>
|
|
</trkpt>
|
|
<trkpt lat="56.085750" lon="8.113698">
|
|
<ele>27.498273</ele>
|
|
<time>2026-07-12T14:06:20.000Z</time>
|
|
</trkpt>
|
|
<trkpt lat="56.085797" lon="8.113698">
|
|
<ele>27.493754</ele>
|
|
<time>2026-07-12T14:06:21.000Z</time>
|
|
</trkpt>
|
|
<trkpt lat="56.085847" lon="8.113696">
|
|
<ele>27.488945</ele>
|
|
<time>2026-07-12T14:06:22.000Z</time>
|
|
</trkpt>
|
|
<trkpt lat="56.085898" lon="8.113690">
|
|
<ele>27.484031</ele>
|
|
<time>2026-07-12T14:06:23.000Z</time>
|
|
</trkpt>
|
|
<trkpt lat="56.085948" lon="8.113679">
|
|
<ele>27.479188</ele>
|
|
<time>2026-07-12T14:06:24.000Z</time>
|
|
</trkpt>
|
|
<trkpt lat="56.085995" lon="8.113664">
|
|
<ele>27.474598</ele>
|
|
<time>2026-07-12T14:06:25.000Z</time>
|
|
</trkpt>
|
|
<trkpt lat="56.086045" lon="8.113644">
|
|
<ele>27.469672</ele>
|
|
<time>2026-07-12T14:06:26.000Z</time>
|
|
</trkpt>
|
|
<trkpt lat="56.086093" lon="8.113621">
|
|
<ele>27.464895</ele>
|
|
<time>2026-07-12T14:06:27.000Z</time>
|
|
</trkpt>
|
|
<trkpt lat="56.086139" lon="8.113596">
|
|
<ele>27.460273</ele>
|
|
<time>2026-07-12T14:06:28.000Z</time>
|
|
</trkpt>
|
|
<trkpt lat="56.086183" lon="8.113569">
|
|
<ele>27.455802</ele>
|
|
<time>2026-07-12T14:06:29.000Z</time>
|
|
</trkpt>
|
|
<trkpt lat="56.086227" lon="8.113542">
|
|
<ele>27.451330</ele>
|
|
<time>2026-07-12T14:06:30.000Z</time>
|
|
</trkpt>
|
|
<trkpt lat="56.086272" lon="8.113515">
|
|
<ele>27.446768</ele>
|
|
<time>2026-07-12T14:06:31.000Z</time>
|
|
</trkpt>
|
|
<trkpt lat="56.086317" lon="8.113487">
|
|
<ele>27.442188</ele>
|
|
<time>2026-07-12T14:06:32.000Z</time>
|
|
</trkpt>
|
|
<trkpt lat="56.086361" lon="8.113456">
|
|
<ele>27.437642</ele>
|
|
<time>2026-07-12T14:06:33.000Z</time>
|
|
</trkpt>
|
|
<trkpt lat="56.086406" lon="8.113421">
|
|
<ele>27.432926</ele>
|
|
<time>2026-07-12T14:06:34.000Z</time>
|
|
</trkpt>
|
|
<trkpt lat="56.086449" lon="8.113389">
|
|
<ele>27.440494</ele>
|
|
<time>2026-07-12T14:06:35.000Z</time>
|
|
</trkpt>
|
|
<trkpt lat="56.086490" lon="8.113357">
|
|
<ele>27.448337</ele>
|
|
<time>2026-07-12T14:06:36.000Z</time>
|
|
</trkpt>
|
|
<trkpt lat="56.086536" lon="8.113325">
|
|
<ele>27.456992</ele>
|
|
<time>2026-07-12T14:06:37.000Z</time>
|
|
</trkpt>
|
|
<trkpt lat="56.086580" lon="8.113296">
|
|
<ele>27.465215</ele>
|
|
<time>2026-07-12T14:06:38.000Z</time>
|
|
</trkpt>
|
|
<trkpt lat="56.086623" lon="8.113269">
|
|
<ele>27.473206</ele>
|
|
<time>2026-07-12T14:06:39.000Z</time>
|
|
</trkpt>
|
|
<trkpt lat="56.086669" lon="8.113244">
|
|
<ele>27.481637</ele>
|
|
<time>2026-07-12T14:06:40.000Z</time>
|
|
</trkpt>
|
|
<trkpt lat="56.086717" lon="8.113221">
|
|
<ele>27.490352</ele>
|
|
<time>2026-07-12T14:06:41.000Z</time>
|
|
</trkpt>
|
|
<trkpt lat="56.086765" lon="8.113201">
|
|
<ele>27.498995</ele>
|
|
<time>2026-07-12T14:06:42.000Z</time>
|
|
</trkpt>
|
|
<trkpt lat="56.086810" lon="8.113184">
|
|
<ele>27.507061</ele>
|
|
<time>2026-07-12T14:06:43.000Z</time>
|
|
</trkpt>
|
|
<trkpt lat="56.086856" lon="8.113167">
|
|
<ele>27.515299</ele>
|
|
<time>2026-07-12T14:06:44.000Z</time>
|
|
</trkpt>
|
|
<trkpt lat="56.086902" lon="8.113146">
|
|
<ele>27.523625</ele>
|
|
<time>2026-07-12T14:06:45.000Z</time>
|
|
</trkpt>
|
|
<trkpt lat="56.086948" lon="8.113124">
|
|
<ele>27.531975</ele>
|
|
<time>2026-07-12T14:06:46.000Z</time>
|
|
</trkpt>
|
|
<trkpt lat="56.086993" lon="8.113103">
|
|
<ele>27.540131</ele>
|
|
<time>2026-07-12T14:06:47.000Z</time>
|
|
</trkpt>
|
|
<trkpt lat="56.087039" lon="8.113080">
|
|
<ele>27.548508</ele>
|
|
<time>2026-07-12T14:06:48.000Z</time>
|
|
</trkpt>
|
|
<trkpt lat="56.087085" lon="8.113059">
|
|
<ele>27.556833</ele>
|
|
<time>2026-07-12T14:06:49.000Z</time>
|
|
</trkpt>
|
|
<trkpt lat="56.087130" lon="8.113039">
|
|
<ele>27.564965</ele>
|
|
<time>2026-07-12T14:06:50.000Z</time>
|
|
</trkpt>
|
|
<trkpt lat="56.087177" lon="8.113018">
|
|
<ele>27.573461</ele>
|
|
<time>2026-07-12T14:06:51.000Z</time>
|
|
</trkpt>
|
|
<trkpt lat="56.087222" lon="8.112997">
|
|
<ele>27.581617</ele>
|
|
<time>2026-07-12T14:06:52.000Z</time>
|
|
</trkpt>
|
|
<trkpt lat="56.087259" lon="8.112977">
|
|
<ele>27.588395</ele>
|
|
<time>2026-07-12T14:06:53.000Z</time>
|
|
</trkpt>
|
|
<trkpt lat="56.087314" lon="8.112949">
|
|
<ele>27.598424</ele>
|
|
<time>2026-07-12T14:06:54.000Z</time>
|
|
</trkpt>
|
|
<trkpt lat="56.087363" lon="8.112927">
|
|
<ele>27.607284</ele>
|
|
<time>2026-07-12T14:06:55.000Z</time>
|
|
</trkpt>
|
|
<trkpt lat="56.087408" lon="8.112906">
|
|
<ele>27.615440</ele>
|
|
<time>2026-07-12T14:06:56.000Z</time>
|
|
</trkpt>
|
|
<trkpt lat="56.087455" lon="8.112888">
|
|
<ele>27.623869</ele>
|
|
<time>2026-07-12T14:06:57.000Z</time>
|
|
</trkpt>
|
|
<trkpt lat="56.087503" lon="8.112873">
|
|
<ele>27.632415</ele>
|
|
<time>2026-07-12T14:06:58.000Z</time>
|
|
</trkpt>
|
|
<trkpt lat="56.087551" lon="8.112858">
|
|
<ele>27.640961</ele>
|
|
<time>2026-07-12T14:06:59.000Z</time>
|
|
</trkpt>
|
|
<trkpt lat="56.087600" lon="8.112844">
|
|
<ele>27.649664</ele>
|
|
<time>2026-07-12T14:07:00.000Z</time>
|
|
</trkpt>
|
|
<trkpt lat="56.087646" lon="8.112832">
|
|
<ele>27.657817</ele>
|
|
<time>2026-07-12T14:07:01.000Z</time>
|
|
</trkpt>
|
|
<trkpt lat="56.087696" lon="8.112821">
|
|
<ele>27.666653</ele>
|
|
<time>2026-07-12T14:07:02.000Z</time>
|
|
</trkpt>
|
|
<trkpt lat="56.087745" lon="8.112808">
|
|
<ele>27.675341</ele>
|
|
<time>2026-07-12T14:07:03.000Z</time>
|
|
</trkpt>
|
|
<trkpt lat="56.087791" lon="8.112796">
|
|
<ele>27.683494</ele>
|
|
<time>2026-07-12T14:07:04.000Z</time>
|
|
</trkpt>
|
|
<trkpt lat="56.087840" lon="8.112788">
|
|
<ele>27.692124</ele>
|
|
<time>2026-07-12T14:07:05.000Z</time>
|
|
</trkpt>
|
|
<trkpt lat="56.087890" lon="8.112780">
|
|
<ele>27.700929</ele>
|
|
<time>2026-07-12T14:07:06.000Z</time>
|
|
</trkpt>
|
|
<trkpt lat="56.087940" lon="8.112771">
|
|
<ele>27.709743</ele>
|
|
<time>2026-07-12T14:07:07.000Z</time>
|
|
</trkpt>
|
|
<trkpt lat="56.087989" lon="8.112761">
|
|
<ele>27.718392</ele>
|
|
<time>2026-07-12T14:07:08.000Z</time>
|
|
</trkpt>
|
|
<trkpt lat="56.088039" lon="8.112752">
|
|
<ele>27.727206</ele>
|
|
<time>2026-07-12T14:07:09.000Z</time>
|
|
</trkpt>
|
|
<trkpt lat="56.088090" lon="8.112750">
|
|
<ele>27.736154</ele>
|
|
<time>2026-07-12T14:07:10.000Z</time>
|
|
</trkpt>
|
|
<trkpt lat="56.088139" lon="8.112751">
|
|
<ele>27.744749</ele>
|
|
<time>2026-07-12T14:07:11.000Z</time>
|
|
</trkpt>
|
|
<trkpt lat="56.088188" lon="8.112752">
|
|
<ele>27.743863</ele>
|
|
<time>2026-07-12T14:07:12.000Z</time>
|
|
</trkpt>
|
|
<trkpt lat="56.088236" lon="8.112751">
|
|
<ele>27.736802</ele>
|
|
<time>2026-07-12T14:07:13.000Z</time>
|
|
</trkpt>
|
|
<trkpt lat="56.088286" lon="8.112750">
|
|
<ele>27.729447</ele>
|
|
<time>2026-07-12T14:07:14.000Z</time>
|
|
</trkpt>
|
|
<trkpt lat="56.088333" lon="8.112754">
|
|
<ele>27.722526</ele>
|
|
<time>2026-07-12T14:07:15.000Z</time>
|
|
</trkpt>
|
|
<trkpt lat="56.088383" lon="8.112758">
|
|
<ele>27.715164</ele>
|
|
<time>2026-07-12T14:07:16.000Z</time>
|
|
</trkpt>
|
|
<trkpt lat="56.088432" lon="8.112762">
|
|
<ele>27.707949</ele>
|
|
<time>2026-07-12T14:07:17.000Z</time>
|
|
</trkpt>
|
|
<trkpt lat="56.088480" lon="8.112766">
|
|
<ele>27.700881</ele>
|
|
<time>2026-07-12T14:07:18.000Z</time>
|
|
</trkpt>
|
|
<trkpt lat="56.088530" lon="8.112768">
|
|
<ele>27.693524</ele>
|
|
<time>2026-07-12T14:07:19.000Z</time>
|
|
</trkpt>
|
|
<trkpt lat="56.088582" lon="8.112770">
|
|
<ele>27.685873</ele>
|
|
<time>2026-07-12T14:07:20.000Z</time>
|
|
</trkpt>
|
|
<trkpt lat="56.088633" lon="8.112768">
|
|
<ele>27.678370</ele>
|
|
<time>2026-07-12T14:07:21.000Z</time>
|
|
</trkpt>
|
|
<trkpt lat="56.088685" lon="8.112763">
|
|
<ele>27.670710</ele>
|
|
<time>2026-07-12T14:07:22.000Z</time>
|
|
</trkpt>
|
|
<trkpt lat="56.088737" lon="8.112758">
|
|
<ele>27.663050</ele>
|
|
<time>2026-07-12T14:07:23.000Z</time>
|
|
</trkpt>
|
|
<trkpt lat="56.088785" lon="8.112752">
|
|
<ele>27.655972</ele>
|
|
<time>2026-07-12T14:07:24.000Z</time>
|
|
</trkpt>
|
|
<trkpt lat="56.088833" lon="8.112745">
|
|
<ele>27.648888</ele>
|
|
<time>2026-07-12T14:07:25.000Z</time>
|
|
</trkpt>
|
|
<trkpt lat="56.088883" lon="8.112737">
|
|
<ele>27.641504</ele>
|
|
<time>2026-07-12T14:07:26.000Z</time>
|
|
</trkpt>
|
|
<trkpt lat="56.088933" lon="8.112730">
|
|
<ele>27.634127</ele>
|
|
<time>2026-07-12T14:07:27.000Z</time>
|
|
</trkpt>
|
|
<trkpt lat="56.088982" lon="8.112724">
|
|
<ele>27.626903</ele>
|
|
<time>2026-07-12T14:07:28.000Z</time>
|
|
</trkpt>
|
|
<trkpt lat="56.089031" lon="8.112720">
|
|
<ele>27.619688</ele>
|
|
<time>2026-07-12T14:07:29.000Z</time>
|
|
</trkpt>
|
|
<trkpt lat="56.089081" lon="8.112716">
|
|
<ele>27.612325</ele>
|
|
<time>2026-07-12T14:07:30.000Z</time>
|
|
</trkpt>
|
|
<trkpt lat="56.089129" lon="8.112712">
|
|
<ele>27.605257</ele>
|
|
<time>2026-07-12T14:07:31.000Z</time>
|
|
</trkpt>
|
|
<trkpt lat="56.089174" lon="8.112709">
|
|
<ele>27.598633</ele>
|
|
<time>2026-07-12T14:07:32.000Z</time>
|
|
</trkpt>
|
|
<trkpt lat="56.089215" lon="8.112708">
|
|
<ele>27.592602</ele>
|
|
<time>2026-07-12T14:07:33.000Z</time>
|
|
</trkpt>
|
|
<trkpt lat="56.089253" lon="8.112710">
|
|
<ele>27.587010</ele>
|
|
<time>2026-07-12T14:07:34.000Z</time>
|
|
</trkpt>
|
|
<trkpt lat="56.089288" lon="8.112721">
|
|
<ele>27.581783</ele>
|
|
<time>2026-07-12T14:07:35.000Z</time>
|
|
</trkpt>
|
|
<trkpt lat="56.089320" lon="8.112750">
|
|
<ele>27.576509</ele>
|
|
<time>2026-07-12T14:07:36.000Z</time>
|
|
</trkpt>
|
|
<trkpt lat="56.089342" lon="8.112797">
|
|
<ele>27.571474</ele>
|
|
<time>2026-07-12T14:07:37.000Z</time>
|
|
</trkpt>
|
|
<trkpt lat="56.089353" lon="8.112860">
|
|
<ele>27.566057</ele>
|
|
<time>2026-07-12T14:07:38.000Z</time>
|
|
</trkpt>
|
|
<trkpt lat="56.089357" lon="8.112925">
|
|
<ele>27.560690</ele>
|
|
<time>2026-07-12T14:07:39.000Z</time>
|
|
</trkpt>
|
|
<trkpt lat="56.089359" lon="8.112980">
|
|
<ele>27.556167</ele>
|
|
<time>2026-07-12T14:07:40.000Z</time>
|
|
</trkpt>
|
|
<trkpt lat="56.089358" lon="8.113024">
|
|
<ele>27.552553</ele>
|
|
<time>2026-07-12T14:07:41.000Z</time>
|
|
</trkpt>
|
|
<trkpt lat="56.089354" lon="8.113061">
|
|
<ele>27.549460</ele>
|
|
<time>2026-07-12T14:07:42.000Z</time>
|
|
</trkpt>
|
|
<trkpt lat="56.089352" lon="8.113092">
|
|
<ele>27.546899</ele>
|
|
<time>2026-07-12T14:07:43.000Z</time>
|
|
</trkpt>
|
|
<trkpt lat="56.089355" lon="8.113113">
|
|
<ele>27.545120</ele>
|
|
<time>2026-07-12T14:07:44.000Z</time>
|
|
</trkpt>
|
|
<trkpt lat="56.089362" lon="8.113117">
|
|
<ele>27.544040</ele>
|
|
<time>2026-07-12T14:07:45.000Z</time>
|
|
</trkpt>
|
|
<trkpt lat="56.089368" lon="8.113105">
|
|
<ele>27.542717</ele>
|
|
<time>2026-07-12T14:07:46.000Z</time>
|
|
</trkpt>
|
|
<trkpt lat="56.089372" lon="8.113085">
|
|
<ele>27.540974</ele>
|
|
<time>2026-07-12T14:07:47.000Z</time>
|
|
</trkpt>
|
|
<trkpt lat="56.089373" lon="8.113060">
|
|
<ele>27.538917</ele>
|
|
<time>2026-07-12T14:07:48.000Z</time>
|
|
</trkpt>
|
|
<trkpt lat="56.089369" lon="8.113037">
|
|
<ele>27.536940</ele>
|
|
<time>2026-07-12T14:07:49.000Z</time>
|
|
</trkpt>
|
|
<trkpt lat="56.089367" lon="8.113014">
|
|
<ele>27.535030</ele>
|
|
<time>2026-07-12T14:07:50.000Z</time>
|
|
</trkpt>
|
|
<trkpt lat="56.089369" lon="8.112992">
|
|
<ele>27.533200</ele>
|
|
<time>2026-07-12T14:07:51.000Z</time>
|
|
</trkpt>
|
|
<trkpt lat="56.089375" lon="8.112977">
|
|
<ele>27.531686</ele>
|
|
<time>2026-07-12T14:07:52.000Z</time>
|
|
</trkpt>
|
|
<trkpt lat="56.089385" lon="8.112974">
|
|
<ele>27.530194</ele>
|
|
<time>2026-07-12T14:07:53.000Z</time>
|
|
</trkpt>
|
|
<trkpt lat="56.089396" lon="8.112988">
|
|
<ele>27.528210</ele>
|
|
<time>2026-07-12T14:07:54.000Z</time>
|
|
</trkpt>
|
|
<trkpt lat="56.089412" lon="8.113014">
|
|
<ele>27.525033</ele>
|
|
<time>2026-07-12T14:07:55.000Z</time>
|
|
</trkpt>
|
|
<trkpt lat="56.089431" lon="8.113048">
|
|
<ele>27.521084</ele>
|
|
<time>2026-07-12T14:07:56.000Z</time>
|
|
</trkpt>
|
|
<trkpt lat="56.089451" lon="8.113084">
|
|
<ele>27.516915</ele>
|
|
<time>2026-07-12T14:07:57.000Z</time>
|
|
</trkpt>
|
|
<trkpt lat="56.089481" lon="8.113116">
|
|
<ele>27.511780</ele>
|
|
<time>2026-07-12T14:07:58.000Z</time>
|
|
</trkpt>
|
|
<trkpt lat="56.089516" lon="8.113133">
|
|
<ele>27.506446</ele>
|
|
<time>2026-07-12T14:07:59.000Z</time>
|
|
</trkpt>
|
|
<trkpt lat="56.089549" lon="8.113140">
|
|
<ele>27.501558</ele>
|
|
<time>2026-07-12T14:08:00.000Z</time>
|
|
</trkpt>
|
|
<trkpt lat="56.089588" lon="8.113142">
|
|
<ele>27.495819</ele>
|
|
<time>2026-07-12T14:08:01.000Z</time>
|
|
</trkpt>
|
|
<trkpt lat="56.089624" lon="8.113144">
|
|
<ele>27.490521</ele>
|
|
<time>2026-07-12T14:08:02.000Z</time>
|
|
</trkpt>
|
|
<trkpt lat="56.089660" lon="8.113149">
|
|
<ele>27.485209</ele>
|
|
<time>2026-07-12T14:08:03.000Z</time>
|
|
</trkpt>
|
|
<trkpt lat="56.089700" lon="8.113156">
|
|
<ele>27.484582</ele>
|
|
<time>2026-07-12T14:08:04.000Z</time>
|
|
</trkpt>
|
|
<trkpt lat="56.089742" lon="8.113163">
|
|
<ele>27.485970</ele>
|
|
<time>2026-07-12T14:08:05.000Z</time>
|
|
</trkpt>
|
|
<trkpt lat="56.089784" lon="8.113170">
|
|
<ele>27.487357</ele>
|
|
<time>2026-07-12T14:08:06.000Z</time>
|
|
</trkpt>
|
|
<trkpt lat="56.089824" lon="8.113178">
|
|
<ele>27.488681</ele>
|
|
<time>2026-07-12T14:08:07.000Z</time>
|
|
</trkpt>
|
|
<trkpt lat="56.089862" lon="8.113186">
|
|
<ele>27.489939</ele>
|
|
<time>2026-07-12T14:08:08.000Z</time>
|
|
</trkpt>
|
|
<trkpt lat="56.089903" lon="8.113195">
|
|
<ele>27.491298</ele>
|
|
<time>2026-07-12T14:08:09.000Z</time>
|
|
</trkpt>
|
|
<trkpt lat="56.089944" lon="8.113206">
|
|
<ele>27.492662</ele>
|
|
<time>2026-07-12T14:08:10.000Z</time>
|
|
</trkpt>
|
|
<trkpt lat="56.089986" lon="8.113215">
|
|
<ele>27.494053</ele>
|
|
<time>2026-07-12T14:08:11.000Z</time>
|
|
</trkpt>
|
|
<trkpt lat="56.090024" lon="8.113226">
|
|
<ele>27.495319</ele>
|
|
<time>2026-07-12T14:08:12.000Z</time>
|
|
</trkpt>
|
|
<trkpt lat="56.090062" lon="8.113239">
|
|
<ele>27.496592</ele>
|
|
<time>2026-07-12T14:08:13.000Z</time>
|
|
</trkpt>
|
|
<trkpt lat="56.090103" lon="8.113252">
|
|
<ele>27.497961</ele>
|
|
<time>2026-07-12T14:08:14.000Z</time>
|
|
</trkpt>
|
|
<trkpt lat="56.090138" lon="8.113261">
|
|
<ele>27.499124</ele>
|
|
<time>2026-07-12T14:08:15.000Z</time>
|
|
</trkpt>
|
|
<trkpt lat="56.090167" lon="8.113268">
|
|
<ele>27.500087</ele>
|
|
<time>2026-07-12T14:08:16.000Z</time>
|
|
</trkpt>
|
|
<trkpt lat="56.090197" lon="8.113272">
|
|
<ele>27.501076</ele>
|
|
<time>2026-07-12T14:08:17.000Z</time>
|
|
</trkpt>
|
|
<trkpt lat="56.090233" lon="8.113275">
|
|
<ele>27.502261</ele>
|
|
<time>2026-07-12T14:08:18.000Z</time>
|
|
</trkpt>
|
|
<trkpt lat="56.090265" lon="8.113282">
|
|
<ele>27.503322</ele>
|
|
<time>2026-07-12T14:08:19.000Z</time>
|
|
</trkpt>
|
|
<trkpt lat="56.090298" lon="8.113293">
|
|
<ele>27.504426</ele>
|
|
<time>2026-07-12T14:08:20.000Z</time>
|
|
</trkpt>
|
|
<trkpt lat="56.090331" lon="8.113306">
|
|
<ele>27.505537</ele>
|
|
<time>2026-07-12T14:08:21.000Z</time>
|
|
</trkpt>
|
|
<trkpt lat="56.090364" lon="8.113322">
|
|
<ele>27.506662</ele>
|
|
<time>2026-07-12T14:08:22.000Z</time>
|
|
</trkpt>
|
|
<trkpt lat="56.090398" lon="8.113339">
|
|
<ele>27.507823</ele>
|
|
<time>2026-07-12T14:08:23.000Z</time>
|
|
</trkpt>
|
|
<trkpt lat="56.090433" lon="8.113355">
|
|
<ele>27.509011</ele>
|
|
<time>2026-07-12T14:08:24.000Z</time>
|
|
</trkpt>
|
|
<trkpt lat="56.090470" lon="8.113370">
|
|
<ele>27.510259</ele>
|
|
<time>2026-07-12T14:08:25.000Z</time>
|
|
</trkpt>
|
|
<trkpt lat="56.090505" lon="8.113386">
|
|
<ele>27.511447</ele>
|
|
<time>2026-07-12T14:08:26.000Z</time>
|
|
</trkpt>
|
|
<trkpt lat="56.090537" lon="8.113405">
|
|
<ele>27.512555</ele>
|
|
<time>2026-07-12T14:08:27.000Z</time>
|
|
</trkpt>
|
|
<trkpt lat="56.090569" lon="8.113425">
|
|
<ele>27.513670</ele>
|
|
<time>2026-07-12T14:08:28.000Z</time>
|
|
</trkpt>
|
|
<trkpt lat="56.090600" lon="8.113449">
|
|
<ele>27.514781</ele>
|
|
<time>2026-07-12T14:08:29.000Z</time>
|
|
</trkpt>
|
|
<trkpt lat="56.090631" lon="8.113477">
|
|
<ele>27.515923</ele>
|
|
<time>2026-07-12T14:08:30.000Z</time>
|
|
</trkpt>
|
|
<trkpt lat="56.090663" lon="8.113507">
|
|
<ele>27.517110</ele>
|
|
<time>2026-07-12T14:08:31.000Z</time>
|
|
</trkpt>
|
|
<trkpt lat="56.090697" lon="8.113539">
|
|
<ele>27.518374</ele>
|
|
<time>2026-07-12T14:08:32.000Z</time>
|
|
</trkpt>
|
|
<trkpt lat="56.090731" lon="8.113574">
|
|
<ele>27.519663</ele>
|
|
<time>2026-07-12T14:08:33.000Z</time>
|
|
</trkpt>
|
|
<trkpt lat="56.090767" lon="8.113608">
|
|
<ele>27.521002</ele>
|
|
<time>2026-07-12T14:08:34.000Z</time>
|
|
</trkpt>
|
|
<trkpt lat="56.090807" lon="8.113635">
|
|
<ele>27.522408</ele>
|
|
<time>2026-07-12T14:08:35.000Z</time>
|
|
</trkpt>
|
|
<trkpt lat="56.090851" lon="8.113653">
|
|
<ele>27.523892</ele>
|
|
<time>2026-07-12T14:08:36.000Z</time>
|
|
</trkpt>
|
|
<trkpt lat="56.090895" lon="8.113664">
|
|
<ele>27.525353</ele>
|
|
<time>2026-07-12T14:08:37.000Z</time>
|
|
</trkpt>
|
|
<trkpt lat="56.090940" lon="8.113660">
|
|
<ele>27.526835</ele>
|
|
<time>2026-07-12T14:08:38.000Z</time>
|
|
</trkpt>
|
|
<trkpt lat="56.090983" lon="8.113651">
|
|
<ele>27.528259</ele>
|
|
<time>2026-07-12T14:08:39.000Z</time>
|
|
</trkpt>
|
|
<trkpt lat="56.091029" lon="8.113641">
|
|
<ele>27.529783</ele>
|
|
<time>2026-07-12T14:08:40.000Z</time>
|
|
</trkpt>
|
|
<trkpt lat="56.091074" lon="8.113634">
|
|
<ele>27.531269</ele>
|
|
<time>2026-07-12T14:08:41.000Z</time>
|
|
</trkpt>
|
|
<trkpt lat="56.091121" lon="8.113635">
|
|
<ele>27.532815</ele>
|
|
<time>2026-07-12T14:08:42.000Z</time>
|
|
</trkpt>
|
|
<trkpt lat="56.091166" lon="8.113643">
|
|
<ele>27.534303</ele>
|
|
<time>2026-07-12T14:08:43.000Z</time>
|
|
</trkpt>
|
|
<trkpt lat="56.091212" lon="8.113659">
|
|
<ele>27.535844</ele>
|
|
<time>2026-07-12T14:08:44.000Z</time>
|
|
</trkpt>
|
|
<trkpt lat="56.091256" lon="8.113681">
|
|
<ele>27.537346</ele>
|
|
<time>2026-07-12T14:08:45.000Z</time>
|
|
</trkpt>
|
|
<trkpt lat="56.091298" lon="8.113710">
|
|
<ele>27.538827</ele>
|
|
<time>2026-07-12T14:08:46.000Z</time>
|
|
</trkpt>
|
|
<trkpt lat="56.091339" lon="8.113741">
|
|
<ele>27.540290</ele>
|
|
<time>2026-07-12T14:08:47.000Z</time>
|
|
</trkpt>
|
|
<trkpt lat="56.091380" lon="8.113770">
|
|
<ele>27.541740</ele>
|
|
<time>2026-07-12T14:08:48.000Z</time>
|
|
</trkpt>
|
|
<trkpt lat="56.091420" lon="8.113793">
|
|
<ele>27.542332</ele>
|
|
<time>2026-07-12T14:08:49.000Z</time>
|
|
</trkpt>
|
|
<trkpt lat="56.091463" lon="8.113806">
|
|
<ele>27.540473</ele>
|
|
<time>2026-07-12T14:08:50.000Z</time>
|
|
</trkpt>
|
|
<trkpt lat="56.091505" lon="8.113808">
|
|
<ele>27.538681</ele>
|
|
<time>2026-07-12T14:08:51.000Z</time>
|
|
</trkpt>
|
|
<trkpt lat="56.091546" lon="8.113805">
|
|
<ele>27.536932</ele>
|
|
<time>2026-07-12T14:08:52.000Z</time>
|
|
</trkpt>
|
|
<trkpt lat="56.091588" lon="8.113803">
|
|
<ele>27.535140</ele>
|
|
<time>2026-07-12T14:08:53.000Z</time>
|
|
</trkpt>
|
|
<trkpt lat="56.091632" lon="8.113802">
|
|
<ele>27.533264</ele>
|
|
<time>2026-07-12T14:08:54.000Z</time>
|
|
</trkpt>
|
|
<trkpt lat="56.091680" lon="8.113803">
|
|
<ele>27.531217</ele>
|
|
<time>2026-07-12T14:08:55.000Z</time>
|
|
</trkpt>
|
|
<trkpt lat="56.091729" lon="8.113799">
|
|
<ele>27.529126</ele>
|
|
<time>2026-07-12T14:08:56.000Z</time>
|
|
</trkpt>
|
|
<trkpt lat="56.091778" lon="8.113791">
|
|
<ele>27.527028</ele>
|
|
<time>2026-07-12T14:08:57.000Z</time>
|
|
</trkpt>
|
|
<trkpt lat="56.091826" lon="8.113781">
|
|
<ele>27.524967</ele>
|
|
<time>2026-07-12T14:08:58.000Z</time>
|
|
</trkpt>
|
|
<trkpt lat="56.091874" lon="8.113769">
|
|
<ele>27.522901</ele>
|
|
<time>2026-07-12T14:08:59.000Z</time>
|
|
</trkpt>
|
|
<trkpt lat="56.091923" lon="8.113752">
|
|
<ele>27.520773</ele>
|
|
<time>2026-07-12T14:09:00.000Z</time>
|
|
</trkpt>
|
|
<trkpt lat="56.091970" lon="8.113728">
|
|
<ele>27.518689</ele>
|
|
<time>2026-07-12T14:09:01.000Z</time>
|
|
</trkpt>
|
|
<trkpt lat="56.092012" lon="8.113694">
|
|
<ele>27.516724</ele>
|
|
<time>2026-07-12T14:09:02.000Z</time>
|
|
</trkpt>
|
|
<trkpt lat="56.092051" lon="8.113650">
|
|
<ele>27.514759</ele>
|
|
<time>2026-07-12T14:09:03.000Z</time>
|
|
</trkpt>
|
|
<trkpt lat="56.092084" lon="8.113598">
|
|
<ele>27.512886</ele>
|
|
<time>2026-07-12T14:09:04.000Z</time>
|
|
</trkpt>
|
|
<trkpt lat="56.092114" lon="8.113539">
|
|
<ele>27.510987</ele>
|
|
<time>2026-07-12T14:09:05.000Z</time>
|
|
</trkpt>
|
|
<trkpt lat="56.092145" lon="8.113476">
|
|
<ele>27.508989</ele>
|
|
<time>2026-07-12T14:09:06.000Z</time>
|
|
</trkpt>
|
|
<trkpt lat="56.092174" lon="8.113414">
|
|
<ele>27.507064</ele>
|
|
<time>2026-07-12T14:09:07.000Z</time>
|
|
</trkpt>
|
|
<trkpt lat="56.092203" lon="8.113355">
|
|
<ele>27.505194</ele>
|
|
<time>2026-07-12T14:09:08.000Z</time>
|
|
</trkpt>
|
|
<trkpt lat="56.092239" lon="8.113303">
|
|
<ele>27.503223</ele>
|
|
<time>2026-07-12T14:09:09.000Z</time>
|
|
</trkpt>
|
|
<trkpt lat="56.092279" lon="8.113261">
|
|
<ele>27.501246</ele>
|
|
<time>2026-07-12T14:09:10.000Z</time>
|
|
</trkpt>
|
|
<trkpt lat="56.092323" lon="8.113231">
|
|
<ele>27.499239</ele>
|
|
<time>2026-07-12T14:09:11.000Z</time>
|
|
</trkpt>
|
|
<trkpt lat="56.092368" lon="8.113215">
|
|
<ele>27.497283</ele>
|
|
<time>2026-07-12T14:09:12.000Z</time>
|
|
</trkpt>
|
|
<trkpt lat="56.092413" lon="8.113209">
|
|
<ele>27.495359</ele>
|
|
<time>2026-07-12T14:09:13.000Z</time>
|
|
</trkpt>
|
|
<trkpt lat="56.092460" lon="8.113211">
|
|
<ele>27.493354</ele>
|
|
<time>2026-07-12T14:09:14.000Z</time>
|
|
</trkpt>
|
|
<trkpt lat="56.092506" lon="8.113215">
|
|
<ele>27.491390</ele>
|
|
<time>2026-07-12T14:09:15.000Z</time>
|
|
</trkpt>
|
|
<trkpt lat="56.092552" lon="8.113220">
|
|
<ele>27.489425</ele>
|
|
<time>2026-07-12T14:09:16.000Z</time>
|
|
</trkpt>
|
|
<trkpt lat="56.092597" lon="8.113223">
|
|
<ele>27.487505</ele>
|
|
<time>2026-07-12T14:09:17.000Z</time>
|
|
</trkpt>
|
|
<trkpt lat="56.092643" lon="8.113223">
|
|
<ele>27.485544</ele>
|
|
<time>2026-07-12T14:09:18.000Z</time>
|
|
</trkpt>
|
|
<trkpt lat="56.092688" lon="8.113221">
|
|
<ele>27.483625</ele>
|
|
<time>2026-07-12T14:09:19.000Z</time>
|
|
</trkpt>
|
|
<trkpt lat="56.092732" lon="8.113218">
|
|
<ele>27.481747</ele>
|
|
<time>2026-07-12T14:09:20.000Z</time>
|
|
</trkpt>
|
|
<trkpt lat="56.092774" lon="8.113216">
|
|
<ele>27.479956</ele>
|
|
<time>2026-07-12T14:09:21.000Z</time>
|
|
</trkpt>
|
|
<trkpt lat="56.092815" lon="8.113211">
|
|
<ele>27.478204</ele>
|
|
<time>2026-07-12T14:09:22.000Z</time>
|
|
</trkpt>
|
|
<trkpt lat="56.092854" lon="8.113202">
|
|
<ele>27.476527</ele>
|
|
<time>2026-07-12T14:09:23.000Z</time>
|
|
</trkpt>
|
|
<trkpt lat="56.092894" lon="8.113192">
|
|
<ele>27.474805</ele>
|
|
<time>2026-07-12T14:09:24.000Z</time>
|
|
</trkpt>
|
|
<trkpt lat="56.092933" lon="8.113181">
|
|
<ele>27.473122</ele>
|
|
<time>2026-07-12T14:09:25.000Z</time>
|
|
</trkpt>
|
|
<trkpt lat="56.092970" lon="8.113172">
|
|
<ele>27.471529</ele>
|
|
<time>2026-07-12T14:09:26.000Z</time>
|
|
</trkpt>
|
|
<trkpt lat="56.093006" lon="8.113166">
|
|
<ele>27.469988</ele>
|
|
<time>2026-07-12T14:09:27.000Z</time>
|
|
</trkpt>
|
|
<trkpt lat="56.093042" lon="8.113162">
|
|
<ele>27.468450</ele>
|
|
<time>2026-07-12T14:09:28.000Z</time>
|
|
</trkpt>
|
|
<trkpt lat="56.093077" lon="8.113160">
|
|
<ele>27.466957</ele>
|
|
<time>2026-07-12T14:09:29.000Z</time>
|
|
</trkpt>
|
|
<trkpt lat="56.093111" lon="8.113157">
|
|
<ele>27.466818</ele>
|
|
<time>2026-07-12T14:09:30.000Z</time>
|
|
</trkpt>
|
|
<trkpt lat="56.093147" lon="8.113153">
|
|
<ele>27.468754</ele>
|
|
<time>2026-07-12T14:09:31.000Z</time>
|
|
</trkpt>
|
|
<trkpt lat="56.093182" lon="8.113147">
|
|
<ele>27.470641</ele>
|
|
<time>2026-07-12T14:09:32.000Z</time>
|
|
</trkpt>
|
|
<trkpt lat="56.093213" lon="8.113144">
|
|
<ele>27.472307</ele>
|
|
<time>2026-07-12T14:09:33.000Z</time>
|
|
</trkpt>
|
|
<trkpt lat="56.093239" lon="8.113145">
|
|
<ele>27.473703</ele>
|
|
<time>2026-07-12T14:09:34.000Z</time>
|
|
</trkpt>
|
|
<trkpt lat="56.093262" lon="8.113148">
|
|
<ele>27.474940</ele>
|
|
<time>2026-07-12T14:09:35.000Z</time>
|
|
</trkpt>
|
|
<trkpt lat="56.093288" lon="8.113152">
|
|
<ele>27.476341</ele>
|
|
<time>2026-07-12T14:09:36.000Z</time>
|
|
</trkpt>
|
|
<trkpt lat="56.093309" lon="8.113155">
|
|
<ele>27.477472</ele>
|
|
<time>2026-07-12T14:09:37.000Z</time>
|
|
</trkpt>
|
|
<trkpt lat="56.093331" lon="8.113160">
|
|
<ele>27.478662</ele>
|
|
<time>2026-07-12T14:09:38.000Z</time>
|
|
</trkpt>
|
|
<trkpt lat="56.093353" lon="8.113166">
|
|
<ele>27.479856</ele>
|
|
<time>2026-07-12T14:09:39.000Z</time>
|
|
</trkpt>
|
|
<trkpt lat="56.093375" lon="8.113171">
|
|
<ele>27.481046</ele>
|
|
<time>2026-07-12T14:09:40.000Z</time>
|
|
</trkpt>
|
|
<trkpt lat="56.093402" lon="8.113177">
|
|
<ele>27.482506</ele>
|
|
<time>2026-07-12T14:09:41.000Z</time>
|
|
</trkpt>
|
|
<trkpt lat="56.093430" lon="8.113187">
|
|
<ele>27.484039</ele>
|
|
<time>2026-07-12T14:09:42.000Z</time>
|
|
</trkpt>
|
|
<trkpt lat="56.093465" lon="8.113197">
|
|
<ele>27.485941</ele>
|
|
<time>2026-07-12T14:09:43.000Z</time>
|
|
</trkpt>
|
|
<trkpt lat="56.093507" lon="8.113199">
|
|
<ele>27.488196</ele>
|
|
<time>2026-07-12T14:09:44.000Z</time>
|
|
</trkpt>
|
|
<trkpt lat="56.093553" lon="8.113194">
|
|
<ele>27.490669</ele>
|
|
<time>2026-07-12T14:09:45.000Z</time>
|
|
</trkpt>
|
|
<trkpt lat="56.093598" lon="8.113190">
|
|
<ele>27.493087</ele>
|
|
<time>2026-07-12T14:09:46.000Z</time>
|
|
</trkpt>
|
|
<trkpt lat="56.093645" lon="8.113186">
|
|
<ele>27.495612</ele>
|
|
<time>2026-07-12T14:09:47.000Z</time>
|
|
</trkpt>
|
|
<trkpt lat="56.093688" lon="8.113180">
|
|
<ele>27.497927</ele>
|
|
<time>2026-07-12T14:09:48.000Z</time>
|
|
</trkpt>
|
|
<trkpt lat="56.093734" lon="8.113175">
|
|
<ele>27.500400</ele>
|
|
<time>2026-07-12T14:09:49.000Z</time>
|
|
</trkpt>
|
|
<trkpt lat="56.093785" lon="8.113168">
|
|
<ele>27.503145</ele>
|
|
<time>2026-07-12T14:09:50.000Z</time>
|
|
</trkpt>
|
|
<trkpt lat="56.093834" lon="8.113158">
|
|
<ele>27.505792</ele>
|
|
<time>2026-07-12T14:09:51.000Z</time>
|
|
</trkpt>
|
|
<trkpt lat="56.093883" lon="8.113145">
|
|
<ele>27.508451</ele>
|
|
<time>2026-07-12T14:09:52.000Z</time>
|
|
</trkpt>
|
|
<trkpt lat="56.093933" lon="8.113133">
|
|
<ele>27.511158</ele>
|
|
<time>2026-07-12T14:09:53.000Z</time>
|
|
</trkpt>
|
|
<trkpt lat="56.093983" lon="8.113119">
|
|
<ele>27.513874</ele>
|
|
<time>2026-07-12T14:09:54.000Z</time>
|
|
</trkpt>
|
|
<trkpt lat="56.094034" lon="8.113106">
|
|
<ele>27.516639</ele>
|
|
<time>2026-07-12T14:09:55.000Z</time>
|
|
</trkpt>
|
|
<trkpt lat="56.094088" lon="8.113096">
|
|
<ele>27.519552</ele>
|
|
<time>2026-07-12T14:09:56.000Z</time>
|
|
</trkpt>
|
|
<trkpt lat="56.094141" lon="8.113088">
|
|
<ele>27.522407</ele>
|
|
<time>2026-07-12T14:09:57.000Z</time>
|
|
</trkpt>
|
|
<trkpt lat="56.094196" lon="8.113085">
|
|
<ele>27.525360</ele>
|
|
<time>2026-07-12T14:09:58.000Z</time>
|
|
</trkpt>
|
|
<trkpt lat="56.094250" lon="8.113086">
|
|
<ele>27.528258</ele>
|
|
<time>2026-07-12T14:09:59.000Z</time>
|
|
</trkpt>
|
|
<trkpt lat="56.094298" lon="8.113089">
|
|
<ele>27.530836</ele>
|
|
<time>2026-07-12T14:10:00.000Z</time>
|
|
</trkpt>
|
|
<trkpt lat="56.094344" lon="8.113093">
|
|
<ele>27.533307</ele>
|
|
<time>2026-07-12T14:10:01.000Z</time>
|
|
</trkpt>
|
|
<trkpt lat="56.094387" lon="8.113105">
|
|
<ele>27.535643</ele>
|
|
<time>2026-07-12T14:10:02.000Z</time>
|
|
</trkpt>
|
|
<trkpt lat="56.094426" lon="8.113126">
|
|
<ele>27.537828</ele>
|
|
<time>2026-07-12T14:10:03.000Z</time>
|
|
</trkpt>
|
|
<trkpt lat="56.094469" lon="8.113151">
|
|
<ele>27.540254</ele>
|
|
<time>2026-07-12T14:10:04.000Z</time>
|
|
</trkpt>
|
|
<trkpt lat="56.094512" lon="8.113182">
|
|
<ele>27.542742</ele>
|
|
<time>2026-07-12T14:10:05.000Z</time>
|
|
</trkpt>
|
|
<trkpt lat="56.094551" lon="8.113217">
|
|
<ele>27.545083</ele>
|
|
<time>2026-07-12T14:10:06.000Z</time>
|
|
</trkpt>
|
|
<trkpt lat="56.094587" lon="8.113252">
|
|
<ele>27.547280</ele>
|
|
<time>2026-07-12T14:10:07.000Z</time>
|
|
</trkpt>
|
|
<trkpt lat="56.094620" lon="8.113290">
|
|
<ele>27.549385</ele>
|
|
<time>2026-07-12T14:10:08.000Z</time>
|
|
</trkpt>
|
|
<trkpt lat="56.094652" lon="8.113331">
|
|
<ele>27.551496</ele>
|
|
<time>2026-07-12T14:10:09.000Z</time>
|
|
</trkpt>
|
|
<trkpt lat="56.094685" lon="8.113372">
|
|
<ele>27.553651</ele>
|
|
<time>2026-07-12T14:10:10.000Z</time>
|
|
</trkpt>
|
|
<trkpt lat="56.094719" lon="8.113411">
|
|
<ele>27.555817</ele>
|
|
<time>2026-07-12T14:10:11.000Z</time>
|
|
</trkpt>
|
|
<trkpt lat="56.094754" lon="8.113448">
|
|
<ele>27.557998</ele>
|
|
<time>2026-07-12T14:10:12.000Z</time>
|
|
</trkpt>
|
|
<trkpt lat="56.094785" lon="8.113483">
|
|
<ele>27.559964</ele>
|
|
<time>2026-07-12T14:10:13.000Z</time>
|
|
</trkpt>
|
|
<trkpt lat="56.094818" lon="8.113518">
|
|
<ele>27.562022</ele>
|
|
<time>2026-07-12T14:10:14.000Z</time>
|
|
</trkpt>
|
|
<trkpt lat="56.094853" lon="8.113556">
|
|
<ele>27.571417</ele>
|
|
<time>2026-07-12T14:10:15.000Z</time>
|
|
</trkpt>
|
|
<trkpt lat="56.094883" lon="8.113593">
|
|
<ele>27.582161</ele>
|
|
<time>2026-07-12T14:10:16.000Z</time>
|
|
</trkpt>
|
|
<trkpt lat="56.094915" lon="8.113630">
|
|
<ele>27.593396</ele>
|
|
<time>2026-07-12T14:10:17.000Z</time>
|
|
</trkpt>
|
|
<trkpt lat="56.094948" lon="8.113672">
|
|
<ele>27.605337</ele>
|
|
<time>2026-07-12T14:10:18.000Z</time>
|
|
</trkpt>
|
|
<trkpt lat="56.094980" lon="8.113713">
|
|
<ele>27.616942</ele>
|
|
<time>2026-07-12T14:10:19.000Z</time>
|
|
</trkpt>
|
|
<trkpt lat="56.095015" lon="8.113754">
|
|
<ele>27.629278</ele>
|
|
<time>2026-07-12T14:10:20.000Z</time>
|
|
</trkpt>
|
|
<trkpt lat="56.095049" lon="8.113789">
|
|
<ele>27.640846</ele>
|
|
<time>2026-07-12T14:10:21.000Z</time>
|
|
</trkpt>
|
|
<trkpt lat="56.095081" lon="8.113809">
|
|
<ele>27.650845</ele>
|
|
<time>2026-07-12T14:10:22.000Z</time>
|
|
</trkpt>
|
|
<trkpt lat="56.095114" lon="8.113807">
|
|
<ele>27.660587</ele>
|
|
<time>2026-07-12T14:10:23.000Z</time>
|
|
</trkpt>
|
|
<trkpt lat="56.095145" lon="8.113788">
|
|
<ele>27.670253</ele>
|
|
<time>2026-07-12T14:10:24.000Z</time>
|
|
</trkpt>
|
|
<trkpt lat="56.095170" lon="8.113761">
|
|
<ele>27.678865</ele>
|
|
<time>2026-07-12T14:10:25.000Z</time>
|
|
</trkpt>
|
|
<trkpt lat="56.095195" lon="8.113738">
|
|
<ele>27.687156</ele>
|
|
<time>2026-07-12T14:10:26.000Z</time>
|
|
</trkpt>
|
|
<trkpt lat="56.095220" lon="8.113728">
|
|
<ele>27.694713</ele>
|
|
<time>2026-07-12T14:10:27.000Z</time>
|
|
</trkpt>
|
|
<trkpt lat="56.095244" lon="8.113728">
|
|
<ele>27.701794</ele>
|
|
<time>2026-07-12T14:10:28.000Z</time>
|
|
</trkpt>
|
|
<trkpt lat="56.095271" lon="8.113734">
|
|
<ele>27.709822</ele>
|
|
<time>2026-07-12T14:10:29.000Z</time>
|
|
</trkpt>
|
|
<trkpt lat="56.095297" lon="8.113740">
|
|
<ele>27.717556</ele>
|
|
<time>2026-07-12T14:10:30.000Z</time>
|
|
</trkpt>
|
|
<trkpt lat="56.095325" lon="8.113748">
|
|
<ele>27.725922</ele>
|
|
<time>2026-07-12T14:10:31.000Z</time>
|
|
</trkpt>
|
|
<trkpt lat="56.095351" lon="8.113762">
|
|
<ele>27.733932</ele>
|
|
<time>2026-07-12T14:10:32.000Z</time>
|
|
</trkpt>
|
|
<trkpt lat="56.095376" lon="8.113782">
|
|
<ele>27.742009</ele>
|
|
<time>2026-07-12T14:10:33.000Z</time>
|
|
</trkpt>
|
|
<trkpt lat="56.095402" lon="8.113804">
|
|
<ele>27.750492</ele>
|
|
<time>2026-07-12T14:10:34.000Z</time>
|
|
</trkpt>
|
|
<trkpt lat="56.095434" lon="8.113827">
|
|
<ele>27.760664</ele>
|
|
<time>2026-07-12T14:10:35.000Z</time>
|
|
</trkpt>
|
|
<trkpt lat="56.095467" lon="8.113848">
|
|
<ele>27.770996</ele>
|
|
<time>2026-07-12T14:10:36.000Z</time>
|
|
</trkpt>
|
|
<trkpt lat="56.095499" lon="8.113869">
|
|
<ele>27.781050</ele>
|
|
<time>2026-07-12T14:10:37.000Z</time>
|
|
</trkpt>
|
|
<trkpt lat="56.095532" lon="8.113891">
|
|
<ele>27.791438</ele>
|
|
<time>2026-07-12T14:10:38.000Z</time>
|
|
</trkpt>
|
|
<trkpt lat="56.095563" lon="8.113912">
|
|
<ele>27.801216</ele>
|
|
<time>2026-07-12T14:10:39.000Z</time>
|
|
</trkpt>
|
|
<trkpt lat="56.095596" lon="8.113929">
|
|
<ele>27.811346</ele>
|
|
<time>2026-07-12T14:10:40.000Z</time>
|
|
</trkpt>
|
|
<trkpt lat="56.095631" lon="8.113948">
|
|
<ele>27.822136</ele>
|
|
<time>2026-07-12T14:10:41.000Z</time>
|
|
</trkpt>
|
|
<trkpt lat="56.095661" lon="8.113964">
|
|
<ele>27.831371</ele>
|
|
<time>2026-07-12T14:10:42.000Z</time>
|
|
</trkpt>
|
|
<trkpt lat="56.095690" lon="8.113978">
|
|
<ele>27.840232</ele>
|
|
<time>2026-07-12T14:10:43.000Z</time>
|
|
</trkpt>
|
|
<trkpt lat="56.095721" lon="8.113991">
|
|
<ele>27.849626</ele>
|
|
<time>2026-07-12T14:10:44.000Z</time>
|
|
</trkpt>
|
|
<trkpt lat="56.095749" lon="8.114001">
|
|
<ele>27.858049</ele>
|
|
<time>2026-07-12T14:10:45.000Z</time>
|
|
</trkpt>
|
|
<trkpt lat="56.095775" lon="8.114011">
|
|
<ele>27.865895</ele>
|
|
<time>2026-07-12T14:10:46.000Z</time>
|
|
</trkpt>
|
|
<trkpt lat="56.095797" lon="8.114020">
|
|
<ele>27.872553</ele>
|
|
<time>2026-07-12T14:10:47.000Z</time>
|
|
</trkpt>
|
|
<trkpt lat="56.095829" lon="8.114025">
|
|
<ele>27.882031</ele>
|
|
<time>2026-07-12T14:10:48.000Z</time>
|
|
</trkpt>
|
|
<trkpt lat="56.095859" lon="8.114027">
|
|
<ele>27.890888</ele>
|
|
<time>2026-07-12T14:10:49.000Z</time>
|
|
</trkpt>
|
|
<trkpt lat="56.095885" lon="8.114032">
|
|
<ele>27.898603</ele>
|
|
<time>2026-07-12T14:10:50.000Z</time>
|
|
</trkpt>
|
|
<trkpt lat="56.095912" lon="8.114034">
|
|
<ele>27.906576</ele>
|
|
<time>2026-07-12T14:10:51.000Z</time>
|
|
</trkpt>
|
|
<trkpt lat="56.095938" lon="8.114034">
|
|
<ele>27.914248</ele>
|
|
<time>2026-07-12T14:10:52.000Z</time>
|
|
</trkpt>
|
|
<trkpt lat="56.095967" lon="8.114032">
|
|
<ele>27.922810</ele>
|
|
<time>2026-07-12T14:10:53.000Z</time>
|
|
</trkpt>
|
|
<trkpt lat="56.095999" lon="8.114025">
|
|
<ele>27.932322</ele>
|
|
<time>2026-07-12T14:10:54.000Z</time>
|
|
</trkpt>
|
|
<trkpt lat="56.096033" lon="8.114019">
|
|
<ele>27.942402</ele>
|
|
<time>2026-07-12T14:10:55.000Z</time>
|
|
</trkpt>
|
|
<trkpt lat="56.096066" lon="8.114016">
|
|
<ele>27.952151</ele>
|
|
<time>2026-07-12T14:10:56.000Z</time>
|
|
</trkpt>
|
|
<trkpt lat="56.096096" lon="8.114015">
|
|
<ele>27.961004</ele>
|
|
<time>2026-07-12T14:10:57.000Z</time>
|
|
</trkpt>
|
|
<trkpt lat="56.096129" lon="8.114018">
|
|
<ele>27.970753</ele>
|
|
<time>2026-07-12T14:10:58.000Z</time>
|
|
</trkpt>
|
|
<trkpt lat="56.096161" lon="8.114025">
|
|
<ele>27.980265</ele>
|
|
<time>2026-07-12T14:10:59.000Z</time>
|
|
</trkpt>
|
|
<trkpt lat="56.096193" lon="8.114032">
|
|
<ele>27.989777</ele>
|
|
<time>2026-07-12T14:11:00.000Z</time>
|
|
</trkpt>
|
|
<trkpt lat="56.096227" lon="8.114039">
|
|
<ele>27.999874</ele>
|
|
<time>2026-07-12T14:11:01.000Z</time>
|
|
</trkpt>
|
|
<trkpt lat="56.096260" lon="8.114047">
|
|
<ele>28.009699</ele>
|
|
<time>2026-07-12T14:11:02.000Z</time>
|
|
</trkpt>
|
|
<trkpt lat="56.096291" lon="8.114054">
|
|
<ele>28.018918</ele>
|
|
<time>2026-07-12T14:11:03.000Z</time>
|
|
</trkpt>
|
|
<trkpt lat="56.096321" lon="8.114057">
|
|
<ele>28.027783</ele>
|
|
<time>2026-07-12T14:11:04.000Z</time>
|
|
</trkpt>
|
|
<trkpt lat="56.096354" lon="8.114056">
|
|
<ele>28.037521</ele>
|
|
<time>2026-07-12T14:11:05.000Z</time>
|
|
</trkpt>
|
|
<trkpt lat="56.096386" lon="8.114055">
|
|
<ele>28.046964</ele>
|
|
<time>2026-07-12T14:11:06.000Z</time>
|
|
</trkpt>
|
|
<trkpt lat="56.096415" lon="8.114055">
|
|
<ele>28.055521</ele>
|
|
<time>2026-07-12T14:11:07.000Z</time>
|
|
</trkpt>
|
|
<trkpt lat="56.096444" lon="8.114055">
|
|
<ele>28.064077</ele>
|
|
<time>2026-07-12T14:11:08.000Z</time>
|
|
</trkpt>
|
|
<trkpt lat="56.096474" lon="8.114056">
|
|
<ele>28.072930</ele>
|
|
<time>2026-07-12T14:11:09.000Z</time>
|
|
</trkpt>
|
|
<trkpt lat="56.096504" lon="8.114055">
|
|
<ele>28.081783</ele>
|
|
<time>2026-07-12T14:11:10.000Z</time>
|
|
</trkpt>
|
|
<trkpt lat="56.096532" lon="8.114055">
|
|
<ele>28.090044</ele>
|
|
<time>2026-07-12T14:11:11.000Z</time>
|
|
</trkpt>
|
|
<trkpt lat="56.096553" lon="8.114055">
|
|
<ele>28.096939</ele>
|
|
<time>2026-07-12T14:11:12.000Z</time>
|
|
</trkpt>
|
|
<trkpt lat="56.096570" lon="8.114056">
|
|
<ele>28.103151</ele>
|
|
<time>2026-07-12T14:11:13.000Z</time>
|
|
</trkpt>
|
|
<trkpt lat="56.096593" lon="8.114048">
|
|
<ele>28.111709</ele>
|
|
<time>2026-07-12T14:11:48.000Z</time>
|
|
</trkpt>
|
|
<trkpt lat="56.096604" lon="8.114044">
|
|
<ele>28.115808</ele>
|
|
<time>2026-07-12T14:11:49.000Z</time>
|
|
</trkpt>
|
|
<trkpt lat="56.096617" lon="8.114041">
|
|
<ele>28.120595</ele>
|
|
<time>2026-07-12T14:11:50.000Z</time>
|
|
</trkpt>
|
|
<trkpt lat="56.096634" lon="8.114041">
|
|
<ele>28.126805</ele>
|
|
<time>2026-07-12T14:11:51.000Z</time>
|
|
</trkpt>
|
|
<trkpt lat="56.096653" lon="8.114038">
|
|
<ele>28.133771</ele>
|
|
<time>2026-07-12T14:11:52.000Z</time>
|
|
</trkpt>
|
|
<trkpt lat="56.096675" lon="8.114034">
|
|
<ele>28.141848</ele>
|
|
<time>2026-07-12T14:11:53.000Z</time>
|
|
</trkpt>
|
|
<trkpt lat="56.096703" lon="8.114031">
|
|
<ele>28.152093</ele>
|
|
<time>2026-07-12T14:11:54.000Z</time>
|
|
</trkpt>
|
|
<trkpt lat="56.096735" lon="8.114031">
|
|
<ele>28.163780</ele>
|
|
<time>2026-07-12T14:11:55.000Z</time>
|
|
</trkpt>
|
|
<trkpt lat="56.096770" lon="8.114033">
|
|
<ele>28.176570</ele>
|
|
<time>2026-07-12T14:11:56.000Z</time>
|
|
</trkpt>
|
|
<trkpt lat="56.096805" lon="8.114034">
|
|
<ele>28.189355</ele>
|
|
<time>2026-07-12T14:11:57.000Z</time>
|
|
</trkpt>
|
|
<trkpt lat="56.096842" lon="8.114036">
|
|
<ele>28.202876</ele>
|
|
<time>2026-07-12T14:11:58.000Z</time>
|
|
</trkpt>
|
|
<trkpt lat="56.096878" lon="8.114040">
|
|
<ele>28.216049</ele>
|
|
<time>2026-07-12T14:11:59.000Z</time>
|
|
</trkpt>
|
|
<trkpt lat="56.096914" lon="8.114044">
|
|
<ele>28.229223</ele>
|
|
<time>2026-07-12T14:12:00.000Z</time>
|
|
</trkpt>
|
|
<trkpt lat="56.096950" lon="8.114048">
|
|
<ele>28.242397</ele>
|
|
<time>2026-07-12T14:12:01.000Z</time>
|
|
</trkpt>
|
|
<trkpt lat="56.096988" lon="8.114051">
|
|
<ele>28.256290</ele>
|
|
<time>2026-07-12T14:12:02.000Z</time>
|
|
</trkpt>
|
|
<trkpt lat="56.097023" lon="8.114056">
|
|
<ele>28.269114</ele>
|
|
<time>2026-07-12T14:12:03.000Z</time>
|
|
</trkpt>
|
|
<trkpt lat="56.097055" lon="8.114060">
|
|
<ele>28.280830</ele>
|
|
<time>2026-07-12T14:12:04.000Z</time>
|
|
</trkpt>
|
|
<trkpt lat="56.097088" lon="8.114066">
|
|
<ele>28.292945</ele>
|
|
<time>2026-07-12T14:12:05.000Z</time>
|
|
</trkpt>
|
|
<trkpt lat="56.097119" lon="8.114072">
|
|
<ele>28.304333</ele>
|
|
<time>2026-07-12T14:12:06.000Z</time>
|
|
</trkpt>
|
|
<trkpt lat="56.097148" lon="8.114075">
|
|
<ele>28.314943</ele>
|
|
<time>2026-07-12T14:12:07.000Z</time>
|
|
</trkpt>
|
|
<trkpt lat="56.097173" lon="8.114074">
|
|
<ele>28.324076</ele>
|
|
<time>2026-07-12T14:12:08.000Z</time>
|
|
</trkpt>
|
|
<trkpt lat="56.097197" lon="8.114074">
|
|
<ele>28.332842</ele>
|
|
<time>2026-07-12T14:12:09.000Z</time>
|
|
</trkpt>
|
|
<trkpt lat="56.097224" lon="8.114075">
|
|
<ele>28.342706</ele>
|
|
<time>2026-07-12T14:12:10.000Z</time>
|
|
</trkpt>
|
|
<trkpt lat="56.097251" lon="8.114078">
|
|
<ele>28.352586</ele>
|
|
<time>2026-07-12T14:12:11.000Z</time>
|
|
</trkpt>
|
|
<trkpt lat="56.097279" lon="8.114085">
|
|
<ele>28.362912</ele>
|
|
<time>2026-07-12T14:12:12.000Z</time>
|
|
</trkpt>
|
|
<trkpt lat="56.097308" lon="8.114093">
|
|
<ele>28.373629</ele>
|
|
<time>2026-07-12T14:12:13.000Z</time>
|
|
</trkpt>
|
|
<trkpt lat="56.097336" lon="8.114099">
|
|
<ele>28.383928</ele>
|
|
<time>2026-07-12T14:12:14.000Z</time>
|
|
</trkpt>
|
|
<trkpt lat="56.097364" lon="8.114103">
|
|
<ele>28.394187</ele>
|
|
<time>2026-07-12T14:12:15.000Z</time>
|
|
</trkpt>
|
|
<trkpt lat="56.097385" lon="8.114107">
|
|
<ele>28.401901</ele>
|
|
<time>2026-07-12T14:12:16.000Z</time>
|
|
</trkpt>
|
|
<trkpt lat="56.097398" lon="8.114112">
|
|
<ele>28.406757</ele>
|
|
<time>2026-07-12T14:12:17.000Z</time>
|
|
</trkpt>
|
|
<trkpt lat="56.097402" lon="8.114114">
|
|
<ele>28.408273</ele>
|
|
<time>2026-07-12T14:12:18.000Z</time>
|
|
</trkpt>
|
|
<trkpt lat="56.097405" lon="8.114115">
|
|
<ele>28.409388</ele>
|
|
<time>2026-07-12T14:12:19.000Z</time>
|
|
</trkpt>
|
|
<trkpt lat="56.097405" lon="8.114115">
|
|
<ele>28.409388</ele>
|
|
<time>2026-07-12T14:12:20.000Z</time>
|
|
</trkpt>
|
|
<trkpt lat="56.097413" lon="8.114109">
|
|
<ele>28.412555</ele>
|
|
<time>2026-07-12T14:12:42.000Z</time>
|
|
</trkpt>
|
|
<trkpt lat="56.097423" lon="8.114110">
|
|
<ele>28.416213</ele>
|
|
<time>2026-07-12T14:12:43.000Z</time>
|
|
</trkpt>
|
|
<trkpt lat="56.097436" lon="8.114111">
|
|
<ele>28.420966</ele>
|
|
<time>2026-07-12T14:12:44.000Z</time>
|
|
</trkpt>
|
|
<trkpt lat="56.097459" lon="8.114115">
|
|
<ele>28.429406</ele>
|
|
<time>2026-07-12T14:12:45.000Z</time>
|
|
</trkpt>
|
|
<trkpt lat="56.097483" lon="8.114119">
|
|
<ele>28.438210</ele>
|
|
<time>2026-07-12T14:12:46.000Z</time>
|
|
</trkpt>
|
|
<trkpt lat="56.097509" lon="8.114120">
|
|
<ele>28.447708</ele>
|
|
<time>2026-07-12T14:12:47.000Z</time>
|
|
</trkpt>
|
|
<trkpt lat="56.097537" lon="8.114120">
|
|
<ele>28.457935</ele>
|
|
<time>2026-07-12T14:12:48.000Z</time>
|
|
</trkpt>
|
|
<trkpt lat="56.097564" lon="8.114123">
|
|
<ele>28.467815</ele>
|
|
<time>2026-07-12T14:12:49.000Z</time>
|
|
</trkpt>
|
|
<trkpt lat="56.097591" lon="8.114129">
|
|
<ele>28.477752</ele>
|
|
<time>2026-07-12T14:12:50.000Z</time>
|
|
</trkpt>
|
|
<trkpt lat="56.097619" lon="8.114135">
|
|
<ele>28.488052</ele>
|
|
<time>2026-07-12T14:12:51.000Z</time>
|
|
</trkpt>
|
|
<trkpt lat="56.097649" lon="8.114139">
|
|
<ele>28.499039</ele>
|
|
<time>2026-07-12T14:12:52.000Z</time>
|
|
</trkpt>
|
|
<trkpt lat="56.097678" lon="8.114141">
|
|
<ele>28.509639</ele>
|
|
<time>2026-07-12T14:12:53.000Z</time>
|
|
</trkpt>
|
|
<trkpt lat="56.097705" lon="8.114146">
|
|
<ele>28.519553</ele>
|
|
<time>2026-07-12T14:12:54.000Z</time>
|
|
</trkpt>
|
|
<trkpt lat="56.097731" lon="8.114153">
|
|
<ele>28.529156</ele>
|
|
<time>2026-07-12T14:12:55.000Z</time>
|
|
</trkpt>
|
|
<trkpt lat="56.097759" lon="8.114161">
|
|
<ele>28.539512</ele>
|
|
<time>2026-07-12T14:12:56.000Z</time>
|
|
</trkpt>
|
|
<trkpt lat="56.097788" lon="8.114168">
|
|
<ele>28.550199</ele>
|
|
<time>2026-07-12T14:12:57.000Z</time>
|
|
</trkpt>
|
|
<trkpt lat="56.097817" lon="8.114173">
|
|
<ele>28.560840</ele>
|
|
<time>2026-07-12T14:12:58.000Z</time>
|
|
</trkpt>
|
|
<trkpt lat="56.097846" lon="8.114175">
|
|
<ele>28.571440</ele>
|
|
<time>2026-07-12T14:12:59.000Z</time>
|
|
</trkpt>
|
|
<trkpt lat="56.097874" lon="8.114176">
|
|
<ele>28.581669</ele>
|
|
<time>2026-07-12T14:13:00.000Z</time>
|
|
</trkpt>
|
|
<trkpt lat="56.097903" lon="8.114179">
|
|
<ele>28.592279</ele>
|
|
<time>2026-07-12T14:13:01.000Z</time>
|
|
</trkpt>
|
|
<trkpt lat="56.097930" lon="8.114184">
|
|
<ele>28.602193</ele>
|
|
<time>2026-07-12T14:13:02.000Z</time>
|
|
</trkpt>
|
|
<trkpt lat="56.097958" lon="8.114186">
|
|
<ele>28.612428</ele>
|
|
<time>2026-07-12T14:13:03.000Z</time>
|
|
</trkpt>
|
|
<trkpt lat="56.097989" lon="8.114190">
|
|
<ele>28.623779</ele>
|
|
<time>2026-07-12T14:13:04.000Z</time>
|
|
</trkpt>
|
|
<trkpt lat="56.098021" lon="8.114194">
|
|
<ele>28.635495</ele>
|
|
<time>2026-07-12T14:13:05.000Z</time>
|
|
</trkpt>
|
|
<trkpt lat="56.098055" lon="8.114199">
|
|
<ele>28.647955</ele>
|
|
<time>2026-07-12T14:13:06.000Z</time>
|
|
</trkpt>
|
|
<trkpt lat="56.098091" lon="8.114204">
|
|
<ele>28.661144</ele>
|
|
<time>2026-07-12T14:13:07.000Z</time>
|
|
</trkpt>
|
|
<trkpt lat="56.098129" lon="8.114212">
|
|
<ele>28.675118</ele>
|
|
<time>2026-07-12T14:13:08.000Z</time>
|
|
</trkpt>
|
|
<trkpt lat="56.098168" lon="8.114218">
|
|
<ele>28.689415</ele>
|
|
<time>2026-07-12T14:13:09.000Z</time>
|
|
</trkpt>
|
|
<trkpt lat="56.098209" lon="8.114221">
|
|
<ele>28.704402</ele>
|
|
<time>2026-07-12T14:13:10.000Z</time>
|
|
</trkpt>
|
|
<trkpt lat="56.098245" lon="8.114225">
|
|
<ele>28.717576</ele>
|
|
<time>2026-07-12T14:13:11.000Z</time>
|
|
</trkpt>
|
|
<trkpt lat="56.098281" lon="8.114227">
|
|
<ele>28.730731</ele>
|
|
<time>2026-07-12T14:13:12.000Z</time>
|
|
</trkpt>
|
|
<trkpt lat="56.098316" lon="8.114228">
|
|
<ele>28.743516</ele>
|
|
<time>2026-07-12T14:13:13.000Z</time>
|
|
</trkpt>
|
|
<trkpt lat="56.098350" lon="8.114226">
|
|
<ele>28.743330</ele>
|
|
<time>2026-07-12T14:13:14.000Z</time>
|
|
</trkpt>
|
|
<trkpt lat="56.098385" lon="8.114228">
|
|
<ele>28.727803</ele>
|
|
<time>2026-07-12T14:13:15.000Z</time>
|
|
</trkpt>
|
|
<trkpt lat="56.098417" lon="8.114231">
|
|
<ele>28.713595</ele>
|
|
<time>2026-07-12T14:13:16.000Z</time>
|
|
</trkpt>
|
|
<trkpt lat="56.098450" lon="8.114234">
|
|
<ele>28.698944</ele>
|
|
<time>2026-07-12T14:13:17.000Z</time>
|
|
</trkpt>
|
|
<trkpt lat="56.098482" lon="8.114238">
|
|
<ele>28.684720</ele>
|
|
<time>2026-07-12T14:13:18.000Z</time>
|
|
</trkpt>
|
|
<trkpt lat="56.098516" lon="8.114240">
|
|
<ele>28.669637</ele>
|
|
<time>2026-07-12T14:13:19.000Z</time>
|
|
</trkpt>
|
|
<trkpt lat="56.098550" lon="8.114244">
|
|
<ele>28.654528</ele>
|
|
<time>2026-07-12T14:13:20.000Z</time>
|
|
</trkpt>
|
|
<trkpt lat="56.098580" lon="8.114249">
|
|
<ele>28.641169</ele>
|
|
<time>2026-07-12T14:13:21.000Z</time>
|
|
</trkpt>
|
|
<trkpt lat="56.098612" lon="8.114256">
|
|
<ele>28.626875</ele>
|
|
<time>2026-07-12T14:13:22.000Z</time>
|
|
</trkpt>
|
|
<trkpt lat="56.098645" lon="8.114262">
|
|
<ele>28.612168</ele>
|
|
<time>2026-07-12T14:13:23.000Z</time>
|
|
</trkpt>
|
|
<trkpt lat="56.098676" lon="8.114268">
|
|
<ele>28.598342</ele>
|
|
<time>2026-07-12T14:13:24.000Z</time>
|
|
</trkpt>
|
|
<trkpt lat="56.098706" lon="8.114275">
|
|
<ele>28.584928</ele>
|
|
<time>2026-07-12T14:13:25.000Z</time>
|
|
</trkpt>
|
|
<trkpt lat="56.098736" lon="8.114281">
|
|
<ele>28.571544</ele>
|
|
<time>2026-07-12T14:13:26.000Z</time>
|
|
</trkpt>
|
|
<trkpt lat="56.098765" lon="8.114285">
|
|
<ele>28.558647</ele>
|
|
<time>2026-07-12T14:13:27.000Z</time>
|
|
</trkpt>
|
|
<trkpt lat="56.098793" lon="8.114288">
|
|
<ele>28.546210</ele>
|
|
<time>2026-07-12T14:13:28.000Z</time>
|
|
</trkpt>
|
|
<trkpt lat="56.098822" lon="8.114293">
|
|
<ele>28.533292</ele>
|
|
<time>2026-07-12T14:13:29.000Z</time>
|
|
</trkpt>
|
|
<trkpt lat="56.098851" lon="8.114296">
|
|
<ele>28.520412</ele>
|
|
<time>2026-07-12T14:13:30.000Z</time>
|
|
</trkpt>
|
|
<trkpt lat="56.098881" lon="8.114301">
|
|
<ele>28.507052</ele>
|
|
<time>2026-07-12T14:13:31.000Z</time>
|
|
</trkpt>
|
|
<trkpt lat="56.098912" lon="8.114309">
|
|
<ele>28.493165</ele>
|
|
<time>2026-07-12T14:13:32.000Z</time>
|
|
</trkpt>
|
|
<trkpt lat="56.098943" lon="8.114319">
|
|
<ele>28.479199</ele>
|
|
<time>2026-07-12T14:13:33.000Z</time>
|
|
</trkpt>
|
|
<trkpt lat="56.098980" lon="8.114330">
|
|
<ele>28.462569</ele>
|
|
<time>2026-07-12T14:13:34.000Z</time>
|
|
</trkpt>
|
|
<trkpt lat="56.099019" lon="8.114338">
|
|
<ele>28.445164</ele>
|
|
<time>2026-07-12T14:13:35.000Z</time>
|
|
</trkpt>
|
|
<trkpt lat="56.099061" lon="8.114346">
|
|
<ele>28.426436</ele>
|
|
<time>2026-07-12T14:13:36.000Z</time>
|
|
</trkpt>
|
|
<trkpt lat="56.099102" lon="8.114358">
|
|
<ele>28.408016</ele>
|
|
<time>2026-07-12T14:13:37.000Z</time>
|
|
</trkpt>
|
|
<trkpt lat="56.099142" lon="8.114367">
|
|
<ele>28.390141</ele>
|
|
<time>2026-07-12T14:13:38.000Z</time>
|
|
</trkpt>
|
|
<trkpt lat="56.099182" lon="8.114374">
|
|
<ele>28.372321</ele>
|
|
<time>2026-07-12T14:13:39.000Z</time>
|
|
</trkpt>
|
|
<trkpt lat="56.099219" lon="8.114381">
|
|
<ele>28.355824</ele>
|
|
<time>2026-07-12T14:13:40.000Z</time>
|
|
</trkpt>
|
|
<trkpt lat="56.099255" lon="8.114389">
|
|
<ele>28.339739</ele>
|
|
<time>2026-07-12T14:13:41.000Z</time>
|
|
</trkpt>
|
|
<trkpt lat="56.099291" lon="8.114394">
|
|
<ele>28.323729</ele>
|
|
<time>2026-07-12T14:13:42.000Z</time>
|
|
</trkpt>
|
|
<trkpt lat="56.099324" lon="8.114395">
|
|
<ele>28.309094</ele>
|
|
<time>2026-07-12T14:13:43.000Z</time>
|
|
</trkpt>
|
|
<trkpt lat="56.099359" lon="8.114399">
|
|
<ele>28.293544</ele>
|
|
<time>2026-07-12T14:13:44.000Z</time>
|
|
</trkpt>
|
|
<trkpt lat="56.099392" lon="8.114408">
|
|
<ele>28.278743</ele>
|
|
<time>2026-07-12T14:13:45.000Z</time>
|
|
</trkpt>
|
|
<trkpt lat="56.099430" lon="8.114419">
|
|
<ele>28.261676</ele>
|
|
<time>2026-07-12T14:13:46.000Z</time>
|
|
</trkpt>
|
|
<trkpt lat="56.099468" lon="8.114430">
|
|
<ele>28.244609</ele>
|
|
<time>2026-07-12T14:13:47.000Z</time>
|
|
</trkpt>
|
|
<trkpt lat="56.099509" lon="8.114442">
|
|
<ele>28.226188</ele>
|
|
<time>2026-07-12T14:13:48.000Z</time>
|
|
</trkpt>
|
|
<trkpt lat="56.099552" lon="8.114455">
|
|
<ele>28.206853</ele>
|
|
<time>2026-07-12T14:13:49.000Z</time>
|
|
</trkpt>
|
|
<trkpt lat="56.099593" lon="8.114466">
|
|
<ele>28.188471</ele>
|
|
<time>2026-07-12T14:13:50.000Z</time>
|
|
</trkpt>
|
|
<trkpt lat="56.099635" lon="8.114475">
|
|
<ele>28.169716</ele>
|
|
<time>2026-07-12T14:13:51.000Z</time>
|
|
</trkpt>
|
|
<trkpt lat="56.099674" lon="8.114485">
|
|
<ele>28.152247</ele>
|
|
<time>2026-07-12T14:13:52.000Z</time>
|
|
</trkpt>
|
|
<trkpt lat="56.099713" lon="8.114497">
|
|
<ele>28.134702</ele>
|
|
<time>2026-07-12T14:13:53.000Z</time>
|
|
</trkpt>
|
|
<trkpt lat="56.099747" lon="8.114510">
|
|
<ele>28.119287</ele>
|
|
<time>2026-07-12T14:13:54.000Z</time>
|
|
</trkpt>
|
|
<trkpt lat="56.099785" lon="8.114515">
|
|
<ele>28.102393</ele>
|
|
<time>2026-07-12T14:13:55.000Z</time>
|
|
</trkpt>
|
|
<trkpt lat="56.099824" lon="8.114514">
|
|
<ele>28.085098</ele>
|
|
<time>2026-07-12T14:13:56.000Z</time>
|
|
</trkpt>
|
|
<trkpt lat="56.099866" lon="8.114512">
|
|
<ele>28.066469</ele>
|
|
<time>2026-07-12T14:13:57.000Z</time>
|
|
</trkpt>
|
|
<trkpt lat="56.099907" lon="8.114513">
|
|
<ele>28.048288</ele>
|
|
<time>2026-07-12T14:13:58.000Z</time>
|
|
</trkpt>
|
|
<trkpt lat="56.099946" lon="8.114511">
|
|
<ele>28.030988</ele>
|
|
<time>2026-07-12T14:13:59.000Z</time>
|
|
</trkpt>
|
|
<trkpt lat="56.099987" lon="8.114513">
|
|
<ele>28.012802</ele>
|
|
<time>2026-07-12T14:14:00.000Z</time>
|
|
</trkpt>
|
|
<trkpt lat="56.100030" lon="8.114521">
|
|
<ele>27.993633</ele>
|
|
<time>2026-07-12T14:14:01.000Z</time>
|
|
</trkpt>
|
|
<trkpt lat="56.100070" lon="8.114523">
|
|
<ele>27.975890</ele>
|
|
<time>2026-07-12T14:14:02.000Z</time>
|
|
</trkpt>
|
|
<trkpt lat="56.100110" lon="8.114517">
|
|
<ele>27.958092</ele>
|
|
<time>2026-07-12T14:14:03.000Z</time>
|
|
</trkpt>
|
|
<trkpt lat="56.100154" lon="8.114508">
|
|
<ele>27.956614</ele>
|
|
<time>2026-07-12T14:14:04.000Z</time>
|
|
</trkpt>
|
|
<trkpt lat="56.100199" lon="8.114501">
|
|
<ele>27.962074</ele>
|
|
<time>2026-07-12T14:14:05.000Z</time>
|
|
</trkpt>
|
|
<trkpt lat="56.100244" lon="8.114495">
|
|
<ele>27.967528</ele>
|
|
<time>2026-07-12T14:14:06.000Z</time>
|
|
</trkpt>
|
|
<trkpt lat="56.100290" lon="8.114484">
|
|
<ele>27.973137</ele>
|
|
<time>2026-07-12T14:14:07.000Z</time>
|
|
</trkpt>
|
|
<trkpt lat="56.100331" lon="8.114476">
|
|
<ele>27.978122</ele>
|
|
<time>2026-07-12T14:14:08.000Z</time>
|
|
</trkpt>
|
|
<trkpt lat="56.100371" lon="8.114472">
|
|
<ele>27.982964</ele>
|
|
<time>2026-07-12T14:14:09.000Z</time>
|
|
</trkpt>
|
|
<trkpt lat="56.100410" lon="8.114467">
|
|
<ele>27.987690</ele>
|
|
<time>2026-07-12T14:14:10.000Z</time>
|
|
</trkpt>
|
|
<trkpt lat="56.100449" lon="8.114461">
|
|
<ele>27.992421</ele>
|
|
<time>2026-07-12T14:14:11.000Z</time>
|
|
</trkpt>
|
|
<trkpt lat="56.100488" lon="8.114455">
|
|
<ele>27.997153</ele>
|
|
<time>2026-07-12T14:14:12.000Z</time>
|
|
</trkpt>
|
|
<trkpt lat="56.100530" lon="8.114449">
|
|
<ele>28.002245</ele>
|
|
<time>2026-07-12T14:14:13.000Z</time>
|
|
</trkpt>
|
|
<trkpt lat="56.100574" lon="8.114446">
|
|
<ele>28.007567</ele>
|
|
<time>2026-07-12T14:14:14.000Z</time>
|
|
</trkpt>
|
|
<trkpt lat="56.100618" lon="8.114442">
|
|
<ele>28.012892</ele>
|
|
<time>2026-07-12T14:14:15.000Z</time>
|
|
</trkpt>
|
|
<trkpt lat="56.100660" lon="8.114438">
|
|
<ele>28.017976</ele>
|
|
<time>2026-07-12T14:14:16.000Z</time>
|
|
</trkpt>
|
|
<trkpt lat="56.100702" lon="8.114433">
|
|
<ele>28.023064</ele>
|
|
<time>2026-07-12T14:14:17.000Z</time>
|
|
</trkpt>
|
|
<trkpt lat="56.100744" lon="8.114424">
|
|
<ele>28.028176</ele>
|
|
<time>2026-07-12T14:14:18.000Z</time>
|
|
</trkpt>
|
|
<trkpt lat="56.100784" lon="8.114414">
|
|
<ele>28.033058</ele>
|
|
<time>2026-07-12T14:14:19.000Z</time>
|
|
</trkpt>
|
|
<trkpt lat="56.100822" lon="8.114405">
|
|
<ele>28.037691</ele>
|
|
<time>2026-07-12T14:14:20.000Z</time>
|
|
</trkpt>
|
|
<trkpt lat="56.100861" lon="8.114399">
|
|
<ele>28.042422</ele>
|
|
<time>2026-07-12T14:14:21.000Z</time>
|
|
</trkpt>
|
|
<trkpt lat="56.100899" lon="8.114395">
|
|
<ele>28.047023</ele>
|
|
<time>2026-07-12T14:14:22.000Z</time>
|
|
</trkpt>
|
|
<trkpt lat="56.100935" lon="8.114388">
|
|
<ele>28.051400</ele>
|
|
<time>2026-07-12T14:14:23.000Z</time>
|
|
</trkpt>
|
|
<trkpt lat="56.100971" lon="8.114378">
|
|
<ele>28.055803</ele>
|
|
<time>2026-07-12T14:14:24.000Z</time>
|
|
</trkpt>
|
|
<trkpt lat="56.101009" lon="8.114368">
|
|
<ele>28.060445</ele>
|
|
<time>2026-07-12T14:14:25.000Z</time>
|
|
</trkpt>
|
|
<trkpt lat="56.101046" lon="8.114360">
|
|
<ele>28.064949</ele>
|
|
<time>2026-07-12T14:14:26.000Z</time>
|
|
</trkpt>
|
|
<trkpt lat="56.101083" lon="8.114354">
|
|
<ele>28.069440</ele>
|
|
<time>2026-07-12T14:14:27.000Z</time>
|
|
</trkpt>
|
|
<trkpt lat="56.101122" lon="8.114348">
|
|
<ele>28.074171</ele>
|
|
<time>2026-07-12T14:14:28.000Z</time>
|
|
</trkpt>
|
|
<trkpt lat="56.101158" lon="8.114341">
|
|
<ele>28.078548</ele>
|
|
<time>2026-07-12T14:14:29.000Z</time>
|
|
</trkpt>
|
|
<trkpt lat="56.101196" lon="8.114335">
|
|
<ele>28.083159</ele>
|
|
<time>2026-07-12T14:14:30.000Z</time>
|
|
</trkpt>
|
|
<trkpt lat="56.101234" lon="8.114330">
|
|
<ele>28.087764</ele>
|
|
<time>2026-07-12T14:14:31.000Z</time>
|
|
</trkpt>
|
|
<trkpt lat="56.101272" lon="8.114327">
|
|
<ele>28.092361</ele>
|
|
<time>2026-07-12T14:14:32.000Z</time>
|
|
</trkpt>
|
|
<trkpt lat="56.101310" lon="8.114321">
|
|
<ele>28.096972</ele>
|
|
<time>2026-07-12T14:14:33.000Z</time>
|
|
</trkpt>
|
|
<trkpt lat="56.101348" lon="8.114315">
|
|
<ele>28.101583</ele>
|
|
<time>2026-07-12T14:14:34.000Z</time>
|
|
</trkpt>
|
|
<trkpt lat="56.101387" lon="8.114309">
|
|
<ele>28.106314</ele>
|
|
<time>2026-07-12T14:14:35.000Z</time>
|
|
</trkpt>
|
|
<trkpt lat="56.101429" lon="8.114303">
|
|
<ele>28.111407</ele>
|
|
<time>2026-07-12T14:14:36.000Z</time>
|
|
</trkpt>
|
|
<trkpt lat="56.101467" lon="8.114302">
|
|
<ele>28.116000</ele>
|
|
<time>2026-07-12T14:14:37.000Z</time>
|
|
</trkpt>
|
|
<trkpt lat="56.101505" lon="8.114300">
|
|
<ele>28.120595</ele>
|
|
<time>2026-07-12T14:14:38.000Z</time>
|
|
</trkpt>
|
|
<trkpt lat="56.101543" lon="8.114295">
|
|
<ele>28.125201</ele>
|
|
<time>2026-07-12T14:14:39.000Z</time>
|
|
</trkpt>
|
|
<trkpt lat="56.101582" lon="8.114287">
|
|
<ele>28.129945</ele>
|
|
<time>2026-07-12T14:14:40.000Z</time>
|
|
</trkpt>
|
|
<trkpt lat="56.101618" lon="8.114278">
|
|
<ele>28.134339</ele>
|
|
<time>2026-07-12T14:14:41.000Z</time>
|
|
</trkpt>
|
|
<trkpt lat="56.101654" lon="8.114268">
|
|
<ele>28.138742</ele>
|
|
<time>2026-07-12T14:14:42.000Z</time>
|
|
</trkpt>
|
|
<trkpt lat="56.101692" lon="8.114258">
|
|
<ele>28.143384</ele>
|
|
<time>2026-07-12T14:14:43.000Z</time>
|
|
</trkpt>
|
|
<trkpt lat="56.101729" lon="8.114250">
|
|
<ele>28.147889</ele>
|
|
<time>2026-07-12T14:14:44.000Z</time>
|
|
</trkpt>
|
|
<trkpt lat="56.101764" lon="8.114243">
|
|
<ele>28.152145</ele>
|
|
<time>2026-07-12T14:14:45.000Z</time>
|
|
</trkpt>
|
|
<trkpt lat="56.101799" lon="8.114236">
|
|
<ele>28.156402</ele>
|
|
<time>2026-07-12T14:14:46.000Z</time>
|
|
</trkpt>
|
|
<trkpt lat="56.101830" lon="8.114229">
|
|
<ele>28.160178</ele>
|
|
<time>2026-07-12T14:14:47.000Z</time>
|
|
</trkpt>
|
|
<trkpt lat="56.101863" lon="8.114224">
|
|
<ele>28.164181</ele>
|
|
<time>2026-07-12T14:14:48.000Z</time>
|
|
</trkpt>
|
|
<trkpt lat="56.101900" lon="8.114218">
|
|
<ele>28.168672</ele>
|
|
<time>2026-07-12T14:14:49.000Z</time>
|
|
</trkpt>
|
|
<trkpt lat="56.101935" lon="8.114210">
|
|
<ele>28.171173</ele>
|
|
<time>2026-07-12T14:14:50.000Z</time>
|
|
</trkpt>
|
|
<trkpt lat="56.101972" lon="8.114201">
|
|
<ele>28.172855</ele>
|
|
<time>2026-07-12T14:14:51.000Z</time>
|
|
</trkpt>
|
|
<trkpt lat="56.102011" lon="8.114188">
|
|
<ele>28.174643</ele>
|
|
<time>2026-07-12T14:14:52.000Z</time>
|
|
</trkpt>
|
|
<trkpt lat="56.102045" lon="8.114173">
|
|
<ele>28.176220</ele>
|
|
<time>2026-07-12T14:14:53.000Z</time>
|
|
</trkpt>
|
|
<trkpt lat="56.102079" lon="8.114154">
|
|
<ele>28.177825</ele>
|
|
<time>2026-07-12T14:14:54.000Z</time>
|
|
</trkpt>
|
|
<trkpt lat="56.102112" lon="8.114136">
|
|
<ele>28.179379</ele>
|
|
<time>2026-07-12T14:14:55.000Z</time>
|
|
</trkpt>
|
|
<trkpt lat="56.102148" lon="8.114118">
|
|
<ele>28.181063</ele>
|
|
<time>2026-07-12T14:14:56.000Z</time>
|
|
</trkpt>
|
|
<trkpt lat="56.102185" lon="8.114101">
|
|
<ele>28.182784</ele>
|
|
<time>2026-07-12T14:14:57.000Z</time>
|
|
</trkpt>
|
|
<trkpt lat="56.102215" lon="8.114083">
|
|
<ele>28.184210</ele>
|
|
<time>2026-07-12T14:14:58.000Z</time>
|
|
</trkpt>
|
|
<trkpt lat="56.102245" lon="8.114064">
|
|
<ele>28.185643</ele>
|
|
<time>2026-07-12T14:14:59.000Z</time>
|
|
</trkpt>
|
|
<trkpt lat="56.102275" lon="8.114045">
|
|
<ele>28.187077</ele>
|
|
<time>2026-07-12T14:15:00.000Z</time>
|
|
</trkpt>
|
|
<trkpt lat="56.102303" lon="8.114030">
|
|
<ele>28.188394</ele>
|
|
<time>2026-07-12T14:15:01.000Z</time>
|
|
</trkpt>
|
|
<trkpt lat="56.102331" lon="8.114019">
|
|
<ele>28.189685</ele>
|
|
<time>2026-07-12T14:15:02.000Z</time>
|
|
</trkpt>
|
|
<trkpt lat="56.102355" lon="8.114009">
|
|
<ele>28.190795</ele>
|
|
<time>2026-07-12T14:15:03.000Z</time>
|
|
</trkpt>
|
|
<trkpt lat="56.102377" lon="8.113994">
|
|
<ele>28.191856</ele>
|
|
<time>2026-07-12T14:15:04.000Z</time>
|
|
</trkpt>
|
|
<trkpt lat="56.102392" lon="8.113973">
|
|
<ele>28.192713</ele>
|
|
<time>2026-07-12T14:15:05.000Z</time>
|
|
</trkpt>
|
|
<trkpt lat="56.102408" lon="8.113952">
|
|
<ele>28.193607</ele>
|
|
<time>2026-07-12T14:15:06.000Z</time>
|
|
</trkpt>
|
|
<trkpt lat="56.102423" lon="8.113935">
|
|
<ele>28.194406</ele>
|
|
<time>2026-07-12T14:15:07.000Z</time>
|
|
</trkpt>
|
|
<trkpt lat="56.102437" lon="8.113925">
|
|
<ele>28.195085</ele>
|
|
<time>2026-07-12T14:15:08.000Z</time>
|
|
</trkpt>
|
|
<trkpt lat="56.102591" lon="8.113875">
|
|
<ele>28.202137</ele>
|
|
<time>2026-07-12T14:53:47.000Z</time>
|
|
</trkpt>
|
|
<trkpt lat="56.102620" lon="8.113881">
|
|
<ele>28.203453</ele>
|
|
<time>2026-07-12T14:53:48.000Z</time>
|
|
</trkpt>
|
|
<trkpt lat="56.102649" lon="8.113888">
|
|
<ele>28.204771</ele>
|
|
<time>2026-07-12T14:53:49.000Z</time>
|
|
</trkpt>
|
|
<trkpt lat="56.102675" lon="8.113894">
|
|
<ele>28.205952</ele>
|
|
<time>2026-07-12T14:53:50.000Z</time>
|
|
</trkpt>
|
|
<trkpt lat="56.102702" lon="8.113900">
|
|
<ele>28.207178</ele>
|
|
<time>2026-07-12T14:53:51.000Z</time>
|
|
</trkpt>
|
|
<trkpt lat="56.102730" lon="8.113902">
|
|
<ele>28.208441</ele>
|
|
<time>2026-07-12T14:53:52.000Z</time>
|
|
</trkpt>
|
|
<trkpt lat="56.102762" lon="8.113903">
|
|
<ele>28.209883</ele>
|
|
<time>2026-07-12T14:53:53.000Z</time>
|
|
</trkpt>
|
|
<trkpt lat="56.102796" lon="8.113906">
|
|
<ele>28.211417</ele>
|
|
<time>2026-07-12T14:53:54.000Z</time>
|
|
</trkpt>
|
|
<trkpt lat="56.102832" lon="8.113911">
|
|
<ele>28.213044</ele>
|
|
<time>2026-07-12T14:53:55.000Z</time>
|
|
</trkpt>
|
|
<trkpt lat="56.102872" lon="8.113915">
|
|
<ele>28.214849</ele>
|
|
<time>2026-07-12T14:53:56.000Z</time>
|
|
</trkpt>
|
|
<trkpt lat="56.102914" lon="8.113918">
|
|
<ele>28.216743</ele>
|
|
<time>2026-07-12T14:53:57.000Z</time>
|
|
</trkpt>
|
|
<trkpt lat="56.102956" lon="8.113921">
|
|
<ele>28.218637</ele>
|
|
<time>2026-07-12T14:53:58.000Z</time>
|
|
</trkpt>
|
|
<trkpt lat="56.102998" lon="8.113923">
|
|
<ele>28.220530</ele>
|
|
<time>2026-07-12T14:53:59.000Z</time>
|
|
</trkpt>
|
|
<trkpt lat="56.103038" lon="8.113926">
|
|
<ele>28.222334</ele>
|
|
<time>2026-07-12T14:54:00.000Z</time>
|
|
</trkpt>
|
|
<trkpt lat="56.103076" lon="8.113928">
|
|
<ele>28.224047</ele>
|
|
<time>2026-07-12T14:54:01.000Z</time>
|
|
</trkpt>
|
|
<trkpt lat="56.103114" lon="8.113927">
|
|
<ele>28.225759</ele>
|
|
<time>2026-07-12T14:54:02.000Z</time>
|
|
</trkpt>
|
|
<trkpt lat="56.103152" lon="8.113924">
|
|
<ele>28.227473</ele>
|
|
<time>2026-07-12T14:54:03.000Z</time>
|
|
</trkpt>
|
|
<trkpt lat="56.103190" lon="8.113921">
|
|
<ele>28.229187</ele>
|
|
<time>2026-07-12T14:54:04.000Z</time>
|
|
</trkpt>
|
|
<trkpt lat="56.103226" lon="8.113920">
|
|
<ele>28.230809</ele>
|
|
<time>2026-07-12T14:54:05.000Z</time>
|
|
</trkpt>
|
|
<trkpt lat="56.103258" lon="8.113920">
|
|
<ele>28.232251</ele>
|
|
<time>2026-07-12T14:54:06.000Z</time>
|
|
</trkpt>
|
|
<trkpt lat="56.103284" lon="8.113921">
|
|
<ele>28.233423</ele>
|
|
<time>2026-07-12T14:54:07.000Z</time>
|
|
</trkpt>
|
|
<trkpt lat="56.103309" lon="8.113922">
|
|
<ele>28.234550</ele>
|
|
<time>2026-07-12T14:54:08.000Z</time>
|
|
</trkpt>
|
|
<trkpt lat="56.103333" lon="8.113921">
|
|
<ele>28.235632</ele>
|
|
<time>2026-07-12T14:54:09.000Z</time>
|
|
</trkpt>
|
|
<trkpt lat="56.103356" lon="8.113917">
|
|
<ele>28.236673</ele>
|
|
<time>2026-07-12T14:54:10.000Z</time>
|
|
</trkpt>
|
|
<trkpt lat="56.103380" lon="8.113906">
|
|
<ele>28.237789</ele>
|
|
<time>2026-07-12T14:54:11.000Z</time>
|
|
</trkpt>
|
|
<trkpt lat="56.103402" lon="8.113897">
|
|
<ele>28.238806</ele>
|
|
<time>2026-07-12T14:54:12.000Z</time>
|
|
</trkpt>
|
|
<trkpt lat="56.103426" lon="8.113896">
|
|
<ele>28.239887</ele>
|
|
<time>2026-07-12T14:54:13.000Z</time>
|
|
</trkpt>
|
|
<trkpt lat="56.103454" lon="8.113903">
|
|
<ele>28.241161</ele>
|
|
<time>2026-07-12T14:54:14.000Z</time>
|
|
</trkpt>
|
|
<trkpt lat="56.103484" lon="8.113911">
|
|
<ele>28.242528</ele>
|
|
<time>2026-07-12T14:54:15.000Z</time>
|
|
</trkpt>
|
|
<trkpt lat="56.103515" lon="8.113919">
|
|
<ele>28.243939</ele>
|
|
<time>2026-07-12T14:54:16.000Z</time>
|
|
</trkpt>
|
|
<trkpt lat="56.103545" lon="8.113930">
|
|
<ele>28.245319</ele>
|
|
<time>2026-07-12T14:54:17.000Z</time>
|
|
</trkpt>
|
|
<trkpt lat="56.103577" lon="8.113945">
|
|
<ele>28.246809</ele>
|
|
<time>2026-07-12T14:54:18.000Z</time>
|
|
</trkpt>
|
|
<trkpt lat="56.103610" lon="8.113965">
|
|
<ele>28.248379</ele>
|
|
<time>2026-07-12T14:54:19.000Z</time>
|
|
</trkpt>
|
|
<trkpt lat="56.103646" lon="8.113991">
|
|
<ele>28.250127</ele>
|
|
<time>2026-07-12T14:54:20.000Z</time>
|
|
</trkpt>
|
|
<trkpt lat="56.103686" lon="8.114016">
|
|
<ele>28.244210</ele>
|
|
<time>2026-07-12T14:54:21.000Z</time>
|
|
</trkpt>
|
|
<trkpt lat="56.103725" lon="8.114041">
|
|
<ele>28.229236</ele>
|
|
<time>2026-07-12T14:54:22.000Z</time>
|
|
</trkpt>
|
|
<trkpt lat="56.103767" lon="8.114066">
|
|
<ele>28.213235</ele>
|
|
<time>2026-07-12T14:54:23.000Z</time>
|
|
</trkpt>
|
|
<trkpt lat="56.103807" lon="8.114092">
|
|
<ele>28.197852</ele>
|
|
<time>2026-07-12T14:54:24.000Z</time>
|
|
</trkpt>
|
|
<trkpt lat="56.103847" lon="8.114119">
|
|
<ele>28.182399</ele>
|
|
<time>2026-07-12T14:54:25.000Z</time>
|
|
</trkpt>
|
|
<trkpt lat="56.103888" lon="8.114143">
|
|
<ele>28.166806</ele>
|
|
<time>2026-07-12T14:54:26.000Z</time>
|
|
</trkpt>
|
|
<trkpt lat="56.103924" lon="8.114166">
|
|
<ele>28.152988</ele>
|
|
<time>2026-07-12T14:54:27.000Z</time>
|
|
</trkpt>
|
|
<trkpt lat="56.103958" lon="8.114188">
|
|
<ele>28.139920</ele>
|
|
<time>2026-07-12T14:54:28.000Z</time>
|
|
</trkpt>
|
|
<trkpt lat="56.103986" lon="8.114208">
|
|
<ele>28.129022</ele>
|
|
<time>2026-07-12T14:54:29.000Z</time>
|
|
</trkpt>
|
|
<trkpt lat="56.104011" lon="8.114227">
|
|
<ele>28.119205</ele>
|
|
<time>2026-07-12T14:54:30.000Z</time>
|
|
</trkpt>
|
|
<trkpt lat="56.104043" lon="8.114246">
|
|
<ele>28.107018</ele>
|
|
<time>2026-07-12T14:54:31.000Z</time>
|
|
</trkpt>
|
|
<trkpt lat="56.104076" lon="8.114266">
|
|
<ele>28.094423</ele>
|
|
<time>2026-07-12T14:54:32.000Z</time>
|
|
</trkpt>
|
|
<trkpt lat="56.104108" lon="8.114287">
|
|
<ele>28.082103</ele>
|
|
<time>2026-07-12T14:54:33.000Z</time>
|
|
</trkpt>
|
|
<trkpt lat="56.104142" lon="8.114312">
|
|
<ele>28.068817</ele>
|
|
<time>2026-07-12T14:54:34.000Z</time>
|
|
</trkpt>
|
|
<trkpt lat="56.104176" lon="8.114341">
|
|
<ele>28.055204</ele>
|
|
<time>2026-07-12T14:54:35.000Z</time>
|
|
</trkpt>
|
|
<trkpt lat="56.104206" lon="8.114366">
|
|
<ele>28.043243</ele>
|
|
<time>2026-07-12T14:54:36.000Z</time>
|
|
</trkpt>
|
|
<trkpt lat="56.104235" lon="8.114386">
|
|
<ele>28.032009</ele>
|
|
<time>2026-07-12T14:54:37.000Z</time>
|
|
</trkpt>
|
|
<trkpt lat="56.104268" lon="8.114405">
|
|
<ele>28.019478</ele>
|
|
<time>2026-07-12T14:54:38.000Z</time>
|
|
</trkpt>
|
|
<trkpt lat="56.104303" lon="8.114425">
|
|
<ele>28.006197</ele>
|
|
<time>2026-07-12T14:54:39.000Z</time>
|
|
</trkpt>
|
|
<trkpt lat="56.104342" lon="8.114447">
|
|
<ele>27.991415</ele>
|
|
<time>2026-07-12T14:54:40.000Z</time>
|
|
</trkpt>
|
|
<trkpt lat="56.104383" lon="8.114475">
|
|
<ele>27.975552</ele>
|
|
<time>2026-07-12T14:54:41.000Z</time>
|
|
</trkpt>
|
|
<trkpt lat="56.104427" lon="8.114503">
|
|
<ele>27.958672</ele>
|
|
<time>2026-07-12T14:54:42.000Z</time>
|
|
</trkpt>
|
|
<trkpt lat="56.104476" lon="8.114533">
|
|
<ele>27.939951</ele>
|
|
<time>2026-07-12T14:54:43.000Z</time>
|
|
</trkpt>
|
|
<trkpt lat="56.104524" lon="8.114561">
|
|
<ele>27.921702</ele>
|
|
<time>2026-07-12T14:54:44.000Z</time>
|
|
</trkpt>
|
|
<trkpt lat="56.104571" lon="8.114588">
|
|
<ele>27.903858</ele>
|
|
<time>2026-07-12T14:54:45.000Z</time>
|
|
</trkpt>
|
|
<trkpt lat="56.104618" lon="8.114614">
|
|
<ele>27.886074</ele>
|
|
<time>2026-07-12T14:54:46.000Z</time>
|
|
</trkpt>
|
|
<trkpt lat="56.104664" lon="8.114642">
|
|
<ele>27.868511</ele>
|
|
<time>2026-07-12T14:54:47.000Z</time>
|
|
</trkpt>
|
|
<trkpt lat="56.104714" lon="8.114671">
|
|
<ele>27.849511</ele>
|
|
<time>2026-07-12T14:54:48.000Z</time>
|
|
</trkpt>
|
|
<trkpt lat="56.104762" lon="8.114701">
|
|
<ele>27.831132</ele>
|
|
<time>2026-07-12T14:54:49.000Z</time>
|
|
</trkpt>
|
|
<trkpt lat="56.104811" lon="8.114728">
|
|
<ele>27.812599</ele>
|
|
<time>2026-07-12T14:54:50.000Z</time>
|
|
</trkpt>
|
|
<trkpt lat="56.104860" lon="8.114744">
|
|
<ele>27.794591</ele>
|
|
<time>2026-07-12T14:54:51.000Z</time>
|
|
</trkpt>
|
|
<trkpt lat="56.104903" lon="8.114754">
|
|
<ele>27.778914</ele>
|
|
<time>2026-07-12T14:54:52.000Z</time>
|
|
</trkpt>
|
|
<trkpt lat="56.104948" lon="8.114766">
|
|
<ele>27.762465</ele>
|
|
<time>2026-07-12T14:54:53.000Z</time>
|
|
</trkpt>
|
|
<trkpt lat="56.104990" lon="8.114775">
|
|
<ele>27.747172</ele>
|
|
<time>2026-07-12T14:54:54.000Z</time>
|
|
</trkpt>
|
|
<trkpt lat="56.105030" lon="8.114781">
|
|
<ele>27.732659</ele>
|
|
<time>2026-07-12T14:54:55.000Z</time>
|
|
</trkpt>
|
|
<trkpt lat="56.105070" lon="8.114788">
|
|
<ele>27.718128</ele>
|
|
<time>2026-07-12T14:54:56.000Z</time>
|
|
</trkpt>
|
|
<trkpt lat="56.105112" lon="8.114797">
|
|
<ele>27.702835</ele>
|
|
<time>2026-07-12T14:54:57.000Z</time>
|
|
</trkpt>
|
|
<trkpt lat="56.105152" lon="8.114813">
|
|
<ele>27.688017</ele>
|
|
<time>2026-07-12T14:54:58.000Z</time>
|
|
</trkpt>
|
|
<trkpt lat="56.105190" lon="8.114835">
|
|
<ele>27.673580</ele>
|
|
<time>2026-07-12T14:54:59.000Z</time>
|
|
</trkpt>
|
|
<trkpt lat="56.105230" lon="8.114860">
|
|
<ele>27.658264</ele>
|
|
<time>2026-07-12T14:55:00.000Z</time>
|
|
</trkpt>
|
|
<trkpt lat="56.105270" lon="8.114886">
|
|
<ele>27.642881</ele>
|
|
<time>2026-07-12T14:55:01.000Z</time>
|
|
</trkpt>
|
|
<trkpt lat="56.105308" lon="8.114910">
|
|
<ele>27.628315</ele>
|
|
<time>2026-07-12T14:55:02.000Z</time>
|
|
</trkpt>
|
|
<trkpt lat="56.105344" lon="8.114936">
|
|
<ele>27.614283</ele>
|
|
<time>2026-07-12T14:55:03.000Z</time>
|
|
</trkpt>
|
|
<trkpt lat="56.105379" lon="8.114961">
|
|
<ele>27.600553</ele>
|
|
<time>2026-07-12T14:55:04.000Z</time>
|
|
</trkpt>
|
|
<trkpt lat="56.105427" lon="8.114994">
|
|
<ele>27.571839</ele>
|
|
<time>2026-07-12T14:55:05.000Z</time>
|
|
</trkpt>
|
|
<trkpt lat="56.105468" lon="8.115018">
|
|
<ele>27.547748</ele>
|
|
<time>2026-07-12T14:55:06.000Z</time>
|
|
</trkpt>
|
|
<trkpt lat="56.105510" lon="8.115045">
|
|
<ele>27.522827</ele>
|
|
<time>2026-07-12T14:55:07.000Z</time>
|
|
</trkpt>
|
|
<trkpt lat="56.105548" lon="8.115074">
|
|
<ele>27.499759</ele>
|
|
<time>2026-07-12T14:55:08.000Z</time>
|
|
</trkpt>
|
|
<trkpt lat="56.105586" lon="8.115103">
|
|
<ele>27.476691</ele>
|
|
<time>2026-07-12T14:55:09.000Z</time>
|
|
</trkpt>
|
|
<trkpt lat="56.105624" lon="8.115125">
|
|
<ele>27.454387</ele>
|
|
<time>2026-07-12T14:55:10.000Z</time>
|
|
</trkpt>
|
|
<trkpt lat="56.105663" lon="8.115146">
|
|
<ele>27.431642</ele>
|
|
<time>2026-07-12T14:55:11.000Z</time>
|
|
</trkpt>
|
|
<trkpt lat="56.105705" lon="8.115168">
|
|
<ele>27.407202</ele>
|
|
<time>2026-07-12T14:55:12.000Z</time>
|
|
</trkpt>
|
|
<trkpt lat="56.105747" lon="8.115194">
|
|
<ele>27.382383</ele>
|
|
<time>2026-07-12T14:55:13.000Z</time>
|
|
</trkpt>
|
|
<trkpt lat="56.105788" lon="8.115226">
|
|
<ele>27.357407</ele>
|
|
<time>2026-07-12T14:55:14.000Z</time>
|
|
</trkpt>
|
|
<trkpt lat="56.105832" lon="8.115262">
|
|
<ele>27.330393</ele>
|
|
<time>2026-07-12T14:55:15.000Z</time>
|
|
</trkpt>
|
|
<trkpt lat="56.105874" lon="8.115295">
|
|
<ele>27.304780</ele>
|
|
<time>2026-07-12T14:55:16.000Z</time>
|
|
</trkpt>
|
|
<trkpt lat="56.105914" lon="8.115329">
|
|
<ele>27.280054</ele>
|
|
<time>2026-07-12T14:55:17.000Z</time>
|
|
</trkpt>
|
|
<trkpt lat="56.105952" lon="8.115365">
|
|
<ele>27.256049</ele>
|
|
<time>2026-07-12T14:55:18.000Z</time>
|
|
</trkpt>
|
|
<trkpt lat="56.105994" lon="8.115398">
|
|
<ele>27.230436</ele>
|
|
<time>2026-07-12T14:55:19.000Z</time>
|
|
</trkpt>
|
|
<trkpt lat="56.106039" lon="8.115423">
|
|
<ele>27.204122</ele>
|
|
<time>2026-07-12T14:55:20.000Z</time>
|
|
</trkpt>
|
|
<trkpt lat="56.106086" lon="8.115437">
|
|
<ele>27.177509</ele>
|
|
<time>2026-07-12T14:55:21.000Z</time>
|
|
</trkpt>
|
|
<trkpt lat="56.106135" lon="8.115439">
|
|
<ele>27.150133</ele>
|
|
<time>2026-07-12T14:55:22.000Z</time>
|
|
</trkpt>
|
|
<trkpt lat="56.106187" lon="8.115433">
|
|
<ele>27.121027</ele>
|
|
<time>2026-07-12T14:55:23.000Z</time>
|
|
</trkpt>
|
|
<trkpt lat="56.106242" lon="8.115422">
|
|
<ele>27.090116</ele>
|
|
<time>2026-07-12T14:55:24.000Z</time>
|
|
</trkpt>
|
|
<trkpt lat="56.106298" lon="8.115406">
|
|
<ele>27.058441</ele>
|
|
<time>2026-07-12T14:55:25.000Z</time>
|
|
</trkpt>
|
|
<trkpt lat="56.106348" lon="8.115391">
|
|
<ele>27.030125</ele>
|
|
<time>2026-07-12T14:55:26.000Z</time>
|
|
</trkpt>
|
|
<trkpt lat="56.106396" lon="8.115375">
|
|
<ele>27.002855</ele>
|
|
<time>2026-07-12T14:55:27.000Z</time>
|
|
</trkpt>
|
|
<trkpt lat="56.106449" lon="8.115358">
|
|
<ele>26.972781</ele>
|
|
<time>2026-07-12T14:55:28.000Z</time>
|
|
</trkpt>
|
|
<trkpt lat="56.106499" lon="8.115343">
|
|
<ele>26.944464</ele>
|
|
<time>2026-07-12T14:55:29.000Z</time>
|
|
</trkpt>
|
|
<trkpt lat="56.106544" lon="8.115330">
|
|
<ele>26.919005</ele>
|
|
<time>2026-07-12T14:55:30.000Z</time>
|
|
</trkpt>
|
|
<trkpt lat="56.106590" lon="8.115320">
|
|
<ele>26.893123</ele>
|
|
<time>2026-07-12T14:55:31.000Z</time>
|
|
</trkpt>
|
|
<trkpt lat="56.106643" lon="8.115314">
|
|
<ele>26.863460</ele>
|
|
<time>2026-07-12T14:55:32.000Z</time>
|
|
</trkpt>
|
|
<trkpt lat="56.106690" lon="8.115316">
|
|
<ele>26.837200</ele>
|
|
<time>2026-07-12T14:55:33.000Z</time>
|
|
</trkpt>
|
|
<trkpt lat="56.106736" lon="8.115326">
|
|
<ele>26.811318</ele>
|
|
<time>2026-07-12T14:55:34.000Z</time>
|
|
</trkpt>
|
|
<trkpt lat="56.106784" lon="8.115341">
|
|
<ele>26.784103</ele>
|
|
<time>2026-07-12T14:55:35.000Z</time>
|
|
</trkpt>
|
|
<trkpt lat="56.106828" lon="8.115360">
|
|
<ele>26.758823</ele>
|
|
<time>2026-07-12T14:55:36.000Z</time>
|
|
</trkpt>
|
|
<trkpt lat="56.106870" lon="8.115380">
|
|
<ele>26.734550</ele>
|
|
<time>2026-07-12T14:55:37.000Z</time>
|
|
</trkpt>
|
|
<trkpt lat="56.106913" lon="8.115402">
|
|
<ele>26.709574</ele>
|
|
<time>2026-07-12T14:55:38.000Z</time>
|
|
</trkpt>
|
|
<trkpt lat="56.106959" lon="8.115424">
|
|
<ele>26.682982</ele>
|
|
<time>2026-07-12T14:55:39.000Z</time>
|
|
</trkpt>
|
|
<trkpt lat="56.107004" lon="8.115444">
|
|
<ele>26.657086</ele>
|
|
<time>2026-07-12T14:55:40.000Z</time>
|
|
</trkpt>
|
|
<trkpt lat="56.107048" lon="8.115462">
|
|
<ele>26.631877</ele>
|
|
<time>2026-07-12T14:55:41.000Z</time>
|
|
</trkpt>
|
|
<trkpt lat="56.107095" lon="8.115477">
|
|
<ele>26.605212</ele>
|
|
<time>2026-07-12T14:55:42.000Z</time>
|
|
</trkpt>
|
|
<trkpt lat="56.107142" lon="8.115493">
|
|
<ele>26.599017</ele>
|
|
<time>2026-07-12T14:55:43.000Z</time>
|
|
</trkpt>
|
|
<trkpt lat="56.107190" lon="8.115508">
|
|
<ele>26.603342</ele>
|
|
<time>2026-07-12T14:55:44.000Z</time>
|
|
</trkpt>
|
|
<trkpt lat="56.107236" lon="8.115526">
|
|
<ele>26.607523</ele>
|
|
<time>2026-07-12T14:55:45.000Z</time>
|
|
</trkpt>
|
|
<trkpt lat="56.107280" lon="8.115544">
|
|
<ele>26.611530</ele>
|
|
<time>2026-07-12T14:55:46.000Z</time>
|
|
</trkpt>
|
|
<trkpt lat="56.107327" lon="8.115563">
|
|
<ele>26.615807</ele>
|
|
<time>2026-07-12T14:55:47.000Z</time>
|
|
</trkpt>
|
|
<trkpt lat="56.107370" lon="8.115586">
|
|
<ele>26.619791</ele>
|
|
<time>2026-07-12T14:55:48.000Z</time>
|
|
</trkpt>
|
|
<trkpt lat="56.107415" lon="8.115613">
|
|
<ele>26.624004</ele>
|
|
<time>2026-07-12T14:55:49.000Z</time>
|
|
</trkpt>
|
|
<trkpt lat="56.107460" lon="8.115642">
|
|
<ele>26.628250</ele>
|
|
<time>2026-07-12T14:55:50.000Z</time>
|
|
</trkpt>
|
|
<trkpt lat="56.107510" lon="8.115670">
|
|
<ele>26.632901</ele>
|
|
<time>2026-07-12T14:55:51.000Z</time>
|
|
</trkpt>
|
|
<trkpt lat="56.107558" lon="8.115696">
|
|
<ele>26.637353</ele>
|
|
<time>2026-07-12T14:55:52.000Z</time>
|
|
</trkpt>
|
|
<trkpt lat="56.107605" lon="8.115718">
|
|
<ele>26.641665</ele>
|
|
<time>2026-07-12T14:55:53.000Z</time>
|
|
</trkpt>
|
|
<trkpt lat="56.107653" lon="8.115738">
|
|
<ele>26.646040</ele>
|
|
<time>2026-07-12T14:55:54.000Z</time>
|
|
</trkpt>
|
|
<trkpt lat="56.107696" lon="8.115752">
|
|
<ele>26.649921</ele>
|
|
<time>2026-07-12T14:55:55.000Z</time>
|
|
</trkpt>
|
|
<trkpt lat="56.107736" lon="8.115761">
|
|
<ele>26.653500</ele>
|
|
<time>2026-07-12T14:55:56.000Z</time>
|
|
</trkpt>
|
|
<trkpt lat="56.107777" lon="8.115772">
|
|
<ele>26.657181</ele>
|
|
<time>2026-07-12T14:55:57.000Z</time>
|
|
</trkpt>
|
|
<trkpt lat="56.107819" lon="8.115783">
|
|
<ele>26.660949</ele>
|
|
<time>2026-07-12T14:55:58.000Z</time>
|
|
</trkpt>
|
|
<trkpt lat="56.107861" lon="8.115797">
|
|
<ele>26.664742</ele>
|
|
<time>2026-07-12T14:55:59.000Z</time>
|
|
</trkpt>
|
|
<trkpt lat="56.107907" lon="8.115813">
|
|
<ele>26.668902</ele>
|
|
<time>2026-07-12T14:56:00.000Z</time>
|
|
</trkpt>
|
|
<trkpt lat="56.107953" lon="8.115831">
|
|
<ele>26.673083</ele>
|
|
<time>2026-07-12T14:56:01.000Z</time>
|
|
</trkpt>
|
|
<trkpt lat="56.107998" lon="8.115848">
|
|
<ele>26.677166</ele>
|
|
<time>2026-07-12T14:56:02.000Z</time>
|
|
</trkpt>
|
|
<trkpt lat="56.108047" lon="8.115865">
|
|
<ele>26.681597</ele>
|
|
<time>2026-07-12T14:56:03.000Z</time>
|
|
</trkpt>
|
|
<trkpt lat="56.108093" lon="8.115883">
|
|
<ele>26.685777</ele>
|
|
<time>2026-07-12T14:56:04.000Z</time>
|
|
</trkpt>
|
|
<trkpt lat="56.108140" lon="8.115902">
|
|
<ele>26.690055</ele>
|
|
<time>2026-07-12T14:56:05.000Z</time>
|
|
</trkpt>
|
|
<trkpt lat="56.108187" lon="8.115918">
|
|
<ele>26.694302</ele>
|
|
<time>2026-07-12T14:56:06.000Z</time>
|
|
</trkpt>
|
|
<trkpt lat="56.108232" lon="8.115937">
|
|
<ele>26.698407</ele>
|
|
<time>2026-07-12T14:56:07.000Z</time>
|
|
</trkpt>
|
|
<trkpt lat="56.108278" lon="8.115958">
|
|
<ele>26.702621</ele>
|
|
<time>2026-07-12T14:56:08.000Z</time>
|
|
</trkpt>
|
|
<trkpt lat="56.108324" lon="8.115979">
|
|
<ele>26.706836</ele>
|
|
<time>2026-07-12T14:56:09.000Z</time>
|
|
</trkpt>
|
|
<trkpt lat="56.108370" lon="8.115998">
|
|
<ele>26.711027</ele>
|
|
<time>2026-07-12T14:56:10.000Z</time>
|
|
</trkpt>
|
|
<trkpt lat="56.108416" lon="8.116017">
|
|
<ele>26.715218</ele>
|
|
<time>2026-07-12T14:56:11.000Z</time>
|
|
</trkpt>
|
|
<trkpt lat="56.108460" lon="8.116036">
|
|
<ele>26.719236</ele>
|
|
<time>2026-07-12T14:56:12.000Z</time>
|
|
</trkpt>
|
|
<trkpt lat="56.108503" lon="8.116054">
|
|
<ele>26.723157</ele>
|
|
<time>2026-07-12T14:56:13.000Z</time>
|
|
</trkpt>
|
|
<trkpt lat="56.108545" lon="8.116072">
|
|
<ele>26.726991</ele>
|
|
<time>2026-07-12T14:56:14.000Z</time>
|
|
</trkpt>
|
|
<trkpt lat="56.108585" lon="8.116088">
|
|
<ele>26.730629</ele>
|
|
<time>2026-07-12T14:56:15.000Z</time>
|
|
</trkpt>
|
|
<trkpt lat="56.108620" lon="8.116099">
|
|
<ele>26.733784</ele>
|
|
<time>2026-07-12T14:56:16.000Z</time>
|
|
</trkpt>
|
|
<trkpt lat="56.108652" lon="8.116106">
|
|
<ele>26.736646</ele>
|
|
<time>2026-07-12T14:56:17.000Z</time>
|
|
</trkpt>
|
|
<trkpt lat="56.108699" lon="8.116116">
|
|
<ele>26.740849</ele>
|
|
<time>2026-07-12T14:56:18.000Z</time>
|
|
</trkpt>
|
|
<trkpt lat="56.108740" lon="8.116123">
|
|
<ele>26.744505</ele>
|
|
<time>2026-07-12T14:56:19.000Z</time>
|
|
</trkpt>
|
|
<trkpt lat="56.108780" lon="8.116131">
|
|
<ele>26.748079</ele>
|
|
<time>2026-07-12T14:56:20.000Z</time>
|
|
</trkpt>
|
|
<trkpt lat="56.108824" lon="8.116140">
|
|
<ele>26.752011</ele>
|
|
<time>2026-07-12T14:56:21.000Z</time>
|
|
</trkpt>
|
|
<trkpt lat="56.108872" lon="8.116143">
|
|
<ele>26.755400</ele>
|
|
<time>2026-07-12T14:56:22.000Z</time>
|
|
</trkpt>
|
|
<trkpt lat="56.108916" lon="8.116141">
|
|
<ele>26.750295</ele>
|
|
<time>2026-07-12T14:56:23.000Z</time>
|
|
</trkpt>
|
|
<trkpt lat="56.108970" lon="8.116136">
|
|
<ele>26.744024</ele>
|
|
<time>2026-07-12T14:56:24.000Z</time>
|
|
</trkpt>
|
|
<trkpt lat="56.109019" lon="8.116128">
|
|
<ele>26.738318</ele>
|
|
<time>2026-07-12T14:56:25.000Z</time>
|
|
</trkpt>
|
|
<trkpt lat="56.109065" lon="8.116118">
|
|
<ele>26.732944</ele>
|
|
<time>2026-07-12T14:56:26.000Z</time>
|
|
</trkpt>
|
|
<trkpt lat="56.109111" lon="8.116111">
|
|
<ele>26.727590</ele>
|
|
<time>2026-07-12T14:56:27.000Z</time>
|
|
</trkpt>
|
|
<trkpt lat="56.109157" lon="8.116102">
|
|
<ele>26.722223</ele>
|
|
<time>2026-07-12T14:56:28.000Z</time>
|
|
</trkpt>
|
|
<trkpt lat="56.109204" lon="8.116094">
|
|
<ele>26.716748</ele>
|
|
<time>2026-07-12T14:56:29.000Z</time>
|
|
</trkpt>
|
|
<trkpt lat="56.109254" lon="8.116087">
|
|
<ele>26.710932</ele>
|
|
<time>2026-07-12T14:56:30.000Z</time>
|
|
</trkpt>
|
|
<trkpt lat="56.109306" lon="8.116071">
|
|
<ele>26.704813</ele>
|
|
<time>2026-07-12T14:56:31.000Z</time>
|
|
</trkpt>
|
|
<trkpt lat="56.109357" lon="8.116055">
|
|
<ele>26.698808</ele>
|
|
<time>2026-07-12T14:56:32.000Z</time>
|
|
</trkpt>
|
|
<trkpt lat="56.109409" lon="8.116039">
|
|
<ele>26.692689</ele>
|
|
<time>2026-07-12T14:56:33.000Z</time>
|
|
</trkpt>
|
|
<trkpt lat="56.109438" lon="8.116036">
|
|
<ele>26.689320</ele>
|
|
<time>2026-07-12T14:56:34.000Z</time>
|
|
</trkpt>
|
|
<trkpt lat="56.109472" lon="8.116036">
|
|
<ele>26.685377</ele>
|
|
<time>2026-07-12T14:56:35.000Z</time>
|
|
</trkpt>
|
|
<trkpt lat="56.109533" lon="8.116037">
|
|
<ele>26.678302</ele>
|
|
<time>2026-07-12T14:56:36.000Z</time>
|
|
</trkpt>
|
|
<trkpt lat="56.109577" lon="8.116038">
|
|
<ele>26.673199</ele>
|
|
<time>2026-07-12T14:56:37.000Z</time>
|
|
</trkpt>
|
|
<trkpt lat="56.109625" lon="8.116031">
|
|
<ele>26.667614</ele>
|
|
<time>2026-07-12T14:56:38.000Z</time>
|
|
</trkpt>
|
|
<trkpt lat="56.109667" lon="8.116023">
|
|
<ele>26.662715</ele>
|
|
<time>2026-07-12T14:56:39.000Z</time>
|
|
</trkpt>
|
|
<trkpt lat="56.109709" lon="8.116012">
|
|
<ele>26.657793</ele>
|
|
<time>2026-07-12T14:56:40.000Z</time>
|
|
</trkpt>
|
|
<trkpt lat="56.109757" lon="8.116002">
|
|
<ele>26.652189</ele>
|
|
<time>2026-07-12T14:56:41.000Z</time>
|
|
</trkpt>
|
|
<trkpt lat="56.109800" lon="8.115997">
|
|
<ele>26.647191</ele>
|
|
<time>2026-07-12T14:56:42.000Z</time>
|
|
</trkpt>
|
|
<trkpt lat="56.109847" lon="8.115992">
|
|
<ele>26.641731</ele>
|
|
<time>2026-07-12T14:56:43.000Z</time>
|
|
</trkpt>
|
|
<trkpt lat="56.109890" lon="8.115991">
|
|
<ele>26.636743</ele>
|
|
<time>2026-07-12T14:56:44.000Z</time>
|
|
</trkpt>
|
|
<trkpt lat="56.109930" lon="8.115995">
|
|
<ele>26.632097</ele>
|
|
<time>2026-07-12T14:56:45.000Z</time>
|
|
</trkpt>
|
|
<trkpt lat="56.109970" lon="8.116001">
|
|
<ele>26.627442</ele>
|
|
<time>2026-07-12T14:56:46.000Z</time>
|
|
</trkpt>
|
|
<trkpt lat="56.110013" lon="8.116013">
|
|
<ele>26.622395</ele>
|
|
<time>2026-07-12T14:56:47.000Z</time>
|
|
</trkpt>
|
|
<trkpt lat="56.110055" lon="8.116030">
|
|
<ele>26.617401</ele>
|
|
<time>2026-07-12T14:56:48.000Z</time>
|
|
</trkpt>
|
|
<trkpt lat="56.110094" lon="8.116051">
|
|
<ele>26.612679</ele>
|
|
<time>2026-07-12T14:56:49.000Z</time>
|
|
</trkpt>
|
|
<trkpt lat="56.110129" lon="8.116075">
|
|
<ele>26.608333</ele>
|
|
<time>2026-07-12T14:56:50.000Z</time>
|
|
</trkpt>
|
|
<trkpt lat="56.110178" lon="8.116111">
|
|
<ele>26.602192</ele>
|
|
<time>2026-07-12T14:56:51.000Z</time>
|
|
</trkpt>
|
|
<trkpt lat="56.110221" lon="8.116142">
|
|
<ele>26.596817</ele>
|
|
<time>2026-07-12T14:56:52.000Z</time>
|
|
</trkpt>
|
|
<trkpt lat="56.110263" lon="8.116165">
|
|
<ele>26.591724</ele>
|
|
<time>2026-07-12T14:56:53.000Z</time>
|
|
</trkpt>
|
|
<trkpt lat="56.110307" lon="8.116184">
|
|
<ele>26.586475</ele>
|
|
<time>2026-07-12T14:56:54.000Z</time>
|
|
</trkpt>
|
|
<trkpt lat="56.110351" lon="8.116199">
|
|
<ele>26.581281</ele>
|
|
<time>2026-07-12T14:56:55.000Z</time>
|
|
</trkpt>
|
|
<trkpt lat="56.110394" lon="8.116212">
|
|
<ele>26.576224</ele>
|
|
<time>2026-07-12T14:56:56.000Z</time>
|
|
</trkpt>
|
|
<trkpt lat="56.110435" lon="8.116225">
|
|
<ele>26.571395</ele>
|
|
<time>2026-07-12T14:56:57.000Z</time>
|
|
</trkpt>
|
|
<trkpt lat="56.110474" lon="8.116236">
|
|
<ele>26.566816</ele>
|
|
<time>2026-07-12T14:56:58.000Z</time>
|
|
</trkpt>
|
|
<trkpt lat="56.110517" lon="8.116247">
|
|
<ele>26.561779</ele>
|
|
<time>2026-07-12T14:56:59.000Z</time>
|
|
</trkpt>
|
|
<trkpt lat="56.110562" lon="8.116257">
|
|
<ele>26.556520</ele>
|
|
<time>2026-07-12T14:57:00.000Z</time>
|
|
</trkpt>
|
|
<trkpt lat="56.110609" lon="8.116267">
|
|
<ele>26.551031</ele>
|
|
<time>2026-07-12T14:57:01.000Z</time>
|
|
</trkpt>
|
|
<trkpt lat="56.110654" lon="8.116277">
|
|
<ele>26.546727</ele>
|
|
<time>2026-07-12T14:57:02.000Z</time>
|
|
</trkpt>
|
|
<trkpt lat="56.110697" lon="8.116288">
|
|
<ele>26.544848</ele>
|
|
<time>2026-07-12T14:57:03.000Z</time>
|
|
</trkpt>
|
|
<trkpt lat="56.110742" lon="8.116302">
|
|
<ele>26.542871</ele>
|
|
<time>2026-07-12T14:57:04.000Z</time>
|
|
</trkpt>
|
|
<trkpt lat="56.110787" lon="8.116317">
|
|
<ele>26.540890</ele>
|
|
<time>2026-07-12T14:57:05.000Z</time>
|
|
</trkpt>
|
|
<trkpt lat="56.110828" lon="8.116334">
|
|
<ele>26.539069</ele>
|
|
<time>2026-07-12T14:57:06.000Z</time>
|
|
</trkpt>
|
|
<trkpt lat="56.110871" lon="8.116357">
|
|
<ele>26.537127</ele>
|
|
<time>2026-07-12T14:57:07.000Z</time>
|
|
</trkpt>
|
|
<trkpt lat="56.110911" lon="8.116382">
|
|
<ele>26.535294</ele>
|
|
<time>2026-07-12T14:57:08.000Z</time>
|
|
</trkpt>
|
|
<trkpt lat="56.110948" lon="8.116408">
|
|
<ele>26.533575</ele>
|
|
<time>2026-07-12T14:57:09.000Z</time>
|
|
</trkpt>
|
|
<trkpt lat="56.110987" lon="8.116437">
|
|
<ele>26.531747</ele>
|
|
<time>2026-07-12T14:57:10.000Z</time>
|
|
</trkpt>
|
|
<trkpt lat="56.111030" lon="8.116471">
|
|
<ele>26.529714</ele>
|
|
<time>2026-07-12T14:57:11.000Z</time>
|
|
</trkpt>
|
|
<trkpt lat="56.111072" lon="8.116503">
|
|
<ele>26.527739</ele>
|
|
<time>2026-07-12T14:57:12.000Z</time>
|
|
</trkpt>
|
|
<trkpt lat="56.111116" lon="8.116530">
|
|
<ele>26.525726</ele>
|
|
<time>2026-07-12T14:57:13.000Z</time>
|
|
</trkpt>
|
|
<trkpt lat="56.111159" lon="8.116552">
|
|
<ele>26.523791</ele>
|
|
<time>2026-07-12T14:57:14.000Z</time>
|
|
</trkpt>
|
|
<trkpt lat="56.111201" lon="8.116571">
|
|
<ele>26.521917</ele>
|
|
<time>2026-07-12T14:57:15.000Z</time>
|
|
</trkpt>
|
|
<trkpt lat="56.111245" lon="8.116586">
|
|
<ele>26.519979</ele>
|
|
<time>2026-07-12T14:57:16.000Z</time>
|
|
</trkpt>
|
|
<trkpt lat="56.111286" lon="8.116599">
|
|
<ele>26.518177</ele>
|
|
<time>2026-07-12T14:57:17.000Z</time>
|
|
</trkpt>
|
|
<trkpt lat="56.111330" lon="8.116607">
|
|
<ele>26.516263</ele>
|
|
<time>2026-07-12T14:57:18.000Z</time>
|
|
</trkpt>
|
|
<trkpt lat="56.111376" lon="8.116610">
|
|
<ele>26.514271</ele>
|
|
<time>2026-07-12T14:57:19.000Z</time>
|
|
</trkpt>
|
|
<trkpt lat="56.111423" lon="8.116612">
|
|
<ele>26.512236</ele>
|
|
<time>2026-07-12T14:57:20.000Z</time>
|
|
</trkpt>
|
|
<trkpt lat="56.111471" lon="8.116613">
|
|
<ele>26.510159</ele>
|
|
<time>2026-07-12T14:57:21.000Z</time>
|
|
</trkpt>
|
|
<trkpt lat="56.111522" lon="8.116610">
|
|
<ele>26.507951</ele>
|
|
<time>2026-07-12T14:57:22.000Z</time>
|
|
</trkpt>
|
|
<trkpt lat="56.111572" lon="8.116607">
|
|
<ele>26.505786</ele>
|
|
<time>2026-07-12T14:57:23.000Z</time>
|
|
</trkpt>
|
|
<trkpt lat="56.111620" lon="8.116602">
|
|
<ele>26.503705</ele>
|
|
<time>2026-07-12T14:57:24.000Z</time>
|
|
</trkpt>
|
|
<trkpt lat="56.111667" lon="8.116596">
|
|
<ele>26.501666</ele>
|
|
<time>2026-07-12T14:57:25.000Z</time>
|
|
</trkpt>
|
|
<trkpt lat="56.111714" lon="8.116590">
|
|
<ele>26.499627</ele>
|
|
<time>2026-07-12T14:57:26.000Z</time>
|
|
</trkpt>
|
|
<trkpt lat="56.111756" lon="8.116590">
|
|
<ele>26.497809</ele>
|
|
<time>2026-07-12T14:57:27.000Z</time>
|
|
</trkpt>
|
|
<trkpt lat="56.111786" lon="8.116596">
|
|
<ele>26.496503</ele>
|
|
<time>2026-07-12T14:57:28.000Z</time>
|
|
</trkpt>
|
|
<trkpt lat="56.111805" lon="8.116612">
|
|
<ele>26.495594</ele>
|
|
<time>2026-07-12T14:57:29.000Z</time>
|
|
</trkpt>
|
|
<trkpt lat="56.111814" lon="8.116636">
|
|
<ele>26.494897</ele>
|
|
<time>2026-07-12T14:57:30.000Z</time>
|
|
</trkpt>
|
|
<trkpt lat="56.111816" lon="8.116649">
|
|
<ele>26.494571</ele>
|
|
<time>2026-07-12T14:57:31.000Z</time>
|
|
</trkpt>
|
|
<trkpt lat="56.111844" lon="8.116635">
|
|
<ele>26.493313</ele>
|
|
<time>2026-07-12T14:58:26.000Z</time>
|
|
</trkpt>
|
|
<trkpt lat="56.111856" lon="8.116636">
|
|
<ele>26.492793</ele>
|
|
<time>2026-07-12T14:58:27.000Z</time>
|
|
</trkpt>
|
|
<trkpt lat="56.111871" lon="8.116645">
|
|
<ele>26.492109</ele>
|
|
<time>2026-07-12T14:58:28.000Z</time>
|
|
</trkpt>
|
|
<trkpt lat="56.111888" lon="8.116663">
|
|
<ele>26.491255</ele>
|
|
<time>2026-07-12T14:58:29.000Z</time>
|
|
</trkpt>
|
|
<trkpt lat="56.111909" lon="8.116685">
|
|
<ele>26.490202</ele>
|
|
<time>2026-07-12T14:58:30.000Z</time>
|
|
</trkpt>
|
|
<trkpt lat="56.111934" lon="8.116710">
|
|
<ele>26.488963</ele>
|
|
<time>2026-07-12T14:58:31.000Z</time>
|
|
</trkpt>
|
|
<trkpt lat="56.111960" lon="8.116734">
|
|
<ele>26.487698</ele>
|
|
<time>2026-07-12T14:58:32.000Z</time>
|
|
</trkpt>
|
|
<trkpt lat="56.111990" lon="8.116756">
|
|
<ele>26.486295</ele>
|
|
<time>2026-07-12T14:58:33.000Z</time>
|
|
</trkpt>
|
|
<trkpt lat="56.112022" lon="8.116780">
|
|
<ele>26.484794</ele>
|
|
<time>2026-07-12T14:58:34.000Z</time>
|
|
</trkpt>
|
|
<trkpt lat="56.112052" lon="8.116802">
|
|
<ele>26.483392</ele>
|
|
<time>2026-07-12T14:58:35.000Z</time>
|
|
</trkpt>
|
|
<trkpt lat="56.112085" lon="8.116823">
|
|
<ele>26.481876</ele>
|
|
<time>2026-07-12T14:58:36.000Z</time>
|
|
</trkpt>
|
|
<trkpt lat="56.112125" lon="8.116849">
|
|
<ele>26.480035</ele>
|
|
<time>2026-07-12T14:58:37.000Z</time>
|
|
</trkpt>
|
|
<trkpt lat="56.112161" lon="8.116876">
|
|
<ele>26.478346</ele>
|
|
<time>2026-07-12T14:58:38.000Z</time>
|
|
</trkpt>
|
|
<trkpt lat="56.112197" lon="8.116905">
|
|
<ele>26.476639</ele>
|
|
<time>2026-07-12T14:58:39.000Z</time>
|
|
</trkpt>
|
|
<trkpt lat="56.112237" lon="8.116931">
|
|
<ele>26.474797</ele>
|
|
<time>2026-07-12T14:58:40.000Z</time>
|
|
</trkpt>
|
|
<trkpt lat="56.112282" lon="8.116955">
|
|
<ele>26.472766</ele>
|
|
<time>2026-07-12T14:58:41.000Z</time>
|
|
</trkpt>
|
|
<trkpt lat="56.112324" lon="8.116978">
|
|
<ele>26.470865</ele>
|
|
<time>2026-07-12T14:58:42.000Z</time>
|
|
</trkpt>
|
|
<trkpt lat="56.112367" lon="8.116998">
|
|
<ele>26.465459</ele>
|
|
<time>2026-07-12T14:58:43.000Z</time>
|
|
</trkpt>
|
|
<trkpt lat="56.112410" lon="8.117018">
|
|
<ele>26.450544</ele>
|
|
<time>2026-07-12T14:58:44.000Z</time>
|
|
</trkpt>
|
|
<trkpt lat="56.112454" lon="8.117038">
|
|
<ele>26.435304</ele>
|
|
<time>2026-07-12T14:58:45.000Z</time>
|
|
</trkpt>
|
|
<trkpt lat="56.112497" lon="8.117056">
|
|
<ele>26.420479</ele>
|
|
<time>2026-07-12T14:58:46.000Z</time>
|
|
</trkpt>
|
|
<trkpt lat="56.112542" lon="8.117072">
|
|
<ele>26.405076</ele>
|
|
<time>2026-07-12T14:58:47.000Z</time>
|
|
</trkpt>
|
|
<trkpt lat="56.112585" lon="8.117087">
|
|
<ele>26.390369</ele>
|
|
<time>2026-07-12T14:58:48.000Z</time>
|
|
</trkpt>
|
|
<trkpt lat="56.112629" lon="8.117106">
|
|
<ele>26.375173</ele>
|
|
<time>2026-07-12T14:58:49.000Z</time>
|
|
</trkpt>
|
|
<trkpt lat="56.112673" lon="8.117127">
|
|
<ele>26.359886</ele>
|
|
<time>2026-07-12T14:58:50.000Z</time>
|
|
</trkpt>
|
|
<trkpt lat="56.112716" lon="8.117146">
|
|
<ele>26.345017</ele>
|
|
<time>2026-07-12T14:58:51.000Z</time>
|
|
</trkpt>
|
|
<trkpt lat="56.112759" lon="8.117165">
|
|
<ele>26.330149</ele>
|
|
<time>2026-07-12T14:58:52.000Z</time>
|
|
</trkpt>
|
|
<trkpt lat="56.112807" lon="8.117187">
|
|
<ele>26.313515</ele>
|
|
<time>2026-07-12T14:58:53.000Z</time>
|
|
</trkpt>
|
|
<trkpt lat="56.112850" lon="8.117205">
|
|
<ele>26.298689</ele>
|
|
<time>2026-07-12T14:58:54.000Z</time>
|
|
</trkpt>
|
|
<trkpt lat="56.112892" lon="8.117223">
|
|
<ele>26.284191</ele>
|
|
<time>2026-07-12T14:58:55.000Z</time>
|
|
</trkpt>
|
|
<trkpt lat="56.112941" lon="8.117251">
|
|
<ele>26.266924</ele>
|
|
<time>2026-07-12T14:58:56.000Z</time>
|
|
</trkpt>
|
|
<trkpt lat="56.112984" lon="8.117277">
|
|
<ele>26.251689</ele>
|
|
<time>2026-07-12T14:58:57.000Z</time>
|
|
</trkpt>
|
|
<trkpt lat="56.113028" lon="8.117309">
|
|
<ele>26.235748</ele>
|
|
<time>2026-07-12T14:58:58.000Z</time>
|
|
</trkpt>
|
|
<trkpt lat="56.113069" lon="8.117341">
|
|
<ele>26.220735</ele>
|
|
<time>2026-07-12T14:58:59.000Z</time>
|
|
</trkpt>
|
|
<trkpt lat="56.113112" lon="8.117374">
|
|
<ele>26.205032</ele>
|
|
<time>2026-07-12T14:59:00.000Z</time>
|
|
</trkpt>
|
|
<trkpt lat="56.113155" lon="8.117409">
|
|
<ele>26.189177</ele>
|
|
<time>2026-07-12T14:59:01.000Z</time>
|
|
</trkpt>
|
|
<trkpt lat="56.113195" lon="8.117438">
|
|
<ele>26.174691</ele>
|
|
<time>2026-07-12T14:59:02.000Z</time>
|
|
</trkpt>
|
|
<trkpt lat="56.113238" lon="8.117460">
|
|
<ele>26.159678</ele>
|
|
<time>2026-07-12T14:59:03.000Z</time>
|
|
</trkpt>
|
|
<trkpt lat="56.113282" lon="8.117481">
|
|
<ele>26.144391</ele>
|
|
<time>2026-07-12T14:59:04.000Z</time>
|
|
</trkpt>
|
|
<trkpt lat="56.113324" lon="8.117510">
|
|
<ele>26.129281</ele>
|
|
<time>2026-07-12T14:59:05.000Z</time>
|
|
</trkpt>
|
|
<trkpt lat="56.113365" lon="8.117544">
|
|
<ele>26.114115</ele>
|
|
<time>2026-07-12T14:59:06.000Z</time>
|
|
</trkpt>
|
|
<trkpt lat="56.113405" lon="8.117573">
|
|
<ele>26.099629</ele>
|
|
<time>2026-07-12T14:59:07.000Z</time>
|
|
</trkpt>
|
|
<trkpt lat="56.113454" lon="8.117588">
|
|
<ele>26.082940</ele>
|
|
<time>2026-07-12T14:59:08.000Z</time>
|
|
</trkpt>
|
|
<trkpt lat="56.113498" lon="8.117583">
|
|
<ele>26.068137</ele>
|
|
<time>2026-07-12T14:59:09.000Z</time>
|
|
</trkpt>
|
|
<trkpt lat="56.113548" lon="8.117564">
|
|
<ele>26.050977</ele>
|
|
<time>2026-07-12T14:59:10.000Z</time>
|
|
</trkpt>
|
|
<trkpt lat="56.113593" lon="8.117540">
|
|
<ele>26.035214</ele>
|
|
<time>2026-07-12T14:59:11.000Z</time>
|
|
</trkpt>
|
|
<trkpt lat="56.113641" lon="8.117515">
|
|
<ele>26.018433</ele>
|
|
<time>2026-07-12T14:59:12.000Z</time>
|
|
</trkpt>
|
|
<trkpt lat="56.113691" lon="8.117494">
|
|
<ele>26.001191</ele>
|
|
<time>2026-07-12T14:59:13.000Z</time>
|
|
</trkpt>
|
|
<trkpt lat="56.113742" lon="8.117474">
|
|
<ele>25.983663</ele>
|
|
<time>2026-07-12T14:59:14.000Z</time>
|
|
</trkpt>
|
|
<trkpt lat="56.113794" lon="8.117459">
|
|
<ele>25.965980</ele>
|
|
<time>2026-07-12T14:59:15.000Z</time>
|
|
</trkpt>
|
|
<trkpt lat="56.113843" lon="8.117449">
|
|
<ele>25.949422</ele>
|
|
<time>2026-07-12T14:59:16.000Z</time>
|
|
</trkpt>
|
|
<trkpt lat="56.113884" lon="8.117437">
|
|
<ele>25.935474</ele>
|
|
<time>2026-07-12T14:59:17.000Z</time>
|
|
</trkpt>
|
|
<trkpt lat="56.113931" lon="8.117420">
|
|
<ele>25.919377</ele>
|
|
<time>2026-07-12T14:59:18.000Z</time>
|
|
</trkpt>
|
|
<trkpt lat="56.113984" lon="8.117405">
|
|
<ele>25.901362</ele>
|
|
<time>2026-07-12T14:59:19.000Z</time>
|
|
</trkpt>
|
|
<trkpt lat="56.114030" lon="8.117395">
|
|
<ele>25.885804</ele>
|
|
<time>2026-07-12T14:59:20.000Z</time>
|
|
</trkpt>
|
|
<trkpt lat="56.114074" lon="8.117387">
|
|
<ele>25.870955</ele>
|
|
<time>2026-07-12T14:59:21.000Z</time>
|
|
</trkpt>
|
|
<trkpt lat="56.114121" lon="8.117381">
|
|
<ele>25.874932</ele>
|
|
<time>2026-07-12T14:59:22.000Z</time>
|
|
</trkpt>
|
|
<trkpt lat="56.114166" lon="8.117378">
|
|
<ele>25.888510</ele>
|
|
<time>2026-07-12T14:59:23.000Z</time>
|
|
</trkpt>
|
|
<trkpt lat="56.114213" lon="8.117379">
|
|
<ele>25.902683</ele>
|
|
<time>2026-07-12T14:59:24.000Z</time>
|
|
</trkpt>
|
|
<trkpt lat="56.114256" lon="8.117382">
|
|
<ele>25.915659</ele>
|
|
<time>2026-07-12T14:59:25.000Z</time>
|
|
</trkpt>
|
|
<trkpt lat="56.114300" lon="8.117389">
|
|
<ele>25.928979</ele>
|
|
<time>2026-07-12T14:59:26.000Z</time>
|
|
</trkpt>
|
|
<trkpt lat="56.114339" lon="8.117401">
|
|
<ele>25.940910</ele>
|
|
<time>2026-07-12T14:59:27.000Z</time>
|
|
</trkpt>
|
|
<trkpt lat="56.114379" lon="8.117414">
|
|
<ele>25.953168</ele>
|
|
<time>2026-07-12T14:59:28.000Z</time>
|
|
</trkpt>
|
|
<trkpt lat="56.114419" lon="8.117426">
|
|
<ele>25.965397</ele>
|
|
<time>2026-07-12T14:59:29.000Z</time>
|
|
</trkpt>
|
|
<trkpt lat="56.114461" lon="8.117433">
|
|
<ele>25.978116</ele>
|
|
<time>2026-07-12T14:59:30.000Z</time>
|
|
</trkpt>
|
|
<trkpt lat="56.114501" lon="8.117437">
|
|
<ele>25.990196</ele>
|
|
<time>2026-07-12T14:59:31.000Z</time>
|
|
</trkpt>
|
|
<trkpt lat="56.114541" lon="8.117440">
|
|
<ele>26.002268</ele>
|
|
<time>2026-07-12T14:59:32.000Z</time>
|
|
</trkpt>
|
|
<trkpt lat="56.114581" lon="8.117444">
|
|
<ele>26.014348</ele>
|
|
<time>2026-07-12T14:59:33.000Z</time>
|
|
</trkpt>
|
|
<trkpt lat="56.114621" lon="8.117449">
|
|
<ele>26.026438</ele>
|
|
<time>2026-07-12T14:59:34.000Z</time>
|
|
</trkpt>
|
|
<trkpt lat="56.114662" lon="8.117454">
|
|
<ele>26.038829</ele>
|
|
<time>2026-07-12T14:59:35.000Z</time>
|
|
</trkpt>
|
|
<trkpt lat="56.114702" lon="8.117461">
|
|
<ele>26.050948</ele>
|
|
<time>2026-07-12T14:59:36.000Z</time>
|
|
</trkpt>
|
|
<trkpt lat="56.114740" lon="8.117466">
|
|
<ele>26.062437</ele>
|
|
<time>2026-07-12T14:59:37.000Z</time>
|
|
</trkpt>
|
|
<trkpt lat="56.114782" lon="8.117468">
|
|
<ele>26.075106</ele>
|
|
<time>2026-07-12T14:59:38.000Z</time>
|
|
</trkpt>
|
|
<trkpt lat="56.114819" lon="8.117467">
|
|
<ele>26.086264</ele>
|
|
<time>2026-07-12T14:59:39.000Z</time>
|
|
</trkpt>
|
|
<trkpt lat="56.114862" lon="8.117462">
|
|
<ele>26.099257</ele>
|
|
<time>2026-07-12T14:59:40.000Z</time>
|
|
</trkpt>
|
|
<trkpt lat="56.114906" lon="8.117451">
|
|
<ele>26.112653</ele>
|
|
<time>2026-07-12T14:59:41.000Z</time>
|
|
</trkpt>
|
|
<trkpt lat="56.114950" lon="8.117436">
|
|
<ele>26.126158</ele>
|
|
<time>2026-07-12T14:59:42.000Z</time>
|
|
</trkpt>
|
|
<trkpt lat="56.114994" lon="8.117424">
|
|
<ele>26.139578</ele>
|
|
<time>2026-07-12T14:59:43.000Z</time>
|
|
</trkpt>
|
|
<trkpt lat="56.115036" lon="8.117417">
|
|
<ele>26.152297</ele>
|
|
<time>2026-07-12T14:59:44.000Z</time>
|
|
</trkpt>
|
|
<trkpt lat="56.115081" lon="8.117412">
|
|
<ele>26.165892</ele>
|
|
<time>2026-07-12T14:59:45.000Z</time>
|
|
</trkpt>
|
|
<trkpt lat="56.115133" lon="8.117400">
|
|
<ele>26.181700</ele>
|
|
<time>2026-07-12T14:59:46.000Z</time>
|
|
</trkpt>
|
|
<trkpt lat="56.115179" lon="8.117386">
|
|
<ele>26.195769</ele>
|
|
<time>2026-07-12T14:59:47.000Z</time>
|
|
</trkpt>
|
|
<trkpt lat="56.115225" lon="8.117368">
|
|
<ele>26.209966</ele>
|
|
<time>2026-07-12T14:59:48.000Z</time>
|
|
</trkpt>
|
|
<trkpt lat="56.115269" lon="8.117347">
|
|
<ele>26.223695</ele>
|
|
<time>2026-07-12T14:59:49.000Z</time>
|
|
</trkpt>
|
|
<trkpt lat="56.115311" lon="8.117322">
|
|
<ele>26.237039</ele>
|
|
<time>2026-07-12T14:59:50.000Z</time>
|
|
</trkpt>
|
|
<trkpt lat="56.115355" lon="8.117295">
|
|
<ele>26.251061</ele>
|
|
<time>2026-07-12T14:59:51.000Z</time>
|
|
</trkpt>
|
|
<trkpt lat="56.115399" lon="8.117264">
|
|
<ele>26.265315</ele>
|
|
<time>2026-07-12T14:59:52.000Z</time>
|
|
</trkpt>
|
|
<trkpt lat="56.115440" lon="8.117230">
|
|
<ele>26.278935</ele>
|
|
<time>2026-07-12T14:59:53.000Z</time>
|
|
</trkpt>
|
|
<trkpt lat="56.115479" lon="8.117195">
|
|
<ele>26.292085</ele>
|
|
<time>2026-07-12T14:59:54.000Z</time>
|
|
</trkpt>
|
|
<trkpt lat="56.115519" lon="8.117165">
|
|
<ele>26.305158</ele>
|
|
<time>2026-07-12T14:59:55.000Z</time>
|
|
</trkpt>
|
|
<trkpt lat="56.115558" lon="8.117144">
|
|
<ele>26.317437</ele>
|
|
<time>2026-07-12T14:59:56.000Z</time>
|
|
</trkpt>
|
|
<trkpt lat="56.115599" lon="8.117129">
|
|
<ele>26.330054</ele>
|
|
<time>2026-07-12T14:59:57.000Z</time>
|
|
</trkpt>
|
|
<trkpt lat="56.115637" lon="8.117115">
|
|
<ele>26.341751</ele>
|
|
<time>2026-07-12T14:59:58.000Z</time>
|
|
</trkpt>
|
|
<trkpt lat="56.115672" lon="8.117095">
|
|
<ele>26.352828</ele>
|
|
<time>2026-07-12T14:59:59.000Z</time>
|
|
</trkpt>
|
|
<trkpt lat="56.115702" lon="8.117075">
|
|
<ele>26.362478</ele>
|
|
<time>2026-07-12T15:00:00.000Z</time>
|
|
</trkpt>
|
|
<trkpt lat="56.115733" lon="8.117051">
|
|
<ele>26.372659</ele>
|
|
<time>2026-07-12T15:00:01.000Z</time>
|
|
</trkpt>
|
|
<trkpt lat="56.115765" lon="8.117026">
|
|
<ele>26.383184</ele>
|
|
<time>2026-07-12T15:00:02.000Z</time>
|
|
</trkpt>
|
|
<trkpt lat="56.115805" lon="8.116998">
|
|
<ele>26.396131</ele>
|
|
<time>2026-07-12T15:00:03.000Z</time>
|
|
</trkpt>
|
|
<trkpt lat="56.115837" lon="8.116969">
|
|
<ele>26.406942</ele>
|
|
<time>2026-07-12T15:00:04.000Z</time>
|
|
</trkpt>
|
|
<trkpt lat="56.115869" lon="8.116939">
|
|
<ele>26.400916</ele>
|
|
<time>2026-07-12T15:00:05.000Z</time>
|
|
</trkpt>
|
|
<trkpt lat="56.115902" lon="8.116905">
|
|
<ele>26.392815</ele>
|
|
<time>2026-07-12T15:00:06.000Z</time>
|
|
</trkpt>
|
|
<trkpt lat="56.115936" lon="8.116863">
|
|
<ele>26.384027</ele>
|
|
<time>2026-07-12T15:00:07.000Z</time>
|
|
</trkpt>
|
|
<trkpt lat="56.115968" lon="8.116821">
|
|
<ele>26.375587</ele>
|
|
<time>2026-07-12T15:00:08.000Z</time>
|
|
</trkpt>
|
|
<trkpt lat="56.116002" lon="8.116779">
|
|
<ele>26.366799</ele>
|
|
<time>2026-07-12T15:00:09.000Z</time>
|
|
</trkpt>
|
|
<trkpt lat="56.116036" lon="8.116743">
|
|
<ele>26.358395</ele>
|
|
<time>2026-07-12T15:00:10.000Z</time>
|
|
</trkpt>
|
|
<trkpt lat="56.116076" lon="8.116712">
|
|
<ele>26.349120</ele>
|
|
<time>2026-07-12T15:00:11.000Z</time>
|
|
</trkpt>
|
|
<trkpt lat="56.116121" lon="8.116695">
|
|
<ele>26.339331</ele>
|
|
<time>2026-07-12T15:00:12.000Z</time>
|
|
</trkpt>
|
|
<trkpt lat="56.116166" lon="8.116697">
|
|
<ele>26.329749</ele>
|
|
<time>2026-07-12T15:00:13.000Z</time>
|
|
</trkpt>
|
|
<trkpt lat="56.116208" lon="8.116713">
|
|
<ele>26.320609</ele>
|
|
<time>2026-07-12T15:00:14.000Z</time>
|
|
</trkpt>
|
|
<trkpt lat="56.116249" lon="8.116735">
|
|
<ele>26.311500</ele>
|
|
<time>2026-07-12T15:00:15.000Z</time>
|
|
</trkpt>
|
|
<trkpt lat="56.116292" lon="8.116757">
|
|
<ele>26.301982</ele>
|
|
<time>2026-07-12T15:00:16.000Z</time>
|
|
</trkpt>
|
|
<trkpt lat="56.116334" lon="8.116778">
|
|
<ele>26.292700</ele>
|
|
<time>2026-07-12T15:00:17.000Z</time>
|
|
</trkpt>
|
|
<trkpt lat="56.116375" lon="8.116798">
|
|
<ele>26.283656</ele>
|
|
<time>2026-07-12T15:00:18.000Z</time>
|
|
</trkpt>
|
|
<trkpt lat="56.116417" lon="8.116810">
|
|
<ele>26.274603</ele>
|
|
<time>2026-07-12T15:00:19.000Z</time>
|
|
</trkpt>
|
|
<trkpt lat="56.116459" lon="8.116813">
|
|
<ele>26.265656</ele>
|
|
<time>2026-07-12T15:00:20.000Z</time>
|
|
</trkpt>
|
|
<trkpt lat="56.116500" lon="8.116809">
|
|
<ele>26.256916</ele>
|
|
<time>2026-07-12T15:00:21.000Z</time>
|
|
</trkpt>
|
|
<trkpt lat="56.116540" lon="8.116798">
|
|
<ele>26.248302</ele>
|
|
<time>2026-07-12T15:00:22.000Z</time>
|
|
</trkpt>
|
|
<trkpt lat="56.116575" lon="8.116777">
|
|
<ele>26.240446</ele>
|
|
<time>2026-07-12T15:00:23.000Z</time>
|
|
</trkpt>
|
|
<trkpt lat="56.116615" lon="8.116758">
|
|
<ele>26.231638</ele>
|
|
<time>2026-07-12T15:00:24.000Z</time>
|
|
</trkpt>
|
|
<trkpt lat="56.116655" lon="8.116749">
|
|
<ele>26.223056</ele>
|
|
<time>2026-07-12T15:00:25.000Z</time>
|
|
</trkpt>
|
|
<trkpt lat="56.116696" lon="8.116744">
|
|
<ele>26.214309</ele>
|
|
<time>2026-07-12T15:00:26.000Z</time>
|
|
</trkpt>
|
|
<trkpt lat="56.116736" lon="8.116741">
|
|
<ele>26.205787</ele>
|
|
<time>2026-07-12T15:00:27.000Z</time>
|
|
</trkpt>
|
|
<trkpt lat="56.116776" lon="8.116735">
|
|
<ele>26.197243</ele>
|
|
<time>2026-07-12T15:00:28.000Z</time>
|
|
</trkpt>
|
|
<trkpt lat="56.116817" lon="8.116726">
|
|
<ele>26.188450</ele>
|
|
<time>2026-07-12T15:00:29.000Z</time>
|
|
</trkpt>
|
|
<trkpt lat="56.116859" lon="8.116716">
|
|
<ele>26.179432</ele>
|
|
<time>2026-07-12T15:00:30.000Z</time>
|
|
</trkpt>
|
|
<trkpt lat="56.116899" lon="8.116703">
|
|
<ele>26.170779</ele>
|
|
<time>2026-07-12T15:00:31.000Z</time>
|
|
</trkpt>
|
|
<trkpt lat="56.116939" lon="8.116688">
|
|
<ele>26.162080</ele>
|
|
<time>2026-07-12T15:00:32.000Z</time>
|
|
</trkpt>
|
|
<trkpt lat="56.116976" lon="8.116673">
|
|
<ele>26.154005</ele>
|
|
<time>2026-07-12T15:00:33.000Z</time>
|
|
</trkpt>
|
|
<trkpt lat="56.117022" lon="8.116658">
|
|
<ele>26.144053</ele>
|
|
<time>2026-07-12T15:00:34.000Z</time>
|
|
</trkpt>
|
|
<trkpt lat="56.117064" lon="8.116647">
|
|
<ele>26.135018</ele>
|
|
<time>2026-07-12T15:00:35.000Z</time>
|
|
</trkpt>
|
|
<trkpt lat="56.117101" lon="8.116641">
|
|
<ele>26.127110</ele>
|
|
<time>2026-07-12T15:00:36.000Z</time>
|
|
</trkpt>
|
|
<trkpt lat="56.117133" lon="8.116637">
|
|
<ele>26.120282</ele>
|
|
<time>2026-07-12T15:00:37.000Z</time>
|
|
</trkpt>
|
|
<trkpt lat="56.117165" lon="8.116633">
|
|
<ele>26.113454</ele>
|
|
<time>2026-07-12T15:00:38.000Z</time>
|
|
</trkpt>
|
|
<trkpt lat="56.117194" lon="8.116627">
|
|
<ele>26.107240</ele>
|
|
<time>2026-07-12T15:00:39.000Z</time>
|
|
</trkpt>
|
|
<trkpt lat="56.117220" lon="8.116621">
|
|
<ele>26.101660</ele>
|
|
<time>2026-07-12T15:00:40.000Z</time>
|
|
</trkpt>
|
|
<trkpt lat="56.117247" lon="8.116617">
|
|
<ele>26.095893</ele>
|
|
<time>2026-07-12T15:00:41.000Z</time>
|
|
</trkpt>
|
|
<trkpt lat="56.117274" lon="8.116611">
|
|
<ele>26.090102</ele>
|
|
<time>2026-07-12T15:00:42.000Z</time>
|
|
</trkpt>
|
|
<trkpt lat="56.117302" lon="8.116599">
|
|
<ele>26.083974</ele>
|
|
<time>2026-07-12T15:00:43.000Z</time>
|
|
</trkpt>
|
|
<trkpt lat="56.117334" lon="8.116588">
|
|
<ele>26.077038</ele>
|
|
<time>2026-07-12T15:00:44.000Z</time>
|
|
</trkpt>
|
|
<trkpt lat="56.117368" lon="8.116571">
|
|
<ele>26.069525</ele>
|
|
<time>2026-07-12T15:00:45.000Z</time>
|
|
</trkpt>
|
|
<trkpt lat="56.117402" lon="8.116548">
|
|
<ele>26.061790</ele>
|
|
<time>2026-07-12T15:00:46.000Z</time>
|
|
</trkpt>
|
|
<trkpt lat="56.117435" lon="8.116523">
|
|
<ele>26.054165</ele>
|
|
<time>2026-07-12T15:00:47.000Z</time>
|
|
</trkpt>
|
|
<trkpt lat="56.117466" lon="8.116494">
|
|
<ele>26.046723</ele>
|
|
<time>2026-07-12T15:00:48.000Z</time>
|
|
</trkpt>
|
|
<trkpt lat="56.117498" lon="8.116470">
|
|
<ele>26.039340</ele>
|
|
<time>2026-07-12T15:00:49.000Z</time>
|
|
</trkpt>
|
|
<trkpt lat="56.117531" lon="8.116452">
|
|
<ele>26.031998</ele>
|
|
<time>2026-07-12T15:00:50.000Z</time>
|
|
</trkpt>
|
|
<trkpt lat="56.117563" lon="8.116437">
|
|
<ele>26.024873</ele>
|
|
<time>2026-07-12T15:00:51.000Z</time>
|
|
</trkpt>
|
|
<trkpt lat="56.117600" lon="8.116420">
|
|
<ele>26.009436</ele>
|
|
<time>2026-07-12T15:00:52.000Z</time>
|
|
</trkpt>
|
|
<trkpt lat="56.117635" lon="8.116400">
|
|
<ele>25.994589</ele>
|
|
<time>2026-07-12T15:00:53.000Z</time>
|
|
</trkpt>
|
|
<trkpt lat="56.117667" lon="8.116382">
|
|
<ele>25.981034</ele>
|
|
<time>2026-07-12T15:00:54.000Z</time>
|
|
</trkpt>
|
|
<trkpt lat="56.117697" lon="8.116364">
|
|
<ele>25.968248</ele>
|
|
<time>2026-07-12T15:00:55.000Z</time>
|
|
</trkpt>
|
|
<trkpt lat="56.117732" lon="8.116343">
|
|
<ele>25.953332</ele>
|
|
<time>2026-07-12T15:00:56.000Z</time>
|
|
</trkpt>
|
|
<trkpt lat="56.117760" lon="8.116325">
|
|
<ele>25.941310</ele>
|
|
<time>2026-07-12T15:00:57.000Z</time>
|
|
</trkpt>
|
|
<trkpt lat="56.117790" lon="8.116307">
|
|
<ele>25.928524</ele>
|
|
<time>2026-07-12T15:00:58.000Z</time>
|
|
</trkpt>
|
|
<trkpt lat="56.117818" lon="8.116291">
|
|
<ele>25.916647</ele>
|
|
<time>2026-07-12T15:00:59.000Z</time>
|
|
</trkpt>
|
|
<trkpt lat="56.117846" lon="8.116274">
|
|
<ele>25.904699</ele>
|
|
<time>2026-07-12T15:01:00.000Z</time>
|
|
</trkpt>
|
|
<trkpt lat="56.117875" lon="8.116255">
|
|
<ele>25.892220</ele>
|
|
<time>2026-07-12T15:01:01.000Z</time>
|
|
</trkpt>
|
|
<trkpt lat="56.117904" lon="8.116234">
|
|
<ele>25.879580</ele>
|
|
<time>2026-07-12T15:01:02.000Z</time>
|
|
</trkpt>
|
|
<trkpt lat="56.117933" lon="8.116215">
|
|
<ele>25.867101</ele>
|
|
<time>2026-07-12T15:01:03.000Z</time>
|
|
</trkpt>
|
|
<trkpt lat="56.117964" lon="8.116197">
|
|
<ele>25.853932</ele>
|
|
<time>2026-07-12T15:01:04.000Z</time>
|
|
</trkpt>
|
|
<trkpt lat="56.117995" lon="8.116183">
|
|
<ele>25.841011</ele>
|
|
<time>2026-07-12T15:01:05.000Z</time>
|
|
</trkpt>
|
|
<trkpt lat="56.118022" lon="8.116171">
|
|
<ele>25.829768</ele>
|
|
<time>2026-07-12T15:01:06.000Z</time>
|
|
</trkpt>
|
|
<trkpt lat="56.118054" lon="8.116161">
|
|
<ele>25.816639</ele>
|
|
<time>2026-07-12T15:01:07.000Z</time>
|
|
</trkpt>
|
|
<trkpt lat="56.118084" lon="8.116152">
|
|
<ele>25.804346</ele>
|
|
<time>2026-07-12T15:01:08.000Z</time>
|
|
</trkpt>
|
|
<trkpt lat="56.118115" lon="8.116144">
|
|
<ele>25.791687</ele>
|
|
<time>2026-07-12T15:01:09.000Z</time>
|
|
</trkpt>
|
|
<trkpt lat="56.118146" lon="8.116135">
|
|
<ele>25.778994</ele>
|
|
<time>2026-07-12T15:01:10.000Z</time>
|
|
</trkpt>
|
|
<trkpt lat="56.118177" lon="8.116127">
|
|
<ele>25.766336</ele>
|
|
<time>2026-07-12T15:01:11.000Z</time>
|
|
</trkpt>
|
|
<trkpt lat="56.118210" lon="8.116119">
|
|
<ele>25.752877</ele>
|
|
<time>2026-07-12T15:01:12.000Z</time>
|
|
</trkpt>
|
|
<trkpt lat="56.118241" lon="8.116111">
|
|
<ele>25.740218</ele>
|
|
<time>2026-07-12T15:01:13.000Z</time>
|
|
</trkpt>
|
|
<trkpt lat="56.118276" lon="8.116101">
|
|
<ele>25.725893</ele>
|
|
<time>2026-07-12T15:01:14.000Z</time>
|
|
</trkpt>
|
|
<trkpt lat="56.118309" lon="8.116092">
|
|
<ele>25.712402</ele>
|
|
<time>2026-07-12T15:01:15.000Z</time>
|
|
</trkpt>
|
|
<trkpt lat="56.118346" lon="8.116084">
|
|
<ele>25.697339</ele>
|
|
<time>2026-07-12T15:01:16.000Z</time>
|
|
</trkpt>
|
|
<trkpt lat="56.118383" lon="8.116075">
|
|
<ele>25.682248</ele>
|
|
<time>2026-07-12T15:01:17.000Z</time>
|
|
</trkpt>
|
|
<trkpt lat="56.118420" lon="8.116066">
|
|
<ele>25.667156</ele>
|
|
<time>2026-07-12T15:01:18.000Z</time>
|
|
</trkpt>
|
|
<trkpt lat="56.118455" lon="8.116060">
|
|
<ele>25.652945</ele>
|
|
<time>2026-07-12T15:01:19.000Z</time>
|
|
</trkpt>
|
|
<trkpt lat="56.118490" lon="8.116055">
|
|
<ele>25.638754</ele>
|
|
<time>2026-07-12T15:01:20.000Z</time>
|
|
</trkpt>
|
|
<trkpt lat="56.118524" lon="8.116049">
|
|
<ele>25.624946</ele>
|
|
<time>2026-07-12T15:01:21.000Z</time>
|
|
</trkpt>
|
|
<trkpt lat="56.118558" lon="8.116042">
|
|
<ele>25.611113</ele>
|
|
<time>2026-07-12T15:01:22.000Z</time>
|
|
</trkpt>
|
|
<trkpt lat="56.118591" lon="8.116035">
|
|
<ele>25.597682</ele>
|
|
<time>2026-07-12T15:01:23.000Z</time>
|
|
</trkpt>
|
|
<trkpt lat="56.118622" lon="8.116032">
|
|
<ele>25.585135</ele>
|
|
<time>2026-07-12T15:01:24.000Z</time>
|
|
</trkpt>
|
|
<trkpt lat="56.118654" lon="8.116029">
|
|
<ele>25.572183</ele>
|
|
<time>2026-07-12T15:01:25.000Z</time>
|
|
</trkpt>
|
|
<trkpt lat="56.118686" lon="8.116028">
|
|
<ele>25.559247</ele>
|
|
<time>2026-07-12T15:01:26.000Z</time>
|
|
</trkpt>
|
|
<trkpt lat="56.118717" lon="8.116026">
|
|
<ele>25.546710</ele>
|
|
<time>2026-07-12T15:01:27.000Z</time>
|
|
</trkpt>
|
|
<trkpt lat="56.118742" lon="8.116022">
|
|
<ele>25.536565</ele>
|
|
<time>2026-07-12T15:01:28.000Z</time>
|
|
</trkpt>
|
|
<trkpt lat="56.118758" lon="8.116017">
|
|
<ele>25.530001</ele>
|
|
<time>2026-07-12T15:01:29.000Z</time>
|
|
</trkpt>
|
|
<trkpt lat="56.118801" lon="8.115994">
|
|
<ele>25.511865</ele>
|
|
<time>2026-07-12T15:02:37.000Z</time>
|
|
</trkpt>
|
|
<trkpt lat="56.118810" lon="8.115989">
|
|
<ele>25.508057</ele>
|
|
<time>2026-07-12T15:02:38.000Z</time>
|
|
</trkpt>
|
|
<trkpt lat="56.118829" lon="8.115984">
|
|
<ele>25.500295</ele>
|
|
<time>2026-07-12T15:02:39.000Z</time>
|
|
</trkpt>
|
|
<trkpt lat="56.118847" lon="8.115983">
|
|
<ele>25.493016</ele>
|
|
<time>2026-07-12T15:02:40.000Z</time>
|
|
</trkpt>
|
|
<trkpt lat="56.118872" lon="8.115981">
|
|
<ele>25.482902</ele>
|
|
<time>2026-07-12T15:02:41.000Z</time>
|
|
</trkpt>
|
|
<trkpt lat="56.118896" lon="8.115977">
|
|
<ele>25.473160</ele>
|
|
<time>2026-07-12T15:02:42.000Z</time>
|
|
</trkpt>
|
|
<trkpt lat="56.118916" lon="8.115972">
|
|
<ele>25.464998</ele>
|
|
<time>2026-07-12T15:02:43.000Z</time>
|
|
</trkpt>
|
|
<trkpt lat="56.118927" lon="8.115969">
|
|
<ele>25.460501</ele>
|
|
<time>2026-07-12T15:02:44.000Z</time>
|
|
</trkpt>
|
|
<trkpt lat="56.118936" lon="8.115968">
|
|
<ele>25.456856</ele>
|
|
<time>2026-07-12T15:02:45.000Z</time>
|
|
</trkpt>
|
|
<trkpt lat="56.118941" lon="8.115966">
|
|
<ele>25.454786</ele>
|
|
<time>2026-07-12T15:02:46.000Z</time>
|
|
</trkpt>
|
|
<trkpt lat="56.118949" lon="8.115966">
|
|
<ele>25.451552</ele>
|
|
<time>2026-07-12T15:02:47.000Z</time>
|
|
</trkpt>
|
|
<trkpt lat="56.118957" lon="8.115980">
|
|
<ele>25.447035</ele>
|
|
<time>2026-07-12T15:02:48.000Z</time>
|
|
</trkpt>
|
|
<trkpt lat="56.118964" lon="8.116000">
|
|
<ele>25.441714</ele>
|
|
<time>2026-07-12T15:02:49.000Z</time>
|
|
</trkpt>
|
|
<trkpt lat="56.118971" lon="8.116019">
|
|
<ele>25.436582</ele>
|
|
<time>2026-07-12T15:02:50.000Z</time>
|
|
</trkpt>
|
|
<trkpt lat="56.118976" lon="8.116038">
|
|
<ele>25.431848</ele>
|
|
<time>2026-07-12T15:02:51.000Z</time>
|
|
</trkpt>
|
|
<trkpt lat="56.118982" lon="8.116088">
|
|
<ele>25.420324</ele>
|
|
<time>2026-07-12T15:02:52.000Z</time>
|
|
</trkpt>
|
|
<trkpt lat="56.118985" lon="8.116130">
|
|
<ele>25.410784</ele>
|
|
<time>2026-07-12T15:02:53.000Z</time>
|
|
</trkpt>
|
|
<trkpt lat="56.118989" lon="8.116174">
|
|
<ele>25.400739</ele>
|
|
<time>2026-07-12T15:02:54.000Z</time>
|
|
</trkpt>
|
|
<trkpt lat="56.118993" lon="8.116213">
|
|
<ele>25.391804</ele>
|
|
<time>2026-07-12T15:02:55.000Z</time>
|
|
</trkpt>
|
|
<trkpt lat="56.118997" lon="8.116261">
|
|
<ele>25.380868</ele>
|
|
<time>2026-07-12T15:02:56.000Z</time>
|
|
</trkpt>
|
|
<trkpt lat="56.119000" lon="8.116304">
|
|
<ele>25.371104</ele>
|
|
<time>2026-07-12T15:02:57.000Z</time>
|
|
</trkpt>
|
|
<trkpt lat="56.119005" lon="8.116351">
|
|
<ele>25.360323</ele>
|
|
<time>2026-07-12T15:02:58.000Z</time>
|
|
</trkpt>
|
|
<trkpt lat="56.119008" lon="8.116389">
|
|
<ele>25.351675</ele>
|
|
<time>2026-07-12T15:02:59.000Z</time>
|
|
</trkpt>
|
|
<trkpt lat="56.119011" lon="8.116438">
|
|
<ele>25.340568</ele>
|
|
<time>2026-07-12T15:03:00.000Z</time>
|
|
</trkpt>
|
|
<trkpt lat="56.119011" lon="8.116478">
|
|
<ele>25.331556</ele>
|
|
<time>2026-07-12T15:03:01.000Z</time>
|
|
</trkpt>
|
|
<trkpt lat="56.119010" lon="8.116534">
|
|
<ele>25.318931</ele>
|
|
<time>2026-07-12T15:03:02.000Z</time>
|
|
</trkpt>
|
|
<trkpt lat="56.119005" lon="8.116580">
|
|
<ele>25.308372</ele>
|
|
<time>2026-07-12T15:03:03.000Z</time>
|
|
</trkpt>
|
|
<trkpt lat="56.118998" lon="8.116633">
|
|
<ele>25.296598</ele>
|
|
<time>2026-07-12T15:03:04.000Z</time>
|
|
</trkpt>
|
|
<trkpt lat="56.118993" lon="8.116688">
|
|
<ele>25.287215</ele>
|
|
<time>2026-07-12T15:03:05.000Z</time>
|
|
</trkpt>
|
|
<trkpt lat="56.118985" lon="8.116747">
|
|
<ele>25.276990</ele>
|
|
<time>2026-07-12T15:03:06.000Z</time>
|
|
</trkpt>
|
|
<trkpt lat="56.118979" lon="8.116808">
|
|
<ele>25.266560</ele>
|
|
<time>2026-07-12T15:03:07.000Z</time>
|
|
</trkpt>
|
|
<trkpt lat="56.118978" lon="8.116867">
|
|
<ele>25.256621</ele>
|
|
<time>2026-07-12T15:03:08.000Z</time>
|
|
</trkpt>
|
|
<trkpt lat="56.118982" lon="8.116924">
|
|
<ele>25.246948</ele>
|
|
<time>2026-07-12T15:03:09.000Z</time>
|
|
</trkpt>
|
|
<trkpt lat="56.118989" lon="8.116988">
|
|
<ele>25.235966</ele>
|
|
<time>2026-07-12T15:03:10.000Z</time>
|
|
</trkpt>
|
|
<trkpt lat="56.118994" lon="8.117054">
|
|
<ele>25.224750</ele>
|
|
<time>2026-07-12T15:03:11.000Z</time>
|
|
</trkpt>
|
|
<trkpt lat="56.119005" lon="8.117139">
|
|
<ele>25.210057</ele>
|
|
<time>2026-07-12T15:03:12.000Z</time>
|
|
</trkpt>
|
|
<trkpt lat="56.119013" lon="8.117222">
|
|
<ele>25.195874</ele>
|
|
<time>2026-07-12T15:03:13.000Z</time>
|
|
</trkpt>
|
|
<trkpt lat="56.119021" lon="8.117299">
|
|
<ele>25.182685</ele>
|
|
<time>2026-07-12T15:03:14.000Z</time>
|
|
</trkpt>
|
|
<trkpt lat="56.119033" lon="8.117379">
|
|
<ele>25.168735</ele>
|
|
<time>2026-07-12T15:03:15.000Z</time>
|
|
</trkpt>
|
|
<trkpt lat="56.119045" lon="8.117460">
|
|
<ele>25.154623</ele>
|
|
<time>2026-07-12T15:03:16.000Z</time>
|
|
</trkpt>
|
|
<trkpt lat="56.119059" lon="8.117538">
|
|
<ele>25.140825</ele>
|
|
<time>2026-07-12T15:03:17.000Z</time>
|
|
</trkpt>
|
|
<trkpt lat="56.119070" lon="8.117620">
|
|
<ele>25.126623</ele>
|
|
<time>2026-07-12T15:03:18.000Z</time>
|
|
</trkpt>
|
|
<trkpt lat="56.119082" lon="8.117696">
|
|
<ele>25.113323</ele>
|
|
<time>2026-07-12T15:03:19.000Z</time>
|
|
</trkpt>
|
|
<trkpt lat="56.119097" lon="8.117771">
|
|
<ele>25.099906</ele>
|
|
<time>2026-07-12T15:03:20.000Z</time>
|
|
</trkpt>
|
|
<trkpt lat="56.119108" lon="8.117853">
|
|
<ele>25.085705</ele>
|
|
<time>2026-07-12T15:03:21.000Z</time>
|
|
</trkpt>
|
|
<trkpt lat="56.119116" lon="8.117932">
|
|
<ele>25.072185</ele>
|
|
<time>2026-07-12T15:03:22.000Z</time>
|
|
</trkpt>
|
|
<trkpt lat="56.119124" lon="8.118009">
|
|
<ele>25.058996</ele>
|
|
<time>2026-07-12T15:03:23.000Z</time>
|
|
</trkpt>
|
|
<trkpt lat="56.119131" lon="8.118082">
|
|
<ele>25.046523</ele>
|
|
<time>2026-07-12T15:03:24.000Z</time>
|
|
</trkpt>
|
|
<trkpt lat="56.119139" lon="8.118156">
|
|
<ele>25.033831</ele>
|
|
<time>2026-07-12T15:03:25.000Z</time>
|
|
</trkpt>
|
|
<trkpt lat="56.119145" lon="8.118225">
|
|
<ele>25.022072</ele>
|
|
<time>2026-07-12T15:03:26.000Z</time>
|
|
</trkpt>
|
|
<trkpt lat="56.119150" lon="8.118298">
|
|
<ele>25.009688</ele>
|
|
<time>2026-07-12T15:03:27.000Z</time>
|
|
</trkpt>
|
|
<trkpt lat="56.119157" lon="8.118360">
|
|
<ele>24.999036</ele>
|
|
<time>2026-07-12T15:03:28.000Z</time>
|
|
</trkpt>
|
|
<trkpt lat="56.119165" lon="8.118438">
|
|
<ele>24.985682</ele>
|
|
<time>2026-07-12T15:03:29.000Z</time>
|
|
</trkpt>
|
|
<trkpt lat="56.119173" lon="8.118503">
|
|
<ele>24.974473</ele>
|
|
<time>2026-07-12T15:03:30.000Z</time>
|
|
</trkpt>
|
|
<trkpt lat="56.119180" lon="8.118567">
|
|
<ele>24.963491</ele>
|
|
<time>2026-07-12T15:03:31.000Z</time>
|
|
</trkpt>
|
|
<trkpt lat="56.119188" lon="8.118627">
|
|
<ele>24.953103</ele>
|
|
<time>2026-07-12T15:03:32.000Z</time>
|
|
</trkpt>
|
|
<trkpt lat="56.119196" lon="8.118687">
|
|
<ele>24.942716</ele>
|
|
<time>2026-07-12T15:03:33.000Z</time>
|
|
</trkpt>
|
|
<trkpt lat="56.119202" lon="8.118738">
|
|
<ele>24.933939</ele>
|
|
<time>2026-07-12T15:03:34.000Z</time>
|
|
</trkpt>
|
|
<trkpt lat="56.119207" lon="8.118790">
|
|
<ele>24.925054</ele>
|
|
<time>2026-07-12T15:03:35.000Z</time>
|
|
</trkpt>
|
|
<trkpt lat="56.119211" lon="8.118839">
|
|
<ele>24.916715</ele>
|
|
<time>2026-07-12T15:03:36.000Z</time>
|
|
</trkpt>
|
|
<trkpt lat="56.119214" lon="8.118886">
|
|
<ele>24.908749</ele>
|
|
<time>2026-07-12T15:03:37.000Z</time>
|
|
</trkpt>
|
|
<trkpt lat="56.119218" lon="8.118931">
|
|
<ele>24.901076</ele>
|
|
<time>2026-07-12T15:03:38.000Z</time>
|
|
</trkpt>
|
|
<trkpt lat="56.119225" lon="8.118984">
|
|
<ele>24.891905</ele>
|
|
<time>2026-07-12T15:03:39.000Z</time>
|
|
</trkpt>
|
|
<trkpt lat="56.119228" lon="8.119036">
|
|
<ele>24.883102</ele>
|
|
<time>2026-07-12T15:03:40.000Z</time>
|
|
</trkpt>
|
|
<trkpt lat="56.119228" lon="8.119085">
|
|
<ele>24.874852</ele>
|
|
<time>2026-07-12T15:03:41.000Z</time>
|
|
</trkpt>
|
|
<trkpt lat="56.119228" lon="8.119138">
|
|
<ele>24.865927</ele>
|
|
<time>2026-07-12T15:03:42.000Z</time>
|
|
</trkpt>
|
|
<trkpt lat="56.119228" lon="8.119191">
|
|
<ele>24.857003</ele>
|
|
<time>2026-07-12T15:03:43.000Z</time>
|
|
</trkpt>
|
|
<trkpt lat="56.119229" lon="8.119245">
|
|
<ele>24.847905</ele>
|
|
<time>2026-07-12T15:03:44.000Z</time>
|
|
</trkpt>
|
|
<trkpt lat="56.119233" lon="8.119302">
|
|
<ele>24.838232</ele>
|
|
<time>2026-07-12T15:03:45.000Z</time>
|
|
</trkpt>
|
|
<trkpt lat="56.119237" lon="8.119354">
|
|
<ele>24.829393</ele>
|
|
<time>2026-07-12T15:03:46.000Z</time>
|
|
</trkpt>
|
|
<trkpt lat="56.119241" lon="8.119398">
|
|
<ele>24.821886</ele>
|
|
<time>2026-07-12T15:03:47.000Z</time>
|
|
</trkpt>
|
|
<trkpt lat="56.119243" lon="8.119427">
|
|
<ele>24.816966</ele>
|
|
<time>2026-07-12T15:03:48.000Z</time>
|
|
</trkpt>
|
|
<trkpt lat="56.119252" lon="8.119497">
|
|
<ele>24.804870</ele>
|
|
<time>2026-07-12T15:03:49.000Z</time>
|
|
</trkpt>
|
|
<trkpt lat="56.119255" lon="8.119537">
|
|
<ele>24.798074</ele>
|
|
<time>2026-07-12T15:03:50.000Z</time>
|
|
</trkpt>
|
|
<trkpt lat="56.119255" lon="8.119587">
|
|
<ele>24.789655</ele>
|
|
<time>2026-07-12T15:03:51.000Z</time>
|
|
</trkpt>
|
|
<trkpt lat="56.119256" lon="8.119637">
|
|
<ele>24.781230</ele>
|
|
<time>2026-07-12T15:03:52.000Z</time>
|
|
</trkpt>
|
|
<trkpt lat="56.119261" lon="8.119685">
|
|
<ele>24.773008</ele>
|
|
<time>2026-07-12T15:03:53.000Z</time>
|
|
</trkpt>
|
|
<trkpt lat="56.119269" lon="8.119731">
|
|
<ele>24.764894</ele>
|
|
<time>2026-07-12T15:03:54.000Z</time>
|
|
</trkpt>
|
|
<trkpt lat="56.119276" lon="8.119777">
|
|
<ele>24.756865</ele>
|
|
<time>2026-07-12T15:03:55.000Z</time>
|
|
</trkpt>
|
|
<trkpt lat="56.119283" lon="8.119831">
|
|
<ele>24.763773</ele>
|
|
<time>2026-07-12T15:03:56.000Z</time>
|
|
</trkpt>
|
|
<trkpt lat="56.119286" lon="8.119889">
|
|
<ele>24.775892</ele>
|
|
<time>2026-07-12T15:03:57.000Z</time>
|
|
</trkpt>
|
|
<trkpt lat="56.119290" lon="8.119937">
|
|
<ele>24.785990</ele>
|
|
<time>2026-07-12T15:03:58.000Z</time>
|
|
</trkpt>
|
|
<trkpt lat="56.119294" lon="8.120009">
|
|
<ele>24.801045</ele>
|
|
<time>2026-07-12T15:03:59.000Z</time>
|
|
</trkpt>
|
|
<trkpt lat="56.119298" lon="8.120071">
|
|
<ele>24.814032</ele>
|
|
<time>2026-07-12T15:04:00.000Z</time>
|
|
</trkpt>
|
|
<trkpt lat="56.119303" lon="8.120137">
|
|
<ele>24.827890</ele>
|
|
<time>2026-07-12T15:04:01.000Z</time>
|
|
</trkpt>
|
|
<trkpt lat="56.119310" lon="8.120197">
|
|
<ele>24.840644</ele>
|
|
<time>2026-07-12T15:04:02.000Z</time>
|
|
</trkpt>
|
|
<trkpt lat="56.119317" lon="8.120256">
|
|
<ele>24.853195</ele>
|
|
<time>2026-07-12T15:04:03.000Z</time>
|
|
</trkpt>
|
|
<trkpt lat="56.119321" lon="8.120313">
|
|
<ele>24.865149</ele>
|
|
<time>2026-07-12T15:04:04.000Z</time>
|
|
</trkpt>
|
|
<trkpt lat="56.119328" lon="8.120378">
|
|
<ele>24.878923</ele>
|
|
<time>2026-07-12T15:04:05.000Z</time>
|
|
</trkpt>
|
|
<trkpt lat="56.119327" lon="8.120438">
|
|
<ele>24.891412</ele>
|
|
<time>2026-07-12T15:04:06.000Z</time>
|
|
</trkpt>
|
|
<trkpt lat="56.119322" lon="8.120496">
|
|
<ele>24.903624</ele>
|
|
<time>2026-07-12T15:04:07.000Z</time>
|
|
</trkpt>
|
|
<trkpt lat="56.119313" lon="8.120558">
|
|
<ele>24.916954</ele>
|
|
<time>2026-07-12T15:04:08.000Z</time>
|
|
</trkpt>
|
|
<trkpt lat="56.119303" lon="8.120615">
|
|
<ele>24.929387</ele>
|
|
<time>2026-07-12T15:04:09.000Z</time>
|
|
</trkpt>
|
|
<trkpt lat="56.119296" lon="8.120670">
|
|
<ele>24.941125</ele>
|
|
<time>2026-07-12T15:04:10.000Z</time>
|
|
</trkpt>
|
|
<trkpt lat="56.119294" lon="8.120715">
|
|
<ele>24.950518</ele>
|
|
<time>2026-07-12T15:04:11.000Z</time>
|
|
</trkpt>
|
|
<trkpt lat="56.119297" lon="8.120750">
|
|
<ele>24.957886</ele>
|
|
<time>2026-07-12T15:04:12.000Z</time>
|
|
</trkpt>
|
|
<trkpt lat="56.119296" lon="8.120773">
|
|
<ele>24.962686</ele>
|
|
<time>2026-07-12T15:04:13.000Z</time>
|
|
</trkpt>
|
|
<trkpt lat="56.119305" lon="8.120822">
|
|
<ele>24.973420</ele>
|
|
<time>2026-07-12T15:04:24.000Z</time>
|
|
</trkpt>
|
|
<trkpt lat="56.119307" lon="8.120848">
|
|
<ele>24.978881</ele>
|
|
<time>2026-07-12T15:04:25.000Z</time>
|
|
</trkpt>
|
|
<trkpt lat="56.119314" lon="8.120891">
|
|
<ele>24.988201</ele>
|
|
<time>2026-07-12T15:04:26.000Z</time>
|
|
</trkpt>
|
|
<trkpt lat="56.119323" lon="8.120948">
|
|
<ele>25.000528</ele>
|
|
<time>2026-07-12T15:04:27.000Z</time>
|
|
</trkpt>
|
|
<trkpt lat="56.119329" lon="8.121000">
|
|
<ele>25.011576</ele>
|
|
<time>2026-07-12T15:04:28.000Z</time>
|
|
</trkpt>
|
|
<trkpt lat="56.119339" lon="8.121061">
|
|
<ele>25.024806</ele>
|
|
<time>2026-07-12T15:04:29.000Z</time>
|
|
</trkpt>
|
|
<trkpt lat="56.119355" lon="8.121115">
|
|
<ele>25.037530</ele>
|
|
<time>2026-07-12T15:04:30.000Z</time>
|
|
</trkpt>
|
|
<trkpt lat="56.119378" lon="8.121168">
|
|
<ele>25.051505</ele>
|
|
<time>2026-07-12T15:04:31.000Z</time>
|
|
</trkpt>
|
|
<trkpt lat="56.119401" lon="8.121220">
|
|
<ele>25.065316</ele>
|
|
<time>2026-07-12T15:04:32.000Z</time>
|
|
</trkpt>
|
|
<trkpt lat="56.119423" lon="8.121270">
|
|
<ele>25.078569</ele>
|
|
<time>2026-07-12T15:04:33.000Z</time>
|
|
</trkpt>
|
|
<trkpt lat="56.119445" lon="8.121324">
|
|
<ele>25.092485</ele>
|
|
<time>2026-07-12T15:04:34.000Z</time>
|
|
</trkpt>
|
|
<trkpt lat="56.119463" lon="8.121383">
|
|
<ele>25.106479</ele>
|
|
<time>2026-07-12T15:04:35.000Z</time>
|
|
</trkpt>
|
|
<trkpt lat="56.119474" lon="8.121445">
|
|
<ele>25.120017</ele>
|
|
<time>2026-07-12T15:04:36.000Z</time>
|
|
</trkpt>
|
|
<trkpt lat="56.119481" lon="8.121510">
|
|
<ele>25.133791</ele>
|
|
<time>2026-07-12T15:04:37.000Z</time>
|
|
</trkpt>
|
|
<trkpt lat="56.119490" lon="8.121585">
|
|
<ele>25.149753</ele>
|
|
<time>2026-07-12T15:04:38.000Z</time>
|
|
</trkpt>
|
|
<trkpt lat="56.119497" lon="8.121651">
|
|
<ele>25.163732</ele>
|
|
<time>2026-07-12T15:04:39.000Z</time>
|
|
</trkpt>
|
|
<trkpt lat="56.119505" lon="8.121718">
|
|
<ele>25.177989</ele>
|
|
<time>2026-07-12T15:04:40.000Z</time>
|
|
</trkpt>
|
|
<trkpt lat="56.119512" lon="8.121783">
|
|
<ele>25.191763</ele>
|
|
<time>2026-07-12T15:04:41.000Z</time>
|
|
</trkpt>
|
|
<trkpt lat="56.119519" lon="8.121849">
|
|
<ele>25.205741</ele>
|
|
<time>2026-07-12T15:04:42.000Z</time>
|
|
</trkpt>
|
|
<trkpt lat="56.119523" lon="8.121911">
|
|
<ele>25.218727</ele>
|
|
<time>2026-07-12T15:04:43.000Z</time>
|
|
</trkpt>
|
|
<trkpt lat="56.119526" lon="8.121986">
|
|
<ele>25.234372</ele>
|
|
<time>2026-07-12T15:04:44.000Z</time>
|
|
</trkpt>
|
|
<trkpt lat="56.119526" lon="8.122052">
|
|
<ele>25.248105</ele>
|
|
<time>2026-07-12T15:04:45.000Z</time>
|
|
</trkpt>
|
|
<trkpt lat="56.119526" lon="8.122119">
|
|
<ele>25.262045</ele>
|
|
<time>2026-07-12T15:04:46.000Z</time>
|
|
</trkpt>
|
|
<trkpt lat="56.119526" lon="8.122181">
|
|
<ele>25.274945</ele>
|
|
<time>2026-07-12T15:04:47.000Z</time>
|
|
</trkpt>
|
|
<trkpt lat="56.119520" lon="8.122260">
|
|
<ele>25.291534</ele>
|
|
<time>2026-07-12T15:04:48.000Z</time>
|
|
</trkpt>
|
|
<trkpt lat="56.119513" lon="8.122326">
|
|
<ele>25.305512</ele>
|
|
<time>2026-07-12T15:04:49.000Z</time>
|
|
</trkpt>
|
|
<trkpt lat="56.119505" lon="8.122390">
|
|
<ele>25.319159</ele>
|
|
<time>2026-07-12T15:04:50.000Z</time>
|
|
</trkpt>
|
|
<trkpt lat="56.119498" lon="8.122449">
|
|
<ele>25.331710</ele>
|
|
<time>2026-07-12T15:04:51.000Z</time>
|
|
</trkpt>
|
|
<trkpt lat="56.119491" lon="8.122508">
|
|
<ele>25.344261</ele>
|
|
<time>2026-07-12T15:04:52.000Z</time>
|
|
</trkpt>
|
|
<trkpt lat="56.119487" lon="8.122555">
|
|
<ele>25.354153</ele>
|
|
<time>2026-07-12T15:04:53.000Z</time>
|
|
</trkpt>
|
|
<trkpt lat="56.119478" lon="8.122613">
|
|
<ele>25.366680</ele>
|
|
<time>2026-07-12T15:04:54.000Z</time>
|
|
</trkpt>
|
|
<trkpt lat="56.119472" lon="8.122660">
|
|
<ele>25.376712</ele>
|
|
<time>2026-07-12T15:04:55.000Z</time>
|
|
</trkpt>
|
|
<trkpt lat="56.119468" lon="8.122712">
|
|
<ele>25.387634</ele>
|
|
<time>2026-07-12T15:04:56.000Z</time>
|
|
</trkpt>
|
|
<trkpt lat="56.119465" lon="8.122762">
|
|
<ele>25.398097</ele>
|
|
<time>2026-07-12T15:04:57.000Z</time>
|
|
</trkpt>
|
|
<trkpt lat="56.119464" lon="8.122807">
|
|
<ele>25.407467</ele>
|
|
<time>2026-07-12T15:04:58.000Z</time>
|
|
</trkpt>
|
|
<trkpt lat="56.119460" lon="8.122869">
|
|
<ele>25.420453</ele>
|
|
<time>2026-07-12T15:04:59.000Z</time>
|
|
</trkpt>
|
|
<trkpt lat="56.119456" lon="8.122924">
|
|
<ele>25.426186</ele>
|
|
<time>2026-07-12T15:05:00.000Z</time>
|
|
</trkpt>
|
|
<trkpt lat="56.119453" lon="8.122977">
|
|
<ele>25.426327</ele>
|
|
<time>2026-07-12T15:05:01.000Z</time>
|
|
</trkpt>
|
|
<trkpt lat="56.119446" lon="8.123026">
|
|
<ele>25.426461</ele>
|
|
<time>2026-07-12T15:05:02.000Z</time>
|
|
</trkpt>
|
|
<trkpt lat="56.119429" lon="8.123063">
|
|
<ele>25.426588</ele>
|
|
<time>2026-07-12T15:05:03.000Z</time>
|
|
</trkpt>
|
|
<trkpt lat="56.119412" lon="8.123090">
|
|
<ele>25.426696</ele>
|
|
<time>2026-07-12T15:05:04.000Z</time>
|
|
</trkpt>
|
|
<trkpt lat="56.119405" lon="8.123108">
|
|
<ele>25.426754</ele>
|
|
<time>2026-07-12T15:05:05.000Z</time>
|
|
</trkpt>
|
|
<trkpt lat="56.119404" lon="8.123160">
|
|
<ele>25.426891</ele>
|
|
<time>2026-07-12T15:05:06.000Z</time>
|
|
</trkpt>
|
|
<trkpt lat="56.119405" lon="8.123201">
|
|
<ele>25.427000</ele>
|
|
<time>2026-07-12T15:05:07.000Z</time>
|
|
</trkpt>
|
|
<trkpt lat="56.119408" lon="8.123247">
|
|
<ele>25.427122</ele>
|
|
<time>2026-07-12T15:05:08.000Z</time>
|
|
</trkpt>
|
|
<trkpt lat="56.119409" lon="8.123290">
|
|
<ele>25.427236</ele>
|
|
<time>2026-07-12T15:05:09.000Z</time>
|
|
</trkpt>
|
|
<trkpt lat="56.119414" lon="8.123341">
|
|
<ele>25.427373</ele>
|
|
<time>2026-07-12T15:05:10.000Z</time>
|
|
</trkpt>
|
|
<trkpt lat="56.119422" lon="8.123384">
|
|
<ele>25.427493</ele>
|
|
<time>2026-07-12T15:05:11.000Z</time>
|
|
</trkpt>
|
|
<trkpt lat="56.119436" lon="8.123424">
|
|
<ele>25.427618</ele>
|
|
<time>2026-07-12T15:05:12.000Z</time>
|
|
</trkpt>
|
|
<trkpt lat="56.119460" lon="8.123467">
|
|
<ele>25.427779</ele>
|
|
<time>2026-07-12T15:05:13.000Z</time>
|
|
</trkpt>
|
|
<trkpt lat="56.119485" lon="8.123511">
|
|
<ele>25.427945</ele>
|
|
<time>2026-07-12T15:05:14.000Z</time>
|
|
</trkpt>
|
|
<trkpt lat="56.119508" lon="8.123558">
|
|
<ele>25.428111</ele>
|
|
<time>2026-07-12T15:05:15.000Z</time>
|
|
</trkpt>
|
|
<trkpt lat="56.119529" lon="8.123617">
|
|
<ele>25.428296</ele>
|
|
<time>2026-07-12T15:05:16.000Z</time>
|
|
</trkpt>
|
|
<trkpt lat="56.119550" lon="8.123676">
|
|
<ele>25.428481</ele>
|
|
<time>2026-07-12T15:05:17.000Z</time>
|
|
</trkpt>
|
|
<trkpt lat="56.119573" lon="8.123739">
|
|
<ele>25.428680</ele>
|
|
<time>2026-07-12T15:05:18.000Z</time>
|
|
</trkpt>
|
|
<trkpt lat="56.119596" lon="8.123805">
|
|
<ele>25.428886</ele>
|
|
<time>2026-07-12T15:05:19.000Z</time>
|
|
</trkpt>
|
|
<trkpt lat="56.119620" lon="8.123872">
|
|
<ele>25.429097</ele>
|
|
<time>2026-07-12T15:05:20.000Z</time>
|
|
</trkpt>
|
|
<trkpt lat="56.119646" lon="8.123938">
|
|
<ele>25.429310</ele>
|
|
<time>2026-07-12T15:05:21.000Z</time>
|
|
</trkpt>
|
|
<trkpt lat="56.119670" lon="8.124002">
|
|
<ele>25.429514</ele>
|
|
<time>2026-07-12T15:05:22.000Z</time>
|
|
</trkpt>
|
|
<trkpt lat="56.119695" lon="8.124068">
|
|
<ele>25.429726</ele>
|
|
<time>2026-07-12T15:05:23.000Z</time>
|
|
</trkpt>
|
|
<trkpt lat="56.119717" lon="8.124135">
|
|
<ele>25.429931</ele>
|
|
<time>2026-07-12T15:05:24.000Z</time>
|
|
</trkpt>
|
|
<trkpt lat="56.119737" lon="8.124202">
|
|
<ele>25.430132</ele>
|
|
<time>2026-07-12T15:05:25.000Z</time>
|
|
</trkpt>
|
|
<trkpt lat="56.119751" lon="8.124276">
|
|
<ele>25.430339</ele>
|
|
<time>2026-07-12T15:05:26.000Z</time>
|
|
</trkpt>
|
|
<trkpt lat="56.119762" lon="8.124349">
|
|
<ele>25.430539</ele>
|
|
<time>2026-07-12T15:05:27.000Z</time>
|
|
</trkpt>
|
|
<trkpt lat="56.119774" lon="8.124429">
|
|
<ele>25.430758</ele>
|
|
<time>2026-07-12T15:05:28.000Z</time>
|
|
</trkpt>
|
|
<trkpt lat="56.119786" lon="8.124508">
|
|
<ele>25.430975</ele>
|
|
<time>2026-07-12T15:05:29.000Z</time>
|
|
</trkpt>
|
|
<trkpt lat="56.119797" lon="8.124593">
|
|
<ele>25.431205</ele>
|
|
<time>2026-07-12T15:05:30.000Z</time>
|
|
</trkpt>
|
|
<trkpt lat="56.119806" lon="8.124679">
|
|
<ele>25.431437</ele>
|
|
<time>2026-07-12T15:05:31.000Z</time>
|
|
</trkpt>
|
|
<trkpt lat="56.119811" lon="8.124765">
|
|
<ele>25.431666</ele>
|
|
<time>2026-07-12T15:05:32.000Z</time>
|
|
</trkpt>
|
|
<trkpt lat="56.119818" lon="8.124852">
|
|
<ele>25.431898</ele>
|
|
<time>2026-07-12T15:05:33.000Z</time>
|
|
</trkpt>
|
|
<trkpt lat="56.119828" lon="8.124947">
|
|
<ele>25.432154</ele>
|
|
<time>2026-07-12T15:05:34.000Z</time>
|
|
</trkpt>
|
|
<trkpt lat="56.119838" lon="8.125036">
|
|
<ele>25.432394</ele>
|
|
<time>2026-07-12T15:05:35.000Z</time>
|
|
</trkpt>
|
|
<trkpt lat="56.119846" lon="8.125126">
|
|
<ele>25.432635</ele>
|
|
<time>2026-07-12T15:05:36.000Z</time>
|
|
</trkpt>
|
|
<trkpt lat="56.119858" lon="8.125225">
|
|
<ele>25.432903</ele>
|
|
<time>2026-07-12T15:05:37.000Z</time>
|
|
</trkpt>
|
|
<trkpt lat="56.119870" lon="8.125320">
|
|
<ele>25.433161</ele>
|
|
<time>2026-07-12T15:05:38.000Z</time>
|
|
</trkpt>
|
|
<trkpt lat="56.119880" lon="8.125415">
|
|
<ele>25.433416</ele>
|
|
<time>2026-07-12T15:05:39.000Z</time>
|
|
</trkpt>
|
|
<trkpt lat="56.119887" lon="8.125507">
|
|
<ele>25.433662</ele>
|
|
<time>2026-07-12T15:05:40.000Z</time>
|
|
</trkpt>
|
|
<trkpt lat="56.119896" lon="8.125601">
|
|
<ele>25.433914</ele>
|
|
<time>2026-07-12T15:05:41.000Z</time>
|
|
</trkpt>
|
|
<trkpt lat="56.119908" lon="8.125696">
|
|
<ele>25.434172</ele>
|
|
<time>2026-07-12T15:05:42.000Z</time>
|
|
</trkpt>
|
|
<trkpt lat="56.119918" lon="8.125788">
|
|
<ele>25.434420</ele>
|
|
<time>2026-07-12T15:05:43.000Z</time>
|
|
</trkpt>
|
|
<trkpt lat="56.119927" lon="8.125881">
|
|
<ele>25.434538</ele>
|
|
<time>2026-07-12T15:05:44.000Z</time>
|
|
</trkpt>
|
|
<trkpt lat="56.119937" lon="8.125973">
|
|
<ele>25.433400</ele>
|
|
<time>2026-07-12T15:05:45.000Z</time>
|
|
</trkpt>
|
|
<trkpt lat="56.119945" lon="8.126066">
|
|
<ele>25.432257</ele>
|
|
<time>2026-07-12T15:05:46.000Z</time>
|
|
</trkpt>
|
|
<trkpt lat="56.119952" lon="8.126159">
|
|
<ele>25.431118</ele>
|
|
<time>2026-07-12T15:05:47.000Z</time>
|
|
</trkpt>
|
|
<trkpt lat="56.119961" lon="8.126253">
|
|
<ele>25.429960</ele>
|
|
<time>2026-07-12T15:05:48.000Z</time>
|
|
</trkpt>
|
|
<trkpt lat="56.119973" lon="8.126348">
|
|
<ele>25.428778</ele>
|
|
<time>2026-07-12T15:05:49.000Z</time>
|
|
</trkpt>
|
|
<trkpt lat="56.119983" lon="8.126441">
|
|
<ele>25.427628</ele>
|
|
<time>2026-07-12T15:05:50.000Z</time>
|
|
</trkpt>
|
|
<trkpt lat="56.119992" lon="8.126536">
|
|
<ele>25.426458</ele>
|
|
<time>2026-07-12T15:05:51.000Z</time>
|
|
</trkpt>
|
|
<trkpt lat="56.120003" lon="8.126632">
|
|
<ele>25.425268</ele>
|
|
<time>2026-07-12T15:05:52.000Z</time>
|
|
</trkpt>
|
|
<trkpt lat="56.120013" lon="8.126727">
|
|
<ele>25.424094</ele>
|
|
<time>2026-07-12T15:05:53.000Z</time>
|
|
</trkpt>
|
|
<trkpt lat="56.120022" lon="8.126822">
|
|
<ele>25.422925</ele>
|
|
<time>2026-07-12T15:05:54.000Z</time>
|
|
</trkpt>
|
|
<trkpt lat="56.120032" lon="8.126914">
|
|
<ele>25.421787</ele>
|
|
<time>2026-07-12T15:05:55.000Z</time>
|
|
</trkpt>
|
|
<trkpt lat="56.120042" lon="8.127007">
|
|
<ele>25.420637</ele>
|
|
<time>2026-07-12T15:05:56.000Z</time>
|
|
</trkpt>
|
|
<trkpt lat="56.120053" lon="8.127098">
|
|
<ele>25.419506</ele>
|
|
<time>2026-07-12T15:05:57.000Z</time>
|
|
</trkpt>
|
|
<trkpt lat="56.120063" lon="8.127191">
|
|
<ele>25.418357</ele>
|
|
<time>2026-07-12T15:05:58.000Z</time>
|
|
</trkpt>
|
|
<trkpt lat="56.120071" lon="8.127288">
|
|
<ele>25.417166</ele>
|
|
<time>2026-07-12T15:05:59.000Z</time>
|
|
</trkpt>
|
|
<trkpt lat="56.120080" lon="8.127385">
|
|
<ele>25.415972</ele>
|
|
<time>2026-07-12T15:06:00.000Z</time>
|
|
</trkpt>
|
|
<trkpt lat="56.120090" lon="8.127482">
|
|
<ele>25.414775</ele>
|
|
<time>2026-07-12T15:06:01.000Z</time>
|
|
</trkpt>
|
|
<trkpt lat="56.120099" lon="8.127580">
|
|
<ele>25.413569</ele>
|
|
<time>2026-07-12T15:06:02.000Z</time>
|
|
</trkpt>
|
|
<trkpt lat="56.120110" lon="8.127674">
|
|
<ele>25.412403</ele>
|
|
<time>2026-07-12T15:06:03.000Z</time>
|
|
</trkpt>
|
|
<trkpt lat="56.120120" lon="8.127766">
|
|
<ele>25.411265</ele>
|
|
<time>2026-07-12T15:06:04.000Z</time>
|
|
</trkpt>
|
|
<trkpt lat="56.120129" lon="8.127862">
|
|
<ele>25.410083</ele>
|
|
<time>2026-07-12T15:06:05.000Z</time>
|
|
</trkpt>
|
|
<trkpt lat="56.120141" lon="8.127956">
|
|
<ele>25.408912</ele>
|
|
<time>2026-07-12T15:06:06.000Z</time>
|
|
</trkpt>
|
|
<trkpt lat="56.120151" lon="8.128049">
|
|
<ele>25.407763</ele>
|
|
<time>2026-07-12T15:06:07.000Z</time>
|
|
</trkpt>
|
|
<trkpt lat="56.120159" lon="8.128142">
|
|
<ele>25.406620</ele>
|
|
<time>2026-07-12T15:06:08.000Z</time>
|
|
</trkpt>
|
|
<trkpt lat="56.120171" lon="8.128238">
|
|
<ele>25.405426</ele>
|
|
<time>2026-07-12T15:06:09.000Z</time>
|
|
</trkpt>
|
|
<trkpt lat="56.120181" lon="8.128336">
|
|
<ele>25.404216</ele>
|
|
<time>2026-07-12T15:06:10.000Z</time>
|
|
</trkpt>
|
|
<trkpt lat="56.120189" lon="8.128432">
|
|
<ele>25.403038</ele>
|
|
<time>2026-07-12T15:06:11.000Z</time>
|
|
</trkpt>
|
|
<trkpt lat="56.120198" lon="8.128531">
|
|
<ele>25.401820</ele>
|
|
<time>2026-07-12T15:06:12.000Z</time>
|
|
</trkpt>
|
|
<trkpt lat="56.120208" lon="8.128628">
|
|
<ele>25.400622</ele>
|
|
<time>2026-07-12T15:06:13.000Z</time>
|
|
</trkpt>
|
|
<trkpt lat="56.120216" lon="8.128726">
|
|
<ele>25.399420</ele>
|
|
<time>2026-07-12T15:06:14.000Z</time>
|
|
</trkpt>
|
|
<trkpt lat="56.120225" lon="8.128823">
|
|
<ele>25.398226</ele>
|
|
<time>2026-07-12T15:06:15.000Z</time>
|
|
</trkpt>
|
|
<trkpt lat="56.120236" lon="8.128920">
|
|
<ele>25.397025</ele>
|
|
<time>2026-07-12T15:06:16.000Z</time>
|
|
</trkpt>
|
|
<trkpt lat="56.120246" lon="8.129017">
|
|
<ele>25.395827</ele>
|
|
<time>2026-07-12T15:06:17.000Z</time>
|
|
</trkpt>
|
|
<trkpt lat="56.120255" lon="8.129111">
|
|
<ele>25.397327</ele>
|
|
<time>2026-07-12T15:06:18.000Z</time>
|
|
</trkpt>
|
|
<trkpt lat="56.120265" lon="8.129207">
|
|
<ele>25.400051</ele>
|
|
<time>2026-07-12T15:06:19.000Z</time>
|
|
</trkpt>
|
|
<trkpt lat="56.120275" lon="8.129305">
|
|
<ele>25.402830</ele>
|
|
<time>2026-07-12T15:06:20.000Z</time>
|
|
</trkpt>
|
|
<trkpt lat="56.120289" lon="8.129397">
|
|
<ele>25.405489</ele>
|
|
<time>2026-07-12T15:06:21.000Z</time>
|
|
</trkpt>
|
|
<trkpt lat="56.120300" lon="8.129494">
|
|
<ele>25.408250</ele>
|
|
<time>2026-07-12T15:06:22.000Z</time>
|
|
</trkpt>
|
|
<trkpt lat="56.120311" lon="8.129600">
|
|
<ele>25.411257</ele>
|
|
<time>2026-07-12T15:06:23.000Z</time>
|
|
</trkpt>
|
|
<trkpt lat="56.120320" lon="8.129698">
|
|
<ele>25.414028</ele>
|
|
<time>2026-07-12T15:06:24.000Z</time>
|
|
</trkpt>
|
|
<trkpt lat="56.120331" lon="8.129799">
|
|
<ele>25.416898</ele>
|
|
<time>2026-07-12T15:06:25.000Z</time>
|
|
</trkpt>
|
|
<trkpt lat="56.120343" lon="8.129896">
|
|
<ele>25.419669</ele>
|
|
<time>2026-07-12T15:06:26.000Z</time>
|
|
</trkpt>
|
|
<trkpt lat="56.120353" lon="8.129982">
|
|
<ele>25.422119</ele>
|
|
<time>2026-07-12T15:06:27.000Z</time>
|
|
</trkpt>
|
|
<trkpt lat="56.120362" lon="8.130062">
|
|
<ele>25.424396</ele>
|
|
<time>2026-07-12T15:06:28.000Z</time>
|
|
</trkpt>
|
|
<trkpt lat="56.120372" lon="8.130192">
|
|
<ele>25.428056</ele>
|
|
<time>2026-07-12T15:06:29.000Z</time>
|
|
</trkpt>
|
|
<trkpt lat="56.120378" lon="8.130290">
|
|
<ele>25.430805</ele>
|
|
<time>2026-07-12T15:06:30.000Z</time>
|
|
</trkpt>
|
|
<trkpt lat="56.120383" lon="8.130384">
|
|
<ele>25.433439</ele>
|
|
<time>2026-07-12T15:06:31.000Z</time>
|
|
</trkpt>
|
|
<trkpt lat="56.120389" lon="8.130481">
|
|
<ele>25.436161</ele>
|
|
<time>2026-07-12T15:06:32.000Z</time>
|
|
</trkpt>
|
|
<trkpt lat="56.120393" lon="8.130579">
|
|
<ele>25.438902</ele>
|
|
<time>2026-07-12T15:06:33.000Z</time>
|
|
</trkpt>
|
|
<trkpt lat="56.120399" lon="8.130676">
|
|
<ele>25.441624</ele>
|
|
<time>2026-07-12T15:06:34.000Z</time>
|
|
</trkpt>
|
|
<trkpt lat="56.120408" lon="8.130769">
|
|
<ele>25.444256</ele>
|
|
<time>2026-07-12T15:06:35.000Z</time>
|
|
</trkpt>
|
|
<trkpt lat="56.120418" lon="8.130859">
|
|
<ele>25.446816</ele>
|
|
<time>2026-07-12T15:06:36.000Z</time>
|
|
</trkpt>
|
|
<trkpt lat="56.120425" lon="8.130950">
|
|
<ele>25.449378</ele>
|
|
<time>2026-07-12T15:06:37.000Z</time>
|
|
</trkpt>
|
|
<trkpt lat="56.120435" lon="8.131041">
|
|
<ele>25.451965</ele>
|
|
<time>2026-07-12T15:06:38.000Z</time>
|
|
</trkpt>
|
|
<trkpt lat="56.120444" lon="8.131129">
|
|
<ele>25.454460</ele>
|
|
<time>2026-07-12T15:06:39.000Z</time>
|
|
</trkpt>
|
|
<trkpt lat="56.120453" lon="8.131215">
|
|
<ele>25.456901</ele>
|
|
<time>2026-07-12T15:06:40.000Z</time>
|
|
</trkpt>
|
|
<trkpt lat="56.120463" lon="8.131302">
|
|
<ele>25.459378</ele>
|
|
<time>2026-07-12T15:06:41.000Z</time>
|
|
</trkpt>
|
|
<trkpt lat="56.120473" lon="8.131387">
|
|
<ele>25.461801</ele>
|
|
<time>2026-07-12T15:06:42.000Z</time>
|
|
</trkpt>
|
|
<trkpt lat="56.120483" lon="8.131471">
|
|
<ele>25.464197</ele>
|
|
<time>2026-07-12T15:06:43.000Z</time>
|
|
</trkpt>
|
|
<trkpt lat="56.120490" lon="8.131549">
|
|
<ele>25.466400</ele>
|
|
<time>2026-07-12T15:06:44.000Z</time>
|
|
</trkpt>
|
|
<trkpt lat="56.120498" lon="8.131624">
|
|
<ele>25.468530</ele>
|
|
<time>2026-07-12T15:06:45.000Z</time>
|
|
</trkpt>
|
|
<trkpt lat="56.120507" lon="8.131696">
|
|
<ele>25.470588</ele>
|
|
<time>2026-07-12T15:06:46.000Z</time>
|
|
</trkpt>
|
|
<trkpt lat="56.120517" lon="8.131758">
|
|
<ele>25.472388</ele>
|
|
<time>2026-07-12T15:06:47.000Z</time>
|
|
</trkpt>
|
|
<trkpt lat="56.120524" lon="8.131810">
|
|
<ele>25.473880</ele>
|
|
<time>2026-07-12T15:06:48.000Z</time>
|
|
</trkpt>
|
|
<trkpt lat="56.120530" lon="8.131858">
|
|
<ele>25.475252</ele>
|
|
<time>2026-07-12T15:06:49.000Z</time>
|
|
</trkpt>
|
|
<trkpt lat="56.120535" lon="8.131904">
|
|
<ele>25.476560</ele>
|
|
<time>2026-07-12T15:06:50.000Z</time>
|
|
</trkpt>
|
|
<trkpt lat="56.120542" lon="8.131941">
|
|
<ele>25.477649</ele>
|
|
<time>2026-07-12T15:06:51.000Z</time>
|
|
</trkpt>
|
|
<trkpt lat="56.120550" lon="8.131983">
|
|
<ele>25.478887</ele>
|
|
<time>2026-07-12T15:06:52.000Z</time>
|
|
</trkpt>
|
|
<trkpt lat="56.120553" lon="8.132019">
|
|
<ele>25.479902</ele>
|
|
<time>2026-07-12T15:06:53.000Z</time>
|
|
</trkpt>
|
|
<trkpt lat="56.120557" lon="8.132063">
|
|
<ele>25.481146</ele>
|
|
<time>2026-07-12T15:06:54.000Z</time>
|
|
</trkpt>
|
|
<trkpt lat="56.120560" lon="8.132102">
|
|
<ele>25.482244</ele>
|
|
<time>2026-07-12T15:06:55.000Z</time>
|
|
</trkpt>
|
|
<trkpt lat="56.120560" lon="8.132134">
|
|
<ele>25.483136</ele>
|
|
<time>2026-07-12T15:06:56.000Z</time>
|
|
</trkpt>
|
|
<trkpt lat="56.120563" lon="8.132199">
|
|
<ele>25.484956</ele>
|
|
<time>2026-07-12T15:06:57.000Z</time>
|
|
</trkpt>
|
|
<trkpt lat="56.120564" lon="8.132252">
|
|
<ele>25.491972</ele>
|
|
<time>2026-07-12T15:06:58.000Z</time>
|
|
</trkpt>
|
|
<trkpt lat="56.120568" lon="8.132305">
|
|
<ele>25.501997</ele>
|
|
<time>2026-07-12T15:06:59.000Z</time>
|
|
</trkpt>
|
|
<trkpt lat="56.120572" lon="8.132351">
|
|
<ele>25.510724</ele>
|
|
<time>2026-07-12T15:07:00.000Z</time>
|
|
</trkpt>
|
|
<trkpt lat="56.120576" lon="8.132402">
|
|
<ele>25.520377</ele>
|
|
<time>2026-07-12T15:07:01.000Z</time>
|
|
</trkpt>
|
|
<trkpt lat="56.120580" lon="8.132449">
|
|
<ele>25.529289</ele>
|
|
<time>2026-07-12T15:07:02.000Z</time>
|
|
</trkpt>
|
|
<trkpt lat="56.120585" lon="8.132485">
|
|
<ele>25.536243</ele>
|
|
<time>2026-07-12T15:07:03.000Z</time>
|
|
</trkpt>
|
|
<trkpt lat="56.120590" lon="8.132512">
|
|
<ele>25.541576</ele>
|
|
<time>2026-07-12T15:07:04.000Z</time>
|
|
</trkpt>
|
|
<trkpt lat="56.120590" lon="8.132553">
|
|
<ele>25.549261</ele>
|
|
<time>2026-07-12T15:07:05.000Z</time>
|
|
</trkpt>
|
|
<trkpt lat="56.120589" lon="8.132568">
|
|
<ele>25.552093</ele>
|
|
<time>2026-07-12T15:07:06.000Z</time>
|
|
</trkpt>
|
|
<trkpt lat="56.120596" lon="8.132503">
|
|
<ele>25.564502</ele>
|
|
<time>2026-07-12T15:07:19.000Z</time>
|
|
</trkpt>
|
|
<trkpt lat="56.120593" lon="8.132477">
|
|
<ele>25.569478</ele>
|
|
<time>2026-07-12T15:07:20.000Z</time>
|
|
</trkpt>
|
|
<trkpt lat="56.120587" lon="8.132439">
|
|
<ele>25.576881</ele>
|
|
<time>2026-07-12T15:07:21.000Z</time>
|
|
</trkpt>
|
|
<trkpt lat="56.120578" lon="8.132393">
|
|
<ele>25.586019</ele>
|
|
<time>2026-07-12T15:07:22.000Z</time>
|
|
</trkpt>
|
|
<trkpt lat="56.120574" lon="8.132352">
|
|
<ele>25.593821</ele>
|
|
<time>2026-07-12T15:07:23.000Z</time>
|
|
</trkpt>
|
|
<trkpt lat="56.120566" lon="8.132290">
|
|
<ele>25.605750</ele>
|
|
<time>2026-07-12T15:07:24.000Z</time>
|
|
</trkpt>
|
|
<trkpt lat="56.120562" lon="8.132243">
|
|
<ele>25.614661</ele>
|
|
<time>2026-07-12T15:07:25.000Z</time>
|
|
</trkpt>
|
|
<trkpt lat="56.120558" lon="8.132197">
|
|
<ele>25.623388</ele>
|
|
<time>2026-07-12T15:07:26.000Z</time>
|
|
</trkpt>
|
|
<trkpt lat="56.120556" lon="8.132154">
|
|
<ele>25.631476</ele>
|
|
<time>2026-07-12T15:07:27.000Z</time>
|
|
</trkpt>
|
|
<trkpt lat="56.120559" lon="8.132123">
|
|
<ele>25.637373</ele>
|
|
<time>2026-07-12T15:07:28.000Z</time>
|
|
</trkpt>
|
|
<trkpt lat="56.120563" lon="8.132106">
|
|
<ele>25.640832</ele>
|
|
<time>2026-07-12T15:07:29.000Z</time>
|
|
</trkpt>
|
|
<trkpt lat="56.120563" lon="8.132103">
|
|
<ele>25.641394</ele>
|
|
<time>2026-07-12T15:07:30.000Z</time>
|
|
</trkpt>
|
|
<trkpt lat="56.120563" lon="8.132102">
|
|
<ele>25.641582</ele>
|
|
<time>2026-07-12T15:07:31.000Z</time>
|
|
</trkpt>
|
|
<trkpt lat="56.120563" lon="8.132102">
|
|
<ele>25.641582</ele>
|
|
<time>2026-07-12T15:07:32.000Z</time>
|
|
</trkpt>
|
|
<trkpt lat="56.120571" lon="8.132097">
|
|
<ele>25.644430</ele>
|
|
<time>2026-07-12T15:07:34.000Z</time>
|
|
</trkpt>
|
|
<trkpt lat="56.120588" lon="8.132085">
|
|
<ele>25.650573</ele>
|
|
<time>2026-07-12T15:07:35.000Z</time>
|
|
</trkpt>
|
|
<trkpt lat="56.120604" lon="8.132076">
|
|
<ele>25.656211</ele>
|
|
<time>2026-07-12T15:07:36.000Z</time>
|
|
</trkpt>
|
|
<trkpt lat="56.120622" lon="8.132063">
|
|
<ele>25.662736</ele>
|
|
<time>2026-07-12T15:07:37.000Z</time>
|
|
</trkpt>
|
|
<trkpt lat="56.120645" lon="8.132051">
|
|
<ele>25.670790</ele>
|
|
<time>2026-07-12T15:07:38.000Z</time>
|
|
</trkpt>
|
|
<trkpt lat="56.120669" lon="8.132039">
|
|
<ele>25.679168</ele>
|
|
<time>2026-07-12T15:07:39.000Z</time>
|
|
</trkpt>
|
|
<trkpt lat="56.120693" lon="8.132024">
|
|
<ele>25.687713</ele>
|
|
<time>2026-07-12T15:07:40.000Z</time>
|
|
</trkpt>
|
|
<trkpt lat="56.120714" lon="8.131998">
|
|
<ele>25.696293</ele>
|
|
<time>2026-07-12T15:07:41.000Z</time>
|
|
</trkpt>
|
|
<trkpt lat="56.120735" lon="8.131954">
|
|
<ele>25.707150</ele>
|
|
<time>2026-07-12T15:07:42.000Z</time>
|
|
</trkpt>
|
|
<trkpt lat="56.120746" lon="8.131915">
|
|
<ele>25.715343</ele>
|
|
<time>2026-07-12T15:07:43.000Z</time>
|
|
</trkpt>
|
|
<trkpt lat="56.120766" lon="8.131872">
|
|
<ele>25.725840</ele>
|
|
<time>2026-07-12T15:07:44.000Z</time>
|
|
</trkpt>
|
|
<trkpt lat="56.120791" lon="8.131845">
|
|
<ele>25.735652</ele>
|
|
<time>2026-07-12T15:07:45.000Z</time>
|
|
</trkpt>
|
|
<trkpt lat="56.120822" lon="8.131828">
|
|
<ele>25.746552</ele>
|
|
<time>2026-07-12T15:07:46.000Z</time>
|
|
</trkpt>
|
|
<trkpt lat="56.120852" lon="8.131816">
|
|
<ele>25.756887</ele>
|
|
<time>2026-07-12T15:07:47.000Z</time>
|
|
</trkpt>
|
|
<trkpt lat="56.120895" lon="8.131809">
|
|
<ele>25.771405</ele>
|
|
<time>2026-07-12T15:07:48.000Z</time>
|
|
</trkpt>
|
|
<trkpt lat="56.120932" lon="8.131808">
|
|
<ele>25.783848</ele>
|
|
<time>2026-07-12T15:07:49.000Z</time>
|
|
</trkpt>
|
|
<trkpt lat="56.120968" lon="8.131810">
|
|
<ele>25.795958</ele>
|
|
<time>2026-07-12T15:07:50.000Z</time>
|
|
</trkpt>
|
|
<trkpt lat="56.121006" lon="8.131809">
|
|
<ele>25.808737</ele>
|
|
<time>2026-07-12T15:07:51.000Z</time>
|
|
</trkpt>
|
|
<trkpt lat="56.121045" lon="8.131806">
|
|
<ele>25.821863</ele>
|
|
<time>2026-07-12T15:07:52.000Z</time>
|
|
</trkpt>
|
|
<trkpt lat="56.121086" lon="8.131798">
|
|
<ele>25.835730</ele>
|
|
<time>2026-07-12T15:07:53.000Z</time>
|
|
</trkpt>
|
|
<trkpt lat="56.121129" lon="8.131788">
|
|
<ele>25.850310</ele>
|
|
<time>2026-07-12T15:07:54.000Z</time>
|
|
</trkpt>
|
|
<trkpt lat="56.121171" lon="8.131769">
|
|
<ele>25.864874</ele>
|
|
<time>2026-07-12T15:07:55.000Z</time>
|
|
</trkpt>
|
|
<trkpt lat="56.121211" lon="8.131740">
|
|
<ele>25.879381</ele>
|
|
<time>2026-07-12T15:07:56.000Z</time>
|
|
</trkpt>
|
|
<trkpt lat="56.121250" lon="8.131708">
|
|
<ele>25.893801</ele>
|
|
<time>2026-07-12T15:07:57.000Z</time>
|
|
</trkpt>
|
|
<trkpt lat="56.121292" lon="8.131683">
|
|
<ele>25.908681</ele>
|
|
<time>2026-07-12T15:07:58.000Z</time>
|
|
</trkpt>
|
|
<trkpt lat="56.121334" lon="8.131667">
|
|
<ele>25.923118</ele>
|
|
<time>2026-07-12T15:07:59.000Z</time>
|
|
</trkpt>
|
|
<trkpt lat="56.121382" lon="8.131654">
|
|
<ele>25.939441</ele>
|
|
<time>2026-07-12T15:08:00.000Z</time>
|
|
</trkpt>
|
|
<trkpt lat="56.121427" lon="8.131643">
|
|
<ele>25.954712</ele>
|
|
<time>2026-07-12T15:08:01.000Z</time>
|
|
</trkpt>
|
|
<trkpt lat="56.121473" lon="8.131631">
|
|
<ele>25.970342</ele>
|
|
<time>2026-07-12T15:08:02.000Z</time>
|
|
</trkpt>
|
|
<trkpt lat="56.121519" lon="8.131614">
|
|
<ele>25.986134</ele>
|
|
<time>2026-07-12T15:08:03.000Z</time>
|
|
</trkpt>
|
|
<trkpt lat="56.121562" lon="8.131594">
|
|
<ele>26.001071</ele>
|
|
<time>2026-07-12T15:08:04.000Z</time>
|
|
</trkpt>
|
|
<trkpt lat="56.121600" lon="8.131575">
|
|
<ele>26.014335</ele>
|
|
<time>2026-07-12T15:08:05.000Z</time>
|
|
</trkpt>
|
|
<trkpt lat="56.121636" lon="8.131560">
|
|
<ele>26.026762</ele>
|
|
<time>2026-07-12T15:08:06.000Z</time>
|
|
</trkpt>
|
|
<trkpt lat="56.121671" lon="8.131547">
|
|
<ele>26.038781</ele>
|
|
<time>2026-07-12T15:08:07.000Z</time>
|
|
</trkpt>
|
|
<trkpt lat="56.121704" lon="8.131534">
|
|
<ele>26.050141</ele>
|
|
<time>2026-07-12T15:08:08.000Z</time>
|
|
</trkpt>
|
|
<trkpt lat="56.121742" lon="8.131515">
|
|
<ele>26.063406</ele>
|
|
<time>2026-07-12T15:08:09.000Z</time>
|
|
</trkpt>
|
|
<trkpt lat="56.121777" lon="8.131495">
|
|
<ele>26.075757</ele>
|
|
<time>2026-07-12T15:08:10.000Z</time>
|
|
</trkpt>
|
|
<trkpt lat="56.121807" lon="8.131476">
|
|
<ele>26.086454</ele>
|
|
<time>2026-07-12T15:08:11.000Z</time>
|
|
</trkpt>
|
|
<trkpt lat="56.121835" lon="8.131457">
|
|
<ele>26.091537</ele>
|
|
<time>2026-07-12T15:08:12.000Z</time>
|
|
</trkpt>
|
|
<trkpt lat="56.121865" lon="8.131436">
|
|
<ele>26.093752</ele>
|
|
<time>2026-07-12T15:08:13.000Z</time>
|
|
</trkpt>
|
|
<trkpt lat="56.121898" lon="8.131413">
|
|
<ele>26.096187</ele>
|
|
<time>2026-07-12T15:08:14.000Z</time>
|
|
</trkpt>
|
|
<trkpt lat="56.121938" lon="8.131388">
|
|
<ele>26.099101</ele>
|
|
<time>2026-07-12T15:08:15.000Z</time>
|
|
</trkpt>
|
|
<trkpt lat="56.121980" lon="8.131364">
|
|
<ele>26.102133</ele>
|
|
<time>2026-07-12T15:08:16.000Z</time>
|
|
</trkpt>
|
|
<trkpt lat="56.122022" lon="8.131338">
|
|
<ele>26.105189</ele>
|
|
<time>2026-07-12T15:08:17.000Z</time>
|
|
</trkpt>
|
|
<trkpt lat="56.122064" lon="8.131314">
|
|
<ele>26.108221</ele>
|
|
<time>2026-07-12T15:08:18.000Z</time>
|
|
</trkpt>
|
|
<trkpt lat="56.122108" lon="8.131288">
|
|
<ele>26.111407</ele>
|
|
<time>2026-07-12T15:08:19.000Z</time>
|
|
</trkpt>
|
|
<trkpt lat="56.122153" lon="8.131261">
|
|
<ele>26.114671</ele>
|
|
<time>2026-07-12T15:08:20.000Z</time>
|
|
</trkpt>
|
|
<trkpt lat="56.122203" lon="8.131233">
|
|
<ele>26.118274</ele>
|
|
<time>2026-07-12T15:08:21.000Z</time>
|
|
</trkpt>
|
|
<trkpt lat="56.122250" lon="8.131204">
|
|
<ele>26.121693</ele>
|
|
<time>2026-07-12T15:08:22.000Z</time>
|
|
</trkpt>
|
|
<trkpt lat="56.122296" lon="8.131171">
|
|
<ele>26.125100</ele>
|
|
<time>2026-07-12T15:08:23.000Z</time>
|
|
</trkpt>
|
|
<trkpt lat="56.122344" lon="8.131134">
|
|
<ele>26.128694</ele>
|
|
<time>2026-07-12T15:08:24.000Z</time>
|
|
</trkpt>
|
|
<trkpt lat="56.122394" lon="8.131100">
|
|
<ele>26.132372</ele>
|
|
<time>2026-07-12T15:08:25.000Z</time>
|
|
</trkpt>
|
|
<trkpt lat="56.122445" lon="8.131066">
|
|
<ele>26.136114</ele>
|
|
<time>2026-07-12T15:08:26.000Z</time>
|
|
</trkpt>
|
|
<trkpt lat="56.122496" lon="8.131037">
|
|
<ele>26.139794</ele>
|
|
<time>2026-07-12T15:08:27.000Z</time>
|
|
</trkpt>
|
|
<trkpt lat="56.122543" lon="8.131013">
|
|
<ele>26.143155</ele>
|
|
<time>2026-07-12T15:08:28.000Z</time>
|
|
</trkpt>
|
|
<trkpt lat="56.122592" lon="8.130988">
|
|
<ele>26.146659</ele>
|
|
<time>2026-07-12T15:08:29.000Z</time>
|
|
</trkpt>
|
|
<trkpt lat="56.122641" lon="8.130960">
|
|
<ele>26.150196</ele>
|
|
<time>2026-07-12T15:08:30.000Z</time>
|
|
</trkpt>
|
|
<trkpt lat="56.122688" lon="8.130933">
|
|
<ele>26.153591</ele>
|
|
<time>2026-07-12T15:08:31.000Z</time>
|
|
</trkpt>
|
|
<trkpt lat="56.122731" lon="8.130910">
|
|
<ele>26.156677</ele>
|
|
<time>2026-07-12T15:08:32.000Z</time>
|
|
</trkpt>
|
|
<trkpt lat="56.122771" lon="8.130887">
|
|
<ele>26.159566</ele>
|
|
<time>2026-07-12T15:08:33.000Z</time>
|
|
</trkpt>
|
|
<trkpt lat="56.122808" lon="8.130864">
|
|
<ele>26.162260</ele>
|
|
<time>2026-07-12T15:08:34.000Z</time>
|
|
</trkpt>
|
|
<trkpt lat="56.122842" lon="8.130838">
|
|
<ele>26.164802</ele>
|
|
<time>2026-07-12T15:08:35.000Z</time>
|
|
</trkpt>
|
|
<trkpt lat="56.122876" lon="8.130811">
|
|
<ele>26.167360</ele>
|
|
<time>2026-07-12T15:08:36.000Z</time>
|
|
</trkpt>
|
|
<trkpt lat="56.122912" lon="8.130784">
|
|
<ele>26.170044</ele>
|
|
<time>2026-07-12T15:08:37.000Z</time>
|
|
</trkpt>
|
|
<trkpt lat="56.122962" lon="8.130749">
|
|
<ele>26.173735</ele>
|
|
<time>2026-07-12T15:08:38.000Z</time>
|
|
</trkpt>
|
|
<trkpt lat="56.123007" lon="8.130714">
|
|
<ele>26.177109</ele>
|
|
<time>2026-07-12T15:08:39.000Z</time>
|
|
</trkpt>
|
|
<trkpt lat="56.123053" lon="8.130672">
|
|
<ele>26.180659</ele>
|
|
<time>2026-07-12T15:08:40.000Z</time>
|
|
</trkpt>
|
|
<trkpt lat="56.123097" lon="8.130628">
|
|
<ele>26.184124</ele>
|
|
<time>2026-07-12T15:08:41.000Z</time>
|
|
</trkpt>
|
|
<trkpt lat="56.123139" lon="8.130580">
|
|
<ele>26.187549</ele>
|
|
<time>2026-07-12T15:08:42.000Z</time>
|
|
</trkpt>
|
|
<trkpt lat="56.123179" lon="8.130523">
|
|
<ele>26.191063</ele>
|
|
<time>2026-07-12T15:08:43.000Z</time>
|
|
</trkpt>
|
|
<trkpt lat="56.123217" lon="8.130461">
|
|
<ele>26.194596</ele>
|
|
<time>2026-07-12T15:08:44.000Z</time>
|
|
</trkpt>
|
|
<trkpt lat="56.123252" lon="8.130402">
|
|
<ele>26.197899</ele>
|
|
<time>2026-07-12T15:08:45.000Z</time>
|
|
</trkpt>
|
|
<trkpt lat="56.123290" lon="8.130340">
|
|
<ele>26.201432</ele>
|
|
<time>2026-07-12T15:08:46.000Z</time>
|
|
</trkpt>
|
|
<trkpt lat="56.123326" lon="8.130274">
|
|
<ele>26.204973</ele>
|
|
<time>2026-07-12T15:08:47.000Z</time>
|
|
</trkpt>
|
|
<trkpt lat="56.123358" lon="8.130213">
|
|
<ele>26.208185</ele>
|
|
<time>2026-07-12T15:08:48.000Z</time>
|
|
</trkpt>
|
|
<trkpt lat="56.123391" lon="8.130150">
|
|
<ele>26.211499</ele>
|
|
<time>2026-07-12T15:08:49.000Z</time>
|
|
</trkpt>
|
|
<trkpt lat="56.123431" lon="8.130085">
|
|
<ele>26.210807</ele>
|
|
<time>2026-07-12T15:08:50.000Z</time>
|
|
</trkpt>
|
|
<trkpt lat="56.123468" lon="8.130022">
|
|
<ele>26.201844</ele>
|
|
<time>2026-07-12T15:08:51.000Z</time>
|
|
</trkpt>
|
|
<trkpt lat="56.123502" lon="8.129960">
|
|
<ele>26.193325</ele>
|
|
<time>2026-07-12T15:08:52.000Z</time>
|
|
</trkpt>
|
|
<trkpt lat="56.123536" lon="8.129904">
|
|
<ele>26.185215</ele>
|
|
<time>2026-07-12T15:08:53.000Z</time>
|
|
</trkpt>
|
|
<trkpt lat="56.123573" lon="8.129849">
|
|
<ele>26.176771</ele>
|
|
<time>2026-07-12T15:08:54.000Z</time>
|
|
</trkpt>
|
|
<trkpt lat="56.123611" lon="8.129782">
|
|
<ele>26.167409</ele>
|
|
<time>2026-07-12T15:08:55.000Z</time>
|
|
</trkpt>
|
|
<trkpt lat="56.123652" lon="8.129719">
|
|
<ele>26.157924</ele>
|
|
<time>2026-07-12T15:08:56.000Z</time>
|
|
</trkpt>
|
|
<trkpt lat="56.123697" lon="8.129659">
|
|
<ele>26.148072</ele>
|
|
<time>2026-07-12T15:08:57.000Z</time>
|
|
</trkpt>
|
|
<trkpt lat="56.123741" lon="8.129607">
|
|
<ele>26.138813</ele>
|
|
<time>2026-07-12T15:08:58.000Z</time>
|
|
</trkpt>
|
|
<trkpt lat="56.123789" lon="8.129553">
|
|
<ele>26.128858</ele>
|
|
<time>2026-07-12T15:08:59.000Z</time>
|
|
</trkpt>
|
|
<trkpt lat="56.123837" lon="8.129496">
|
|
<ele>26.118743</ele>
|
|
<time>2026-07-12T15:09:00.000Z</time>
|
|
</trkpt>
|
|
<trkpt lat="56.123881" lon="8.129444">
|
|
<ele>26.109485</ele>
|
|
<time>2026-07-12T15:09:01.000Z</time>
|
|
</trkpt>
|
|
<trkpt lat="56.123930" lon="8.129389">
|
|
<ele>26.099328</ele>
|
|
<time>2026-07-12T15:09:02.000Z</time>
|
|
</trkpt>
|
|
<trkpt lat="56.123976" lon="8.129336">
|
|
<ele>26.089722</ele>
|
|
<time>2026-07-12T15:09:03.000Z</time>
|
|
</trkpt>
|
|
<trkpt lat="56.124024" lon="8.129284">
|
|
<ele>26.079869</ele>
|
|
<time>2026-07-12T15:09:04.000Z</time>
|
|
</trkpt>
|
|
<trkpt lat="56.124073" lon="8.129230">
|
|
<ele>26.069764</ele>
|
|
<time>2026-07-12T15:09:05.000Z</time>
|
|
</trkpt>
|
|
<trkpt lat="56.124119" lon="8.129178">
|
|
<ele>26.060210</ele>
|
|
<time>2026-07-12T15:09:06.000Z</time>
|
|
</trkpt>
|
|
<trkpt lat="56.124166" lon="8.129126">
|
|
<ele>26.050507</ele>
|
|
<time>2026-07-12T15:09:07.000Z</time>
|
|
</trkpt>
|
|
<trkpt lat="56.124215" lon="8.129073">
|
|
<ele>26.040454</ele>
|
|
<time>2026-07-12T15:09:08.000Z</time>
|
|
</trkpt>
|
|
<trkpt lat="56.124267" lon="8.129024">
|
|
<ele>26.030133</ele>
|
|
<time>2026-07-12T15:09:09.000Z</time>
|
|
</trkpt>
|
|
<trkpt lat="56.124317" lon="8.128979">
|
|
<ele>26.020303</ele>
|
|
<time>2026-07-12T15:09:10.000Z</time>
|
|
</trkpt>
|
|
<trkpt lat="56.124365" lon="8.128937">
|
|
<ele>26.010919</ele>
|
|
<time>2026-07-12T15:09:11.000Z</time>
|
|
</trkpt>
|
|
<trkpt lat="56.124413" lon="8.128895">
|
|
<ele>26.001535</ele>
|
|
<time>2026-07-12T15:09:12.000Z</time>
|
|
</trkpt>
|
|
<trkpt lat="56.124463" lon="8.128852">
|
|
<ele>25.991792</ele>
|
|
<time>2026-07-12T15:09:13.000Z</time>
|
|
</trkpt>
|
|
<trkpt lat="56.124515" lon="8.128810">
|
|
<ele>25.981771</ele>
|
|
<time>2026-07-12T15:09:14.000Z</time>
|
|
</trkpt>
|
|
<trkpt lat="56.124565" lon="8.128770">
|
|
<ele>25.972152</ele>
|
|
<time>2026-07-12T15:09:15.000Z</time>
|
|
</trkpt>
|
|
<trkpt lat="56.124615" lon="8.128733">
|
|
<ele>25.962648</ele>
|
|
<time>2026-07-12T15:09:16.000Z</time>
|
|
</trkpt>
|
|
<trkpt lat="56.124664" lon="8.128699">
|
|
<ele>25.953416</ele>
|
|
<time>2026-07-12T15:09:17.000Z</time>
|
|
</trkpt>
|
|
<trkpt lat="56.124713" lon="8.128667">
|
|
<ele>25.944253</ele>
|
|
<time>2026-07-12T15:09:18.000Z</time>
|
|
</trkpt>
|
|
<trkpt lat="56.124762" lon="8.128639">
|
|
<ele>25.935217</ele>
|
|
<time>2026-07-12T15:09:19.000Z</time>
|
|
</trkpt>
|
|
<trkpt lat="56.124813" lon="8.128615">
|
|
<ele>25.925952</ele>
|
|
<time>2026-07-12T15:09:20.000Z</time>
|
|
</trkpt>
|
|
<trkpt lat="56.124865" lon="8.128595">
|
|
<ele>25.916607</ele>
|
|
<time>2026-07-12T15:09:21.000Z</time>
|
|
</trkpt>
|
|
<trkpt lat="56.124917" lon="8.128579">
|
|
<ele>25.907336</ele>
|
|
<time>2026-07-12T15:09:22.000Z</time>
|
|
</trkpt>
|
|
<trkpt lat="56.124967" lon="8.128575">
|
|
<ele>25.898542</ele>
|
|
<time>2026-07-12T15:09:23.000Z</time>
|
|
</trkpt>
|
|
<trkpt lat="56.125019" lon="8.128584">
|
|
<ele>25.856780</ele>
|
|
<time>2026-07-12T15:09:24.000Z</time>
|
|
</trkpt>
|
|
<trkpt lat="56.125072" lon="8.128600">
|
|
<ele>25.811381</ele>
|
|
<time>2026-07-12T15:09:25.000Z</time>
|
|
</trkpt>
|
|
<trkpt lat="56.125122" lon="8.128620">
|
|
<ele>25.768108</ele>
|
|
<time>2026-07-12T15:09:26.000Z</time>
|
|
</trkpt>
|
|
<trkpt lat="56.125171" lon="8.128642">
|
|
<ele>25.725441</ele>
|
|
<time>2026-07-12T15:09:27.000Z</time>
|
|
</trkpt>
|
|
<trkpt lat="56.125217" lon="8.128665">
|
|
<ele>25.685103</ele>
|
|
<time>2026-07-12T15:09:28.000Z</time>
|
|
</trkpt>
|
|
<trkpt lat="56.125261" lon="8.128692">
|
|
<ele>25.645822</ele>
|
|
<time>2026-07-12T15:09:29.000Z</time>
|
|
</trkpt>
|
|
<trkpt lat="56.125320" lon="8.128721">
|
|
<ele>25.594147</ele>
|
|
<time>2026-07-12T15:09:30.000Z</time>
|
|
</trkpt>
|
|
<trkpt lat="56.125371" lon="8.128739">
|
|
<ele>25.550241</ele>
|
|
<time>2026-07-12T15:09:31.000Z</time>
|
|
</trkpt>
|
|
<trkpt lat="56.125423" lon="8.128747">
|
|
<ele>25.506154</ele>
|
|
<time>2026-07-12T15:09:32.000Z</time>
|
|
</trkpt>
|
|
<trkpt lat="56.125473" lon="8.128746">
|
|
<ele>25.463916</ele>
|
|
<time>2026-07-12T15:09:33.000Z</time>
|
|
</trkpt>
|
|
<trkpt lat="56.125526" lon="8.128738">
|
|
<ele>25.418988</ele>
|
|
<time>2026-07-12T15:09:34.000Z</time>
|
|
</trkpt>
|
|
<trkpt lat="56.125580" lon="8.128723">
|
|
<ele>25.372830</ele>
|
|
<time>2026-07-12T15:09:35.000Z</time>
|
|
</trkpt>
|
|
<trkpt lat="56.125633" lon="8.128705">
|
|
<ele>25.327265</ele>
|
|
<time>2026-07-12T15:09:36.000Z</time>
|
|
</trkpt>
|
|
<trkpt lat="56.125685" lon="8.128687">
|
|
<ele>25.282529</ele>
|
|
<time>2026-07-12T15:09:37.000Z</time>
|
|
</trkpt>
|
|
<trkpt lat="56.125742" lon="8.128670">
|
|
<ele>25.233720</ele>
|
|
<time>2026-07-12T15:09:38.000Z</time>
|
|
</trkpt>
|
|
<trkpt lat="56.125793" lon="8.128657">
|
|
<ele>25.190207</ele>
|
|
<time>2026-07-12T15:09:39.000Z</time>
|
|
</trkpt>
|
|
<trkpt lat="56.125844" lon="8.128644">
|
|
<ele>25.146694</ele>
|
|
<time>2026-07-12T15:09:40.000Z</time>
|
|
</trkpt>
|
|
<trkpt lat="56.125896" lon="8.128630">
|
|
<ele>25.102277</ele>
|
|
<time>2026-07-12T15:09:41.000Z</time>
|
|
</trkpt>
|
|
<trkpt lat="56.125946" lon="8.128613">
|
|
<ele>25.059289</ele>
|
|
<time>2026-07-12T15:09:42.000Z</time>
|
|
</trkpt>
|
|
<trkpt lat="56.125995" lon="8.128595">
|
|
<ele>25.017039</ele>
|
|
<time>2026-07-12T15:09:43.000Z</time>
|
|
</trkpt>
|
|
<trkpt lat="56.126044" lon="8.128577">
|
|
<ele>24.974790</ele>
|
|
<time>2026-07-12T15:09:44.000Z</time>
|
|
</trkpt>
|
|
<trkpt lat="56.126098" lon="8.128557">
|
|
<ele>24.928213</ele>
|
|
<time>2026-07-12T15:09:45.000Z</time>
|
|
</trkpt>
|
|
<trkpt lat="56.126146" lon="8.128540">
|
|
<ele>24.886884</ele>
|
|
<time>2026-07-12T15:09:46.000Z</time>
|
|
</trkpt>
|
|
<trkpt lat="56.126192" lon="8.128532">
|
|
<ele>24.847845</ele>
|
|
<time>2026-07-12T15:09:47.000Z</time>
|
|
</trkpt>
|
|
<trkpt lat="56.126237" lon="8.128529">
|
|
<ele>24.809807</ele>
|
|
<time>2026-07-12T15:09:48.000Z</time>
|
|
</trkpt>
|
|
<trkpt lat="56.126286" lon="8.128535">
|
|
<ele>24.768319</ele>
|
|
<time>2026-07-12T15:09:49.000Z</time>
|
|
</trkpt>
|
|
<trkpt lat="56.126330" lon="8.128552">
|
|
<ele>24.730300</ele>
|
|
<time>2026-07-12T15:09:50.000Z</time>
|
|
</trkpt>
|
|
<trkpt lat="56.126375" lon="8.128571">
|
|
<ele>24.691249</ele>
|
|
<time>2026-07-12T15:09:51.000Z</time>
|
|
</trkpt>
|
|
<trkpt lat="56.126417" lon="8.128592">
|
|
<ele>24.654419</ele>
|
|
<time>2026-07-12T15:09:52.000Z</time>
|
|
</trkpt>
|
|
<trkpt lat="56.126458" lon="8.128613">
|
|
<ele>24.618402</ele>
|
|
<time>2026-07-12T15:09:53.000Z</time>
|
|
</trkpt>
|
|
<trkpt lat="56.126501" lon="8.128636">
|
|
<ele>24.580500</ele>
|
|
<time>2026-07-12T15:09:54.000Z</time>
|
|
</trkpt>
|
|
<trkpt lat="56.126551" lon="8.128659">
|
|
<ele>24.536898</ele>
|
|
<time>2026-07-12T15:09:55.000Z</time>
|
|
</trkpt>
|
|
<trkpt lat="56.126596" lon="8.128678">
|
|
<ele>24.497847</ele>
|
|
<time>2026-07-12T15:09:56.000Z</time>
|
|
</trkpt>
|
|
<trkpt lat="56.126643" lon="8.128699">
|
|
<ele>24.456933</ele>
|
|
<time>2026-07-12T15:09:57.000Z</time>
|
|
</trkpt>
|
|
<trkpt lat="56.126691" lon="8.128725">
|
|
<ele>24.414579</ele>
|
|
<time>2026-07-12T15:09:58.000Z</time>
|
|
</trkpt>
|
|
<trkpt lat="56.126738" lon="8.128758">
|
|
<ele>24.376175</ele>
|
|
<time>2026-07-12T15:09:59.000Z</time>
|
|
</trkpt>
|
|
<trkpt lat="56.126788" lon="8.128794">
|
|
<ele>24.359686</ele>
|
|
<time>2026-07-12T15:10:00.000Z</time>
|
|
</trkpt>
|
|
<trkpt lat="56.126837" lon="8.128832">
|
|
<ele>24.343348</ele>
|
|
<time>2026-07-12T15:10:01.000Z</time>
|
|
</trkpt>
|
|
<trkpt lat="56.126885" lon="8.128869">
|
|
<ele>24.327359</ele>
|
|
<time>2026-07-12T15:10:02.000Z</time>
|
|
</trkpt>
|
|
<trkpt lat="56.126934" lon="8.128906">
|
|
<ele>24.311088</ele>
|
|
<time>2026-07-12T15:10:03.000Z</time>
|
|
</trkpt>
|
|
<trkpt lat="56.126982" lon="8.128943">
|
|
<ele>24.295099</ele>
|
|
<time>2026-07-12T15:10:04.000Z</time>
|
|
</trkpt>
|
|
<trkpt lat="56.127026" lon="8.128984">
|
|
<ele>24.279924</ele>
|
|
<time>2026-07-12T15:10:05.000Z</time>
|
|
</trkpt>
|
|
<trkpt lat="56.127069" lon="8.129023">
|
|
<ele>24.265178</ele>
|
|
<time>2026-07-12T15:10:06.000Z</time>
|
|
</trkpt>
|
|
<trkpt lat="56.127118" lon="8.129061">
|
|
<ele>24.248840</ele>
|
|
<time>2026-07-12T15:10:07.000Z</time>
|
|
</trkpt>
|
|
<trkpt lat="56.127165" lon="8.129099">
|
|
<ele>24.233062</ele>
|
|
<time>2026-07-12T15:10:08.000Z</time>
|
|
</trkpt>
|
|
<trkpt lat="56.127209" lon="8.129135">
|
|
<ele>24.218262</ele>
|
|
<time>2026-07-12T15:10:09.000Z</time>
|
|
</trkpt>
|
|
<trkpt lat="56.127253" lon="8.129169">
|
|
<ele>24.203600</ele>
|
|
<time>2026-07-12T15:10:10.000Z</time>
|
|
</trkpt>
|
|
<trkpt lat="56.127301" lon="8.129201">
|
|
<ele>24.187927</ele>
|
|
<time>2026-07-12T15:10:11.000Z</time>
|
|
</trkpt>
|
|
<trkpt lat="56.127349" lon="8.129233">
|
|
<ele>24.172255</ele>
|
|
<time>2026-07-12T15:10:12.000Z</time>
|
|
</trkpt>
|
|
<trkpt lat="56.127399" lon="8.129263">
|
|
<ele>24.156120</ele>
|
|
<time>2026-07-12T15:10:13.000Z</time>
|
|
</trkpt>
|
|
<trkpt lat="56.127448" lon="8.129293">
|
|
<ele>24.140274</ele>
|
|
<time>2026-07-12T15:10:14.000Z</time>
|
|
</trkpt>
|
|
<trkpt lat="56.127498" lon="8.129325">
|
|
<ele>24.124026</ele>
|
|
<time>2026-07-12T15:10:15.000Z</time>
|
|
</trkpt>
|
|
<trkpt lat="56.127548" lon="8.129354">
|
|
<ele>24.107944</ele>
|
|
<time>2026-07-12T15:10:16.000Z</time>
|
|
</trkpt>
|
|
<trkpt lat="56.127598" lon="8.129383">
|
|
<ele>24.091861</ele>
|
|
<time>2026-07-12T15:10:17.000Z</time>
|
|
</trkpt>
|
|
<trkpt lat="56.127648" lon="8.129414">
|
|
<ele>24.075671</ele>
|
|
<time>2026-07-12T15:10:18.000Z</time>
|
|
</trkpt>
|
|
<trkpt lat="56.127694" lon="8.129444">
|
|
<ele>24.060691</ele>
|
|
<time>2026-07-12T15:10:19.000Z</time>
|
|
</trkpt>
|
|
<trkpt lat="56.127740" lon="8.129474">
|
|
<ele>24.045711</ele>
|
|
<time>2026-07-12T15:10:20.000Z</time>
|
|
</trkpt>
|
|
<trkpt lat="56.127796" lon="8.129509">
|
|
<ele>24.027562</ele>
|
|
<time>2026-07-12T15:10:21.000Z</time>
|
|
</trkpt>
|
|
<trkpt lat="56.127844" lon="8.129543">
|
|
<ele>24.011767</ele>
|
|
<time>2026-07-12T15:10:22.000Z</time>
|
|
</trkpt>
|
|
<trkpt lat="56.127889" lon="8.129576">
|
|
<ele>23.996889</ele>
|
|
<time>2026-07-12T15:10:23.000Z</time>
|
|
</trkpt>
|
|
<trkpt lat="56.127937" lon="8.129609">
|
|
<ele>23.981157</ele>
|
|
<time>2026-07-12T15:10:24.000Z</time>
|
|
</trkpt>
|
|
<trkpt lat="56.127985" lon="8.129643">
|
|
<ele>23.965363</ele>
|
|
<time>2026-07-12T15:10:25.000Z</time>
|
|
</trkpt>
|
|
<trkpt lat="56.128031" lon="8.129677">
|
|
<ele>23.950136</ele>
|
|
<time>2026-07-12T15:10:26.000Z</time>
|
|
</trkpt>
|
|
<trkpt lat="56.128077" lon="8.129713">
|
|
<ele>23.934777</ele>
|
|
<time>2026-07-12T15:10:27.000Z</time>
|
|
</trkpt>
|
|
<trkpt lat="56.128121" lon="8.129750">
|
|
<ele>23.919904</ele>
|
|
<time>2026-07-12T15:10:28.000Z</time>
|
|
</trkpt>
|
|
<trkpt lat="56.128165" lon="8.129788">
|
|
<ele>23.904959</ele>
|
|
<time>2026-07-12T15:10:29.000Z</time>
|
|
</trkpt>
|
|
<trkpt lat="56.128208" lon="8.129826">
|
|
<ele>23.890289</ele>
|
|
<time>2026-07-12T15:10:30.000Z</time>
|
|
</trkpt>
|
|
<trkpt lat="56.128250" lon="8.129867">
|
|
<ele>23.875655</ele>
|
|
<time>2026-07-12T15:10:31.000Z</time>
|
|
</trkpt>
|
|
<trkpt lat="56.128297" lon="8.129909">
|
|
<ele>23.859585</ele>
|
|
<time>2026-07-12T15:10:32.000Z</time>
|
|
</trkpt>
|
|
<trkpt lat="56.128343" lon="8.129952">
|
|
<ele>23.843710</ele>
|
|
<time>2026-07-12T15:10:33.000Z</time>
|
|
</trkpt>
|
|
<trkpt lat="56.128389" lon="8.129996">
|
|
<ele>23.828413</ele>
|
|
<time>2026-07-12T15:10:34.000Z</time>
|
|
</trkpt>
|
|
<trkpt lat="56.128433" lon="8.130038">
|
|
<ele>23.843173</ele>
|
|
<time>2026-07-12T15:10:35.000Z</time>
|
|
</trkpt>
|
|
<trkpt lat="56.128479" lon="8.130085">
|
|
<ele>23.858850</ele>
|
|
<time>2026-07-12T15:10:36.000Z</time>
|
|
</trkpt>
|
|
<trkpt lat="56.128523" lon="8.130130">
|
|
<ele>23.873848</ele>
|
|
<time>2026-07-12T15:10:37.000Z</time>
|
|
</trkpt>
|
|
<trkpt lat="56.128568" lon="8.130176">
|
|
<ele>23.889186</ele>
|
|
<time>2026-07-12T15:10:38.000Z</time>
|
|
</trkpt>
|
|
<trkpt lat="56.128610" lon="8.130220">
|
|
<ele>23.903590</ele>
|
|
<time>2026-07-12T15:10:39.000Z</time>
|
|
</trkpt>
|
|
<trkpt lat="56.128654" lon="8.130262">
|
|
<ele>23.918350</ele>
|
|
<time>2026-07-12T15:10:40.000Z</time>
|
|
</trkpt>
|
|
<trkpt lat="56.128702" lon="8.130306">
|
|
<ele>23.934313</ele>
|
|
<time>2026-07-12T15:10:41.000Z</time>
|
|
</trkpt>
|
|
<trkpt lat="56.128747" lon="8.130350">
|
|
<ele>23.949490</ele>
|
|
<time>2026-07-12T15:10:42.000Z</time>
|
|
</trkpt>
|
|
<trkpt lat="56.128790" lon="8.130394">
|
|
<ele>23.964150</ele>
|
|
<time>2026-07-12T15:10:43.000Z</time>
|
|
</trkpt>
|
|
<trkpt lat="56.128833" lon="8.130436">
|
|
<ele>23.978649</ele>
|
|
<time>2026-07-12T15:10:44.000Z</time>
|
|
</trkpt>
|
|
<trkpt lat="56.128874" lon="8.130476">
|
|
<ele>23.992470</ele>
|
|
<time>2026-07-12T15:10:45.000Z</time>
|
|
</trkpt>
|
|
<trkpt lat="56.128923" lon="8.130525">
|
|
<ele>24.009083</ele>
|
|
<time>2026-07-12T15:10:46.000Z</time>
|
|
</trkpt>
|
|
<trkpt lat="56.128970" lon="8.130569">
|
|
<ele>24.024783</ele>
|
|
<time>2026-07-12T15:10:47.000Z</time>
|
|
</trkpt>
|
|
<trkpt lat="56.129014" lon="8.130612">
|
|
<ele>24.039621</ele>
|
|
<time>2026-07-12T15:10:48.000Z</time>
|
|
</trkpt>
|
|
<trkpt lat="56.129060" lon="8.130653">
|
|
<ele>24.054832</ele>
|
|
<time>2026-07-12T15:10:49.000Z</time>
|
|
</trkpt>
|
|
<trkpt lat="56.129107" lon="8.130695">
|
|
<ele>24.070382</ele>
|
|
<time>2026-07-12T15:10:50.000Z</time>
|
|
</trkpt>
|
|
<trkpt lat="56.129154" lon="8.130732">
|
|
<ele>24.085582</ele>
|
|
<time>2026-07-12T15:10:51.000Z</time>
|
|
</trkpt>
|
|
<trkpt lat="56.129202" lon="8.130769">
|
|
<ele>24.101053</ele>
|
|
<time>2026-07-12T15:10:52.000Z</time>
|
|
</trkpt>
|
|
<trkpt lat="56.129246" lon="8.130804">
|
|
<ele>24.115307</ele>
|
|
<time>2026-07-12T15:10:53.000Z</time>
|
|
</trkpt>
|
|
<trkpt lat="56.129288" lon="8.130838">
|
|
<ele>24.128953</ele>
|
|
<time>2026-07-12T15:10:54.000Z</time>
|
|
</trkpt>
|
|
<trkpt lat="56.129333" lon="8.130871">
|
|
<ele>24.143350</ele>
|
|
<time>2026-07-12T15:10:55.000Z</time>
|
|
</trkpt>
|
|
<trkpt lat="56.129377" lon="8.130906">
|
|
<ele>24.157604</ele>
|
|
<time>2026-07-12T15:10:56.000Z</time>
|
|
</trkpt>
|
|
<trkpt lat="56.129424" lon="8.130937">
|
|
<ele>24.172433</ele>
|
|
<time>2026-07-12T15:10:57.000Z</time>
|
|
</trkpt>
|
|
<trkpt lat="56.129474" lon="8.130965">
|
|
<ele>24.187945</ele>
|
|
<time>2026-07-12T15:10:58.000Z</time>
|
|
</trkpt>
|
|
<trkpt lat="56.129521" lon="8.130994">
|
|
<ele>24.202664</ele>
|
|
<time>2026-07-12T15:10:59.000Z</time>
|
|
</trkpt>
|
|
<trkpt lat="56.129563" lon="8.131024">
|
|
<ele>24.216052</ele>
|
|
<time>2026-07-12T15:11:00.000Z</time>
|
|
</trkpt>
|
|
<trkpt lat="56.129609" lon="8.131054">
|
|
<ele>24.230547</ele>
|
|
<time>2026-07-12T15:11:01.000Z</time>
|
|
</trkpt>
|
|
<trkpt lat="56.129655" lon="8.131085">
|
|
<ele>24.245099</ele>
|
|
<time>2026-07-12T15:11:02.000Z</time>
|
|
</trkpt>
|
|
<trkpt lat="56.129701" lon="8.131119">
|
|
<ele>24.259833</ele>
|
|
<time>2026-07-12T15:11:03.000Z</time>
|
|
</trkpt>
|
|
<trkpt lat="56.129749" lon="8.131153">
|
|
<ele>24.275116</ele>
|
|
<time>2026-07-12T15:11:04.000Z</time>
|
|
</trkpt>
|
|
<trkpt lat="56.129799" lon="8.131187">
|
|
<ele>24.290951</ele>
|
|
<time>2026-07-12T15:11:05.000Z</time>
|
|
</trkpt>
|
|
<trkpt lat="56.129847" lon="8.131219">
|
|
<ele>24.306116</ele>
|
|
<time>2026-07-12T15:11:06.000Z</time>
|
|
</trkpt>
|
|
<trkpt lat="56.129893" lon="8.131251">
|
|
<ele>24.320727</ele>
|
|
<time>2026-07-12T15:11:07.000Z</time>
|
|
</trkpt>
|
|
<trkpt lat="56.129942" lon="8.131284">
|
|
<ele>24.336227</ele>
|
|
<time>2026-07-12T15:11:08.000Z</time>
|
|
</trkpt>
|
|
<trkpt lat="56.129989" lon="8.131317">
|
|
<ele>24.351174</ele>
|
|
<time>2026-07-12T15:11:09.000Z</time>
|
|
</trkpt>
|
|
<trkpt lat="56.130037" lon="8.131351">
|
|
<ele>24.348027</ele>
|
|
<time>2026-07-12T15:11:10.000Z</time>
|
|
</trkpt>
|
|
<trkpt lat="56.130084" lon="8.131386">
|
|
<ele>24.314326</ele>
|
|
<time>2026-07-12T15:11:11.000Z</time>
|
|
</trkpt>
|
|
<trkpt lat="56.130135" lon="8.131418">
|
|
<ele>24.278544</ele>
|
|
<time>2026-07-12T15:11:12.000Z</time>
|
|
</trkpt>
|
|
<trkpt lat="56.130188" lon="8.131450">
|
|
<ele>24.241509</ele>
|
|
<time>2026-07-12T15:11:13.000Z</time>
|
|
</trkpt>
|
|
<trkpt lat="56.130241" lon="8.131482">
|
|
<ele>24.204474</ele>
|
|
<time>2026-07-12T15:11:14.000Z</time>
|
|
</trkpt>
|
|
<trkpt lat="56.130290" lon="8.131516">
|
|
<ele>24.169680</ele>
|
|
<time>2026-07-12T15:11:15.000Z</time>
|
|
</trkpt>
|
|
<trkpt lat="56.130339" lon="8.131547">
|
|
<ele>24.135270</ele>
|
|
<time>2026-07-12T15:11:16.000Z</time>
|
|
</trkpt>
|
|
<trkpt lat="56.130389" lon="8.131576">
|
|
<ele>24.100469</ele>
|
|
<time>2026-07-12T15:11:17.000Z</time>
|
|
</trkpt>
|
|
<trkpt lat="56.130439" lon="8.131599">
|
|
<ele>24.066284</ele>
|
|
<time>2026-07-12T15:11:18.000Z</time>
|
|
</trkpt>
|
|
<trkpt lat="56.130489" lon="8.131619">
|
|
<ele>24.032357</ele>
|
|
<time>2026-07-12T15:11:19.000Z</time>
|
|
</trkpt>
|
|
<trkpt lat="56.130539" lon="8.131640">
|
|
<ele>23.998348</ele>
|
|
<time>2026-07-12T15:11:20.000Z</time>
|
|
</trkpt>
|
|
<trkpt lat="56.130590" lon="8.131656">
|
|
<ele>23.964059</ele>
|
|
<time>2026-07-12T15:11:21.000Z</time>
|
|
</trkpt>
|
|
<trkpt lat="56.130641" lon="8.131665">
|
|
<ele>23.930119</ele>
|
|
<time>2026-07-12T15:11:22.000Z</time>
|
|
</trkpt>
|
|
<trkpt lat="56.130691" lon="8.131670">
|
|
<ele>23.896954</ele>
|
|
<time>2026-07-12T15:11:23.000Z</time>
|
|
</trkpt>
|
|
<trkpt lat="56.130747" lon="8.131674">
|
|
<ele>23.859836</ele>
|
|
<time>2026-07-12T15:11:24.000Z</time>
|
|
</trkpt>
|
|
<trkpt lat="56.130803" lon="8.131676">
|
|
<ele>23.822741</ele>
|
|
<time>2026-07-12T15:11:25.000Z</time>
|
|
</trkpt>
|
|
<trkpt lat="56.130856" lon="8.131679">
|
|
<ele>23.787623</ele>
|
|
<time>2026-07-12T15:11:26.000Z</time>
|
|
</trkpt>
|
|
<trkpt lat="56.130908" lon="8.131680">
|
|
<ele>23.753182</ele>
|
|
<time>2026-07-12T15:11:27.000Z</time>
|
|
</trkpt>
|
|
<trkpt lat="56.130958" lon="8.131683">
|
|
<ele>23.720049</ele>
|
|
<time>2026-07-12T15:11:28.000Z</time>
|
|
</trkpt>
|
|
<trkpt lat="56.131008" lon="8.131686">
|
|
<ele>23.686916</ele>
|
|
<time>2026-07-12T15:11:29.000Z</time>
|
|
</trkpt>
|
|
<trkpt lat="56.131060" lon="8.131688">
|
|
<ele>23.652470</ele>
|
|
<time>2026-07-12T15:11:30.000Z</time>
|
|
</trkpt>
|
|
<trkpt lat="56.131110" lon="8.131688">
|
|
<ele>23.619355</ele>
|
|
<time>2026-07-12T15:11:31.000Z</time>
|
|
</trkpt>
|
|
<trkpt lat="56.131162" lon="8.131690">
|
|
<ele>23.584909</ele>
|
|
<time>2026-07-12T15:11:32.000Z</time>
|
|
</trkpt>
|
|
<trkpt lat="56.131214" lon="8.131692">
|
|
<ele>23.550462</ele>
|
|
<time>2026-07-12T15:11:33.000Z</time>
|
|
</trkpt>
|
|
<trkpt lat="56.131264" lon="8.131695">
|
|
<ele>23.517329</ele>
|
|
<time>2026-07-12T15:11:34.000Z</time>
|
|
</trkpt>
|
|
<trkpt lat="56.131312" lon="8.131700">
|
|
<ele>23.485486</ele>
|
|
<time>2026-07-12T15:11:35.000Z</time>
|
|
</trkpt>
|
|
<trkpt lat="56.131361" lon="8.131703">
|
|
<ele>23.453015</ele>
|
|
<time>2026-07-12T15:11:36.000Z</time>
|
|
</trkpt>
|
|
<trkpt lat="56.131410" lon="8.131705">
|
|
<ele>23.420555</ele>
|
|
<time>2026-07-12T15:11:37.000Z</time>
|
|
</trkpt>
|
|
<trkpt lat="56.131458" lon="8.131705">
|
|
<ele>23.388765</ele>
|
|
<time>2026-07-12T15:11:38.000Z</time>
|
|
</trkpt>
|
|
<trkpt lat="56.131506" lon="8.131705">
|
|
<ele>23.356976</ele>
|
|
<time>2026-07-12T15:11:39.000Z</time>
|
|
</trkpt>
|
|
<trkpt lat="56.131556" lon="8.131704">
|
|
<ele>23.323859</ele>
|
|
<time>2026-07-12T15:11:40.000Z</time>
|
|
</trkpt>
|
|
<trkpt lat="56.131605" lon="8.131707">
|
|
<ele>23.291389</ele>
|
|
<time>2026-07-12T15:11:41.000Z</time>
|
|
</trkpt>
|
|
<trkpt lat="56.131656" lon="8.131714">
|
|
<ele>23.257513</ele>
|
|
<time>2026-07-12T15:11:42.000Z</time>
|
|
</trkpt>
|
|
<trkpt lat="56.131704" lon="8.131723">
|
|
<ele>23.225551</ele>
|
|
<time>2026-07-12T15:11:43.000Z</time>
|
|
</trkpt>
|
|
<trkpt lat="56.131753" lon="8.131733">
|
|
<ele>23.192890</ele>
|
|
<time>2026-07-12T15:11:44.000Z</time>
|
|
</trkpt>
|
|
<trkpt lat="56.131803" lon="8.131740">
|
|
<ele>23.172774</ele>
|
|
<time>2026-07-12T15:11:45.000Z</time>
|
|
</trkpt>
|
|
<trkpt lat="56.131854" lon="8.131744">
|
|
<ele>23.183819</ele>
|
|
<time>2026-07-12T15:11:46.000Z</time>
|
|
</trkpt>
|
|
<trkpt lat="56.131905" lon="8.131747">
|
|
<ele>23.194859</ele>
|
|
<time>2026-07-12T15:11:47.000Z</time>
|
|
</trkpt>
|
|
<trkpt lat="56.131954" lon="8.131750">
|
|
<ele>23.205466</ele>
|
|
<time>2026-07-12T15:11:48.000Z</time>
|
|
</trkpt>
|
|
<trkpt lat="56.132004" lon="8.131754">
|
|
<ele>23.216294</ele>
|
|
<time>2026-07-12T15:11:49.000Z</time>
|
|
</trkpt>
|
|
<trkpt lat="56.132053" lon="8.131761">
|
|
<ele>23.226929</ele>
|
|
<time>2026-07-12T15:11:50.000Z</time>
|
|
</trkpt>
|
|
<trkpt lat="56.132098" lon="8.131766">
|
|
<ele>23.236684</ele>
|
|
<time>2026-07-12T15:11:51.000Z</time>
|
|
</trkpt>
|
|
<trkpt lat="56.132151" lon="8.131769">
|
|
<ele>23.248156</ele>
|
|
<time>2026-07-12T15:11:52.000Z</time>
|
|
</trkpt>
|
|
<trkpt lat="56.132199" lon="8.131771">
|
|
<ele>23.258544</ele>
|
|
<time>2026-07-12T15:11:53.000Z</time>
|
|
</trkpt>
|
|
<trkpt lat="56.132247" lon="8.131773">
|
|
<ele>23.268931</ele>
|
|
<time>2026-07-12T15:11:54.000Z</time>
|
|
</trkpt>
|
|
<trkpt lat="56.132293" lon="8.131778">
|
|
<ele>23.278902</ele>
|
|
<time>2026-07-12T15:11:55.000Z</time>
|
|
</trkpt>
|
|
<trkpt lat="56.132341" lon="8.131786">
|
|
<ele>23.289331</ele>
|
|
<time>2026-07-12T15:11:56.000Z</time>
|
|
</trkpt>
|
|
<trkpt lat="56.132388" lon="8.131793">
|
|
<ele>23.299535</ele>
|
|
<time>2026-07-12T15:11:57.000Z</time>
|
|
</trkpt>
|
|
<trkpt lat="56.132434" lon="8.131801">
|
|
<ele>23.309534</ele>
|
|
<time>2026-07-12T15:11:58.000Z</time>
|
|
</trkpt>
|
|
<trkpt lat="56.132479" lon="8.131815">
|
|
<ele>23.319415</ele>
|
|
<time>2026-07-12T15:11:59.000Z</time>
|
|
</trkpt>
|
|
<trkpt lat="56.132528" lon="8.131833">
|
|
<ele>23.330236</ele>
|
|
<time>2026-07-12T15:12:00.000Z</time>
|
|
</trkpt>
|
|
<trkpt lat="56.132577" lon="8.131856">
|
|
<ele>23.341194</ele>
|
|
<time>2026-07-12T15:12:01.000Z</time>
|
|
</trkpt>
|
|
<trkpt lat="56.132626" lon="8.131878">
|
|
<ele>23.352122</ele>
|
|
<time>2026-07-12T15:12:02.000Z</time>
|
|
</trkpt>
|
|
<trkpt lat="56.132675" lon="8.131899">
|
|
<ele>23.363021</ele>
|
|
<time>2026-07-12T15:12:03.000Z</time>
|
|
</trkpt>
|
|
<trkpt lat="56.132725" lon="8.131918">
|
|
<ele>23.374079</ele>
|
|
<time>2026-07-12T15:12:04.000Z</time>
|
|
</trkpt>
|
|
<trkpt lat="56.132774" lon="8.131935">
|
|
<ele>23.384876</ele>
|
|
<time>2026-07-12T15:12:05.000Z</time>
|
|
</trkpt>
|
|
<trkpt lat="56.132823" lon="8.131952">
|
|
<ele>23.395674</ele>
|
|
<time>2026-07-12T15:12:06.000Z</time>
|
|
</trkpt>
|
|
<trkpt lat="56.132872" lon="8.131972">
|
|
<ele>23.406546</ele>
|
|
<time>2026-07-12T15:12:07.000Z</time>
|
|
</trkpt>
|
|
<trkpt lat="56.132923" lon="8.131996">
|
|
<ele>23.417953</ele>
|
|
<time>2026-07-12T15:12:08.000Z</time>
|
|
</trkpt>
|
|
<trkpt lat="56.132973" lon="8.132018">
|
|
<ele>23.429091</ele>
|
|
<time>2026-07-12T15:12:09.000Z</time>
|
|
</trkpt>
|
|
<trkpt lat="56.133022" lon="8.132037">
|
|
<ele>23.439937</ele>
|
|
<time>2026-07-12T15:12:10.000Z</time>
|
|
</trkpt>
|
|
<trkpt lat="56.133070" lon="8.132058">
|
|
<ele>23.450626</ele>
|
|
<time>2026-07-12T15:12:11.000Z</time>
|
|
</trkpt>
|
|
<trkpt lat="56.133118" lon="8.132081">
|
|
<ele>23.461375</ele>
|
|
<time>2026-07-12T15:12:12.000Z</time>
|
|
</trkpt>
|
|
<trkpt lat="56.133167" lon="8.132105">
|
|
<ele>23.472364</ele>
|
|
<time>2026-07-12T15:12:13.000Z</time>
|
|
</trkpt>
|
|
<trkpt lat="56.133216" lon="8.132130">
|
|
<ele>23.483385</ele>
|
|
<time>2026-07-12T15:12:14.000Z</time>
|
|
</trkpt>
|
|
<trkpt lat="56.133268" lon="8.132157">
|
|
<ele>23.495097</ele>
|
|
<time>2026-07-12T15:12:15.000Z</time>
|
|
</trkpt>
|
|
<trkpt lat="56.133319" lon="8.132183">
|
|
<ele>23.506567</ele>
|
|
<time>2026-07-12T15:12:16.000Z</time>
|
|
</trkpt>
|
|
<trkpt lat="56.133369" lon="8.132209">
|
|
<ele>23.517830</ele>
|
|
<time>2026-07-12T15:12:17.000Z</time>
|
|
</trkpt>
|
|
<trkpt lat="56.133422" lon="8.132236">
|
|
<ele>23.529750</ele>
|
|
<time>2026-07-12T15:12:18.000Z</time>
|
|
</trkpt>
|
|
<trkpt lat="56.133472" lon="8.132260">
|
|
<ele>23.540948</ele>
|
|
<time>2026-07-12T15:12:19.000Z</time>
|
|
</trkpt>
|
|
<trkpt lat="56.133525" lon="8.132285">
|
|
<ele>23.552804</ele>
|
|
<time>2026-07-12T15:12:20.000Z</time>
|
|
</trkpt>
|
|
<trkpt lat="56.133574" lon="8.132315">
|
|
<ele>23.558665</ele>
|
|
<time>2026-07-12T15:12:21.000Z</time>
|
|
</trkpt>
|
|
<trkpt lat="56.133621" lon="8.132347">
|
|
<ele>23.558617</ele>
|
|
<time>2026-07-12T15:12:22.000Z</time>
|
|
</trkpt>
|
|
<trkpt lat="56.133671" lon="8.132374">
|
|
<ele>23.558568</ele>
|
|
<time>2026-07-12T15:12:23.000Z</time>
|
|
</trkpt>
|
|
<trkpt lat="56.133722" lon="8.132398">
|
|
<ele>23.558518</ele>
|
|
<time>2026-07-12T15:12:24.000Z</time>
|
|
</trkpt>
|
|
<trkpt lat="56.133775" lon="8.132421">
|
|
<ele>23.558466</ele>
|
|
<time>2026-07-12T15:12:25.000Z</time>
|
|
</trkpt>
|
|
<trkpt lat="56.133828" lon="8.132444">
|
|
<ele>23.558414</ele>
|
|
<time>2026-07-12T15:12:26.000Z</time>
|
|
</trkpt>
|
|
<trkpt lat="56.133877" lon="8.132465">
|
|
<ele>23.558366</ele>
|
|
<time>2026-07-12T15:12:27.000Z</time>
|
|
</trkpt>
|
|
<trkpt lat="56.133926" lon="8.132487">
|
|
<ele>23.558318</ele>
|
|
<time>2026-07-12T15:12:28.000Z</time>
|
|
</trkpt>
|
|
<trkpt lat="56.133975" lon="8.132508">
|
|
<ele>23.558271</ele>
|
|
<time>2026-07-12T15:12:29.000Z</time>
|
|
</trkpt>
|
|
<trkpt lat="56.134027" lon="8.132532">
|
|
<ele>23.558220</ele>
|
|
<time>2026-07-12T15:12:30.000Z</time>
|
|
</trkpt>
|
|
<trkpt lat="56.134079" lon="8.132556">
|
|
<ele>23.558169</ele>
|
|
<time>2026-07-12T15:12:31.000Z</time>
|
|
</trkpt>
|
|
<trkpt lat="56.134129" lon="8.132580">
|
|
<ele>23.558119</ele>
|
|
<time>2026-07-12T15:12:32.000Z</time>
|
|
</trkpt>
|
|
<trkpt lat="56.134178" lon="8.132604">
|
|
<ele>23.558071</ele>
|
|
<time>2026-07-12T15:12:33.000Z</time>
|
|
</trkpt>
|
|
<trkpt lat="56.134227" lon="8.132626">
|
|
<ele>23.558023</ele>
|
|
<time>2026-07-12T15:12:34.000Z</time>
|
|
</trkpt>
|
|
<trkpt lat="56.134278" lon="8.132648">
|
|
<ele>23.557973</ele>
|
|
<time>2026-07-12T15:12:35.000Z</time>
|
|
</trkpt>
|
|
<trkpt lat="56.134327" lon="8.132671">
|
|
<ele>23.557925</ele>
|
|
<time>2026-07-12T15:12:36.000Z</time>
|
|
</trkpt>
|
|
<trkpt lat="56.134376" lon="8.132695">
|
|
<ele>23.557877</ele>
|
|
<time>2026-07-12T15:12:37.000Z</time>
|
|
</trkpt>
|
|
<trkpt lat="56.134426" lon="8.132721">
|
|
<ele>23.557828</ele>
|
|
<time>2026-07-12T15:12:38.000Z</time>
|
|
</trkpt>
|
|
<trkpt lat="56.134473" lon="8.132744">
|
|
<ele>23.557782</ele>
|
|
<time>2026-07-12T15:12:39.000Z</time>
|
|
</trkpt>
|
|
<trkpt lat="56.134520" lon="8.132766">
|
|
<ele>23.557735</ele>
|
|
<time>2026-07-12T15:12:40.000Z</time>
|
|
</trkpt>
|
|
<trkpt lat="56.134571" lon="8.132789">
|
|
<ele>23.557685</ele>
|
|
<time>2026-07-12T15:12:41.000Z</time>
|
|
</trkpt>
|
|
<trkpt lat="56.134620" lon="8.132814">
|
|
<ele>23.557637</ele>
|
|
<time>2026-07-12T15:12:42.000Z</time>
|
|
</trkpt>
|
|
<trkpt lat="56.134667" lon="8.132840">
|
|
<ele>23.557590</ele>
|
|
<time>2026-07-12T15:12:43.000Z</time>
|
|
</trkpt>
|
|
<trkpt lat="56.134715" lon="8.132864">
|
|
<ele>23.557543</ele>
|
|
<time>2026-07-12T15:12:44.000Z</time>
|
|
</trkpt>
|
|
<trkpt lat="56.134764" lon="8.132886">
|
|
<ele>23.557495</ele>
|
|
<time>2026-07-12T15:12:45.000Z</time>
|
|
</trkpt>
|
|
<trkpt lat="56.134815" lon="8.132910">
|
|
<ele>23.557445</ele>
|
|
<time>2026-07-12T15:12:46.000Z</time>
|
|
</trkpt>
|
|
<trkpt lat="56.134864" lon="8.132933">
|
|
<ele>23.557397</ele>
|
|
<time>2026-07-12T15:12:47.000Z</time>
|
|
</trkpt>
|
|
<trkpt lat="56.134911" lon="8.132956">
|
|
<ele>23.557351</ele>
|
|
<time>2026-07-12T15:12:48.000Z</time>
|
|
</trkpt>
|
|
<trkpt lat="56.134960" lon="8.132978">
|
|
<ele>23.557303</ele>
|
|
<time>2026-07-12T15:12:49.000Z</time>
|
|
</trkpt>
|
|
<trkpt lat="56.135010" lon="8.132998">
|
|
<ele>23.557254</ele>
|
|
<time>2026-07-12T15:12:50.000Z</time>
|
|
</trkpt>
|
|
<trkpt lat="56.135059" lon="8.133016">
|
|
<ele>23.557207</ele>
|
|
<time>2026-07-12T15:12:51.000Z</time>
|
|
</trkpt>
|
|
<trkpt lat="56.135109" lon="8.133034">
|
|
<ele>23.557158</ele>
|
|
<time>2026-07-12T15:12:52.000Z</time>
|
|
</trkpt>
|
|
<trkpt lat="56.135159" lon="8.133052">
|
|
<ele>23.557110</ele>
|
|
<time>2026-07-12T15:12:53.000Z</time>
|
|
</trkpt>
|
|
<trkpt lat="56.135207" lon="8.133067">
|
|
<ele>23.557064</ele>
|
|
<time>2026-07-12T15:12:54.000Z</time>
|
|
</trkpt>
|
|
<trkpt lat="56.135256" lon="8.133082">
|
|
<ele>23.557016</ele>
|
|
<time>2026-07-12T15:12:55.000Z</time>
|
|
</trkpt>
|
|
<trkpt lat="56.135307" lon="8.133099">
|
|
<ele>23.553146</ele>
|
|
<time>2026-07-12T15:12:56.000Z</time>
|
|
</trkpt>
|
|
<trkpt lat="56.135356" lon="8.133113">
|
|
<ele>23.539870</ele>
|
|
<time>2026-07-12T15:12:57.000Z</time>
|
|
</trkpt>
|
|
<trkpt lat="56.135406" lon="8.133126">
|
|
<ele>23.526352</ele>
|
|
<time>2026-07-12T15:12:58.000Z</time>
|
|
</trkpt>
|
|
<trkpt lat="56.135456" lon="8.133136">
|
|
<ele>23.512891</ele>
|
|
<time>2026-07-12T15:12:59.000Z</time>
|
|
</trkpt>
|
|
<trkpt lat="56.135506" lon="8.133148">
|
|
<ele>23.499394</ele>
|
|
<time>2026-07-12T15:13:00.000Z</time>
|
|
</trkpt>
|
|
<trkpt lat="56.135556" lon="8.133161">
|
|
<ele>23.485876</ele>
|
|
<time>2026-07-12T15:13:01.000Z</time>
|
|
</trkpt>
|
|
<trkpt lat="56.135603" lon="8.133175">
|
|
<ele>23.473128</ele>
|
|
<time>2026-07-12T15:13:02.000Z</time>
|
|
</trkpt>
|
|
<trkpt lat="56.135652" lon="8.133188">
|
|
<ele>23.459875</ele>
|
|
<time>2026-07-12T15:13:03.000Z</time>
|
|
</trkpt>
|
|
<trkpt lat="56.135702" lon="8.133198">
|
|
<ele>23.446414</ele>
|
|
<time>2026-07-12T15:13:04.000Z</time>
|
|
</trkpt>
|
|
<trkpt lat="56.135749" lon="8.133206">
|
|
<ele>23.433782</ele>
|
|
<time>2026-07-12T15:13:05.000Z</time>
|
|
</trkpt>
|
|
<trkpt lat="56.135799" lon="8.133213">
|
|
<ele>23.420363</ele>
|
|
<time>2026-07-12T15:13:06.000Z</time>
|
|
</trkpt>
|
|
<trkpt lat="56.135849" lon="8.133220">
|
|
<ele>23.406944</ele>
|
|
<time>2026-07-12T15:13:07.000Z</time>
|
|
</trkpt>
|
|
<trkpt lat="56.135897" lon="8.133227">
|
|
<ele>23.394058</ele>
|
|
<time>2026-07-12T15:13:08.000Z</time>
|
|
</trkpt>
|
|
<trkpt lat="56.135943" lon="8.133232">
|
|
<ele>23.381728</ele>
|
|
<time>2026-07-12T15:13:09.000Z</time>
|
|
</trkpt>
|
|
<trkpt lat="56.135990" lon="8.133237">
|
|
<ele>23.369130</ele>
|
|
<time>2026-07-12T15:13:10.000Z</time>
|
|
</trkpt>
|
|
<trkpt lat="56.136038" lon="8.133242">
|
|
<ele>23.356265</ele>
|
|
<time>2026-07-12T15:13:11.000Z</time>
|
|
</trkpt>
|
|
<trkpt lat="56.136084" lon="8.133247">
|
|
<ele>23.343934</ele>
|
|
<time>2026-07-12T15:13:12.000Z</time>
|
|
</trkpt>
|
|
<trkpt lat="56.136130" lon="8.133249">
|
|
<ele>23.331623</ele>
|
|
<time>2026-07-12T15:13:13.000Z</time>
|
|
</trkpt>
|
|
<trkpt lat="56.136176" lon="8.133253">
|
|
<ele>23.319300</ele>
|
|
<time>2026-07-12T15:13:14.000Z</time>
|
|
</trkpt>
|
|
<trkpt lat="56.136223" lon="8.133257">
|
|
<ele>23.306711</ele>
|
|
<time>2026-07-12T15:13:15.000Z</time>
|
|
</trkpt>
|
|
<trkpt lat="56.136271" lon="8.133259">
|
|
<ele>23.293864</ele>
|
|
<time>2026-07-12T15:13:16.000Z</time>
|
|
</trkpt>
|
|
<trkpt lat="56.136317" lon="8.133264">
|
|
<ele>23.281533</ele>
|
|
<time>2026-07-12T15:13:17.000Z</time>
|
|
</trkpt>
|
|
<trkpt lat="56.136363" lon="8.133273">
|
|
<ele>23.269152</ele>
|
|
<time>2026-07-12T15:13:18.000Z</time>
|
|
</trkpt>
|
|
<trkpt lat="56.136409" lon="8.133282">
|
|
<ele>23.256771</ele>
|
|
<time>2026-07-12T15:13:19.000Z</time>
|
|
</trkpt>
|
|
<trkpt lat="56.136455" lon="8.133288">
|
|
<ele>23.244431</ele>
|
|
<time>2026-07-12T15:13:20.000Z</time>
|
|
</trkpt>
|
|
<trkpt lat="56.136499" lon="8.133293">
|
|
<ele>23.232634</ele>
|
|
<time>2026-07-12T15:13:21.000Z</time>
|
|
</trkpt>
|
|
<trkpt lat="56.136542" lon="8.133297">
|
|
<ele>23.221113</ele>
|
|
<time>2026-07-12T15:13:22.000Z</time>
|
|
</trkpt>
|
|
<trkpt lat="56.136586" lon="8.133302">
|
|
<ele>23.209317</ele>
|
|
<time>2026-07-12T15:13:23.000Z</time>
|
|
</trkpt>
|
|
<trkpt lat="56.136629" lon="8.133308">
|
|
<ele>23.197777</ele>
|
|
<time>2026-07-12T15:13:24.000Z</time>
|
|
</trkpt>
|
|
<trkpt lat="56.136675" lon="8.133313">
|
|
<ele>23.185446</ele>
|
|
<time>2026-07-12T15:13:25.000Z</time>
|
|
</trkpt>
|
|
<trkpt lat="56.136718" lon="8.133318">
|
|
<ele>23.173917</ele>
|
|
<time>2026-07-12T15:13:26.000Z</time>
|
|
</trkpt>
|
|
<trkpt lat="56.136761" lon="8.133321">
|
|
<ele>23.162403</ele>
|
|
<time>2026-07-12T15:13:27.000Z</time>
|
|
</trkpt>
|
|
<trkpt lat="56.136805" lon="8.133324">
|
|
<ele>23.150621</ele>
|
|
<time>2026-07-12T15:13:28.000Z</time>
|
|
</trkpt>
|
|
<trkpt lat="56.136850" lon="8.133327">
|
|
<ele>23.138573</ele>
|
|
<time>2026-07-12T15:13:29.000Z</time>
|
|
</trkpt>
|
|
<trkpt lat="56.136892" lon="8.133335">
|
|
<ele>23.127272</ele>
|
|
<time>2026-07-12T15:13:30.000Z</time>
|
|
</trkpt>
|
|
<trkpt lat="56.136938" lon="8.133344">
|
|
<ele>23.114891</ele>
|
|
<time>2026-07-12T15:13:31.000Z</time>
|
|
</trkpt>
|
|
<trkpt lat="56.136983" lon="8.133348">
|
|
<ele>23.102835</ele>
|
|
<time>2026-07-12T15:13:32.000Z</time>
|
|
</trkpt>
|
|
<trkpt lat="56.137025" lon="8.133353">
|
|
<ele>23.091573</ele>
|
|
<time>2026-07-12T15:13:33.000Z</time>
|
|
</trkpt>
|
|
<trkpt lat="56.137072" lon="8.133356">
|
|
<ele>23.078989</ele>
|
|
<time>2026-07-12T15:13:34.000Z</time>
|
|
</trkpt>
|
|
<trkpt lat="56.137118" lon="8.133359">
|
|
<ele>23.076731</ele>
|
|
<time>2026-07-12T15:13:35.000Z</time>
|
|
</trkpt>
|
|
<trkpt lat="56.137164" lon="8.133363">
|
|
<ele>23.078102</ele>
|
|
<time>2026-07-12T15:13:36.000Z</time>
|
|
</trkpt>
|
|
<trkpt lat="56.137208" lon="8.133367">
|
|
<ele>23.079414</ele>
|
|
<time>2026-07-12T15:13:37.000Z</time>
|
|
</trkpt>
|
|
<trkpt lat="56.137251" lon="8.133371">
|
|
<ele>23.080696</ele>
|
|
<time>2026-07-12T15:13:38.000Z</time>
|
|
</trkpt>
|
|
<trkpt lat="56.137297" lon="8.133374">
|
|
<ele>23.082066</ele>
|
|
<time>2026-07-12T15:13:39.000Z</time>
|
|
</trkpt>
|
|
<trkpt lat="56.137343" lon="8.133376">
|
|
<ele>23.083436</ele>
|
|
<time>2026-07-12T15:13:40.000Z</time>
|
|
</trkpt>
|
|
<trkpt lat="56.137389" lon="8.133376">
|
|
<ele>23.084806</ele>
|
|
<time>2026-07-12T15:13:41.000Z</time>
|
|
</trkpt>
|
|
<trkpt lat="56.137435" lon="8.133374">
|
|
<ele>23.086176</ele>
|
|
<time>2026-07-12T15:13:42.000Z</time>
|
|
</trkpt>
|
|
<trkpt lat="56.137480" lon="8.133375">
|
|
<ele>23.087515</ele>
|
|
<time>2026-07-12T15:13:43.000Z</time>
|
|
</trkpt>
|
|
<trkpt lat="56.137525" lon="8.133380">
|
|
<ele>23.088858</ele>
|
|
<time>2026-07-12T15:13:44.000Z</time>
|
|
</trkpt>
|
|
<trkpt lat="56.137570" lon="8.133386">
|
|
<ele>23.090201</ele>
|
|
<time>2026-07-12T15:13:45.000Z</time>
|
|
</trkpt>
|
|
<trkpt lat="56.137618" lon="8.133390">
|
|
<ele>23.091632</ele>
|
|
<time>2026-07-12T15:13:46.000Z</time>
|
|
</trkpt>
|
|
<trkpt lat="56.137664" lon="8.133395">
|
|
<ele>23.093003</ele>
|
|
<time>2026-07-12T15:13:47.000Z</time>
|
|
</trkpt>
|
|
<trkpt lat="56.137710" lon="8.133397">
|
|
<ele>23.094373</ele>
|
|
<time>2026-07-12T15:13:48.000Z</time>
|
|
</trkpt>
|
|
<trkpt lat="56.137755" lon="8.133398">
|
|
<ele>23.095713</ele>
|
|
<time>2026-07-12T15:13:49.000Z</time>
|
|
</trkpt>
|
|
<trkpt lat="56.137801" lon="8.133398">
|
|
<ele>23.097083</ele>
|
|
<time>2026-07-12T15:13:50.000Z</time>
|
|
</trkpt>
|
|
<trkpt lat="56.137846" lon="8.133399">
|
|
<ele>23.098422</ele>
|
|
<time>2026-07-12T15:13:51.000Z</time>
|
|
</trkpt>
|
|
<trkpt lat="56.137890" lon="8.133403">
|
|
<ele>23.099734</ele>
|
|
<time>2026-07-12T15:13:52.000Z</time>
|
|
</trkpt>
|
|
<trkpt lat="56.137939" lon="8.133406">
|
|
<ele>23.101194</ele>
|
|
<time>2026-07-12T15:13:53.000Z</time>
|
|
</trkpt>
|
|
<trkpt lat="56.137984" lon="8.133409">
|
|
<ele>23.102534</ele>
|
|
<time>2026-07-12T15:13:54.000Z</time>
|
|
</trkpt>
|
|
<trkpt lat="56.138030" lon="8.133411">
|
|
<ele>23.103904</ele>
|
|
<time>2026-07-12T15:13:55.000Z</time>
|
|
</trkpt>
|
|
<trkpt lat="56.138075" lon="8.133412">
|
|
<ele>23.105244</ele>
|
|
<time>2026-07-12T15:13:56.000Z</time>
|
|
</trkpt>
|
|
<trkpt lat="56.138119" lon="8.133414">
|
|
<ele>23.106554</ele>
|
|
<time>2026-07-12T15:13:57.000Z</time>
|
|
</trkpt>
|
|
<trkpt lat="56.138163" lon="8.133416">
|
|
<ele>23.107865</ele>
|
|
<time>2026-07-12T15:13:58.000Z</time>
|
|
</trkpt>
|
|
<trkpt lat="56.138208" lon="8.133418">
|
|
<ele>23.109205</ele>
|
|
<time>2026-07-12T15:13:59.000Z</time>
|
|
</trkpt>
|
|
<trkpt lat="56.138251" lon="8.133418">
|
|
<ele>23.110485</ele>
|
|
<time>2026-07-12T15:14:00.000Z</time>
|
|
</trkpt>
|
|
<trkpt lat="56.138295" lon="8.133419">
|
|
<ele>23.111795</ele>
|
|
<time>2026-07-12T15:14:01.000Z</time>
|
|
</trkpt>
|
|
<trkpt lat="56.138338" lon="8.133421">
|
|
<ele>23.113076</ele>
|
|
<time>2026-07-12T15:14:02.000Z</time>
|
|
</trkpt>
|
|
<trkpt lat="56.138383" lon="8.133422">
|
|
<ele>23.114415</ele>
|
|
<time>2026-07-12T15:14:03.000Z</time>
|
|
</trkpt>
|
|
<trkpt lat="56.138429" lon="8.133420">
|
|
<ele>23.115785</ele>
|
|
<time>2026-07-12T15:14:04.000Z</time>
|
|
</trkpt>
|
|
<trkpt lat="56.138472" lon="8.133415">
|
|
<ele>23.117068</ele>
|
|
<time>2026-07-12T15:14:05.000Z</time>
|
|
</trkpt>
|
|
<trkpt lat="56.138517" lon="8.133408">
|
|
<ele>23.118413</ele>
|
|
<time>2026-07-12T15:14:06.000Z</time>
|
|
</trkpt>
|
|
<trkpt lat="56.138557" lon="8.133403">
|
|
<ele>23.119607</ele>
|
|
<time>2026-07-12T15:14:07.000Z</time>
|
|
</trkpt>
|
|
<trkpt lat="56.138597" lon="8.133399">
|
|
<ele>23.120799</ele>
|
|
<time>2026-07-12T15:14:08.000Z</time>
|
|
</trkpt>
|
|
<trkpt lat="56.138646" lon="8.133393">
|
|
<ele>23.122261</ele>
|
|
<time>2026-07-12T15:14:09.000Z</time>
|
|
</trkpt>
|
|
<trkpt lat="56.138690" lon="8.133386">
|
|
<ele>23.123576</ele>
|
|
<time>2026-07-12T15:14:10.000Z</time>
|
|
</trkpt>
|
|
<trkpt lat="56.138739" lon="8.133376">
|
|
<ele>23.125045</ele>
|
|
<time>2026-07-12T15:14:11.000Z</time>
|
|
</trkpt>
|
|
<trkpt lat="56.138785" lon="8.133363">
|
|
<ele>23.126431</ele>
|
|
<time>2026-07-12T15:14:12.000Z</time>
|
|
</trkpt>
|
|
<trkpt lat="56.138830" lon="8.133346">
|
|
<ele>23.127800</ele>
|
|
<time>2026-07-12T15:14:13.000Z</time>
|
|
</trkpt>
|
|
<trkpt lat="56.138873" lon="8.133328">
|
|
<ele>23.129115</ele>
|
|
<time>2026-07-12T15:14:14.000Z</time>
|
|
</trkpt>
|
|
<trkpt lat="56.138919" lon="8.133312">
|
|
<ele>23.148682</ele>
|
|
<time>2026-07-12T15:14:15.000Z</time>
|
|
</trkpt>
|
|
<trkpt lat="56.138962" lon="8.133294">
|
|
<ele>23.169297</ele>
|
|
<time>2026-07-12T15:14:16.000Z</time>
|
|
</trkpt>
|
|
<trkpt lat="56.139005" lon="8.133273">
|
|
<ele>23.190103</ele>
|
|
<time>2026-07-12T15:14:17.000Z</time>
|
|
</trkpt>
|
|
<trkpt lat="56.139048" lon="8.133250">
|
|
<ele>23.211052</ele>
|
|
<time>2026-07-12T15:14:18.000Z</time>
|
|
</trkpt>
|
|
<trkpt lat="56.139086" lon="8.133228">
|
|
<ele>23.229694</ele>
|
|
<time>2026-07-12T15:14:19.000Z</time>
|
|
</trkpt>
|
|
<trkpt lat="56.139135" lon="8.133201">
|
|
<ele>23.253625</ele>
|
|
<time>2026-07-12T15:14:20.000Z</time>
|
|
</trkpt>
|
|
<trkpt lat="56.139177" lon="8.133178">
|
|
<ele>23.274127</ele>
|
|
<time>2026-07-12T15:14:21.000Z</time>
|
|
</trkpt>
|
|
<trkpt lat="56.139216" lon="8.133157">
|
|
<ele>23.293138</ele>
|
|
<time>2026-07-12T15:14:22.000Z</time>
|
|
</trkpt>
|
|
<trkpt lat="56.139255" lon="8.133135">
|
|
<ele>23.312225</ele>
|
|
<time>2026-07-12T15:14:23.000Z</time>
|
|
</trkpt>
|
|
<trkpt lat="56.139297" lon="8.133112">
|
|
<ele>23.332726</ele>
|
|
<time>2026-07-12T15:14:24.000Z</time>
|
|
</trkpt>
|
|
<trkpt lat="56.139336" lon="8.133094">
|
|
<ele>23.351528</ele>
|
|
<time>2026-07-12T15:14:25.000Z</time>
|
|
</trkpt>
|
|
<trkpt lat="56.139378" lon="8.133078">
|
|
<ele>23.371574</ele>
|
|
<time>2026-07-12T15:14:26.000Z</time>
|
|
</trkpt>
|
|
<trkpt lat="56.139418" lon="8.133064">
|
|
<ele>23.390601</ele>
|
|
<time>2026-07-12T15:14:27.000Z</time>
|
|
</trkpt>
|
|
<trkpt lat="56.139462" lon="8.133044">
|
|
<ele>23.411793</ele>
|
|
<time>2026-07-12T15:14:28.000Z</time>
|
|
</trkpt>
|
|
<trkpt lat="56.139503" lon="8.133021">
|
|
<ele>23.431849</ele>
|
|
<time>2026-07-12T15:14:29.000Z</time>
|
|
</trkpt>
|
|
<trkpt lat="56.139545" lon="8.132996">
|
|
<ele>23.452508</ele>
|
|
<time>2026-07-12T15:14:30.000Z</time>
|
|
</trkpt>
|
|
<trkpt lat="56.139585" lon="8.132973">
|
|
<ele>23.472119</ele>
|
|
<time>2026-07-12T15:14:31.000Z</time>
|
|
</trkpt>
|
|
<trkpt lat="56.139627" lon="8.132953">
|
|
<ele>23.492407</ele>
|
|
<time>2026-07-12T15:14:32.000Z</time>
|
|
</trkpt>
|
|
<trkpt lat="56.139665" lon="8.132936">
|
|
<ele>23.510691</ele>
|
|
<time>2026-07-12T15:14:33.000Z</time>
|
|
</trkpt>
|
|
<trkpt lat="56.139702" lon="8.132919">
|
|
<ele>23.528523</ele>
|
|
<time>2026-07-12T15:14:34.000Z</time>
|
|
</trkpt>
|
|
<trkpt lat="56.139749" lon="8.132897">
|
|
<ele>23.551201</ele>
|
|
<time>2026-07-12T15:14:35.000Z</time>
|
|
</trkpt>
|
|
<trkpt lat="56.139792" lon="8.132877">
|
|
<ele>23.571940</ele>
|
|
<time>2026-07-12T15:14:36.000Z</time>
|
|
</trkpt>
|
|
<trkpt lat="56.139834" lon="8.132857">
|
|
<ele>23.592228</ele>
|
|
<time>2026-07-12T15:14:37.000Z</time>
|
|
</trkpt>
|
|
<trkpt lat="56.139873" lon="8.132836">
|
|
<ele>23.611239</ele>
|
|
<time>2026-07-12T15:14:38.000Z</time>
|
|
</trkpt>
|
|
<trkpt lat="56.139916" lon="8.132813">
|
|
<ele>23.632188</ele>
|
|
<time>2026-07-12T15:14:39.000Z</time>
|
|
</trkpt>
|
|
<trkpt lat="56.139958" lon="8.132792">
|
|
<ele>23.652544</ele>
|
|
<time>2026-07-12T15:14:40.000Z</time>
|
|
</trkpt>
|
|
<trkpt lat="56.140001" lon="8.132773">
|
|
<ele>23.673219</ele>
|
|
<time>2026-07-12T15:14:41.000Z</time>
|
|
</trkpt>
|
|
<trkpt lat="56.140042" lon="8.132754">
|
|
<ele>23.692990</ele>
|
|
<time>2026-07-12T15:14:42.000Z</time>
|
|
</trkpt>
|
|
<trkpt lat="56.140083" lon="8.132735">
|
|
<ele>23.712760</ele>
|
|
<time>2026-07-12T15:14:43.000Z</time>
|
|
</trkpt>
|
|
<trkpt lat="56.140122" lon="8.132717">
|
|
<ele>23.731561</ele>
|
|
<time>2026-07-12T15:14:44.000Z</time>
|
|
</trkpt>
|
|
<trkpt lat="56.140164" lon="8.132700">
|
|
<ele>23.751663</ele>
|
|
<time>2026-07-12T15:14:45.000Z</time>
|
|
</trkpt>
|
|
<trkpt lat="56.140207" lon="8.132686">
|
|
<ele>23.772067</ele>
|
|
<time>2026-07-12T15:14:46.000Z</time>
|
|
</trkpt>
|
|
<trkpt lat="56.140252" lon="8.132671">
|
|
<ele>23.793436</ele>
|
|
<time>2026-07-12T15:14:47.000Z</time>
|
|
</trkpt>
|
|
<trkpt lat="56.140295" lon="8.132656">
|
|
<ele>23.813888</ele>
|
|
<time>2026-07-12T15:14:48.000Z</time>
|
|
</trkpt>
|
|
<trkpt lat="56.140340" lon="8.132641">
|
|
<ele>23.835257</ele>
|
|
<time>2026-07-12T15:14:49.000Z</time>
|
|
</trkpt>
|
|
<trkpt lat="56.140383" lon="8.132627">
|
|
<ele>23.855661</ele>
|
|
<time>2026-07-12T15:14:50.000Z</time>
|
|
</trkpt>
|
|
<trkpt lat="56.140428" lon="8.132615">
|
|
<ele>23.876902</ele>
|
|
<time>2026-07-12T15:14:51.000Z</time>
|
|
</trkpt>
|
|
<trkpt lat="56.140469" lon="8.132603">
|
|
<ele>23.896297</ele>
|
|
<time>2026-07-12T15:14:52.000Z</time>
|
|
</trkpt>
|
|
<trkpt lat="56.140513" lon="8.132594">
|
|
<ele>23.916973</ele>
|
|
<time>2026-07-12T15:14:53.000Z</time>
|
|
</trkpt>
|
|
<trkpt lat="56.140557" lon="8.132585">
|
|
<ele>23.937649</ele>
|
|
<time>2026-07-12T15:14:54.000Z</time>
|
|
</trkpt>
|
|
<trkpt lat="56.140601" lon="8.132578">
|
|
<ele>23.958273</ele>
|
|
<time>2026-07-12T15:14:55.000Z</time>
|
|
</trkpt>
|
|
<trkpt lat="56.140646" lon="8.132573">
|
|
<ele>23.970857</ele>
|
|
<time>2026-07-12T15:14:56.000Z</time>
|
|
</trkpt>
|
|
<trkpt lat="56.140691" lon="8.132569">
|
|
<ele>23.974576</ele>
|
|
<time>2026-07-12T15:14:57.000Z</time>
|
|
</trkpt>
|
|
<trkpt lat="56.140733" lon="8.132565">
|
|
<ele>23.978048</ele>
|
|
<time>2026-07-12T15:14:58.000Z</time>
|
|
</trkpt>
|
|
<trkpt lat="56.140773" lon="8.132562">
|
|
<ele>23.981352</ele>
|
|
<time>2026-07-12T15:14:59.000Z</time>
|
|
</trkpt>
|
|
<trkpt lat="56.140813" lon="8.132557">
|
|
<ele>23.984662</ele>
|
|
<time>2026-07-12T15:15:00.000Z</time>
|
|
</trkpt>
|
|
<trkpt lat="56.140863" lon="8.132553">
|
|
<ele>23.988793</ele>
|
|
<time>2026-07-12T15:15:01.000Z</time>
|
|
</trkpt>
|
|
<trkpt lat="56.140907" lon="8.132553">
|
|
<ele>23.992425</ele>
|
|
<time>2026-07-12T15:15:02.000Z</time>
|
|
</trkpt>
|
|
<trkpt lat="56.140956" lon="8.132555">
|
|
<ele>23.996471</ele>
|
|
<time>2026-07-12T15:15:03.000Z</time>
|
|
</trkpt>
|
|
<trkpt lat="56.141002" lon="8.132559">
|
|
<ele>24.000272</ele>
|
|
<time>2026-07-12T15:15:04.000Z</time>
|
|
</trkpt>
|
|
<trkpt lat="56.141047" lon="8.132564">
|
|
<ele>24.003994</ele>
|
|
<time>2026-07-12T15:15:05.000Z</time>
|
|
</trkpt>
|
|
<trkpt lat="56.141095" lon="8.132570">
|
|
<ele>24.007965</ele>
|
|
<time>2026-07-12T15:15:06.000Z</time>
|
|
</trkpt>
|
|
<trkpt lat="56.141143" lon="8.132578">
|
|
<ele>24.011944</ele>
|
|
<time>2026-07-12T15:15:07.000Z</time>
|
|
</trkpt>
|
|
<trkpt lat="56.141188" lon="8.132584">
|
|
<ele>24.015669</ele>
|
|
<time>2026-07-12T15:15:08.000Z</time>
|
|
</trkpt>
|
|
<trkpt lat="56.141233" lon="8.132587">
|
|
<ele>24.019386</ele>
|
|
<time>2026-07-12T15:15:09.000Z</time>
|
|
</trkpt>
|
|
<trkpt lat="56.141279" lon="8.132589">
|
|
<ele>24.023184</ele>
|
|
<time>2026-07-12T15:15:10.000Z</time>
|
|
</trkpt>
|
|
<trkpt lat="56.141326" lon="8.132592">
|
|
<ele>24.027066</ele>
|
|
<time>2026-07-12T15:15:11.000Z</time>
|
|
</trkpt>
|
|
<trkpt lat="56.141372" lon="8.132595">
|
|
<ele>24.030865</ele>
|
|
<time>2026-07-12T15:15:12.000Z</time>
|
|
</trkpt>
|
|
<trkpt lat="56.141417" lon="8.132600">
|
|
<ele>24.034587</ele>
|
|
<time>2026-07-12T15:15:13.000Z</time>
|
|
</trkpt>
|
|
<trkpt lat="56.141462" lon="8.132606">
|
|
<ele>24.038311</ele>
|
|
<time>2026-07-12T15:15:14.000Z</time>
|
|
</trkpt>
|
|
<trkpt lat="56.141505" lon="8.132613">
|
|
<ele>24.041875</ele>
|
|
<time>2026-07-12T15:15:15.000Z</time>
|
|
</trkpt>
|
|
<trkpt lat="56.141550" lon="8.132620">
|
|
<ele>24.045603</ele>
|
|
<time>2026-07-12T15:15:16.000Z</time>
|
|
</trkpt>
|
|
<trkpt lat="56.141597" lon="8.132626">
|
|
<ele>24.049493</ele>
|
|
<time>2026-07-12T15:15:17.000Z</time>
|
|
</trkpt>
|
|
<trkpt lat="56.141641" lon="8.132633">
|
|
<ele>24.053139</ele>
|
|
<time>2026-07-12T15:15:18.000Z</time>
|
|
</trkpt>
|
|
<trkpt lat="56.141684" lon="8.132642">
|
|
<ele>24.056712</ele>
|
|
<time>2026-07-12T15:15:19.000Z</time>
|
|
</trkpt>
|
|
<trkpt lat="56.141729" lon="8.132655">
|
|
<ele>24.060474</ele>
|
|
<time>2026-07-12T15:15:20.000Z</time>
|
|
</trkpt>
|
|
<trkpt lat="56.141775" lon="8.132669">
|
|
<ele>24.064325</ele>
|
|
<time>2026-07-12T15:15:21.000Z</time>
|
|
</trkpt>
|
|
<trkpt lat="56.141818" lon="8.132681">
|
|
<ele>24.067917</ele>
|
|
<time>2026-07-12T15:15:22.000Z</time>
|
|
</trkpt>
|
|
<trkpt lat="56.141862" lon="8.132691">
|
|
<ele>24.071578</ele>
|
|
<time>2026-07-12T15:15:23.000Z</time>
|
|
</trkpt>
|
|
<trkpt lat="56.141901" lon="8.132700">
|
|
<ele>24.074824</ele>
|
|
<time>2026-07-12T15:15:24.000Z</time>
|
|
</trkpt>
|
|
<trkpt lat="56.141939" lon="8.132709">
|
|
<ele>24.077988</ele>
|
|
<time>2026-07-12T15:15:25.000Z</time>
|
|
</trkpt>
|
|
<trkpt lat="56.141987" lon="8.132730">
|
|
<ele>24.082066</ele>
|
|
<time>2026-07-12T15:15:26.000Z</time>
|
|
</trkpt>
|
|
<trkpt lat="56.142028" lon="8.132749">
|
|
<ele>24.085561</ele>
|
|
<time>2026-07-12T15:15:27.000Z</time>
|
|
</trkpt>
|
|
<trkpt lat="56.142068" lon="8.132767">
|
|
<ele>24.088965</ele>
|
|
<time>2026-07-12T15:15:28.000Z</time>
|
|
</trkpt>
|
|
<trkpt lat="56.142102" lon="8.132779">
|
|
<ele>24.091825</ele>
|
|
<time>2026-07-12T15:15:29.000Z</time>
|
|
</trkpt>
|
|
<trkpt lat="56.142159" lon="8.132797">
|
|
<ele>24.096602</ele>
|
|
<time>2026-07-12T15:15:30.000Z</time>
|
|
</trkpt>
|
|
<trkpt lat="56.142201" lon="8.132809">
|
|
<ele>24.100112</ele>
|
|
<time>2026-07-12T15:15:31.000Z</time>
|
|
</trkpt>
|
|
<trkpt lat="56.142244" lon="8.132822">
|
|
<ele>24.103712</ele>
|
|
<time>2026-07-12T15:15:32.000Z</time>
|
|
</trkpt>
|
|
<trkpt lat="56.142288" lon="8.132838">
|
|
<ele>24.107417</ele>
|
|
<time>2026-07-12T15:15:33.000Z</time>
|
|
</trkpt>
|
|
<trkpt lat="56.142333" lon="8.132857">
|
|
<ele>24.111233</ele>
|
|
<time>2026-07-12T15:15:34.000Z</time>
|
|
</trkpt>
|
|
<trkpt lat="56.142377" lon="8.132877">
|
|
<ele>24.114980</ele>
|
|
<time>2026-07-12T15:15:35.000Z</time>
|
|
</trkpt>
|
|
<trkpt lat="56.142420" lon="8.132896">
|
|
<ele>24.121309</ele>
|
|
<time>2026-07-12T15:15:36.000Z</time>
|
|
</trkpt>
|
|
<trkpt lat="56.142465" lon="8.132914">
|
|
<ele>24.134100</ele>
|
|
<time>2026-07-12T15:15:37.000Z</time>
|
|
</trkpt>
|
|
<trkpt lat="56.142507" lon="8.132931">
|
|
<ele>24.146046</ele>
|
|
<time>2026-07-12T15:15:38.000Z</time>
|
|
</trkpt>
|
|
<trkpt lat="56.142549" lon="8.132945">
|
|
<ele>24.157898</ele>
|
|
<time>2026-07-12T15:15:39.000Z</time>
|
|
</trkpt>
|
|
<trkpt lat="56.142593" lon="8.132958">
|
|
<ele>24.170270</ele>
|
|
<time>2026-07-12T15:15:40.000Z</time>
|
|
</trkpt>
|
|
<trkpt lat="56.142636" lon="8.132969">
|
|
<ele>24.182321</ele>
|
|
<time>2026-07-12T15:15:41.000Z</time>
|
|
</trkpt>
|
|
<trkpt lat="56.142677" lon="8.132981">
|
|
<ele>24.193846</ele>
|
|
<time>2026-07-12T15:15:42.000Z</time>
|
|
</trkpt>
|
|
<trkpt lat="56.142720" lon="8.132996">
|
|
<ele>24.206000</ele>
|
|
<time>2026-07-12T15:15:43.000Z</time>
|
|
</trkpt>
|
|
<trkpt lat="56.142761" lon="8.133011">
|
|
<ele>24.217609</ele>
|
|
<time>2026-07-12T15:15:44.000Z</time>
|
|
</trkpt>
|
|
<trkpt lat="56.142803" lon="8.133028">
|
|
<ele>24.229554</ele>
|
|
<time>2026-07-12T15:15:45.000Z</time>
|
|
</trkpt>
|
|
<trkpt lat="56.142846" lon="8.133047">
|
|
<ele>24.241841</ele>
|
|
<time>2026-07-12T15:15:46.000Z</time>
|
|
</trkpt>
|
|
<trkpt lat="56.142886" lon="8.133069">
|
|
<ele>24.253448</ele>
|
|
<time>2026-07-12T15:15:47.000Z</time>
|
|
</trkpt>
|
|
<trkpt lat="56.142924" lon="8.133091">
|
|
<ele>24.264526</ele>
|
|
<time>2026-07-12T15:15:48.000Z</time>
|
|
</trkpt>
|
|
<trkpt lat="56.142961" lon="8.133109">
|
|
<ele>24.275162</ele>
|
|
<time>2026-07-12T15:15:49.000Z</time>
|
|
</trkpt>
|
|
<trkpt lat="56.142998" lon="8.133126">
|
|
<ele>24.285758</ele>
|
|
<time>2026-07-12T15:15:50.000Z</time>
|
|
</trkpt>
|
|
<trkpt lat="56.143041" lon="8.133148">
|
|
<ele>24.298164</ele>
|
|
<time>2026-07-12T15:15:51.000Z</time>
|
|
</trkpt>
|
|
<trkpt lat="56.143076" lon="8.133165">
|
|
<ele>24.308224</ele>
|
|
<time>2026-07-12T15:15:52.000Z</time>
|
|
</trkpt>
|
|
<trkpt lat="56.143112" lon="8.133183">
|
|
<ele>24.318592</ele>
|
|
<time>2026-07-12T15:15:53.000Z</time>
|
|
</trkpt>
|
|
<trkpt lat="56.143143" lon="8.133203">
|
|
<ele>24.327732</ele>
|
|
<time>2026-07-12T15:15:54.000Z</time>
|
|
</trkpt>
|
|
<trkpt lat="56.143182" lon="8.133236">
|
|
<ele>24.339694</ele>
|
|
<time>2026-07-12T15:15:55.000Z</time>
|
|
</trkpt>
|
|
<trkpt lat="56.143216" lon="8.133262">
|
|
<ele>24.349948</ele>
|
|
<time>2026-07-12T15:15:56.000Z</time>
|
|
</trkpt>
|
|
<trkpt lat="56.143251" lon="8.133286">
|
|
<ele>24.360343</ele>
|
|
<time>2026-07-12T15:15:57.000Z</time>
|
|
</trkpt>
|
|
<trkpt lat="56.143285" lon="8.133307">
|
|
<ele>24.370319</ele>
|
|
<time>2026-07-12T15:15:58.000Z</time>
|
|
</trkpt>
|
|
<trkpt lat="56.143320" lon="8.133328">
|
|
<ele>24.380558</ele>
|
|
<time>2026-07-12T15:15:59.000Z</time>
|
|
</trkpt>
|
|
<trkpt lat="56.143356" lon="8.133352">
|
|
<ele>24.391213</ele>
|
|
<time>2026-07-12T15:16:00.000Z</time>
|
|
</trkpt>
|
|
<trkpt lat="56.143392" lon="8.133379">
|
|
<ele>24.402038</ele>
|
|
<time>2026-07-12T15:16:01.000Z</time>
|
|
</trkpt>
|
|
<trkpt lat="56.143425" lon="8.133406">
|
|
<ele>24.412100</ele>
|
|
<time>2026-07-12T15:16:02.000Z</time>
|
|
</trkpt>
|
|
<trkpt lat="56.143457" lon="8.133436">
|
|
<ele>24.422116</ele>
|
|
<time>2026-07-12T15:16:03.000Z</time>
|
|
</trkpt>
|
|
<trkpt lat="56.143490" lon="8.133467">
|
|
<ele>24.432450</ele>
|
|
<time>2026-07-12T15:16:04.000Z</time>
|
|
</trkpt>
|
|
<trkpt lat="56.143524" lon="8.133497">
|
|
<ele>24.442961</ele>
|
|
<time>2026-07-12T15:16:05.000Z</time>
|
|
</trkpt>
|
|
<trkpt lat="56.143554" lon="8.133525">
|
|
<ele>24.452343</ele>
|
|
<time>2026-07-12T15:16:06.000Z</time>
|
|
</trkpt>
|
|
<trkpt lat="56.143590" lon="8.133556">
|
|
<ele>24.463421</ele>
|
|
<time>2026-07-12T15:16:07.000Z</time>
|
|
</trkpt>
|
|
<trkpt lat="56.143623" lon="8.133587">
|
|
<ele>24.473755</ele>
|
|
<time>2026-07-12T15:16:08.000Z</time>
|
|
</trkpt>
|
|
<trkpt lat="56.143657" lon="8.133621">
|
|
<ele>24.484553</ele>
|
|
<time>2026-07-12T15:16:09.000Z</time>
|
|
</trkpt>
|
|
<trkpt lat="56.143688" lon="8.133652">
|
|
<ele>24.494399</ele>
|
|
<time>2026-07-12T15:16:10.000Z</time>
|
|
</trkpt>
|
|
<trkpt lat="56.143730" lon="8.133688">
|
|
<ele>24.507312</ele>
|
|
<time>2026-07-12T15:16:11.000Z</time>
|
|
</trkpt>
|
|
<trkpt lat="56.143767" lon="8.133718">
|
|
<ele>24.518576</ele>
|
|
<time>2026-07-12T15:16:12.000Z</time>
|
|
</trkpt>
|
|
<trkpt lat="56.143803" lon="8.133745">
|
|
<ele>24.529401</ele>
|
|
<time>2026-07-12T15:16:13.000Z</time>
|
|
</trkpt>
|
|
<trkpt lat="56.143836" lon="8.133772">
|
|
<ele>24.539463</ele>
|
|
<time>2026-07-12T15:16:14.000Z</time>
|
|
</trkpt>
|
|
<trkpt lat="56.143871" lon="8.133801">
|
|
<ele>24.550159</ele>
|
|
<time>2026-07-12T15:16:15.000Z</time>
|
|
</trkpt>
|
|
<trkpt lat="56.143906" lon="8.133830">
|
|
<ele>24.560854</ele>
|
|
<time>2026-07-12T15:16:16.000Z</time>
|
|
</trkpt>
|
|
<trkpt lat="56.143941" lon="8.133860">
|
|
<ele>24.571615</ele>
|
|
<time>2026-07-12T15:16:17.000Z</time>
|
|
</trkpt>
|
|
<trkpt lat="56.143976" lon="8.133889">
|
|
<ele>24.582310</ele>
|
|
<time>2026-07-12T15:16:18.000Z</time>
|
|
</trkpt>
|
|
<trkpt lat="56.144016" lon="8.133924">
|
|
<ele>24.594656</ele>
|
|
<time>2026-07-12T15:16:19.000Z</time>
|
|
</trkpt>
|
|
<trkpt lat="56.144049" lon="8.133955">
|
|
<ele>24.604990</ele>
|
|
<time>2026-07-12T15:16:20.000Z</time>
|
|
</trkpt>
|
|
<trkpt lat="56.144087" lon="8.133990">
|
|
<ele>24.617794</ele>
|
|
<time>2026-07-12T15:16:21.000Z</time>
|
|
</trkpt>
|
|
<trkpt lat="56.144124" lon="8.134022">
|
|
<ele>24.664480</ele>
|
|
<time>2026-07-12T15:16:22.000Z</time>
|
|
</trkpt>
|
|
<trkpt lat="56.144161" lon="8.134056">
|
|
<ele>24.711730</ele>
|
|
<time>2026-07-12T15:16:23.000Z</time>
|
|
</trkpt>
|
|
<trkpt lat="56.144196" lon="8.134086">
|
|
<ele>24.755819</ele>
|
|
<time>2026-07-12T15:16:24.000Z</time>
|
|
</trkpt>
|
|
<trkpt lat="56.144236" lon="8.134115">
|
|
<ele>24.804857</ele>
|
|
<time>2026-07-12T15:16:25.000Z</time>
|
|
</trkpt>
|
|
<trkpt lat="56.144273" lon="8.134144">
|
|
<ele>24.850751</ele>
|
|
<time>2026-07-12T15:16:26.000Z</time>
|
|
</trkpt>
|
|
<trkpt lat="56.144307" lon="8.134174">
|
|
<ele>24.893816</ele>
|
|
<time>2026-07-12T15:16:27.000Z</time>
|
|
</trkpt>
|
|
<trkpt lat="56.144340" lon="8.134203">
|
|
<ele>24.935583</ele>
|
|
<time>2026-07-12T15:16:28.000Z</time>
|
|
</trkpt>
|
|
<trkpt lat="56.144378" lon="8.134235">
|
|
<ele>24.983296</ele>
|
|
<time>2026-07-12T15:16:29.000Z</time>
|
|
</trkpt>
|
|
<trkpt lat="56.144413" lon="8.134269">
|
|
<ele>25.028534</ele>
|
|
<time>2026-07-12T15:16:30.000Z</time>
|
|
</trkpt>
|
|
<trkpt lat="56.144447" lon="8.134307">
|
|
<ele>25.074062</ele>
|
|
<time>2026-07-12T15:16:31.000Z</time>
|
|
</trkpt>
|
|
<trkpt lat="56.144483" lon="8.134341">
|
|
<ele>25.120303</ele>
|
|
<time>2026-07-12T15:16:32.000Z</time>
|
|
</trkpt>
|
|
<trkpt lat="56.144517" lon="8.134370">
|
|
<ele>25.163093</ele>
|
|
<time>2026-07-12T15:16:33.000Z</time>
|
|
</trkpt>
|
|
<trkpt lat="56.144552" lon="8.134399">
|
|
<ele>25.206912</ele>
|
|
<time>2026-07-12T15:16:34.000Z</time>
|
|
</trkpt>
|
|
<trkpt lat="56.144588" lon="8.134427">
|
|
<ele>25.251511</ele>
|
|
<time>2026-07-12T15:16:35.000Z</time>
|
|
</trkpt>
|
|
<trkpt lat="56.144624" lon="8.134454">
|
|
<ele>25.295862</ele>
|
|
<time>2026-07-12T15:16:36.000Z</time>
|
|
</trkpt>
|
|
<trkpt lat="56.144655" lon="8.134480">
|
|
<ele>25.334757</ele>
|
|
<time>2026-07-12T15:16:37.000Z</time>
|
|
</trkpt>
|
|
<trkpt lat="56.144683" lon="8.134504">
|
|
<ele>25.370028</ele>
|
|
<time>2026-07-12T15:16:38.000Z</time>
|
|
</trkpt>
|
|
<trkpt lat="56.144727" lon="8.134545">
|
|
<ele>25.426382</ele>
|
|
<time>2026-07-12T15:16:39.000Z</time>
|
|
</trkpt>
|
|
<trkpt lat="56.144760" lon="8.134577">
|
|
<ele>25.469018</ele>
|
|
<time>2026-07-12T15:16:40.000Z</time>
|
|
</trkpt>
|
|
<trkpt lat="56.144792" lon="8.134606">
|
|
<ele>25.509766</ele>
|
|
<time>2026-07-12T15:16:41.000Z</time>
|
|
</trkpt>
|
|
<trkpt lat="56.144822" lon="8.134633">
|
|
<ele>25.547914</ele>
|
|
<time>2026-07-12T15:16:42.000Z</time>
|
|
</trkpt>
|
|
<trkpt lat="56.144860" lon="8.134671">
|
|
<ele>25.597360</ele>
|
|
<time>2026-07-12T15:16:43.000Z</time>
|
|
</trkpt>
|
|
<trkpt lat="56.144893" lon="8.134698">
|
|
<ele>25.638585</ele>
|
|
<time>2026-07-12T15:16:44.000Z</time>
|
|
</trkpt>
|
|
<trkpt lat="56.144927" lon="8.134723">
|
|
<ele>25.680351</ele>
|
|
<time>2026-07-12T15:16:45.000Z</time>
|
|
</trkpt>
|
|
<trkpt lat="56.144955" lon="8.134747">
|
|
<ele>25.715622</ele>
|
|
<time>2026-07-12T15:16:46.000Z</time>
|
|
</trkpt>
|
|
<trkpt lat="56.144981" lon="8.134774">
|
|
<ele>25.749766</ele>
|
|
<time>2026-07-12T15:16:47.000Z</time>
|
|
</trkpt>
|
|
<trkpt lat="56.145010" lon="8.134801">
|
|
<ele>25.786902</ele>
|
|
<time>2026-07-12T15:16:48.000Z</time>
|
|
</trkpt>
|
|
<trkpt lat="56.145035" lon="8.134835">
|
|
<ele>25.822555</ele>
|
|
<time>2026-07-12T15:16:49.000Z</time>
|
|
</trkpt>
|
|
<trkpt lat="56.145053" lon="8.134871">
|
|
<ele>25.853188</ele>
|
|
<time>2026-07-12T15:16:50.000Z</time>
|
|
</trkpt>
|
|
<trkpt lat="56.145066" lon="8.134905">
|
|
<ele>25.879303</ele>
|
|
<time>2026-07-12T15:16:51.000Z</time>
|
|
</trkpt>
|
|
<trkpt lat="56.145081" lon="8.134930">
|
|
<ele>25.902570</ele>
|
|
<time>2026-07-12T15:16:52.000Z</time>
|
|
</trkpt>
|
|
<trkpt lat="56.145090" lon="8.134947">
|
|
<ele>25.917421</ele>
|
|
<time>2026-07-12T15:16:53.000Z</time>
|
|
</trkpt>
|
|
<trkpt lat="56.145175" lon="8.134970">
|
|
<ele>26.015135</ele>
|
|
<time>2026-07-12T15:22:44.000Z</time>
|
|
</trkpt>
|
|
<trkpt lat="56.145181" lon="8.134991">
|
|
<ele>26.030080</ele>
|
|
<time>2026-07-12T15:22:45.000Z</time>
|
|
</trkpt>
|
|
<trkpt lat="56.145184" lon="8.135024">
|
|
<ele>26.051254</ele>
|
|
<time>2026-07-12T15:22:46.000Z</time>
|
|
</trkpt>
|
|
<trkpt lat="56.145181" lon="8.135064">
|
|
<ele>26.076813</ele>
|
|
<time>2026-07-12T15:22:47.000Z</time>
|
|
</trkpt>
|
|
<trkpt lat="56.145174" lon="8.135108">
|
|
<ele>26.105791</ele>
|
|
<time>2026-07-12T15:22:48.000Z</time>
|
|
</trkpt>
|
|
<trkpt lat="56.145168" lon="8.135154">
|
|
<ele>26.135708</ele>
|
|
<time>2026-07-12T15:22:49.000Z</time>
|
|
</trkpt>
|
|
<trkpt lat="56.145156" lon="8.135202">
|
|
<ele>26.169025</ele>
|
|
<time>2026-07-12T15:22:50.000Z</time>
|
|
</trkpt>
|
|
<trkpt lat="56.145145" lon="8.135253">
|
|
<ele>26.203658</ele>
|
|
<time>2026-07-12T15:22:51.000Z</time>
|
|
</trkpt>
|
|
<trkpt lat="56.145132" lon="8.135309">
|
|
<ele>26.242076</ele>
|
|
<time>2026-07-12T15:22:52.000Z</time>
|
|
</trkpt>
|
|
<trkpt lat="56.145119" lon="8.135365">
|
|
<ele>26.280494</ele>
|
|
<time>2026-07-12T15:22:53.000Z</time>
|
|
</trkpt>
|
|
<trkpt lat="56.145107" lon="8.135422">
|
|
<ele>26.319082</ele>
|
|
<time>2026-07-12T15:22:54.000Z</time>
|
|
</trkpt>
|
|
<trkpt lat="56.145091" lon="8.135493">
|
|
<ele>26.367583</ele>
|
|
<time>2026-07-12T15:22:55.000Z</time>
|
|
</trkpt>
|
|
<trkpt lat="56.145076" lon="8.135558">
|
|
<ele>26.412137</ele>
|
|
<time>2026-07-12T15:22:56.000Z</time>
|
|
</trkpt>
|
|
<trkpt lat="56.145062" lon="8.135623">
|
|
<ele>26.456268</ele>
|
|
<time>2026-07-12T15:22:57.000Z</time>
|
|
</trkpt>
|
|
<trkpt lat="56.145049" lon="8.135694">
|
|
<ele>26.503596</ele>
|
|
<time>2026-07-12T15:22:58.000Z</time>
|
|
</trkpt>
|
|
<trkpt lat="56.145035" lon="8.135764">
|
|
<ele>26.550694</ele>
|
|
<time>2026-07-12T15:22:59.000Z</time>
|
|
</trkpt>
|
|
<trkpt lat="56.145022" lon="8.135832">
|
|
<ele>26.596221</ele>
|
|
<time>2026-07-12T15:23:00.000Z</time>
|
|
</trkpt>
|
|
<trkpt lat="56.145007" lon="8.135898">
|
|
<ele>26.641361</ele>
|
|
<time>2026-07-12T15:23:01.000Z</time>
|
|
</trkpt>
|
|
<trkpt lat="56.144992" lon="8.135965">
|
|
<ele>26.679691</ele>
|
|
<time>2026-07-12T15:23:02.000Z</time>
|
|
</trkpt>
|
|
<trkpt lat="56.144977" lon="8.136033">
|
|
<ele>26.712822</ele>
|
|
<time>2026-07-12T15:23:03.000Z</time>
|
|
</trkpt>
|
|
<trkpt lat="56.144961" lon="8.136104">
|
|
<ele>26.747517</ele>
|
|
<time>2026-07-12T15:23:04.000Z</time>
|
|
</trkpt>
|
|
<trkpt lat="56.144946" lon="8.136175">
|
|
<ele>26.781916</ele>
|
|
<time>2026-07-12T15:23:05.000Z</time>
|
|
</trkpt>
|
|
<trkpt lat="56.144929" lon="8.136245">
|
|
<ele>26.816509</ele>
|
|
<time>2026-07-12T15:23:06.000Z</time>
|
|
</trkpt>
|
|
<trkpt lat="56.144910" lon="8.136316">
|
|
<ele>26.852191</ele>
|
|
<time>2026-07-12T15:23:07.000Z</time>
|
|
</trkpt>
|
|
<trkpt lat="56.144891" lon="8.136386">
|
|
<ele>26.887465</ele>
|
|
<time>2026-07-12T15:23:08.000Z</time>
|
|
</trkpt>
|
|
<trkpt lat="56.144872" lon="8.136458">
|
|
<ele>26.923556</ele>
|
|
<time>2026-07-12T15:23:09.000Z</time>
|
|
</trkpt>
|
|
<trkpt lat="56.144853" lon="8.136533">
|
|
<ele>26.960880</ele>
|
|
<time>2026-07-12T15:23:10.000Z</time>
|
|
</trkpt>
|
|
<trkpt lat="56.144834" lon="8.136607">
|
|
<ele>26.997791</ele>
|
|
<time>2026-07-12T15:23:11.000Z</time>
|
|
</trkpt>
|
|
<trkpt lat="56.144815" lon="8.136683">
|
|
<ele>27.035528</ele>
|
|
<time>2026-07-12T15:23:12.000Z</time>
|
|
</trkpt>
|
|
<trkpt lat="56.144796" lon="8.136759">
|
|
<ele>27.073264</ele>
|
|
<time>2026-07-12T15:23:13.000Z</time>
|
|
</trkpt>
|
|
<trkpt lat="56.144777" lon="8.136835">
|
|
<ele>27.111001</ele>
|
|
<time>2026-07-12T15:23:14.000Z</time>
|
|
</trkpt>
|
|
<trkpt lat="56.144758" lon="8.136909">
|
|
<ele>27.147913</ele>
|
|
<time>2026-07-12T15:23:15.000Z</time>
|
|
</trkpt>
|
|
<trkpt lat="56.144738" lon="8.136983">
|
|
<ele>27.185172</ele>
|
|
<time>2026-07-12T15:23:16.000Z</time>
|
|
</trkpt>
|
|
<trkpt lat="56.144715" lon="8.137060">
|
|
<ele>27.224752</ele>
|
|
<time>2026-07-12T15:23:17.000Z</time>
|
|
</trkpt>
|
|
<trkpt lat="56.144694" lon="8.137136">
|
|
<ele>27.263183</ele>
|
|
<time>2026-07-12T15:23:18.000Z</time>
|
|
</trkpt>
|
|
<trkpt lat="56.144675" lon="8.137214">
|
|
<ele>27.301748</ele>
|
|
<time>2026-07-12T15:23:19.000Z</time>
|
|
</trkpt>
|
|
<trkpt lat="56.144656" lon="8.137294">
|
|
<ele>27.341145</ele>
|
|
<time>2026-07-12T15:23:20.000Z</time>
|
|
</trkpt>
|
|
<trkpt lat="56.144635" lon="8.137372">
|
|
<ele>27.380390</ele>
|
|
<time>2026-07-12T15:23:21.000Z</time>
|
|
</trkpt>
|
|
<trkpt lat="56.144615" lon="8.137445">
|
|
<ele>27.417242</ele>
|
|
<time>2026-07-12T15:23:22.000Z</time>
|
|
</trkpt>
|
|
<trkpt lat="56.144594" lon="8.137524">
|
|
<ele>27.456895</ele>
|
|
<time>2026-07-12T15:23:23.000Z</time>
|
|
</trkpt>
|
|
<trkpt lat="56.144571" lon="8.137605">
|
|
<ele>27.498081</ele>
|
|
<time>2026-07-12T15:23:24.000Z</time>
|
|
</trkpt>
|
|
<trkpt lat="56.144550" lon="8.137684">
|
|
<ele>27.537734</ele>
|
|
<time>2026-07-12T15:23:25.000Z</time>
|
|
</trkpt>
|
|
<trkpt lat="56.144529" lon="8.137766">
|
|
<ele>27.578618</ele>
|
|
<time>2026-07-12T15:23:26.000Z</time>
|
|
</trkpt>
|
|
<trkpt lat="56.144508" lon="8.137841">
|
|
<ele>27.616644</ele>
|
|
<time>2026-07-12T15:23:27.000Z</time>
|
|
</trkpt>
|
|
<trkpt lat="56.144484" lon="8.137926">
|
|
<ele>27.659814</ele>
|
|
<time>2026-07-12T15:23:28.000Z</time>
|
|
</trkpt>
|
|
<trkpt lat="56.144461" lon="8.138007">
|
|
<ele>27.700999</ele>
|
|
<time>2026-07-12T15:23:29.000Z</time>
|
|
</trkpt>
|
|
<trkpt lat="56.144437" lon="8.138092">
|
|
<ele>27.744169</ele>
|
|
<time>2026-07-12T15:23:30.000Z</time>
|
|
</trkpt>
|
|
<trkpt lat="56.144416" lon="8.138168">
|
|
<ele>27.782600</ele>
|
|
<time>2026-07-12T15:23:31.000Z</time>
|
|
</trkpt>
|
|
<trkpt lat="56.144398" lon="8.138233">
|
|
<ele>27.815483</ele>
|
|
<time>2026-07-12T15:23:32.000Z</time>
|
|
</trkpt>
|
|
<trkpt lat="56.144373" lon="8.138322">
|
|
<ele>27.860637</ele>
|
|
<time>2026-07-12T15:23:33.000Z</time>
|
|
</trkpt>
|
|
<trkpt lat="56.144350" lon="8.138419">
|
|
<ele>27.908394</ele>
|
|
<time>2026-07-12T15:23:34.000Z</time>
|
|
</trkpt>
|
|
<trkpt lat="56.144326" lon="8.138503">
|
|
<ele>27.951160</ele>
|
|
<time>2026-07-12T15:23:35.000Z</time>
|
|
</trkpt>
|
|
<trkpt lat="56.144303" lon="8.138582">
|
|
<ele>27.991540</ele>
|
|
<time>2026-07-12T15:23:36.000Z</time>
|
|
</trkpt>
|
|
<trkpt lat="56.144278" lon="8.138662">
|
|
<ele>28.033094</ele>
|
|
<time>2026-07-12T15:23:37.000Z</time>
|
|
</trkpt>
|
|
<trkpt lat="56.144259" lon="8.138745">
|
|
<ele>28.073745</ele>
|
|
<time>2026-07-12T15:23:38.000Z</time>
|
|
</trkpt>
|
|
<trkpt lat="56.144239" lon="8.138826">
|
|
<ele>28.113882</ele>
|
|
<time>2026-07-12T15:23:39.000Z</time>
|
|
</trkpt>
|
|
<trkpt lat="56.144217" lon="8.138909">
|
|
<ele>28.134031</ele>
|
|
<time>2026-07-12T15:23:40.000Z</time>
|
|
</trkpt>
|
|
<trkpt lat="56.144194" lon="8.138991">
|
|
<ele>28.147542</ele>
|
|
<time>2026-07-12T15:23:41.000Z</time>
|
|
</trkpt>
|
|
<trkpt lat="56.144168" lon="8.139074">
|
|
<ele>28.161555</ele>
|
|
<time>2026-07-12T15:23:42.000Z</time>
|
|
</trkpt>
|
|
<trkpt lat="56.144143" lon="8.139166">
|
|
<ele>28.176618</ele>
|
|
<time>2026-07-12T15:23:43.000Z</time>
|
|
</trkpt>
|
|
<trkpt lat="56.144121" lon="8.139249">
|
|
<ele>28.190145</ele>
|
|
<time>2026-07-12T15:23:44.000Z</time>
|
|
</trkpt>
|
|
<trkpt lat="56.144098" lon="8.139332">
|
|
<ele>28.203787</ele>
|
|
<time>2026-07-12T15:23:45.000Z</time>
|
|
</trkpt>
|
|
<trkpt lat="56.144075" lon="8.139417">
|
|
<ele>28.217693</ele>
|
|
<time>2026-07-12T15:23:46.000Z</time>
|
|
</trkpt>
|
|
<trkpt lat="56.144052" lon="8.139501">
|
|
<ele>28.231467</ele>
|
|
<time>2026-07-12T15:23:47.000Z</time>
|
|
</trkpt>
|
|
<trkpt lat="56.144030" lon="8.139585">
|
|
<ele>28.245127</ele>
|
|
<time>2026-07-12T15:23:48.000Z</time>
|
|
</trkpt>
|
|
<trkpt lat="56.144007" lon="8.139668">
|
|
<ele>28.258769</ele>
|
|
<time>2026-07-12T15:23:49.000Z</time>
|
|
</trkpt>
|
|
<trkpt lat="56.143984" lon="8.139753">
|
|
<ele>28.272675</ele>
|
|
<time>2026-07-12T15:23:50.000Z</time>
|
|
</trkpt>
|
|
<trkpt lat="56.143963" lon="8.139830">
|
|
<ele>28.285291</ele>
|
|
<time>2026-07-12T15:23:51.000Z</time>
|
|
</trkpt>
|
|
<trkpt lat="56.143936" lon="8.139925">
|
|
<ele>28.300986</ele>
|
|
<time>2026-07-12T15:23:52.000Z</time>
|
|
</trkpt>
|
|
<trkpt lat="56.143915" lon="8.140011">
|
|
<ele>28.314804</ele>
|
|
<time>2026-07-12T15:23:53.000Z</time>
|
|
</trkpt>
|
|
<trkpt lat="56.143892" lon="8.140098">
|
|
<ele>28.328976</ele>
|
|
<time>2026-07-12T15:23:54.000Z</time>
|
|
</trkpt>
|
|
<trkpt lat="56.143871" lon="8.140183">
|
|
<ele>28.342659</ele>
|
|
<time>2026-07-12T15:23:55.000Z</time>
|
|
</trkpt>
|
|
<trkpt lat="56.143853" lon="8.140260">
|
|
<ele>28.354948</ele>
|
|
<time>2026-07-12T15:23:56.000Z</time>
|
|
</trkpt>
|
|
<trkpt lat="56.143826" lon="8.140356">
|
|
<ele>28.370774</ele>
|
|
<time>2026-07-12T15:23:57.000Z</time>
|
|
</trkpt>
|
|
<trkpt lat="56.143800" lon="8.140440">
|
|
<ele>28.384915</ele>
|
|
<time>2026-07-12T15:23:58.000Z</time>
|
|
</trkpt>
|
|
<trkpt lat="56.143777" lon="8.140520">
|
|
<ele>28.398164</ele>
|
|
<time>2026-07-12T15:23:59.000Z</time>
|
|
</trkpt>
|
|
<trkpt lat="56.143756" lon="8.140599">
|
|
<ele>28.411045</ele>
|
|
<time>2026-07-12T15:24:00.000Z</time>
|
|
</trkpt>
|
|
<trkpt lat="56.143738" lon="8.140674">
|
|
<ele>28.423063</ele>
|
|
<time>2026-07-12T15:24:01.000Z</time>
|
|
</trkpt>
|
|
<trkpt lat="56.143713" lon="8.140762">
|
|
<ele>28.437600</ele>
|
|
<time>2026-07-12T15:24:02.000Z</time>
|
|
</trkpt>
|
|
<trkpt lat="56.143691" lon="8.140842">
|
|
<ele>28.450729</ele>
|
|
<time>2026-07-12T15:24:03.000Z</time>
|
|
</trkpt>
|
|
<trkpt lat="56.143663" lon="8.140934">
|
|
<ele>28.466157</ele>
|
|
<time>2026-07-12T15:24:04.000Z</time>
|
|
</trkpt>
|
|
<trkpt lat="56.143641" lon="8.141019">
|
|
<ele>28.479950</ele>
|
|
<time>2026-07-12T15:24:05.000Z</time>
|
|
</trkpt>
|
|
<trkpt lat="56.143619" lon="8.141103">
|
|
<ele>28.493610</ele>
|
|
<time>2026-07-12T15:24:06.000Z</time>
|
|
</trkpt>
|
|
<trkpt lat="56.143599" lon="8.141192">
|
|
<ele>28.507733</ele>
|
|
<time>2026-07-12T15:24:07.000Z</time>
|
|
</trkpt>
|
|
<trkpt lat="56.143575" lon="8.141278">
|
|
<ele>28.521888</ele>
|
|
<time>2026-07-12T15:24:08.000Z</time>
|
|
</trkpt>
|
|
<trkpt lat="56.143552" lon="8.141362">
|
|
<ele>28.535662</ele>
|
|
<time>2026-07-12T15:24:09.000Z</time>
|
|
</trkpt>
|
|
<trkpt lat="56.143525" lon="8.141447">
|
|
<ele>28.550061</ele>
|
|
<time>2026-07-12T15:24:10.000Z</time>
|
|
</trkpt>
|
|
<trkpt lat="56.143501" lon="8.141530">
|
|
<ele>28.563823</ele>
|
|
<time>2026-07-12T15:24:11.000Z</time>
|
|
</trkpt>
|
|
<trkpt lat="56.143479" lon="8.141618">
|
|
<ele>28.578018</ele>
|
|
<time>2026-07-12T15:24:12.000Z</time>
|
|
</trkpt>
|
|
<trkpt lat="56.143453" lon="8.141705">
|
|
<ele>28.592547</ele>
|
|
<time>2026-07-12T15:24:13.000Z</time>
|
|
</trkpt>
|
|
<trkpt lat="56.143430" lon="8.141791">
|
|
<ele>28.607779</ele>
|
|
<time>2026-07-12T15:24:14.000Z</time>
|
|
</trkpt>
|
|
<trkpt lat="56.143408" lon="8.141879">
|
|
<ele>28.624151</ele>
|
|
<time>2026-07-12T15:24:15.000Z</time>
|
|
</trkpt>
|
|
<trkpt lat="56.143387" lon="8.141961">
|
|
<ele>28.639471</ele>
|
|
<time>2026-07-12T15:24:16.000Z</time>
|
|
</trkpt>
|
|
<trkpt lat="56.143362" lon="8.142049">
|
|
<ele>28.656239</ele>
|
|
<time>2026-07-12T15:24:17.000Z</time>
|
|
</trkpt>
|
|
<trkpt lat="56.143339" lon="8.142132">
|
|
<ele>28.671975</ele>
|
|
<time>2026-07-12T15:24:18.000Z</time>
|
|
</trkpt>
|
|
<trkpt lat="56.143313" lon="8.142217">
|
|
<ele>28.688435</ele>
|
|
<time>2026-07-12T15:24:19.000Z</time>
|
|
</trkpt>
|
|
<trkpt lat="56.143291" lon="8.142298">
|
|
<ele>28.703731</ele>
|
|
<time>2026-07-12T15:24:20.000Z</time>
|
|
</trkpt>
|
|
<trkpt lat="56.143267" lon="8.142392">
|
|
<ele>28.721284</ele>
|
|
<time>2026-07-12T15:24:21.000Z</time>
|
|
</trkpt>
|
|
<trkpt lat="56.143245" lon="8.142476">
|
|
<ele>28.737039</ele>
|
|
<time>2026-07-12T15:24:22.000Z</time>
|
|
</trkpt>
|
|
<trkpt lat="56.143221" lon="8.142570">
|
|
<ele>28.754592</ele>
|
|
<time>2026-07-12T15:24:23.000Z</time>
|
|
</trkpt>
|
|
<trkpt lat="56.143202" lon="8.142654">
|
|
<ele>28.769981</ele>
|
|
<time>2026-07-12T15:24:24.000Z</time>
|
|
</trkpt>
|
|
<trkpt lat="56.143179" lon="8.142738">
|
|
<ele>28.785869</ele>
|
|
<time>2026-07-12T15:24:25.000Z</time>
|
|
</trkpt>
|
|
<trkpt lat="56.143155" lon="8.142823">
|
|
<ele>28.802045</ele>
|
|
<time>2026-07-12T15:24:26.000Z</time>
|
|
</trkpt>
|
|
<trkpt lat="56.143130" lon="8.142907">
|
|
<ele>28.818211</ele>
|
|
<time>2026-07-12T15:24:27.000Z</time>
|
|
</trkpt>
|
|
<trkpt lat="56.143110" lon="8.142990">
|
|
<ele>28.833561</ele>
|
|
<time>2026-07-12T15:24:28.000Z</time>
|
|
</trkpt>
|
|
<trkpt lat="56.143086" lon="8.143075">
|
|
<ele>28.849737</ele>
|
|
<time>2026-07-12T15:24:29.000Z</time>
|
|
</trkpt>
|
|
<trkpt lat="56.143060" lon="8.143157">
|
|
<ele>28.865753</ele>
|
|
<time>2026-07-12T15:24:30.000Z</time>
|
|
</trkpt>
|
|
<trkpt lat="56.143035" lon="8.143240">
|
|
<ele>28.881769</ele>
|
|
<time>2026-07-12T15:24:31.000Z</time>
|
|
</trkpt>
|
|
<trkpt lat="56.143012" lon="8.143326">
|
|
<ele>28.897963</ele>
|
|
<time>2026-07-12T15:24:32.000Z</time>
|
|
</trkpt>
|
|
<trkpt lat="56.142988" lon="8.143411">
|
|
<ele>28.914139</ele>
|
|
<time>2026-07-12T15:24:33.000Z</time>
|
|
</trkpt>
|
|
<trkpt lat="56.142966" lon="8.143491">
|
|
<ele>28.929283</ele>
|
|
<time>2026-07-12T15:24:34.000Z</time>
|
|
</trkpt>
|
|
<trkpt lat="56.142941" lon="8.143575">
|
|
<ele>28.945449</ele>
|
|
<time>2026-07-12T15:24:35.000Z</time>
|
|
</trkpt>
|
|
<trkpt lat="56.142916" lon="8.143652">
|
|
<ele>28.960577</ele>
|
|
<time>2026-07-12T15:24:36.000Z</time>
|
|
</trkpt>
|
|
<trkpt lat="56.142892" lon="8.143734">
|
|
<ele>28.976301</ele>
|
|
<time>2026-07-12T15:24:37.000Z</time>
|
|
</trkpt>
|
|
<trkpt lat="56.142866" lon="8.143810">
|
|
<ele>28.991440</ele>
|
|
<time>2026-07-12T15:24:38.000Z</time>
|
|
</trkpt>
|
|
<trkpt lat="56.142840" lon="8.143892">
|
|
<ele>29.007456</ele>
|
|
<time>2026-07-12T15:24:39.000Z</time>
|
|
</trkpt>
|
|
<trkpt lat="56.142812" lon="8.143974">
|
|
<ele>29.023782</ele>
|
|
<time>2026-07-12T15:24:40.000Z</time>
|
|
</trkpt>
|
|
<trkpt lat="56.142786" lon="8.144044">
|
|
<ele>29.038063</ele>
|
|
<time>2026-07-12T15:24:41.000Z</time>
|
|
</trkpt>
|
|
<trkpt lat="56.142756" lon="8.144124">
|
|
<ele>29.054433</ele>
|
|
<time>2026-07-12T15:24:42.000Z</time>
|
|
</trkpt>
|
|
<trkpt lat="56.142731" lon="8.144202">
|
|
<ele>29.069708</ele>
|
|
<time>2026-07-12T15:24:43.000Z</time>
|
|
</trkpt>
|
|
<trkpt lat="56.142704" lon="8.144274">
|
|
<ele>29.084441</ele>
|
|
<time>2026-07-12T15:24:44.000Z</time>
|
|
</trkpt>
|
|
<trkpt lat="56.142674" lon="8.144362">
|
|
<ele>29.101953</ele>
|
|
<time>2026-07-12T15:24:45.000Z</time>
|
|
</trkpt>
|
|
<trkpt lat="56.142648" lon="8.144440">
|
|
<ele>29.117383</ele>
|
|
<time>2026-07-12T15:24:46.000Z</time>
|
|
</trkpt>
|
|
<trkpt lat="56.142623" lon="8.144509">
|
|
<ele>29.131355</ele>
|
|
<time>2026-07-12T15:24:47.000Z</time>
|
|
</trkpt>
|
|
<trkpt lat="56.142596" lon="8.144574">
|
|
<ele>29.145118</ele>
|
|
<time>2026-07-12T15:24:48.000Z</time>
|
|
</trkpt>
|
|
<trkpt lat="56.142577" lon="8.144634">
|
|
<ele>29.145606</ele>
|
|
<time>2026-07-12T15:24:49.000Z</time>
|
|
</trkpt>
|
|
<trkpt lat="56.142541" lon="8.144718">
|
|
<ele>29.143384</ele>
|
|
<time>2026-07-12T15:24:50.000Z</time>
|
|
</trkpt>
|
|
<trkpt lat="56.142514" lon="8.144786">
|
|
<ele>29.141634</ele>
|
|
<time>2026-07-12T15:24:51.000Z</time>
|
|
</trkpt>
|
|
<trkpt lat="56.142498" lon="8.144829">
|
|
<ele>29.140550</ele>
|
|
<time>2026-07-12T15:24:52.000Z</time>
|
|
</trkpt>
|
|
<trkpt lat="56.142475" lon="8.144885">
|
|
<ele>29.139091</ele>
|
|
<time>2026-07-12T15:24:53.000Z</time>
|
|
</trkpt>
|
|
<trkpt lat="56.142441" lon="8.144975">
|
|
<ele>29.136812</ele>
|
|
<time>2026-07-12T15:24:54.000Z</time>
|
|
</trkpt>
|
|
<trkpt lat="56.142405" lon="8.145071">
|
|
<ele>29.134386</ele>
|
|
<time>2026-07-12T15:24:55.000Z</time>
|
|
</trkpt>
|
|
<trkpt lat="56.142375" lon="8.145146">
|
|
<ele>29.132451</ele>
|
|
<time>2026-07-12T15:24:56.000Z</time>
|
|
</trkpt>
|
|
<trkpt lat="56.142338" lon="8.145239">
|
|
<ele>29.130055</ele>
|
|
<time>2026-07-12T15:24:57.000Z</time>
|
|
</trkpt>
|
|
<trkpt lat="56.142302" lon="8.145331">
|
|
<ele>29.127698</ele>
|
|
<time>2026-07-12T15:24:58.000Z</time>
|
|
</trkpt>
|
|
<trkpt lat="56.142269" lon="8.145416">
|
|
<ele>29.125527</ele>
|
|
<time>2026-07-12T15:24:59.000Z</time>
|
|
</trkpt>
|
|
<trkpt lat="56.142239" lon="8.145498">
|
|
<ele>29.123470</ele>
|
|
<time>2026-07-12T15:25:00.000Z</time>
|
|
</trkpt>
|
|
<trkpt lat="56.142207" lon="8.145579">
|
|
<ele>29.121389</ele>
|
|
<time>2026-07-12T15:25:01.000Z</time>
|
|
</trkpt>
|
|
<trkpt lat="56.142175" lon="8.145665">
|
|
<ele>29.119221</ele>
|
|
<time>2026-07-12T15:25:02.000Z</time>
|
|
</trkpt>
|
|
<trkpt lat="56.142143" lon="8.145751">
|
|
<ele>29.117053</ele>
|
|
<time>2026-07-12T15:25:03.000Z</time>
|
|
</trkpt>
|
|
<trkpt lat="56.142113" lon="8.145834">
|
|
<ele>29.114979</ele>
|
|
<time>2026-07-12T15:25:04.000Z</time>
|
|
</trkpt>
|
|
<trkpt lat="56.142081" lon="8.145913">
|
|
<ele>29.112932</ele>
|
|
<time>2026-07-12T15:25:05.000Z</time>
|
|
</trkpt>
|
|
<trkpt lat="56.142048" lon="8.145994">
|
|
<ele>29.110828</ele>
|
|
<time>2026-07-12T15:25:06.000Z</time>
|
|
</trkpt>
|
|
<trkpt lat="56.142018" lon="8.146078">
|
|
<ele>29.108736</ele>
|
|
<time>2026-07-12T15:25:07.000Z</time>
|
|
</trkpt>
|
|
<trkpt lat="56.141990" lon="8.146164">
|
|
<ele>29.106648</ele>
|
|
<time>2026-07-12T15:25:08.000Z</time>
|
|
</trkpt>
|
|
<trkpt lat="56.141960" lon="8.146253">
|
|
<ele>29.104468</ele>
|
|
<time>2026-07-12T15:25:09.000Z</time>
|
|
</trkpt>
|
|
<trkpt lat="56.141930" lon="8.146338">
|
|
<ele>29.102358</ele>
|
|
<time>2026-07-12T15:25:10.000Z</time>
|
|
</trkpt>
|
|
<trkpt lat="56.141900" lon="8.146416">
|
|
<ele>29.100372</ele>
|
|
<time>2026-07-12T15:25:11.000Z</time>
|
|
</trkpt>
|
|
<trkpt lat="56.141869" lon="8.146502">
|
|
<ele>29.098224</ele>
|
|
<time>2026-07-12T15:25:12.000Z</time>
|
|
</trkpt>
|
|
<trkpt lat="56.141837" lon="8.146591">
|
|
<ele>29.096004</ele>
|
|
<time>2026-07-12T15:25:13.000Z</time>
|
|
</trkpt>
|
|
<trkpt lat="56.141805" lon="8.146677">
|
|
<ele>29.093836</ele>
|
|
<time>2026-07-12T15:25:14.000Z</time>
|
|
</trkpt>
|
|
<trkpt lat="56.141777" lon="8.146757">
|
|
<ele>29.091856</ele>
|
|
<time>2026-07-12T15:25:15.000Z</time>
|
|
</trkpt>
|
|
<trkpt lat="56.141747" lon="8.146839">
|
|
<ele>29.089799</ele>
|
|
<time>2026-07-12T15:25:16.000Z</time>
|
|
</trkpt>
|
|
<trkpt lat="56.141716" lon="8.146925">
|
|
<ele>29.087652</ele>
|
|
<time>2026-07-12T15:25:17.000Z</time>
|
|
</trkpt>
|
|
<trkpt lat="56.141687" lon="8.147008">
|
|
<ele>29.085598</ele>
|
|
<time>2026-07-12T15:25:18.000Z</time>
|
|
</trkpt>
|
|
<trkpt lat="56.141659" lon="8.147092">
|
|
<ele>29.083546</ele>
|
|
<time>2026-07-12T15:25:19.000Z</time>
|
|
</trkpt>
|
|
<trkpt lat="56.141628" lon="8.147174">
|
|
<ele>29.081469</ele>
|
|
<time>2026-07-12T15:25:20.000Z</time>
|
|
</trkpt>
|
|
<trkpt lat="56.141596" lon="8.147254">
|
|
<ele>29.079404</ele>
|
|
<time>2026-07-12T15:25:21.000Z</time>
|
|
</trkpt>
|
|
<trkpt lat="56.141563" lon="8.147337">
|
|
<ele>29.075248</ele>
|
|
<time>2026-07-12T15:25:22.000Z</time>
|
|
</trkpt>
|
|
<trkpt lat="56.141531" lon="8.147420">
|
|
<ele>29.070880</ele>
|
|
<time>2026-07-12T15:25:23.000Z</time>
|
|
</trkpt>
|
|
<trkpt lat="56.141498" lon="8.147503">
|
|
<ele>29.066468</ele>
|
|
<time>2026-07-12T15:25:24.000Z</time>
|
|
</trkpt>
|
|
<trkpt lat="56.141467" lon="8.147585">
|
|
<ele>29.062180</ele>
|
|
<time>2026-07-12T15:25:25.000Z</time>
|
|
</trkpt>
|
|
<trkpt lat="56.141434" lon="8.147665">
|
|
<ele>29.057873</ele>
|
|
<time>2026-07-12T15:25:26.000Z</time>
|
|
</trkpt>
|
|
<trkpt lat="56.141402" lon="8.147746">
|
|
<ele>29.053577</ele>
|
|
<time>2026-07-12T15:25:27.000Z</time>
|
|
</trkpt>
|
|
<trkpt lat="56.141369" lon="8.147831">
|
|
<ele>29.049094</ele>
|
|
<time>2026-07-12T15:25:28.000Z</time>
|
|
</trkpt>
|
|
<trkpt lat="56.141340" lon="8.147913">
|
|
<ele>29.044892</ele>
|
|
<time>2026-07-12T15:25:29.000Z</time>
|
|
</trkpt>
|
|
<trkpt lat="56.141312" lon="8.147994">
|
|
<ele>29.040767</ele>
|
|
<time>2026-07-12T15:25:30.000Z</time>
|
|
</trkpt>
|
|
<trkpt lat="56.141282" lon="8.148075">
|
|
<ele>29.036558</ele>
|
|
<time>2026-07-12T15:25:31.000Z</time>
|
|
</trkpt>
|
|
<trkpt lat="56.141251" lon="8.148158">
|
|
<ele>29.032235</ele>
|
|
<time>2026-07-12T15:25:32.000Z</time>
|
|
</trkpt>
|
|
<trkpt lat="56.141222" lon="8.148241">
|
|
<ele>29.027996</ele>
|
|
<time>2026-07-12T15:25:33.000Z</time>
|
|
</trkpt>
|
|
<trkpt lat="56.141193" lon="8.148325">
|
|
<ele>29.023720</ele>
|
|
<time>2026-07-12T15:25:34.000Z</time>
|
|
</trkpt>
|
|
<trkpt lat="56.141163" lon="8.148406">
|
|
<ele>29.019511</ele>
|
|
<time>2026-07-12T15:25:35.000Z</time>
|
|
</trkpt>
|
|
<trkpt lat="56.141132" lon="8.148493">
|
|
<ele>29.015043</ele>
|
|
<time>2026-07-12T15:25:36.000Z</time>
|
|
</trkpt>
|
|
<trkpt lat="56.141100" lon="8.148577">
|
|
<ele>29.010640</ele>
|
|
<time>2026-07-12T15:25:37.000Z</time>
|
|
</trkpt>
|
|
<trkpt lat="56.141068" lon="8.148659">
|
|
<ele>29.006308</ele>
|
|
<time>2026-07-12T15:25:38.000Z</time>
|
|
</trkpt>
|
|
<trkpt lat="56.141038" lon="8.148743">
|
|
<ele>29.001991</ele>
|
|
<time>2026-07-12T15:25:39.000Z</time>
|
|
</trkpt>
|
|
<trkpt lat="56.141010" lon="8.148825">
|
|
<ele>28.997829</ele>
|
|
<time>2026-07-12T15:25:40.000Z</time>
|
|
</trkpt>
|
|
<trkpt lat="56.140980" lon="8.148900">
|
|
<ele>28.993834</ele>
|
|
<time>2026-07-12T15:25:41.000Z</time>
|
|
</trkpt>
|
|
<trkpt lat="56.140951" lon="8.148975">
|
|
<ele>28.989884</ele>
|
|
<time>2026-07-12T15:25:42.000Z</time>
|
|
</trkpt>
|
|
<trkpt lat="56.140924" lon="8.149046">
|
|
<ele>28.986164</ele>
|
|
<time>2026-07-12T15:25:43.000Z</time>
|
|
</trkpt>
|
|
<trkpt lat="56.140899" lon="8.149107">
|
|
<ele>28.982888</ele>
|
|
<time>2026-07-12T15:25:44.000Z</time>
|
|
</trkpt>
|
|
<trkpt lat="56.140876" lon="8.149154">
|
|
<ele>28.980181</ele>
|
|
<time>2026-07-12T15:25:45.000Z</time>
|
|
</trkpt>
|
|
<trkpt lat="56.140856" lon="8.149185">
|
|
<ele>28.978129</ele>
|
|
<time>2026-07-12T15:25:46.000Z</time>
|
|
</trkpt>
|
|
<trkpt lat="56.140843" lon="8.149207">
|
|
<ele>28.976741</ele>
|
|
<time>2026-07-12T15:25:47.000Z</time>
|
|
</trkpt>
|
|
<trkpt lat="56.140835" lon="8.149238">
|
|
<ele>28.975263</ele>
|
|
<time>2026-07-12T15:26:32.000Z</time>
|
|
</trkpt>
|
|
<trkpt lat="56.140833" lon="8.149262">
|
|
<ele>28.974213</ele>
|
|
<time>2026-07-12T15:26:33.000Z</time>
|
|
</trkpt>
|
|
<trkpt lat="56.140828" lon="8.149286">
|
|
<ele>28.973104</ele>
|
|
<time>2026-07-12T15:26:34.000Z</time>
|
|
</trkpt>
|
|
<trkpt lat="56.140820" lon="8.149320">
|
|
<ele>28.971507</ele>
|
|
<time>2026-07-12T15:26:35.000Z</time>
|
|
</trkpt>
|
|
<trkpt lat="56.140811" lon="8.149362">
|
|
<ele>28.969560</ele>
|
|
<time>2026-07-12T15:26:36.000Z</time>
|
|
</trkpt>
|
|
<trkpt lat="56.140797" lon="8.149409">
|
|
<ele>28.967254</ele>
|
|
<time>2026-07-12T15:26:37.000Z</time>
|
|
</trkpt>
|
|
<trkpt lat="56.140778" lon="8.149471">
|
|
<ele>28.964192</ele>
|
|
<time>2026-07-12T15:26:38.000Z</time>
|
|
</trkpt>
|
|
<trkpt lat="56.140757" lon="8.149524">
|
|
<ele>28.961378</ele>
|
|
<time>2026-07-12T15:26:39.000Z</time>
|
|
</trkpt>
|
|
<trkpt lat="56.140734" lon="8.149577">
|
|
<ele>28.958471</ele>
|
|
<time>2026-07-12T15:26:40.000Z</time>
|
|
</trkpt>
|
|
<trkpt lat="56.140709" lon="8.149635">
|
|
<ele>28.955298</ele>
|
|
<time>2026-07-12T15:26:41.000Z</time>
|
|
</trkpt>
|
|
<trkpt lat="56.140687" lon="8.149702">
|
|
<ele>28.951933</ele>
|
|
<time>2026-07-12T15:26:42.000Z</time>
|
|
</trkpt>
|
|
<trkpt lat="56.140664" lon="8.149771">
|
|
<ele>28.948454</ele>
|
|
<time>2026-07-12T15:26:43.000Z</time>
|
|
</trkpt>
|
|
<trkpt lat="56.140639" lon="8.149840">
|
|
<ele>28.944893</ele>
|
|
<time>2026-07-12T15:26:44.000Z</time>
|
|
</trkpt>
|
|
<trkpt lat="56.140615" lon="8.149911">
|
|
<ele>28.941299</ele>
|
|
<time>2026-07-12T15:26:45.000Z</time>
|
|
</trkpt>
|
|
<trkpt lat="56.140590" lon="8.149986">
|
|
<ele>28.941538</ele>
|
|
<time>2026-07-12T15:26:46.000Z</time>
|
|
</trkpt>
|
|
<trkpt lat="56.140567" lon="8.150061">
|
|
<ele>28.945432</ele>
|
|
<time>2026-07-12T15:26:47.000Z</time>
|
|
</trkpt>
|
|
<trkpt lat="56.140544" lon="8.150134">
|
|
<ele>28.949246</ele>
|
|
<time>2026-07-12T15:26:48.000Z</time>
|
|
</trkpt>
|
|
<trkpt lat="56.140521" lon="8.150208">
|
|
<ele>28.953100</ele>
|
|
<time>2026-07-12T15:26:49.000Z</time>
|
|
</trkpt>
|
|
<trkpt lat="56.140497" lon="8.150281">
|
|
<ele>28.956955</ele>
|
|
<time>2026-07-12T15:26:50.000Z</time>
|
|
</trkpt>
|
|
<trkpt lat="56.140472" lon="8.150358">
|
|
<ele>28.961009</ele>
|
|
<time>2026-07-12T15:26:51.000Z</time>
|
|
</trkpt>
|
|
<trkpt lat="56.140448" lon="8.150439">
|
|
<ele>28.965181</ele>
|
|
<time>2026-07-12T15:26:52.000Z</time>
|
|
</trkpt>
|
|
<trkpt lat="56.140424" lon="8.150518">
|
|
<ele>28.969274</ele>
|
|
<time>2026-07-12T15:26:53.000Z</time>
|
|
</trkpt>
|
|
<trkpt lat="56.140399" lon="8.150598">
|
|
<ele>28.973446</ele>
|
|
<time>2026-07-12T15:26:54.000Z</time>
|
|
</trkpt>
|
|
<trkpt lat="56.140376" lon="8.150679">
|
|
<ele>28.977580</ele>
|
|
<time>2026-07-12T15:26:55.000Z</time>
|
|
</trkpt>
|
|
<trkpt lat="56.140353" lon="8.150758">
|
|
<ele>28.981635</ele>
|
|
<time>2026-07-12T15:26:56.000Z</time>
|
|
</trkpt>
|
|
<trkpt lat="56.140331" lon="8.150838">
|
|
<ele>28.985692</ele>
|
|
<time>2026-07-12T15:26:57.000Z</time>
|
|
</trkpt>
|
|
<trkpt lat="56.140308" lon="8.150920">
|
|
<ele>28.989868</ele>
|
|
<time>2026-07-12T15:26:58.000Z</time>
|
|
</trkpt>
|
|
<trkpt lat="56.140285" lon="8.151002">
|
|
<ele>28.994043</ele>
|
|
<time>2026-07-12T15:26:59.000Z</time>
|
|
</trkpt>
|
|
<trkpt lat="56.140261" lon="8.151085">
|
|
<ele>28.998296</ele>
|
|
<time>2026-07-12T15:27:00.000Z</time>
|
|
</trkpt>
|
|
<trkpt lat="56.140235" lon="8.151169">
|
|
<ele>29.002667</ele>
|
|
<time>2026-07-12T15:27:01.000Z</time>
|
|
</trkpt>
|
|
<trkpt lat="56.140212" lon="8.151259">
|
|
<ele>29.007170</ele>
|
|
<time>2026-07-12T15:27:02.000Z</time>
|
|
</trkpt>
|
|
<trkpt lat="56.140189" lon="8.151348">
|
|
<ele>29.011633</ele>
|
|
<time>2026-07-12T15:27:03.000Z</time>
|
|
</trkpt>
|
|
<trkpt lat="56.140165" lon="8.151440">
|
|
<ele>29.016253</ele>
|
|
<time>2026-07-12T15:27:04.000Z</time>
|
|
</trkpt>
|
|
<trkpt lat="56.140139" lon="8.151536">
|
|
<ele>29.021108</ele>
|
|
<time>2026-07-12T15:27:05.000Z</time>
|
|
</trkpt>
|
|
<trkpt lat="56.140117" lon="8.151632">
|
|
<ele>29.025829</ele>
|
|
<time>2026-07-12T15:27:06.000Z</time>
|
|
</trkpt>
|
|
<trkpt lat="56.140092" lon="8.151729">
|
|
<ele>29.030690</ele>
|
|
<time>2026-07-12T15:27:07.000Z</time>
|
|
</trkpt>
|
|
<trkpt lat="56.140067" lon="8.151822">
|
|
<ele>29.035387</ele>
|
|
<time>2026-07-12T15:27:08.000Z</time>
|
|
</trkpt>
|
|
<trkpt lat="56.140043" lon="8.151917">
|
|
<ele>29.040131</ele>
|
|
<time>2026-07-12T15:27:09.000Z</time>
|
|
</trkpt>
|
|
<trkpt lat="56.140018" lon="8.152016">
|
|
<ele>29.045075</ele>
|
|
<time>2026-07-12T15:27:10.000Z</time>
|
|
</trkpt>
|
|
<trkpt lat="56.139994" lon="8.152109">
|
|
<ele>29.049736</ele>
|
|
<time>2026-07-12T15:27:11.000Z</time>
|
|
</trkpt>
|
|
<trkpt lat="56.139966" lon="8.152204">
|
|
<ele>29.054624</ele>
|
|
<time>2026-07-12T15:27:12.000Z</time>
|
|
</trkpt>
|
|
<trkpt lat="56.139940" lon="8.152299">
|
|
<ele>29.059438</ele>
|
|
<time>2026-07-12T15:27:13.000Z</time>
|
|
</trkpt>
|
|
<trkpt lat="56.139914" lon="8.152392">
|
|
<ele>29.064171</ele>
|
|
<time>2026-07-12T15:27:14.000Z</time>
|
|
</trkpt>
|
|
<trkpt lat="56.139892" lon="8.152484">
|
|
<ele>29.068725</ele>
|
|
<time>2026-07-12T15:27:15.000Z</time>
|
|
</trkpt>
|
|
<trkpt lat="56.139870" lon="8.152577">
|
|
<ele>29.073320</ele>
|
|
<time>2026-07-12T15:27:16.000Z</time>
|
|
</trkpt>
|
|
<trkpt lat="56.139850" lon="8.152670">
|
|
<ele>29.077854</ele>
|
|
<time>2026-07-12T15:27:17.000Z</time>
|
|
</trkpt>
|
|
<trkpt lat="56.139827" lon="8.152762">
|
|
<ele>29.082440</ele>
|
|
<time>2026-07-12T15:27:18.000Z</time>
|
|
</trkpt>
|
|
<trkpt lat="56.139804" lon="8.152852">
|
|
<ele>29.090152</ele>
|
|
<time>2026-07-12T15:27:19.000Z</time>
|
|
</trkpt>
|
|
<trkpt lat="56.139781" lon="8.152947">
|
|
<ele>29.118544</ele>
|
|
<time>2026-07-12T15:27:20.000Z</time>
|
|
</trkpt>
|
|
<trkpt lat="56.139757" lon="8.153038">
|
|
<ele>29.146141</ele>
|
|
<time>2026-07-12T15:27:21.000Z</time>
|
|
</trkpt>
|
|
<trkpt lat="56.139731" lon="8.153127">
|
|
<ele>29.173686</ele>
|
|
<time>2026-07-12T15:27:22.000Z</time>
|
|
</trkpt>
|
|
<trkpt lat="56.139708" lon="8.153217">
|
|
<ele>29.200827</ele>
|
|
<time>2026-07-12T15:27:23.000Z</time>
|
|
</trkpt>
|
|
<trkpt lat="56.139687" lon="8.153306">
|
|
<ele>29.227319</ele>
|
|
<time>2026-07-12T15:27:24.000Z</time>
|
|
</trkpt>
|
|
<trkpt lat="56.139665" lon="8.153395">
|
|
<ele>29.254008</ele>
|
|
<time>2026-07-12T15:27:25.000Z</time>
|
|
</trkpt>
|
|
<trkpt lat="56.139641" lon="8.153482">
|
|
<ele>29.280618</ele>
|
|
<time>2026-07-12T15:27:26.000Z</time>
|
|
</trkpt>
|
|
<trkpt lat="56.139621" lon="8.153565">
|
|
<ele>29.305405</ele>
|
|
<time>2026-07-12T15:27:27.000Z</time>
|
|
</trkpt>
|
|
<trkpt lat="56.139600" lon="8.153647">
|
|
<ele>29.330142</ele>
|
|
<time>2026-07-12T15:27:28.000Z</time>
|
|
</trkpt>
|
|
<trkpt lat="56.139580" lon="8.153726">
|
|
<ele>29.353927</ele>
|
|
<time>2026-07-12T15:27:29.000Z</time>
|
|
</trkpt>
|
|
<trkpt lat="56.139562" lon="8.153805">
|
|
<ele>29.377322</ele>
|
|
<time>2026-07-12T15:27:30.000Z</time>
|
|
</trkpt>
|
|
<trkpt lat="56.139546" lon="8.153882">
|
|
<ele>29.399849</ele>
|
|
<time>2026-07-12T15:27:31.000Z</time>
|
|
</trkpt>
|
|
<trkpt lat="56.139527" lon="8.153954">
|
|
<ele>29.421686</ele>
|
|
<time>2026-07-12T15:27:32.000Z</time>
|
|
</trkpt>
|
|
<trkpt lat="56.139509" lon="8.154026">
|
|
<ele>29.443317</ele>
|
|
<time>2026-07-12T15:27:33.000Z</time>
|
|
</trkpt>
|
|
<trkpt lat="56.139489" lon="8.154103">
|
|
<ele>29.466604</ele>
|
|
<time>2026-07-12T15:27:34.000Z</time>
|
|
</trkpt>
|
|
<trkpt lat="56.139470" lon="8.154178">
|
|
<ele>29.489187</ele>
|
|
<time>2026-07-12T15:27:35.000Z</time>
|
|
</trkpt>
|
|
<trkpt lat="56.139449" lon="8.154252">
|
|
<ele>29.511951</ele>
|
|
<time>2026-07-12T15:27:36.000Z</time>
|
|
</trkpt>
|
|
<trkpt lat="56.139426" lon="8.154328">
|
|
<ele>29.535658</ele>
|
|
<time>2026-07-12T15:27:37.000Z</time>
|
|
</trkpt>
|
|
<trkpt lat="56.139405" lon="8.154405">
|
|
<ele>29.559157</ele>
|
|
<time>2026-07-12T15:27:38.000Z</time>
|
|
</trkpt>
|
|
<trkpt lat="56.139384" lon="8.154486">
|
|
<ele>29.583645</ele>
|
|
<time>2026-07-12T15:27:39.000Z</time>
|
|
</trkpt>
|
|
<trkpt lat="56.139361" lon="8.154569">
|
|
<ele>29.609055</ele>
|
|
<time>2026-07-12T15:27:40.000Z</time>
|
|
</trkpt>
|
|
<trkpt lat="56.139340" lon="8.154652">
|
|
<ele>29.634041</ele>
|
|
<time>2026-07-12T15:27:41.000Z</time>
|
|
</trkpt>
|
|
<trkpt lat="56.139319" lon="8.154737">
|
|
<ele>29.659528</ele>
|
|
<time>2026-07-12T15:27:42.000Z</time>
|
|
</trkpt>
|
|
<trkpt lat="56.139298" lon="8.154823">
|
|
<ele>29.685266</ele>
|
|
<time>2026-07-12T15:27:43.000Z</time>
|
|
</trkpt>
|
|
<trkpt lat="56.139278" lon="8.154909">
|
|
<ele>29.710810</ele>
|
|
<time>2026-07-12T15:27:44.000Z</time>
|
|
</trkpt>
|
|
<trkpt lat="56.139255" lon="8.154999">
|
|
<ele>29.737951</ele>
|
|
<time>2026-07-12T15:27:45.000Z</time>
|
|
</trkpt>
|
|
<trkpt lat="56.139232" lon="8.155090">
|
|
<ele>29.765342</ele>
|
|
<time>2026-07-12T15:27:46.000Z</time>
|
|
</trkpt>
|
|
<trkpt lat="56.139210" lon="8.155180">
|
|
<ele>29.792281</ele>
|
|
<time>2026-07-12T15:27:47.000Z</time>
|
|
</trkpt>
|
|
<trkpt lat="56.139188" lon="8.155272">
|
|
<ele>29.819724</ele>
|
|
<time>2026-07-12T15:27:48.000Z</time>
|
|
</trkpt>
|
|
<trkpt lat="56.139163" lon="8.155364">
|
|
<ele>29.847781</ele>
|
|
<time>2026-07-12T15:27:49.000Z</time>
|
|
</trkpt>
|
|
<trkpt lat="56.139142" lon="8.155453">
|
|
<ele>29.874274</ele>
|
|
<time>2026-07-12T15:27:50.000Z</time>
|
|
</trkpt>
|
|
<trkpt lat="56.139121" lon="8.155543">
|
|
<ele>29.901020</ele>
|
|
<time>2026-07-12T15:27:51.000Z</time>
|
|
</trkpt>
|
|
<trkpt lat="56.139097" lon="8.155635">
|
|
<ele>29.928865</ele>
|
|
<time>2026-07-12T15:27:52.000Z</time>
|
|
</trkpt>
|
|
<trkpt lat="56.139073" lon="8.155726">
|
|
<ele>29.956462</ele>
|
|
<time>2026-07-12T15:27:53.000Z</time>
|
|
</trkpt>
|
|
<trkpt lat="56.139052" lon="8.155819">
|
|
<ele>29.952959</ele>
|
|
<time>2026-07-12T15:27:54.000Z</time>
|
|
</trkpt>
|
|
<trkpt lat="56.139029" lon="8.155910">
|
|
<ele>29.914004</ele>
|
|
<time>2026-07-12T15:27:55.000Z</time>
|
|
</trkpt>
|
|
<trkpt lat="56.139007" lon="8.156001">
|
|
<ele>29.875333</ele>
|
|
<time>2026-07-12T15:27:56.000Z</time>
|
|
</trkpt>
|
|
<trkpt lat="56.138984" lon="8.156094">
|
|
<ele>29.835667</ele>
|
|
<time>2026-07-12T15:27:57.000Z</time>
|
|
</trkpt>
|
|
<trkpt lat="56.138961" lon="8.156185">
|
|
<ele>29.796712</ele>
|
|
<time>2026-07-12T15:27:58.000Z</time>
|
|
</trkpt>
|
|
<trkpt lat="56.138937" lon="8.156279">
|
|
<ele>29.756402</ele>
|
|
<time>2026-07-12T15:27:59.000Z</time>
|
|
</trkpt>
|
|
<trkpt lat="56.138912" lon="8.156371">
|
|
<ele>29.716499</ele>
|
|
<time>2026-07-12T15:28:00.000Z</time>
|
|
</trkpt>
|
|
<trkpt lat="56.138890" lon="8.156469">
|
|
<ele>29.675310</ele>
|
|
<time>2026-07-12T15:28:01.000Z</time>
|
|
</trkpt>
|
|
<trkpt lat="56.138864" lon="8.156575">
|
|
<ele>29.630159</ele>
|
|
<time>2026-07-12T15:28:02.000Z</time>
|
|
</trkpt>
|
|
<trkpt lat="56.138838" lon="8.156672">
|
|
<ele>29.588196</ele>
|
|
<time>2026-07-12T15:28:03.000Z</time>
|
|
</trkpt>
|
|
<trkpt lat="56.138811" lon="8.156773">
|
|
<ele>29.544524</ele>
|
|
<time>2026-07-12T15:28:04.000Z</time>
|
|
</trkpt>
|
|
<trkpt lat="56.138786" lon="8.156873">
|
|
<ele>29.501796</ele>
|
|
<time>2026-07-12T15:28:05.000Z</time>
|
|
</trkpt>
|
|
<trkpt lat="56.138761" lon="8.156975">
|
|
<ele>29.458354</ele>
|
|
<time>2026-07-12T15:28:06.000Z</time>
|
|
</trkpt>
|
|
<trkpt lat="56.138735" lon="8.157077">
|
|
<ele>29.414626</ele>
|
|
<time>2026-07-12T15:28:07.000Z</time>
|
|
</trkpt>
|
|
<trkpt lat="56.138709" lon="8.157182">
|
|
<ele>29.369832</ele>
|
|
<time>2026-07-12T15:28:08.000Z</time>
|
|
</trkpt>
|
|
<trkpt lat="56.138685" lon="8.157285">
|
|
<ele>29.326308</ele>
|
|
<time>2026-07-12T15:28:09.000Z</time>
|
|
</trkpt>
|
|
<trkpt lat="56.138658" lon="8.157385">
|
|
<ele>29.282988</ele>
|
|
<time>2026-07-12T15:28:10.000Z</time>
|
|
</trkpt>
|
|
<trkpt lat="56.138633" lon="8.157487">
|
|
<ele>29.239546</ele>
|
|
<time>2026-07-12T15:28:11.000Z</time>
|
|
</trkpt>
|
|
<trkpt lat="56.138608" lon="8.157592">
|
|
<ele>29.195032</ele>
|
|
<time>2026-07-12T15:28:12.000Z</time>
|
|
</trkpt>
|
|
<trkpt lat="56.138582" lon="8.157693">
|
|
<ele>29.151658</ele>
|
|
<time>2026-07-12T15:28:13.000Z</time>
|
|
</trkpt>
|
|
<trkpt lat="56.138556" lon="8.157795">
|
|
<ele>29.107930</ele>
|
|
<time>2026-07-12T15:28:14.000Z</time>
|
|
</trkpt>
|
|
<trkpt lat="56.138529" lon="8.157899">
|
|
<ele>29.063201</ele>
|
|
<time>2026-07-12T15:28:15.000Z</time>
|
|
</trkpt>
|
|
<trkpt lat="56.138502" lon="8.158005">
|
|
<ele>29.017763</ele>
|
|
<time>2026-07-12T15:28:16.000Z</time>
|
|
</trkpt>
|
|
<trkpt lat="56.138476" lon="8.158109">
|
|
<ele>28.973325</ele>
|
|
<time>2026-07-12T15:28:17.000Z</time>
|
|
</trkpt>
|
|
<trkpt lat="56.138449" lon="8.158216">
|
|
<ele>28.927533</ele>
|
|
<time>2026-07-12T15:28:18.000Z</time>
|
|
</trkpt>
|
|
<trkpt lat="56.138425" lon="8.158320">
|
|
<ele>28.883649</ele>
|
|
<time>2026-07-12T15:28:19.000Z</time>
|
|
</trkpt>
|
|
<trkpt lat="56.138399" lon="8.158421">
|
|
<ele>28.840275</ele>
|
|
<time>2026-07-12T15:28:20.000Z</time>
|
|
</trkpt>
|
|
<trkpt lat="56.138374" lon="8.158516">
|
|
<ele>28.799316</ele>
|
|
<time>2026-07-12T15:28:21.000Z</time>
|
|
</trkpt>
|
|
<trkpt lat="56.138348" lon="8.158617">
|
|
<ele>28.755942</ele>
|
|
<time>2026-07-12T15:28:22.000Z</time>
|
|
</trkpt>
|
|
<trkpt lat="56.138323" lon="8.158717">
|
|
<ele>28.713213</ele>
|
|
<time>2026-07-12T15:28:23.000Z</time>
|
|
</trkpt>
|
|
<trkpt lat="56.138297" lon="8.158813">
|
|
<ele>28.700864</ele>
|
|
<time>2026-07-12T15:28:24.000Z</time>
|
|
</trkpt>
|
|
<trkpt lat="56.138269" lon="8.158916">
|
|
<ele>28.687992</ele>
|
|
<time>2026-07-12T15:28:25.000Z</time>
|
|
</trkpt>
|
|
<trkpt lat="56.138244" lon="8.159015">
|
|
<ele>28.675784</ele>
|
|
<time>2026-07-12T15:28:26.000Z</time>
|
|
</trkpt>
|
|
<trkpt lat="56.138222" lon="8.159110">
|
|
<ele>28.664229</ele>
|
|
<time>2026-07-12T15:28:27.000Z</time>
|
|
</trkpt>
|
|
<trkpt lat="56.138197" lon="8.159212">
|
|
<ele>28.651713</ele>
|
|
<time>2026-07-12T15:28:28.000Z</time>
|
|
</trkpt>
|
|
<trkpt lat="56.138171" lon="8.159313">
|
|
<ele>28.639217</ele>
|
|
<time>2026-07-12T15:28:29.000Z</time>
|
|
</trkpt>
|
|
<trkpt lat="56.138149" lon="8.159411">
|
|
<ele>28.627350</ele>
|
|
<time>2026-07-12T15:28:30.000Z</time>
|
|
</trkpt>
|
|
<trkpt lat="56.138125" lon="8.159510">
|
|
<ele>28.615224</ele>
|
|
<time>2026-07-12T15:28:31.000Z</time>
|
|
</trkpt>
|
|
<trkpt lat="56.138099" lon="8.159611">
|
|
<ele>28.602728</ele>
|
|
<time>2026-07-12T15:28:32.000Z</time>
|
|
</trkpt>
|
|
<trkpt lat="56.138074" lon="8.159712">
|
|
<ele>28.590315</ele>
|
|
<time>2026-07-12T15:28:33.000Z</time>
|
|
</trkpt>
|
|
<trkpt lat="56.138049" lon="8.159813">
|
|
<ele>28.577902</ele>
|
|
<time>2026-07-12T15:28:34.000Z</time>
|
|
</trkpt>
|
|
<trkpt lat="56.138025" lon="8.159912">
|
|
<ele>28.565775</ele>
|
|
<time>2026-07-12T15:28:35.000Z</time>
|
|
</trkpt>
|
|
<trkpt lat="56.138000" lon="8.160010">
|
|
<ele>28.553669</ele>
|
|
<time>2026-07-12T15:28:36.000Z</time>
|
|
</trkpt>
|
|
<trkpt lat="56.137976" lon="8.160110">
|
|
<ele>28.541440</ele>
|
|
<time>2026-07-12T15:28:37.000Z</time>
|
|
</trkpt>
|
|
<trkpt lat="56.137949" lon="8.160212">
|
|
<ele>28.528757</ele>
|
|
<time>2026-07-12T15:28:38.000Z</time>
|
|
</trkpt>
|
|
<trkpt lat="56.137923" lon="8.160312">
|
|
<ele>28.516362</ele>
|
|
<time>2026-07-12T15:28:39.000Z</time>
|
|
</trkpt>
|
|
<trkpt lat="56.137901" lon="8.160409">
|
|
<ele>28.504599</ele>
|
|
<time>2026-07-12T15:28:40.000Z</time>
|
|
</trkpt>
|
|
<trkpt lat="56.137877" lon="8.160505">
|
|
<ele>28.492781</ele>
|
|
<time>2026-07-12T15:28:41.000Z</time>
|
|
</trkpt>
|
|
<trkpt lat="56.137851" lon="8.160606">
|
|
<ele>28.480285</ele>
|
|
<time>2026-07-12T15:28:42.000Z</time>
|
|
</trkpt>
|
|
<trkpt lat="56.137828" lon="8.160701">
|
|
<ele>28.468651</ele>
|
|
<time>2026-07-12T15:28:43.000Z</time>
|
|
</trkpt>
|
|
<trkpt lat="56.137804" lon="8.160794">
|
|
<ele>28.457139</ele>
|
|
<time>2026-07-12T15:28:44.000Z</time>
|
|
</trkpt>
|
|
<trkpt lat="56.137778" lon="8.160886">
|
|
<ele>28.445553</ele>
|
|
<time>2026-07-12T15:28:45.000Z</time>
|
|
</trkpt>
|
|
<trkpt lat="56.137756" lon="8.160979">
|
|
<ele>28.434205</ele>
|
|
<time>2026-07-12T15:28:46.000Z</time>
|
|
</trkpt>
|
|
<trkpt lat="56.137733" lon="8.161073">
|
|
<ele>28.422674</ele>
|
|
<time>2026-07-12T15:28:47.000Z</time>
|
|
</trkpt>
|
|
<trkpt lat="56.137708" lon="8.161166">
|
|
<ele>28.411076</ele>
|
|
<time>2026-07-12T15:28:48.000Z</time>
|
|
</trkpt>
|
|
<trkpt lat="56.137684" lon="8.161253">
|
|
<ele>28.400172</ele>
|
|
<time>2026-07-12T15:28:49.000Z</time>
|
|
</trkpt>
|
|
<trkpt lat="56.137664" lon="8.161334">
|
|
<ele>28.390221</ele>
|
|
<time>2026-07-12T15:28:50.000Z</time>
|
|
</trkpt>
|
|
<trkpt lat="56.137638" lon="8.161441">
|
|
<ele>28.377110</ele>
|
|
<time>2026-07-12T15:28:51.000Z</time>
|
|
</trkpt>
|
|
<trkpt lat="56.137615" lon="8.161536">
|
|
<ele>28.365476</ele>
|
|
<time>2026-07-12T15:28:52.000Z</time>
|
|
</trkpt>
|
|
<trkpt lat="56.137590" lon="8.161634">
|
|
<ele>28.353370</ele>
|
|
<time>2026-07-12T15:28:53.000Z</time>
|
|
</trkpt>
|
|
<trkpt lat="56.137565" lon="8.161732">
|
|
<ele>28.366913</ele>
|
|
<time>2026-07-12T15:28:54.000Z</time>
|
|
</trkpt>
|
|
<trkpt lat="56.137542" lon="8.161829">
|
|
<ele>28.389282</ele>
|
|
<time>2026-07-12T15:28:55.000Z</time>
|
|
</trkpt>
|
|
<trkpt lat="56.137518" lon="8.161926">
|
|
<ele>28.411804</ele>
|
|
<time>2026-07-12T15:28:56.000Z</time>
|
|
</trkpt>
|
|
<trkpt lat="56.137493" lon="8.162022">
|
|
<ele>28.434290</ele>
|
|
<time>2026-07-12T15:28:57.000Z</time>
|
|
</trkpt>
|
|
<trkpt lat="56.137470" lon="8.162118">
|
|
<ele>28.456464</ele>
|
|
<time>2026-07-12T15:28:58.000Z</time>
|
|
</trkpt>
|
|
<trkpt lat="56.137447" lon="8.162211">
|
|
<ele>28.478056</ele>
|
|
<time>2026-07-12T15:28:59.000Z</time>
|
|
</trkpt>
|
|
<trkpt lat="56.137424" lon="8.162305">
|
|
<ele>28.499841</ele>
|
|
<time>2026-07-12T15:29:00.000Z</time>
|
|
</trkpt>
|
|
<trkpt lat="56.137401" lon="8.162398">
|
|
<ele>28.521432</ele>
|
|
<time>2026-07-12T15:29:01.000Z</time>
|
|
</trkpt>
|
|
<trkpt lat="56.137377" lon="8.162492">
|
|
<ele>28.543373</ele>
|
|
<time>2026-07-12T15:29:02.000Z</time>
|
|
</trkpt>
|
|
<trkpt lat="56.137351" lon="8.162587">
|
|
<ele>28.565833</ele>
|
|
<time>2026-07-12T15:29:03.000Z</time>
|
|
</trkpt>
|
|
<trkpt lat="56.137327" lon="8.162682">
|
|
<ele>28.587967</ele>
|
|
<time>2026-07-12T15:29:04.000Z</time>
|
|
</trkpt>
|
|
<trkpt lat="56.137303" lon="8.162779">
|
|
<ele>28.610488</ele>
|
|
<time>2026-07-12T15:29:05.000Z</time>
|
|
</trkpt>
|
|
<trkpt lat="56.137282" lon="8.162876">
|
|
<ele>28.632571</ele>
|
|
<time>2026-07-12T15:29:06.000Z</time>
|
|
</trkpt>
|
|
<trkpt lat="56.137260" lon="8.162972">
|
|
<ele>28.654598</ele>
|
|
<time>2026-07-12T15:29:07.000Z</time>
|
|
</trkpt>
|
|
<trkpt lat="56.137237" lon="8.163068">
|
|
<ele>28.676773</ele>
|
|
<time>2026-07-12T15:29:08.000Z</time>
|
|
</trkpt>
|
|
<trkpt lat="56.137214" lon="8.163163">
|
|
<ele>28.698752</ele>
|
|
<time>2026-07-12T15:29:09.000Z</time>
|
|
</trkpt>
|
|
<trkpt lat="56.137191" lon="8.163260">
|
|
<ele>28.721122</ele>
|
|
<time>2026-07-12T15:29:10.000Z</time>
|
|
</trkpt>
|
|
<trkpt lat="56.137168" lon="8.163357">
|
|
<ele>28.743492</ele>
|
|
<time>2026-07-12T15:29:11.000Z</time>
|
|
</trkpt>
|
|
<trkpt lat="56.137147" lon="8.163452">
|
|
<ele>28.765179</ele>
|
|
<time>2026-07-12T15:29:12.000Z</time>
|
|
</trkpt>
|
|
<trkpt lat="56.137125" lon="8.163547">
|
|
<ele>28.787010</ele>
|
|
<time>2026-07-12T15:29:13.000Z</time>
|
|
</trkpt>
|
|
<trkpt lat="56.137100" lon="8.163639">
|
|
<ele>28.808731</ele>
|
|
<time>2026-07-12T15:29:14.000Z</time>
|
|
</trkpt>
|
|
<trkpt lat="56.137076" lon="8.163732">
|
|
<ele>28.830479</ele>
|
|
<time>2026-07-12T15:29:15.000Z</time>
|
|
</trkpt>
|
|
<trkpt lat="56.137049" lon="8.163830">
|
|
<ele>28.853678</ele>
|
|
<time>2026-07-12T15:29:16.000Z</time>
|
|
</trkpt>
|
|
<trkpt lat="56.137023" lon="8.163928">
|
|
<ele>28.876711</ele>
|
|
<time>2026-07-12T15:29:17.000Z</time>
|
|
</trkpt>
|
|
<trkpt lat="56.136999" lon="8.164026">
|
|
<ele>28.899427</ele>
|
|
<time>2026-07-12T15:29:18.000Z</time>
|
|
</trkpt>
|
|
<trkpt lat="56.136973" lon="8.164122">
|
|
<ele>28.922077</ele>
|
|
<time>2026-07-12T15:29:19.000Z</time>
|
|
</trkpt>
|
|
<trkpt lat="56.136946" lon="8.164222">
|
|
<ele>28.945658</ele>
|
|
<time>2026-07-12T15:29:20.000Z</time>
|
|
</trkpt>
|
|
<trkpt lat="56.136920" lon="8.164324">
|
|
<ele>28.969460</ele>
|
|
<time>2026-07-12T15:29:21.000Z</time>
|
|
</trkpt>
|
|
<trkpt lat="56.136896" lon="8.164424">
|
|
<ele>28.992565</ele>
|
|
<time>2026-07-12T15:29:22.000Z</time>
|
|
</trkpt>
|
|
<trkpt lat="56.136871" lon="8.164523">
|
|
<ele>29.015629</ele>
|
|
<time>2026-07-12T15:29:23.000Z</time>
|
|
</trkpt>
|
|
<trkpt lat="56.136847" lon="8.164620">
|
|
<ele>29.034249</ele>
|
|
<time>2026-07-12T15:29:24.000Z</time>
|
|
</trkpt>
|
|
<trkpt lat="56.136822" lon="8.164715">
|
|
<ele>29.027830</ele>
|
|
<time>2026-07-12T15:29:25.000Z</time>
|
|
</trkpt>
|
|
<trkpt lat="56.136798" lon="8.164819">
|
|
<ele>29.020953</ele>
|
|
<time>2026-07-12T15:29:26.000Z</time>
|
|
</trkpt>
|
|
<trkpt lat="56.136774" lon="8.164918">
|
|
<ele>29.014357</ele>
|
|
<time>2026-07-12T15:29:27.000Z</time>
|
|
</trkpt>
|
|
<trkpt lat="56.136749" lon="8.165013">
|
|
<ele>29.007938</ele>
|
|
<time>2026-07-12T15:29:28.000Z</time>
|
|
</trkpt>
|
|
<trkpt lat="56.136725" lon="8.165107">
|
|
<ele>29.001621</ele>
|
|
<time>2026-07-12T15:29:29.000Z</time>
|
|
</trkpt>
|
|
<trkpt lat="56.136698" lon="8.165207">
|
|
<ele>28.994833</ele>
|
|
<time>2026-07-12T15:29:30.000Z</time>
|
|
</trkpt>
|
|
<trkpt lat="56.136671" lon="8.165305">
|
|
<ele>28.988153</ele>
|
|
<time>2026-07-12T15:29:31.000Z</time>
|
|
</trkpt>
|
|
<trkpt lat="56.136645" lon="8.165406">
|
|
<ele>28.981356</ele>
|
|
<time>2026-07-12T15:29:32.000Z</time>
|
|
</trkpt>
|
|
<trkpt lat="56.136623" lon="8.165505">
|
|
<ele>28.974845</ele>
|
|
<time>2026-07-12T15:29:33.000Z</time>
|
|
</trkpt>
|
|
<trkpt lat="56.136600" lon="8.165602">
|
|
<ele>28.968404</ele>
|
|
<time>2026-07-12T15:29:34.000Z</time>
|
|
</trkpt>
|
|
<trkpt lat="56.136576" lon="8.165700">
|
|
<ele>28.961864</ele>
|
|
<time>2026-07-12T15:29:35.000Z</time>
|
|
</trkpt>
|
|
<trkpt lat="56.136550" lon="8.165799">
|
|
<ele>28.955178</ele>
|
|
<time>2026-07-12T15:29:36.000Z</time>
|
|
</trkpt>
|
|
<trkpt lat="56.136526" lon="8.165895">
|
|
<ele>28.948749</ele>
|
|
<time>2026-07-12T15:29:37.000Z</time>
|
|
</trkpt>
|
|
<trkpt lat="56.136501" lon="8.165990">
|
|
<ele>28.942331</ele>
|
|
<time>2026-07-12T15:29:38.000Z</time>
|
|
</trkpt>
|
|
<trkpt lat="56.136478" lon="8.166087">
|
|
<ele>28.935890</ele>
|
|
<time>2026-07-12T15:29:39.000Z</time>
|
|
</trkpt>
|
|
<trkpt lat="56.136455" lon="8.166179">
|
|
<ele>28.929730</ele>
|
|
<time>2026-07-12T15:29:40.000Z</time>
|
|
</trkpt>
|
|
<trkpt lat="56.136431" lon="8.166270">
|
|
<ele>28.923579</ele>
|
|
<time>2026-07-12T15:29:41.000Z</time>
|
|
</trkpt>
|
|
<trkpt lat="56.136405" lon="8.166376">
|
|
<ele>28.916503</ele>
|
|
<time>2026-07-12T15:29:42.000Z</time>
|
|
</trkpt>
|
|
<trkpt lat="56.136384" lon="8.166470">
|
|
<ele>28.910316</ele>
|
|
<time>2026-07-12T15:29:43.000Z</time>
|
|
</trkpt>
|
|
<trkpt lat="56.136362" lon="8.166563">
|
|
<ele>28.904143</ele>
|
|
<time>2026-07-12T15:29:44.000Z</time>
|
|
</trkpt>
|
|
<trkpt lat="56.136337" lon="8.166657">
|
|
<ele>28.897780</ele>
|
|
<time>2026-07-12T15:29:45.000Z</time>
|
|
</trkpt>
|
|
<trkpt lat="56.136314" lon="8.166749">
|
|
<ele>28.891619</ele>
|
|
<time>2026-07-12T15:29:46.000Z</time>
|
|
</trkpt>
|
|
<trkpt lat="56.136291" lon="8.166838">
|
|
<ele>28.885626</ele>
|
|
<time>2026-07-12T15:29:47.000Z</time>
|
|
</trkpt>
|
|
<trkpt lat="56.136269" lon="8.166930">
|
|
<ele>28.879509</ele>
|
|
<time>2026-07-12T15:29:48.000Z</time>
|
|
</trkpt>
|
|
<trkpt lat="56.136245" lon="8.167023">
|
|
<ele>28.873248</ele>
|
|
<time>2026-07-12T15:29:49.000Z</time>
|
|
</trkpt>
|
|
<trkpt lat="56.136223" lon="8.167115">
|
|
<ele>28.867131</ele>
|
|
<time>2026-07-12T15:29:50.000Z</time>
|
|
</trkpt>
|
|
<trkpt lat="56.136200" lon="8.167206">
|
|
<ele>28.861026</ele>
|
|
<time>2026-07-12T15:29:51.000Z</time>
|
|
</trkpt>
|
|
<trkpt lat="56.136176" lon="8.167298">
|
|
<ele>28.854820</ele>
|
|
<time>2026-07-12T15:29:52.000Z</time>
|
|
</trkpt>
|
|
<trkpt lat="56.136152" lon="8.167391">
|
|
<ele>28.848559</ele>
|
|
<time>2026-07-12T15:29:53.000Z</time>
|
|
</trkpt>
|
|
<trkpt lat="56.136127" lon="8.167484">
|
|
<ele>28.842250</ele>
|
|
<time>2026-07-12T15:29:54.000Z</time>
|
|
</trkpt>
|
|
<trkpt lat="56.136104" lon="8.167579">
|
|
<ele>28.834672</ele>
|
|
<time>2026-07-12T15:29:55.000Z</time>
|
|
</trkpt>
|
|
<trkpt lat="56.136080" lon="8.167673">
|
|
<ele>28.824389</ele>
|
|
<time>2026-07-12T15:29:56.000Z</time>
|
|
</trkpt>
|
|
<trkpt lat="56.136055" lon="8.167764">
|
|
<ele>28.814299</ele>
|
|
<time>2026-07-12T15:29:57.000Z</time>
|
|
</trkpt>
|
|
<trkpt lat="56.136033" lon="8.167856">
|
|
<ele>28.804343</ele>
|
|
<time>2026-07-12T15:29:58.000Z</time>
|
|
</trkpt>
|
|
<trkpt lat="56.136010" lon="8.167953">
|
|
<ele>28.793859</ele>
|
|
<time>2026-07-12T15:29:59.000Z</time>
|
|
</trkpt>
|
|
<trkpt lat="56.135990" lon="8.168049">
|
|
<ele>28.783667</ele>
|
|
<time>2026-07-12T15:30:00.000Z</time>
|
|
</trkpt>
|
|
<trkpt lat="56.135968" lon="8.168140">
|
|
<ele>28.773802</ele>
|
|
<time>2026-07-12T15:30:01.000Z</time>
|
|
</trkpt>
|
|
<trkpt lat="56.135945" lon="8.168233">
|
|
<ele>28.763683</ele>
|
|
<time>2026-07-12T15:30:02.000Z</time>
|
|
</trkpt>
|
|
<trkpt lat="56.135920" lon="8.168332">
|
|
<ele>28.752874</ele>
|
|
<time>2026-07-12T15:30:03.000Z</time>
|
|
</trkpt>
|
|
<trkpt lat="56.135894" lon="8.168429">
|
|
<ele>28.742170</ele>
|
|
<time>2026-07-12T15:30:04.000Z</time>
|
|
</trkpt>
|
|
<trkpt lat="56.135872" lon="8.168525">
|
|
<ele>28.731847</ele>
|
|
<time>2026-07-12T15:30:05.000Z</time>
|
|
</trkpt>
|
|
<trkpt lat="56.135849" lon="8.168618">
|
|
<ele>28.721728</ele>
|
|
<time>2026-07-12T15:30:06.000Z</time>
|
|
</trkpt>
|
|
<trkpt lat="56.135826" lon="8.168713">
|
|
<ele>28.711427</ele>
|
|
<time>2026-07-12T15:30:07.000Z</time>
|
|
</trkpt>
|
|
<trkpt lat="56.135803" lon="8.168805">
|
|
<ele>28.701399</ele>
|
|
<time>2026-07-12T15:30:08.000Z</time>
|
|
</trkpt>
|
|
<trkpt lat="56.135781" lon="8.168893">
|
|
<ele>28.691807</ele>
|
|
<time>2026-07-12T15:30:09.000Z</time>
|
|
</trkpt>
|
|
<trkpt lat="56.135758" lon="8.168983">
|
|
<ele>28.681961</ele>
|
|
<time>2026-07-12T15:30:10.000Z</time>
|
|
</trkpt>
|
|
<trkpt lat="56.135736" lon="8.169077">
|
|
<ele>28.671821</ele>
|
|
<time>2026-07-12T15:30:11.000Z</time>
|
|
</trkpt>
|
|
<trkpt lat="56.135717" lon="8.169163">
|
|
<ele>28.662621</ele>
|
|
<time>2026-07-12T15:30:12.000Z</time>
|
|
</trkpt>
|
|
<trkpt lat="56.135695" lon="8.169257">
|
|
<ele>28.652482</ele>
|
|
<time>2026-07-12T15:30:13.000Z</time>
|
|
</trkpt>
|
|
<trkpt lat="56.135674" lon="8.169354">
|
|
<ele>28.642133</ele>
|
|
<time>2026-07-12T15:30:14.000Z</time>
|
|
</trkpt>
|
|
<trkpt lat="56.135655" lon="8.169440">
|
|
<ele>28.632932</ele>
|
|
<time>2026-07-12T15:30:15.000Z</time>
|
|
</trkpt>
|
|
<trkpt lat="56.135637" lon="8.169523">
|
|
<ele>28.624075</ele>
|
|
<time>2026-07-12T15:30:16.000Z</time>
|
|
</trkpt>
|
|
<trkpt lat="56.135623" lon="8.169602">
|
|
<ele>28.615831</ele>
|
|
<time>2026-07-12T15:30:17.000Z</time>
|
|
</trkpt>
|
|
<trkpt lat="56.135615" lon="8.169675">
|
|
<ele>28.608432</ele>
|
|
<time>2026-07-12T15:30:18.000Z</time>
|
|
</trkpt>
|
|
<trkpt lat="56.135611" lon="8.169738">
|
|
<ele>28.602126</ele>
|
|
<time>2026-07-12T15:30:19.000Z</time>
|
|
</trkpt>
|
|
<trkpt lat="56.135607" lon="8.169788">
|
|
<ele>28.597103</ele>
|
|
<time>2026-07-12T15:30:20.000Z</time>
|
|
</trkpt>
|
|
<trkpt lat="56.135605" lon="8.169826">
|
|
<ele>28.593307</ele>
|
|
<time>2026-07-12T15:30:21.000Z</time>
|
|
</trkpt>
|
|
<trkpt lat="56.135602" lon="8.169858">
|
|
<ele>28.590080</ele>
|
|
<time>2026-07-12T15:30:22.000Z</time>
|
|
</trkpt>
|
|
<trkpt lat="56.135596" lon="8.169885">
|
|
<ele>28.587189</ele>
|
|
<time>2026-07-12T15:30:23.000Z</time>
|
|
</trkpt>
|
|
<trkpt lat="56.135591" lon="8.169907">
|
|
<ele>28.584826</ele>
|
|
<time>2026-07-12T15:30:24.000Z</time>
|
|
</trkpt>
|
|
<trkpt lat="56.135584" lon="8.169922">
|
|
<ele>28.582880</ele>
|
|
<time>2026-07-12T15:30:25.000Z</time>
|
|
</trkpt>
|
|
<trkpt lat="56.135638" lon="8.169905">
|
|
<ele>28.573096</ele>
|
|
<time>2026-07-12T15:31:14.000Z</time>
|
|
</trkpt>
|
|
<trkpt lat="56.135657" lon="8.169913">
|
|
<ele>28.569613</ele>
|
|
<time>2026-07-12T15:31:15.000Z</time>
|
|
</trkpt>
|
|
<trkpt lat="56.135682" lon="8.169924">
|
|
<ele>28.565019</ele>
|
|
<time>2026-07-12T15:31:16.000Z</time>
|
|
</trkpt>
|
|
<trkpt lat="56.135705" lon="8.169936">
|
|
<ele>28.560744</ele>
|
|
<time>2026-07-12T15:31:17.000Z</time>
|
|
</trkpt>
|
|
<trkpt lat="56.135731" lon="8.169951">
|
|
<ele>28.555870</ele>
|
|
<time>2026-07-12T15:31:18.000Z</time>
|
|
</trkpt>
|
|
<trkpt lat="56.135763" lon="8.169971">
|
|
<ele>28.549822</ele>
|
|
<time>2026-07-12T15:31:19.000Z</time>
|
|
</trkpt>
|
|
<trkpt lat="56.135798" lon="8.169994">
|
|
<ele>28.543170</ele>
|
|
<time>2026-07-12T15:31:20.000Z</time>
|
|
</trkpt>
|
|
<trkpt lat="56.135833" lon="8.170020">
|
|
<ele>28.536410</ele>
|
|
<time>2026-07-12T15:31:21.000Z</time>
|
|
</trkpt>
|
|
<trkpt lat="56.135872" lon="8.170049">
|
|
<ele>28.528876</ele>
|
|
<time>2026-07-12T15:31:22.000Z</time>
|
|
</trkpt>
|
|
<trkpt lat="56.135908" lon="8.170085">
|
|
<ele>28.521520</ele>
|
|
<time>2026-07-12T15:31:23.000Z</time>
|
|
</trkpt>
|
|
<trkpt lat="56.135944" lon="8.170123">
|
|
<ele>28.521915</ele>
|
|
<time>2026-07-12T15:31:24.000Z</time>
|
|
</trkpt>
|
|
<trkpt lat="56.135988" lon="8.170160">
|
|
<ele>28.537191</ele>
|
|
<time>2026-07-12T15:31:25.000Z</time>
|
|
</trkpt>
|
|
<trkpt lat="56.136034" lon="8.170192">
|
|
<ele>28.552701</ele>
|
|
<time>2026-07-12T15:31:26.000Z</time>
|
|
</trkpt>
|
|
<trkpt lat="56.136078" lon="8.170224">
|
|
<ele>28.567626</ele>
|
|
<time>2026-07-12T15:31:27.000Z</time>
|
|
</trkpt>
|
|
<trkpt lat="56.136120" lon="8.170258">
|
|
<ele>28.582111</ele>
|
|
<time>2026-07-12T15:31:28.000Z</time>
|
|
</trkpt>
|
|
<trkpt lat="56.136161" lon="8.170294">
|
|
<ele>28.596461</ele>
|
|
<time>2026-07-12T15:31:29.000Z</time>
|
|
</trkpt>
|
|
<trkpt lat="56.136205" lon="8.170333">
|
|
<ele>28.611889</ele>
|
|
<time>2026-07-12T15:31:30.000Z</time>
|
|
</trkpt>
|
|
<trkpt lat="56.136246" lon="8.170368">
|
|
<ele>28.626163</ele>
|
|
<time>2026-07-12T15:31:31.000Z</time>
|
|
</trkpt>
|
|
<trkpt lat="56.136287" lon="8.170404">
|
|
<ele>28.640512</ele>
|
|
<time>2026-07-12T15:31:32.000Z</time>
|
|
</trkpt>
|
|
<trkpt lat="56.136331" lon="8.170440">
|
|
<ele>28.655715</ele>
|
|
<time>2026-07-12T15:31:33.000Z</time>
|
|
</trkpt>
|
|
<trkpt lat="56.136371" lon="8.170476">
|
|
<ele>28.669783</ele>
|
|
<time>2026-07-12T15:31:34.000Z</time>
|
|
</trkpt>
|
|
<trkpt lat="56.136409" lon="8.170513">
|
|
<ele>28.683375</ele>
|
|
<time>2026-07-12T15:31:35.000Z</time>
|
|
</trkpt>
|
|
<trkpt lat="56.136447" lon="8.170550">
|
|
<ele>28.696966</ele>
|
|
<time>2026-07-12T15:31:36.000Z</time>
|
|
</trkpt>
|
|
<trkpt lat="56.136487" lon="8.170584">
|
|
<ele>28.710881</ele>
|
|
<time>2026-07-12T15:31:37.000Z</time>
|
|
</trkpt>
|
|
<trkpt lat="56.136528" lon="8.170618">
|
|
<ele>28.725080</ele>
|
|
<time>2026-07-12T15:31:38.000Z</time>
|
|
</trkpt>
|
|
<trkpt lat="56.136566" lon="8.170651">
|
|
<ele>28.738352</ele>
|
|
<time>2026-07-12T15:31:39.000Z</time>
|
|
</trkpt>
|
|
<trkpt lat="56.136604" lon="8.170684">
|
|
<ele>28.751623</ele>
|
|
<time>2026-07-12T15:31:40.000Z</time>
|
|
</trkpt>
|
|
<trkpt lat="56.136640" lon="8.170718">
|
|
<ele>28.764413</ele>
|
|
<time>2026-07-12T15:31:41.000Z</time>
|
|
</trkpt>
|
|
<trkpt lat="56.136677" lon="8.170752">
|
|
<ele>28.777481</ele>
|
|
<time>2026-07-12T15:31:42.000Z</time>
|
|
</trkpt>
|
|
<trkpt lat="56.136711" lon="8.170787">
|
|
<ele>28.789803</ele>
|
|
<time>2026-07-12T15:31:43.000Z</time>
|
|
</trkpt>
|
|
<trkpt lat="56.136743" lon="8.170824">
|
|
<ele>28.801771</ele>
|
|
<time>2026-07-12T15:31:44.000Z</time>
|
|
</trkpt>
|
|
<trkpt lat="56.136778" lon="8.170867">
|
|
<ele>28.815106</ele>
|
|
<time>2026-07-12T15:31:45.000Z</time>
|
|
</trkpt>
|
|
<trkpt lat="56.136812" lon="8.170907">
|
|
<ele>28.827887</ele>
|
|
<time>2026-07-12T15:31:46.000Z</time>
|
|
</trkpt>
|
|
<trkpt lat="56.136846" lon="8.170945">
|
|
<ele>28.840479</ele>
|
|
<time>2026-07-12T15:31:47.000Z</time>
|
|
</trkpt>
|
|
<trkpt lat="56.136882" lon="8.170979">
|
|
<ele>28.853268</ele>
|
|
<time>2026-07-12T15:31:48.000Z</time>
|
|
</trkpt>
|
|
<trkpt lat="56.136922" lon="8.171009">
|
|
<ele>28.866897</ele>
|
|
<time>2026-07-12T15:31:49.000Z</time>
|
|
</trkpt>
|
|
<trkpt lat="56.136961" lon="8.171040">
|
|
<ele>28.880307</ele>
|
|
<time>2026-07-12T15:31:50.000Z</time>
|
|
</trkpt>
|
|
<trkpt lat="56.137001" lon="8.171071">
|
|
<ele>28.894005</ele>
|
|
<time>2026-07-12T15:31:51.000Z</time>
|
|
</trkpt>
|
|
<trkpt lat="56.137038" lon="8.171104">
|
|
<ele>28.906994</ele>
|
|
<time>2026-07-12T15:31:52.000Z</time>
|
|
</trkpt>
|
|
<trkpt lat="56.137073" lon="8.171139">
|
|
<ele>28.919590</ele>
|
|
<time>2026-07-12T15:31:53.000Z</time>
|
|
</trkpt>
|
|
<trkpt lat="56.137111" lon="8.171175">
|
|
<ele>28.933099</ele>
|
|
<time>2026-07-12T15:31:54.000Z</time>
|
|
</trkpt>
|
|
<trkpt lat="56.137149" lon="8.171209">
|
|
<ele>28.946448</ele>
|
|
<time>2026-07-12T15:31:55.000Z</time>
|
|
</trkpt>
|
|
<trkpt lat="56.137186" lon="8.171240">
|
|
<ele>28.959285</ele>
|
|
<time>2026-07-12T15:31:56.000Z</time>
|
|
</trkpt>
|
|
<trkpt lat="56.137222" lon="8.171272">
|
|
<ele>28.971915</ele>
|
|
<time>2026-07-12T15:31:57.000Z</time>
|
|
</trkpt>
|
|
<trkpt lat="56.137260" lon="8.171304">
|
|
<ele>28.985112</ele>
|
|
<time>2026-07-12T15:31:58.000Z</time>
|
|
</trkpt>
|
|
<trkpt lat="56.137297" lon="8.171337">
|
|
<ele>28.998101</ele>
|
|
<time>2026-07-12T15:31:59.000Z</time>
|
|
</trkpt>
|
|
<trkpt lat="56.137332" lon="8.171370">
|
|
<ele>29.010530</ele>
|
|
<time>2026-07-12T15:32:00.000Z</time>
|
|
</trkpt>
|
|
<trkpt lat="56.137372" lon="8.171402">
|
|
<ele>29.024299</ele>
|
|
<time>2026-07-12T15:32:01.000Z</time>
|
|
</trkpt>
|
|
<trkpt lat="56.137412" lon="8.171432">
|
|
<ele>29.037928</ele>
|
|
<time>2026-07-12T15:32:02.000Z</time>
|
|
</trkpt>
|
|
<trkpt lat="56.137452" lon="8.171456">
|
|
<ele>29.051187</ele>
|
|
<time>2026-07-12T15:32:03.000Z</time>
|
|
</trkpt>
|
|
<trkpt lat="56.137494" lon="8.171474">
|
|
<ele>29.064763</ele>
|
|
<time>2026-07-12T15:32:04.000Z</time>
|
|
</trkpt>
|
|
<trkpt lat="56.137536" lon="8.171486">
|
|
<ele>29.078133</ele>
|
|
<time>2026-07-12T15:32:05.000Z</time>
|
|
</trkpt>
|
|
<trkpt lat="56.137576" lon="8.171493">
|
|
<ele>29.080979</ele>
|
|
<time>2026-07-12T15:32:06.000Z</time>
|
|
</trkpt>
|
|
<trkpt lat="56.137618" lon="8.171497">
|
|
<ele>29.078790</ele>
|
|
<time>2026-07-12T15:32:07.000Z</time>
|
|
</trkpt>
|
|
<trkpt lat="56.137662" lon="8.171499">
|
|
<ele>29.076500</ele>
|
|
<time>2026-07-12T15:32:08.000Z</time>
|
|
</trkpt>
|
|
<trkpt lat="56.137702" lon="8.171501">
|
|
<ele>29.074417</ele>
|
|
<time>2026-07-12T15:32:09.000Z</time>
|
|
</trkpt>
|
|
<trkpt lat="56.137741" lon="8.171504">
|
|
<ele>29.072386</ele>
|
|
<time>2026-07-12T15:32:10.000Z</time>
|
|
</trkpt>
|
|
<trkpt lat="56.137781" lon="8.171512">
|
|
<ele>29.070292</ele>
|
|
<time>2026-07-12T15:32:11.000Z</time>
|
|
</trkpt>
|
|
<trkpt lat="56.137816" lon="8.171527">
|
|
<ele>29.068419</ele>
|
|
<time>2026-07-12T15:32:12.000Z</time>
|
|
</trkpt>
|
|
<trkpt lat="56.137850" lon="8.171548">
|
|
<ele>29.066548</ele>
|
|
<time>2026-07-12T15:32:13.000Z</time>
|
|
</trkpt>
|
|
<trkpt lat="56.137884" lon="8.171575">
|
|
<ele>29.064613</ele>
|
|
<time>2026-07-12T15:32:14.000Z</time>
|
|
</trkpt>
|
|
<trkpt lat="56.137918" lon="8.171609">
|
|
<ele>29.062588</ele>
|
|
<time>2026-07-12T15:32:15.000Z</time>
|
|
</trkpt>
|
|
<trkpt lat="56.137953" lon="8.171645">
|
|
<ele>29.060488</ele>
|
|
<time>2026-07-12T15:32:16.000Z</time>
|
|
</trkpt>
|
|
<trkpt lat="56.137987" lon="8.171680">
|
|
<ele>29.058448</ele>
|
|
<time>2026-07-12T15:32:17.000Z</time>
|
|
</trkpt>
|
|
<trkpt lat="56.138019" lon="8.171714">
|
|
<ele>29.056513</ele>
|
|
<time>2026-07-12T15:32:18.000Z</time>
|
|
</trkpt>
|
|
<trkpt lat="56.138051" lon="8.171751">
|
|
<ele>29.054532</ele>
|
|
<time>2026-07-12T15:32:19.000Z</time>
|
|
</trkpt>
|
|
<trkpt lat="56.138084" lon="8.171789">
|
|
<ele>29.052492</ele>
|
|
<time>2026-07-12T15:32:20.000Z</time>
|
|
</trkpt>
|
|
<trkpt lat="56.138117" lon="8.171832">
|
|
<ele>29.050370</ele>
|
|
<time>2026-07-12T15:32:21.000Z</time>
|
|
</trkpt>
|
|
<trkpt lat="56.138147" lon="8.171879">
|
|
<ele>29.048297</ele>
|
|
<time>2026-07-12T15:32:22.000Z</time>
|
|
</trkpt>
|
|
<trkpt lat="56.138169" lon="8.171928">
|
|
<ele>29.046473</ele>
|
|
<time>2026-07-12T15:32:23.000Z</time>
|
|
</trkpt>
|
|
<trkpt lat="56.138192" lon="8.171976">
|
|
<ele>29.044637</ele>
|
|
<time>2026-07-12T15:32:24.000Z</time>
|
|
</trkpt>
|
|
<trkpt lat="56.138215" lon="8.172030">
|
|
<ele>29.042666</ele>
|
|
<time>2026-07-12T15:32:25.000Z</time>
|
|
</trkpt>
|
|
<trkpt lat="56.138240" lon="8.172081">
|
|
<ele>29.040697</ele>
|
|
<time>2026-07-12T15:32:26.000Z</time>
|
|
</trkpt>
|
|
<trkpt lat="56.138264" lon="8.172132">
|
|
<ele>29.038761</ele>
|
|
<time>2026-07-12T15:32:27.000Z</time>
|
|
</trkpt>
|
|
<trkpt lat="56.138290" lon="8.172187">
|
|
<ele>29.036670</ele>
|
|
<time>2026-07-12T15:32:28.000Z</time>
|
|
</trkpt>
|
|
<trkpt lat="56.138320" lon="8.172246">
|
|
<ele>29.034354</ele>
|
|
<time>2026-07-12T15:32:29.000Z</time>
|
|
</trkpt>
|
|
<trkpt lat="56.138347" lon="8.172304">
|
|
<ele>29.032162</ele>
|
|
<time>2026-07-12T15:32:30.000Z</time>
|
|
</trkpt>
|
|
<trkpt lat="56.138371" lon="8.172360">
|
|
<ele>29.030114</ele>
|
|
<time>2026-07-12T15:32:31.000Z</time>
|
|
</trkpt>
|
|
<trkpt lat="56.138394" lon="8.172410">
|
|
<ele>29.028234</ele>
|
|
<time>2026-07-12T15:32:32.000Z</time>
|
|
</trkpt>
|
|
<trkpt lat="56.138420" lon="8.172455">
|
|
<ele>29.026354</ele>
|
|
<time>2026-07-12T15:32:33.000Z</time>
|
|
</trkpt>
|
|
<trkpt lat="56.138453" lon="8.172499">
|
|
<ele>29.024214</ele>
|
|
<time>2026-07-12T15:32:34.000Z</time>
|
|
</trkpt>
|
|
<trkpt lat="56.138484" lon="8.172543">
|
|
<ele>29.022158</ele>
|
|
<time>2026-07-12T15:32:35.000Z</time>
|
|
</trkpt>
|
|
<trkpt lat="56.138512" lon="8.172589">
|
|
<ele>29.020182</ele>
|
|
<time>2026-07-12T15:32:36.000Z</time>
|
|
</trkpt>
|
|
<trkpt lat="56.138544" lon="8.172637">
|
|
<ele>29.018012</ele>
|
|
<time>2026-07-12T15:32:37.000Z</time>
|
|
</trkpt>
|
|
<trkpt lat="56.138580" lon="8.172685">
|
|
<ele>29.015678</ele>
|
|
<time>2026-07-12T15:32:38.000Z</time>
|
|
</trkpt>
|
|
<trkpt lat="56.138616" lon="8.172730">
|
|
<ele>29.013395</ele>
|
|
<time>2026-07-12T15:32:39.000Z</time>
|
|
</trkpt>
|
|
<trkpt lat="56.138652" lon="8.172773">
|
|
<ele>29.011145</ele>
|
|
<time>2026-07-12T15:32:40.000Z</time>
|
|
</trkpt>
|
|
<trkpt lat="56.138689" lon="8.172818">
|
|
<ele>29.008819</ele>
|
|
<time>2026-07-12T15:32:41.000Z</time>
|
|
</trkpt>
|
|
<trkpt lat="56.138725" lon="8.172858">
|
|
<ele>29.006616</ele>
|
|
<time>2026-07-12T15:32:42.000Z</time>
|
|
</trkpt>
|
|
<trkpt lat="56.138764" lon="8.172899">
|
|
<ele>29.004263</ele>
|
|
<time>2026-07-12T15:32:43.000Z</time>
|
|
</trkpt>
|
|
<trkpt lat="56.138804" lon="8.172941">
|
|
<ele>29.001852</ele>
|
|
<time>2026-07-12T15:32:44.000Z</time>
|
|
</trkpt>
|
|
<trkpt lat="56.138841" lon="8.172983">
|
|
<ele>28.999574</ele>
|
|
<time>2026-07-12T15:32:45.000Z</time>
|
|
</trkpt>
|
|
<trkpt lat="56.138876" lon="8.173029">
|
|
<ele>28.997316</ele>
|
|
<time>2026-07-12T15:32:46.000Z</time>
|
|
</trkpt>
|
|
<trkpt lat="56.138909" lon="8.173070">
|
|
<ele>28.995227</ele>
|
|
<time>2026-07-12T15:32:47.000Z</time>
|
|
</trkpt>
|
|
<trkpt lat="56.138944" lon="8.173112">
|
|
<ele>28.993036</ele>
|
|
<time>2026-07-12T15:32:48.000Z</time>
|
|
</trkpt>
|
|
<trkpt lat="56.138987" lon="8.173163">
|
|
<ele>28.990354</ele>
|
|
<time>2026-07-12T15:32:49.000Z</time>
|
|
</trkpt>
|
|
<trkpt lat="56.139030" lon="8.173211">
|
|
<ele>28.969026</ele>
|
|
<time>2026-07-12T15:32:50.000Z</time>
|
|
</trkpt>
|
|
<trkpt lat="56.139069" lon="8.173254">
|
|
<ele>28.924235</ele>
|
|
<time>2026-07-12T15:32:51.000Z</time>
|
|
</trkpt>
|
|
<trkpt lat="56.139109" lon="8.173294">
|
|
<ele>28.879425</ele>
|
|
<time>2026-07-12T15:32:52.000Z</time>
|
|
</trkpt>
|
|
<trkpt lat="56.139147" lon="8.173334">
|
|
<ele>28.836315</ele>
|
|
<time>2026-07-12T15:32:53.000Z</time>
|
|
</trkpt>
|
|
<trkpt lat="56.139185" lon="8.173376">
|
|
<ele>28.792642</ele>
|
|
<time>2026-07-12T15:32:54.000Z</time>
|
|
</trkpt>
|
|
<trkpt lat="56.139218" lon="8.173417">
|
|
<ele>28.753366</ele>
|
|
<time>2026-07-12T15:32:55.000Z</time>
|
|
</trkpt>
|
|
<trkpt lat="56.139247" lon="8.173462">
|
|
<ele>28.715851</ele>
|
|
<time>2026-07-12T15:32:56.000Z</time>
|
|
</trkpt>
|
|
<trkpt lat="56.139275" lon="8.173507">
|
|
<ele>28.679070</ele>
|
|
<time>2026-07-12T15:32:57.000Z</time>
|
|
</trkpt>
|
|
<trkpt lat="56.139308" lon="8.173553">
|
|
<ele>28.638180</ele>
|
|
<time>2026-07-12T15:32:58.000Z</time>
|
|
</trkpt>
|
|
<trkpt lat="56.139343" lon="8.173599">
|
|
<ele>28.595728</ele>
|
|
<time>2026-07-12T15:32:59.000Z</time>
|
|
</trkpt>
|
|
<trkpt lat="56.139376" lon="8.173643">
|
|
<ele>28.555498</ele>
|
|
<time>2026-07-12T15:33:00.000Z</time>
|
|
</trkpt>
|
|
<trkpt lat="56.139417" lon="8.173694">
|
|
<ele>28.506682</ele>
|
|
<time>2026-07-12T15:33:01.000Z</time>
|
|
</trkpt>
|
|
<trkpt lat="56.139457" lon="8.173747">
|
|
<ele>28.458026</ele>
|
|
<time>2026-07-12T15:33:02.000Z</time>
|
|
</trkpt>
|
|
<trkpt lat="56.139494" lon="8.173799">
|
|
<ele>28.412038</ele>
|
|
<time>2026-07-12T15:33:03.000Z</time>
|
|
</trkpt>
|
|
<trkpt lat="56.139535" lon="8.173855">
|
|
<ele>28.361619</ele>
|
|
<time>2026-07-12T15:33:04.000Z</time>
|
|
</trkpt>
|
|
<trkpt lat="56.139576" lon="8.173911">
|
|
<ele>28.311200</ele>
|
|
<time>2026-07-12T15:33:05.000Z</time>
|
|
</trkpt>
|
|
<trkpt lat="56.139616" lon="8.173966">
|
|
<ele>28.261889</ele>
|
|
<time>2026-07-12T15:33:06.000Z</time>
|
|
</trkpt>
|
|
<trkpt lat="56.139656" lon="8.174023">
|
|
<ele>28.211908</ele>
|
|
<time>2026-07-12T15:33:07.000Z</time>
|
|
</trkpt>
|
|
<trkpt lat="56.139698" lon="8.174077">
|
|
<ele>28.161349</ele>
|
|
<time>2026-07-12T15:33:08.000Z</time>
|
|
</trkpt>
|
|
<trkpt lat="56.139738" lon="8.174127">
|
|
<ele>28.113648</ele>
|
|
<time>2026-07-12T15:33:09.000Z</time>
|
|
</trkpt>
|
|
<trkpt lat="56.139778" lon="8.174175">
|
|
<ele>28.066561</ele>
|
|
<time>2026-07-12T15:33:10.000Z</time>
|
|
</trkpt>
|
|
<trkpt lat="56.139819" lon="8.174222">
|
|
<ele>28.018953</ele>
|
|
<time>2026-07-12T15:33:11.000Z</time>
|
|
</trkpt>
|
|
<trkpt lat="56.139859" lon="8.174265">
|
|
<ele>27.973325</ele>
|
|
<time>2026-07-12T15:33:12.000Z</time>
|
|
</trkpt>
|
|
<trkpt lat="56.139899" lon="8.174306">
|
|
<ele>27.928247</ele>
|
|
<time>2026-07-12T15:33:13.000Z</time>
|
|
</trkpt>
|
|
<trkpt lat="56.139938" lon="8.174346">
|
|
<ele>27.884290</ele>
|
|
<time>2026-07-12T15:33:14.000Z</time>
|
|
</trkpt>
|
|
<trkpt lat="56.139978" lon="8.174381">
|
|
<ele>27.840742</ele>
|
|
<time>2026-07-12T15:33:15.000Z</time>
|
|
</trkpt>
|
|
<trkpt lat="56.140020" lon="8.174414">
|
|
<ele>27.795876</ele>
|
|
<time>2026-07-12T15:33:16.000Z</time>
|
|
</trkpt>
|
|
<trkpt lat="56.140060" lon="8.174444">
|
|
<ele>27.753452</ele>
|
|
<time>2026-07-12T15:33:17.000Z</time>
|
|
</trkpt>
|
|
<trkpt lat="56.140101" lon="8.174472">
|
|
<ele>27.710523</ele>
|
|
<time>2026-07-12T15:33:18.000Z</time>
|
|
</trkpt>
|
|
<trkpt lat="56.140145" lon="8.174499">
|
|
<ele>27.665018</ele>
|
|
<time>2026-07-12T15:33:19.000Z</time>
|
|
</trkpt>
|
|
<trkpt lat="56.140189" lon="8.174523">
|
|
<ele>27.620015</ele>
|
|
<time>2026-07-12T15:33:20.000Z</time>
|
|
</trkpt>
|
|
<trkpt lat="56.140233" lon="8.174545">
|
|
<ele>27.575318</ele>
|
|
<time>2026-07-12T15:33:21.000Z</time>
|
|
</trkpt>
|
|
<trkpt lat="56.140276" lon="8.174567">
|
|
<ele>27.531562</ele>
|
|
<time>2026-07-12T15:33:22.000Z</time>
|
|
</trkpt>
|
|
<trkpt lat="56.140322" lon="8.174589">
|
|
<ele>27.484976</ele>
|
|
<time>2026-07-12T15:33:23.000Z</time>
|
|
</trkpt>
|
|
<trkpt lat="56.140366" lon="8.174611">
|
|
<ele>27.440278</ele>
|
|
<time>2026-07-12T15:33:24.000Z</time>
|
|
</trkpt>
|
|
<trkpt lat="56.140409" lon="8.174631">
|
|
<ele>27.396809</ele>
|
|
<time>2026-07-12T15:33:25.000Z</time>
|
|
</trkpt>
|
|
<trkpt lat="56.140454" lon="8.174653">
|
|
<ele>27.351167</ele>
|
|
<time>2026-07-12T15:33:26.000Z</time>
|
|
</trkpt>
|
|
<trkpt lat="56.140497" lon="8.174673">
|
|
<ele>27.307698</ele>
|
|
<time>2026-07-12T15:33:27.000Z</time>
|
|
</trkpt>
|
|
<trkpt lat="56.140542" lon="8.174694">
|
|
<ele>27.262197</ele>
|
|
<time>2026-07-12T15:33:28.000Z</time>
|
|
</trkpt>
|
|
<trkpt lat="56.140588" lon="8.174715">
|
|
<ele>27.220983</ele>
|
|
<time>2026-07-12T15:33:29.000Z</time>
|
|
</trkpt>
|
|
<trkpt lat="56.140635" lon="8.174738">
|
|
<ele>27.192684</ele>
|
|
<time>2026-07-12T15:33:30.000Z</time>
|
|
</trkpt>
|
|
<trkpt lat="56.140684" lon="8.174759">
|
|
<ele>27.163419</ele>
|
|
<time>2026-07-12T15:33:31.000Z</time>
|
|
</trkpt>
|
|
<trkpt lat="56.140732" lon="8.174781">
|
|
<ele>27.134641</ele>
|
|
<time>2026-07-12T15:33:32.000Z</time>
|
|
</trkpt>
|
|
<trkpt lat="56.140774" lon="8.174802">
|
|
<ele>27.109314</ele>
|
|
<time>2026-07-12T15:33:33.000Z</time>
|
|
</trkpt>
|
|
<trkpt lat="56.140823" lon="8.174825">
|
|
<ele>27.079892</ele>
|
|
<time>2026-07-12T15:33:34.000Z</time>
|
|
</trkpt>
|
|
<trkpt lat="56.140873" lon="8.174847">
|
|
<ele>27.049987</ele>
|
|
<time>2026-07-12T15:33:35.000Z</time>
|
|
</trkpt>
|
|
<trkpt lat="56.140921" lon="8.174871">
|
|
<ele>27.021041</ele>
|
|
<time>2026-07-12T15:33:36.000Z</time>
|
|
</trkpt>
|
|
<trkpt lat="56.140966" lon="8.174893">
|
|
<ele>26.993948</ele>
|
|
<time>2026-07-12T15:33:37.000Z</time>
|
|
</trkpt>
|
|
<trkpt lat="56.141011" lon="8.174914">
|
|
<ele>26.966938</ele>
|
|
<time>2026-07-12T15:33:38.000Z</time>
|
|
</trkpt>
|
|
<trkpt lat="56.141062" lon="8.174937">
|
|
<ele>26.936391</ele>
|
|
<time>2026-07-12T15:33:39.000Z</time>
|
|
</trkpt>
|
|
<trkpt lat="56.141108" lon="8.174957">
|
|
<ele>26.908896</ele>
|
|
<time>2026-07-12T15:33:40.000Z</time>
|
|
</trkpt>
|
|
<trkpt lat="56.141153" lon="8.174978">
|
|
<ele>26.881887</ele>
|
|
<time>2026-07-12T15:33:41.000Z</time>
|
|
</trkpt>
|
|
<trkpt lat="56.141197" lon="8.174999">
|
|
<ele>26.855438</ele>
|
|
<time>2026-07-12T15:33:42.000Z</time>
|
|
</trkpt>
|
|
<trkpt lat="56.141247" lon="8.175023">
|
|
<ele>26.825372</ele>
|
|
<time>2026-07-12T15:33:43.000Z</time>
|
|
</trkpt>
|
|
<trkpt lat="56.141296" lon="8.175045">
|
|
<ele>26.796031</ele>
|
|
<time>2026-07-12T15:33:44.000Z</time>
|
|
</trkpt>
|
|
<trkpt lat="56.141344" lon="8.175067">
|
|
<ele>26.767253</ele>
|
|
<time>2026-07-12T15:33:45.000Z</time>
|
|
</trkpt>
|
|
<trkpt lat="56.141390" lon="8.175089">
|
|
<ele>26.739599</ele>
|
|
<time>2026-07-12T15:33:46.000Z</time>
|
|
</trkpt>
|
|
<trkpt lat="56.141435" lon="8.175112">
|
|
<ele>26.712418</ele>
|
|
<time>2026-07-12T15:33:47.000Z</time>
|
|
</trkpt>
|
|
<trkpt lat="56.141481" lon="8.175137">
|
|
<ele>26.684499</ele>
|
|
<time>2026-07-12T15:33:48.000Z</time>
|
|
</trkpt>
|
|
<trkpt lat="56.141525" lon="8.175162">
|
|
<ele>26.657689</ele>
|
|
<time>2026-07-12T15:33:49.000Z</time>
|
|
</trkpt>
|
|
<trkpt lat="56.141569" lon="8.175185">
|
|
<ele>26.631067</ele>
|
|
<time>2026-07-12T15:33:50.000Z</time>
|
|
</trkpt>
|
|
<trkpt lat="56.141612" lon="8.175205">
|
|
<ele>26.605263</ele>
|
|
<time>2026-07-12T15:33:51.000Z</time>
|
|
</trkpt>
|
|
<trkpt lat="56.141653" lon="8.175225">
|
|
<ele>26.580582</ele>
|
|
<time>2026-07-12T15:33:52.000Z</time>
|
|
</trkpt>
|
|
<trkpt lat="56.141692" lon="8.175243">
|
|
<ele>26.557189</ele>
|
|
<time>2026-07-12T15:33:53.000Z</time>
|
|
</trkpt>
|
|
<trkpt lat="56.141733" lon="8.175262">
|
|
<ele>26.532591</ele>
|
|
<time>2026-07-12T15:33:54.000Z</time>
|
|
</trkpt>
|
|
<trkpt lat="56.141772" lon="8.175280">
|
|
<ele>26.509199</ele>
|
|
<time>2026-07-12T15:33:55.000Z</time>
|
|
</trkpt>
|
|
<trkpt lat="56.141814" lon="8.175300">
|
|
<ele>26.483957</ele>
|
|
<time>2026-07-12T15:33:56.000Z</time>
|
|
</trkpt>
|
|
<trkpt lat="56.141852" lon="8.175320">
|
|
<ele>26.460953</ele>
|
|
<time>2026-07-12T15:33:57.000Z</time>
|
|
</trkpt>
|
|
<trkpt lat="56.141892" lon="8.175340">
|
|
<ele>26.436832</ele>
|
|
<time>2026-07-12T15:33:58.000Z</time>
|
|
</trkpt>
|
|
<trkpt lat="56.141933" lon="8.175359">
|
|
<ele>26.412233</ele>
|
|
<time>2026-07-12T15:33:59.000Z</time>
|
|
</trkpt>
|
|
<trkpt lat="56.141972" lon="8.175376">
|
|
<ele>26.388920</ele>
|
|
<time>2026-07-12T15:34:00.000Z</time>
|
|
</trkpt>
|
|
<trkpt lat="56.142013" lon="8.175393">
|
|
<ele>26.364475</ele>
|
|
<time>2026-07-12T15:34:01.000Z</time>
|
|
</trkpt>
|
|
<trkpt lat="56.142052" lon="8.175411">
|
|
<ele>26.341083</ele>
|
|
<time>2026-07-12T15:34:02.000Z</time>
|
|
</trkpt>
|
|
<trkpt lat="56.142098" lon="8.175430">
|
|
<ele>26.313663</ele>
|
|
<time>2026-07-12T15:34:03.000Z</time>
|
|
</trkpt>
|
|
<trkpt lat="56.142142" lon="8.175449">
|
|
<ele>26.287374</ele>
|
|
<time>2026-07-12T15:34:04.000Z</time>
|
|
</trkpt>
|
|
<trkpt lat="56.142186" lon="8.175467">
|
|
<ele>26.261158</ele>
|
|
<time>2026-07-12T15:34:05.000Z</time>
|
|
</trkpt>
|
|
<trkpt lat="56.142228" lon="8.175485">
|
|
<ele>26.236074</ele>
|
|
<time>2026-07-12T15:34:06.000Z</time>
|
|
</trkpt>
|
|
<trkpt lat="56.142269" lon="8.175505">
|
|
<ele>26.211393</ele>
|
|
<time>2026-07-12T15:34:07.000Z</time>
|
|
</trkpt>
|
|
<trkpt lat="56.142312" lon="8.175524">
|
|
<ele>26.185668</ele>
|
|
<time>2026-07-12T15:34:08.000Z</time>
|
|
</trkpt>
|
|
<trkpt lat="56.142355" lon="8.175541">
|
|
<ele>26.183785</ele>
|
|
<time>2026-07-12T15:34:09.000Z</time>
|
|
</trkpt>
|
|
<trkpt lat="56.142400" lon="8.175557">
|
|
<ele>26.183785</ele>
|
|
<time>2026-07-12T15:34:10.000Z</time>
|
|
</trkpt>
|
|
<trkpt lat="56.142445" lon="8.175574">
|
|
<ele>26.183785</ele>
|
|
<time>2026-07-12T15:34:11.000Z</time>
|
|
</trkpt>
|
|
<trkpt lat="56.142492" lon="8.175591">
|
|
<ele>26.183785</ele>
|
|
<time>2026-07-12T15:34:12.000Z</time>
|
|
</trkpt>
|
|
<trkpt lat="56.142536" lon="8.175607">
|
|
<ele>26.183785</ele>
|
|
<time>2026-07-12T15:34:13.000Z</time>
|
|
</trkpt>
|
|
<trkpt lat="56.142579" lon="8.175622">
|
|
<ele>26.183785</ele>
|
|
<time>2026-07-12T15:34:14.000Z</time>
|
|
</trkpt>
|
|
<trkpt lat="56.142623" lon="8.175638">
|
|
<ele>26.183785</ele>
|
|
<time>2026-07-12T15:34:15.000Z</time>
|
|
</trkpt>
|
|
<trkpt lat="56.142667" lon="8.175656">
|
|
<ele>26.183785</ele>
|
|
<time>2026-07-12T15:34:16.000Z</time>
|
|
</trkpt>
|
|
<trkpt lat="56.142709" lon="8.175676">
|
|
<ele>26.183785</ele>
|
|
<time>2026-07-12T15:34:17.000Z</time>
|
|
</trkpt>
|
|
<trkpt lat="56.142751" lon="8.175694">
|
|
<ele>26.183785</ele>
|
|
<time>2026-07-12T15:34:18.000Z</time>
|
|
</trkpt>
|
|
<trkpt lat="56.142791" lon="8.175710">
|
|
<ele>26.183785</ele>
|
|
<time>2026-07-12T15:34:19.000Z</time>
|
|
</trkpt>
|
|
<trkpt lat="56.142828" lon="8.175730">
|
|
<ele>26.183785</ele>
|
|
<time>2026-07-12T15:34:20.000Z</time>
|
|
</trkpt>
|
|
<trkpt lat="56.142864" lon="8.175752">
|
|
<ele>26.183785</ele>
|
|
<time>2026-07-12T15:34:21.000Z</time>
|
|
</trkpt>
|
|
<trkpt lat="56.142900" lon="8.175782">
|
|
<ele>26.183785</ele>
|
|
<time>2026-07-12T15:34:22.000Z</time>
|
|
</trkpt>
|
|
<trkpt lat="56.142930" lon="8.175816">
|
|
<ele>26.183785</ele>
|
|
<time>2026-07-12T15:34:23.000Z</time>
|
|
</trkpt>
|
|
<trkpt lat="56.142956" lon="8.175854">
|
|
<ele>26.183785</ele>
|
|
<time>2026-07-12T15:34:24.000Z</time>
|
|
</trkpt>
|
|
<trkpt lat="56.142983" lon="8.175892">
|
|
<ele>26.183785</ele>
|
|
<time>2026-07-12T15:34:25.000Z</time>
|
|
</trkpt>
|
|
<trkpt lat="56.143007" lon="8.175923">
|
|
<ele>26.183785</ele>
|
|
<time>2026-07-12T15:34:26.000Z</time>
|
|
</trkpt>
|
|
<trkpt lat="56.143032" lon="8.175953">
|
|
<ele>26.183785</ele>
|
|
<time>2026-07-12T15:34:27.000Z</time>
|
|
</trkpt>
|
|
<trkpt lat="56.143055" lon="8.175979">
|
|
<ele>26.183785</ele>
|
|
<time>2026-07-12T15:34:28.000Z</time>
|
|
</trkpt>
|
|
<trkpt lat="56.143078" lon="8.176001">
|
|
<ele>26.183785</ele>
|
|
<time>2026-07-12T15:34:29.000Z</time>
|
|
</trkpt>
|
|
<trkpt lat="56.143096" lon="8.176021">
|
|
<ele>26.183785</ele>
|
|
<time>2026-07-12T15:34:30.000Z</time>
|
|
</trkpt>
|
|
<trkpt lat="56.143116" lon="8.176035">
|
|
<ele>26.183785</ele>
|
|
<time>2026-07-12T15:34:31.000Z</time>
|
|
</trkpt>
|
|
<trkpt lat="56.143140" lon="8.176046">
|
|
<ele>26.183785</ele>
|
|
<time>2026-07-12T15:34:32.000Z</time>
|
|
</trkpt>
|
|
<trkpt lat="56.143161" lon="8.176056">
|
|
<ele>26.183785</ele>
|
|
<time>2026-07-12T15:34:33.000Z</time>
|
|
</trkpt>
|
|
<trkpt lat="56.143180" lon="8.176065">
|
|
<ele>26.183785</ele>
|
|
<time>2026-07-12T15:34:34.000Z</time>
|
|
</trkpt>
|
|
<trkpt lat="56.143198" lon="8.176073">
|
|
<ele>26.183785</ele>
|
|
<time>2026-07-12T15:34:35.000Z</time>
|
|
</trkpt>
|
|
<trkpt lat="56.143211" lon="8.176082">
|
|
<ele>26.183785</ele>
|
|
<time>2026-07-12T15:34:36.000Z</time>
|
|
</trkpt>
|
|
<trkpt lat="56.143221" lon="8.176091">
|
|
<ele>26.183785</ele>
|
|
<time>2026-07-12T15:34:37.000Z</time>
|
|
</trkpt>
|
|
<trkpt lat="56.143215" lon="8.176102">
|
|
<ele>26.183785</ele>
|
|
<time>2026-07-12T15:43:21.000Z</time>
|
|
</trkpt>
|
|
<trkpt lat="56.143199" lon="8.176166">
|
|
<ele>26.183785</ele>
|
|
<time>2026-07-12T15:43:22.000Z</time>
|
|
</trkpt>
|
|
<trkpt lat="56.143195" lon="8.176177">
|
|
<ele>26.183785</ele>
|
|
<time>2026-07-12T15:43:23.000Z</time>
|
|
</trkpt>
|
|
<trkpt lat="56.143191" lon="8.176191">
|
|
<ele>26.183785</ele>
|
|
<time>2026-07-12T15:43:24.000Z</time>
|
|
</trkpt>
|
|
<trkpt lat="56.143187" lon="8.176203">
|
|
<ele>26.183785</ele>
|
|
<time>2026-07-12T15:43:25.000Z</time>
|
|
</trkpt>
|
|
<trkpt lat="56.143185" lon="8.176207">
|
|
<ele>26.183785</ele>
|
|
<time>2026-07-12T15:43:26.000Z</time>
|
|
</trkpt>
|
|
<trkpt lat="56.143185" lon="8.176207">
|
|
<ele>26.183785</ele>
|
|
<time>2026-07-12T15:43:29.000Z</time>
|
|
</trkpt>
|
|
<trkpt lat="56.143185" lon="8.176207">
|
|
<ele>26.183785</ele>
|
|
<time>2026-07-12T15:43:31.000Z</time>
|
|
</trkpt>
|
|
<trkpt lat="56.143185" lon="8.176207">
|
|
<ele>26.183785</ele>
|
|
<time>2026-07-12T15:43:33.000Z</time>
|
|
</trkpt>
|
|
<trkpt lat="56.143160" lon="8.176258">
|
|
<ele>26.183785</ele>
|
|
<time>2026-07-12T15:43:37.000Z</time>
|
|
</trkpt>
|
|
<trkpt lat="56.143119" lon="8.176347">
|
|
<ele>26.183785</ele>
|
|
<time>2026-07-12T15:43:38.000Z</time>
|
|
</trkpt>
|
|
<trkpt lat="56.143115" lon="8.176358">
|
|
<ele>26.183785</ele>
|
|
<time>2026-07-12T15:43:39.000Z</time>
|
|
</trkpt>
|
|
<trkpt lat="56.143111" lon="8.176362">
|
|
<ele>26.183785</ele>
|
|
<time>2026-07-12T15:43:40.000Z</time>
|
|
</trkpt>
|
|
<trkpt lat="56.143108" lon="8.176360">
|
|
<ele>26.183785</ele>
|
|
<time>2026-07-12T15:43:41.000Z</time>
|
|
</trkpt>
|
|
<trkpt lat="56.143108" lon="8.176360">
|
|
<ele>26.183785</ele>
|
|
<time>2026-07-12T15:43:45.000Z</time>
|
|
</trkpt>
|
|
<trkpt lat="56.143108" lon="8.176360">
|
|
<ele>26.183785</ele>
|
|
<time>2026-07-12T15:43:58.000Z</time>
|
|
</trkpt>
|
|
<trkpt lat="56.143110" lon="8.176344">
|
|
<ele>26.183785</ele>
|
|
<time>2026-07-12T15:43:59.000Z</time>
|
|
</trkpt>
|
|
<trkpt lat="56.143114" lon="8.176304">
|
|
<ele>26.183785</ele>
|
|
<time>2026-07-12T15:44:00.000Z</time>
|
|
</trkpt>
|
|
<trkpt lat="56.143119" lon="8.176292">
|
|
<ele>26.183785</ele>
|
|
<time>2026-07-12T15:44:01.000Z</time>
|
|
</trkpt>
|
|
<trkpt lat="56.143125" lon="8.176280">
|
|
<ele>26.183785</ele>
|
|
<time>2026-07-12T15:44:02.000Z</time>
|
|
</trkpt>
|
|
<trkpt lat="56.143128" lon="8.176267">
|
|
<ele>26.183785</ele>
|
|
<time>2026-07-12T15:44:03.000Z</time>
|
|
</trkpt>
|
|
<trkpt lat="56.143134" lon="8.176251">
|
|
<ele>26.183785</ele>
|
|
<time>2026-07-12T15:44:04.000Z</time>
|
|
</trkpt>
|
|
<trkpt lat="56.143139" lon="8.176237">
|
|
<ele>26.183785</ele>
|
|
<time>2026-07-12T15:44:05.000Z</time>
|
|
</trkpt>
|
|
<trkpt lat="56.143140" lon="8.176225">
|
|
<ele>26.183785</ele>
|
|
<time>2026-07-12T15:44:06.000Z</time>
|
|
</trkpt>
|
|
<trkpt lat="56.143146" lon="8.176209">
|
|
<ele>26.183785</ele>
|
|
<time>2026-07-12T15:44:07.000Z</time>
|
|
</trkpt>
|
|
<trkpt lat="56.143149" lon="8.176193">
|
|
<ele>26.183785</ele>
|
|
<time>2026-07-12T15:44:08.000Z</time>
|
|
</trkpt>
|
|
<trkpt lat="56.143156" lon="8.176178">
|
|
<ele>26.183785</ele>
|
|
<time>2026-07-12T15:44:09.000Z</time>
|
|
</trkpt>
|
|
<trkpt lat="56.143163" lon="8.176167">
|
|
<ele>26.183785</ele>
|
|
<time>2026-07-12T15:44:10.000Z</time>
|
|
</trkpt>
|
|
<trkpt lat="56.143171" lon="8.176148">
|
|
<ele>26.183785</ele>
|
|
<time>2026-07-12T15:44:11.000Z</time>
|
|
</trkpt>
|
|
<trkpt lat="56.143173" lon="8.176137">
|
|
<ele>26.183785</ele>
|
|
<time>2026-07-12T15:44:12.000Z</time>
|
|
</trkpt>
|
|
<trkpt lat="56.143175" lon="8.176130">
|
|
<ele>26.183785</ele>
|
|
<time>2026-07-12T15:44:13.000Z</time>
|
|
</trkpt>
|
|
<trkpt lat="56.143182" lon="8.176128">
|
|
<ele>26.183785</ele>
|
|
<time>2026-07-12T15:44:14.000Z</time>
|
|
</trkpt>
|
|
<trkpt lat="56.143185" lon="8.176125">
|
|
<ele>26.183785</ele>
|
|
<time>2026-07-12T15:44:15.000Z</time>
|
|
</trkpt>
|
|
<trkpt lat="56.143185" lon="8.176124">
|
|
<ele>26.183785</ele>
|
|
<time>2026-07-12T15:44:16.000Z</time>
|
|
</trkpt>
|
|
<trkpt lat="56.143185" lon="8.176124">
|
|
<ele>26.183785</ele>
|
|
<time>2026-07-12T15:44:19.000Z</time>
|
|
</trkpt>
|
|
<trkpt lat="56.143185" lon="8.176124">
|
|
<ele>26.183785</ele>
|
|
<time>2026-07-12T15:44:20.000Z</time>
|
|
</trkpt>
|
|
<trkpt lat="56.143150" lon="8.176307">
|
|
<ele>26.183785</ele>
|
|
<time>2026-07-12T15:44:59.000Z</time>
|
|
</trkpt>
|
|
<trkpt lat="56.143150" lon="8.176307">
|
|
<ele>26.183785</ele>
|
|
<time>2026-07-12T15:45:06.000Z</time>
|
|
</trkpt>
|
|
</trkseg>
|
|
</trk>
|
|
</gpx> |